<?xml version="1.0" encoding="UTF-8" standalone="no" ?>
<gpx xmlns="http://www.topografix.com/GPX/1/1" xmlns:xsi="http://www.w3.org/2001/XMLSchema-instance" xsi:schemaLocation="http://www.topografix.com/GPX/1/1 http://www.topografix.com/GPX/1/1/gpx.xsd" version="1.1" creator="VisuGPX - https://www.visugpx.com">
  <metadata>
    <name>Tracé trail GVT</name>
    <desc><![CDATA[parcours GVT 2013]]></desc>
  </metadata>
  <trk>
    <name><![CDATA[2012-09-07T07:05:06Z]]></name>
    <trkseg>
      <trkpt lat="45.94965" lon="1.38978">
        <ele>502.8</ele>
        <time>2012-09-07T07:05:06Z</time>
      </trkpt>
      <trkpt lat="45.94972" lon="1.38981">
        <ele>502.6</ele>
        <time>2012-09-07T07:05:11Z</time>
      </trkpt>
      <trkpt lat="45.94983" lon="1.38996">
        <ele>502</ele>
        <time>2012-09-07T07:05:16Z</time>
      </trkpt>
      <trkpt lat="45.94994" lon="1.39004">
        <ele>500.8</ele>
        <time>2012-09-07T07:05:21Z</time>
      </trkpt>
      <trkpt lat="45.95007" lon="1.39008">
        <ele>499.4</ele>
        <time>2012-09-07T07:05:26Z</time>
      </trkpt>
      <trkpt lat="45.95023" lon="1.39011">
        <ele>497.2</ele>
        <time>2012-09-07T07:05:32Z</time>
      </trkpt>
      <trkpt lat="45.95036" lon="1.39015">
        <ele>495.6</ele>
        <time>2012-09-07T07:05:36Z</time>
      </trkpt>
      <trkpt lat="45.95059" lon="1.39017">
        <ele>493.2</ele>
        <time>2012-09-07T07:05:41Z</time>
      </trkpt>
      <trkpt lat="45.95075" lon="1.39022">
        <ele>490.8</ele>
        <time>2012-09-07T07:05:45Z</time>
      </trkpt>
      <trkpt lat="45.95094" lon="1.39026">
        <ele>487.6</ele>
        <time>2012-09-07T07:05:50Z</time>
      </trkpt>
      <trkpt lat="45.95113" lon="1.39029">
        <ele>483.8</ele>
        <time>2012-09-07T07:05:55Z</time>
      </trkpt>
      <trkpt lat="45.95119" lon="1.39031">
        <ele>482</ele>
        <time>2012-09-07T07:05:57Z</time>
      </trkpt>
      <trkpt lat="45.95134" lon="1.39029">
        <ele>478</ele>
        <time>2012-09-07T07:06:02Z</time>
      </trkpt>
      <trkpt lat="45.95152" lon="1.3904">
        <ele>472.8</ele>
        <time>2012-09-07T07:06:07Z</time>
      </trkpt>
      <trkpt lat="45.95165" lon="1.3904">
        <ele>468.6</ele>
        <time>2012-09-07T07:06:11Z</time>
      </trkpt>
      <trkpt lat="45.95179" lon="1.39036">
        <ele>463.4</ele>
        <time>2012-09-07T07:06:16Z</time>
      </trkpt>
      <trkpt lat="45.95183" lon="1.39032">
        <ele>460.6</ele>
        <time>2012-09-07T07:06:19Z</time>
      </trkpt>
      <trkpt lat="45.95186" lon="1.39031">
        <ele>458.8</ele>
        <time>2012-09-07T07:06:21Z</time>
      </trkpt>
      <trkpt lat="45.95197" lon="1.39036">
        <ele>454.4</ele>
        <time>2012-09-07T07:06:26Z</time>
      </trkpt>
      <trkpt lat="45.95211" lon="1.39043">
        <ele>449.4</ele>
        <time>2012-09-07T07:06:32Z</time>
      </trkpt>
      <trkpt lat="45.9522" lon="1.39054">
        <ele>444.8</ele>
        <time>2012-09-07T07:06:38Z</time>
      </trkpt>
      <trkpt lat="45.95223" lon="1.39055">
        <ele>444.2</ele>
        <time>2012-09-07T07:06:39Z</time>
      </trkpt>
      <trkpt lat="45.95226" lon="1.39061">
        <ele>442.8</ele>
        <time>2012-09-07T07:06:41Z</time>
      </trkpt>
      <trkpt lat="45.95227" lon="1.39066">
        <ele>441.4</ele>
        <time>2012-09-07T07:06:43Z</time>
      </trkpt>
      <trkpt lat="45.95227" lon="1.39074">
        <ele>440.2</ele>
        <time>2012-09-07T07:06:45Z</time>
      </trkpt>
      <trkpt lat="45.95225" lon="1.39082">
        <ele>437.6</ele>
        <time>2012-09-07T07:06:49Z</time>
      </trkpt>
      <trkpt lat="45.95226" lon="1.39086">
        <ele>435</ele>
        <time>2012-09-07T07:06:54Z</time>
      </trkpt>
      <trkpt lat="45.95222" lon="1.39103">
        <ele>432.6</ele>
        <time>2012-09-07T07:06:59Z</time>
      </trkpt>
      <trkpt lat="45.95218" lon="1.39121">
        <ele>430.4</ele>
        <time>2012-09-07T07:07:04Z</time>
      </trkpt>
      <trkpt lat="45.95213" lon="1.39139">
        <ele>428.4</ele>
        <time>2012-09-07T07:07:09Z</time>
      </trkpt>
      <trkpt lat="45.95204" lon="1.39161">
        <ele>426</ele>
        <time>2012-09-07T07:07:15Z</time>
      </trkpt>
      <trkpt lat="45.95196" lon="1.39178">
        <ele>424.4</ele>
        <time>2012-09-07T07:07:20Z</time>
      </trkpt>
      <trkpt lat="45.95189" lon="1.3919">
        <ele>423</ele>
        <time>2012-09-07T07:07:24Z</time>
      </trkpt>
      <trkpt lat="45.95183" lon="1.39201">
        <ele>421.6</ele>
        <time>2012-09-07T07:07:28Z</time>
      </trkpt>
      <trkpt lat="45.95174" lon="1.39217">
        <ele>419.8</ele>
        <time>2012-09-07T07:07:34Z</time>
      </trkpt>
      <trkpt lat="45.95167" lon="1.39231">
        <ele>418.4</ele>
        <time>2012-09-07T07:07:39Z</time>
      </trkpt>
      <trkpt lat="45.9516" lon="1.39242">
        <ele>417</ele>
        <time>2012-09-07T07:07:44Z</time>
      </trkpt>
      <trkpt lat="45.95149" lon="1.39255">
        <ele>415.6</ele>
        <time>2012-09-07T07:07:49Z</time>
      </trkpt>
      <trkpt lat="45.95136" lon="1.39266">
        <ele>414</ele>
        <time>2012-09-07T07:07:55Z</time>
      </trkpt>
      <trkpt lat="45.95123" lon="1.39274">
        <ele>412.8</ele>
        <time>2012-09-07T07:08:00Z</time>
      </trkpt>
      <trkpt lat="45.95108" lon="1.39277">
        <ele>411.4</ele>
        <time>2012-09-07T07:08:06Z</time>
      </trkpt>
      <trkpt lat="45.95091" lon="1.39279">
        <ele>410</ele>
        <time>2012-09-07T07:08:12Z</time>
      </trkpt>
      <trkpt lat="45.95077" lon="1.39281">
        <ele>409.2</ele>
        <time>2012-09-07T07:08:16Z</time>
      </trkpt>
      <trkpt lat="45.95062" lon="1.39277">
        <ele>408.2</ele>
        <time>2012-09-07T07:08:21Z</time>
      </trkpt>
      <trkpt lat="45.95048" lon="1.39269">
        <ele>407</ele>
        <time>2012-09-07T07:08:26Z</time>
      </trkpt>
      <trkpt lat="45.95033" lon="1.39254">
        <ele>405.8</ele>
        <time>2012-09-07T07:08:32Z</time>
      </trkpt>
      <trkpt lat="45.9503" lon="1.39252">
        <ele>405.6</ele>
        <time>2012-09-07T07:08:33Z</time>
      </trkpt>
      <trkpt lat="45.95019" lon="1.39236">
        <ele>404.6</ele>
        <time>2012-09-07T07:08:38Z</time>
      </trkpt>
      <trkpt lat="45.95009" lon="1.3922">
        <ele>403.6</ele>
        <time>2012-09-07T07:08:43Z</time>
      </trkpt>
      <trkpt lat="45.94999" lon="1.39203">
        <ele>402.6</ele>
        <time>2012-09-07T07:08:48Z</time>
      </trkpt>
      <trkpt lat="45.94988" lon="1.3919">
        <ele>401.6</ele>
        <time>2012-09-07T07:08:53Z</time>
      </trkpt>
      <trkpt lat="45.94982" lon="1.39174">
        <ele>400.8</ele>
        <time>2012-09-07T07:08:58Z</time>
      </trkpt>
      <trkpt lat="45.94972" lon="1.3915">
        <ele>399.6</ele>
        <time>2012-09-07T07:09:04Z</time>
      </trkpt>
      <trkpt lat="45.94964" lon="1.39128">
        <ele>398.4</ele>
        <time>2012-09-07T07:09:10Z</time>
      </trkpt>
      <trkpt lat="45.94955" lon="1.39108">
        <ele>397.4</ele>
        <time>2012-09-07T07:09:15Z</time>
      </trkpt>
      <trkpt lat="45.94946" lon="1.39088">
        <ele>396.4</ele>
        <time>2012-09-07T07:09:20Z</time>
      </trkpt>
      <trkpt lat="45.94937" lon="1.39069">
        <ele>395.2</ele>
        <time>2012-09-07T07:09:25Z</time>
      </trkpt>
      <trkpt lat="45.94929" lon="1.39047">
        <ele>394</ele>
        <time>2012-09-07T07:09:30Z</time>
      </trkpt>
      <trkpt lat="45.94928" lon="1.39042">
        <ele>393.4</ele>
        <time>2012-09-07T07:09:33Z</time>
      </trkpt>
      <trkpt lat="45.94928" lon="1.39043">
        <ele>393.2</ele>
        <time>2012-09-07T07:09:34Z</time>
      </trkpt>
      <trkpt lat="45.94925" lon="1.39044">
        <ele>391</ele>
        <time>2012-09-07T07:09:43Z</time>
      </trkpt>
      <trkpt lat="45.94924" lon="1.39038">
        <ele>390.8</ele>
        <time>2012-09-07T07:09:44Z</time>
      </trkpt>
      <trkpt lat="45.9492" lon="1.39014">
        <ele>389.6</ele>
        <time>2012-09-07T07:09:49Z</time>
      </trkpt>
      <trkpt lat="45.94917" lon="1.38995">
        <ele>388.2</ele>
        <time>2012-09-07T07:09:54Z</time>
      </trkpt>
      <trkpt lat="45.94913" lon="1.38975">
        <ele>387</ele>
        <time>2012-09-07T07:09:59Z</time>
      </trkpt>
      <trkpt lat="45.9491" lon="1.3895">
        <ele>385.8</ele>
        <time>2012-09-07T07:10:05Z</time>
      </trkpt>
      <trkpt lat="45.94911" lon="1.38927">
        <ele>385</ele>
        <time>2012-09-07T07:10:10Z</time>
      </trkpt>
      <trkpt lat="45.94912" lon="1.38904">
        <ele>385</ele>
        <time>2012-09-07T07:10:15Z</time>
      </trkpt>
      <trkpt lat="45.94913" lon="1.38882">
        <ele>385</ele>
        <time>2012-09-07T07:10:20Z</time>
      </trkpt>
      <trkpt lat="45.94918" lon="1.38863">
        <ele>386</ele>
        <time>2012-09-07T07:10:25Z</time>
      </trkpt>
      <trkpt lat="45.94926" lon="1.3885">
        <ele>387</ele>
        <time>2012-09-07T07:10:29Z</time>
      </trkpt>
      <trkpt lat="45.94931" lon="1.38834">
        <ele>388.4</ele>
        <time>2012-09-07T07:10:34Z</time>
      </trkpt>
      <trkpt lat="45.9494" lon="1.38817">
        <ele>390</ele>
        <time>2012-09-07T07:10:40Z</time>
      </trkpt>
      <trkpt lat="45.94946" lon="1.38796">
        <ele>391.8</ele>
        <time>2012-09-07T07:10:46Z</time>
      </trkpt>
      <trkpt lat="45.94949" lon="1.38779">
        <ele>392.6</ele>
        <time>2012-09-07T07:10:51Z</time>
      </trkpt>
      <trkpt lat="45.94947" lon="1.38775">
        <ele>391.4</ele>
        <time>2012-09-07T07:10:56Z</time>
      </trkpt>
      <trkpt lat="45.94945" lon="1.38773">
        <ele>390.4</ele>
        <time>2012-09-07T07:10:59Z</time>
      </trkpt>
      <trkpt lat="45.94947" lon="1.38771">
        <ele>390</ele>
        <time>2012-09-07T07:11:00Z</time>
      </trkpt>
      <trkpt lat="45.94956" lon="1.38766">
        <ele>389.4</ele>
        <time>2012-09-07T07:11:03Z</time>
      </trkpt>
      <trkpt lat="45.94966" lon="1.38764">
        <ele>388.8</ele>
        <time>2012-09-07T07:11:06Z</time>
      </trkpt>
      <trkpt lat="45.94972" lon="1.38766">
        <ele>388.2</ele>
        <time>2012-09-07T07:11:08Z</time>
      </trkpt>
      <trkpt lat="45.94987" lon="1.38773">
        <ele>387.2</ele>
        <time>2012-09-07T07:11:13Z</time>
      </trkpt>
      <trkpt lat="45.95" lon="1.38781">
        <ele>386.4</ele>
        <time>2012-09-07T07:11:18Z</time>
      </trkpt>
      <trkpt lat="45.9501" lon="1.38788">
        <ele>385.6</ele>
        <time>2012-09-07T07:11:22Z</time>
      </trkpt>
      <trkpt lat="45.95026" lon="1.38798">
        <ele>384.8</ele>
        <time>2012-09-07T07:11:27Z</time>
      </trkpt>
      <trkpt lat="45.95038" lon="1.38806">
        <ele>384.4</ele>
        <time>2012-09-07T07:11:32Z</time>
      </trkpt>
      <trkpt lat="45.9505" lon="1.38817">
        <ele>384.2</ele>
        <time>2012-09-07T07:11:37Z</time>
      </trkpt>
      <trkpt lat="45.95066" lon="1.38828">
        <ele>384.4</ele>
        <time>2012-09-07T07:11:43Z</time>
      </trkpt>
      <trkpt lat="45.95075" lon="1.3884">
        <ele>384.6</ele>
        <time>2012-09-07T07:11:48Z</time>
      </trkpt>
      <trkpt lat="45.95081" lon="1.3886">
        <ele>384.6</ele>
        <time>2012-09-07T07:11:54Z</time>
      </trkpt>
      <trkpt lat="45.95087" lon="1.38881">
        <ele>384.4</ele>
        <time>2012-09-07T07:11:59Z</time>
      </trkpt>
      <trkpt lat="45.95089" lon="1.38904">
        <ele>384</ele>
        <time>2012-09-07T07:12:05Z</time>
      </trkpt>
      <trkpt lat="45.95088" lon="1.3891">
        <ele>383.8</ele>
        <time>2012-09-07T07:12:10Z</time>
      </trkpt>
      <trkpt lat="45.95088" lon="1.3891">
        <ele>383.4</ele>
        <time>2012-09-07T07:12:17Z</time>
      </trkpt>
      <trkpt lat="45.95086" lon="1.38913">
        <ele>383.4</ele>
        <time>2012-09-07T07:12:20Z</time>
      </trkpt>
      <trkpt lat="45.95087" lon="1.38914">
        <ele>383.4</ele>
        <time>2012-09-07T07:12:21Z</time>
      </trkpt>
      <trkpt lat="45.95091" lon="1.38921">
        <ele>383.2</ele>
        <time>2012-09-07T07:12:24Z</time>
      </trkpt>
      <trkpt lat="45.95092" lon="1.38923">
        <ele>383</ele>
        <time>2012-09-07T07:12:25Z</time>
      </trkpt>
      <trkpt lat="45.95101" lon="1.38938">
        <ele>382.8</ele>
        <time>2012-09-07T07:12:30Z</time>
      </trkpt>
      <trkpt lat="45.95111" lon="1.38946">
        <ele>382.6</ele>
        <time>2012-09-07T07:12:34Z</time>
      </trkpt>
      <trkpt lat="45.95116" lon="1.38953">
        <ele>382.6</ele>
        <time>2012-09-07T07:12:38Z</time>
      </trkpt>
      <trkpt lat="45.95127" lon="1.38962">
        <ele>382.4</ele>
        <time>2012-09-07T07:12:43Z</time>
      </trkpt>
      <trkpt lat="45.95137" lon="1.38973">
        <ele>382.2</ele>
        <time>2012-09-07T07:12:47Z</time>
      </trkpt>
      <trkpt lat="45.95149" lon="1.3898">
        <ele>382</ele>
        <time>2012-09-07T07:12:52Z</time>
      </trkpt>
      <trkpt lat="45.9515" lon="1.38983">
        <ele>382.2</ele>
        <time>2012-09-07T07:12:53Z</time>
      </trkpt>
      <trkpt lat="45.95158" lon="1.38987">
        <ele>382.2</ele>
        <time>2012-09-07T07:12:56Z</time>
      </trkpt>
      <trkpt lat="45.95166" lon="1.38993">
        <ele>382.2</ele>
        <time>2012-09-07T07:12:59Z</time>
      </trkpt>
      <trkpt lat="45.9517" lon="1.38999">
        <ele>382.2</ele>
        <time>2012-09-07T07:13:01Z</time>
      </trkpt>
      <trkpt lat="45.95176" lon="1.39006">
        <ele>382.2</ele>
        <time>2012-09-07T07:13:05Z</time>
      </trkpt>
      <trkpt lat="45.95178" lon="1.39007">
        <ele>382.2</ele>
        <time>2012-09-07T07:13:07Z</time>
      </trkpt>
      <trkpt lat="45.95179" lon="1.39009">
        <ele>382</ele>
        <time>2012-09-07T07:13:08Z</time>
      </trkpt>
      <trkpt lat="45.95182" lon="1.39006">
        <ele>382.2</ele>
        <time>2012-09-07T07:13:11Z</time>
      </trkpt>
      <trkpt lat="45.95185" lon="1.39006">
        <ele>382</ele>
        <time>2012-09-07T07:13:13Z</time>
      </trkpt>
      <trkpt lat="45.95188" lon="1.39004">
        <ele>382</ele>
        <time>2012-09-07T07:13:15Z</time>
      </trkpt>
      <trkpt lat="45.95196" lon="1.39001">
        <ele>382</ele>
        <time>2012-09-07T07:13:18Z</time>
      </trkpt>
      <trkpt lat="45.95198" lon="1.39">
        <ele>381.2</ele>
        <time>2012-09-07T07:13:22Z</time>
      </trkpt>
      <trkpt lat="45.95197" lon="1.38986">
        <ele>380.4</ele>
        <time>2012-09-07T07:13:27Z</time>
      </trkpt>
      <trkpt lat="45.95195" lon="1.38981">
        <ele>380.4</ele>
        <time>2012-09-07T07:13:28Z</time>
      </trkpt>
      <trkpt lat="45.95193" lon="1.38968">
        <ele>380.2</ele>
        <time>2012-09-07T07:13:31Z</time>
      </trkpt>
      <trkpt lat="45.95192" lon="1.38963">
        <ele>380.2</ele>
        <time>2012-09-07T07:13:32Z</time>
      </trkpt>
      <trkpt lat="45.95184" lon="1.38944">
        <ele>379.8</ele>
        <time>2012-09-07T07:13:37Z</time>
      </trkpt>
      <trkpt lat="45.95177" lon="1.3893">
        <ele>379.6</ele>
        <time>2012-09-07T07:13:42Z</time>
      </trkpt>
      <trkpt lat="45.95175" lon="1.3892">
        <ele>379.6</ele>
        <time>2012-09-07T07:13:47Z</time>
      </trkpt>
      <trkpt lat="45.95168" lon="1.38905">
        <ele>380</ele>
        <time>2012-09-07T07:13:51Z</time>
      </trkpt>
      <trkpt lat="45.95166" lon="1.38899">
        <ele>380.4</ele>
        <time>2012-09-07T07:13:54Z</time>
      </trkpt>
      <trkpt lat="45.95169" lon="1.389">
        <ele>401.6</ele>
        <time>2012-09-07T07:21:23Z</time>
      </trkpt>
      <trkpt lat="45.95162" lon="1.38891">
        <ele>401.4</ele>
        <time>2012-09-07T07:21:48Z</time>
      </trkpt>
      <trkpt lat="45.95147" lon="1.38876">
        <ele>401.4</ele>
        <time>2012-09-07T07:21:53Z</time>
      </trkpt>
      <trkpt lat="45.95135" lon="1.38852">
        <ele>401.2</ele>
        <time>2012-09-07T07:21:57Z</time>
      </trkpt>
      <trkpt lat="45.95123" lon="1.38821">
        <ele>401</ele>
        <time>2012-09-07T07:22:01Z</time>
      </trkpt>
      <trkpt lat="45.95117" lon="1.38804">
        <ele>401</ele>
        <time>2012-09-07T07:22:03Z</time>
      </trkpt>
      <trkpt lat="45.95112" lon="1.38796">
        <ele>401</ele>
        <time>2012-09-07T07:22:04Z</time>
      </trkpt>
      <trkpt lat="45.95099" lon="1.38777">
        <ele>400.8</ele>
        <time>2012-09-07T07:22:07Z</time>
      </trkpt>
      <trkpt lat="45.95083" lon="1.38757">
        <ele>400.6</ele>
        <time>2012-09-07T07:22:11Z</time>
      </trkpt>
      <trkpt lat="45.95075" lon="1.38748">
        <ele>400.6</ele>
        <time>2012-09-07T07:22:13Z</time>
      </trkpt>
      <trkpt lat="45.9506" lon="1.38725">
        <ele>401</ele>
        <time>2012-09-07T07:22:18Z</time>
      </trkpt>
      <trkpt lat="45.95052" lon="1.38712">
        <ele>401.4</ele>
        <time>2012-09-07T07:22:21Z</time>
      </trkpt>
      <trkpt lat="45.95036" lon="1.38693">
        <ele>401.8</ele>
        <time>2012-09-07T07:22:26Z</time>
      </trkpt>
      <trkpt lat="45.95029" lon="1.38685">
        <ele>402.2</ele>
        <time>2012-09-07T07:22:28Z</time>
      </trkpt>
      <trkpt lat="45.95026" lon="1.38682">
        <ele>402.4</ele>
        <time>2012-09-07T07:22:29Z</time>
      </trkpt>
      <trkpt lat="45.95014" lon="1.38664">
        <ele>403</ele>
        <time>2012-09-07T07:22:33Z</time>
      </trkpt>
      <trkpt lat="45.95011" lon="1.3866">
        <ele>403</ele>
        <time>2012-09-07T07:22:34Z</time>
      </trkpt>
      <trkpt lat="45.95009" lon="1.38655">
        <ele>403.2</ele>
        <time>2012-09-07T07:22:35Z</time>
      </trkpt>
      <trkpt lat="45.94993" lon="1.38635">
        <ele>404</ele>
        <time>2012-09-07T07:22:40Z</time>
      </trkpt>
      <trkpt lat="45.94983" lon="1.38624">
        <ele>404.4</ele>
        <time>2012-09-07T07:22:43Z</time>
      </trkpt>
      <trkpt lat="45.94975" lon="1.38611">
        <ele>404.6</ele>
        <time>2012-09-07T07:22:46Z</time>
      </trkpt>
      <trkpt lat="45.94962" lon="1.38591">
        <ele>405.4</ele>
        <time>2012-09-07T07:22:51Z</time>
      </trkpt>
      <trkpt lat="45.94958" lon="1.38582">
        <ele>405.6</ele>
        <time>2012-09-07T07:22:53Z</time>
      </trkpt>
      <trkpt lat="45.94954" lon="1.38552">
        <ele>406.2</ele>
        <time>2012-09-07T07:22:59Z</time>
      </trkpt>
      <trkpt lat="45.94956" lon="1.38526">
        <ele>406</ele>
        <time>2012-09-07T07:23:03Z</time>
      </trkpt>
      <trkpt lat="45.94957" lon="1.3851">
        <ele>406</ele>
        <time>2012-09-07T07:23:05Z</time>
      </trkpt>
      <trkpt lat="45.9496" lon="1.38476">
        <ele>406</ele>
        <time>2012-09-07T07:23:09Z</time>
      </trkpt>
      <trkpt lat="45.94963" lon="1.3845">
        <ele>405.8</ele>
        <time>2012-09-07T07:23:12Z</time>
      </trkpt>
      <trkpt lat="45.94967" lon="1.38418">
        <ele>405.6</ele>
        <time>2012-09-07T07:23:16Z</time>
      </trkpt>
      <trkpt lat="45.94969" lon="1.38397">
        <ele>405.6</ele>
        <time>2012-09-07T07:23:19Z</time>
      </trkpt>
      <trkpt lat="45.94972" lon="1.3837">
        <ele>405.4</ele>
        <time>2012-09-07T07:23:23Z</time>
      </trkpt>
      <trkpt lat="45.94972" lon="1.38363">
        <ele>405.4</ele>
        <time>2012-09-07T07:23:24Z</time>
      </trkpt>
      <trkpt lat="45.94975" lon="1.38345">
        <ele>405.4</ele>
        <time>2012-09-07T07:23:27Z</time>
      </trkpt>
      <trkpt lat="45.94979" lon="1.38319">
        <ele>405.2</ele>
        <time>2012-09-07T07:23:31Z</time>
      </trkpt>
      <trkpt lat="45.94982" lon="1.38292">
        <ele>405.2</ele>
        <time>2012-09-07T07:23:35Z</time>
      </trkpt>
      <trkpt lat="45.94979" lon="1.38279">
        <ele>405</ele>
        <time>2012-09-07T07:23:37Z</time>
      </trkpt>
      <trkpt lat="45.94973" lon="1.38274">
        <ele>405</ele>
        <time>2012-09-07T07:23:39Z</time>
      </trkpt>
      <trkpt lat="45.94969" lon="1.38275">
        <ele>405</ele>
        <time>2012-09-07T07:23:40Z</time>
      </trkpt>
      <trkpt lat="45.94953" lon="1.38287">
        <ele>405</ele>
        <time>2012-09-07T07:23:44Z</time>
      </trkpt>
      <trkpt lat="45.94949" lon="1.38291">
        <ele>404.8</ele>
        <time>2012-09-07T07:23:45Z</time>
      </trkpt>
      <trkpt lat="45.94932" lon="1.38305">
        <ele>404.8</ele>
        <time>2012-09-07T07:23:49Z</time>
      </trkpt>
      <trkpt lat="45.94914" lon="1.38318">
        <ele>404.6</ele>
        <time>2012-09-07T07:23:53Z</time>
      </trkpt>
      <trkpt lat="45.94906" lon="1.38322">
        <ele>404.4</ele>
        <time>2012-09-07T07:23:55Z</time>
      </trkpt>
      <trkpt lat="45.94893" lon="1.38327">
        <ele>404.4</ele>
        <time>2012-09-07T07:23:58Z</time>
      </trkpt>
      <trkpt lat="45.94885" lon="1.38325">
        <ele>404.4</ele>
        <time>2012-09-07T07:24:00Z</time>
      </trkpt>
      <trkpt lat="45.94871" lon="1.38315">
        <ele>404.4</ele>
        <time>2012-09-07T07:24:04Z</time>
      </trkpt>
      <trkpt lat="45.94863" lon="1.38304">
        <ele>404.6</ele>
        <time>2012-09-07T07:24:07Z</time>
      </trkpt>
      <trkpt lat="45.9486" lon="1.383">
        <ele>404.6</ele>
        <time>2012-09-07T07:24:08Z</time>
      </trkpt>
      <trkpt lat="45.94853" lon="1.38281">
        <ele>405.6</ele>
        <time>2012-09-07T07:24:12Z</time>
      </trkpt>
      <trkpt lat="45.94843" lon="1.38258">
        <ele>407.2</ele>
        <time>2012-09-07T07:24:17Z</time>
      </trkpt>
      <trkpt lat="45.94841" lon="1.38254">
        <ele>407.8</ele>
        <time>2012-09-07T07:24:18Z</time>
      </trkpt>
      <trkpt lat="45.94829" lon="1.38234">
        <ele>410</ele>
        <time>2012-09-07T07:24:23Z</time>
      </trkpt>
      <trkpt lat="45.94828" lon="1.3823">
        <ele>410.4</ele>
        <time>2012-09-07T07:24:24Z</time>
      </trkpt>
      <trkpt lat="45.94818" lon="1.38205">
        <ele>412.8</ele>
        <time>2012-09-07T07:24:29Z</time>
      </trkpt>
      <trkpt lat="45.94813" lon="1.38181">
        <ele>415.4</ele>
        <time>2012-09-07T07:24:34Z</time>
      </trkpt>
      <trkpt lat="45.94811" lon="1.38176">
        <ele>415.8</ele>
        <time>2012-09-07T07:24:35Z</time>
      </trkpt>
      <trkpt lat="45.94799" lon="1.38153">
        <ele>417.6</ele>
        <time>2012-09-07T07:24:41Z</time>
      </trkpt>
      <trkpt lat="45.94788" lon="1.38131">
        <ele>417.8</ele>
        <time>2012-09-07T07:24:47Z</time>
      </trkpt>
      <trkpt lat="45.94785" lon="1.38123">
        <ele>418.2</ele>
        <time>2012-09-07T07:24:49Z</time>
      </trkpt>
      <trkpt lat="45.94773" lon="1.38108">
        <ele>418</ele>
        <time>2012-09-07T07:24:54Z</time>
      </trkpt>
      <trkpt lat="45.94762" lon="1.38094">
        <ele>418</ele>
        <time>2012-09-07T07:24:59Z</time>
      </trkpt>
      <trkpt lat="45.94751" lon="1.3808">
        <ele>418.4</ele>
        <time>2012-09-07T07:25:04Z</time>
      </trkpt>
      <trkpt lat="45.94738" lon="1.38068">
        <ele>419.2</ele>
        <time>2012-09-07T07:25:10Z</time>
      </trkpt>
      <trkpt lat="45.94726" lon="1.38055">
        <ele>420.4</ele>
        <time>2012-09-07T07:25:16Z</time>
      </trkpt>
      <trkpt lat="45.94712" lon="1.38042">
        <ele>421.6</ele>
        <time>2012-09-07T07:25:22Z</time>
      </trkpt>
      <trkpt lat="45.94699" lon="1.3803">
        <ele>422.6</ele>
        <time>2012-09-07T07:25:27Z</time>
      </trkpt>
      <trkpt lat="45.94696" lon="1.38029">
        <ele>423</ele>
        <time>2012-09-07T07:25:28Z</time>
      </trkpt>
      <trkpt lat="45.94686" lon="1.38023">
        <ele>423.8</ele>
        <time>2012-09-07T07:25:31Z</time>
      </trkpt>
      <trkpt lat="45.94671" lon="1.38015">
        <ele>424.8</ele>
        <time>2012-09-07T07:25:36Z</time>
      </trkpt>
      <trkpt lat="45.94661" lon="1.38002">
        <ele>425.2</ele>
        <time>2012-09-07T07:25:40Z</time>
      </trkpt>
      <trkpt lat="45.94653" lon="1.37977">
        <ele>425.8</ele>
        <time>2012-09-07T07:25:45Z</time>
      </trkpt>
      <trkpt lat="45.94651" lon="1.37972">
        <ele>425.8</ele>
        <time>2012-09-07T07:25:46Z</time>
      </trkpt>
      <trkpt lat="45.94639" lon="1.37948">
        <ele>425.6</ele>
        <time>2012-09-07T07:25:51Z</time>
      </trkpt>
      <trkpt lat="45.94632" lon="1.37933">
        <ele>425.6</ele>
        <time>2012-09-07T07:25:54Z</time>
      </trkpt>
      <trkpt lat="45.94629" lon="1.37928">
        <ele>425.6</ele>
        <time>2012-09-07T07:25:55Z</time>
      </trkpt>
      <trkpt lat="45.94623" lon="1.37914">
        <ele>425.6</ele>
        <time>2012-09-07T07:25:58Z</time>
      </trkpt>
      <trkpt lat="45.9462" lon="1.37903">
        <ele>425.4</ele>
        <time>2012-09-07T07:26:00Z</time>
      </trkpt>
      <trkpt lat="45.94619" lon="1.37897">
        <ele>425.6</ele>
        <time>2012-09-07T07:26:01Z</time>
      </trkpt>
      <trkpt lat="45.94614" lon="1.37882">
        <ele>425.4</ele>
        <time>2012-09-07T07:26:04Z</time>
      </trkpt>
      <trkpt lat="45.94613" lon="1.37878">
        <ele>425.4</ele>
        <time>2012-09-07T07:26:05Z</time>
      </trkpt>
      <trkpt lat="45.94606" lon="1.37852">
        <ele>425.4</ele>
        <time>2012-09-07T07:26:10Z</time>
      </trkpt>
      <trkpt lat="45.94597" lon="1.37826">
        <ele>425.4</ele>
        <time>2012-09-07T07:26:15Z</time>
      </trkpt>
      <trkpt lat="45.94585" lon="1.37803">
        <ele>425.6</ele>
        <time>2012-09-07T07:26:20Z</time>
      </trkpt>
      <trkpt lat="45.94582" lon="1.37798">
        <ele>425.6</ele>
        <time>2012-09-07T07:26:21Z</time>
      </trkpt>
      <trkpt lat="45.94569" lon="1.37777">
        <ele>425.6</ele>
        <time>2012-09-07T07:26:25Z</time>
      </trkpt>
      <trkpt lat="45.94566" lon="1.37772">
        <ele>425.6</ele>
        <time>2012-09-07T07:26:26Z</time>
      </trkpt>
      <trkpt lat="45.9456" lon="1.37761">
        <ele>425.4</ele>
        <time>2012-09-07T07:26:28Z</time>
      </trkpt>
      <trkpt lat="45.94557" lon="1.37755">
        <ele>425.6</ele>
        <time>2012-09-07T07:26:29Z</time>
      </trkpt>
      <trkpt lat="45.9455" lon="1.37743">
        <ele>425.6</ele>
        <time>2012-09-07T07:26:31Z</time>
      </trkpt>
      <trkpt lat="45.94542" lon="1.3773">
        <ele>425.4</ele>
        <time>2012-09-07T07:26:33Z</time>
      </trkpt>
      <trkpt lat="45.9453" lon="1.37709">
        <ele>425.2</ele>
        <time>2012-09-07T07:26:36Z</time>
      </trkpt>
      <trkpt lat="45.94526" lon="1.37703">
        <ele>425.2</ele>
        <time>2012-09-07T07:26:37Z</time>
      </trkpt>
      <trkpt lat="45.94523" lon="1.37696">
        <ele>425.2</ele>
        <time>2012-09-07T07:26:38Z</time>
      </trkpt>
      <trkpt lat="45.94521" lon="1.37674">
        <ele>424.8</ele>
        <time>2012-09-07T07:26:42Z</time>
      </trkpt>
      <trkpt lat="45.94527" lon="1.37665">
        <ele>424.8</ele>
        <time>2012-09-07T07:26:44Z</time>
      </trkpt>
      <trkpt lat="45.94532" lon="1.37656">
        <ele>424.6</ele>
        <time>2012-09-07T07:26:46Z</time>
      </trkpt>
      <trkpt lat="45.94534" lon="1.37651">
        <ele>424.6</ele>
        <time>2012-09-07T07:26:47Z</time>
      </trkpt>
      <trkpt lat="45.94544" lon="1.37626">
        <ele>424.4</ele>
        <time>2012-09-07T07:26:52Z</time>
      </trkpt>
      <trkpt lat="45.94555" lon="1.37604">
        <ele>424.2</ele>
        <time>2012-09-07T07:26:56Z</time>
      </trkpt>
      <trkpt lat="45.94557" lon="1.37597">
        <ele>424.2</ele>
        <time>2012-09-07T07:26:57Z</time>
      </trkpt>
      <trkpt lat="45.94559" lon="1.37591">
        <ele>424.2</ele>
        <time>2012-09-07T07:26:58Z</time>
      </trkpt>
      <trkpt lat="45.94564" lon="1.37566">
        <ele>424</ele>
        <time>2012-09-07T07:27:02Z</time>
      </trkpt>
      <trkpt lat="45.94565" lon="1.3756">
        <ele>424</ele>
        <time>2012-09-07T07:27:03Z</time>
      </trkpt>
      <trkpt lat="45.94567" lon="1.37555">
        <ele>424</ele>
        <time>2012-09-07T07:27:04Z</time>
      </trkpt>
      <trkpt lat="45.94576" lon="1.37546">
        <ele>424</ele>
        <time>2012-09-07T07:27:07Z</time>
      </trkpt>
      <trkpt lat="45.94596" lon="1.37534">
        <ele>423.8</ele>
        <time>2012-09-07T07:27:11Z</time>
      </trkpt>
      <trkpt lat="45.94609" lon="1.37524">
        <ele>423.8</ele>
        <time>2012-09-07T07:27:14Z</time>
      </trkpt>
      <trkpt lat="45.94614" lon="1.3752">
        <ele>423.8</ele>
        <time>2012-09-07T07:27:15Z</time>
      </trkpt>
      <trkpt lat="45.94629" lon="1.37507">
        <ele>424.6</ele>
        <time>2012-09-07T07:27:19Z</time>
      </trkpt>
      <trkpt lat="45.94632" lon="1.37505">
        <ele>424.6</ele>
        <time>2012-09-07T07:27:20Z</time>
      </trkpt>
      <trkpt lat="45.94635" lon="1.37502">
        <ele>424.8</ele>
        <time>2012-09-07T07:27:21Z</time>
      </trkpt>
      <trkpt lat="45.94646" lon="1.37492">
        <ele>425.4</ele>
        <time>2012-09-07T07:27:24Z</time>
      </trkpt>
      <trkpt lat="45.94652" lon="1.37487">
        <ele>425.8</ele>
        <time>2012-09-07T07:27:26Z</time>
      </trkpt>
      <trkpt lat="45.94664" lon="1.37477">
        <ele>426.4</ele>
        <time>2012-09-07T07:27:30Z</time>
      </trkpt>
      <trkpt lat="45.9468" lon="1.37466">
        <ele>426.8</ele>
        <time>2012-09-07T07:27:34Z</time>
      </trkpt>
      <trkpt lat="45.94685" lon="1.37465">
        <ele>426.8</ele>
        <time>2012-09-07T07:27:35Z</time>
      </trkpt>
      <trkpt lat="45.94703" lon="1.37474">
        <ele>426.2</ele>
        <time>2012-09-07T07:27:39Z</time>
      </trkpt>
      <trkpt lat="45.94721" lon="1.37485">
        <ele>425.6</ele>
        <time>2012-09-07T07:27:43Z</time>
      </trkpt>
      <trkpt lat="45.94727" lon="1.37473">
        <ele>425</ele>
        <time>2012-09-07T07:27:47Z</time>
      </trkpt>
      <trkpt lat="45.94722" lon="1.37454">
        <ele>424.8</ele>
        <time>2012-09-07T07:27:51Z</time>
      </trkpt>
      <trkpt lat="45.9472" lon="1.37445">
        <ele>424.8</ele>
        <time>2012-09-07T07:27:53Z</time>
      </trkpt>
      <trkpt lat="45.94719" lon="1.37439">
        <ele>424.6</ele>
        <time>2012-09-07T07:27:55Z</time>
      </trkpt>
      <trkpt lat="45.94728" lon="1.37428">
        <ele>424.8</ele>
        <time>2012-09-07T07:27:59Z</time>
      </trkpt>
      <trkpt lat="45.94731" lon="1.37409">
        <ele>424.8</ele>
        <time>2012-09-07T07:28:04Z</time>
      </trkpt>
      <trkpt lat="45.9473" lon="1.37397">
        <ele>425.6</ele>
        <time>2012-09-07T07:28:07Z</time>
      </trkpt>
      <trkpt lat="45.94734" lon="1.37391">
        <ele>425.8</ele>
        <time>2012-09-07T07:28:09Z</time>
      </trkpt>
      <trkpt lat="45.94744" lon="1.37391">
        <ele>426</ele>
        <time>2012-09-07T07:28:13Z</time>
      </trkpt>
      <trkpt lat="45.9475" lon="1.37392">
        <ele>426</ele>
        <time>2012-09-07T07:28:15Z</time>
      </trkpt>
      <trkpt lat="45.94765" lon="1.37393">
        <ele>426.2</ele>
        <time>2012-09-07T07:28:19Z</time>
      </trkpt>
      <trkpt lat="45.94777" lon="1.37399">
        <ele>426</ele>
        <time>2012-09-07T07:28:23Z</time>
      </trkpt>
      <trkpt lat="45.94778" lon="1.37392">
        <ele>425.8</ele>
        <time>2012-09-07T07:28:26Z</time>
      </trkpt>
      <trkpt lat="45.94782" lon="1.3737">
        <ele>425.8</ele>
        <time>2012-09-07T07:28:32Z</time>
      </trkpt>
      <trkpt lat="45.94778" lon="1.37352">
        <ele>427</ele>
        <time>2012-09-07T07:28:37Z</time>
      </trkpt>
      <trkpt lat="45.9477" lon="1.3734">
        <ele>428.4</ele>
        <time>2012-09-07T07:28:42Z</time>
      </trkpt>
      <trkpt lat="45.94767" lon="1.37339">
        <ele>428.8</ele>
        <time>2012-09-07T07:28:43Z</time>
      </trkpt>
      <trkpt lat="45.9476" lon="1.3733">
        <ele>430.4</ele>
        <time>2012-09-07T07:28:47Z</time>
      </trkpt>
      <trkpt lat="45.94748" lon="1.37314">
        <ele>432</ele>
        <time>2012-09-07T07:28:53Z</time>
      </trkpt>
      <trkpt lat="45.94741" lon="1.37303">
        <ele>433.2</ele>
        <time>2012-09-07T07:28:58Z</time>
      </trkpt>
      <trkpt lat="45.94729" lon="1.37282">
        <ele>434.4</ele>
        <time>2012-09-07T07:29:05Z</time>
      </trkpt>
      <trkpt lat="45.94725" lon="1.37279">
        <ele>434.4</ele>
        <time>2012-09-07T07:29:07Z</time>
      </trkpt>
      <trkpt lat="45.94713" lon="1.3727">
        <ele>435.2</ele>
        <time>2012-09-07T07:29:13Z</time>
      </trkpt>
      <trkpt lat="45.947" lon="1.37264">
        <ele>435</ele>
        <time>2012-09-07T07:29:19Z</time>
      </trkpt>
      <trkpt lat="45.94689" lon="1.37248">
        <ele>435</ele>
        <time>2012-09-07T07:29:24Z</time>
      </trkpt>
      <trkpt lat="45.94673" lon="1.3723">
        <ele>434.8</ele>
        <time>2012-09-07T07:29:29Z</time>
      </trkpt>
      <trkpt lat="45.94663" lon="1.37212">
        <ele>434.8</ele>
        <time>2012-09-07T07:29:33Z</time>
      </trkpt>
      <trkpt lat="45.94656" lon="1.37186">
        <ele>434.6</ele>
        <time>2012-09-07T07:29:38Z</time>
      </trkpt>
      <trkpt lat="45.94655" lon="1.37181">
        <ele>434.6</ele>
        <time>2012-09-07T07:29:39Z</time>
      </trkpt>
      <trkpt lat="45.94646" lon="1.37155">
        <ele>434.4</ele>
        <time>2012-09-07T07:29:44Z</time>
      </trkpt>
      <trkpt lat="45.94645" lon="1.37151">
        <ele>434.4</ele>
        <time>2012-09-07T07:29:45Z</time>
      </trkpt>
      <trkpt lat="45.94636" lon="1.37124">
        <ele>434.2</ele>
        <time>2012-09-07T07:29:50Z</time>
      </trkpt>
      <trkpt lat="45.94633" lon="1.37114">
        <ele>434.2</ele>
        <time>2012-09-07T07:29:52Z</time>
      </trkpt>
      <trkpt lat="45.94623" lon="1.37089">
        <ele>433.8</ele>
        <time>2012-09-07T07:29:57Z</time>
      </trkpt>
      <trkpt lat="45.9462" lon="1.37083">
        <ele>433.8</ele>
        <time>2012-09-07T07:29:58Z</time>
      </trkpt>
      <trkpt lat="45.94618" lon="1.37079">
        <ele>433.6</ele>
        <time>2012-09-07T07:29:59Z</time>
      </trkpt>
      <trkpt lat="45.94608" lon="1.37057">
        <ele>433.4</ele>
        <time>2012-09-07T07:30:03Z</time>
      </trkpt>
      <trkpt lat="45.94601" lon="1.37038">
        <ele>433</ele>
        <time>2012-09-07T07:30:06Z</time>
      </trkpt>
      <trkpt lat="45.94597" lon="1.37031">
        <ele>433</ele>
        <time>2012-09-07T07:30:07Z</time>
      </trkpt>
      <trkpt lat="45.94583" lon="1.37004">
        <ele>432.4</ele>
        <time>2012-09-07T07:30:11Z</time>
      </trkpt>
      <trkpt lat="45.94578" lon="1.3698">
        <ele>432</ele>
        <time>2012-09-07T07:30:14Z</time>
      </trkpt>
      <trkpt lat="45.94577" lon="1.36973">
        <ele>431.8</ele>
        <time>2012-09-07T07:30:15Z</time>
      </trkpt>
      <trkpt lat="45.94579" lon="1.36955">
        <ele>431.6</ele>
        <time>2012-09-07T07:30:18Z</time>
      </trkpt>
      <trkpt lat="45.94582" lon="1.36947">
        <ele>431.2</ele>
        <time>2012-09-07T07:30:20Z</time>
      </trkpt>
      <trkpt lat="45.94588" lon="1.36943">
        <ele>431</ele>
        <time>2012-09-07T07:30:22Z</time>
      </trkpt>
      <trkpt lat="45.94607" lon="1.3694">
        <ele>430.4</ele>
        <time>2012-09-07T07:30:26Z</time>
      </trkpt>
      <trkpt lat="45.94613" lon="1.3694">
        <ele>430</ele>
        <time>2012-09-07T07:30:27Z</time>
      </trkpt>
      <trkpt lat="45.94624" lon="1.3694">
        <ele>429.6</ele>
        <time>2012-09-07T07:30:29Z</time>
      </trkpt>
      <trkpt lat="45.94638" lon="1.3693">
        <ele>429</ele>
        <time>2012-09-07T07:30:32Z</time>
      </trkpt>
      <trkpt lat="45.94641" lon="1.36925">
        <ele>428.8</ele>
        <time>2012-09-07T07:30:33Z</time>
      </trkpt>
      <trkpt lat="45.94644" lon="1.36919">
        <ele>428.6</ele>
        <time>2012-09-07T07:30:34Z</time>
      </trkpt>
      <trkpt lat="45.94647" lon="1.36907">
        <ele>428</ele>
        <time>2012-09-07T07:30:36Z</time>
      </trkpt>
      <trkpt lat="45.94648" lon="1.36893">
        <ele>427.4</ele>
        <time>2012-09-07T07:30:38Z</time>
      </trkpt>
      <trkpt lat="45.9465" lon="1.36879">
        <ele>427</ele>
        <time>2012-09-07T07:30:40Z</time>
      </trkpt>
      <trkpt lat="45.94651" lon="1.36872">
        <ele>426.6</ele>
        <time>2012-09-07T07:30:41Z</time>
      </trkpt>
      <trkpt lat="45.94647" lon="1.36851">
        <ele>426</ele>
        <time>2012-09-07T07:30:44Z</time>
      </trkpt>
      <trkpt lat="45.94641" lon="1.36837">
        <ele>425.6</ele>
        <time>2012-09-07T07:30:46Z</time>
      </trkpt>
      <trkpt lat="45.94638" lon="1.36829">
        <ele>425.2</ele>
        <time>2012-09-07T07:30:47Z</time>
      </trkpt>
      <trkpt lat="45.94632" lon="1.36823">
        <ele>425</ele>
        <time>2012-09-07T07:30:48Z</time>
      </trkpt>
      <trkpt lat="45.94613" lon="1.36806">
        <ele>424</ele>
        <time>2012-09-07T07:30:51Z</time>
      </trkpt>
      <trkpt lat="45.94607" lon="1.36799">
        <ele>423.8</ele>
        <time>2012-09-07T07:30:52Z</time>
      </trkpt>
      <trkpt lat="45.94589" lon="1.36775">
        <ele>422.8</ele>
        <time>2012-09-07T07:30:55Z</time>
      </trkpt>
      <trkpt lat="45.94582" lon="1.36769">
        <ele>422.4</ele>
        <time>2012-09-07T07:30:56Z</time>
      </trkpt>
      <trkpt lat="45.94567" lon="1.3675">
        <ele>421.8</ele>
        <time>2012-09-07T07:30:58Z</time>
      </trkpt>
      <trkpt lat="45.94559" lon="1.36746">
        <ele>421.4</ele>
        <time>2012-09-07T07:30:59Z</time>
      </trkpt>
      <trkpt lat="45.94554" lon="1.36741">
        <ele>421</ele>
        <time>2012-09-07T07:31:00Z</time>
      </trkpt>
      <trkpt lat="45.9455" lon="1.36733">
        <ele>420.8</ele>
        <time>2012-09-07T07:31:01Z</time>
      </trkpt>
      <trkpt lat="45.94543" lon="1.36716">
        <ele>419.6</ele>
        <time>2012-09-07T07:31:04Z</time>
      </trkpt>
      <trkpt lat="45.94547" lon="1.36693">
        <ele>418.6</ele>
        <time>2012-09-07T07:31:07Z</time>
      </trkpt>
      <trkpt lat="45.94551" lon="1.36673">
        <ele>417.8</ele>
        <time>2012-09-07T07:31:10Z</time>
      </trkpt>
      <trkpt lat="45.94553" lon="1.36663">
        <ele>417.2</ele>
        <time>2012-09-07T07:31:12Z</time>
      </trkpt>
      <trkpt lat="45.94561" lon="1.36638">
        <ele>416</ele>
        <time>2012-09-07T07:31:17Z</time>
      </trkpt>
      <trkpt lat="45.94563" lon="1.36633">
        <ele>415.6</ele>
        <time>2012-09-07T07:31:18Z</time>
      </trkpt>
      <trkpt lat="45.94565" lon="1.36628">
        <ele>415.4</ele>
        <time>2012-09-07T07:31:19Z</time>
      </trkpt>
      <trkpt lat="45.94573" lon="1.36604">
        <ele>414.4</ele>
        <time>2012-09-07T07:31:23Z</time>
      </trkpt>
      <trkpt lat="45.94576" lon="1.36591">
        <ele>413.8</ele>
        <time>2012-09-07T07:31:25Z</time>
      </trkpt>
      <trkpt lat="45.94588" lon="1.36577">
        <ele>413</ele>
        <time>2012-09-07T07:31:28Z</time>
      </trkpt>
      <trkpt lat="45.94602" lon="1.36561">
        <ele>412.2</ele>
        <time>2012-09-07T07:31:31Z</time>
      </trkpt>
      <trkpt lat="45.94607" lon="1.36526">
        <ele>411.4</ele>
        <time>2012-09-07T07:31:34Z</time>
      </trkpt>
      <trkpt lat="45.94607" lon="1.36504">
        <ele>410.8</ele>
        <time>2012-09-07T07:31:36Z</time>
      </trkpt>
      <trkpt lat="45.94608" lon="1.36494">
        <ele>410.4</ele>
        <time>2012-09-07T07:31:37Z</time>
      </trkpt>
      <trkpt lat="45.9461" lon="1.36486">
        <ele>410.2</ele>
        <time>2012-09-07T07:31:38Z</time>
      </trkpt>
      <trkpt lat="45.94617" lon="1.36456">
        <ele>409.2</ele>
        <time>2012-09-07T07:31:42Z</time>
      </trkpt>
      <trkpt lat="45.94619" lon="1.3645">
        <ele>409</ele>
        <time>2012-09-07T07:31:43Z</time>
      </trkpt>
      <trkpt lat="45.94626" lon="1.36426">
        <ele>407.8</ele>
        <time>2012-09-07T07:31:47Z</time>
      </trkpt>
      <trkpt lat="45.94633" lon="1.36403">
        <ele>406.8</ele>
        <time>2012-09-07T07:31:51Z</time>
      </trkpt>
      <trkpt lat="45.94634" lon="1.36397">
        <ele>406.6</ele>
        <time>2012-09-07T07:31:52Z</time>
      </trkpt>
      <trkpt lat="45.94641" lon="1.36371">
        <ele>405.6</ele>
        <time>2012-09-07T07:31:56Z</time>
      </trkpt>
      <trkpt lat="45.94644" lon="1.36356">
        <ele>405</ele>
        <time>2012-09-07T07:31:58Z</time>
      </trkpt>
      <trkpt lat="45.94651" lon="1.36324">
        <ele>404</ele>
        <time>2012-09-07T07:32:02Z</time>
      </trkpt>
      <trkpt lat="45.94656" lon="1.36299">
        <ele>403.2</ele>
        <time>2012-09-07T07:32:05Z</time>
      </trkpt>
      <trkpt lat="45.94658" lon="1.36283">
        <ele>402.8</ele>
        <time>2012-09-07T07:32:07Z</time>
      </trkpt>
      <trkpt lat="45.94662" lon="1.36251">
        <ele>402</ele>
        <time>2012-09-07T07:32:11Z</time>
      </trkpt>
      <trkpt lat="45.94664" lon="1.36227">
        <ele>401.2</ele>
        <time>2012-09-07T07:32:14Z</time>
      </trkpt>
      <trkpt lat="45.94668" lon="1.36201">
        <ele>400.6</ele>
        <time>2012-09-07T07:32:17Z</time>
      </trkpt>
      <trkpt lat="45.94673" lon="1.36175">
        <ele>399.8</ele>
        <time>2012-09-07T07:32:20Z</time>
      </trkpt>
      <trkpt lat="45.94674" lon="1.36167">
        <ele>399.6</ele>
        <time>2012-09-07T07:32:21Z</time>
      </trkpt>
      <trkpt lat="45.94679" lon="1.36133">
        <ele>398.8</ele>
        <time>2012-09-07T07:32:25Z</time>
      </trkpt>
      <trkpt lat="45.94684" lon="1.361">
        <ele>398</ele>
        <time>2012-09-07T07:32:29Z</time>
      </trkpt>
      <trkpt lat="45.94688" lon="1.36068">
        <ele>397</ele>
        <time>2012-09-07T07:32:33Z</time>
      </trkpt>
      <trkpt lat="45.94692" lon="1.36047">
        <ele>396.4</ele>
        <time>2012-09-07T07:32:36Z</time>
      </trkpt>
      <trkpt lat="45.94701" lon="1.36042">
        <ele>395.8</ele>
        <time>2012-09-07T07:32:39Z</time>
      </trkpt>
      <trkpt lat="45.94708" lon="1.36046">
        <ele>395.4</ele>
        <time>2012-09-07T07:32:41Z</time>
      </trkpt>
      <trkpt lat="45.94717" lon="1.36051">
        <ele>395</ele>
        <time>2012-09-07T07:32:43Z</time>
      </trkpt>
      <trkpt lat="45.94735" lon="1.3606">
        <ele>394.2</ele>
        <time>2012-09-07T07:32:47Z</time>
      </trkpt>
      <trkpt lat="45.94745" lon="1.36062">
        <ele>393.8</ele>
        <time>2012-09-07T07:32:49Z</time>
      </trkpt>
      <trkpt lat="45.94755" lon="1.36065">
        <ele>393.4</ele>
        <time>2012-09-07T07:32:51Z</time>
      </trkpt>
      <trkpt lat="45.94765" lon="1.36063">
        <ele>393</ele>
        <time>2012-09-07T07:32:53Z</time>
      </trkpt>
      <trkpt lat="45.94781" lon="1.36044">
        <ele>392.4</ele>
        <time>2012-09-07T07:32:57Z</time>
      </trkpt>
      <trkpt lat="45.94795" lon="1.36021">
        <ele>391.6</ele>
        <time>2012-09-07T07:33:01Z</time>
      </trkpt>
      <trkpt lat="45.94798" lon="1.36015">
        <ele>391.4</ele>
        <time>2012-09-07T07:33:02Z</time>
      </trkpt>
      <trkpt lat="45.94802" lon="1.36009">
        <ele>391.2</ele>
        <time>2012-09-07T07:33:03Z</time>
      </trkpt>
      <trkpt lat="45.94814" lon="1.35998">
        <ele>390.8</ele>
        <time>2012-09-07T07:33:06Z</time>
      </trkpt>
      <trkpt lat="45.94819" lon="1.35996">
        <ele>390.6</ele>
        <time>2012-09-07T07:33:07Z</time>
      </trkpt>
      <trkpt lat="45.94836" lon="1.35986">
        <ele>390.2</ele>
        <time>2012-09-07T07:33:10Z</time>
      </trkpt>
      <trkpt lat="45.94843" lon="1.35978">
        <ele>390</ele>
        <time>2012-09-07T07:33:12Z</time>
      </trkpt>
      <trkpt lat="45.94849" lon="1.35971">
        <ele>389.8</ele>
        <time>2012-09-07T07:33:14Z</time>
      </trkpt>
      <trkpt lat="45.94863" lon="1.35956">
        <ele>389</ele>
        <time>2012-09-07T07:33:19Z</time>
      </trkpt>
      <trkpt lat="45.94867" lon="1.35952">
        <ele>389</ele>
        <time>2012-09-07T07:33:20Z</time>
      </trkpt>
      <trkpt lat="45.94876" lon="1.35944">
        <ele>388.8</ele>
        <time>2012-09-07T07:33:22Z</time>
      </trkpt>
      <trkpt lat="45.94886" lon="1.35931">
        <ele>388.4</ele>
        <time>2012-09-07T07:33:26Z</time>
      </trkpt>
      <trkpt lat="45.94893" lon="1.35923">
        <ele>388.2</ele>
        <time>2012-09-07T07:33:28Z</time>
      </trkpt>
      <trkpt lat="45.949" lon="1.35916">
        <ele>388</ele>
        <time>2012-09-07T07:33:30Z</time>
      </trkpt>
      <trkpt lat="45.94903" lon="1.35912">
        <ele>388</ele>
        <time>2012-09-07T07:33:31Z</time>
      </trkpt>
      <trkpt lat="45.94918" lon="1.35891">
        <ele>387.6</ele>
        <time>2012-09-07T07:33:37Z</time>
      </trkpt>
      <trkpt lat="45.94931" lon="1.35875">
        <ele>387.4</ele>
        <time>2012-09-07T07:33:42Z</time>
      </trkpt>
      <trkpt lat="45.94945" lon="1.35857">
        <ele>387.4</ele>
        <time>2012-09-07T07:33:47Z</time>
      </trkpt>
      <trkpt lat="45.94947" lon="1.35853">
        <ele>387.4</ele>
        <time>2012-09-07T07:33:48Z</time>
      </trkpt>
      <trkpt lat="45.94956" lon="1.35839">
        <ele>387.4</ele>
        <time>2012-09-07T07:33:52Z</time>
      </trkpt>
      <trkpt lat="45.94972" lon="1.35818">
        <ele>387.8</ele>
        <time>2012-09-07T07:33:58Z</time>
      </trkpt>
      <trkpt lat="45.94975" lon="1.35814">
        <ele>388</ele>
        <time>2012-09-07T07:33:59Z</time>
      </trkpt>
      <trkpt lat="45.94992" lon="1.35799">
        <ele>387.8</ele>
        <time>2012-09-07T07:34:04Z</time>
      </trkpt>
      <trkpt lat="45.95006" lon="1.3578">
        <ele>387.6</ele>
        <time>2012-09-07T07:34:10Z</time>
      </trkpt>
      <trkpt lat="45.95021" lon="1.35761">
        <ele>387.2</ele>
        <time>2012-09-07T07:34:16Z</time>
      </trkpt>
      <trkpt lat="45.95023" lon="1.35758">
        <ele>387.2</ele>
        <time>2012-09-07T07:34:17Z</time>
      </trkpt>
      <trkpt lat="45.95036" lon="1.35738">
        <ele>386.8</ele>
        <time>2012-09-07T07:34:22Z</time>
      </trkpt>
      <trkpt lat="45.95047" lon="1.35722">
        <ele>386.6</ele>
        <time>2012-09-07T07:34:26Z</time>
      </trkpt>
      <trkpt lat="45.9506" lon="1.35702">
        <ele>386.4</ele>
        <time>2012-09-07T07:34:31Z</time>
      </trkpt>
      <trkpt lat="45.95073" lon="1.35681">
        <ele>386</ele>
        <time>2012-09-07T07:34:36Z</time>
      </trkpt>
      <trkpt lat="45.95078" lon="1.35673">
        <ele>386</ele>
        <time>2012-09-07T07:34:38Z</time>
      </trkpt>
      <trkpt lat="45.95092" lon="1.35654">
        <ele>385.8</ele>
        <time>2012-09-07T07:34:43Z</time>
      </trkpt>
      <trkpt lat="45.95098" lon="1.35648">
        <ele>385.6</ele>
        <time>2012-09-07T07:34:45Z</time>
      </trkpt>
      <trkpt lat="45.95116" lon="1.3564">
        <ele>385.6</ele>
        <time>2012-09-07T07:34:50Z</time>
      </trkpt>
      <trkpt lat="45.95121" lon="1.35638">
        <ele>385.4</ele>
        <time>2012-09-07T07:34:51Z</time>
      </trkpt>
      <trkpt lat="45.95138" lon="1.35632">
        <ele>385.6</ele>
        <time>2012-09-07T07:34:55Z</time>
      </trkpt>
      <trkpt lat="45.9515" lon="1.3563">
        <ele>385.6</ele>
        <time>2012-09-07T07:34:58Z</time>
      </trkpt>
      <trkpt lat="45.95172" lon="1.35619">
        <ele>385.8</ele>
        <time>2012-09-07T07:35:03Z</time>
      </trkpt>
      <trkpt lat="45.95176" lon="1.35616">
        <ele>385.6</ele>
        <time>2012-09-07T07:35:04Z</time>
      </trkpt>
      <trkpt lat="45.95193" lon="1.35606">
        <ele>385.6</ele>
        <time>2012-09-07T07:35:08Z</time>
      </trkpt>
      <trkpt lat="45.95208" lon="1.35601">
        <ele>385.6</ele>
        <time>2012-09-07T07:35:12Z</time>
      </trkpt>
      <trkpt lat="45.95228" lon="1.35597">
        <ele>385.4</ele>
        <time>2012-09-07T07:35:17Z</time>
      </trkpt>
      <trkpt lat="45.95234" lon="1.35596">
        <ele>385.4</ele>
        <time>2012-09-07T07:35:19Z</time>
      </trkpt>
      <trkpt lat="45.95253" lon="1.35593">
        <ele>385.4</ele>
        <time>2012-09-07T07:35:25Z</time>
      </trkpt>
      <trkpt lat="45.95262" lon="1.35593">
        <ele>385.8</ele>
        <time>2012-09-07T07:35:30Z</time>
      </trkpt>
      <trkpt lat="45.9527" lon="1.35596">
        <ele>386.2</ele>
        <time>2012-09-07T07:35:34Z</time>
      </trkpt>
      <trkpt lat="45.95273" lon="1.35597">
        <ele>386.4</ele>
        <time>2012-09-07T07:35:35Z</time>
      </trkpt>
      <trkpt lat="45.95287" lon="1.35596">
        <ele>387</ele>
        <time>2012-09-07T07:35:40Z</time>
      </trkpt>
      <trkpt lat="45.95302" lon="1.35594">
        <ele>387.4</ele>
        <time>2012-09-07T07:35:45Z</time>
      </trkpt>
      <trkpt lat="45.95324" lon="1.35591">
        <ele>387.4</ele>
        <time>2012-09-07T07:35:51Z</time>
      </trkpt>
      <trkpt lat="45.95347" lon="1.35591">
        <ele>387.4</ele>
        <time>2012-09-07T07:35:57Z</time>
      </trkpt>
      <trkpt lat="45.95366" lon="1.35594">
        <ele>387.8</ele>
        <time>2012-09-07T07:36:02Z</time>
      </trkpt>
      <trkpt lat="45.95373" lon="1.35594">
        <ele>387.8</ele>
        <time>2012-09-07T07:36:04Z</time>
      </trkpt>
      <trkpt lat="45.9539" lon="1.35587">
        <ele>388.4</ele>
        <time>2012-09-07T07:36:09Z</time>
      </trkpt>
      <trkpt lat="45.95409" lon="1.35574">
        <ele>388.8</ele>
        <time>2012-09-07T07:36:15Z</time>
      </trkpt>
      <trkpt lat="45.95415" lon="1.3557">
        <ele>389</ele>
        <time>2012-09-07T07:36:17Z</time>
      </trkpt>
      <trkpt lat="45.95435" lon="1.35559">
        <ele>389.8</ele>
        <time>2012-09-07T07:36:23Z</time>
      </trkpt>
      <trkpt lat="45.95441" lon="1.35557">
        <ele>390</ele>
        <time>2012-09-07T07:36:25Z</time>
      </trkpt>
      <trkpt lat="45.95461" lon="1.35549">
        <ele>390.6</ele>
        <time>2012-09-07T07:36:31Z</time>
      </trkpt>
      <trkpt lat="45.9547" lon="1.35545">
        <ele>391.2</ele>
        <time>2012-09-07T07:36:34Z</time>
      </trkpt>
      <trkpt lat="45.95482" lon="1.35542">
        <ele>391.8</ele>
        <time>2012-09-07T07:36:38Z</time>
      </trkpt>
      <trkpt lat="45.95484" lon="1.3554">
        <ele>392</ele>
        <time>2012-09-07T07:36:39Z</time>
      </trkpt>
      <trkpt lat="45.95486" lon="1.35534">
        <ele>392.4</ele>
        <time>2012-09-07T07:36:42Z</time>
      </trkpt>
      <trkpt lat="45.95486" lon="1.35532">
        <ele>392.4</ele>
        <time>2012-09-07T07:36:43Z</time>
      </trkpt>
      <trkpt lat="45.95483" lon="1.35519">
        <ele>393</ele>
        <time>2012-09-07T07:36:47Z</time>
      </trkpt>
      <trkpt lat="45.95474" lon="1.35497">
        <ele>393.6</ele>
        <time>2012-09-07T07:36:52Z</time>
      </trkpt>
      <trkpt lat="45.95472" lon="1.35492">
        <ele>393.6</ele>
        <time>2012-09-07T07:36:53Z</time>
      </trkpt>
      <trkpt lat="45.95462" lon="1.3547">
        <ele>394</ele>
        <time>2012-09-07T07:36:57Z</time>
      </trkpt>
      <trkpt lat="45.95454" lon="1.35451">
        <ele>394.2</ele>
        <time>2012-09-07T07:37:00Z</time>
      </trkpt>
      <trkpt lat="45.95443" lon="1.35425">
        <ele>394.6</ele>
        <time>2012-09-07T07:37:04Z</time>
      </trkpt>
      <trkpt lat="45.95431" lon="1.35399">
        <ele>394.8</ele>
        <time>2012-09-07T07:37:08Z</time>
      </trkpt>
      <trkpt lat="45.95429" lon="1.35392">
        <ele>394.8</ele>
        <time>2012-09-07T07:37:09Z</time>
      </trkpt>
      <trkpt lat="45.95424" lon="1.3538">
        <ele>395</ele>
        <time>2012-09-07T07:37:11Z</time>
      </trkpt>
      <trkpt lat="45.95423" lon="1.35368">
        <ele>395</ele>
        <time>2012-09-07T07:37:13Z</time>
      </trkpt>
      <trkpt lat="45.95423" lon="1.35336">
        <ele>395</ele>
        <time>2012-09-07T07:37:18Z</time>
      </trkpt>
      <trkpt lat="45.95424" lon="1.35314">
        <ele>395</ele>
        <time>2012-09-07T07:37:21Z</time>
      </trkpt>
      <trkpt lat="45.95424" lon="1.35284">
        <ele>394.8</ele>
        <time>2012-09-07T07:37:25Z</time>
      </trkpt>
      <trkpt lat="45.95425" lon="1.35254">
        <ele>394.8</ele>
        <time>2012-09-07T07:37:29Z</time>
      </trkpt>
      <trkpt lat="45.95424" lon="1.35226">
        <ele>394.6</ele>
        <time>2012-09-07T07:37:33Z</time>
      </trkpt>
      <trkpt lat="45.95424" lon="1.3522">
        <ele>394.6</ele>
        <time>2012-09-07T07:37:34Z</time>
      </trkpt>
      <trkpt lat="45.95424" lon="1.35214">
        <ele>394.6</ele>
        <time>2012-09-07T07:37:35Z</time>
      </trkpt>
      <trkpt lat="45.95425" lon="1.3519">
        <ele>394.4</ele>
        <time>2012-09-07T07:37:39Z</time>
      </trkpt>
      <trkpt lat="45.95425" lon="1.35162">
        <ele>394.2</ele>
        <time>2012-09-07T07:37:43Z</time>
      </trkpt>
      <trkpt lat="45.95425" lon="1.35149">
        <ele>394.2</ele>
        <time>2012-09-07T07:37:45Z</time>
      </trkpt>
      <trkpt lat="45.95424" lon="1.35118">
        <ele>394.2</ele>
        <time>2012-09-07T07:37:50Z</time>
      </trkpt>
      <trkpt lat="45.95426" lon="1.3509">
        <ele>394</ele>
        <time>2012-09-07T07:37:54Z</time>
      </trkpt>
      <trkpt lat="45.95427" lon="1.35082">
        <ele>394</ele>
        <time>2012-09-07T07:37:55Z</time>
      </trkpt>
      <trkpt lat="45.95426" lon="1.35048">
        <ele>393.8</ele>
        <time>2012-09-07T07:37:59Z</time>
      </trkpt>
      <trkpt lat="45.95425" lon="1.35039">
        <ele>393.8</ele>
        <time>2012-09-07T07:38:00Z</time>
      </trkpt>
      <trkpt lat="45.95418" lon="1.35008">
        <ele>393.6</ele>
        <time>2012-09-07T07:38:04Z</time>
      </trkpt>
      <trkpt lat="45.95413" lon="1.34986">
        <ele>393.4</ele>
        <time>2012-09-07T07:38:07Z</time>
      </trkpt>
      <trkpt lat="45.95408" lon="1.34959">
        <ele>393.2</ele>
        <time>2012-09-07T07:38:11Z</time>
      </trkpt>
      <trkpt lat="45.95404" lon="1.34934">
        <ele>393</ele>
        <time>2012-09-07T07:38:15Z</time>
      </trkpt>
      <trkpt lat="45.95402" lon="1.34902">
        <ele>392.8</ele>
        <time>2012-09-07T07:38:20Z</time>
      </trkpt>
      <trkpt lat="45.95401" lon="1.34876">
        <ele>392.6</ele>
        <time>2012-09-07T07:38:24Z</time>
      </trkpt>
      <trkpt lat="45.95399" lon="1.34847">
        <ele>392.4</ele>
        <time>2012-09-07T07:38:28Z</time>
      </trkpt>
      <trkpt lat="45.95394" lon="1.34817">
        <ele>392</ele>
        <time>2012-09-07T07:38:32Z</time>
      </trkpt>
      <trkpt lat="45.9539" lon="1.34784">
        <ele>391.8</ele>
        <time>2012-09-07T07:38:36Z</time>
      </trkpt>
      <trkpt lat="45.95384" lon="1.34754">
        <ele>391.6</ele>
        <time>2012-09-07T07:38:40Z</time>
      </trkpt>
      <trkpt lat="45.9538" lon="1.34739">
        <ele>391.4</ele>
        <time>2012-09-07T07:38:42Z</time>
      </trkpt>
      <trkpt lat="45.95376" lon="1.34708">
        <ele>391</ele>
        <time>2012-09-07T07:38:46Z</time>
      </trkpt>
      <trkpt lat="45.95375" lon="1.34692">
        <ele>390.8</ele>
        <time>2012-09-07T07:38:48Z</time>
      </trkpt>
      <trkpt lat="45.95374" lon="1.34661">
        <ele>390.4</ele>
        <time>2012-09-07T07:38:52Z</time>
      </trkpt>
      <trkpt lat="45.95374" lon="1.3463">
        <ele>390</ele>
        <time>2012-09-07T07:38:56Z</time>
      </trkpt>
      <trkpt lat="45.95373" lon="1.34615">
        <ele>389.8</ele>
        <time>2012-09-07T07:38:58Z</time>
      </trkpt>
      <trkpt lat="45.95373" lon="1.34587">
        <ele>389.4</ele>
        <time>2012-09-07T07:39:02Z</time>
      </trkpt>
      <trkpt lat="45.95372" lon="1.34573">
        <ele>389.2</ele>
        <time>2012-09-07T07:39:04Z</time>
      </trkpt>
      <trkpt lat="45.95368" lon="1.34543">
        <ele>388.8</ele>
        <time>2012-09-07T07:39:08Z</time>
      </trkpt>
      <trkpt lat="45.95367" lon="1.34535">
        <ele>388.6</ele>
        <time>2012-09-07T07:39:09Z</time>
      </trkpt>
      <trkpt lat="45.95365" lon="1.3451">
        <ele>388.4</ele>
        <time>2012-09-07T07:39:12Z</time>
      </trkpt>
      <trkpt lat="45.95366" lon="1.34493">
        <ele>388.2</ele>
        <time>2012-09-07T07:39:14Z</time>
      </trkpt>
      <trkpt lat="45.95369" lon="1.34467">
        <ele>387.8</ele>
        <time>2012-09-07T07:39:17Z</time>
      </trkpt>
      <trkpt lat="45.95372" lon="1.34442">
        <ele>387.6</ele>
        <time>2012-09-07T07:39:20Z</time>
      </trkpt>
      <trkpt lat="45.95372" lon="1.34432">
        <ele>387.4</ele>
        <time>2012-09-07T07:39:21Z</time>
      </trkpt>
      <trkpt lat="45.95372" lon="1.34423">
        <ele>387.4</ele>
        <time>2012-09-07T07:39:22Z</time>
      </trkpt>
      <trkpt lat="45.95371" lon="1.34397">
        <ele>387</ele>
        <time>2012-09-07T07:39:25Z</time>
      </trkpt>
      <trkpt lat="45.95371" lon="1.34389">
        <ele>387</ele>
        <time>2012-09-07T07:39:26Z</time>
      </trkpt>
      <trkpt lat="45.95376" lon="1.34358">
        <ele>386.6</ele>
        <time>2012-09-07T07:39:30Z</time>
      </trkpt>
      <trkpt lat="45.95384" lon="1.3433">
        <ele>386.2</ele>
        <time>2012-09-07T07:39:34Z</time>
      </trkpt>
      <trkpt lat="45.95387" lon="1.34315">
        <ele>386</ele>
        <time>2012-09-07T07:39:36Z</time>
      </trkpt>
      <trkpt lat="45.95388" lon="1.34306">
        <ele>385.8</ele>
        <time>2012-09-07T07:39:37Z</time>
      </trkpt>
      <trkpt lat="45.95389" lon="1.34298">
        <ele>385.8</ele>
        <time>2012-09-07T07:39:38Z</time>
      </trkpt>
      <trkpt lat="45.95391" lon="1.34266">
        <ele>385.4</ele>
        <time>2012-09-07T07:39:42Z</time>
      </trkpt>
      <trkpt lat="45.95391" lon="1.34259">
        <ele>385.4</ele>
        <time>2012-09-07T07:39:43Z</time>
      </trkpt>
      <trkpt lat="45.95392" lon="1.34251">
        <ele>385.2</ele>
        <time>2012-09-07T07:39:44Z</time>
      </trkpt>
      <trkpt lat="45.95398" lon="1.34222">
        <ele>385</ele>
        <time>2012-09-07T07:39:48Z</time>
      </trkpt>
      <trkpt lat="45.95401" lon="1.34196">
        <ele>384.6</ele>
        <time>2012-09-07T07:39:52Z</time>
      </trkpt>
      <trkpt lat="45.95401" lon="1.34188">
        <ele>384.6</ele>
        <time>2012-09-07T07:39:53Z</time>
      </trkpt>
      <trkpt lat="45.95401" lon="1.34181">
        <ele>384.4</ele>
        <time>2012-09-07T07:39:54Z</time>
      </trkpt>
      <trkpt lat="45.95401" lon="1.34151">
        <ele>384</ele>
        <time>2012-09-07T07:39:58Z</time>
      </trkpt>
      <trkpt lat="45.95403" lon="1.34128">
        <ele>383.6</ele>
        <time>2012-09-07T07:40:01Z</time>
      </trkpt>
      <trkpt lat="45.95406" lon="1.34103">
        <ele>383.2</ele>
        <time>2012-09-07T07:40:04Z</time>
      </trkpt>
      <trkpt lat="45.95409" lon="1.34095">
        <ele>383.2</ele>
        <time>2012-09-07T07:40:05Z</time>
      </trkpt>
      <trkpt lat="45.95416" lon="1.34066">
        <ele>382.8</ele>
        <time>2012-09-07T07:40:08Z</time>
      </trkpt>
      <trkpt lat="45.95419" lon="1.34047">
        <ele>382.4</ele>
        <time>2012-09-07T07:40:10Z</time>
      </trkpt>
      <trkpt lat="45.95426" lon="1.34018">
        <ele>382</ele>
        <time>2012-09-07T07:40:13Z</time>
      </trkpt>
      <trkpt lat="45.95428" lon="1.34009">
        <ele>381.8</ele>
        <time>2012-09-07T07:40:14Z</time>
      </trkpt>
      <trkpt lat="45.9543" lon="1.33999">
        <ele>381.6</ele>
        <time>2012-09-07T07:40:15Z</time>
      </trkpt>
      <trkpt lat="45.95437" lon="1.33975">
        <ele>381.2</ele>
        <time>2012-09-07T07:40:18Z</time>
      </trkpt>
      <trkpt lat="45.9544" lon="1.33959">
        <ele>380.8</ele>
        <time>2012-09-07T07:40:20Z</time>
      </trkpt>
      <trkpt lat="45.95449" lon="1.33926">
        <ele>380.2</ele>
        <time>2012-09-07T07:40:24Z</time>
      </trkpt>
      <trkpt lat="45.95451" lon="1.3392">
        <ele>380</ele>
        <time>2012-09-07T07:40:25Z</time>
      </trkpt>
      <trkpt lat="45.95457" lon="1.33903">
        <ele>379.8</ele>
        <time>2012-09-07T07:40:28Z</time>
      </trkpt>
      <trkpt lat="45.9546" lon="1.33891">
        <ele>379.6</ele>
        <time>2012-09-07T07:40:30Z</time>
      </trkpt>
      <trkpt lat="45.95461" lon="1.33886">
        <ele>379.6</ele>
        <time>2012-09-07T07:40:31Z</time>
      </trkpt>
      <trkpt lat="45.95465" lon="1.33863">
        <ele>379.2</ele>
        <time>2012-09-07T07:40:35Z</time>
      </trkpt>
      <trkpt lat="45.95467" lon="1.33857">
        <ele>379</ele>
        <time>2012-09-07T07:40:36Z</time>
      </trkpt>
      <trkpt lat="45.95473" lon="1.33827">
        <ele>378.8</ele>
        <time>2012-09-07T07:40:41Z</time>
      </trkpt>
      <trkpt lat="45.95474" lon="1.33821">
        <ele>378.8</ele>
        <time>2012-09-07T07:40:42Z</time>
      </trkpt>
      <trkpt lat="45.95475" lon="1.33815">
        <ele>378.8</ele>
        <time>2012-09-07T07:40:43Z</time>
      </trkpt>
      <trkpt lat="45.95474" lon="1.33791">
        <ele>378.8</ele>
        <time>2012-09-07T07:40:46Z</time>
      </trkpt>
      <trkpt lat="45.95471" lon="1.33757">
        <ele>378.6</ele>
        <time>2012-09-07T07:40:50Z</time>
      </trkpt>
      <trkpt lat="45.9547" lon="1.33737">
        <ele>378.6</ele>
        <time>2012-09-07T07:40:52Z</time>
      </trkpt>
      <trkpt lat="45.95463" lon="1.33706">
        <ele>378.4</ele>
        <time>2012-09-07T07:40:56Z</time>
      </trkpt>
      <trkpt lat="45.95467" lon="1.33688">
        <ele>378.2</ele>
        <time>2012-09-07T07:41:00Z</time>
      </trkpt>
      <trkpt lat="45.9547" lon="1.33683">
        <ele>378</ele>
        <time>2012-09-07T07:41:03Z</time>
      </trkpt>
      <trkpt lat="45.9547" lon="1.33682">
        <ele>378</ele>
        <time>2012-09-07T07:41:04Z</time>
      </trkpt>
      <trkpt lat="45.95472" lon="1.3368">
        <ele>377.6</ele>
        <time>2012-09-07T07:41:09Z</time>
      </trkpt>
      <trkpt lat="45.95472" lon="1.33673">
        <ele>377</ele>
        <time>2012-09-07T07:41:16Z</time>
      </trkpt>
      <trkpt lat="45.95475" lon="1.33668">
        <ele>376.6</ele>
        <time>2012-09-07T07:41:21Z</time>
      </trkpt>
      <trkpt lat="45.9548" lon="1.3366">
        <ele>375.8</ele>
        <time>2012-09-07T07:41:28Z</time>
      </trkpt>
      <trkpt lat="45.95484" lon="1.33653">
        <ele>375</ele>
        <time>2012-09-07T07:41:35Z</time>
      </trkpt>
      <trkpt lat="45.95492" lon="1.33644">
        <ele>374</ele>
        <time>2012-09-07T07:41:43Z</time>
      </trkpt>
      <trkpt lat="45.95496" lon="1.33638">
        <ele>373.4</ele>
        <time>2012-09-07T07:41:48Z</time>
      </trkpt>
      <trkpt lat="45.95501" lon="1.33627">
        <ele>372.6</ele>
        <time>2012-09-07T07:41:55Z</time>
      </trkpt>
      <trkpt lat="45.95504" lon="1.33622">
        <ele>372</ele>
        <time>2012-09-07T07:42:01Z</time>
      </trkpt>
      <trkpt lat="45.95505" lon="1.33612">
        <ele>371.6</ele>
        <time>2012-09-07T07:42:07Z</time>
      </trkpt>
      <trkpt lat="45.95505" lon="1.33593">
        <ele>371</ele>
        <time>2012-09-07T07:42:14Z</time>
      </trkpt>
      <trkpt lat="45.95505" lon="1.33575">
        <ele>370.4</ele>
        <time>2012-09-07T07:42:22Z</time>
      </trkpt>
      <trkpt lat="45.95507" lon="1.33554">
        <ele>369.8</ele>
        <time>2012-09-07T07:42:30Z</time>
      </trkpt>
      <trkpt lat="45.95505" lon="1.33531">
        <ele>369.2</ele>
        <time>2012-09-07T07:42:37Z</time>
      </trkpt>
      <trkpt lat="45.955" lon="1.33507">
        <ele>368.8</ele>
        <time>2012-09-07T07:42:44Z</time>
      </trkpt>
      <trkpt lat="45.95497" lon="1.33487">
        <ele>368.4</ele>
        <time>2012-09-07T07:42:50Z</time>
      </trkpt>
      <trkpt lat="45.95492" lon="1.33465">
        <ele>368</ele>
        <time>2012-09-07T07:42:57Z</time>
      </trkpt>
      <trkpt lat="45.95489" lon="1.33439">
        <ele>367.8</ele>
        <time>2012-09-07T07:43:05Z</time>
      </trkpt>
      <trkpt lat="45.95484" lon="1.33412">
        <ele>367.6</ele>
        <time>2012-09-07T07:43:12Z</time>
      </trkpt>
      <trkpt lat="45.9548" lon="1.33389">
        <ele>367.6</ele>
        <time>2012-09-07T07:43:18Z</time>
      </trkpt>
      <trkpt lat="45.95475" lon="1.33364">
        <ele>368</ele>
        <time>2012-09-07T07:43:25Z</time>
      </trkpt>
      <trkpt lat="45.95468" lon="1.33346">
        <ele>368.8</ele>
        <time>2012-09-07T07:43:31Z</time>
      </trkpt>
      <trkpt lat="45.95461" lon="1.33328">
        <ele>369.8</ele>
        <time>2012-09-07T07:43:38Z</time>
      </trkpt>
      <trkpt lat="45.9545" lon="1.33308">
        <ele>371</ele>
        <time>2012-09-07T07:43:46Z</time>
      </trkpt>
      <trkpt lat="45.95436" lon="1.33288">
        <ele>372.6</ele>
        <time>2012-09-07T07:43:55Z</time>
      </trkpt>
      <trkpt lat="45.95425" lon="1.33273">
        <ele>374</ele>
        <time>2012-09-07T07:44:02Z</time>
      </trkpt>
      <trkpt lat="45.95414" lon="1.33249">
        <ele>375.6</ele>
        <time>2012-09-07T07:44:10Z</time>
      </trkpt>
      <trkpt lat="45.95412" lon="1.33236">
        <ele>376.6</ele>
        <time>2012-09-07T07:44:15Z</time>
      </trkpt>
      <trkpt lat="45.95416" lon="1.3323">
        <ele>377.2</ele>
        <time>2012-09-07T07:44:20Z</time>
      </trkpt>
      <trkpt lat="45.95418" lon="1.33224">
        <ele>377.6</ele>
        <time>2012-09-07T07:44:23Z</time>
      </trkpt>
      <trkpt lat="45.95419" lon="1.3322">
        <ele>377.6</ele>
        <time>2012-09-07T07:44:24Z</time>
      </trkpt>
      <trkpt lat="45.95419" lon="1.33212">
        <ele>377.8</ele>
        <time>2012-09-07T07:44:26Z</time>
      </trkpt>
      <trkpt lat="45.95417" lon="1.33205">
        <ele>378</ele>
        <time>2012-09-07T07:44:28Z</time>
      </trkpt>
      <trkpt lat="45.9541" lon="1.33179">
        <ele>379.2</ele>
        <time>2012-09-07T07:44:35Z</time>
      </trkpt>
      <trkpt lat="45.95409" lon="1.33176">
        <ele>379.4</ele>
        <time>2012-09-07T07:44:36Z</time>
      </trkpt>
      <trkpt lat="45.95404" lon="1.33149">
        <ele>380.8</ele>
        <time>2012-09-07T07:44:43Z</time>
      </trkpt>
      <trkpt lat="45.95403" lon="1.33146">
        <ele>381</ele>
        <time>2012-09-07T07:44:44Z</time>
      </trkpt>
      <trkpt lat="45.95401" lon="1.33123">
        <ele>382.4</ele>
        <time>2012-09-07T07:44:51Z</time>
      </trkpt>
      <trkpt lat="45.95407" lon="1.33103">
        <ele>383.6</ele>
        <time>2012-09-07T07:44:58Z</time>
      </trkpt>
      <trkpt lat="45.95414" lon="1.33087">
        <ele>384.6</ele>
        <time>2012-09-07T07:45:05Z</time>
      </trkpt>
      <trkpt lat="45.95423" lon="1.33069">
        <ele>385.8</ele>
        <time>2012-09-07T07:45:13Z</time>
      </trkpt>
      <trkpt lat="45.95433" lon="1.33064">
        <ele>386.6</ele>
        <time>2012-09-07T07:45:19Z</time>
      </trkpt>
      <trkpt lat="45.95446" lon="1.3306">
        <ele>388.4</ele>
        <time>2012-09-07T07:45:26Z</time>
      </trkpt>
      <trkpt lat="45.95453" lon="1.33059">
        <ele>390</ele>
        <time>2012-09-07T07:45:32Z</time>
      </trkpt>
      <trkpt lat="45.95465" lon="1.33055">
        <ele>392</ele>
        <time>2012-09-07T07:45:39Z</time>
      </trkpt>
      <trkpt lat="45.95475" lon="1.33055">
        <ele>393.8</ele>
        <time>2012-09-07T07:45:46Z</time>
      </trkpt>
      <trkpt lat="45.95486" lon="1.33055">
        <ele>395.6</ele>
        <time>2012-09-07T07:45:53Z</time>
      </trkpt>
      <trkpt lat="45.9549" lon="1.33054">
        <ele>396</ele>
        <time>2012-09-07T07:45:55Z</time>
      </trkpt>
      <trkpt lat="45.95497" lon="1.3305">
        <ele>397</ele>
        <time>2012-09-07T07:45:59Z</time>
      </trkpt>
      <trkpt lat="45.95498" lon="1.33049">
        <ele>397.2</ele>
        <time>2012-09-07T07:46:00Z</time>
      </trkpt>
      <trkpt lat="45.95512" lon="1.33038">
        <ele>399</ele>
        <time>2012-09-07T07:46:09Z</time>
      </trkpt>
      <trkpt lat="45.95524" lon="1.33029">
        <ele>400.2</ele>
        <time>2012-09-07T07:46:17Z</time>
      </trkpt>
      <trkpt lat="45.95535" lon="1.33022">
        <ele>401.4</ele>
        <time>2012-09-07T07:46:24Z</time>
      </trkpt>
      <trkpt lat="45.95545" lon="1.33015">
        <ele>402</ele>
        <time>2012-09-07T07:46:31Z</time>
      </trkpt>
      <trkpt lat="45.95554" lon="1.33011">
        <ele>402.8</ele>
        <time>2012-09-07T07:46:36Z</time>
      </trkpt>
      <trkpt lat="45.95566" lon="1.33002">
        <ele>403.6</ele>
        <time>2012-09-07T07:46:43Z</time>
      </trkpt>
      <trkpt lat="45.95577" lon="1.32991">
        <ele>404.2</ele>
        <time>2012-09-07T07:46:51Z</time>
      </trkpt>
      <trkpt lat="45.95586" lon="1.32984">
        <ele>404.6</ele>
        <time>2012-09-07T07:46:57Z</time>
      </trkpt>
      <trkpt lat="45.95597" lon="1.32975">
        <ele>405.4</ele>
        <time>2012-09-07T07:47:05Z</time>
      </trkpt>
      <trkpt lat="45.95606" lon="1.32966">
        <ele>406.4</ele>
        <time>2012-09-07T07:47:12Z</time>
      </trkpt>
      <trkpt lat="45.95614" lon="1.32957">
        <ele>407.6</ele>
        <time>2012-09-07T07:47:19Z</time>
      </trkpt>
      <trkpt lat="45.95624" lon="1.32941">
        <ele>409.4</ele>
        <time>2012-09-07T07:47:28Z</time>
      </trkpt>
      <trkpt lat="45.95633" lon="1.32926">
        <ele>411.2</ele>
        <time>2012-09-07T07:47:36Z</time>
      </trkpt>
      <trkpt lat="45.95642" lon="1.32911">
        <ele>413</ele>
        <time>2012-09-07T07:47:44Z</time>
      </trkpt>
      <trkpt lat="45.95649" lon="1.32896">
        <ele>414.8</ele>
        <time>2012-09-07T07:47:52Z</time>
      </trkpt>
      <trkpt lat="45.95653" lon="1.32892">
        <ele>416</ele>
        <time>2012-09-07T07:47:56Z</time>
      </trkpt>
      <trkpt lat="45.95656" lon="1.32892">
        <ele>416.8</ele>
        <time>2012-09-07T07:47:58Z</time>
      </trkpt>
      <trkpt lat="45.95669" lon="1.32891">
        <ele>419</ele>
        <time>2012-09-07T07:48:06Z</time>
      </trkpt>
      <trkpt lat="45.95681" lon="1.32893">
        <ele>421</ele>
        <time>2012-09-07T07:48:13Z</time>
      </trkpt>
      <trkpt lat="45.9569" lon="1.32897">
        <ele>422.4</ele>
        <time>2012-09-07T07:48:18Z</time>
      </trkpt>
      <trkpt lat="45.957" lon="1.32899">
        <ele>424.4</ele>
        <time>2012-09-07T07:48:25Z</time>
      </trkpt>
      <trkpt lat="45.95703" lon="1.32899">
        <ele>424.8</ele>
        <time>2012-09-07T07:48:27Z</time>
      </trkpt>
      <trkpt lat="45.95708" lon="1.32896">
        <ele>426</ele>
        <time>2012-09-07T07:48:31Z</time>
      </trkpt>
      <trkpt lat="45.95713" lon="1.3289">
        <ele>427.2</ele>
        <time>2012-09-07T07:48:36Z</time>
      </trkpt>
      <trkpt lat="45.95721" lon="1.32881">
        <ele>428.8</ele>
        <time>2012-09-07T07:48:43Z</time>
      </trkpt>
      <trkpt lat="45.95721" lon="1.3288">
        <ele>429</ele>
        <time>2012-09-07T07:48:44Z</time>
      </trkpt>
      <trkpt lat="45.95726" lon="1.32872">
        <ele>430</ele>
        <time>2012-09-07T07:48:49Z</time>
      </trkpt>
      <trkpt lat="45.9573" lon="1.32868">
        <ele>430.4</ele>
        <time>2012-09-07T07:48:52Z</time>
      </trkpt>
      <trkpt lat="45.95735" lon="1.32864">
        <ele>431</ele>
        <time>2012-09-07T07:48:56Z</time>
      </trkpt>
      <trkpt lat="45.95745" lon="1.32853">
        <ele>431.8</ele>
        <time>2012-09-07T07:49:03Z</time>
      </trkpt>
      <trkpt lat="45.95753" lon="1.32843">
        <ele>432.2</ele>
        <time>2012-09-07T07:49:09Z</time>
      </trkpt>
      <trkpt lat="45.95761" lon="1.32833">
        <ele>432.4</ele>
        <time>2012-09-07T07:49:14Z</time>
      </trkpt>
      <trkpt lat="45.95763" lon="1.32831">
        <ele>432.2</ele>
        <time>2012-09-07T07:49:15Z</time>
      </trkpt>
      <trkpt lat="45.95768" lon="1.32821">
        <ele>432.4</ele>
        <time>2012-09-07T07:49:19Z</time>
      </trkpt>
      <trkpt lat="45.95769" lon="1.32819">
        <ele>432.4</ele>
        <time>2012-09-07T07:49:20Z</time>
      </trkpt>
      <trkpt lat="45.95775" lon="1.32809">
        <ele>432.6</ele>
        <time>2012-09-07T07:49:25Z</time>
      </trkpt>
      <trkpt lat="45.95784" lon="1.32792">
        <ele>433</ele>
        <time>2012-09-07T07:49:32Z</time>
      </trkpt>
      <trkpt lat="45.95792" lon="1.32778">
        <ele>433.4</ele>
        <time>2012-09-07T07:49:38Z</time>
      </trkpt>
      <trkpt lat="45.95801" lon="1.32765">
        <ele>433.8</ele>
        <time>2012-09-07T07:49:43Z</time>
      </trkpt>
      <trkpt lat="45.95807" lon="1.32754">
        <ele>434</ele>
        <time>2012-09-07T07:49:49Z</time>
      </trkpt>
      <trkpt lat="45.95817" lon="1.32742">
        <ele>434.2</ele>
        <time>2012-09-07T07:49:55Z</time>
      </trkpt>
      <trkpt lat="45.95826" lon="1.32728">
        <ele>434.6</ele>
        <time>2012-09-07T07:50:02Z</time>
      </trkpt>
      <trkpt lat="45.9583" lon="1.32713">
        <ele>435.8</ele>
        <time>2012-09-07T07:50:10Z</time>
      </trkpt>
      <trkpt lat="45.95828" lon="1.32701">
        <ele>436.6</ele>
        <time>2012-09-07T07:50:15Z</time>
      </trkpt>
      <trkpt lat="45.95828" lon="1.32699">
        <ele>436.8</ele>
        <time>2012-09-07T07:50:16Z</time>
      </trkpt>
      <trkpt lat="45.95828" lon="1.32686">
        <ele>437.8</ele>
        <time>2012-09-07T07:50:21Z</time>
      </trkpt>
      <trkpt lat="45.95828" lon="1.32676">
        <ele>438.6</ele>
        <time>2012-09-07T07:50:25Z</time>
      </trkpt>
      <trkpt lat="45.95827" lon="1.32673">
        <ele>438.8</ele>
        <time>2012-09-07T07:50:26Z</time>
      </trkpt>
      <trkpt lat="45.95825" lon="1.32657">
        <ele>441</ele>
        <time>2012-09-07T07:50:34Z</time>
      </trkpt>
      <trkpt lat="45.95825" lon="1.32648">
        <ele>442</ele>
        <time>2012-09-07T07:50:38Z</time>
      </trkpt>
      <trkpt lat="45.95825" lon="1.32642">
        <ele>442.8</ele>
        <time>2012-09-07T07:50:41Z</time>
      </trkpt>
      <trkpt lat="45.95827" lon="1.32628">
        <ele>444.6</ele>
        <time>2012-09-07T07:50:48Z</time>
      </trkpt>
      <trkpt lat="45.9583" lon="1.32623">
        <ele>445.6</ele>
        <time>2012-09-07T07:50:52Z</time>
      </trkpt>
      <trkpt lat="45.95832" lon="1.32622">
        <ele>446</ele>
        <time>2012-09-07T07:50:54Z</time>
      </trkpt>
      <trkpt lat="45.95836" lon="1.32623">
        <ele>447</ele>
        <time>2012-09-07T07:50:58Z</time>
      </trkpt>
      <trkpt lat="45.95838" lon="1.32624">
        <ele>447.4</ele>
        <time>2012-09-07T07:51:00Z</time>
      </trkpt>
      <trkpt lat="45.95846" lon="1.32634">
        <ele>449.2</ele>
        <time>2012-09-07T07:51:08Z</time>
      </trkpt>
      <trkpt lat="45.95856" lon="1.32642">
        <ele>450.4</ele>
        <time>2012-09-07T07:51:16Z</time>
      </trkpt>
      <trkpt lat="45.95869" lon="1.32647">
        <ele>451.8</ele>
        <time>2012-09-07T07:51:25Z</time>
      </trkpt>
      <trkpt lat="45.95878" lon="1.32647">
        <ele>453</ele>
        <time>2012-09-07T07:51:32Z</time>
      </trkpt>
      <trkpt lat="45.95884" lon="1.32646">
        <ele>454</ele>
        <time>2012-09-07T07:51:37Z</time>
      </trkpt>
      <trkpt lat="45.95892" lon="1.32646">
        <ele>455</ele>
        <time>2012-09-07T07:51:43Z</time>
      </trkpt>
      <trkpt lat="45.95906" lon="1.32647">
        <ele>455.8</ele>
        <time>2012-09-07T07:51:51Z</time>
      </trkpt>
      <trkpt lat="45.95919" lon="1.32644">
        <ele>456.6</ele>
        <time>2012-09-07T07:51:57Z</time>
      </trkpt>
      <trkpt lat="45.95929" lon="1.32637">
        <ele>457</ele>
        <time>2012-09-07T07:52:04Z</time>
      </trkpt>
      <trkpt lat="45.95937" lon="1.32626">
        <ele>457.6</ele>
        <time>2012-09-07T07:52:11Z</time>
      </trkpt>
      <trkpt lat="45.95942" lon="1.32614">
        <ele>458</ele>
        <time>2012-09-07T07:52:17Z</time>
      </trkpt>
      <trkpt lat="45.95942" lon="1.32612">
        <ele>458</ele>
        <time>2012-09-07T07:52:18Z</time>
      </trkpt>
      <trkpt lat="45.95949" lon="1.32597">
        <ele>458.6</ele>
        <time>2012-09-07T07:52:26Z</time>
      </trkpt>
      <trkpt lat="45.9596" lon="1.32585">
        <ele>459.6</ele>
        <time>2012-09-07T07:52:34Z</time>
      </trkpt>
      <trkpt lat="45.95974" lon="1.32569">
        <ele>460.8</ele>
        <time>2012-09-07T07:52:44Z</time>
      </trkpt>
      <trkpt lat="45.95988" lon="1.32553">
        <ele>461.8</ele>
        <time>2012-09-07T07:52:54Z</time>
      </trkpt>
      <trkpt lat="45.95998" lon="1.32544">
        <ele>462.8</ele>
        <time>2012-09-07T07:53:01Z</time>
      </trkpt>
      <trkpt lat="45.96008" lon="1.3253">
        <ele>464</ele>
        <time>2012-09-07T07:53:10Z</time>
      </trkpt>
      <trkpt lat="45.96016" lon="1.3252">
        <ele>465</ele>
        <time>2012-09-07T07:53:16Z</time>
      </trkpt>
      <trkpt lat="45.96025" lon="1.32509">
        <ele>465.8</ele>
        <time>2012-09-07T07:53:23Z</time>
      </trkpt>
      <trkpt lat="45.96038" lon="1.32494">
        <ele>467</ele>
        <time>2012-09-07T07:53:33Z</time>
      </trkpt>
      <trkpt lat="45.96047" lon="1.32481">
        <ele>467.6</ele>
        <time>2012-09-07T07:53:41Z</time>
      </trkpt>
      <trkpt lat="45.96056" lon="1.32472">
        <ele>468.4</ele>
        <time>2012-09-07T07:53:47Z</time>
      </trkpt>
      <trkpt lat="45.96066" lon="1.32457">
        <ele>469.6</ele>
        <time>2012-09-07T07:53:56Z</time>
      </trkpt>
      <trkpt lat="45.96073" lon="1.32448">
        <ele>470.6</ele>
        <time>2012-09-07T07:54:02Z</time>
      </trkpt>
      <trkpt lat="45.96082" lon="1.32438">
        <ele>471.6</ele>
        <time>2012-09-07T07:54:09Z</time>
      </trkpt>
      <trkpt lat="45.96089" lon="1.32428">
        <ele>472.6</ele>
        <time>2012-09-07T07:54:15Z</time>
      </trkpt>
      <trkpt lat="45.96103" lon="1.32416">
        <ele>473.8</ele>
        <time>2012-09-07T07:54:25Z</time>
      </trkpt>
      <trkpt lat="45.9612" lon="1.3241">
        <ele>474.4</ele>
        <time>2012-09-07T07:54:34Z</time>
      </trkpt>
      <trkpt lat="45.96135" lon="1.32407">
        <ele>474.8</ele>
        <time>2012-09-07T07:54:41Z</time>
      </trkpt>
      <trkpt lat="45.96153" lon="1.32402">
        <ele>475.4</ele>
        <time>2012-09-07T07:54:50Z</time>
      </trkpt>
      <trkpt lat="45.96155" lon="1.32402">
        <ele>475.6</ele>
        <time>2012-09-07T07:54:51Z</time>
      </trkpt>
      <trkpt lat="45.96173" lon="1.32398">
        <ele>475.8</ele>
        <time>2012-09-07T07:55:01Z</time>
      </trkpt>
      <trkpt lat="45.96184" lon="1.32396">
        <ele>476.2</ele>
        <time>2012-09-07T07:55:07Z</time>
      </trkpt>
      <trkpt lat="45.96203" lon="1.32391">
        <ele>477.4</ele>
        <time>2012-09-07T07:55:17Z</time>
      </trkpt>
      <trkpt lat="45.96215" lon="1.32388">
        <ele>478.4</ele>
        <time>2012-09-07T07:55:23Z</time>
      </trkpt>
      <trkpt lat="45.96228" lon="1.32385">
        <ele>479.6</ele>
        <time>2012-09-07T07:55:30Z</time>
      </trkpt>
      <trkpt lat="45.96239" lon="1.32386">
        <ele>481</ele>
        <time>2012-09-07T07:55:36Z</time>
      </trkpt>
      <trkpt lat="45.96239" lon="1.32387">
        <ele>482.6</ele>
        <time>2012-09-07T07:55:43Z</time>
      </trkpt>
      <trkpt lat="45.96245" lon="1.32387">
        <ele>485.8</ele>
        <time>2012-09-07T07:56:05Z</time>
      </trkpt>
      <trkpt lat="45.96248" lon="1.32386">
        <ele>485.8</ele>
        <time>2012-09-07T07:56:07Z</time>
      </trkpt>
      <trkpt lat="45.96254" lon="1.3238">
        <ele>486</ele>
        <time>2012-09-07T07:56:12Z</time>
      </trkpt>
      <trkpt lat="45.96254" lon="1.32378">
        <ele>486.2</ele>
        <time>2012-09-07T07:56:13Z</time>
      </trkpt>
      <trkpt lat="45.96263" lon="1.32367">
        <ele>486.2</ele>
        <time>2012-09-07T07:56:17Z</time>
      </trkpt>
      <trkpt lat="45.96278" lon="1.32351">
        <ele>486</ele>
        <time>2012-09-07T07:56:21Z</time>
      </trkpt>
      <trkpt lat="45.96292" lon="1.32332">
        <ele>486</ele>
        <time>2012-09-07T07:56:24Z</time>
      </trkpt>
      <trkpt lat="45.963" lon="1.32317">
        <ele>485.8</ele>
        <time>2012-09-07T07:56:26Z</time>
      </trkpt>
      <trkpt lat="45.96313" lon="1.32295">
        <ele>485.8</ele>
        <time>2012-09-07T07:56:29Z</time>
      </trkpt>
      <trkpt lat="45.96322" lon="1.3228">
        <ele>485.6</ele>
        <time>2012-09-07T07:56:31Z</time>
      </trkpt>
      <trkpt lat="45.96334" lon="1.32259">
        <ele>485.2</ele>
        <time>2012-09-07T07:56:34Z</time>
      </trkpt>
      <trkpt lat="45.96348" lon="1.32238">
        <ele>485</ele>
        <time>2012-09-07T07:56:37Z</time>
      </trkpt>
      <trkpt lat="45.96363" lon="1.32212">
        <ele>484.6</ele>
        <time>2012-09-07T07:56:40Z</time>
      </trkpt>
      <trkpt lat="45.96372" lon="1.32194">
        <ele>484.4</ele>
        <time>2012-09-07T07:56:42Z</time>
      </trkpt>
      <trkpt lat="45.96382" lon="1.32176">
        <ele>484.2</ele>
        <time>2012-09-07T07:56:44Z</time>
      </trkpt>
      <trkpt lat="45.96392" lon="1.32161">
        <ele>484</ele>
        <time>2012-09-07T07:56:46Z</time>
      </trkpt>
      <trkpt lat="45.96397" lon="1.32155">
        <ele>483.8</ele>
        <time>2012-09-07T07:56:47Z</time>
      </trkpt>
      <trkpt lat="45.9641" lon="1.32135">
        <ele>483.4</ele>
        <time>2012-09-07T07:56:50Z</time>
      </trkpt>
      <trkpt lat="45.96415" lon="1.3213">
        <ele>483.4</ele>
        <time>2012-09-07T07:56:51Z</time>
      </trkpt>
      <trkpt lat="45.9642" lon="1.32127">
        <ele>483.2</ele>
        <time>2012-09-07T07:56:52Z</time>
      </trkpt>
      <trkpt lat="45.9644" lon="1.32111">
        <ele>482.8</ele>
        <time>2012-09-07T07:56:56Z</time>
      </trkpt>
      <trkpt lat="45.96446" lon="1.32106">
        <ele>482.8</ele>
        <time>2012-09-07T07:56:57Z</time>
      </trkpt>
      <trkpt lat="45.96461" lon="1.32096">
        <ele>482.4</ele>
        <time>2012-09-07T07:56:59Z</time>
      </trkpt>
      <trkpt lat="45.96472" lon="1.3208">
        <ele>482.2</ele>
        <time>2012-09-07T07:57:01Z</time>
      </trkpt>
      <trkpt lat="45.96487" lon="1.32059">
        <ele>481.8</ele>
        <time>2012-09-07T07:57:04Z</time>
      </trkpt>
      <trkpt lat="45.96492" lon="1.32051">
        <ele>481.8</ele>
        <time>2012-09-07T07:57:05Z</time>
      </trkpt>
      <trkpt lat="45.96506" lon="1.32024">
        <ele>481.4</ele>
        <time>2012-09-07T07:57:08Z</time>
      </trkpt>
      <trkpt lat="45.96512" lon="1.3201">
        <ele>481.2</ele>
        <time>2012-09-07T07:57:10Z</time>
      </trkpt>
      <trkpt lat="45.96513" lon="1.32004">
        <ele>481</ele>
        <time>2012-09-07T07:57:11Z</time>
      </trkpt>
      <trkpt lat="45.96517" lon="1.31988">
        <ele>480.6</ele>
        <time>2012-09-07T07:57:14Z</time>
      </trkpt>
      <trkpt lat="45.9652" lon="1.31988">
        <ele>480.2</ele>
        <time>2012-09-07T07:57:18Z</time>
      </trkpt>
      <trkpt lat="45.96527" lon="1.31992">
        <ele>479</ele>
        <time>2012-09-07T07:57:25Z</time>
      </trkpt>
      <trkpt lat="45.96536" lon="1.31998">
        <ele>478</ele>
        <time>2012-09-07T07:57:33Z</time>
      </trkpt>
      <trkpt lat="45.96544" lon="1.32005">
        <ele>477.2</ele>
        <time>2012-09-07T07:57:40Z</time>
      </trkpt>
      <trkpt lat="45.9655" lon="1.3201">
        <ele>476.4</ele>
        <time>2012-09-07T07:57:47Z</time>
      </trkpt>
      <trkpt lat="45.96551" lon="1.32011">
        <ele>476.4</ele>
        <time>2012-09-07T07:57:48Z</time>
      </trkpt>
      <trkpt lat="45.96554" lon="1.32013">
        <ele>476</ele>
        <time>2012-09-07T07:57:53Z</time>
      </trkpt>
      <trkpt lat="45.96556" lon="1.32017">
        <ele>475.6</ele>
        <time>2012-09-07T07:58:02Z</time>
      </trkpt>
      <trkpt lat="45.96563" lon="1.32021">
        <ele>475.2</ele>
        <time>2012-09-07T07:58:08Z</time>
      </trkpt>
      <trkpt lat="45.9657" lon="1.32025">
        <ele>475</ele>
        <time>2012-09-07T07:58:14Z</time>
      </trkpt>
      <trkpt lat="45.96573" lon="1.32026">
        <ele>474.8</ele>
        <time>2012-09-07T07:58:17Z</time>
      </trkpt>
      <trkpt lat="45.96576" lon="1.32029">
        <ele>474.8</ele>
        <time>2012-09-07T07:58:21Z</time>
      </trkpt>
      <trkpt lat="45.96577" lon="1.3203">
        <ele>474.8</ele>
        <time>2012-09-07T07:58:22Z</time>
      </trkpt>
      <trkpt lat="45.96582" lon="1.32034">
        <ele>474.6</ele>
        <time>2012-09-07T07:58:27Z</time>
      </trkpt>
      <trkpt lat="45.96585" lon="1.32037">
        <ele>474.8</ele>
        <time>2012-09-07T07:58:31Z</time>
      </trkpt>
      <trkpt lat="45.96587" lon="1.32038">
        <ele>474.8</ele>
        <time>2012-09-07T07:58:34Z</time>
      </trkpt>
      <trkpt lat="45.96591" lon="1.3204">
        <ele>475.4</ele>
        <time>2012-09-07T07:58:40Z</time>
      </trkpt>
      <trkpt lat="45.96594" lon="1.32046">
        <ele>476.2</ele>
        <time>2012-09-07T07:58:47Z</time>
      </trkpt>
      <trkpt lat="45.96598" lon="1.32051">
        <ele>477.2</ele>
        <time>2012-09-07T07:58:54Z</time>
      </trkpt>
      <trkpt lat="45.96602" lon="1.32055">
        <ele>478</ele>
        <time>2012-09-07T07:59:00Z</time>
      </trkpt>
      <trkpt lat="45.96604" lon="1.32055">
        <ele>478.2</ele>
        <time>2012-09-07T07:59:01Z</time>
      </trkpt>
      <trkpt lat="45.96607" lon="1.32058">
        <ele>479</ele>
        <time>2012-09-07T07:59:05Z</time>
      </trkpt>
      <trkpt lat="45.96608" lon="1.32058">
        <ele>479</ele>
        <time>2012-09-07T07:59:06Z</time>
      </trkpt>
      <trkpt lat="45.96616" lon="1.32062">
        <ele>480.2</ele>
        <time>2012-09-07T07:59:13Z</time>
      </trkpt>
      <trkpt lat="45.96624" lon="1.32068">
        <ele>481.2</ele>
        <time>2012-09-07T07:59:21Z</time>
      </trkpt>
      <trkpt lat="45.96627" lon="1.3207">
        <ele>481.6</ele>
        <time>2012-09-07T07:59:24Z</time>
      </trkpt>
      <trkpt lat="45.96629" lon="1.32073">
        <ele>482</ele>
        <time>2012-09-07T07:59:27Z</time>
      </trkpt>
      <trkpt lat="45.96632" lon="1.32077">
        <ele>483</ele>
        <time>2012-09-07T07:59:33Z</time>
      </trkpt>
      <trkpt lat="45.96632" lon="1.32078">
        <ele>483.2</ele>
        <time>2012-09-07T07:59:34Z</time>
      </trkpt>
      <trkpt lat="45.96634" lon="1.3208">
        <ele>483.6</ele>
        <time>2012-09-07T07:59:36Z</time>
      </trkpt>
      <trkpt lat="45.96636" lon="1.32082">
        <ele>484.2</ele>
        <time>2012-09-07T07:59:39Z</time>
      </trkpt>
      <trkpt lat="45.96642" lon="1.32087">
        <ele>485.4</ele>
        <time>2012-09-07T07:59:46Z</time>
      </trkpt>
      <trkpt lat="45.96645" lon="1.32091">
        <ele>486.4</ele>
        <time>2012-09-07T07:59:51Z</time>
      </trkpt>
      <trkpt lat="45.96651" lon="1.32097">
        <ele>488</ele>
        <time>2012-09-07T07:59:59Z</time>
      </trkpt>
      <trkpt lat="45.96655" lon="1.32105">
        <ele>490</ele>
        <time>2012-09-07T08:00:07Z</time>
      </trkpt>
      <trkpt lat="45.96662" lon="1.3211">
        <ele>491.2</ele>
        <time>2012-09-07T08:00:14Z</time>
      </trkpt>
      <trkpt lat="45.96664" lon="1.32112">
        <ele>491.8</ele>
        <time>2012-09-07T08:00:17Z</time>
      </trkpt>
      <trkpt lat="45.96668" lon="1.32117">
        <ele>492.4</ele>
        <time>2012-09-07T08:00:21Z</time>
      </trkpt>
      <trkpt lat="45.96669" lon="1.32126">
        <ele>494</ele>
        <time>2012-09-07T08:00:29Z</time>
      </trkpt>
      <trkpt lat="45.96671" lon="1.32132">
        <ele>495.8</ele>
        <time>2012-09-07T08:00:36Z</time>
      </trkpt>
      <trkpt lat="45.96672" lon="1.32135">
        <ele>496.4</ele>
        <time>2012-09-07T08:00:39Z</time>
      </trkpt>
      <trkpt lat="45.96673" lon="1.32139">
        <ele>497</ele>
        <time>2012-09-07T08:00:42Z</time>
      </trkpt>
      <trkpt lat="45.96676" lon="1.32147">
        <ele>498.2</ele>
        <time>2012-09-07T08:00:48Z</time>
      </trkpt>
      <trkpt lat="45.96676" lon="1.32149">
        <ele>498.4</ele>
        <time>2012-09-07T08:00:49Z</time>
      </trkpt>
      <trkpt lat="45.96675" lon="1.32152">
        <ele>498.8</ele>
        <time>2012-09-07T08:00:51Z</time>
      </trkpt>
      <trkpt lat="45.96674" lon="1.32157">
        <ele>499.6</ele>
        <time>2012-09-07T08:00:56Z</time>
      </trkpt>
      <trkpt lat="45.96675" lon="1.32164">
        <ele>500.6</ele>
        <time>2012-09-07T08:01:04Z</time>
      </trkpt>
      <trkpt lat="45.96676" lon="1.32169">
        <ele>500.8</ele>
        <time>2012-09-07T08:01:07Z</time>
      </trkpt>
      <trkpt lat="45.96676" lon="1.32176">
        <ele>500.8</ele>
        <time>2012-09-07T08:01:11Z</time>
      </trkpt>
      <trkpt lat="45.96677" lon="1.3218">
        <ele>501</ele>
        <time>2012-09-07T08:01:13Z</time>
      </trkpt>
      <trkpt lat="45.96677" lon="1.32189">
        <ele>501.4</ele>
        <time>2012-09-07T08:01:18Z</time>
      </trkpt>
      <trkpt lat="45.96677" lon="1.32191">
        <ele>501.6</ele>
        <time>2012-09-07T08:01:19Z</time>
      </trkpt>
      <trkpt lat="45.96676" lon="1.32203">
        <ele>501.4</ele>
        <time>2012-09-07T08:01:25Z</time>
      </trkpt>
      <trkpt lat="45.96676" lon="1.32209">
        <ele>501.4</ele>
        <time>2012-09-07T08:01:28Z</time>
      </trkpt>
      <trkpt lat="45.96676" lon="1.32212">
        <ele>501.4</ele>
        <time>2012-09-07T08:01:29Z</time>
      </trkpt>
      <trkpt lat="45.96673" lon="1.32229">
        <ele>501.4</ele>
        <time>2012-09-07T08:01:37Z</time>
      </trkpt>
      <trkpt lat="45.96672" lon="1.32248">
        <ele>501.6</ele>
        <time>2012-09-07T08:01:46Z</time>
      </trkpt>
      <trkpt lat="45.96673" lon="1.32264">
        <ele>501.6</ele>
        <time>2012-09-07T08:01:54Z</time>
      </trkpt>
      <trkpt lat="45.9667" lon="1.32265">
        <ele>502</ele>
        <time>2012-09-07T08:01:59Z</time>
      </trkpt>
      <trkpt lat="45.96672" lon="1.32269">
        <ele>509.6</ele>
        <time>2012-09-07T08:02:21Z</time>
      </trkpt>
      <trkpt lat="45.96673" lon="1.32277">
        <ele>510.8</ele>
        <time>2012-09-07T08:02:25Z</time>
      </trkpt>
      <trkpt lat="45.96673" lon="1.3228">
        <ele>511.6</ele>
        <time>2012-09-07T08:02:27Z</time>
      </trkpt>
      <trkpt lat="45.96675" lon="1.32292">
        <ele>513.2</ele>
        <time>2012-09-07T08:02:34Z</time>
      </trkpt>
      <trkpt lat="45.96675" lon="1.32295">
        <ele>514</ele>
        <time>2012-09-07T08:02:39Z</time>
      </trkpt>
      <trkpt lat="45.96672" lon="1.323">
        <ele>514.8</ele>
        <time>2012-09-07T08:02:43Z</time>
      </trkpt>
      <trkpt lat="45.96671" lon="1.32306">
        <ele>515.4</ele>
        <time>2012-09-07T08:02:47Z</time>
      </trkpt>
      <trkpt lat="45.96672" lon="1.3231">
        <ele>516</ele>
        <time>2012-09-07T08:02:50Z</time>
      </trkpt>
      <trkpt lat="45.96672" lon="1.32314">
        <ele>516.8</ele>
        <time>2012-09-07T08:02:53Z</time>
      </trkpt>
      <trkpt lat="45.96669" lon="1.32324">
        <ele>518.4</ele>
        <time>2012-09-07T08:03:00Z</time>
      </trkpt>
      <trkpt lat="45.96671" lon="1.32328">
        <ele>519.2</ele>
        <time>2012-09-07T08:03:05Z</time>
      </trkpt>
      <trkpt lat="45.96671" lon="1.32328">
        <ele>519.4</ele>
        <time>2012-09-07T08:03:06Z</time>
      </trkpt>
      <trkpt lat="45.96672" lon="1.32336">
        <ele>520.6</ele>
        <time>2012-09-07T08:03:12Z</time>
      </trkpt>
      <trkpt lat="45.96672" lon="1.32343">
        <ele>522</ele>
        <time>2012-09-07T08:03:18Z</time>
      </trkpt>
      <trkpt lat="45.96672" lon="1.32344">
        <ele>522</ele>
        <time>2012-09-07T08:03:19Z</time>
      </trkpt>
      <trkpt lat="45.96672" lon="1.32353">
        <ele>523.6</ele>
        <time>2012-09-07T08:03:27Z</time>
      </trkpt>
      <trkpt lat="45.96671" lon="1.32366">
        <ele>524.4</ele>
        <time>2012-09-07T08:03:35Z</time>
      </trkpt>
      <trkpt lat="45.96667" lon="1.32377">
        <ele>525.8</ele>
        <time>2012-09-07T08:03:44Z</time>
      </trkpt>
      <trkpt lat="45.96665" lon="1.32389">
        <ele>527</ele>
        <time>2012-09-07T08:03:52Z</time>
      </trkpt>
      <trkpt lat="45.96663" lon="1.32401">
        <ele>527.6</ele>
        <time>2012-09-07T08:04:00Z</time>
      </trkpt>
      <trkpt lat="45.96659" lon="1.32412">
        <ele>528</ele>
        <time>2012-09-07T08:04:09Z</time>
      </trkpt>
      <trkpt lat="45.96655" lon="1.32422">
        <ele>528.6</ele>
        <time>2012-09-07T08:04:17Z</time>
      </trkpt>
      <trkpt lat="45.9665" lon="1.32432">
        <ele>529.4</ele>
        <time>2012-09-07T08:04:25Z</time>
      </trkpt>
      <trkpt lat="45.96649" lon="1.32446">
        <ele>530.2</ele>
        <time>2012-09-07T08:04:33Z</time>
      </trkpt>
      <trkpt lat="45.96645" lon="1.32457">
        <ele>531.4</ele>
        <time>2012-09-07T08:04:40Z</time>
      </trkpt>
      <trkpt lat="45.96646" lon="1.32469">
        <ele>532.6</ele>
        <time>2012-09-07T08:04:47Z</time>
      </trkpt>
      <trkpt lat="45.96643" lon="1.32479">
        <ele>533.8</ele>
        <time>2012-09-07T08:04:53Z</time>
      </trkpt>
      <trkpt lat="45.96643" lon="1.32485">
        <ele>534.6</ele>
        <time>2012-09-07T08:04:59Z</time>
      </trkpt>
      <trkpt lat="45.96643" lon="1.32495">
        <ele>535.2</ele>
        <time>2012-09-07T08:05:06Z</time>
      </trkpt>
      <trkpt lat="45.9664" lon="1.32506">
        <ele>535.6</ele>
        <time>2012-09-07T08:05:12Z</time>
      </trkpt>
      <trkpt lat="45.96638" lon="1.3252">
        <ele>536.2</ele>
        <time>2012-09-07T08:05:19Z</time>
      </trkpt>
      <trkpt lat="45.96636" lon="1.32536">
        <ele>537.2</ele>
        <time>2012-09-07T08:05:27Z</time>
      </trkpt>
      <trkpt lat="45.96636" lon="1.32551">
        <ele>538.4</ele>
        <time>2012-09-07T08:05:34Z</time>
      </trkpt>
      <trkpt lat="45.96634" lon="1.32563">
        <ele>539.6</ele>
        <time>2012-09-07T08:05:40Z</time>
      </trkpt>
      <trkpt lat="45.9663" lon="1.32578">
        <ele>541.6</ele>
        <time>2012-09-07T08:05:48Z</time>
      </trkpt>
      <trkpt lat="45.96624" lon="1.32594">
        <ele>544.8</ele>
        <time>2012-09-07T08:05:56Z</time>
      </trkpt>
      <trkpt lat="45.96622" lon="1.326">
        <ele>546</ele>
        <time>2012-09-07T08:05:59Z</time>
      </trkpt>
      <trkpt lat="45.9662" lon="1.32608">
        <ele>548.2</ele>
        <time>2012-09-07T08:06:03Z</time>
      </trkpt>
      <trkpt lat="45.96624" lon="1.32622">
        <ele>551.6</ele>
        <time>2012-09-07T08:06:10Z</time>
      </trkpt>
      <trkpt lat="45.96625" lon="1.32639">
        <ele>554</ele>
        <time>2012-09-07T08:06:16Z</time>
      </trkpt>
      <trkpt lat="45.96624" lon="1.32661">
        <ele>556.8</ele>
        <time>2012-09-07T08:06:23Z</time>
      </trkpt>
      <trkpt lat="45.96617" lon="1.3268">
        <ele>559</ele>
        <time>2012-09-07T08:06:28Z</time>
      </trkpt>
      <trkpt lat="45.96612" lon="1.32701">
        <ele>560.6</ele>
        <time>2012-09-07T08:06:33Z</time>
      </trkpt>
      <trkpt lat="45.96606" lon="1.32728">
        <ele>562.6</ele>
        <time>2012-09-07T08:06:39Z</time>
      </trkpt>
      <trkpt lat="45.96608" lon="1.32751">
        <ele>563</ele>
        <time>2012-09-07T08:06:44Z</time>
      </trkpt>
      <trkpt lat="45.96611" lon="1.32767">
        <ele>562.8</ele>
        <time>2012-09-07T08:06:48Z</time>
      </trkpt>
      <trkpt lat="45.96617" lon="1.3279">
        <ele>562.8</ele>
        <time>2012-09-07T08:06:53Z</time>
      </trkpt>
      <trkpt lat="45.9662" lon="1.32816">
        <ele>562.2</ele>
        <time>2012-09-07T08:06:59Z</time>
      </trkpt>
      <trkpt lat="45.9662" lon="1.32822">
        <ele>562</ele>
        <time>2012-09-07T08:07:04Z</time>
      </trkpt>
      <trkpt lat="45.96626" lon="1.32818">
        <ele>561.4</ele>
        <time>2012-09-07T08:07:13Z</time>
      </trkpt>
      <trkpt lat="45.9663" lon="1.32842">
        <ele>557.2</ele>
        <time>2012-09-07T08:08:32Z</time>
      </trkpt>
      <trkpt lat="45.96631" lon="1.32843">
        <ele>557.2</ele>
        <time>2012-09-07T08:08:33Z</time>
      </trkpt>
      <trkpt lat="45.96633" lon="1.32858">
        <ele>556.8</ele>
        <time>2012-09-07T08:08:37Z</time>
      </trkpt>
      <trkpt lat="45.96633" lon="1.32874">
        <ele>556.6</ele>
        <time>2012-09-07T08:08:39Z</time>
      </trkpt>
      <trkpt lat="45.96633" lon="1.32885">
        <ele>556.6</ele>
        <time>2012-09-07T08:08:40Z</time>
      </trkpt>
      <trkpt lat="45.96636" lon="1.32923">
        <ele>556.2</ele>
        <time>2012-09-07T08:08:43Z</time>
      </trkpt>
      <trkpt lat="45.96637" lon="1.32935">
        <ele>556</ele>
        <time>2012-09-07T08:08:44Z</time>
      </trkpt>
      <trkpt lat="45.96639" lon="1.32961">
        <ele>555.8</ele>
        <time>2012-09-07T08:08:46Z</time>
      </trkpt>
      <trkpt lat="45.9664" lon="1.32998">
        <ele>555.4</ele>
        <time>2012-09-07T08:08:49Z</time>
      </trkpt>
      <trkpt lat="45.96644" lon="1.33008">
        <ele>555.2</ele>
        <time>2012-09-07T08:08:50Z</time>
      </trkpt>
      <trkpt lat="45.9665" lon="1.33027">
        <ele>554.8</ele>
        <time>2012-09-07T08:08:52Z</time>
      </trkpt>
      <trkpt lat="45.9666" lon="1.33057">
        <ele>554.2</ele>
        <time>2012-09-07T08:08:56Z</time>
      </trkpt>
      <trkpt lat="45.96663" lon="1.33064">
        <ele>554</ele>
        <time>2012-09-07T08:08:57Z</time>
      </trkpt>
      <trkpt lat="45.96669" lon="1.33081">
        <ele>553.4</ele>
        <time>2012-09-07T08:09:00Z</time>
      </trkpt>
      <trkpt lat="45.96675" lon="1.33105">
        <ele>552.6</ele>
        <time>2012-09-07T08:09:04Z</time>
      </trkpt>
      <trkpt lat="45.9668" lon="1.33134">
        <ele>551.8</ele>
        <time>2012-09-07T08:09:09Z</time>
      </trkpt>
      <trkpt lat="45.96681" lon="1.3314">
        <ele>551.6</ele>
        <time>2012-09-07T08:09:10Z</time>
      </trkpt>
      <trkpt lat="45.96683" lon="1.33145">
        <ele>551.4</ele>
        <time>2012-09-07T08:09:11Z</time>
      </trkpt>
      <trkpt lat="45.96687" lon="1.33173">
        <ele>550.8</ele>
        <time>2012-09-07T08:09:16Z</time>
      </trkpt>
      <trkpt lat="45.96688" lon="1.3318">
        <ele>550.8</ele>
        <time>2012-09-07T08:09:17Z</time>
      </trkpt>
      <trkpt lat="45.96696" lon="1.33205">
        <ele>550</ele>
        <time>2012-09-07T08:09:22Z</time>
      </trkpt>
      <trkpt lat="45.96697" lon="1.3321">
        <ele>549.8</ele>
        <time>2012-09-07T08:09:23Z</time>
      </trkpt>
      <trkpt lat="45.9671" lon="1.33234">
        <ele>549.4</ele>
        <time>2012-09-07T08:09:28Z</time>
      </trkpt>
      <trkpt lat="45.96713" lon="1.33239">
        <ele>549.4</ele>
        <time>2012-09-07T08:09:29Z</time>
      </trkpt>
      <trkpt lat="45.96729" lon="1.33262">
        <ele>549</ele>
        <time>2012-09-07T08:09:34Z</time>
      </trkpt>
      <trkpt lat="45.96736" lon="1.33275">
        <ele>548.8</ele>
        <time>2012-09-07T08:09:37Z</time>
      </trkpt>
      <trkpt lat="45.9675" lon="1.33297">
        <ele>548.6</ele>
        <time>2012-09-07T08:09:43Z</time>
      </trkpt>
      <trkpt lat="45.96752" lon="1.33301">
        <ele>548.6</ele>
        <time>2012-09-07T08:09:44Z</time>
      </trkpt>
      <trkpt lat="45.96765" lon="1.33321">
        <ele>548.4</ele>
        <time>2012-09-07T08:09:50Z</time>
      </trkpt>
      <trkpt lat="45.96768" lon="1.33324">
        <ele>548.4</ele>
        <time>2012-09-07T08:09:51Z</time>
      </trkpt>
      <trkpt lat="45.96782" lon="1.33342">
        <ele>548.4</ele>
        <time>2012-09-07T08:09:57Z</time>
      </trkpt>
      <trkpt lat="45.96786" lon="1.33349">
        <ele>548.4</ele>
        <time>2012-09-07T08:09:59Z</time>
      </trkpt>
      <trkpt lat="45.96801" lon="1.33368">
        <ele>548.4</ele>
        <time>2012-09-07T08:10:05Z</time>
      </trkpt>
      <trkpt lat="45.96814" lon="1.33387">
        <ele>548.6</ele>
        <time>2012-09-07T08:10:11Z</time>
      </trkpt>
      <trkpt lat="45.96821" lon="1.33396">
        <ele>548.6</ele>
        <time>2012-09-07T08:10:14Z</time>
      </trkpt>
      <trkpt lat="45.96833" lon="1.33415">
        <ele>549.2</ele>
        <time>2012-09-07T08:10:20Z</time>
      </trkpt>
      <trkpt lat="45.96837" lon="1.33422">
        <ele>549.4</ele>
        <time>2012-09-07T08:10:22Z</time>
      </trkpt>
      <trkpt lat="45.96846" lon="1.33447">
        <ele>549.8</ele>
        <time>2012-09-07T08:10:29Z</time>
      </trkpt>
      <trkpt lat="45.96855" lon="1.33472">
        <ele>550.4</ele>
        <time>2012-09-07T08:10:36Z</time>
      </trkpt>
      <trkpt lat="45.96855" lon="1.33476">
        <ele>550.4</ele>
        <time>2012-09-07T08:10:37Z</time>
      </trkpt>
      <trkpt lat="45.96862" lon="1.33502">
        <ele>550.8</ele>
        <time>2012-09-07T08:10:44Z</time>
      </trkpt>
      <trkpt lat="45.96862" lon="1.33506">
        <ele>550.8</ele>
        <time>2012-09-07T08:10:45Z</time>
      </trkpt>
      <trkpt lat="45.96869" lon="1.33533">
        <ele>551.2</ele>
        <time>2012-09-07T08:10:52Z</time>
      </trkpt>
      <trkpt lat="45.96869" lon="1.33537">
        <ele>551.2</ele>
        <time>2012-09-07T08:10:53Z</time>
      </trkpt>
      <trkpt lat="45.96874" lon="1.33566">
        <ele>551.2</ele>
        <time>2012-09-07T08:10:58Z</time>
      </trkpt>
      <trkpt lat="45.96875" lon="1.33572">
        <ele>551.2</ele>
        <time>2012-09-07T08:10:59Z</time>
      </trkpt>
      <trkpt lat="45.9688" lon="1.336">
        <ele>551.2</ele>
        <time>2012-09-07T08:11:03Z</time>
      </trkpt>
      <trkpt lat="45.96882" lon="1.33615">
        <ele>551</ele>
        <time>2012-09-07T08:11:05Z</time>
      </trkpt>
      <trkpt lat="45.96886" lon="1.33645">
        <ele>551</ele>
        <time>2012-09-07T08:11:09Z</time>
      </trkpt>
      <trkpt lat="45.96888" lon="1.33652">
        <ele>551</ele>
        <time>2012-09-07T08:11:10Z</time>
      </trkpt>
      <trkpt lat="45.96891" lon="1.33668">
        <ele>550.8</ele>
        <time>2012-09-07T08:11:12Z</time>
      </trkpt>
      <trkpt lat="45.96897" lon="1.33699">
        <ele>550.6</ele>
        <time>2012-09-07T08:11:16Z</time>
      </trkpt>
      <trkpt lat="45.96901" lon="1.33716">
        <ele>550.6</ele>
        <time>2012-09-07T08:11:18Z</time>
      </trkpt>
      <trkpt lat="45.96909" lon="1.33732">
        <ele>550.4</ele>
        <time>2012-09-07T08:11:20Z</time>
      </trkpt>
      <trkpt lat="45.96919" lon="1.33747">
        <ele>550.2</ele>
        <time>2012-09-07T08:11:22Z</time>
      </trkpt>
      <trkpt lat="45.96925" lon="1.33753">
        <ele>550.2</ele>
        <time>2012-09-07T08:11:23Z</time>
      </trkpt>
      <trkpt lat="45.96943" lon="1.33766">
        <ele>549.8</ele>
        <time>2012-09-07T08:11:26Z</time>
      </trkpt>
      <trkpt lat="45.96957" lon="1.33774">
        <ele>549.6</ele>
        <time>2012-09-07T08:11:28Z</time>
      </trkpt>
      <trkpt lat="45.96965" lon="1.33779">
        <ele>549.6</ele>
        <time>2012-09-07T08:11:29Z</time>
      </trkpt>
      <trkpt lat="45.96987" lon="1.33795">
        <ele>549.2</ele>
        <time>2012-09-07T08:11:32Z</time>
      </trkpt>
      <trkpt lat="45.97008" lon="1.33808">
        <ele>548.6</ele>
        <time>2012-09-07T08:11:35Z</time>
      </trkpt>
      <trkpt lat="45.97029" lon="1.33821">
        <ele>548.2</ele>
        <time>2012-09-07T08:11:38Z</time>
      </trkpt>
      <trkpt lat="45.9705" lon="1.33835">
        <ele>547.6</ele>
        <time>2012-09-07T08:11:41Z</time>
      </trkpt>
      <trkpt lat="45.97057" lon="1.33838">
        <ele>547.4</ele>
        <time>2012-09-07T08:11:42Z</time>
      </trkpt>
      <trkpt lat="45.97063" lon="1.33842">
        <ele>547.2</ele>
        <time>2012-09-07T08:11:43Z</time>
      </trkpt>
      <trkpt lat="45.97076" lon="1.3385">
        <ele>546.8</ele>
        <time>2012-09-07T08:11:45Z</time>
      </trkpt>
      <trkpt lat="45.97098" lon="1.33865">
        <ele>546.2</ele>
        <time>2012-09-07T08:11:48Z</time>
      </trkpt>
      <trkpt lat="45.97117" lon="1.3388">
        <ele>545.6</ele>
        <time>2012-09-07T08:11:51Z</time>
      </trkpt>
      <trkpt lat="45.97123" lon="1.33886">
        <ele>545.4</ele>
        <time>2012-09-07T08:11:52Z</time>
      </trkpt>
      <trkpt lat="45.9713" lon="1.33894">
        <ele>545.2</ele>
        <time>2012-09-07T08:11:53Z</time>
      </trkpt>
      <trkpt lat="45.9714" lon="1.33911">
        <ele>544.6</ele>
        <time>2012-09-07T08:11:55Z</time>
      </trkpt>
      <trkpt lat="45.97152" lon="1.33927">
        <ele>544.2</ele>
        <time>2012-09-07T08:11:57Z</time>
      </trkpt>
      <trkpt lat="45.97156" lon="1.33936">
        <ele>543.8</ele>
        <time>2012-09-07T08:11:58Z</time>
      </trkpt>
      <trkpt lat="45.97159" lon="1.33957">
        <ele>543.4</ele>
        <time>2012-09-07T08:12:00Z</time>
      </trkpt>
      <trkpt lat="45.97159" lon="1.33992">
        <ele>542.6</ele>
        <time>2012-09-07T08:12:03Z</time>
      </trkpt>
      <trkpt lat="45.9716" lon="1.34003">
        <ele>542.2</ele>
        <time>2012-09-07T08:12:04Z</time>
      </trkpt>
      <trkpt lat="45.97173" lon="1.34033">
        <ele>541.6</ele>
        <time>2012-09-07T08:12:07Z</time>
      </trkpt>
      <trkpt lat="45.97177" lon="1.34042">
        <ele>541.2</ele>
        <time>2012-09-07T08:12:08Z</time>
      </trkpt>
      <trkpt lat="45.97189" lon="1.34068">
        <ele>540.6</ele>
        <time>2012-09-07T08:12:11Z</time>
      </trkpt>
      <trkpt lat="45.97202" lon="1.34093">
        <ele>539.8</ele>
        <time>2012-09-07T08:12:14Z</time>
      </trkpt>
      <trkpt lat="45.97206" lon="1.34103">
        <ele>539.4</ele>
        <time>2012-09-07T08:12:15Z</time>
      </trkpt>
      <trkpt lat="45.97215" lon="1.34134">
        <ele>538.6</ele>
        <time>2012-09-07T08:12:18Z</time>
      </trkpt>
      <trkpt lat="45.97214" lon="1.34168">
        <ele>537.8</ele>
        <time>2012-09-07T08:12:21Z</time>
      </trkpt>
      <trkpt lat="45.97214" lon="1.3418">
        <ele>537.4</ele>
        <time>2012-09-07T08:12:22Z</time>
      </trkpt>
      <trkpt lat="45.97212" lon="1.34213">
        <ele>536.6</ele>
        <time>2012-09-07T08:12:25Z</time>
      </trkpt>
      <trkpt lat="45.97213" lon="1.34234">
        <ele>536</ele>
        <time>2012-09-07T08:12:27Z</time>
      </trkpt>
      <trkpt lat="45.97215" lon="1.34245">
        <ele>535.6</ele>
        <time>2012-09-07T08:12:28Z</time>
      </trkpt>
      <trkpt lat="45.97224" lon="1.34273">
        <ele>534.8</ele>
        <time>2012-09-07T08:12:31Z</time>
      </trkpt>
      <trkpt lat="45.97228" lon="1.3429">
        <ele>534.2</ele>
        <time>2012-09-07T08:12:33Z</time>
      </trkpt>
      <trkpt lat="45.97231" lon="1.34306">
        <ele>533.6</ele>
        <time>2012-09-07T08:12:35Z</time>
      </trkpt>
      <trkpt lat="45.97233" lon="1.34329">
        <ele>532.8</ele>
        <time>2012-09-07T08:12:38Z</time>
      </trkpt>
      <trkpt lat="45.97233" lon="1.34356">
        <ele>531.8</ele>
        <time>2012-09-07T08:12:42Z</time>
      </trkpt>
      <trkpt lat="45.97235" lon="1.34369">
        <ele>531.4</ele>
        <time>2012-09-07T08:12:44Z</time>
      </trkpt>
      <trkpt lat="45.97236" lon="1.3438">
        <ele>531</ele>
        <time>2012-09-07T08:12:46Z</time>
      </trkpt>
      <trkpt lat="45.97239" lon="1.34397">
        <ele>530.2</ele>
        <time>2012-09-07T08:12:49Z</time>
      </trkpt>
      <trkpt lat="45.97247" lon="1.34419">
        <ele>529.4</ele>
        <time>2012-09-07T08:12:53Z</time>
      </trkpt>
      <trkpt lat="45.9725" lon="1.34423">
        <ele>529.2</ele>
        <time>2012-09-07T08:12:54Z</time>
      </trkpt>
      <trkpt lat="45.97266" lon="1.34445">
        <ele>528.2</ele>
        <time>2012-09-07T08:12:59Z</time>
      </trkpt>
      <trkpt lat="45.9727" lon="1.3445">
        <ele>527.8</ele>
        <time>2012-09-07T08:13:01Z</time>
      </trkpt>
      <trkpt lat="45.97274" lon="1.34454">
        <ele>527</ele>
        <time>2012-09-07T08:13:05Z</time>
      </trkpt>
      <trkpt lat="45.97276" lon="1.34455">
        <ele>526.6</ele>
        <time>2012-09-07T08:13:07Z</time>
      </trkpt>
      <trkpt lat="45.97279" lon="1.3446">
        <ele>526</ele>
        <time>2012-09-07T08:13:10Z</time>
      </trkpt>
      <trkpt lat="45.97291" lon="1.34473">
        <ele>525.2</ele>
        <time>2012-09-07T08:13:14Z</time>
      </trkpt>
      <trkpt lat="45.97306" lon="1.34491">
        <ele>524.4</ele>
        <time>2012-09-07T08:13:18Z</time>
      </trkpt>
      <trkpt lat="45.97314" lon="1.34496">
        <ele>524.2</ele>
        <time>2012-09-07T08:13:20Z</time>
      </trkpt>
      <trkpt lat="45.97326" lon="1.34488">
        <ele>523.8</ele>
        <time>2012-09-07T08:13:23Z</time>
      </trkpt>
      <trkpt lat="45.9733" lon="1.34483">
        <ele>523.6</ele>
        <time>2012-09-07T08:13:24Z</time>
      </trkpt>
      <trkpt lat="45.97343" lon="1.34462">
        <ele>523</ele>
        <time>2012-09-07T08:13:28Z</time>
      </trkpt>
      <trkpt lat="45.97348" lon="1.34458">
        <ele>522.8</ele>
        <time>2012-09-07T08:13:29Z</time>
      </trkpt>
      <trkpt lat="45.97362" lon="1.34449">
        <ele>522.4</ele>
        <time>2012-09-07T08:13:32Z</time>
      </trkpt>
      <trkpt lat="45.97371" lon="1.34445">
        <ele>522</ele>
        <time>2012-09-07T08:13:34Z</time>
      </trkpt>
      <trkpt lat="45.97376" lon="1.34442">
        <ele>521.8</ele>
        <time>2012-09-07T08:13:35Z</time>
      </trkpt>
      <trkpt lat="45.97389" lon="1.34432">
        <ele>521.6</ele>
        <time>2012-09-07T08:13:38Z</time>
      </trkpt>
      <trkpt lat="45.97393" lon="1.34428">
        <ele>521.4</ele>
        <time>2012-09-07T08:13:39Z</time>
      </trkpt>
      <trkpt lat="45.97405" lon="1.34419">
        <ele>521</ele>
        <time>2012-09-07T08:13:42Z</time>
      </trkpt>
      <trkpt lat="45.97414" lon="1.34414">
        <ele>520.8</ele>
        <time>2012-09-07T08:13:44Z</time>
      </trkpt>
      <trkpt lat="45.97434" lon="1.34405">
        <ele>520.4</ele>
        <time>2012-09-07T08:13:49Z</time>
      </trkpt>
      <trkpt lat="45.97438" lon="1.34404">
        <ele>520.2</ele>
        <time>2012-09-07T08:13:50Z</time>
      </trkpt>
      <trkpt lat="45.97454" lon="1.34392">
        <ele>520</ele>
        <time>2012-09-07T08:13:54Z</time>
      </trkpt>
      <trkpt lat="45.97458" lon="1.34389">
        <ele>520</ele>
        <time>2012-09-07T08:13:55Z</time>
      </trkpt>
      <trkpt lat="45.97462" lon="1.34385">
        <ele>520</ele>
        <time>2012-09-07T08:13:56Z</time>
      </trkpt>
      <trkpt lat="45.97476" lon="1.34374">
        <ele>519.6</ele>
        <time>2012-09-07T08:13:59Z</time>
      </trkpt>
      <trkpt lat="45.97479" lon="1.34369">
        <ele>519.6</ele>
        <time>2012-09-07T08:14:00Z</time>
      </trkpt>
      <trkpt lat="45.9749" lon="1.34343">
        <ele>519.4</ele>
        <time>2012-09-07T08:14:03Z</time>
      </trkpt>
      <trkpt lat="45.97501" lon="1.34313">
        <ele>519</ele>
        <time>2012-09-07T08:14:07Z</time>
      </trkpt>
      <trkpt lat="45.97504" lon="1.34304">
        <ele>518.8</ele>
        <time>2012-09-07T08:14:08Z</time>
      </trkpt>
      <trkpt lat="45.97506" lon="1.34296">
        <ele>518.6</ele>
        <time>2012-09-07T08:14:09Z</time>
      </trkpt>
      <trkpt lat="45.9751" lon="1.34275">
        <ele>518.2</ele>
        <time>2012-09-07T08:14:12Z</time>
      </trkpt>
      <trkpt lat="45.97518" lon="1.34244">
        <ele>517.8</ele>
        <time>2012-09-07T08:14:16Z</time>
      </trkpt>
      <trkpt lat="45.97525" lon="1.3422">
        <ele>517.4</ele>
        <time>2012-09-07T08:14:19Z</time>
      </trkpt>
      <trkpt lat="45.97532" lon="1.34192">
        <ele>517</ele>
        <time>2012-09-07T08:14:23Z</time>
      </trkpt>
      <trkpt lat="45.97532" lon="1.34186">
        <ele>516.8</ele>
        <time>2012-09-07T08:14:24Z</time>
      </trkpt>
      <trkpt lat="45.97534" lon="1.34164">
        <ele>516.4</ele>
        <time>2012-09-07T08:14:28Z</time>
      </trkpt>
      <trkpt lat="45.97534" lon="1.34159">
        <ele>516.2</ele>
        <time>2012-09-07T08:14:29Z</time>
      </trkpt>
      <trkpt lat="45.97538" lon="1.34143">
        <ele>515.8</ele>
        <time>2012-09-07T08:14:32Z</time>
      </trkpt>
      <trkpt lat="45.97545" lon="1.34128">
        <ele>515.6</ele>
        <time>2012-09-07T08:14:35Z</time>
      </trkpt>
      <trkpt lat="45.97555" lon="1.34107">
        <ele>515.2</ele>
        <time>2012-09-07T08:14:39Z</time>
      </trkpt>
      <trkpt lat="45.97562" lon="1.34096">
        <ele>515</ele>
        <time>2012-09-07T08:14:41Z</time>
      </trkpt>
      <trkpt lat="45.97569" lon="1.34077">
        <ele>514.6</ele>
        <time>2012-09-07T08:14:44Z</time>
      </trkpt>
      <trkpt lat="45.97577" lon="1.34064">
        <ele>514.4</ele>
        <time>2012-09-07T08:14:46Z</time>
      </trkpt>
      <trkpt lat="45.97592" lon="1.34051">
        <ele>514</ele>
        <time>2012-09-07T08:14:49Z</time>
      </trkpt>
      <trkpt lat="45.97604" lon="1.34045">
        <ele>514</ele>
        <time>2012-09-07T08:14:51Z</time>
      </trkpt>
      <trkpt lat="45.9761" lon="1.34041">
        <ele>513.8</ele>
        <time>2012-09-07T08:14:52Z</time>
      </trkpt>
      <trkpt lat="45.97618" lon="1.34031">
        <ele>513.6</ele>
        <time>2012-09-07T08:14:54Z</time>
      </trkpt>
      <trkpt lat="45.97631" lon="1.34012">
        <ele>513.4</ele>
        <time>2012-09-07T08:14:58Z</time>
      </trkpt>
      <trkpt lat="45.97638" lon="1.34003">
        <ele>513.2</ele>
        <time>2012-09-07T08:15:00Z</time>
      </trkpt>
      <trkpt lat="45.97652" lon="1.33981">
        <ele>512.8</ele>
        <time>2012-09-07T08:15:05Z</time>
      </trkpt>
      <trkpt lat="45.97653" lon="1.33976">
        <ele>512.8</ele>
        <time>2012-09-07T08:15:06Z</time>
      </trkpt>
      <trkpt lat="45.9766" lon="1.33948">
        <ele>512.4</ele>
        <time>2012-09-07T08:15:11Z</time>
      </trkpt>
      <trkpt lat="45.97661" lon="1.33943">
        <ele>512.4</ele>
        <time>2012-09-07T08:15:12Z</time>
      </trkpt>
      <trkpt lat="45.97663" lon="1.33925">
        <ele>512.2</ele>
        <time>2012-09-07T08:15:15Z</time>
      </trkpt>
      <trkpt lat="45.97665" lon="1.33913">
        <ele>512.2</ele>
        <time>2012-09-07T08:15:17Z</time>
      </trkpt>
      <trkpt lat="45.97665" lon="1.33895">
        <ele>512</ele>
        <time>2012-09-07T08:15:20Z</time>
      </trkpt>
      <trkpt lat="45.97663" lon="1.33881">
        <ele>512</ele>
        <time>2012-09-07T08:15:22Z</time>
      </trkpt>
      <trkpt lat="45.97665" lon="1.3386">
        <ele>511.8</ele>
        <time>2012-09-07T08:15:25Z</time>
      </trkpt>
      <trkpt lat="45.97675" lon="1.33835">
        <ele>511.6</ele>
        <time>2012-09-07T08:15:29Z</time>
      </trkpt>
      <trkpt lat="45.97691" lon="1.33822">
        <ele>511.4</ele>
        <time>2012-09-07T08:15:33Z</time>
      </trkpt>
      <trkpt lat="45.97697" lon="1.33817">
        <ele>511.4</ele>
        <time>2012-09-07T08:15:35Z</time>
      </trkpt>
      <trkpt lat="45.97707" lon="1.3381">
        <ele>511.4</ele>
        <time>2012-09-07T08:15:38Z</time>
      </trkpt>
      <trkpt lat="45.97709" lon="1.33807">
        <ele>511.4</ele>
        <time>2012-09-07T08:15:39Z</time>
      </trkpt>
      <trkpt lat="45.97716" lon="1.338">
        <ele>511.4</ele>
        <time>2012-09-07T08:15:42Z</time>
      </trkpt>
      <trkpt lat="45.97735" lon="1.33788">
        <ele>512.2</ele>
        <time>2012-09-07T08:15:48Z</time>
      </trkpt>
      <trkpt lat="45.97754" lon="1.33778">
        <ele>513</ele>
        <time>2012-09-07T08:15:53Z</time>
      </trkpt>
      <trkpt lat="45.97768" lon="1.3377">
        <ele>514.2</ele>
        <time>2012-09-07T08:15:57Z</time>
      </trkpt>
      <trkpt lat="45.97787" lon="1.3376">
        <ele>515.6</ele>
        <time>2012-09-07T08:16:02Z</time>
      </trkpt>
      <trkpt lat="45.97799" lon="1.33756">
        <ele>516.4</ele>
        <time>2012-09-07T08:16:05Z</time>
      </trkpt>
      <trkpt lat="45.9782" lon="1.33747">
        <ele>517.8</ele>
        <time>2012-09-07T08:16:10Z</time>
      </trkpt>
      <trkpt lat="45.97836" lon="1.33741">
        <ele>518.6</ele>
        <time>2012-09-07T08:16:14Z</time>
      </trkpt>
      <trkpt lat="45.9784" lon="1.33738">
        <ele>518.6</ele>
        <time>2012-09-07T08:16:15Z</time>
      </trkpt>
      <trkpt lat="45.97852" lon="1.33726">
        <ele>519</ele>
        <time>2012-09-07T08:16:18Z</time>
      </trkpt>
      <trkpt lat="45.97856" lon="1.33722">
        <ele>519</ele>
        <time>2012-09-07T08:16:19Z</time>
      </trkpt>
      <trkpt lat="45.9786" lon="1.33717">
        <ele>519</ele>
        <time>2012-09-07T08:16:20Z</time>
      </trkpt>
      <trkpt lat="45.97876" lon="1.33705">
        <ele>519.2</ele>
        <time>2012-09-07T08:16:23Z</time>
      </trkpt>
      <trkpt lat="45.97881" lon="1.337">
        <ele>519.2</ele>
        <time>2012-09-07T08:16:24Z</time>
      </trkpt>
      <trkpt lat="45.97895" lon="1.33687">
        <ele>519</ele>
        <time>2012-09-07T08:16:27Z</time>
      </trkpt>
      <trkpt lat="45.97909" lon="1.3369">
        <ele>519</ele>
        <time>2012-09-07T08:16:30Z</time>
      </trkpt>
      <trkpt lat="45.97927" lon="1.33705">
        <ele>518.8</ele>
        <time>2012-09-07T08:16:34Z</time>
      </trkpt>
      <trkpt lat="45.97934" lon="1.33714">
        <ele>518.6</ele>
        <time>2012-09-07T08:16:36Z</time>
      </trkpt>
      <trkpt lat="45.97937" lon="1.33718">
        <ele>518.4</ele>
        <time>2012-09-07T08:16:37Z</time>
      </trkpt>
      <trkpt lat="45.97942" lon="1.33723">
        <ele>518.4</ele>
        <time>2012-09-07T08:16:38Z</time>
      </trkpt>
      <trkpt lat="45.97955" lon="1.33729">
        <ele>518</ele>
        <time>2012-09-07T08:16:41Z</time>
      </trkpt>
      <trkpt lat="45.97971" lon="1.33732">
        <ele>517.2</ele>
        <time>2012-09-07T08:16:45Z</time>
      </trkpt>
      <trkpt lat="45.97986" lon="1.33739">
        <ele>516.4</ele>
        <time>2012-09-07T08:16:49Z</time>
      </trkpt>
      <trkpt lat="45.97992" lon="1.3375">
        <ele>516</ele>
        <time>2012-09-07T08:16:51Z</time>
      </trkpt>
      <trkpt lat="45.97996" lon="1.33754">
        <ele>515.8</ele>
        <time>2012-09-07T08:16:52Z</time>
      </trkpt>
      <trkpt lat="45.98" lon="1.33758">
        <ele>515.6</ele>
        <time>2012-09-07T08:16:53Z</time>
      </trkpt>
      <trkpt lat="45.9802" lon="1.33756">
        <ele>514.4</ele>
        <time>2012-09-07T08:16:57Z</time>
      </trkpt>
      <trkpt lat="45.98024" lon="1.33752">
        <ele>514</ele>
        <time>2012-09-07T08:16:58Z</time>
      </trkpt>
      <trkpt lat="45.98027" lon="1.33749">
        <ele>513.8</ele>
        <time>2012-09-07T08:16:59Z</time>
      </trkpt>
      <trkpt lat="45.9803" lon="1.33745">
        <ele>513.4</ele>
        <time>2012-09-07T08:17:00Z</time>
      </trkpt>
      <trkpt lat="45.98036" lon="1.33726">
        <ele>511.6</ele>
        <time>2012-09-07T08:17:05Z</time>
      </trkpt>
      <trkpt lat="45.98034" lon="1.33707">
        <ele>510</ele>
        <time>2012-09-07T08:17:09Z</time>
      </trkpt>
      <trkpt lat="45.98038" lon="1.33685">
        <ele>508.2</ele>
        <time>2012-09-07T08:17:13Z</time>
      </trkpt>
      <trkpt lat="45.98045" lon="1.33662">
        <ele>506.6</ele>
        <time>2012-09-07T08:17:16Z</time>
      </trkpt>
      <trkpt lat="45.98049" lon="1.33647">
        <ele>505.8</ele>
        <time>2012-09-07T08:17:18Z</time>
      </trkpt>
      <trkpt lat="45.98049" lon="1.33641">
        <ele>505.2</ele>
        <time>2012-09-07T08:17:19Z</time>
      </trkpt>
      <trkpt lat="45.98052" lon="1.33633">
        <ele>504.2</ele>
        <time>2012-09-07T08:17:21Z</time>
      </trkpt>
      <trkpt lat="45.98066" lon="1.33623">
        <ele>502.6</ele>
        <time>2012-09-07T08:17:25Z</time>
      </trkpt>
      <trkpt lat="45.9807" lon="1.33622">
        <ele>502</ele>
        <time>2012-09-07T08:17:26Z</time>
      </trkpt>
      <trkpt lat="45.98073" lon="1.33621">
        <ele>501.6</ele>
        <time>2012-09-07T08:17:27Z</time>
      </trkpt>
      <trkpt lat="45.98078" lon="1.33621">
        <ele>501</ele>
        <time>2012-09-07T08:17:29Z</time>
      </trkpt>
      <trkpt lat="45.98086" lon="1.33625">
        <ele>499.4</ele>
        <time>2012-09-07T08:17:33Z</time>
      </trkpt>
      <trkpt lat="45.98087" lon="1.33626">
        <ele>499</ele>
        <time>2012-09-07T08:17:34Z</time>
      </trkpt>
      <trkpt lat="45.98092" lon="1.33634">
        <ele>498.2</ele>
        <time>2012-09-07T08:17:36Z</time>
      </trkpt>
      <trkpt lat="45.98099" lon="1.33647">
        <ele>496.8</ele>
        <time>2012-09-07T08:17:40Z</time>
      </trkpt>
      <trkpt lat="45.981" lon="1.33652">
        <ele>496.4</ele>
        <time>2012-09-07T08:17:41Z</time>
      </trkpt>
      <trkpt lat="45.98107" lon="1.33677">
        <ele>494.8</ele>
        <time>2012-09-07T08:17:46Z</time>
      </trkpt>
      <trkpt lat="45.98116" lon="1.33697">
        <ele>494</ele>
        <time>2012-09-07T08:17:49Z</time>
      </trkpt>
      <trkpt lat="45.98119" lon="1.33703">
        <ele>493.6</ele>
        <time>2012-09-07T08:17:50Z</time>
      </trkpt>
      <trkpt lat="45.98124" lon="1.33716">
        <ele>493</ele>
        <time>2012-09-07T08:17:52Z</time>
      </trkpt>
      <trkpt lat="45.98133" lon="1.33736">
        <ele>492.2</ele>
        <time>2012-09-07T08:17:55Z</time>
      </trkpt>
      <trkpt lat="45.98142" lon="1.33757">
        <ele>491</ele>
        <time>2012-09-07T08:17:59Z</time>
      </trkpt>
      <trkpt lat="45.98143" lon="1.33761">
        <ele>490.6</ele>
        <time>2012-09-07T08:18:00Z</time>
      </trkpt>
      <trkpt lat="45.98147" lon="1.33769">
        <ele>490.2</ele>
        <time>2012-09-07T08:18:02Z</time>
      </trkpt>
      <trkpt lat="45.98149" lon="1.33773">
        <ele>489.6</ele>
        <time>2012-09-07T08:18:04Z</time>
      </trkpt>
      <trkpt lat="45.98149" lon="1.33775">
        <ele>489.4</ele>
        <time>2012-09-07T08:18:05Z</time>
      </trkpt>
      <trkpt lat="45.9815" lon="1.33789">
        <ele>488.6</ele>
        <time>2012-09-07T08:18:08Z</time>
      </trkpt>
      <trkpt lat="45.98155" lon="1.33816">
        <ele>487.6</ele>
        <time>2012-09-07T08:18:12Z</time>
      </trkpt>
      <trkpt lat="45.98157" lon="1.33821">
        <ele>487.4</ele>
        <time>2012-09-07T08:18:13Z</time>
      </trkpt>
      <trkpt lat="45.98161" lon="1.33838">
        <ele>486</ele>
        <time>2012-09-07T08:18:17Z</time>
      </trkpt>
      <trkpt lat="45.98164" lon="1.33857">
        <ele>484.6</ele>
        <time>2012-09-07T08:18:22Z</time>
      </trkpt>
      <trkpt lat="45.98169" lon="1.33877">
        <ele>483.4</ele>
        <time>2012-09-07T08:18:26Z</time>
      </trkpt>
      <trkpt lat="45.9817" lon="1.33899">
        <ele>482.4</ele>
        <time>2012-09-07T08:18:29Z</time>
      </trkpt>
      <trkpt lat="45.98172" lon="1.3393">
        <ele>481.2</ele>
        <time>2012-09-07T08:18:33Z</time>
      </trkpt>
      <trkpt lat="45.98174" lon="1.33943">
        <ele>480.6</ele>
        <time>2012-09-07T08:18:35Z</time>
      </trkpt>
      <trkpt lat="45.98176" lon="1.33969">
        <ele>479.4</ele>
        <time>2012-09-07T08:18:39Z</time>
      </trkpt>
      <trkpt lat="45.98179" lon="1.3398">
        <ele>478.8</ele>
        <time>2012-09-07T08:18:41Z</time>
      </trkpt>
      <trkpt lat="45.9818" lon="1.33986">
        <ele>478.4</ele>
        <time>2012-09-07T08:18:42Z</time>
      </trkpt>
      <trkpt lat="45.98182" lon="1.34012">
        <ele>477.2</ele>
        <time>2012-09-07T08:18:46Z</time>
      </trkpt>
      <trkpt lat="45.98184" lon="1.34042">
        <ele>476</ele>
        <time>2012-09-07T08:18:50Z</time>
      </trkpt>
      <trkpt lat="45.98184" lon="1.34048">
        <ele>475.6</ele>
        <time>2012-09-07T08:18:51Z</time>
      </trkpt>
      <trkpt lat="45.98185" lon="1.34054">
        <ele>475.4</ele>
        <time>2012-09-07T08:18:52Z</time>
      </trkpt>
      <trkpt lat="45.98191" lon="1.34065">
        <ele>474.6</ele>
        <time>2012-09-07T08:18:54Z</time>
      </trkpt>
      <trkpt lat="45.98193" lon="1.34071">
        <ele>474.4</ele>
        <time>2012-09-07T08:18:55Z</time>
      </trkpt>
      <trkpt lat="45.98203" lon="1.34097">
        <ele>473</ele>
        <time>2012-09-07T08:18:59Z</time>
      </trkpt>
      <trkpt lat="45.98207" lon="1.34112">
        <ele>472.4</ele>
        <time>2012-09-07T08:19:01Z</time>
      </trkpt>
      <trkpt lat="45.98214" lon="1.34119">
        <ele>471.8</ele>
        <time>2012-09-07T08:19:03Z</time>
      </trkpt>
      <trkpt lat="45.98218" lon="1.34122">
        <ele>471.2</ele>
        <time>2012-09-07T08:19:05Z</time>
      </trkpt>
      <trkpt lat="45.98221" lon="1.34122">
        <ele>471</ele>
        <time>2012-09-07T08:19:06Z</time>
      </trkpt>
      <trkpt lat="45.98222" lon="1.34124">
        <ele>470.6</ele>
        <time>2012-09-07T08:19:07Z</time>
      </trkpt>
      <trkpt lat="45.98226" lon="1.34132">
        <ele>469.6</ele>
        <time>2012-09-07T08:19:10Z</time>
      </trkpt>
      <trkpt lat="45.98229" lon="1.34134">
        <ele>469.4</ele>
        <time>2012-09-07T08:19:11Z</time>
      </trkpt>
      <trkpt lat="45.98245" lon="1.34145">
        <ele>467.6</ele>
        <time>2012-09-07T08:19:17Z</time>
      </trkpt>
      <trkpt lat="45.98263" lon="1.34149">
        <ele>465.6</ele>
        <time>2012-09-07T08:19:24Z</time>
      </trkpt>
      <trkpt lat="45.98271" lon="1.34152">
        <ele>464.6</ele>
        <time>2012-09-07T08:19:28Z</time>
      </trkpt>
      <trkpt lat="45.98272" lon="1.34153">
        <ele>464.4</ele>
        <time>2012-09-07T08:19:29Z</time>
      </trkpt>
      <trkpt lat="45.98271" lon="1.34156">
        <ele>463.6</ele>
        <time>2012-09-07T08:19:33Z</time>
      </trkpt>
      <trkpt lat="45.98268" lon="1.34157">
        <ele>458.8</ele>
        <time>2012-09-07T08:19:58Z</time>
      </trkpt>
      <trkpt lat="45.9826" lon="1.34167">
        <ele>457.6</ele>
        <time>2012-09-07T08:20:05Z</time>
      </trkpt>
      <trkpt lat="45.9825" lon="1.34179">
        <ele>456.8</ele>
        <time>2012-09-07T08:20:10Z</time>
      </trkpt>
      <trkpt lat="45.98237" lon="1.34198">
        <ele>455.8</ele>
        <time>2012-09-07T08:20:16Z</time>
      </trkpt>
      <trkpt lat="45.98236" lon="1.34204">
        <ele>455.4</ele>
        <time>2012-09-07T08:20:20Z</time>
      </trkpt>
      <trkpt lat="45.9824" lon="1.34209">
        <ele>450.2</ele>
        <time>2012-09-07T08:20:51Z</time>
      </trkpt>
      <trkpt lat="45.98248" lon="1.3422">
        <ele>449.6</ele>
        <time>2012-09-07T08:20:56Z</time>
      </trkpt>
      <trkpt lat="45.98249" lon="1.34221">
        <ele>449.4</ele>
        <time>2012-09-07T08:20:57Z</time>
      </trkpt>
      <trkpt lat="45.98252" lon="1.34223">
        <ele>449.2</ele>
        <time>2012-09-07T08:21:00Z</time>
      </trkpt>
      <trkpt lat="45.98254" lon="1.34224">
        <ele>449.2</ele>
        <time>2012-09-07T08:21:01Z</time>
      </trkpt>
      <trkpt lat="45.98269" lon="1.34229">
        <ele>449</ele>
        <time>2012-09-07T08:21:05Z</time>
      </trkpt>
      <trkpt lat="45.98274" lon="1.3423">
        <ele>448.8</ele>
        <time>2012-09-07T08:21:06Z</time>
      </trkpt>
      <trkpt lat="45.98289" lon="1.34234">
        <ele>448.4</ele>
        <time>2012-09-07T08:21:10Z</time>
      </trkpt>
      <trkpt lat="45.98294" lon="1.34235">
        <ele>448.2</ele>
        <time>2012-09-07T08:21:12Z</time>
      </trkpt>
      <trkpt lat="45.98301" lon="1.34235">
        <ele>448.2</ele>
        <time>2012-09-07T08:21:14Z</time>
      </trkpt>
      <trkpt lat="45.98314" lon="1.34237">
        <ele>447.8</ele>
        <time>2012-09-07T08:21:18Z</time>
      </trkpt>
      <trkpt lat="45.98328" lon="1.34243">
        <ele>447.6</ele>
        <time>2012-09-07T08:21:21Z</time>
      </trkpt>
      <trkpt lat="45.9834" lon="1.34249">
        <ele>447.4</ele>
        <time>2012-09-07T08:21:23Z</time>
      </trkpt>
      <trkpt lat="45.98343" lon="1.3425">
        <ele>447.4</ele>
        <time>2012-09-07T08:21:24Z</time>
      </trkpt>
      <trkpt lat="45.98357" lon="1.34251">
        <ele>447.2</ele>
        <time>2012-09-07T08:21:27Z</time>
      </trkpt>
      <trkpt lat="45.98378" lon="1.34245">
        <ele>446.8</ele>
        <time>2012-09-07T08:21:31Z</time>
      </trkpt>
      <trkpt lat="45.98391" lon="1.34236">
        <ele>446.6</ele>
        <time>2012-09-07T08:21:34Z</time>
      </trkpt>
      <trkpt lat="45.98394" lon="1.34234">
        <ele>446.6</ele>
        <time>2012-09-07T08:21:35Z</time>
      </trkpt>
      <trkpt lat="45.98399" lon="1.34232">
        <ele>446.6</ele>
        <time>2012-09-07T08:21:36Z</time>
      </trkpt>
      <trkpt lat="45.98414" lon="1.34224">
        <ele>446.2</ele>
        <time>2012-09-07T08:21:40Z</time>
      </trkpt>
      <trkpt lat="45.98419" lon="1.34221">
        <ele>446.2</ele>
        <time>2012-09-07T08:21:41Z</time>
      </trkpt>
      <trkpt lat="45.98424" lon="1.3422">
        <ele>446</ele>
        <time>2012-09-07T08:21:42Z</time>
      </trkpt>
      <trkpt lat="45.98433" lon="1.34218">
        <ele>445.8</ele>
        <time>2012-09-07T08:21:44Z</time>
      </trkpt>
      <trkpt lat="45.98441" lon="1.34216">
        <ele>445.8</ele>
        <time>2012-09-07T08:21:46Z</time>
      </trkpt>
      <trkpt lat="45.98444" lon="1.34216">
        <ele>445.6</ele>
        <time>2012-09-07T08:21:47Z</time>
      </trkpt>
      <trkpt lat="45.98451" lon="1.34215">
        <ele>445.4</ele>
        <time>2012-09-07T08:21:49Z</time>
      </trkpt>
      <trkpt lat="45.98463" lon="1.34215">
        <ele>445.2</ele>
        <time>2012-09-07T08:21:53Z</time>
      </trkpt>
      <trkpt lat="45.98479" lon="1.34217">
        <ele>444.8</ele>
        <time>2012-09-07T08:21:57Z</time>
      </trkpt>
      <trkpt lat="45.98499" lon="1.34218">
        <ele>444.2</ele>
        <time>2012-09-07T08:22:02Z</time>
      </trkpt>
      <trkpt lat="45.98512" lon="1.34221">
        <ele>444</ele>
        <time>2012-09-07T08:22:06Z</time>
      </trkpt>
      <trkpt lat="45.98531" lon="1.34226">
        <ele>443.2</ele>
        <time>2012-09-07T08:22:11Z</time>
      </trkpt>
      <trkpt lat="45.98548" lon="1.34236">
        <ele>442.8</ele>
        <time>2012-09-07T08:22:15Z</time>
      </trkpt>
      <trkpt lat="45.98555" lon="1.34243">
        <ele>442.4</ele>
        <time>2012-09-07T08:22:17Z</time>
      </trkpt>
      <trkpt lat="45.98566" lon="1.34257">
        <ele>442</ele>
        <time>2012-09-07T08:22:20Z</time>
      </trkpt>
      <trkpt lat="45.98585" lon="1.34276">
        <ele>441.2</ele>
        <time>2012-09-07T08:22:24Z</time>
      </trkpt>
      <trkpt lat="45.9859" lon="1.34283">
        <ele>441</ele>
        <time>2012-09-07T08:22:26Z</time>
      </trkpt>
      <trkpt lat="45.98598" lon="1.34291">
        <ele>440.6</ele>
        <time>2012-09-07T08:22:28Z</time>
      </trkpt>
      <trkpt lat="45.98605" lon="1.34299">
        <ele>440.2</ele>
        <time>2012-09-07T08:22:30Z</time>
      </trkpt>
      <trkpt lat="45.98611" lon="1.34308">
        <ele>439.8</ele>
        <time>2012-09-07T08:22:32Z</time>
      </trkpt>
      <trkpt lat="45.98611" lon="1.34313">
        <ele>439.6</ele>
        <time>2012-09-07T08:22:34Z</time>
      </trkpt>
      <trkpt lat="45.98612" lon="1.34317">
        <ele>439.2</ele>
        <time>2012-09-07T08:22:36Z</time>
      </trkpt>
      <trkpt lat="45.98615" lon="1.34321">
        <ele>438.8</ele>
        <time>2012-09-07T08:22:38Z</time>
      </trkpt>
      <trkpt lat="45.98623" lon="1.34331">
        <ele>438.2</ele>
        <time>2012-09-07T08:22:42Z</time>
      </trkpt>
      <trkpt lat="45.98632" lon="1.34335">
        <ele>437.8</ele>
        <time>2012-09-07T08:22:45Z</time>
      </trkpt>
      <trkpt lat="45.98645" lon="1.34328">
        <ele>437.4</ele>
        <time>2012-09-07T08:22:49Z</time>
      </trkpt>
      <trkpt lat="45.98657" lon="1.34323">
        <ele>437.2</ele>
        <time>2012-09-07T08:22:52Z</time>
      </trkpt>
      <trkpt lat="45.98666" lon="1.34321">
        <ele>437</ele>
        <time>2012-09-07T08:22:54Z</time>
      </trkpt>
      <trkpt lat="45.98681" lon="1.34314">
        <ele>436.8</ele>
        <time>2012-09-07T08:22:58Z</time>
      </trkpt>
      <trkpt lat="45.98683" lon="1.34313">
        <ele>436.8</ele>
        <time>2012-09-07T08:22:59Z</time>
      </trkpt>
      <trkpt lat="45.98696" lon="1.34305">
        <ele>436.6</ele>
        <time>2012-09-07T08:23:05Z</time>
      </trkpt>
      <trkpt lat="45.98709" lon="1.34296">
        <ele>436.4</ele>
        <time>2012-09-07T08:23:11Z</time>
      </trkpt>
      <trkpt lat="45.98713" lon="1.34294">
        <ele>436.2</ele>
        <time>2012-09-07T08:23:13Z</time>
      </trkpt>
      <trkpt lat="45.9872" lon="1.3429">
        <ele>436</ele>
        <time>2012-09-07T08:23:15Z</time>
      </trkpt>
      <trkpt lat="45.98729" lon="1.34283">
        <ele>435.8</ele>
        <time>2012-09-07T08:23:20Z</time>
      </trkpt>
      <trkpt lat="45.98739" lon="1.34278">
        <ele>435.6</ele>
        <time>2012-09-07T08:23:25Z</time>
      </trkpt>
      <trkpt lat="45.98744" lon="1.34276">
        <ele>435.6</ele>
        <time>2012-09-07T08:23:27Z</time>
      </trkpt>
      <trkpt lat="45.98752" lon="1.34272">
        <ele>435.4</ele>
        <time>2012-09-07T08:23:31Z</time>
      </trkpt>
      <trkpt lat="45.98762" lon="1.34265">
        <ele>435.4</ele>
        <time>2012-09-07T08:23:37Z</time>
      </trkpt>
      <trkpt lat="45.98764" lon="1.34265">
        <ele>435.6</ele>
        <time>2012-09-07T08:23:38Z</time>
      </trkpt>
      <trkpt lat="45.98772" lon="1.34261">
        <ele>435.8</ele>
        <time>2012-09-07T08:23:42Z</time>
      </trkpt>
      <trkpt lat="45.98783" lon="1.34254">
        <ele>436.4</ele>
        <time>2012-09-07T08:23:49Z</time>
      </trkpt>
      <trkpt lat="45.98794" lon="1.34248">
        <ele>437.2</ele>
        <time>2012-09-07T08:23:56Z</time>
      </trkpt>
      <trkpt lat="45.98803" lon="1.34246">
        <ele>438.2</ele>
        <time>2012-09-07T08:24:01Z</time>
      </trkpt>
      <trkpt lat="45.98811" lon="1.34241">
        <ele>438.8</ele>
        <time>2012-09-07T08:24:06Z</time>
      </trkpt>
      <trkpt lat="45.98814" lon="1.34239">
        <ele>439.2</ele>
        <time>2012-09-07T08:24:08Z</time>
      </trkpt>
      <trkpt lat="45.98825" lon="1.3423">
        <ele>440.4</ele>
        <time>2012-09-07T08:24:15Z</time>
      </trkpt>
      <trkpt lat="45.98833" lon="1.3422">
        <ele>441.8</ele>
        <time>2012-09-07T08:24:22Z</time>
      </trkpt>
      <trkpt lat="45.98843" lon="1.34212">
        <ele>443.4</ele>
        <time>2012-09-07T08:24:29Z</time>
      </trkpt>
      <trkpt lat="45.98848" lon="1.34212">
        <ele>444.4</ele>
        <time>2012-09-07T08:24:33Z</time>
      </trkpt>
      <trkpt lat="45.98849" lon="1.34214">
        <ele>445</ele>
        <time>2012-09-07T08:24:35Z</time>
      </trkpt>
      <trkpt lat="45.9885" lon="1.34214">
        <ele>446.6</ele>
        <time>2012-09-07T08:24:43Z</time>
      </trkpt>
      <trkpt lat="45.98849" lon="1.34216">
        <ele>447.2</ele>
        <time>2012-09-07T08:24:46Z</time>
      </trkpt>
      <trkpt lat="45.9885" lon="1.34224">
        <ele>447.2</ele>
        <time>2012-09-07T08:24:48Z</time>
      </trkpt>
      <trkpt lat="45.98855" lon="1.34238">
        <ele>447.4</ele>
        <time>2012-09-07T08:24:51Z</time>
      </trkpt>
      <trkpt lat="45.98859" lon="1.34246">
        <ele>447.4</ele>
        <time>2012-09-07T08:24:53Z</time>
      </trkpt>
      <trkpt lat="45.98862" lon="1.34255">
        <ele>447.4</ele>
        <time>2012-09-07T08:24:57Z</time>
      </trkpt>
      <trkpt lat="45.98861" lon="1.34256">
        <ele>447.6</ele>
        <time>2012-09-07T08:25:06Z</time>
      </trkpt>
      <trkpt lat="45.9886" lon="1.34263">
        <ele>448.2</ele>
        <time>2012-09-07T08:25:16Z</time>
      </trkpt>
      <trkpt lat="45.9886" lon="1.34277">
        <ele>448.6</ele>
        <time>2012-09-07T08:25:22Z</time>
      </trkpt>
      <trkpt lat="45.98862" lon="1.34279">
        <ele>448.8</ele>
        <time>2012-09-07T08:25:23Z</time>
      </trkpt>
      <trkpt lat="45.98867" lon="1.34291">
        <ele>448.8</ele>
        <time>2012-09-07T08:25:28Z</time>
      </trkpt>
      <trkpt lat="45.9888" lon="1.34304">
        <ele>449.2</ele>
        <time>2012-09-07T08:25:34Z</time>
      </trkpt>
      <trkpt lat="45.98897" lon="1.34315">
        <ele>449.2</ele>
        <time>2012-09-07T08:25:40Z</time>
      </trkpt>
      <trkpt lat="45.98915" lon="1.34325">
        <ele>449.2</ele>
        <time>2012-09-07T08:25:46Z</time>
      </trkpt>
      <trkpt lat="45.98926" lon="1.34337">
        <ele>449.2</ele>
        <time>2012-09-07T08:25:50Z</time>
      </trkpt>
      <trkpt lat="45.98939" lon="1.34342">
        <ele>449.2</ele>
        <time>2012-09-07T08:25:55Z</time>
      </trkpt>
      <trkpt lat="45.98949" lon="1.34342">
        <ele>449.4</ele>
        <time>2012-09-07T08:26:01Z</time>
      </trkpt>
      <trkpt lat="45.98955" lon="1.3434">
        <ele>450.4</ele>
        <time>2012-09-07T08:26:07Z</time>
      </trkpt>
      <trkpt lat="45.9896" lon="1.34343">
        <ele>451.2</ele>
        <time>2012-09-07T08:26:11Z</time>
      </trkpt>
      <trkpt lat="45.9896" lon="1.34344">
        <ele>451.4</ele>
        <time>2012-09-07T08:26:12Z</time>
      </trkpt>
      <trkpt lat="45.98962" lon="1.34356">
        <ele>452.2</ele>
        <time>2012-09-07T08:26:16Z</time>
      </trkpt>
      <trkpt lat="45.98961" lon="1.3436">
        <ele>452.6</ele>
        <time>2012-09-07T08:26:17Z</time>
      </trkpt>
      <trkpt lat="45.98955" lon="1.34378">
        <ele>454.4</ele>
        <time>2012-09-07T08:26:22Z</time>
      </trkpt>
      <trkpt lat="45.98944" lon="1.34399">
        <ele>457.4</ele>
        <time>2012-09-07T08:26:29Z</time>
      </trkpt>
      <trkpt lat="45.98937" lon="1.34415">
        <ele>459.2</ele>
        <time>2012-09-07T08:26:35Z</time>
      </trkpt>
      <trkpt lat="45.98933" lon="1.34432">
        <ele>461</ele>
        <time>2012-09-07T08:26:40Z</time>
      </trkpt>
      <trkpt lat="45.98942" lon="1.34449">
        <ele>462.4</ele>
        <time>2012-09-07T08:26:44Z</time>
      </trkpt>
      <trkpt lat="45.98953" lon="1.34462">
        <ele>463.2</ele>
        <time>2012-09-07T08:26:48Z</time>
      </trkpt>
      <trkpt lat="45.98959" lon="1.34484">
        <ele>464</ele>
        <time>2012-09-07T08:26:53Z</time>
      </trkpt>
      <trkpt lat="45.98956" lon="1.34504">
        <ele>464.8</ele>
        <time>2012-09-07T08:26:58Z</time>
      </trkpt>
      <trkpt lat="45.98955" lon="1.34513">
        <ele>465.4</ele>
        <time>2012-09-07T08:27:02Z</time>
      </trkpt>
      <trkpt lat="45.98954" lon="1.34514">
        <ele>465.4</ele>
        <time>2012-09-07T08:27:03Z</time>
      </trkpt>
      <trkpt lat="45.9895" lon="1.34516">
        <ele>465.2</ele>
        <time>2012-09-07T08:27:09Z</time>
      </trkpt>
      <trkpt lat="45.9895" lon="1.34517">
        <ele>465.2</ele>
        <time>2012-09-07T08:27:10Z</time>
      </trkpt>
      <trkpt lat="45.98948" lon="1.34519">
        <ele>465.2</ele>
        <time>2012-09-07T08:27:12Z</time>
      </trkpt>
      <trkpt lat="45.98947" lon="1.34523">
        <ele>465</ele>
        <time>2012-09-07T08:27:15Z</time>
      </trkpt>
      <trkpt lat="45.98946" lon="1.34526">
        <ele>465</ele>
        <time>2012-09-07T08:27:16Z</time>
      </trkpt>
      <trkpt lat="45.98943" lon="1.34534">
        <ele>464.8</ele>
        <time>2012-09-07T08:27:22Z</time>
      </trkpt>
      <trkpt lat="45.98941" lon="1.34534">
        <ele>464.8</ele>
        <time>2012-09-07T08:27:24Z</time>
      </trkpt>
      <trkpt lat="45.98939" lon="1.34538">
        <ele>464.8</ele>
        <time>2012-09-07T08:27:27Z</time>
      </trkpt>
      <trkpt lat="45.98938" lon="1.3454">
        <ele>465</ele>
        <time>2012-09-07T08:27:29Z</time>
      </trkpt>
      <trkpt lat="45.98936" lon="1.34548">
        <ele>465.4</ele>
        <time>2012-09-07T08:27:35Z</time>
      </trkpt>
      <trkpt lat="45.98934" lon="1.34551">
        <ele>465.8</ele>
        <time>2012-09-07T08:27:40Z</time>
      </trkpt>
      <trkpt lat="45.98926" lon="1.34558">
        <ele>466.8</ele>
        <time>2012-09-07T08:27:48Z</time>
      </trkpt>
      <trkpt lat="45.98918" lon="1.34567">
        <ele>468</ele>
        <time>2012-09-07T08:27:57Z</time>
      </trkpt>
      <trkpt lat="45.9891" lon="1.34574">
        <ele>469.2</ele>
        <time>2012-09-07T08:28:06Z</time>
      </trkpt>
      <trkpt lat="45.98909" lon="1.34575">
        <ele>470</ele>
        <time>2012-09-07T08:28:12Z</time>
      </trkpt>
      <trkpt lat="45.98906" lon="1.34579">
        <ele>470.6</ele>
        <time>2012-09-07T08:28:19Z</time>
      </trkpt>
      <trkpt lat="45.98897" lon="1.34585">
        <ele>471.6</ele>
        <time>2012-09-07T08:28:28Z</time>
      </trkpt>
      <trkpt lat="45.9889" lon="1.3459">
        <ele>472.6</ele>
        <time>2012-09-07T08:28:35Z</time>
      </trkpt>
      <trkpt lat="45.98882" lon="1.34597">
        <ele>473.8</ele>
        <time>2012-09-07T08:28:44Z</time>
      </trkpt>
      <trkpt lat="45.9887" lon="1.34605">
        <ele>475.4</ele>
        <time>2012-09-07T08:28:54Z</time>
      </trkpt>
      <trkpt lat="45.98866" lon="1.34615">
        <ele>476.8</ele>
        <time>2012-09-07T08:29:02Z</time>
      </trkpt>
      <trkpt lat="45.98862" lon="1.34621">
        <ele>477.8</ele>
        <time>2012-09-07T08:29:08Z</time>
      </trkpt>
      <trkpt lat="45.98856" lon="1.34628">
        <ele>479.2</ele>
        <time>2012-09-07T08:29:15Z</time>
      </trkpt>
      <trkpt lat="45.98848" lon="1.34637">
        <ele>481.4</ele>
        <time>2012-09-07T08:29:25Z</time>
      </trkpt>
      <trkpt lat="45.98842" lon="1.34648">
        <ele>483.4</ele>
        <time>2012-09-07T08:29:34Z</time>
      </trkpt>
      <trkpt lat="45.98841" lon="1.3465">
        <ele>484.6</ele>
        <time>2012-09-07T08:29:40Z</time>
      </trkpt>
      <trkpt lat="45.98837" lon="1.34655">
        <ele>487.8</ele>
        <time>2012-09-07T08:29:59Z</time>
      </trkpt>
      <trkpt lat="45.9883" lon="1.34665">
        <ele>489.2</ele>
        <time>2012-09-07T08:30:07Z</time>
      </trkpt>
      <trkpt lat="45.98821" lon="1.34679">
        <ele>491.2</ele>
        <time>2012-09-07T08:30:16Z</time>
      </trkpt>
      <trkpt lat="45.98815" lon="1.34686">
        <ele>492.8</ele>
        <time>2012-09-07T08:30:24Z</time>
      </trkpt>
      <trkpt lat="45.98808" lon="1.3469">
        <ele>494.6</ele>
        <time>2012-09-07T08:30:33Z</time>
      </trkpt>
      <trkpt lat="45.98803" lon="1.34696">
        <ele>495.8</ele>
        <time>2012-09-07T08:30:40Z</time>
      </trkpt>
      <trkpt lat="45.988" lon="1.34701">
        <ele>497</ele>
        <time>2012-09-07T08:30:48Z</time>
      </trkpt>
      <trkpt lat="45.98798" lon="1.34705">
        <ele>497.8</ele>
        <time>2012-09-07T08:30:54Z</time>
      </trkpt>
      <trkpt lat="45.98797" lon="1.34714">
        <ele>498.8</ele>
        <time>2012-09-07T08:31:01Z</time>
      </trkpt>
      <trkpt lat="45.98802" lon="1.34727">
        <ele>499.8</ele>
        <time>2012-09-07T08:31:10Z</time>
      </trkpt>
      <trkpt lat="45.98803" lon="1.34731">
        <ele>500.4</ele>
        <time>2012-09-07T08:31:16Z</time>
      </trkpt>
      <trkpt lat="45.98801" lon="1.34736">
        <ele>500.8</ele>
        <time>2012-09-07T08:31:20Z</time>
      </trkpt>
      <trkpt lat="45.988" lon="1.34749">
        <ele>501.6</ele>
        <time>2012-09-07T08:31:26Z</time>
      </trkpt>
      <trkpt lat="45.98793" lon="1.34766">
        <ele>503.2</ele>
        <time>2012-09-07T08:31:35Z</time>
      </trkpt>
      <trkpt lat="45.98789" lon="1.34782">
        <ele>504.6</ele>
        <time>2012-09-07T08:31:42Z</time>
      </trkpt>
      <trkpt lat="45.98783" lon="1.34804">
        <ele>506.2</ele>
        <time>2012-09-07T08:31:50Z</time>
      </trkpt>
      <trkpt lat="45.9878" lon="1.34826">
        <ele>507</ele>
        <time>2012-09-07T08:31:57Z</time>
      </trkpt>
      <trkpt lat="45.98782" lon="1.34853">
        <ele>507.6</ele>
        <time>2012-09-07T08:32:05Z</time>
      </trkpt>
      <trkpt lat="45.98786" lon="1.34867">
        <ele>507.8</ele>
        <time>2012-09-07T08:32:10Z</time>
      </trkpt>
      <trkpt lat="45.98793" lon="1.34892">
        <ele>507.8</ele>
        <time>2012-09-07T08:32:17Z</time>
      </trkpt>
      <trkpt lat="45.98801" lon="1.34915">
        <ele>507.8</ele>
        <time>2012-09-07T08:32:23Z</time>
      </trkpt>
      <trkpt lat="45.98806" lon="1.34944">
        <ele>507.8</ele>
        <time>2012-09-07T08:32:29Z</time>
      </trkpt>
      <trkpt lat="45.98807" lon="1.34953">
        <ele>507.8</ele>
        <time>2012-09-07T08:32:31Z</time>
      </trkpt>
      <trkpt lat="45.98813" lon="1.34974">
        <ele>508.6</ele>
        <time>2012-09-07T08:32:36Z</time>
      </trkpt>
      <trkpt lat="45.98819" lon="1.34988">
        <ele>509.4</ele>
        <time>2012-09-07T08:32:41Z</time>
      </trkpt>
      <trkpt lat="45.98828" lon="1.34986">
        <ele>510</ele>
        <time>2012-09-07T08:32:45Z</time>
      </trkpt>
      <trkpt lat="45.98842" lon="1.34979">
        <ele>510.6</ele>
        <time>2012-09-07T08:32:50Z</time>
      </trkpt>
      <trkpt lat="45.98854" lon="1.34977">
        <ele>510.8</ele>
        <time>2012-09-07T08:32:54Z</time>
      </trkpt>
      <trkpt lat="45.9886" lon="1.3498">
        <ele>510.6</ele>
        <time>2012-09-07T08:32:56Z</time>
      </trkpt>
      <trkpt lat="45.98864" lon="1.34991">
        <ele>510.6</ele>
        <time>2012-09-07T08:32:58Z</time>
      </trkpt>
      <trkpt lat="45.98859" lon="1.3501">
        <ele>510.4</ele>
        <time>2012-09-07T08:33:01Z</time>
      </trkpt>
      <trkpt lat="45.98858" lon="1.35015">
        <ele>510.4</ele>
        <time>2012-09-07T08:33:02Z</time>
      </trkpt>
      <trkpt lat="45.98853" lon="1.35029">
        <ele>510.8</ele>
        <time>2012-09-07T08:33:06Z</time>
      </trkpt>
      <trkpt lat="45.98843" lon="1.35046">
        <ele>510.8</ele>
        <time>2012-09-07T08:33:10Z</time>
      </trkpt>
      <trkpt lat="45.98829" lon="1.35067">
        <ele>510.6</ele>
        <time>2012-09-07T08:33:15Z</time>
      </trkpt>
      <trkpt lat="45.98822" lon="1.35083">
        <ele>510.6</ele>
        <time>2012-09-07T08:33:18Z</time>
      </trkpt>
      <trkpt lat="45.98819" lon="1.35093">
        <ele>510.6</ele>
        <time>2012-09-07T08:33:20Z</time>
      </trkpt>
      <trkpt lat="45.98818" lon="1.35098">
        <ele>510.4</ele>
        <time>2012-09-07T08:33:21Z</time>
      </trkpt>
      <trkpt lat="45.98814" lon="1.35127">
        <ele>510.4</ele>
        <time>2012-09-07T08:33:27Z</time>
      </trkpt>
      <trkpt lat="45.98813" lon="1.35137">
        <ele>510.4</ele>
        <time>2012-09-07T08:33:29Z</time>
      </trkpt>
      <trkpt lat="45.98807" lon="1.35165">
        <ele>510.4</ele>
        <time>2012-09-07T08:33:35Z</time>
      </trkpt>
      <trkpt lat="45.98807" lon="1.35168">
        <ele>510.4</ele>
        <time>2012-09-07T08:33:36Z</time>
      </trkpt>
      <trkpt lat="45.98804" lon="1.35197">
        <ele>510.4</ele>
        <time>2012-09-07T08:33:43Z</time>
      </trkpt>
      <trkpt lat="45.98804" lon="1.35223">
        <ele>510.6</ele>
        <time>2012-09-07T08:33:50Z</time>
      </trkpt>
      <trkpt lat="45.98805" lon="1.35226">
        <ele>510.6</ele>
        <time>2012-09-07T08:33:51Z</time>
      </trkpt>
      <trkpt lat="45.98811" lon="1.3524">
        <ele>510.4</ele>
        <time>2012-09-07T08:33:57Z</time>
      </trkpt>
      <trkpt lat="45.98811" lon="1.3524">
        <ele>510.2</ele>
        <time>2012-09-07T08:34:02Z</time>
      </trkpt>
      <trkpt lat="45.98815" lon="1.35247">
        <ele>509.4</ele>
        <time>2012-09-07T08:34:20Z</time>
      </trkpt>
      <trkpt lat="45.98826" lon="1.35265">
        <ele>509</ele>
        <time>2012-09-07T08:34:25Z</time>
      </trkpt>
      <trkpt lat="45.9884" lon="1.35287">
        <ele>508.8</ele>
        <time>2012-09-07T08:34:30Z</time>
      </trkpt>
      <trkpt lat="45.98841" lon="1.35293">
        <ele>508.8</ele>
        <time>2012-09-07T08:34:31Z</time>
      </trkpt>
      <trkpt lat="45.98843" lon="1.35313">
        <ele>508.6</ele>
        <time>2012-09-07T08:34:34Z</time>
      </trkpt>
      <trkpt lat="45.98841" lon="1.35318">
        <ele>508.6</ele>
        <time>2012-09-07T08:34:35Z</time>
      </trkpt>
      <trkpt lat="45.9884" lon="1.35343">
        <ele>508.8</ele>
        <time>2012-09-07T08:34:40Z</time>
      </trkpt>
      <trkpt lat="45.98847" lon="1.35361">
        <ele>508.8</ele>
        <time>2012-09-07T08:34:44Z</time>
      </trkpt>
      <trkpt lat="45.9885" lon="1.35365">
        <ele>508.8</ele>
        <time>2012-09-07T08:34:45Z</time>
      </trkpt>
      <trkpt lat="45.98859" lon="1.35389">
        <ele>508.8</ele>
        <time>2012-09-07T08:34:51Z</time>
      </trkpt>
      <trkpt lat="45.98856" lon="1.35409">
        <ele>508.8</ele>
        <time>2012-09-07T08:34:55Z</time>
      </trkpt>
      <trkpt lat="45.98844" lon="1.35423">
        <ele>509</ele>
        <time>2012-09-07T08:35:00Z</time>
      </trkpt>
      <trkpt lat="45.98831" lon="1.35421">
        <ele>508.8</ele>
        <time>2012-09-07T08:35:05Z</time>
      </trkpt>
      <trkpt lat="45.9882" lon="1.3541">
        <ele>508.8</ele>
        <time>2012-09-07T08:35:10Z</time>
      </trkpt>
      <trkpt lat="45.98806" lon="1.35386">
        <ele>508.6</ele>
        <time>2012-09-07T08:35:16Z</time>
      </trkpt>
      <trkpt lat="45.98789" lon="1.35385">
        <ele>508.2</ele>
        <time>2012-09-07T08:35:20Z</time>
      </trkpt>
      <trkpt lat="45.98769" lon="1.35396">
        <ele>507.8</ele>
        <time>2012-09-07T08:35:25Z</time>
      </trkpt>
      <trkpt lat="45.98764" lon="1.354">
        <ele>507.8</ele>
        <time>2012-09-07T08:35:27Z</time>
      </trkpt>
      <trkpt lat="45.98756" lon="1.35407">
        <ele>507.6</ele>
        <time>2012-09-07T08:35:30Z</time>
      </trkpt>
      <trkpt lat="45.9874" lon="1.3542">
        <ele>507.4</ele>
        <time>2012-09-07T08:35:36Z</time>
      </trkpt>
      <trkpt lat="45.98738" lon="1.3542">
        <ele>507.4</ele>
        <time>2012-09-07T08:35:37Z</time>
      </trkpt>
      <trkpt lat="45.9872" lon="1.35413">
        <ele>508.2</ele>
        <time>2012-09-07T08:35:43Z</time>
      </trkpt>
      <trkpt lat="45.98709" lon="1.35402">
        <ele>509.2</ele>
        <time>2012-09-07T08:35:48Z</time>
      </trkpt>
      <trkpt lat="45.98701" lon="1.35385">
        <ele>511.4</ele>
        <time>2012-09-07T08:35:53Z</time>
      </trkpt>
      <trkpt lat="45.98695" lon="1.35384">
        <ele>512.4</ele>
        <time>2012-09-07T08:35:55Z</time>
      </trkpt>
      <trkpt lat="45.98691" lon="1.35387">
        <ele>513.6</ele>
        <time>2012-09-07T08:35:57Z</time>
      </trkpt>
      <trkpt lat="45.98685" lon="1.35401">
        <ele>516.6</ele>
        <time>2012-09-07T08:36:03Z</time>
      </trkpt>
      <trkpt lat="45.98684" lon="1.35417">
        <ele>520</ele>
        <time>2012-09-07T08:36:09Z</time>
      </trkpt>
      <trkpt lat="45.98685" lon="1.35423">
        <ele>521.2</ele>
        <time>2012-09-07T08:36:11Z</time>
      </trkpt>
      <trkpt lat="45.98687" lon="1.35427">
        <ele>522.2</ele>
        <time>2012-09-07T08:36:13Z</time>
      </trkpt>
      <trkpt lat="45.98687" lon="1.35434">
        <ele>523</ele>
        <time>2012-09-07T08:36:15Z</time>
      </trkpt>
      <trkpt lat="45.98692" lon="1.35446">
        <ele>525.4</ele>
        <time>2012-09-07T08:36:20Z</time>
      </trkpt>
      <trkpt lat="45.98699" lon="1.35458">
        <ele>526.4</ele>
        <time>2012-09-07T08:36:25Z</time>
      </trkpt>
      <trkpt lat="45.98699" lon="1.3546">
        <ele>527</ele>
        <time>2012-09-07T08:36:26Z</time>
      </trkpt>
      <trkpt lat="45.98701" lon="1.35461">
        <ele>527.4</ele>
        <time>2012-09-07T08:36:27Z</time>
      </trkpt>
      <trkpt lat="45.98702" lon="1.35463">
        <ele>527.6</ele>
        <time>2012-09-07T08:36:28Z</time>
      </trkpt>
      <trkpt lat="45.98706" lon="1.35469">
        <ele>528.6</ele>
        <time>2012-09-07T08:36:31Z</time>
      </trkpt>
      <trkpt lat="45.9871" lon="1.35474">
        <ele>529.4</ele>
        <time>2012-09-07T08:36:33Z</time>
      </trkpt>
      <trkpt lat="45.98713" lon="1.35477">
        <ele>530</ele>
        <time>2012-09-07T08:36:35Z</time>
      </trkpt>
      <trkpt lat="45.98726" lon="1.35489">
        <ele>532.4</ele>
        <time>2012-09-07T08:36:42Z</time>
      </trkpt>
      <trkpt lat="45.98736" lon="1.35499">
        <ele>534</ele>
        <time>2012-09-07T08:36:47Z</time>
      </trkpt>
      <trkpt lat="45.98747" lon="1.35515">
        <ele>535</ele>
        <time>2012-09-07T08:36:53Z</time>
      </trkpt>
      <trkpt lat="45.98753" lon="1.35535">
        <ele>537</ele>
        <time>2012-09-07T08:37:00Z</time>
      </trkpt>
      <trkpt lat="45.98757" lon="1.3554">
        <ele>537.8</ele>
        <time>2012-09-07T08:37:03Z</time>
      </trkpt>
      <trkpt lat="45.98764" lon="1.35548">
        <ele>537.8</ele>
        <time>2012-09-07T08:37:06Z</time>
      </trkpt>
      <trkpt lat="45.98767" lon="1.35555">
        <ele>537.4</ele>
        <time>2012-09-07T08:37:09Z</time>
      </trkpt>
      <trkpt lat="45.98767" lon="1.35559">
        <ele>537.6</ele>
        <time>2012-09-07T08:37:11Z</time>
      </trkpt>
      <trkpt lat="45.98768" lon="1.35563">
        <ele>537.6</ele>
        <time>2012-09-07T08:37:13Z</time>
      </trkpt>
      <trkpt lat="45.98764" lon="1.3557">
        <ele>537.6</ele>
        <time>2012-09-07T08:37:17Z</time>
      </trkpt>
      <trkpt lat="45.9876" lon="1.35581">
        <ele>537.4</ele>
        <time>2012-09-07T08:37:21Z</time>
      </trkpt>
      <trkpt lat="45.98758" lon="1.35587">
        <ele>537.6</ele>
        <time>2012-09-07T08:37:23Z</time>
      </trkpt>
      <trkpt lat="45.98751" lon="1.35606">
        <ele>538.4</ele>
        <time>2012-09-07T08:37:28Z</time>
      </trkpt>
      <trkpt lat="45.9874" lon="1.35624">
        <ele>539.4</ele>
        <time>2012-09-07T08:37:36Z</time>
      </trkpt>
      <trkpt lat="45.98731" lon="1.35642">
        <ele>539.8</ele>
        <time>2012-09-07T08:37:42Z</time>
      </trkpt>
      <trkpt lat="45.98724" lon="1.35658">
        <ele>540.4</ele>
        <time>2012-09-07T08:37:48Z</time>
      </trkpt>
      <trkpt lat="45.98716" lon="1.35678">
        <ele>540.8</ele>
        <time>2012-09-07T08:37:55Z</time>
      </trkpt>
      <trkpt lat="45.98714" lon="1.35683">
        <ele>540.8</ele>
        <time>2012-09-07T08:37:59Z</time>
      </trkpt>
      <trkpt lat="45.98721" lon="1.35685">
        <ele>540.4</ele>
        <time>2012-09-07T08:38:09Z</time>
      </trkpt>
      <trkpt lat="45.98723" lon="1.35686">
        <ele>538</ele>
        <time>2012-09-07T08:38:30Z</time>
      </trkpt>
      <trkpt lat="45.98718" lon="1.35688">
        <ele>537.4</ele>
        <time>2012-09-07T08:38:36Z</time>
      </trkpt>
      <trkpt lat="45.98709" lon="1.35688">
        <ele>537</ele>
        <time>2012-09-07T08:38:43Z</time>
      </trkpt>
      <trkpt lat="45.98698" lon="1.35685">
        <ele>536.6</ele>
        <time>2012-09-07T08:38:48Z</time>
      </trkpt>
      <trkpt lat="45.98682" lon="1.35684">
        <ele>536</ele>
        <time>2012-09-07T08:38:54Z</time>
      </trkpt>
      <trkpt lat="45.98664" lon="1.35691">
        <ele>535.4</ele>
        <time>2012-09-07T08:39:00Z</time>
      </trkpt>
      <trkpt lat="45.98649" lon="1.35703">
        <ele>534.8</ele>
        <time>2012-09-07T08:39:06Z</time>
      </trkpt>
      <trkpt lat="45.98634" lon="1.35721">
        <ele>534.2</ele>
        <time>2012-09-07T08:39:13Z</time>
      </trkpt>
      <trkpt lat="45.98624" lon="1.3573">
        <ele>533.8</ele>
        <time>2012-09-07T08:39:18Z</time>
      </trkpt>
      <trkpt lat="45.9862" lon="1.35745">
        <ele>533.6</ele>
        <time>2012-09-07T08:39:23Z</time>
      </trkpt>
      <trkpt lat="45.9862" lon="1.35763">
        <ele>533.4</ele>
        <time>2012-09-07T08:39:27Z</time>
      </trkpt>
      <trkpt lat="45.9862" lon="1.35787">
        <ele>533.2</ele>
        <time>2012-09-07T08:39:33Z</time>
      </trkpt>
      <trkpt lat="45.98624" lon="1.35813">
        <ele>533</ele>
        <time>2012-09-07T08:39:39Z</time>
      </trkpt>
      <trkpt lat="45.9863" lon="1.35837">
        <ele>532.8</ele>
        <time>2012-09-07T08:39:45Z</time>
      </trkpt>
      <trkpt lat="45.98637" lon="1.35856">
        <ele>532.6</ele>
        <time>2012-09-07T08:39:52Z</time>
      </trkpt>
      <trkpt lat="45.98639" lon="1.3586">
        <ele>532.4</ele>
        <time>2012-09-07T08:39:56Z</time>
      </trkpt>
      <trkpt lat="45.98643" lon="1.35866">
        <ele>532.4</ele>
        <time>2012-09-07T08:40:01Z</time>
      </trkpt>
      <trkpt lat="45.98647" lon="1.35875">
        <ele>532.4</ele>
        <time>2012-09-07T08:40:07Z</time>
      </trkpt>
      <trkpt lat="45.98652" lon="1.35884">
        <ele>532.2</ele>
        <time>2012-09-07T08:40:13Z</time>
      </trkpt>
      <trkpt lat="45.98653" lon="1.35886">
        <ele>532.2</ele>
        <time>2012-09-07T08:40:15Z</time>
      </trkpt>
      <trkpt lat="45.98655" lon="1.3589">
        <ele>532.4</ele>
        <time>2012-09-07T08:40:18Z</time>
      </trkpt>
      <trkpt lat="45.98659" lon="1.35896">
        <ele>532.6</ele>
        <time>2012-09-07T08:40:24Z</time>
      </trkpt>
      <trkpt lat="45.98664" lon="1.35905">
        <ele>532.6</ele>
        <time>2012-09-07T08:40:30Z</time>
      </trkpt>
      <trkpt lat="45.98665" lon="1.35907">
        <ele>532.6</ele>
        <time>2012-09-07T08:40:31Z</time>
      </trkpt>
      <trkpt lat="45.98669" lon="1.35913">
        <ele>533</ele>
        <time>2012-09-07T08:40:35Z</time>
      </trkpt>
      <trkpt lat="45.98672" lon="1.35916">
        <ele>533</ele>
        <time>2012-09-07T08:40:37Z</time>
      </trkpt>
      <trkpt lat="45.9868" lon="1.35925">
        <ele>534</ele>
        <time>2012-09-07T08:40:45Z</time>
      </trkpt>
      <trkpt lat="45.98686" lon="1.3593">
        <ele>534.8</ele>
        <time>2012-09-07T08:40:51Z</time>
      </trkpt>
      <trkpt lat="45.98692" lon="1.35934">
        <ele>535.6</ele>
        <time>2012-09-07T08:40:57Z</time>
      </trkpt>
      <trkpt lat="45.98701" lon="1.35941">
        <ele>536.4</ele>
        <time>2012-09-07T08:41:05Z</time>
      </trkpt>
      <trkpt lat="45.98712" lon="1.35948">
        <ele>537</ele>
        <time>2012-09-07T08:41:13Z</time>
      </trkpt>
      <trkpt lat="45.9872" lon="1.35954">
        <ele>537.4</ele>
        <time>2012-09-07T08:41:19Z</time>
      </trkpt>
      <trkpt lat="45.98721" lon="1.35955">
        <ele>537.4</ele>
        <time>2012-09-07T08:41:20Z</time>
      </trkpt>
      <trkpt lat="45.98724" lon="1.35958">
        <ele>537.8</ele>
        <time>2012-09-07T08:41:23Z</time>
      </trkpt>
      <trkpt lat="45.98726" lon="1.3596">
        <ele>538</ele>
        <time>2012-09-07T08:41:25Z</time>
      </trkpt>
      <trkpt lat="45.98728" lon="1.35963">
        <ele>538.4</ele>
        <time>2012-09-07T08:41:28Z</time>
      </trkpt>
      <trkpt lat="45.98729" lon="1.35963">
        <ele>538.4</ele>
        <time>2012-09-07T08:41:29Z</time>
      </trkpt>
      <trkpt lat="45.98734" lon="1.35964">
        <ele>538.8</ele>
        <time>2012-09-07T08:41:33Z</time>
      </trkpt>
      <trkpt lat="45.98742" lon="1.35964">
        <ele>539</ele>
        <time>2012-09-07T08:41:39Z</time>
      </trkpt>
      <trkpt lat="45.98753" lon="1.35965">
        <ele>539.2</ele>
        <time>2012-09-07T08:41:46Z</time>
      </trkpt>
      <trkpt lat="45.98764" lon="1.35967">
        <ele>539.2</ele>
        <time>2012-09-07T08:41:54Z</time>
      </trkpt>
      <trkpt lat="45.98772" lon="1.3597">
        <ele>539.2</ele>
        <time>2012-09-07T08:42:00Z</time>
      </trkpt>
      <trkpt lat="45.98782" lon="1.35971">
        <ele>539.4</ele>
        <time>2012-09-07T08:42:08Z</time>
      </trkpt>
      <trkpt lat="45.98789" lon="1.35972">
        <ele>540.2</ele>
        <time>2012-09-07T08:42:15Z</time>
      </trkpt>
      <trkpt lat="45.98797" lon="1.35973">
        <ele>541.6</ele>
        <time>2012-09-07T08:42:23Z</time>
      </trkpt>
      <trkpt lat="45.98806" lon="1.35973">
        <ele>543</ele>
        <time>2012-09-07T08:42:31Z</time>
      </trkpt>
      <trkpt lat="45.98815" lon="1.35976">
        <ele>544</ele>
        <time>2012-09-07T08:42:39Z</time>
      </trkpt>
      <trkpt lat="45.98816" lon="1.35984">
        <ele>545.4</ele>
        <time>2012-09-07T08:42:45Z</time>
      </trkpt>
      <trkpt lat="45.98817" lon="1.36">
        <ele>548</ele>
        <time>2012-09-07T08:42:56Z</time>
      </trkpt>
      <trkpt lat="45.98822" lon="1.36008">
        <ele>549.8</ele>
        <time>2012-09-07T08:43:04Z</time>
      </trkpt>
      <trkpt lat="45.98824" lon="1.36009">
        <ele>551.4</ele>
        <time>2012-09-07T08:43:11Z</time>
      </trkpt>
      <trkpt lat="45.98832" lon="1.36015">
        <ele>551.2</ele>
        <time>2012-09-07T08:43:33Z</time>
      </trkpt>
      <trkpt lat="45.98833" lon="1.36024">
        <ele>551.2</ele>
        <time>2012-09-07T08:43:37Z</time>
      </trkpt>
      <trkpt lat="45.98832" lon="1.36028">
        <ele>551.2</ele>
        <time>2012-09-07T08:43:38Z</time>
      </trkpt>
      <trkpt lat="45.98831" lon="1.36048">
        <ele>552</ele>
        <time>2012-09-07T08:43:44Z</time>
      </trkpt>
      <trkpt lat="45.9883" lon="1.3607">
        <ele>552.6</ele>
        <time>2012-09-07T08:43:50Z</time>
      </trkpt>
      <trkpt lat="45.98831" lon="1.36093">
        <ele>553.6</ele>
        <time>2012-09-07T08:43:57Z</time>
      </trkpt>
      <trkpt lat="45.98839" lon="1.36105">
        <ele>554.6</ele>
        <time>2012-09-07T08:44:04Z</time>
      </trkpt>
      <trkpt lat="45.98846" lon="1.36119">
        <ele>555.6</ele>
        <time>2012-09-07T08:44:11Z</time>
      </trkpt>
      <trkpt lat="45.98848" lon="1.36135">
        <ele>557</ele>
        <time>2012-09-07T08:44:18Z</time>
      </trkpt>
      <trkpt lat="45.98855" lon="1.36146">
        <ele>557.8</ele>
        <time>2012-09-07T08:44:24Z</time>
      </trkpt>
      <trkpt lat="45.98858" lon="1.3615">
        <ele>558.4</ele>
        <time>2012-09-07T08:44:27Z</time>
      </trkpt>
      <trkpt lat="45.98861" lon="1.36155">
        <ele>558.6</ele>
        <time>2012-09-07T08:44:30Z</time>
      </trkpt>
      <trkpt lat="45.98868" lon="1.36164">
        <ele>559</ele>
        <time>2012-09-07T08:44:36Z</time>
      </trkpt>
      <trkpt lat="45.98875" lon="1.36176">
        <ele>559.4</ele>
        <time>2012-09-07T08:44:42Z</time>
      </trkpt>
      <trkpt lat="45.98882" lon="1.36192">
        <ele>560.4</ele>
        <time>2012-09-07T08:44:49Z</time>
      </trkpt>
      <trkpt lat="45.98889" lon="1.36211">
        <ele>561.6</ele>
        <time>2012-09-07T08:44:57Z</time>
      </trkpt>
      <trkpt lat="45.98895" lon="1.36232">
        <ele>562.8</ele>
        <time>2012-09-07T08:45:05Z</time>
      </trkpt>
      <trkpt lat="45.98901" lon="1.36254">
        <ele>564</ele>
        <time>2012-09-07T08:45:13Z</time>
      </trkpt>
      <trkpt lat="45.98907" lon="1.3628">
        <ele>565.4</ele>
        <time>2012-09-07T08:45:23Z</time>
      </trkpt>
      <trkpt lat="45.9891" lon="1.3629">
        <ele>566.2</ele>
        <time>2012-09-07T08:45:28Z</time>
      </trkpt>
      <trkpt lat="45.98915" lon="1.36311">
        <ele>567.4</ele>
        <time>2012-09-07T08:45:36Z</time>
      </trkpt>
      <trkpt lat="45.98918" lon="1.36327">
        <ele>568</ele>
        <time>2012-09-07T08:45:42Z</time>
      </trkpt>
      <trkpt lat="45.98921" lon="1.3635">
        <ele>569.4</ele>
        <time>2012-09-07T08:45:50Z</time>
      </trkpt>
      <trkpt lat="45.98922" lon="1.36375">
        <ele>570.4</ele>
        <time>2012-09-07T08:45:58Z</time>
      </trkpt>
      <trkpt lat="45.9892" lon="1.36396">
        <ele>571.4</ele>
        <time>2012-09-07T08:46:05Z</time>
      </trkpt>
      <trkpt lat="45.98918" lon="1.36418">
        <ele>572.2</ele>
        <time>2012-09-07T08:46:12Z</time>
      </trkpt>
      <trkpt lat="45.98916" lon="1.3644">
        <ele>573</ele>
        <time>2012-09-07T08:46:19Z</time>
      </trkpt>
      <trkpt lat="45.98916" lon="1.36467">
        <ele>573.6</ele>
        <time>2012-09-07T08:46:26Z</time>
      </trkpt>
      <trkpt lat="45.9892" lon="1.36492">
        <ele>574</ele>
        <time>2012-09-07T08:46:33Z</time>
      </trkpt>
      <trkpt lat="45.98928" lon="1.36508">
        <ele>574.2</ele>
        <time>2012-09-07T08:46:39Z</time>
      </trkpt>
      <trkpt lat="45.98937" lon="1.36522">
        <ele>574</ele>
        <time>2012-09-07T08:46:45Z</time>
      </trkpt>
      <trkpt lat="45.98944" lon="1.36549">
        <ele>574</ele>
        <time>2012-09-07T08:46:52Z</time>
      </trkpt>
      <trkpt lat="45.98949" lon="1.36575">
        <ele>574</ele>
        <time>2012-09-07T08:46:57Z</time>
      </trkpt>
      <trkpt lat="45.98951" lon="1.36581">
        <ele>574</ele>
        <time>2012-09-07T08:46:58Z</time>
      </trkpt>
      <trkpt lat="45.98959" lon="1.36609">
        <ele>574</ele>
        <time>2012-09-07T08:47:02Z</time>
      </trkpt>
      <trkpt lat="45.98961" lon="1.36614">
        <ele>574</ele>
        <time>2012-09-07T08:47:03Z</time>
      </trkpt>
      <trkpt lat="45.98965" lon="1.36623">
        <ele>574</ele>
        <time>2012-09-07T08:47:05Z</time>
      </trkpt>
      <trkpt lat="45.98964" lon="1.36628">
        <ele>573.8</ele>
        <time>2012-09-07T08:47:07Z</time>
      </trkpt>
      <trkpt lat="45.98964" lon="1.36633">
        <ele>573.8</ele>
        <time>2012-09-07T08:47:11Z</time>
      </trkpt>
      <trkpt lat="45.98965" lon="1.3664">
        <ele>576</ele>
        <time>2012-09-07T08:48:22Z</time>
      </trkpt>
      <trkpt lat="45.98962" lon="1.36644">
        <ele>575.4</ele>
        <time>2012-09-07T08:48:27Z</time>
      </trkpt>
      <trkpt lat="45.98958" lon="1.3665">
        <ele>575</ele>
        <time>2012-09-07T08:48:31Z</time>
      </trkpt>
      <trkpt lat="45.98958" lon="1.36652">
        <ele>574.8</ele>
        <time>2012-09-07T08:48:32Z</time>
      </trkpt>
      <trkpt lat="45.98961" lon="1.36653">
        <ele>574.4</ele>
        <time>2012-09-07T08:48:36Z</time>
      </trkpt>
      <trkpt lat="45.98965" lon="1.36659">
        <ele>574</ele>
        <time>2012-09-07T08:48:39Z</time>
      </trkpt>
      <trkpt lat="45.98968" lon="1.36662">
        <ele>573.8</ele>
        <time>2012-09-07T08:48:40Z</time>
      </trkpt>
      <trkpt lat="45.98986" lon="1.36675">
        <ele>573.2</ele>
        <time>2012-09-07T08:48:45Z</time>
      </trkpt>
      <trkpt lat="45.99004" lon="1.36692">
        <ele>572.2</ele>
        <time>2012-09-07T08:48:50Z</time>
      </trkpt>
      <trkpt lat="45.99014" lon="1.367">
        <ele>571.8</ele>
        <time>2012-09-07T08:48:53Z</time>
      </trkpt>
      <trkpt lat="45.99025" lon="1.3671">
        <ele>571.2</ele>
        <time>2012-09-07T08:48:56Z</time>
      </trkpt>
      <trkpt lat="45.99029" lon="1.36712">
        <ele>571</ele>
        <time>2012-09-07T08:48:57Z</time>
      </trkpt>
      <trkpt lat="45.99043" lon="1.36719">
        <ele>570.2</ele>
        <time>2012-09-07T08:49:01Z</time>
      </trkpt>
      <trkpt lat="45.99059" lon="1.36725">
        <ele>568.8</ele>
        <time>2012-09-07T08:49:07Z</time>
      </trkpt>
      <trkpt lat="45.99062" lon="1.36724">
        <ele>568.6</ele>
        <time>2012-09-07T08:49:08Z</time>
      </trkpt>
      <trkpt lat="45.99072" lon="1.36718">
        <ele>567.8</ele>
        <time>2012-09-07T08:49:11Z</time>
      </trkpt>
      <trkpt lat="45.99087" lon="1.36714">
        <ele>567</ele>
        <time>2012-09-07T08:49:15Z</time>
      </trkpt>
      <trkpt lat="45.99098" lon="1.36718">
        <ele>565.8</ele>
        <time>2012-09-07T08:49:19Z</time>
      </trkpt>
      <trkpt lat="45.99101" lon="1.36721">
        <ele>565.6</ele>
        <time>2012-09-07T08:49:20Z</time>
      </trkpt>
      <trkpt lat="45.99115" lon="1.36731">
        <ele>564.4</ele>
        <time>2012-09-07T08:49:24Z</time>
      </trkpt>
      <trkpt lat="45.99131" lon="1.36751">
        <ele>563.2</ele>
        <time>2012-09-07T08:49:29Z</time>
      </trkpt>
      <trkpt lat="45.99145" lon="1.36761">
        <ele>562.2</ele>
        <time>2012-09-07T08:49:33Z</time>
      </trkpt>
      <trkpt lat="45.9915" lon="1.36763">
        <ele>562</ele>
        <time>2012-09-07T08:49:34Z</time>
      </trkpt>
      <trkpt lat="45.99159" lon="1.36769">
        <ele>561.2</ele>
        <time>2012-09-07T08:49:37Z</time>
      </trkpt>
      <trkpt lat="45.99162" lon="1.36769">
        <ele>560.8</ele>
        <time>2012-09-07T08:49:38Z</time>
      </trkpt>
      <trkpt lat="45.99164" lon="1.3677">
        <ele>560.6</ele>
        <time>2012-09-07T08:49:39Z</time>
      </trkpt>
      <trkpt lat="45.99168" lon="1.36778">
        <ele>559.4</ele>
        <time>2012-09-07T08:49:45Z</time>
      </trkpt>
      <trkpt lat="45.99176" lon="1.36778">
        <ele>557.8</ele>
        <time>2012-09-07T08:49:57Z</time>
      </trkpt>
      <trkpt lat="45.99182" lon="1.36776">
        <ele>557.4</ele>
        <time>2012-09-07T08:50:02Z</time>
      </trkpt>
      <trkpt lat="45.99182" lon="1.36776">
        <ele>557.2</ele>
        <time>2012-09-07T08:50:03Z</time>
      </trkpt>
      <trkpt lat="45.99185" lon="1.36774">
        <ele>557</ele>
        <time>2012-09-07T08:50:06Z</time>
      </trkpt>
      <trkpt lat="45.99188" lon="1.36772">
        <ele>556.8</ele>
        <time>2012-09-07T08:50:08Z</time>
      </trkpt>
      <trkpt lat="45.99189" lon="1.36771">
        <ele>556.8</ele>
        <time>2012-09-07T08:50:10Z</time>
      </trkpt>
      <trkpt lat="45.99192" lon="1.36768">
        <ele>556.6</ele>
        <time>2012-09-07T08:50:14Z</time>
      </trkpt>
      <trkpt lat="45.99198" lon="1.36762">
        <ele>556.4</ele>
        <time>2012-09-07T08:50:20Z</time>
      </trkpt>
      <trkpt lat="45.992" lon="1.3676">
        <ele>556.2</ele>
        <time>2012-09-07T08:50:22Z</time>
      </trkpt>
      <trkpt lat="45.99205" lon="1.36756">
        <ele>556</ele>
        <time>2012-09-07T08:50:27Z</time>
      </trkpt>
      <trkpt lat="45.99207" lon="1.36753">
        <ele>556</ele>
        <time>2012-09-07T08:50:29Z</time>
      </trkpt>
      <trkpt lat="45.99208" lon="1.36753">
        <ele>555.8</ele>
        <time>2012-09-07T08:50:30Z</time>
      </trkpt>
      <trkpt lat="45.99214" lon="1.36747">
        <ele>555.8</ele>
        <time>2012-09-07T08:50:36Z</time>
      </trkpt>
      <trkpt lat="45.99221" lon="1.36734">
        <ele>555.4</ele>
        <time>2012-09-07T08:50:45Z</time>
      </trkpt>
      <trkpt lat="45.99228" lon="1.36723">
        <ele>555</ele>
        <time>2012-09-07T08:50:54Z</time>
      </trkpt>
      <trkpt lat="45.99234" lon="1.3672">
        <ele>554.8</ele>
        <time>2012-09-07T08:51:01Z</time>
      </trkpt>
      <trkpt lat="45.99234" lon="1.3672">
        <ele>554.6</ele>
        <time>2012-09-07T08:51:07Z</time>
      </trkpt>
      <trkpt lat="45.9924" lon="1.3672">
        <ele>554.2</ele>
        <time>2012-09-07T08:51:17Z</time>
      </trkpt>
      <trkpt lat="45.99252" lon="1.36721">
        <ele>554</ele>
        <time>2012-09-07T08:51:21Z</time>
      </trkpt>
      <trkpt lat="45.99271" lon="1.36718">
        <ele>553.6</ele>
        <time>2012-09-07T08:51:26Z</time>
      </trkpt>
      <trkpt lat="45.99276" lon="1.36718">
        <ele>553.6</ele>
        <time>2012-09-07T08:51:27Z</time>
      </trkpt>
      <trkpt lat="45.99295" lon="1.36714">
        <ele>553.2</ele>
        <time>2012-09-07T08:51:31Z</time>
      </trkpt>
      <trkpt lat="45.993" lon="1.36713">
        <ele>553.2</ele>
        <time>2012-09-07T08:51:32Z</time>
      </trkpt>
      <trkpt lat="45.99305" lon="1.36713">
        <ele>553</ele>
        <time>2012-09-07T08:51:33Z</time>
      </trkpt>
      <trkpt lat="45.99318" lon="1.36711">
        <ele>552.8</ele>
        <time>2012-09-07T08:51:36Z</time>
      </trkpt>
      <trkpt lat="45.99323" lon="1.36711">
        <ele>552.6</ele>
        <time>2012-09-07T08:51:37Z</time>
      </trkpt>
      <trkpt lat="45.99326" lon="1.36711">
        <ele>552.6</ele>
        <time>2012-09-07T08:51:38Z</time>
      </trkpt>
      <trkpt lat="45.99338" lon="1.36709">
        <ele>552.4</ele>
        <time>2012-09-07T08:51:41Z</time>
      </trkpt>
      <trkpt lat="45.99342" lon="1.36708">
        <ele>552.2</ele>
        <time>2012-09-07T08:51:42Z</time>
      </trkpt>
      <trkpt lat="45.99354" lon="1.36703">
        <ele>552</ele>
        <time>2012-09-07T08:51:45Z</time>
      </trkpt>
      <trkpt lat="45.99358" lon="1.36702">
        <ele>552</ele>
        <time>2012-09-07T08:51:46Z</time>
      </trkpt>
      <trkpt lat="45.99375" lon="1.36693">
        <ele>551.6</ele>
        <time>2012-09-07T08:51:51Z</time>
      </trkpt>
      <trkpt lat="45.99381" lon="1.36693">
        <ele>551.6</ele>
        <time>2012-09-07T08:51:53Z</time>
      </trkpt>
      <trkpt lat="45.99386" lon="1.36697">
        <ele>551.4</ele>
        <time>2012-09-07T08:51:55Z</time>
      </trkpt>
      <trkpt lat="45.99396" lon="1.36706">
        <ele>551.2</ele>
        <time>2012-09-07T08:51:59Z</time>
      </trkpt>
      <trkpt lat="45.99408" lon="1.36712">
        <ele>551.2</ele>
        <time>2012-09-07T08:52:03Z</time>
      </trkpt>
      <trkpt lat="45.99411" lon="1.3673">
        <ele>551</ele>
        <time>2012-09-07T08:52:06Z</time>
      </trkpt>
      <trkpt lat="45.99411" lon="1.36736">
        <ele>550.8</ele>
        <time>2012-09-07T08:52:07Z</time>
      </trkpt>
      <trkpt lat="45.99417" lon="1.36767">
        <ele>550.6</ele>
        <time>2012-09-07T08:52:12Z</time>
      </trkpt>
      <trkpt lat="45.9942" lon="1.36779">
        <ele>550.4</ele>
        <time>2012-09-07T08:52:14Z</time>
      </trkpt>
      <trkpt lat="45.9943" lon="1.36793">
        <ele>550.2</ele>
        <time>2012-09-07T08:52:17Z</time>
      </trkpt>
      <trkpt lat="45.99434" lon="1.36797">
        <ele>550.2</ele>
        <time>2012-09-07T08:52:18Z</time>
      </trkpt>
      <trkpt lat="45.99437" lon="1.36801">
        <ele>550</ele>
        <time>2012-09-07T08:52:19Z</time>
      </trkpt>
      <trkpt lat="45.99441" lon="1.36814">
        <ele>549.8</ele>
        <time>2012-09-07T08:52:22Z</time>
      </trkpt>
      <trkpt lat="45.99446" lon="1.36839">
        <ele>549.6</ele>
        <time>2012-09-07T08:52:27Z</time>
      </trkpt>
      <trkpt lat="45.99449" lon="1.36865">
        <ele>549.2</ele>
        <time>2012-09-07T08:52:32Z</time>
      </trkpt>
      <trkpt lat="45.99452" lon="1.36869">
        <ele>549.2</ele>
        <time>2012-09-07T08:52:33Z</time>
      </trkpt>
      <trkpt lat="45.9946" lon="1.36873">
        <ele>549.2</ele>
        <time>2012-09-07T08:52:35Z</time>
      </trkpt>
      <trkpt lat="45.99479" lon="1.36877">
        <ele>548.8</ele>
        <time>2012-09-07T08:52:39Z</time>
      </trkpt>
      <trkpt lat="45.99485" lon="1.36877">
        <ele>548.8</ele>
        <time>2012-09-07T08:52:40Z</time>
      </trkpt>
      <trkpt lat="45.99501" lon="1.36879">
        <ele>548.4</ele>
        <time>2012-09-07T08:52:43Z</time>
      </trkpt>
      <trkpt lat="45.99507" lon="1.36878">
        <ele>548.4</ele>
        <time>2012-09-07T08:52:44Z</time>
      </trkpt>
      <trkpt lat="45.9952" lon="1.36871">
        <ele>548</ele>
        <time>2012-09-07T08:52:47Z</time>
      </trkpt>
      <trkpt lat="45.99529" lon="1.36868">
        <ele>547.8</ele>
        <time>2012-09-07T08:52:49Z</time>
      </trkpt>
      <trkpt lat="45.99542" lon="1.36867">
        <ele>547.6</ele>
        <time>2012-09-07T08:52:52Z</time>
      </trkpt>
      <trkpt lat="45.99548" lon="1.36874">
        <ele>547.2</ele>
        <time>2012-09-07T08:52:54Z</time>
      </trkpt>
      <trkpt lat="45.99551" lon="1.36874">
        <ele>547.2</ele>
        <time>2012-09-07T08:52:55Z</time>
      </trkpt>
      <trkpt lat="45.99559" lon="1.3687">
        <ele>546.8</ele>
        <time>2012-09-07T08:52:57Z</time>
      </trkpt>
      <trkpt lat="45.99567" lon="1.36866">
        <ele>546.6</ele>
        <time>2012-09-07T08:52:59Z</time>
      </trkpt>
      <trkpt lat="45.99585" lon="1.36857">
        <ele>546.2</ele>
        <time>2012-09-07T08:53:03Z</time>
      </trkpt>
      <trkpt lat="45.9959" lon="1.36856">
        <ele>546</ele>
        <time>2012-09-07T08:53:04Z</time>
      </trkpt>
      <trkpt lat="45.9961" lon="1.36845">
        <ele>545.4</ele>
        <time>2012-09-07T08:53:09Z</time>
      </trkpt>
      <trkpt lat="45.99617" lon="1.36841">
        <ele>545.2</ele>
        <time>2012-09-07T08:53:11Z</time>
      </trkpt>
      <trkpt lat="45.9962" lon="1.36838">
        <ele>545.2</ele>
        <time>2012-09-07T08:53:12Z</time>
      </trkpt>
      <trkpt lat="45.99623" lon="1.36826">
        <ele>545</ele>
        <time>2012-09-07T08:53:15Z</time>
      </trkpt>
      <trkpt lat="45.99623" lon="1.3682">
        <ele>544.8</ele>
        <time>2012-09-07T08:53:16Z</time>
      </trkpt>
      <trkpt lat="45.99628" lon="1.368">
        <ele>544.6</ele>
        <time>2012-09-07T08:53:20Z</time>
      </trkpt>
      <trkpt lat="45.99638" lon="1.36775">
        <ele>544.2</ele>
        <time>2012-09-07T08:53:26Z</time>
      </trkpt>
      <trkpt lat="45.99641" lon="1.36772">
        <ele>544.2</ele>
        <time>2012-09-07T08:53:27Z</time>
      </trkpt>
      <trkpt lat="45.99651" lon="1.36759">
        <ele>544</ele>
        <time>2012-09-07T08:53:32Z</time>
      </trkpt>
      <trkpt lat="45.99661" lon="1.36757">
        <ele>544</ele>
        <time>2012-09-07T08:53:36Z</time>
      </trkpt>
      <trkpt lat="45.99667" lon="1.36756">
        <ele>543.8</ele>
        <time>2012-09-07T08:53:38Z</time>
      </trkpt>
      <trkpt lat="45.99683" lon="1.36761">
        <ele>543.8</ele>
        <time>2012-09-07T08:53:43Z</time>
      </trkpt>
      <trkpt lat="45.99698" lon="1.3676">
        <ele>543.8</ele>
        <time>2012-09-07T08:53:48Z</time>
      </trkpt>
      <trkpt lat="45.9971" lon="1.36754">
        <ele>544.2</ele>
        <time>2012-09-07T08:53:53Z</time>
      </trkpt>
      <trkpt lat="45.99711" lon="1.36751">
        <ele>544.2</ele>
        <time>2012-09-07T08:53:54Z</time>
      </trkpt>
      <trkpt lat="45.99719" lon="1.36744">
        <ele>545</ele>
        <time>2012-09-07T08:53:59Z</time>
      </trkpt>
      <trkpt lat="45.99731" lon="1.36739">
        <ele>545.8</ele>
        <time>2012-09-07T08:54:04Z</time>
      </trkpt>
      <trkpt lat="45.99739" lon="1.36736">
        <ele>546.4</ele>
        <time>2012-09-07T08:54:07Z</time>
      </trkpt>
      <trkpt lat="45.99741" lon="1.36734">
        <ele>546.6</ele>
        <time>2012-09-07T08:54:08Z</time>
      </trkpt>
      <trkpt lat="45.99744" lon="1.36723">
        <ele>547.2</ele>
        <time>2012-09-07T08:54:11Z</time>
      </trkpt>
      <trkpt lat="45.99745" lon="1.36716">
        <ele>547.2</ele>
        <time>2012-09-07T08:54:13Z</time>
      </trkpt>
      <trkpt lat="45.99748" lon="1.36694">
        <ele>548.2</ele>
        <time>2012-09-07T08:54:19Z</time>
      </trkpt>
      <trkpt lat="45.9975" lon="1.36672">
        <ele>548.8</ele>
        <time>2012-09-07T08:54:25Z</time>
      </trkpt>
      <trkpt lat="45.99751" lon="1.3665">
        <ele>549.2</ele>
        <time>2012-09-07T08:54:30Z</time>
      </trkpt>
      <trkpt lat="45.99753" lon="1.36621">
        <ele>549.8</ele>
        <time>2012-09-07T08:54:36Z</time>
      </trkpt>
      <trkpt lat="45.99755" lon="1.36595">
        <ele>550</ele>
        <time>2012-09-07T08:54:41Z</time>
      </trkpt>
      <trkpt lat="45.99756" lon="1.3659">
        <ele>550</ele>
        <time>2012-09-07T08:54:42Z</time>
      </trkpt>
      <trkpt lat="45.9976" lon="1.36563">
        <ele>549.8</ele>
        <time>2012-09-07T08:54:47Z</time>
      </trkpt>
      <trkpt lat="45.99764" lon="1.36554">
        <ele>549.8</ele>
        <time>2012-09-07T08:54:49Z</time>
      </trkpt>
      <trkpt lat="45.99767" lon="1.36536">
        <ele>549.6</ele>
        <time>2012-09-07T08:54:53Z</time>
      </trkpt>
      <trkpt lat="45.99774" lon="1.36513">
        <ele>549.4</ele>
        <time>2012-09-07T08:54:58Z</time>
      </trkpt>
      <trkpt lat="45.9978" lon="1.3649">
        <ele>549.4</ele>
        <time>2012-09-07T08:55:03Z</time>
      </trkpt>
      <trkpt lat="45.9978" lon="1.36467">
        <ele>549.4</ele>
        <time>2012-09-07T08:55:08Z</time>
      </trkpt>
      <trkpt lat="45.99776" lon="1.36451">
        <ele>549.2</ele>
        <time>2012-09-07T08:55:12Z</time>
      </trkpt>
      <trkpt lat="45.99773" lon="1.36431">
        <ele>549.2</ele>
        <time>2012-09-07T08:55:16Z</time>
      </trkpt>
      <trkpt lat="45.99769" lon="1.36407">
        <ele>549.2</ele>
        <time>2012-09-07T08:55:20Z</time>
      </trkpt>
      <trkpt lat="45.99768" lon="1.36379">
        <ele>548.8</ele>
        <time>2012-09-07T08:55:24Z</time>
      </trkpt>
      <trkpt lat="45.99769" lon="1.36372">
        <ele>548.8</ele>
        <time>2012-09-07T08:55:25Z</time>
      </trkpt>
      <trkpt lat="45.99771" lon="1.36344">
        <ele>548.6</ele>
        <time>2012-09-07T08:55:29Z</time>
      </trkpt>
      <trkpt lat="45.99771" lon="1.36338">
        <ele>548.6</ele>
        <time>2012-09-07T08:55:30Z</time>
      </trkpt>
      <trkpt lat="45.99773" lon="1.36324">
        <ele>548.4</ele>
        <time>2012-09-07T08:55:32Z</time>
      </trkpt>
      <trkpt lat="45.99776" lon="1.36311">
        <ele>548.2</ele>
        <time>2012-09-07T08:55:34Z</time>
      </trkpt>
      <trkpt lat="45.99778" lon="1.36298">
        <ele>548</ele>
        <time>2012-09-07T08:55:36Z</time>
      </trkpt>
      <trkpt lat="45.9978" lon="1.36284">
        <ele>547.8</ele>
        <time>2012-09-07T08:55:38Z</time>
      </trkpt>
      <trkpt lat="45.99781" lon="1.36277">
        <ele>547.8</ele>
        <time>2012-09-07T08:55:39Z</time>
      </trkpt>
      <trkpt lat="45.99782" lon="1.3626">
        <ele>547.6</ele>
        <time>2012-09-07T08:55:41Z</time>
      </trkpt>
      <trkpt lat="45.99782" lon="1.36252">
        <ele>547.6</ele>
        <time>2012-09-07T08:55:42Z</time>
      </trkpt>
      <trkpt lat="45.99782" lon="1.36224">
        <ele>547.2</ele>
        <time>2012-09-07T08:55:45Z</time>
      </trkpt>
      <trkpt lat="45.99781" lon="1.36205">
        <ele>547.2</ele>
        <time>2012-09-07T08:55:47Z</time>
      </trkpt>
      <trkpt lat="45.99783" lon="1.36189">
        <ele>547</ele>
        <time>2012-09-07T08:55:49Z</time>
      </trkpt>
      <trkpt lat="45.99789" lon="1.36174">
        <ele>546.6</ele>
        <time>2012-09-07T08:55:51Z</time>
      </trkpt>
      <trkpt lat="45.99796" lon="1.36162">
        <ele>546.4</ele>
        <time>2012-09-07T08:55:53Z</time>
      </trkpt>
      <trkpt lat="45.99808" lon="1.36138">
        <ele>546</ele>
        <time>2012-09-07T08:55:57Z</time>
      </trkpt>
      <trkpt lat="45.99813" lon="1.3611">
        <ele>545.4</ele>
        <time>2012-09-07T08:56:02Z</time>
      </trkpt>
      <trkpt lat="45.99813" lon="1.36105">
        <ele>545.4</ele>
        <time>2012-09-07T08:56:03Z</time>
      </trkpt>
      <trkpt lat="45.99814" lon="1.3608">
        <ele>544.8</ele>
        <time>2012-09-07T08:56:08Z</time>
      </trkpt>
      <trkpt lat="45.99818" lon="1.36061">
        <ele>544.2</ele>
        <time>2012-09-07T08:56:14Z</time>
      </trkpt>
      <trkpt lat="45.99827" lon="1.36061">
        <ele>543.8</ele>
        <time>2012-09-07T08:56:19Z</time>
      </trkpt>
      <trkpt lat="45.99829" lon="1.36061">
        <ele>543.8</ele>
        <time>2012-09-07T08:56:20Z</time>
      </trkpt>
      <trkpt lat="45.99843" lon="1.36058">
        <ele>543.4</ele>
        <time>2012-09-07T08:56:25Z</time>
      </trkpt>
      <trkpt lat="45.99861" lon="1.36048">
        <ele>543</ele>
        <time>2012-09-07T08:56:31Z</time>
      </trkpt>
      <trkpt lat="45.99864" lon="1.36046">
        <ele>543</ele>
        <time>2012-09-07T08:56:32Z</time>
      </trkpt>
      <trkpt lat="45.99881" lon="1.36034">
        <ele>542.6</ele>
        <time>2012-09-07T08:56:38Z</time>
      </trkpt>
      <trkpt lat="45.99888" lon="1.36025">
        <ele>542.4</ele>
        <time>2012-09-07T08:56:41Z</time>
      </trkpt>
      <trkpt lat="45.999" lon="1.36001">
        <ele>542.2</ele>
        <time>2012-09-07T08:56:47Z</time>
      </trkpt>
      <trkpt lat="45.99902" lon="1.35996">
        <ele>542.2</ele>
        <time>2012-09-07T08:56:48Z</time>
      </trkpt>
      <trkpt lat="45.9991" lon="1.35977">
        <ele>542.6</ele>
        <time>2012-09-07T08:56:54Z</time>
      </trkpt>
      <trkpt lat="45.99911" lon="1.35978">
        <ele>542.4</ele>
        <time>2012-09-07T08:56:58Z</time>
      </trkpt>
      <trkpt lat="45.99915" lon="1.35981">
        <ele>543</ele>
        <time>2012-09-07T08:57:02Z</time>
      </trkpt>
      <trkpt lat="45.99916" lon="1.35982">
        <ele>543</ele>
        <time>2012-09-07T08:57:04Z</time>
      </trkpt>
      <trkpt lat="45.99918" lon="1.35983">
        <ele>543.2</ele>
        <time>2012-09-07T08:57:09Z</time>
      </trkpt>
      <trkpt lat="45.99922" lon="1.35986">
        <ele>543.4</ele>
        <time>2012-09-07T08:57:15Z</time>
      </trkpt>
      <trkpt lat="45.99925" lon="1.35994">
        <ele>543.6</ele>
        <time>2012-09-07T08:57:21Z</time>
      </trkpt>
      <trkpt lat="45.99926" lon="1.35996">
        <ele>544</ele>
        <time>2012-09-07T08:57:27Z</time>
      </trkpt>
      <trkpt lat="45.99927" lon="1.36001">
        <ele>544.6</ele>
        <time>2012-09-07T08:57:31Z</time>
      </trkpt>
      <trkpt lat="45.99927" lon="1.36006">
        <ele>545</ele>
        <time>2012-09-07T08:57:33Z</time>
      </trkpt>
      <trkpt lat="45.99926" lon="1.36013">
        <ele>545.6</ele>
        <time>2012-09-07T08:57:36Z</time>
      </trkpt>
      <trkpt lat="45.99927" lon="1.3602">
        <ele>546.2</ele>
        <time>2012-09-07T08:57:39Z</time>
      </trkpt>
      <trkpt lat="45.99927" lon="1.36027">
        <ele>547</ele>
        <time>2012-09-07T08:57:43Z</time>
      </trkpt>
      <trkpt lat="45.99928" lon="1.3603">
        <ele>547.4</ele>
        <time>2012-09-07T08:57:44Z</time>
      </trkpt>
      <trkpt lat="45.99929" lon="1.36033">
        <ele>547.8</ele>
        <time>2012-09-07T08:57:46Z</time>
      </trkpt>
      <trkpt lat="45.99927" lon="1.36038">
        <ele>548.8</ele>
        <time>2012-09-07T08:57:50Z</time>
      </trkpt>
      <trkpt lat="45.99927" lon="1.36041">
        <ele>549.8</ele>
        <time>2012-09-07T08:57:53Z</time>
      </trkpt>
      <trkpt lat="45.99929" lon="1.36045">
        <ele>551.2</ele>
        <time>2012-09-07T08:57:58Z</time>
      </trkpt>
      <trkpt lat="45.99931" lon="1.36051">
        <ele>552.4</ele>
        <time>2012-09-07T08:58:02Z</time>
      </trkpt>
      <trkpt lat="45.99931" lon="1.36053">
        <ele>553.2</ele>
        <time>2012-09-07T08:58:04Z</time>
      </trkpt>
      <trkpt lat="45.99932" lon="1.36058">
        <ele>554</ele>
        <time>2012-09-07T08:58:07Z</time>
      </trkpt>
      <trkpt lat="45.99933" lon="1.36062">
        <ele>555</ele>
        <time>2012-09-07T08:58:10Z</time>
      </trkpt>
      <trkpt lat="45.99934" lon="1.36065">
        <ele>557.6</ele>
        <time>2012-09-07T08:58:17Z</time>
      </trkpt>
      <trkpt lat="45.99935" lon="1.36071">
        <ele>558.8</ele>
        <time>2012-09-07T08:58:21Z</time>
      </trkpt>
      <trkpt lat="45.99936" lon="1.36073">
        <ele>559.4</ele>
        <time>2012-09-07T08:58:23Z</time>
      </trkpt>
      <trkpt lat="45.99936" lon="1.36078">
        <ele>560.8</ele>
        <time>2012-09-07T08:58:29Z</time>
      </trkpt>
      <trkpt lat="45.99932" lon="1.36084">
        <ele>561.6</ele>
        <time>2012-09-07T08:58:33Z</time>
      </trkpt>
      <trkpt lat="45.9993" lon="1.36087">
        <ele>561.6</ele>
        <time>2012-09-07T08:58:34Z</time>
      </trkpt>
      <trkpt lat="45.99927" lon="1.36098">
        <ele>561.6</ele>
        <time>2012-09-07T08:58:37Z</time>
      </trkpt>
      <trkpt lat="45.99926" lon="1.36104">
        <ele>561.8</ele>
        <time>2012-09-07T08:58:39Z</time>
      </trkpt>
      <trkpt lat="45.99925" lon="1.36107">
        <ele>562</ele>
        <time>2012-09-07T08:58:40Z</time>
      </trkpt>
      <trkpt lat="45.99917" lon="1.36122">
        <ele>563</ele>
        <time>2012-09-07T08:58:44Z</time>
      </trkpt>
      <trkpt lat="45.99917" lon="1.36124">
        <ele>563.2</ele>
        <time>2012-09-07T08:58:45Z</time>
      </trkpt>
      <trkpt lat="45.99917" lon="1.36128">
        <ele>563.6</ele>
        <time>2012-09-07T08:58:47Z</time>
      </trkpt>
      <trkpt lat="45.99918" lon="1.36132">
        <ele>563.6</ele>
        <time>2012-09-07T08:58:49Z</time>
      </trkpt>
      <trkpt lat="45.99916" lon="1.36141">
        <ele>563.8</ele>
        <time>2012-09-07T08:58:53Z</time>
      </trkpt>
      <trkpt lat="45.99915" lon="1.36143">
        <ele>564</ele>
        <time>2012-09-07T08:58:54Z</time>
      </trkpt>
      <trkpt lat="45.99906" lon="1.36157">
        <ele>564</ele>
        <time>2012-09-07T08:58:59Z</time>
      </trkpt>
      <trkpt lat="45.99895" lon="1.36178">
        <ele>563.6</ele>
        <time>2012-09-07T08:59:04Z</time>
      </trkpt>
      <trkpt lat="45.99894" lon="1.3618">
        <ele>563.6</ele>
        <time>2012-09-07T08:59:07Z</time>
      </trkpt>
      <trkpt lat="45.99895" lon="1.36185">
        <ele>563.4</ele>
        <time>2012-09-07T08:59:13Z</time>
      </trkpt>
      <trkpt lat="45.99897" lon="1.36194">
        <ele>563.8</ele>
        <time>2012-09-07T08:59:18Z</time>
      </trkpt>
      <trkpt lat="45.99898" lon="1.36195">
        <ele>564</ele>
        <time>2012-09-07T08:59:19Z</time>
      </trkpt>
      <trkpt lat="45.99899" lon="1.36201">
        <ele>564.8</ele>
        <time>2012-09-07T08:59:23Z</time>
      </trkpt>
      <trkpt lat="45.99903" lon="1.3621">
        <ele>566.2</ele>
        <time>2012-09-07T08:59:28Z</time>
      </trkpt>
      <trkpt lat="45.99904" lon="1.36215">
        <ele>567.4</ele>
        <time>2012-09-07T08:59:31Z</time>
      </trkpt>
      <trkpt lat="45.99906" lon="1.36217">
        <ele>568.2</ele>
        <time>2012-09-07T08:59:33Z</time>
      </trkpt>
      <trkpt lat="45.99909" lon="1.3622">
        <ele>570.4</ele>
        <time>2012-09-07T08:59:37Z</time>
      </trkpt>
      <trkpt lat="45.99909" lon="1.3622">
        <ele>571</ele>
        <time>2012-09-07T08:59:38Z</time>
      </trkpt>
      <trkpt lat="45.99913" lon="1.36222">
        <ele>573.4</ele>
        <time>2012-09-07T08:59:42Z</time>
      </trkpt>
      <trkpt lat="45.99914" lon="1.36222">
        <ele>574</ele>
        <time>2012-09-07T08:59:43Z</time>
      </trkpt>
      <trkpt lat="45.9992" lon="1.36227">
        <ele>577.6</ele>
        <time>2012-09-07T08:59:51Z</time>
      </trkpt>
      <trkpt lat="45.99923" lon="1.36232">
        <ele>580</ele>
        <time>2012-09-07T08:59:56Z</time>
      </trkpt>
      <trkpt lat="45.99925" lon="1.36235">
        <ele>581.6</ele>
        <time>2012-09-07T09:00:00Z</time>
      </trkpt>
      <trkpt lat="45.99926" lon="1.36237">
        <ele>582.4</ele>
        <time>2012-09-07T09:00:02Z</time>
      </trkpt>
      <trkpt lat="45.99928" lon="1.36239">
        <ele>583.4</ele>
        <time>2012-09-07T09:00:05Z</time>
      </trkpt>
      <trkpt lat="45.9993" lon="1.36244">
        <ele>584.8</ele>
        <time>2012-09-07T09:00:11Z</time>
      </trkpt>
      <trkpt lat="45.99929" lon="1.3625">
        <ele>585.4</ele>
        <time>2012-09-07T09:00:16Z</time>
      </trkpt>
      <trkpt lat="45.99928" lon="1.36253">
        <ele>585.4</ele>
        <time>2012-09-07T09:00:17Z</time>
      </trkpt>
      <trkpt lat="45.99929" lon="1.36266">
        <ele>586</ele>
        <time>2012-09-07T09:00:23Z</time>
      </trkpt>
      <trkpt lat="45.99936" lon="1.36269">
        <ele>585.8</ele>
        <time>2012-09-07T09:00:27Z</time>
      </trkpt>
      <trkpt lat="45.99937" lon="1.36269">
        <ele>585.8</ele>
        <time>2012-09-07T09:00:28Z</time>
      </trkpt>
      <trkpt lat="45.99944" lon="1.36271">
        <ele>585.8</ele>
        <time>2012-09-07T09:00:32Z</time>
      </trkpt>
      <trkpt lat="45.99947" lon="1.3627">
        <ele>585.8</ele>
        <time>2012-09-07T09:00:33Z</time>
      </trkpt>
      <trkpt lat="45.99958" lon="1.36267">
        <ele>585.8</ele>
        <time>2012-09-07T09:00:38Z</time>
      </trkpt>
      <trkpt lat="45.9997" lon="1.36266">
        <ele>586</ele>
        <time>2012-09-07T09:00:43Z</time>
      </trkpt>
      <trkpt lat="45.99982" lon="1.36265">
        <ele>585.4</ele>
        <time>2012-09-07T09:00:57Z</time>
      </trkpt>
      <trkpt lat="45.99984" lon="1.36266">
        <ele>585.4</ele>
        <time>2012-09-07T09:00:59Z</time>
      </trkpt>
      <trkpt lat="45.99985" lon="1.36267">
        <ele>585.4</ele>
        <time>2012-09-07T09:01:00Z</time>
      </trkpt>
      <trkpt lat="45.99987" lon="1.36271">
        <ele>585.6</ele>
        <time>2012-09-07T09:01:04Z</time>
      </trkpt>
      <trkpt lat="45.99988" lon="1.36276">
        <ele>586.6</ele>
        <time>2012-09-07T09:01:08Z</time>
      </trkpt>
      <trkpt lat="45.99988" lon="1.3628">
        <ele>587.6</ele>
        <time>2012-09-07T09:01:13Z</time>
      </trkpt>
      <trkpt lat="45.9999" lon="1.36283">
        <ele>589.8</ele>
        <time>2012-09-07T09:01:18Z</time>
      </trkpt>
      <trkpt lat="45.99993" lon="1.36287">
        <ele>592.2</ele>
        <time>2012-09-07T09:01:26Z</time>
      </trkpt>
      <trkpt lat="45.99999" lon="1.36286">
        <ele>594.6</ele>
        <time>2012-09-07T09:01:34Z</time>
      </trkpt>
      <trkpt lat="46.00006" lon="1.36284">
        <ele>601.6</ele>
        <time>2012-09-07T09:02:04Z</time>
      </trkpt>
      <trkpt lat="46.00006" lon="1.36281">
        <ele>601</ele>
        <time>2012-09-07T09:02:09Z</time>
      </trkpt>
      <trkpt lat="46.00009" lon="1.36286">
        <ele>599.4</ele>
        <time>2012-09-07T09:02:25Z</time>
      </trkpt>
      <trkpt lat="46.00013" lon="1.36291">
        <ele>598.4</ele>
        <time>2012-09-07T09:02:31Z</time>
      </trkpt>
      <trkpt lat="46.00021" lon="1.36294">
        <ele>596.6</ele>
        <time>2012-09-07T09:02:41Z</time>
      </trkpt>
      <trkpt lat="46.00034" lon="1.36296">
        <ele>582.8</ele>
        <time>2012-09-07T09:04:10Z</time>
      </trkpt>
      <trkpt lat="46.00037" lon="1.36297">
        <ele>582.2</ele>
        <time>2012-09-07T09:04:15Z</time>
      </trkpt>
      <trkpt lat="46.00039" lon="1.36297">
        <ele>582</ele>
        <time>2012-09-07T09:04:16Z</time>
      </trkpt>
      <trkpt lat="46.00042" lon="1.36298">
        <ele>581.8</ele>
        <time>2012-09-07T09:04:19Z</time>
      </trkpt>
      <trkpt lat="46.00047" lon="1.36298">
        <ele>581.6</ele>
        <time>2012-09-07T09:04:22Z</time>
      </trkpt>
      <trkpt lat="46.00056" lon="1.363">
        <ele>581.2</ele>
        <time>2012-09-07T09:04:27Z</time>
      </trkpt>
      <trkpt lat="46.00063" lon="1.36303">
        <ele>581</ele>
        <time>2012-09-07T09:04:31Z</time>
      </trkpt>
      <trkpt lat="46.0007" lon="1.36306">
        <ele>580.6</ele>
        <time>2012-09-07T09:04:36Z</time>
      </trkpt>
      <trkpt lat="46.00075" lon="1.36308">
        <ele>580.4</ele>
        <time>2012-09-07T09:04:40Z</time>
      </trkpt>
      <trkpt lat="46.00078" lon="1.36308">
        <ele>580.4</ele>
        <time>2012-09-07T09:04:44Z</time>
      </trkpt>
      <trkpt lat="46.00079" lon="1.36308">
        <ele>580.4</ele>
        <time>2012-09-07T09:04:45Z</time>
      </trkpt>
      <trkpt lat="46.00083" lon="1.36309">
        <ele>580.2</ele>
        <time>2012-09-07T09:04:47Z</time>
      </trkpt>
      <trkpt lat="46.00086" lon="1.36309">
        <ele>580.2</ele>
        <time>2012-09-07T09:04:49Z</time>
      </trkpt>
      <trkpt lat="46.00088" lon="1.36309">
        <ele>580.2</ele>
        <time>2012-09-07T09:04:50Z</time>
      </trkpt>
      <trkpt lat="46.00092" lon="1.36303">
        <ele>580.2</ele>
        <time>2012-09-07T09:04:53Z</time>
      </trkpt>
      <trkpt lat="46.00098" lon="1.36293">
        <ele>580</ele>
        <time>2012-09-07T09:04:58Z</time>
      </trkpt>
      <trkpt lat="46.00102" lon="1.36287">
        <ele>580</ele>
        <time>2012-09-07T09:05:00Z</time>
      </trkpt>
      <trkpt lat="46.00108" lon="1.36278">
        <ele>580</ele>
        <time>2012-09-07T09:05:03Z</time>
      </trkpt>
      <trkpt lat="46.00115" lon="1.36267">
        <ele>580</ele>
        <time>2012-09-07T09:05:07Z</time>
      </trkpt>
      <trkpt lat="46.00117" lon="1.36268">
        <ele>579.8</ele>
        <time>2012-09-07T09:05:08Z</time>
      </trkpt>
      <trkpt lat="46.00124" lon="1.36271">
        <ele>579.8</ele>
        <time>2012-09-07T09:05:10Z</time>
      </trkpt>
      <trkpt lat="46.00133" lon="1.36279">
        <ele>579.4</ele>
        <time>2012-09-07T09:05:13Z</time>
      </trkpt>
      <trkpt lat="46.00142" lon="1.36284">
        <ele>578.8</ele>
        <time>2012-09-07T09:05:16Z</time>
      </trkpt>
      <trkpt lat="46.00147" lon="1.36285">
        <ele>578.8</ele>
        <time>2012-09-07T09:05:17Z</time>
      </trkpt>
      <trkpt lat="46.0016" lon="1.36287">
        <ele>578</ele>
        <time>2012-09-07T09:05:21Z</time>
      </trkpt>
      <trkpt lat="46.00168" lon="1.36288">
        <ele>577.2</ele>
        <time>2012-09-07T09:05:26Z</time>
      </trkpt>
      <trkpt lat="46.00169" lon="1.3629">
        <ele>577</ele>
        <time>2012-09-07T09:05:27Z</time>
      </trkpt>
      <trkpt lat="46.00173" lon="1.36293">
        <ele>576.2</ele>
        <time>2012-09-07T09:05:31Z</time>
      </trkpt>
      <trkpt lat="46.00173" lon="1.36293">
        <ele>576</ele>
        <time>2012-09-07T09:05:32Z</time>
      </trkpt>
      <trkpt lat="46.00171" lon="1.36294">
        <ele>574.8</ele>
        <time>2012-09-07T09:05:38Z</time>
      </trkpt>
      <trkpt lat="46.0017" lon="1.363">
        <ele>573.8</ele>
        <time>2012-09-07T09:05:44Z</time>
      </trkpt>
      <trkpt lat="46.00168" lon="1.36305">
        <ele>572.8</ele>
        <time>2012-09-07T09:05:49Z</time>
      </trkpt>
      <trkpt lat="46.00167" lon="1.36306">
        <ele>572.6</ele>
        <time>2012-09-07T09:05:50Z</time>
      </trkpt>
      <trkpt lat="46.00165" lon="1.36315">
        <ele>571.8</ele>
        <time>2012-09-07T09:05:54Z</time>
      </trkpt>
      <trkpt lat="46.00165" lon="1.36322">
        <ele>571.2</ele>
        <time>2012-09-07T09:05:58Z</time>
      </trkpt>
      <trkpt lat="46.00165" lon="1.36323">
        <ele>571</ele>
        <time>2012-09-07T09:05:59Z</time>
      </trkpt>
      <trkpt lat="46.00164" lon="1.36331">
        <ele>570.4</ele>
        <time>2012-09-07T09:06:04Z</time>
      </trkpt>
      <trkpt lat="46.00164" lon="1.36333">
        <ele>570.2</ele>
        <time>2012-09-07T09:06:05Z</time>
      </trkpt>
      <trkpt lat="46.00167" lon="1.36342">
        <ele>569.8</ele>
        <time>2012-09-07T09:06:10Z</time>
      </trkpt>
      <trkpt lat="46.00166" lon="1.36354">
        <ele>569</ele>
        <time>2012-09-07T09:06:17Z</time>
      </trkpt>
      <trkpt lat="46.00166" lon="1.36358">
        <ele>568.8</ele>
        <time>2012-09-07T09:06:19Z</time>
      </trkpt>
      <trkpt lat="46.00166" lon="1.36363">
        <ele>568.6</ele>
        <time>2012-09-07T09:06:22Z</time>
      </trkpt>
      <trkpt lat="46.00168" lon="1.36367">
        <ele>568.4</ele>
        <time>2012-09-07T09:06:25Z</time>
      </trkpt>
      <trkpt lat="46.00171" lon="1.36372">
        <ele>568</ele>
        <time>2012-09-07T09:06:31Z</time>
      </trkpt>
      <trkpt lat="46.00172" lon="1.36375">
        <ele>568</ele>
        <time>2012-09-07T09:06:33Z</time>
      </trkpt>
      <trkpt lat="46.00173" lon="1.36376">
        <ele>567.8</ele>
        <time>2012-09-07T09:06:35Z</time>
      </trkpt>
      <trkpt lat="46.00174" lon="1.36378">
        <ele>567.6</ele>
        <time>2012-09-07T09:06:39Z</time>
      </trkpt>
      <trkpt lat="46.00179" lon="1.36381">
        <ele>567.4</ele>
        <time>2012-09-07T09:06:47Z</time>
      </trkpt>
      <trkpt lat="46.00186" lon="1.36386">
        <ele>567.2</ele>
        <time>2012-09-07T09:06:54Z</time>
      </trkpt>
      <trkpt lat="46.00193" lon="1.36391">
        <ele>567.2</ele>
        <time>2012-09-07T09:07:02Z</time>
      </trkpt>
      <trkpt lat="46.00198" lon="1.36397">
        <ele>567.4</ele>
        <time>2012-09-07T09:07:09Z</time>
      </trkpt>
      <trkpt lat="46.00203" lon="1.36399">
        <ele>567.4</ele>
        <time>2012-09-07T09:07:13Z</time>
      </trkpt>
      <trkpt lat="46.00212" lon="1.36404">
        <ele>568.2</ele>
        <time>2012-09-07T09:07:22Z</time>
      </trkpt>
      <trkpt lat="46.00213" lon="1.36405">
        <ele>568.4</ele>
        <time>2012-09-07T09:07:23Z</time>
      </trkpt>
      <trkpt lat="46.00214" lon="1.3641">
        <ele>569.2</ele>
        <time>2012-09-07T09:07:29Z</time>
      </trkpt>
      <trkpt lat="46.0022" lon="1.36419">
        <ele>569.8</ele>
        <time>2012-09-07T09:07:38Z</time>
      </trkpt>
      <trkpt lat="46.00218" lon="1.36429">
        <ele>568.8</ele>
        <time>2012-09-07T09:07:46Z</time>
      </trkpt>
      <trkpt lat="46.00218" lon="1.36438">
        <ele>568.4</ele>
        <time>2012-09-07T09:07:52Z</time>
      </trkpt>
      <trkpt lat="46.00218" lon="1.3644">
        <ele>568.2</ele>
        <time>2012-09-07T09:07:54Z</time>
      </trkpt>
      <trkpt lat="46.00221" lon="1.36444">
        <ele>568.2</ele>
        <time>2012-09-07T09:07:59Z</time>
      </trkpt>
      <trkpt lat="46.00222" lon="1.36444">
        <ele>568.2</ele>
        <time>2012-09-07T09:08:00Z</time>
      </trkpt>
      <trkpt lat="46.00223" lon="1.36443">
        <ele>568.2</ele>
        <time>2012-09-07T09:08:02Z</time>
      </trkpt>
      <trkpt lat="46.00227" lon="1.36443">
        <ele>568</ele>
        <time>2012-09-07T09:08:05Z</time>
      </trkpt>
      <trkpt lat="46.00238" lon="1.36439">
        <ele>568</ele>
        <time>2012-09-07T09:08:10Z</time>
      </trkpt>
      <trkpt lat="46.0025" lon="1.36439">
        <ele>568</ele>
        <time>2012-09-07T09:08:14Z</time>
      </trkpt>
      <trkpt lat="46.00253" lon="1.36439">
        <ele>568</ele>
        <time>2012-09-07T09:08:15Z</time>
      </trkpt>
      <trkpt lat="46.00264" lon="1.36443">
        <ele>568</ele>
        <time>2012-09-07T09:08:19Z</time>
      </trkpt>
      <trkpt lat="46.00282" lon="1.36447">
        <ele>568</ele>
        <time>2012-09-07T09:08:25Z</time>
      </trkpt>
      <trkpt lat="46.00285" lon="1.36448">
        <ele>568</ele>
        <time>2012-09-07T09:08:26Z</time>
      </trkpt>
      <trkpt lat="46.00301" lon="1.36447">
        <ele>568</ele>
        <time>2012-09-07T09:08:31Z</time>
      </trkpt>
      <trkpt lat="46.00314" lon="1.36447">
        <ele>567.8</ele>
        <time>2012-09-07T09:08:36Z</time>
      </trkpt>
      <trkpt lat="46.00319" lon="1.36447">
        <ele>567.6</ele>
        <time>2012-09-07T09:08:42Z</time>
      </trkpt>
      <trkpt lat="46.00328" lon="1.36446">
        <ele>570.2</ele>
        <time>2012-09-07T09:09:27Z</time>
      </trkpt>
      <trkpt lat="46.00329" lon="1.36444">
        <ele>570.2</ele>
        <time>2012-09-07T09:09:28Z</time>
      </trkpt>
      <trkpt lat="46.00333" lon="1.36439">
        <ele>570.2</ele>
        <time>2012-09-07T09:09:31Z</time>
      </trkpt>
      <trkpt lat="46.00338" lon="1.36438">
        <ele>570.2</ele>
        <time>2012-09-07T09:09:33Z</time>
      </trkpt>
      <trkpt lat="46.00345" lon="1.36445">
        <ele>570.2</ele>
        <time>2012-09-07T09:09:36Z</time>
      </trkpt>
      <trkpt lat="46.00348" lon="1.36448">
        <ele>570.2</ele>
        <time>2012-09-07T09:09:37Z</time>
      </trkpt>
      <trkpt lat="46.00359" lon="1.36459">
        <ele>570.2</ele>
        <time>2012-09-07T09:09:41Z</time>
      </trkpt>
      <trkpt lat="46.00374" lon="1.36481">
        <ele>569.8</ele>
        <time>2012-09-07T09:09:46Z</time>
      </trkpt>
      <trkpt lat="46.00384" lon="1.36506">
        <ele>569.2</ele>
        <time>2012-09-07T09:09:51Z</time>
      </trkpt>
      <trkpt lat="46.00384" lon="1.36512">
        <ele>569</ele>
        <time>2012-09-07T09:09:52Z</time>
      </trkpt>
      <trkpt lat="46.00381" lon="1.36534">
        <ele>568.2</ele>
        <time>2012-09-07T09:09:56Z</time>
      </trkpt>
      <trkpt lat="46.00376" lon="1.36555">
        <ele>567.4</ele>
        <time>2012-09-07T09:10:00Z</time>
      </trkpt>
      <trkpt lat="46.00373" lon="1.36561">
        <ele>567.2</ele>
        <time>2012-09-07T09:10:01Z</time>
      </trkpt>
      <trkpt lat="46.0037" lon="1.36575">
        <ele>566.6</ele>
        <time>2012-09-07T09:10:04Z</time>
      </trkpt>
      <trkpt lat="46.00366" lon="1.36596">
        <ele>565.8</ele>
        <time>2012-09-07T09:10:08Z</time>
      </trkpt>
      <trkpt lat="46.00362" lon="1.36616">
        <ele>564.6</ele>
        <time>2012-09-07T09:10:13Z</time>
      </trkpt>
      <trkpt lat="46.00359" lon="1.36642">
        <ele>563.4</ele>
        <time>2012-09-07T09:10:18Z</time>
      </trkpt>
      <trkpt lat="46.00358" lon="1.36655">
        <ele>563</ele>
        <time>2012-09-07T09:10:21Z</time>
      </trkpt>
      <trkpt lat="46.00354" lon="1.3667">
        <ele>562.2</ele>
        <time>2012-09-07T09:10:24Z</time>
      </trkpt>
      <trkpt lat="46.0035" lon="1.36697">
        <ele>561.4</ele>
        <time>2012-09-07T09:10:28Z</time>
      </trkpt>
      <trkpt lat="46.00344" lon="1.36723">
        <ele>560.2</ele>
        <time>2012-09-07T09:10:33Z</time>
      </trkpt>
      <trkpt lat="46.00336" lon="1.36747">
        <ele>558.8</ele>
        <time>2012-09-07T09:10:38Z</time>
      </trkpt>
      <trkpt lat="46.00334" lon="1.36753">
        <ele>558.2</ele>
        <time>2012-09-07T09:10:40Z</time>
      </trkpt>
      <trkpt lat="46.0033" lon="1.36775">
        <ele>556.6</ele>
        <time>2012-09-07T09:10:46Z</time>
      </trkpt>
      <trkpt lat="46.00325" lon="1.36801">
        <ele>555.4</ele>
        <time>2012-09-07T09:10:51Z</time>
      </trkpt>
      <trkpt lat="46.00324" lon="1.36811">
        <ele>555</ele>
        <time>2012-09-07T09:10:53Z</time>
      </trkpt>
      <trkpt lat="46.00319" lon="1.36842">
        <ele>554</ele>
        <time>2012-09-07T09:10:58Z</time>
      </trkpt>
      <trkpt lat="46.00319" lon="1.36865">
        <ele>553</ele>
        <time>2012-09-07T09:11:03Z</time>
      </trkpt>
      <trkpt lat="46.00322" lon="1.36884">
        <ele>552.2</ele>
        <time>2012-09-07T09:11:07Z</time>
      </trkpt>
      <trkpt lat="46.00323" lon="1.36903">
        <ele>551.2</ele>
        <time>2012-09-07T09:11:11Z</time>
      </trkpt>
      <trkpt lat="46.00326" lon="1.36909">
        <ele>550.2</ele>
        <time>2012-09-07T09:11:15Z</time>
      </trkpt>
      <trkpt lat="46.00326" lon="1.36905">
        <ele>545.6</ele>
        <time>2012-09-07T09:11:56Z</time>
      </trkpt>
      <trkpt lat="46.00321" lon="1.36909">
        <ele>544.4</ele>
        <time>2012-09-07T09:12:05Z</time>
      </trkpt>
      <trkpt lat="46.00319" lon="1.36912">
        <ele>544</ele>
        <time>2012-09-07T09:12:08Z</time>
      </trkpt>
      <trkpt lat="46.00319" lon="1.36917">
        <ele>543.4</ele>
        <time>2012-09-07T09:12:12Z</time>
      </trkpt>
      <trkpt lat="46.00317" lon="1.3692">
        <ele>543.2</ele>
        <time>2012-09-07T09:12:14Z</time>
      </trkpt>
      <trkpt lat="46.00317" lon="1.36923">
        <ele>542.8</ele>
        <time>2012-09-07T09:12:18Z</time>
      </trkpt>
      <trkpt lat="46.00318" lon="1.36926">
        <ele>542.4</ele>
        <time>2012-09-07T09:12:20Z</time>
      </trkpt>
      <trkpt lat="46.00318" lon="1.3693">
        <ele>542.2</ele>
        <time>2012-09-07T09:12:23Z</time>
      </trkpt>
      <trkpt lat="46.00315" lon="1.36932">
        <ele>541</ele>
        <time>2012-09-07T09:12:29Z</time>
      </trkpt>
      <trkpt lat="46.00314" lon="1.36939">
        <ele>539.8</ele>
        <time>2012-09-07T09:12:34Z</time>
      </trkpt>
      <trkpt lat="46.00315" lon="1.3695">
        <ele>538.8</ele>
        <time>2012-09-07T09:12:39Z</time>
      </trkpt>
      <trkpt lat="46.00314" lon="1.36955">
        <ele>538.4</ele>
        <time>2012-09-07T09:12:41Z</time>
      </trkpt>
      <trkpt lat="46.00311" lon="1.36965">
        <ele>537.2</ele>
        <time>2012-09-07T09:12:46Z</time>
      </trkpt>
      <trkpt lat="46.0031" lon="1.36968">
        <ele>536.8</ele>
        <time>2012-09-07T09:12:48Z</time>
      </trkpt>
      <trkpt lat="46.00308" lon="1.36986">
        <ele>535.4</ele>
        <time>2012-09-07T09:12:54Z</time>
      </trkpt>
      <trkpt lat="46.00308" lon="1.36989">
        <ele>535.2</ele>
        <time>2012-09-07T09:12:55Z</time>
      </trkpt>
      <trkpt lat="46.00306" lon="1.36995">
        <ele>534.6</ele>
        <time>2012-09-07T09:13:00Z</time>
      </trkpt>
      <trkpt lat="46.003" lon="1.37014">
        <ele>533.8</ele>
        <time>2012-09-07T09:13:06Z</time>
      </trkpt>
      <trkpt lat="46.00294" lon="1.37037">
        <ele>533.6</ele>
        <time>2012-09-07T09:13:10Z</time>
      </trkpt>
      <trkpt lat="46.00288" lon="1.37051">
        <ele>533.6</ele>
        <time>2012-09-07T09:13:14Z</time>
      </trkpt>
      <trkpt lat="46.00285" lon="1.3706">
        <ele>533.6</ele>
        <time>2012-09-07T09:13:17Z</time>
      </trkpt>
      <trkpt lat="46.00284" lon="1.37067">
        <ele>533.8</ele>
        <time>2012-09-07T09:13:19Z</time>
      </trkpt>
      <trkpt lat="46.00278" lon="1.37082">
        <ele>534.6</ele>
        <time>2012-09-07T09:13:24Z</time>
      </trkpt>
      <trkpt lat="46.00274" lon="1.37099">
        <ele>535.6</ele>
        <time>2012-09-07T09:13:30Z</time>
      </trkpt>
      <trkpt lat="46.00268" lon="1.37114">
        <ele>536.4</ele>
        <time>2012-09-07T09:13:36Z</time>
      </trkpt>
      <trkpt lat="46.00263" lon="1.37135">
        <ele>537.4</ele>
        <time>2012-09-07T09:13:41Z</time>
      </trkpt>
      <trkpt lat="46.00258" lon="1.37162">
        <ele>537.8</ele>
        <time>2012-09-07T09:13:46Z</time>
      </trkpt>
      <trkpt lat="46.0025" lon="1.37188">
        <ele>537.8</ele>
        <time>2012-09-07T09:13:50Z</time>
      </trkpt>
      <trkpt lat="46.00249" lon="1.37194">
        <ele>537.8</ele>
        <time>2012-09-07T09:13:51Z</time>
      </trkpt>
      <trkpt lat="46.00247" lon="1.372">
        <ele>537.8</ele>
        <time>2012-09-07T09:13:52Z</time>
      </trkpt>
      <trkpt lat="46.0024" lon="1.37215">
        <ele>537.8</ele>
        <time>2012-09-07T09:13:56Z</time>
      </trkpt>
      <trkpt lat="46.00235" lon="1.37223">
        <ele>537.8</ele>
        <time>2012-09-07T09:13:59Z</time>
      </trkpt>
      <trkpt lat="46.00232" lon="1.37225">
        <ele>537.8</ele>
        <time>2012-09-07T09:14:01Z</time>
      </trkpt>
      <trkpt lat="46.0022" lon="1.37228">
        <ele>537.6</ele>
        <time>2012-09-07T09:14:07Z</time>
      </trkpt>
      <trkpt lat="46.00214" lon="1.37234">
        <ele>537.6</ele>
        <time>2012-09-07T09:14:12Z</time>
      </trkpt>
      <trkpt lat="46.00213" lon="1.37234">
        <ele>537.6</ele>
        <time>2012-09-07T09:14:13Z</time>
      </trkpt>
      <trkpt lat="46.00205" lon="1.37239">
        <ele>537.4</ele>
        <time>2012-09-07T09:14:19Z</time>
      </trkpt>
      <trkpt lat="46.00198" lon="1.37241">
        <ele>537.8</ele>
        <time>2012-09-07T09:14:22Z</time>
      </trkpt>
      <trkpt lat="46.00192" lon="1.37244">
        <ele>537.6</ele>
        <time>2012-09-07T09:14:26Z</time>
      </trkpt>
      <trkpt lat="46.00188" lon="1.37247">
        <ele>537.4</ele>
        <time>2012-09-07T09:14:29Z</time>
      </trkpt>
      <trkpt lat="46.00185" lon="1.3725">
        <ele>537.4</ele>
        <time>2012-09-07T09:14:32Z</time>
      </trkpt>
      <trkpt lat="46.00176" lon="1.37258">
        <ele>537</ele>
        <time>2012-09-07T09:14:38Z</time>
      </trkpt>
      <trkpt lat="46.00169" lon="1.37264">
        <ele>537</ele>
        <time>2012-09-07T09:14:43Z</time>
      </trkpt>
      <trkpt lat="46.00159" lon="1.3728">
        <ele>537</ele>
        <time>2012-09-07T09:14:48Z</time>
      </trkpt>
      <trkpt lat="46.00145" lon="1.37303">
        <ele>536.6</ele>
        <time>2012-09-07T09:14:53Z</time>
      </trkpt>
      <trkpt lat="46.00134" lon="1.37324">
        <ele>536.4</ele>
        <time>2012-09-07T09:14:58Z</time>
      </trkpt>
      <trkpt lat="46.00121" lon="1.3735">
        <ele>536.8</ele>
        <time>2012-09-07T09:15:03Z</time>
      </trkpt>
      <trkpt lat="46.00119" lon="1.37357">
        <ele>536.8</ele>
        <time>2012-09-07T09:15:04Z</time>
      </trkpt>
      <trkpt lat="46.00117" lon="1.37364">
        <ele>536.8</ele>
        <time>2012-09-07T09:15:05Z</time>
      </trkpt>
      <trkpt lat="46.00109" lon="1.37389">
        <ele>537</ele>
        <time>2012-09-07T09:15:09Z</time>
      </trkpt>
      <trkpt lat="46.00108" lon="1.37395">
        <ele>537</ele>
        <time>2012-09-07T09:15:10Z</time>
      </trkpt>
      <trkpt lat="46.00099" lon="1.37417">
        <ele>537.2</ele>
        <time>2012-09-07T09:15:14Z</time>
      </trkpt>
      <trkpt lat="46.00093" lon="1.37443">
        <ele>537.2</ele>
        <time>2012-09-07T09:15:17Z</time>
      </trkpt>
      <trkpt lat="46.00091" lon="1.37452">
        <ele>537.2</ele>
        <time>2012-09-07T09:15:18Z</time>
      </trkpt>
      <trkpt lat="46.00089" lon="1.37458">
        <ele>537.6</ele>
        <time>2012-09-07T09:15:19Z</time>
      </trkpt>
      <trkpt lat="46.00087" lon="1.37473">
        <ele>537.6</ele>
        <time>2012-09-07T09:15:21Z</time>
      </trkpt>
      <trkpt lat="46.00086" lon="1.37488">
        <ele>537.2</ele>
        <time>2012-09-07T09:15:23Z</time>
      </trkpt>
      <trkpt lat="46.00085" lon="1.37511">
        <ele>537.2</ele>
        <time>2012-09-07T09:15:27Z</time>
      </trkpt>
      <trkpt lat="46.00079" lon="1.37525">
        <ele>537.2</ele>
        <time>2012-09-07T09:15:31Z</time>
      </trkpt>
      <trkpt lat="46.00085" lon="1.37538">
        <ele>537.4</ele>
        <time>2012-09-07T09:15:35Z</time>
      </trkpt>
      <trkpt lat="46.00092" lon="1.37541">
        <ele>537.2</ele>
        <time>2012-09-07T09:15:38Z</time>
      </trkpt>
      <trkpt lat="46.00094" lon="1.37541">
        <ele>537.2</ele>
        <time>2012-09-07T09:15:39Z</time>
      </trkpt>
      <trkpt lat="46.00097" lon="1.37541">
        <ele>537.2</ele>
        <time>2012-09-07T09:15:40Z</time>
      </trkpt>
      <trkpt lat="46.00108" lon="1.37542">
        <ele>537</ele>
        <time>2012-09-07T09:15:43Z</time>
      </trkpt>
      <trkpt lat="46.0012" lon="1.37535">
        <ele>536.6</ele>
        <time>2012-09-07T09:15:47Z</time>
      </trkpt>
      <trkpt lat="46.00127" lon="1.37531">
        <ele>536.6</ele>
        <time>2012-09-07T09:15:49Z</time>
      </trkpt>
      <trkpt lat="46.00136" lon="1.37521">
        <ele>536.6</ele>
        <time>2012-09-07T09:15:52Z</time>
      </trkpt>
      <trkpt lat="46.00151" lon="1.37507">
        <ele>536.4</ele>
        <time>2012-09-07T09:15:58Z</time>
      </trkpt>
      <trkpt lat="46.00153" lon="1.37506">
        <ele>536.4</ele>
        <time>2012-09-07T09:15:59Z</time>
      </trkpt>
      <trkpt lat="46.00156" lon="1.37507">
        <ele>536.2</ele>
        <time>2012-09-07T09:16:03Z</time>
      </trkpt>
      <trkpt lat="46.00163" lon="1.37501">
        <ele>536</ele>
        <time>2012-09-07T09:16:12Z</time>
      </trkpt>
      <trkpt lat="46.00173" lon="1.37492">
        <ele>536.2</ele>
        <time>2012-09-07T09:16:16Z</time>
      </trkpt>
      <trkpt lat="46.00181" lon="1.37486">
        <ele>536.2</ele>
        <time>2012-09-07T09:16:21Z</time>
      </trkpt>
      <trkpt lat="46.00193" lon="1.37487">
        <ele>535.4</ele>
        <time>2012-09-07T09:16:33Z</time>
      </trkpt>
      <trkpt lat="46.00195" lon="1.37494">
        <ele>536.4</ele>
        <time>2012-09-07T09:16:54Z</time>
      </trkpt>
      <trkpt lat="46.00201" lon="1.37497">
        <ele>536.6</ele>
        <time>2012-09-07T09:16:58Z</time>
      </trkpt>
      <trkpt lat="46.00206" lon="1.37495">
        <ele>536.4</ele>
        <time>2012-09-07T09:17:01Z</time>
      </trkpt>
      <trkpt lat="46.00208" lon="1.37496">
        <ele>536.4</ele>
        <time>2012-09-07T09:17:02Z</time>
      </trkpt>
      <trkpt lat="46.00211" lon="1.37496">
        <ele>536.2</ele>
        <time>2012-09-07T09:17:04Z</time>
      </trkpt>
      <trkpt lat="46.00215" lon="1.37498">
        <ele>536</ele>
        <time>2012-09-07T09:17:06Z</time>
      </trkpt>
      <trkpt lat="46.00218" lon="1.37497">
        <ele>535.8</ele>
        <time>2012-09-07T09:17:08Z</time>
      </trkpt>
      <trkpt lat="46.0022" lon="1.37494">
        <ele>535.4</ele>
        <time>2012-09-07T09:17:10Z</time>
      </trkpt>
      <trkpt lat="46.00226" lon="1.37497">
        <ele>534.6</ele>
        <time>2012-09-07T09:17:14Z</time>
      </trkpt>
      <trkpt lat="46.00226" lon="1.37497">
        <ele>534.4</ele>
        <time>2012-09-07T09:17:15Z</time>
      </trkpt>
      <trkpt lat="46.00229" lon="1.37498">
        <ele>533.6</ele>
        <time>2012-09-07T09:17:19Z</time>
      </trkpt>
      <trkpt lat="46.00232" lon="1.37498">
        <ele>532.8</ele>
        <time>2012-09-07T09:17:22Z</time>
      </trkpt>
      <trkpt lat="46.00234" lon="1.37497">
        <ele>532.6</ele>
        <time>2012-09-07T09:17:23Z</time>
      </trkpt>
      <trkpt lat="46.00238" lon="1.37497">
        <ele>531.2</ele>
        <time>2012-09-07T09:17:28Z</time>
      </trkpt>
      <trkpt lat="46.00245" lon="1.37493">
        <ele>529.2</ele>
        <time>2012-09-07T09:17:35Z</time>
      </trkpt>
      <trkpt lat="46.00249" lon="1.3749">
        <ele>528.6</ele>
        <time>2012-09-07T09:17:37Z</time>
      </trkpt>
      <trkpt lat="46.00255" lon="1.37483">
        <ele>527.6</ele>
        <time>2012-09-07T09:17:41Z</time>
      </trkpt>
      <trkpt lat="46.0026" lon="1.37481">
        <ele>527</ele>
        <time>2012-09-07T09:17:43Z</time>
      </trkpt>
      <trkpt lat="46.00267" lon="1.37477">
        <ele>526.2</ele>
        <time>2012-09-07T09:17:46Z</time>
      </trkpt>
      <trkpt lat="46.00274" lon="1.37474">
        <ele>525.2</ele>
        <time>2012-09-07T09:17:50Z</time>
      </trkpt>
      <trkpt lat="46.0029" lon="1.37465">
        <ele>524</ele>
        <time>2012-09-07T09:17:55Z</time>
      </trkpt>
      <trkpt lat="46.00308" lon="1.37456">
        <ele>522.6</ele>
        <time>2012-09-07T09:18:01Z</time>
      </trkpt>
      <trkpt lat="46.00324" lon="1.37443">
        <ele>521.2</ele>
        <time>2012-09-07T09:18:06Z</time>
      </trkpt>
      <trkpt lat="46.00328" lon="1.37441">
        <ele>520.8</ele>
        <time>2012-09-07T09:18:07Z</time>
      </trkpt>
      <trkpt lat="46.00346" lon="1.3743">
        <ele>519.2</ele>
        <time>2012-09-07T09:18:13Z</time>
      </trkpt>
      <trkpt lat="46.00358" lon="1.37426">
        <ele>517.2</ele>
        <time>2012-09-07T09:18:19Z</time>
      </trkpt>
      <trkpt lat="46.00358" lon="1.37427">
        <ele>516.8</ele>
        <time>2012-09-07T09:18:20Z</time>
      </trkpt>
      <trkpt lat="46.00359" lon="1.37427">
        <ele>515.4</ele>
        <time>2012-09-07T09:18:24Z</time>
      </trkpt>
      <trkpt lat="46.0036" lon="1.37433">
        <ele>507.4</ele>
        <time>2012-09-07T09:18:48Z</time>
      </trkpt>
      <trkpt lat="46.00361" lon="1.37435">
        <ele>505.6</ele>
        <time>2012-09-07T09:18:54Z</time>
      </trkpt>
      <trkpt lat="46.00362" lon="1.37436">
        <ele>504</ele>
        <time>2012-09-07T09:19:00Z</time>
      </trkpt>
      <trkpt lat="46.00362" lon="1.37436">
        <ele>500.8</ele>
        <time>2012-09-07T09:19:11Z</time>
      </trkpt>
      <trkpt lat="46.00363" lon="1.37439">
        <ele>499.4</ele>
        <time>2012-09-07T09:19:17Z</time>
      </trkpt>
      <trkpt lat="46.00366" lon="1.37445">
        <ele>498.4</ele>
        <time>2012-09-07T09:19:22Z</time>
      </trkpt>
      <trkpt lat="46.00371" lon="1.37453">
        <ele>497.4</ele>
        <time>2012-09-07T09:19:27Z</time>
      </trkpt>
      <trkpt lat="46.00372" lon="1.37454">
        <ele>497.4</ele>
        <time>2012-09-07T09:19:28Z</time>
      </trkpt>
      <trkpt lat="46.00375" lon="1.3746">
        <ele>497</ele>
        <time>2012-09-07T09:19:34Z</time>
      </trkpt>
      <trkpt lat="46.00372" lon="1.37472">
        <ele>497</ele>
        <time>2012-09-07T09:19:44Z</time>
      </trkpt>
      <trkpt lat="46.00372" lon="1.37474">
        <ele>497.2</ele>
        <time>2012-09-07T09:19:48Z</time>
      </trkpt>
      <trkpt lat="46.00377" lon="1.37474">
        <ele>497.4</ele>
        <time>2012-09-07T09:20:06Z</time>
      </trkpt>
      <trkpt lat="46.00379" lon="1.37475">
        <ele>497.4</ele>
        <time>2012-09-07T09:20:11Z</time>
      </trkpt>
      <trkpt lat="46.00377" lon="1.37479">
        <ele>498.4</ele>
        <time>2012-09-07T09:20:17Z</time>
      </trkpt>
      <trkpt lat="46.00375" lon="1.37485">
        <ele>499</ele>
        <time>2012-09-07T09:20:24Z</time>
      </trkpt>
      <trkpt lat="46.0037" lon="1.37488">
        <ele>500.4</ele>
        <time>2012-09-07T09:20:29Z</time>
      </trkpt>
      <trkpt lat="46.00368" lon="1.37492">
        <ele>501.4</ele>
        <time>2012-09-07T09:20:33Z</time>
      </trkpt>
      <trkpt lat="46.00367" lon="1.37499">
        <ele>505.4</ele>
        <time>2012-09-07T09:20:43Z</time>
      </trkpt>
      <trkpt lat="46.0037" lon="1.37505">
        <ele>513.2</ele>
        <time>2012-09-07T09:21:01Z</time>
      </trkpt>
      <trkpt lat="46.00376" lon="1.37513">
        <ele>518</ele>
        <time>2012-09-07T09:21:16Z</time>
      </trkpt>
      <trkpt lat="46.0038" lon="1.37516">
        <ele>518.6</ele>
        <time>2012-09-07T09:21:26Z</time>
      </trkpt>
      <trkpt lat="46.00383" lon="1.37518">
        <ele>518.4</ele>
        <time>2012-09-07T09:21:38Z</time>
      </trkpt>
      <trkpt lat="46.00384" lon="1.37519">
        <ele>518.4</ele>
        <time>2012-09-07T09:21:39Z</time>
      </trkpt>
      <trkpt lat="46.00385" lon="1.37521">
        <ele>518.2</ele>
        <time>2012-09-07T09:21:43Z</time>
      </trkpt>
      <trkpt lat="46.00387" lon="1.37526">
        <ele>517.6</ele>
        <time>2012-09-07T09:21:57Z</time>
      </trkpt>
      <trkpt lat="46.00389" lon="1.37525">
        <ele>517.4</ele>
        <time>2012-09-07T09:22:01Z</time>
      </trkpt>
      <trkpt lat="46.00393" lon="1.37525">
        <ele>517.4</ele>
        <time>2012-09-07T09:22:09Z</time>
      </trkpt>
      <trkpt lat="46.004" lon="1.37511">
        <ele>517.4</ele>
        <time>2012-09-07T09:22:19Z</time>
      </trkpt>
      <trkpt lat="46.00401" lon="1.37512">
        <ele>516.2</ele>
        <time>2012-09-07T09:22:22Z</time>
      </trkpt>
      <trkpt lat="46.00404" lon="1.37512">
        <ele>516</ele>
        <time>2012-09-07T09:22:24Z</time>
      </trkpt>
      <trkpt lat="46.0041" lon="1.37513">
        <ele>515.6</ele>
        <time>2012-09-07T09:22:26Z</time>
      </trkpt>
      <trkpt lat="46.00416" lon="1.37513">
        <ele>515</ele>
        <time>2012-09-07T09:22:30Z</time>
      </trkpt>
      <trkpt lat="46.00426" lon="1.37514">
        <ele>514.2</ele>
        <time>2012-09-07T09:22:34Z</time>
      </trkpt>
      <trkpt lat="46.00428" lon="1.37515">
        <ele>514</ele>
        <time>2012-09-07T09:22:35Z</time>
      </trkpt>
      <trkpt lat="46.00438" lon="1.37513">
        <ele>513</ele>
        <time>2012-09-07T09:22:40Z</time>
      </trkpt>
      <trkpt lat="46.0045" lon="1.3751">
        <ele>512</ele>
        <time>2012-09-07T09:22:45Z</time>
      </trkpt>
      <trkpt lat="46.0046" lon="1.37506">
        <ele>511.4</ele>
        <time>2012-09-07T09:22:49Z</time>
      </trkpt>
      <trkpt lat="46.00462" lon="1.37506">
        <ele>511</ele>
        <time>2012-09-07T09:22:50Z</time>
      </trkpt>
      <trkpt lat="46.0047" lon="1.37503">
        <ele>510.2</ele>
        <time>2012-09-07T09:22:55Z</time>
      </trkpt>
      <trkpt lat="46.00472" lon="1.37503">
        <ele>509.6</ele>
        <time>2012-09-07T09:22:57Z</time>
      </trkpt>
      <trkpt lat="46.00483" lon="1.37504">
        <ele>508.8</ele>
        <time>2012-09-07T09:23:01Z</time>
      </trkpt>
      <trkpt lat="46.0049" lon="1.37505">
        <ele>508.4</ele>
        <time>2012-09-07T09:23:04Z</time>
      </trkpt>
      <trkpt lat="46.00494" lon="1.37504">
        <ele>508</ele>
        <time>2012-09-07T09:23:07Z</time>
      </trkpt>
      <trkpt lat="46.00508" lon="1.37499">
        <ele>507.4</ele>
        <time>2012-09-07T09:23:16Z</time>
      </trkpt>
      <trkpt lat="46.00513" lon="1.37497">
        <ele>507.2</ele>
        <time>2012-09-07T09:23:19Z</time>
      </trkpt>
      <trkpt lat="46.00517" lon="1.37493">
        <ele>507.2</ele>
        <time>2012-09-07T09:23:22Z</time>
      </trkpt>
      <trkpt lat="46.00536" lon="1.37485">
        <ele>511.4</ele>
        <time>2012-09-07T09:23:37Z</time>
      </trkpt>
      <trkpt lat="46.00545" lon="1.37484">
        <ele>513.4</ele>
        <time>2012-09-07T09:23:43Z</time>
      </trkpt>
      <trkpt lat="46.00551" lon="1.37477">
        <ele>515.8</ele>
        <time>2012-09-07T09:23:48Z</time>
      </trkpt>
      <trkpt lat="46.00558" lon="1.37474">
        <ele>516.8</ele>
        <time>2012-09-07T09:23:53Z</time>
      </trkpt>
      <trkpt lat="46.00561" lon="1.37473">
        <ele>517.4</ele>
        <time>2012-09-07T09:23:55Z</time>
      </trkpt>
      <trkpt lat="46.00572" lon="1.37468">
        <ele>519.6</ele>
        <time>2012-09-07T09:24:03Z</time>
      </trkpt>
      <trkpt lat="46.00579" lon="1.37466">
        <ele>521</ele>
        <time>2012-09-07T09:24:08Z</time>
      </trkpt>
      <trkpt lat="46.00582" lon="1.37462">
        <ele>522.2</ele>
        <time>2012-09-07T09:24:11Z</time>
      </trkpt>
      <trkpt lat="46.00588" lon="1.37456">
        <ele>524.8</ele>
        <time>2012-09-07T09:24:17Z</time>
      </trkpt>
      <trkpt lat="46.00595" lon="1.37452">
        <ele>528.2</ele>
        <time>2012-09-07T09:24:23Z</time>
      </trkpt>
      <trkpt lat="46.00596" lon="1.37452">
        <ele>528.6</ele>
        <time>2012-09-07T09:24:24Z</time>
      </trkpt>
      <trkpt lat="46.0061" lon="1.3745">
        <ele>531.4</ele>
        <time>2012-09-07T09:24:34Z</time>
      </trkpt>
      <trkpt lat="46.00611" lon="1.37451">
        <ele>531.6</ele>
        <time>2012-09-07T09:24:35Z</time>
      </trkpt>
      <trkpt lat="46.00612" lon="1.37456">
        <ele>532.6</ele>
        <time>2012-09-07T09:24:38Z</time>
      </trkpt>
      <trkpt lat="46.00607" lon="1.37458">
        <ele>533.6</ele>
        <time>2012-09-07T09:24:44Z</time>
      </trkpt>
      <trkpt lat="46.00603" lon="1.37461">
        <ele>534.2</ele>
        <time>2012-09-07T09:24:50Z</time>
      </trkpt>
      <trkpt lat="46.00597" lon="1.37469">
        <ele>534.6</ele>
        <time>2012-09-07T09:24:58Z</time>
      </trkpt>
      <trkpt lat="46.00592" lon="1.37475">
        <ele>534</ele>
        <time>2012-09-07T09:25:05Z</time>
      </trkpt>
      <trkpt lat="46.00585" lon="1.37485">
        <ele>533.2</ele>
        <time>2012-09-07T09:25:12Z</time>
      </trkpt>
      <trkpt lat="46.00579" lon="1.37495">
        <ele>532.4</ele>
        <time>2012-09-07T09:25:19Z</time>
      </trkpt>
      <trkpt lat="46.00577" lon="1.37502">
        <ele>531.4</ele>
        <time>2012-09-07T09:25:25Z</time>
      </trkpt>
      <trkpt lat="46.00577" lon="1.37503">
        <ele>531.4</ele>
        <time>2012-09-07T09:25:26Z</time>
      </trkpt>
      <trkpt lat="46.00571" lon="1.37509">
        <ele>530.2</ele>
        <time>2012-09-07T09:25:32Z</time>
      </trkpt>
      <trkpt lat="46.0057" lon="1.37512">
        <ele>529.8</ele>
        <time>2012-09-07T09:25:34Z</time>
      </trkpt>
      <trkpt lat="46.00567" lon="1.37517">
        <ele>529</ele>
        <time>2012-09-07T09:25:38Z</time>
      </trkpt>
      <trkpt lat="46.00559" lon="1.37525">
        <ele>527.8</ele>
        <time>2012-09-07T09:25:45Z</time>
      </trkpt>
      <trkpt lat="46.00553" lon="1.37531">
        <ele>526.8</ele>
        <time>2012-09-07T09:25:52Z</time>
      </trkpt>
      <trkpt lat="46.00545" lon="1.3754">
        <ele>526.2</ele>
        <time>2012-09-07T09:25:58Z</time>
      </trkpt>
      <trkpt lat="46.00543" lon="1.37542">
        <ele>526.2</ele>
        <time>2012-09-07T09:25:59Z</time>
      </trkpt>
      <trkpt lat="46.00538" lon="1.37547">
        <ele>525.8</ele>
        <time>2012-09-07T09:26:04Z</time>
      </trkpt>
      <trkpt lat="46.00535" lon="1.37549">
        <ele>525.8</ele>
        <time>2012-09-07T09:26:07Z</time>
      </trkpt>
      <trkpt lat="46.00534" lon="1.37551">
        <ele>525.6</ele>
        <time>2012-09-07T09:26:08Z</time>
      </trkpt>
      <trkpt lat="46.00527" lon="1.37556">
        <ele>525.4</ele>
        <time>2012-09-07T09:26:12Z</time>
      </trkpt>
      <trkpt lat="46.00526" lon="1.37556">
        <ele>525.4</ele>
        <time>2012-09-07T09:26:13Z</time>
      </trkpt>
      <trkpt lat="46.00524" lon="1.3756">
        <ele>525.2</ele>
        <time>2012-09-07T09:26:16Z</time>
      </trkpt>
      <trkpt lat="46.00523" lon="1.37564">
        <ele>525</ele>
        <time>2012-09-07T09:26:19Z</time>
      </trkpt>
      <trkpt lat="46.00521" lon="1.37566">
        <ele>524.6</ele>
        <time>2012-09-07T09:26:21Z</time>
      </trkpt>
      <trkpt lat="46.00515" lon="1.37567">
        <ele>524</ele>
        <time>2012-09-07T09:26:25Z</time>
      </trkpt>
      <trkpt lat="46.00505" lon="1.37577">
        <ele>523.4</ele>
        <time>2012-09-07T09:26:32Z</time>
      </trkpt>
      <trkpt lat="46.00492" lon="1.37586">
        <ele>523.2</ele>
        <time>2012-09-07T09:26:39Z</time>
      </trkpt>
      <trkpt lat="46.00479" lon="1.37596">
        <ele>524.4</ele>
        <time>2012-09-07T09:26:47Z</time>
      </trkpt>
      <trkpt lat="46.00466" lon="1.37604">
        <ele>527.4</ele>
        <time>2012-09-07T09:26:54Z</time>
      </trkpt>
      <trkpt lat="46.00453" lon="1.37613">
        <ele>531</ele>
        <time>2012-09-07T09:27:03Z</time>
      </trkpt>
      <trkpt lat="46.00443" lon="1.37616">
        <ele>533.2</ele>
        <time>2012-09-07T09:27:09Z</time>
      </trkpt>
      <trkpt lat="46.00427" lon="1.37619">
        <ele>535.8</ele>
        <time>2012-09-07T09:27:17Z</time>
      </trkpt>
      <trkpt lat="46.00414" lon="1.37626">
        <ele>537.8</ele>
        <time>2012-09-07T09:27:24Z</time>
      </trkpt>
      <trkpt lat="46.00398" lon="1.37639">
        <ele>539.6</ele>
        <time>2012-09-07T09:27:32Z</time>
      </trkpt>
      <trkpt lat="46.00396" lon="1.3764">
        <ele>539.8</ele>
        <time>2012-09-07T09:27:33Z</time>
      </trkpt>
      <trkpt lat="46.00386" lon="1.37653">
        <ele>540.8</ele>
        <time>2012-09-07T09:27:41Z</time>
      </trkpt>
      <trkpt lat="46.0038" lon="1.37663">
        <ele>541.2</ele>
        <time>2012-09-07T09:27:48Z</time>
      </trkpt>
      <trkpt lat="46.00375" lon="1.37672">
        <ele>541.4</ele>
        <time>2012-09-07T09:27:54Z</time>
      </trkpt>
      <trkpt lat="46.00373" lon="1.37677">
        <ele>541.8</ele>
        <time>2012-09-07T09:28:00Z</time>
      </trkpt>
      <trkpt lat="46.00369" lon="1.37685">
        <ele>543.6</ele>
        <time>2012-09-07T09:28:21Z</time>
      </trkpt>
      <trkpt lat="46.00358" lon="1.377">
        <ele>544.2</ele>
        <time>2012-09-07T09:28:29Z</time>
      </trkpt>
      <trkpt lat="46.00354" lon="1.37715">
        <ele>545</ele>
        <time>2012-09-07T09:28:35Z</time>
      </trkpt>
      <trkpt lat="46.00359" lon="1.37726">
        <ele>546.2</ele>
        <time>2012-09-07T09:28:41Z</time>
      </trkpt>
      <trkpt lat="46.00363" lon="1.37727">
        <ele>547</ele>
        <time>2012-09-07T09:28:45Z</time>
      </trkpt>
      <trkpt lat="46.00365" lon="1.37727">
        <ele>547</ele>
        <time>2012-09-07T09:28:47Z</time>
      </trkpt>
      <trkpt lat="46.00367" lon="1.37726">
        <ele>547</ele>
        <time>2012-09-07T09:28:49Z</time>
      </trkpt>
      <trkpt lat="46.00373" lon="1.37723">
        <ele>547</ele>
        <time>2012-09-07T09:28:54Z</time>
      </trkpt>
      <trkpt lat="46.00378" lon="1.37721">
        <ele>546.8</ele>
        <time>2012-09-07T09:28:59Z</time>
      </trkpt>
      <trkpt lat="46.00379" lon="1.37721">
        <ele>547</ele>
        <time>2012-09-07T09:29:00Z</time>
      </trkpt>
      <trkpt lat="46.0038" lon="1.37721">
        <ele>547</ele>
        <time>2012-09-07T09:29:01Z</time>
      </trkpt>
      <trkpt lat="46.00386" lon="1.37719">
        <ele>546.8</ele>
        <time>2012-09-07T09:29:05Z</time>
      </trkpt>
      <trkpt lat="46.0039" lon="1.37718">
        <ele>546.8</ele>
        <time>2012-09-07T09:29:07Z</time>
      </trkpt>
      <trkpt lat="46.00398" lon="1.37715">
        <ele>547.6</ele>
        <time>2012-09-07T09:29:11Z</time>
      </trkpt>
      <trkpt lat="46.00399" lon="1.37716">
        <ele>547.4</ele>
        <time>2012-09-07T09:29:12Z</time>
      </trkpt>
      <trkpt lat="46.00407" lon="1.37717">
        <ele>547.4</ele>
        <time>2012-09-07T09:29:17Z</time>
      </trkpt>
      <trkpt lat="46.00417" lon="1.37713">
        <ele>547.8</ele>
        <time>2012-09-07T09:29:24Z</time>
      </trkpt>
      <trkpt lat="46.00426" lon="1.37713">
        <ele>548</ele>
        <time>2012-09-07T09:29:30Z</time>
      </trkpt>
      <trkpt lat="46.00435" lon="1.37711">
        <ele>548.6</ele>
        <time>2012-09-07T09:29:36Z</time>
      </trkpt>
      <trkpt lat="46.00437" lon="1.37711">
        <ele>548.6</ele>
        <time>2012-09-07T09:29:37Z</time>
      </trkpt>
      <trkpt lat="46.00443" lon="1.37709">
        <ele>549</ele>
        <time>2012-09-07T09:29:42Z</time>
      </trkpt>
      <trkpt lat="46.00444" lon="1.37709">
        <ele>549.2</ele>
        <time>2012-09-07T09:29:43Z</time>
      </trkpt>
      <trkpt lat="46.00449" lon="1.37708">
        <ele>549.6</ele>
        <time>2012-09-07T09:29:47Z</time>
      </trkpt>
      <trkpt lat="46.00459" lon="1.37706">
        <ele>551</ele>
        <time>2012-09-07T09:29:54Z</time>
      </trkpt>
      <trkpt lat="46.00462" lon="1.37705">
        <ele>551.4</ele>
        <time>2012-09-07T09:29:56Z</time>
      </trkpt>
      <trkpt lat="46.00465" lon="1.37702">
        <ele>552</ele>
        <time>2012-09-07T09:29:59Z</time>
      </trkpt>
      <trkpt lat="46.00473" lon="1.37701">
        <ele>552.2</ele>
        <time>2012-09-07T09:30:03Z</time>
      </trkpt>
      <trkpt lat="46.00474" lon="1.377">
        <ele>552.4</ele>
        <time>2012-09-07T09:30:04Z</time>
      </trkpt>
      <trkpt lat="46.00478" lon="1.37698">
        <ele>552.6</ele>
        <time>2012-09-07T09:30:06Z</time>
      </trkpt>
      <trkpt lat="46.0048" lon="1.37697">
        <ele>553</ele>
        <time>2012-09-07T09:30:08Z</time>
      </trkpt>
      <trkpt lat="46.00485" lon="1.37695">
        <ele>553</ele>
        <time>2012-09-07T09:30:11Z</time>
      </trkpt>
      <trkpt lat="46.00495" lon="1.37691">
        <ele>553.6</ele>
        <time>2012-09-07T09:30:16Z</time>
      </trkpt>
      <trkpt lat="46.00496" lon="1.37691">
        <ele>553.8</ele>
        <time>2012-09-07T09:30:17Z</time>
      </trkpt>
      <trkpt lat="46.00504" lon="1.37688">
        <ele>554.2</ele>
        <time>2012-09-07T09:30:23Z</time>
      </trkpt>
      <trkpt lat="46.00511" lon="1.37684">
        <ele>554.6</ele>
        <time>2012-09-07T09:30:28Z</time>
      </trkpt>
      <trkpt lat="46.00514" lon="1.37682">
        <ele>555.2</ele>
        <time>2012-09-07T09:30:31Z</time>
      </trkpt>
      <trkpt lat="46.00521" lon="1.37678">
        <ele>555.4</ele>
        <time>2012-09-07T09:30:36Z</time>
      </trkpt>
      <trkpt lat="46.00526" lon="1.37677">
        <ele>555.6</ele>
        <time>2012-09-07T09:30:39Z</time>
      </trkpt>
      <trkpt lat="46.00532" lon="1.37679">
        <ele>556</ele>
        <time>2012-09-07T09:30:43Z</time>
      </trkpt>
      <trkpt lat="46.00539" lon="1.37685">
        <ele>557.6</ele>
        <time>2012-09-07T09:30:49Z</time>
      </trkpt>
      <trkpt lat="46.00538" lon="1.37686">
        <ele>557.6</ele>
        <time>2012-09-07T09:30:50Z</time>
      </trkpt>
      <trkpt lat="46.0053" lon="1.37689">
        <ele>559</ele>
        <time>2012-09-07T09:30:56Z</time>
      </trkpt>
      <trkpt lat="46.00529" lon="1.37691">
        <ele>559.4</ele>
        <time>2012-09-07T09:30:58Z</time>
      </trkpt>
      <trkpt lat="46.00524" lon="1.37695">
        <ele>560</ele>
        <time>2012-09-07T09:31:02Z</time>
      </trkpt>
      <trkpt lat="46.00517" lon="1.377">
        <ele>562</ele>
        <time>2012-09-07T09:31:08Z</time>
      </trkpt>
      <trkpt lat="46.00509" lon="1.37708">
        <ele>564</ele>
        <time>2012-09-07T09:31:15Z</time>
      </trkpt>
      <trkpt lat="46.00502" lon="1.37721">
        <ele>565.8</ele>
        <time>2012-09-07T09:31:23Z</time>
      </trkpt>
      <trkpt lat="46.00494" lon="1.37738">
        <ele>567.2</ele>
        <time>2012-09-07T09:31:34Z</time>
      </trkpt>
      <trkpt lat="46.00488" lon="1.37754">
        <ele>568</ele>
        <time>2012-09-07T09:31:42Z</time>
      </trkpt>
      <trkpt lat="46.00485" lon="1.37773">
        <ele>569</ele>
        <time>2012-09-07T09:31:50Z</time>
      </trkpt>
      <trkpt lat="46.00486" lon="1.37785">
        <ele>569.8</ele>
        <time>2012-09-07T09:31:55Z</time>
      </trkpt>
      <trkpt lat="46.00489" lon="1.37799">
        <ele>571.4</ele>
        <time>2012-09-07T09:32:02Z</time>
      </trkpt>
      <trkpt lat="46.00495" lon="1.37808">
        <ele>572.4</ele>
        <time>2012-09-07T09:32:08Z</time>
      </trkpt>
      <trkpt lat="46.005" lon="1.37823">
        <ele>573.6</ele>
        <time>2012-09-07T09:32:15Z</time>
      </trkpt>
      <trkpt lat="46.00505" lon="1.37838">
        <ele>574.2</ele>
        <time>2012-09-07T09:32:22Z</time>
      </trkpt>
      <trkpt lat="46.00505" lon="1.37839">
        <ele>574.4</ele>
        <time>2012-09-07T09:32:23Z</time>
      </trkpt>
      <trkpt lat="46.00506" lon="1.37844">
        <ele>574.8</ele>
        <time>2012-09-07T09:32:26Z</time>
      </trkpt>
      <trkpt lat="46.00506" lon="1.3785">
        <ele>574.8</ele>
        <time>2012-09-07T09:32:31Z</time>
      </trkpt>
      <trkpt lat="46.00504" lon="1.37857">
        <ele>575</ele>
        <time>2012-09-07T09:32:36Z</time>
      </trkpt>
      <trkpt lat="46.00504" lon="1.37859">
        <ele>575.2</ele>
        <time>2012-09-07T09:32:37Z</time>
      </trkpt>
      <trkpt lat="46.00505" lon="1.37866">
        <ele>576</ele>
        <time>2012-09-07T09:32:42Z</time>
      </trkpt>
      <trkpt lat="46.00505" lon="1.37869">
        <ele>576.4</ele>
        <time>2012-09-07T09:32:45Z</time>
      </trkpt>
      <trkpt lat="46.00505" lon="1.37875">
        <ele>577.2</ele>
        <time>2012-09-07T09:32:50Z</time>
      </trkpt>
      <trkpt lat="46.00507" lon="1.37878">
        <ele>577.6</ele>
        <time>2012-09-07T09:32:54Z</time>
      </trkpt>
      <trkpt lat="46.00507" lon="1.37886">
        <ele>578</ele>
        <time>2012-09-07T09:33:01Z</time>
      </trkpt>
      <trkpt lat="46.00507" lon="1.37897">
        <ele>578.8</ele>
        <time>2012-09-07T09:33:09Z</time>
      </trkpt>
      <trkpt lat="46.00501" lon="1.37903">
        <ele>581</ele>
        <time>2012-09-07T09:34:21Z</time>
      </trkpt>
      <trkpt lat="46.00494" lon="1.37916">
        <ele>581.4</ele>
        <time>2012-09-07T09:34:27Z</time>
      </trkpt>
      <trkpt lat="46.00479" lon="1.37931">
        <ele>581.2</ele>
        <time>2012-09-07T09:34:32Z</time>
      </trkpt>
      <trkpt lat="46.00465" lon="1.37951">
        <ele>581.2</ele>
        <time>2012-09-07T09:34:36Z</time>
      </trkpt>
      <trkpt lat="46.00462" lon="1.37957">
        <ele>581.2</ele>
        <time>2012-09-07T09:34:37Z</time>
      </trkpt>
      <trkpt lat="46.00461" lon="1.37964">
        <ele>581.2</ele>
        <time>2012-09-07T09:34:38Z</time>
      </trkpt>
      <trkpt lat="46.0046" lon="1.37985">
        <ele>581</ele>
        <time>2012-09-07T09:34:41Z</time>
      </trkpt>
      <trkpt lat="46.00461" lon="1.37992">
        <ele>581</ele>
        <time>2012-09-07T09:34:42Z</time>
      </trkpt>
      <trkpt lat="46.00467" lon="1.38009">
        <ele>581</ele>
        <time>2012-09-07T09:34:45Z</time>
      </trkpt>
      <trkpt lat="46.00468" lon="1.38014">
        <ele>581</ele>
        <time>2012-09-07T09:34:46Z</time>
      </trkpt>
      <trkpt lat="46.00469" lon="1.38026">
        <ele>581</ele>
        <time>2012-09-07T09:34:49Z</time>
      </trkpt>
      <trkpt lat="46.00458" lon="1.38033">
        <ele>581</ele>
        <time>2012-09-07T09:34:53Z</time>
      </trkpt>
      <trkpt lat="46.00455" lon="1.38035">
        <ele>581</ele>
        <time>2012-09-07T09:34:54Z</time>
      </trkpt>
      <trkpt lat="46.00439" lon="1.3804">
        <ele>580.6</ele>
        <time>2012-09-07T09:34:58Z</time>
      </trkpt>
      <trkpt lat="46.00421" lon="1.38046">
        <ele>580.2</ele>
        <time>2012-09-07T09:35:02Z</time>
      </trkpt>
      <trkpt lat="46.00416" lon="1.38048">
        <ele>580.2</ele>
        <time>2012-09-07T09:35:03Z</time>
      </trkpt>
      <trkpt lat="46.00412" lon="1.38049">
        <ele>580</ele>
        <time>2012-09-07T09:35:04Z</time>
      </trkpt>
      <trkpt lat="46.00403" lon="1.38043">
        <ele>579.6</ele>
        <time>2012-09-07T09:35:07Z</time>
      </trkpt>
      <trkpt lat="46.00397" lon="1.38027">
        <ele>578.4</ele>
        <time>2012-09-07T09:35:12Z</time>
      </trkpt>
      <trkpt lat="46.00387" lon="1.38016">
        <ele>577.4</ele>
        <time>2012-09-07T09:35:16Z</time>
      </trkpt>
      <trkpt lat="46.00384" lon="1.38014">
        <ele>577.2</ele>
        <time>2012-09-07T09:35:17Z</time>
      </trkpt>
      <trkpt lat="46.00371" lon="1.37999">
        <ele>575.8</ele>
        <time>2012-09-07T09:35:22Z</time>
      </trkpt>
      <trkpt lat="46.00359" lon="1.37991">
        <ele>574.2</ele>
        <time>2012-09-07T09:35:27Z</time>
      </trkpt>
      <trkpt lat="46.00356" lon="1.37998">
        <ele>573.2</ele>
        <time>2012-09-07T09:35:31Z</time>
      </trkpt>
      <trkpt lat="46.00354" lon="1.38002">
        <ele>572.6</ele>
        <time>2012-09-07T09:35:33Z</time>
      </trkpt>
      <trkpt lat="46.00345" lon="1.38011">
        <ele>571</ele>
        <time>2012-09-07T09:35:38Z</time>
      </trkpt>
      <trkpt lat="46.00336" lon="1.3802">
        <ele>569.6</ele>
        <time>2012-09-07T09:35:44Z</time>
      </trkpt>
      <trkpt lat="46.00336" lon="1.38032">
        <ele>568.4</ele>
        <time>2012-09-07T09:35:49Z</time>
      </trkpt>
      <trkpt lat="46.00337" lon="1.38037">
        <ele>568.2</ele>
        <time>2012-09-07T09:35:51Z</time>
      </trkpt>
      <trkpt lat="46.00338" lon="1.38047">
        <ele>567.2</ele>
        <time>2012-09-07T09:35:56Z</time>
      </trkpt>
      <trkpt lat="46.00342" lon="1.38069">
        <ele>566.4</ele>
        <time>2012-09-07T09:36:05Z</time>
      </trkpt>
      <trkpt lat="46.00346" lon="1.38082">
        <ele>566.2</ele>
        <time>2012-09-07T09:36:12Z</time>
      </trkpt>
      <trkpt lat="46.00346" lon="1.38083">
        <ele>566</ele>
        <time>2012-09-07T09:36:13Z</time>
      </trkpt>
      <trkpt lat="46.00348" lon="1.3809">
        <ele>565.8</ele>
        <time>2012-09-07T09:36:17Z</time>
      </trkpt>
      <trkpt lat="46.00349" lon="1.38105">
        <ele>565.6</ele>
        <time>2012-09-07T09:36:24Z</time>
      </trkpt>
      <trkpt lat="46.00352" lon="1.38125">
        <ele>565.6</ele>
        <time>2012-09-07T09:36:32Z</time>
      </trkpt>
      <trkpt lat="46.00353" lon="1.38142">
        <ele>566.2</ele>
        <time>2012-09-07T09:36:39Z</time>
      </trkpt>
      <trkpt lat="46.00352" lon="1.38144">
        <ele>566.2</ele>
        <time>2012-09-07T09:36:40Z</time>
      </trkpt>
      <trkpt lat="46.00351" lon="1.38147">
        <ele>566.4</ele>
        <time>2012-09-07T09:36:42Z</time>
      </trkpt>
      <trkpt lat="46.0035" lon="1.3815">
        <ele>566.2</ele>
        <time>2012-09-07T09:36:44Z</time>
      </trkpt>
      <trkpt lat="46.00349" lon="1.38155">
        <ele>566.2</ele>
        <time>2012-09-07T09:36:47Z</time>
      </trkpt>
      <trkpt lat="46.00348" lon="1.38161">
        <ele>566.2</ele>
        <time>2012-09-07T09:36:50Z</time>
      </trkpt>
      <trkpt lat="46.00347" lon="1.38169">
        <ele>566.2</ele>
        <time>2012-09-07T09:36:55Z</time>
      </trkpt>
      <trkpt lat="46.00347" lon="1.38173">
        <ele>566.2</ele>
        <time>2012-09-07T09:36:57Z</time>
      </trkpt>
      <trkpt lat="46.00346" lon="1.38183">
        <ele>566.6</ele>
        <time>2012-09-07T09:37:02Z</time>
      </trkpt>
      <trkpt lat="46.00349" lon="1.38196">
        <ele>567.2</ele>
        <time>2012-09-07T09:37:09Z</time>
      </trkpt>
      <trkpt lat="46.00351" lon="1.38201">
        <ele>567.8</ele>
        <time>2012-09-07T09:37:15Z</time>
      </trkpt>
      <trkpt lat="46.00355" lon="1.3821">
        <ele>571.4</ele>
        <time>2012-09-07T09:37:47Z</time>
      </trkpt>
      <trkpt lat="46.00359" lon="1.38214">
        <ele>571.6</ele>
        <time>2012-09-07T09:37:52Z</time>
      </trkpt>
      <trkpt lat="46.00363" lon="1.38222">
        <ele>571.8</ele>
        <time>2012-09-07T09:37:59Z</time>
      </trkpt>
      <trkpt lat="46.00363" lon="1.38223">
        <ele>572</ele>
        <time>2012-09-07T09:38:00Z</time>
      </trkpt>
      <trkpt lat="46.00365" lon="1.38227">
        <ele>572.4</ele>
        <time>2012-09-07T09:38:03Z</time>
      </trkpt>
      <trkpt lat="46.00369" lon="1.38232">
        <ele>572.8</ele>
        <time>2012-09-07T09:38:08Z</time>
      </trkpt>
      <trkpt lat="46.00374" lon="1.38238">
        <ele>573.8</ele>
        <time>2012-09-07T09:38:14Z</time>
      </trkpt>
      <trkpt lat="46.00375" lon="1.38239">
        <ele>574.2</ele>
        <time>2012-09-07T09:38:16Z</time>
      </trkpt>
      <trkpt lat="46.00378" lon="1.38243">
        <ele>575.2</ele>
        <time>2012-09-07T09:38:21Z</time>
      </trkpt>
      <trkpt lat="46.00382" lon="1.38243">
        <ele>575.4</ele>
        <time>2012-09-07T09:38:27Z</time>
      </trkpt>
      <trkpt lat="46.00388" lon="1.38248">
        <ele>575.8</ele>
        <time>2012-09-07T09:38:33Z</time>
      </trkpt>
      <trkpt lat="46.00393" lon="1.38255">
        <ele>576.2</ele>
        <time>2012-09-07T09:38:38Z</time>
      </trkpt>
      <trkpt lat="46.00399" lon="1.38263">
        <ele>577</ele>
        <time>2012-09-07T09:38:44Z</time>
      </trkpt>
      <trkpt lat="46.00403" lon="1.38266">
        <ele>578</ele>
        <time>2012-09-07T09:38:48Z</time>
      </trkpt>
      <trkpt lat="46.00406" lon="1.38269">
        <ele>579</ele>
        <time>2012-09-07T09:38:51Z</time>
      </trkpt>
      <trkpt lat="46.00407" lon="1.3827">
        <ele>579.2</ele>
        <time>2012-09-07T09:38:52Z</time>
      </trkpt>
      <trkpt lat="46.00414" lon="1.38274">
        <ele>581</ele>
        <time>2012-09-07T09:38:58Z</time>
      </trkpt>
      <trkpt lat="46.00424" lon="1.38279">
        <ele>582.8</ele>
        <time>2012-09-07T09:39:06Z</time>
      </trkpt>
      <trkpt lat="46.00434" lon="1.38285">
        <ele>584.6</ele>
        <time>2012-09-07T09:39:15Z</time>
      </trkpt>
      <trkpt lat="46.00443" lon="1.38292">
        <ele>586.2</ele>
        <time>2012-09-07T09:39:23Z</time>
      </trkpt>
      <trkpt lat="46.00455" lon="1.38301">
        <ele>588</ele>
        <time>2012-09-07T09:39:32Z</time>
      </trkpt>
      <trkpt lat="46.00465" lon="1.38309">
        <ele>589.4</ele>
        <time>2012-09-07T09:39:39Z</time>
      </trkpt>
      <trkpt lat="46.00479" lon="1.38313">
        <ele>590.6</ele>
        <time>2012-09-07T09:39:47Z</time>
      </trkpt>
      <trkpt lat="46.00485" lon="1.38312">
        <ele>591.4</ele>
        <time>2012-09-07T09:39:51Z</time>
      </trkpt>
      <trkpt lat="46.00486" lon="1.3831">
        <ele>591.6</ele>
        <time>2012-09-07T09:39:52Z</time>
      </trkpt>
      <trkpt lat="46.00488" lon="1.38306">
        <ele>592</ele>
        <time>2012-09-07T09:39:55Z</time>
      </trkpt>
      <trkpt lat="46.00492" lon="1.38302">
        <ele>592.8</ele>
        <time>2012-09-07T09:39:59Z</time>
      </trkpt>
      <trkpt lat="46.00499" lon="1.38298">
        <ele>594</ele>
        <time>2012-09-07T09:40:04Z</time>
      </trkpt>
      <trkpt lat="46.00503" lon="1.38299">
        <ele>595</ele>
        <time>2012-09-07T09:40:07Z</time>
      </trkpt>
      <trkpt lat="46.00506" lon="1.38301">
        <ele>595.6</ele>
        <time>2012-09-07T09:40:09Z</time>
      </trkpt>
      <trkpt lat="46.0051" lon="1.383">
        <ele>596.4</ele>
        <time>2012-09-07T09:40:12Z</time>
      </trkpt>
      <trkpt lat="46.00514" lon="1.38298">
        <ele>597.2</ele>
        <time>2012-09-07T09:40:15Z</time>
      </trkpt>
      <trkpt lat="46.00523" lon="1.38293">
        <ele>598.4</ele>
        <time>2012-09-07T09:40:22Z</time>
      </trkpt>
      <trkpt lat="46.00526" lon="1.38289">
        <ele>598.8</ele>
        <time>2012-09-07T09:40:26Z</time>
      </trkpt>
      <trkpt lat="46.00529" lon="1.38287">
        <ele>599</ele>
        <time>2012-09-07T09:40:29Z</time>
      </trkpt>
      <trkpt lat="46.00535" lon="1.38276">
        <ele>599</ele>
        <time>2012-09-07T09:40:35Z</time>
      </trkpt>
      <trkpt lat="46.00541" lon="1.38258">
        <ele>598.8</ele>
        <time>2012-09-07T09:40:43Z</time>
      </trkpt>
      <trkpt lat="46.00548" lon="1.38242">
        <ele>598.8</ele>
        <time>2012-09-07T09:40:53Z</time>
      </trkpt>
      <trkpt lat="46.00554" lon="1.3823">
        <ele>598.6</ele>
        <time>2012-09-07T09:41:00Z</time>
      </trkpt>
      <trkpt lat="46.00562" lon="1.38219">
        <ele>598.2</ele>
        <time>2012-09-07T09:41:07Z</time>
      </trkpt>
      <trkpt lat="46.00563" lon="1.38217">
        <ele>598.2</ele>
        <time>2012-09-07T09:41:08Z</time>
      </trkpt>
      <trkpt lat="46.00567" lon="1.38209">
        <ele>598</ele>
        <time>2012-09-07T09:41:12Z</time>
      </trkpt>
      <trkpt lat="46.00568" lon="1.38207">
        <ele>598</ele>
        <time>2012-09-07T09:41:13Z</time>
      </trkpt>
      <trkpt lat="46.00575" lon="1.38198">
        <ele>597.6</ele>
        <time>2012-09-07T09:41:19Z</time>
      </trkpt>
      <trkpt lat="46.00584" lon="1.38189">
        <ele>597.8</ele>
        <time>2012-09-07T09:41:26Z</time>
      </trkpt>
      <trkpt lat="46.00587" lon="1.38184">
        <ele>598</ele>
        <time>2012-09-07T09:41:29Z</time>
      </trkpt>
      <trkpt lat="46.00592" lon="1.38177">
        <ele>598.4</ele>
        <time>2012-09-07T09:41:33Z</time>
      </trkpt>
      <trkpt lat="46.00596" lon="1.3817">
        <ele>598.6</ele>
        <time>2012-09-07T09:41:37Z</time>
      </trkpt>
      <trkpt lat="46.006" lon="1.38162">
        <ele>599</ele>
        <time>2012-09-07T09:41:41Z</time>
      </trkpt>
      <trkpt lat="46.00607" lon="1.3814">
        <ele>600.6</ele>
        <time>2012-09-07T09:41:50Z</time>
      </trkpt>
      <trkpt lat="46.00615" lon="1.38117">
        <ele>602.2</ele>
        <time>2012-09-07T09:41:57Z</time>
      </trkpt>
      <trkpt lat="46.00622" lon="1.38091">
        <ele>603.8</ele>
        <time>2012-09-07T09:42:03Z</time>
      </trkpt>
      <trkpt lat="46.00624" lon="1.38086">
        <ele>604</ele>
        <time>2012-09-07T09:42:04Z</time>
      </trkpt>
      <trkpt lat="46.00633" lon="1.38061">
        <ele>605</ele>
        <time>2012-09-07T09:42:09Z</time>
      </trkpt>
      <trkpt lat="46.00638" lon="1.38051">
        <ele>605</ele>
        <time>2012-09-07T09:42:11Z</time>
      </trkpt>
      <trkpt lat="46.00645" lon="1.38031">
        <ele>604.8</ele>
        <time>2012-09-07T09:42:16Z</time>
      </trkpt>
      <trkpt lat="46.0065" lon="1.38014">
        <ele>604.6</ele>
        <time>2012-09-07T09:42:21Z</time>
      </trkpt>
      <trkpt lat="46.00656" lon="1.37987">
        <ele>604.6</ele>
        <time>2012-09-07T09:42:27Z</time>
      </trkpt>
      <trkpt lat="46.00657" lon="1.37979">
        <ele>604.6</ele>
        <time>2012-09-07T09:42:29Z</time>
      </trkpt>
      <trkpt lat="46.00663" lon="1.3796">
        <ele>604.6</ele>
        <time>2012-09-07T09:42:34Z</time>
      </trkpt>
      <trkpt lat="46.00664" lon="1.3796">
        <ele>604.4</ele>
        <time>2012-09-07T09:42:37Z</time>
      </trkpt>
      <trkpt lat="46.00668" lon="1.37956">
        <ele>602.2</ele>
        <time>2012-09-07T09:44:19Z</time>
      </trkpt>
      <trkpt lat="46.00669" lon="1.37957">
        <ele>602.2</ele>
        <time>2012-09-07T09:44:20Z</time>
      </trkpt>
      <trkpt lat="46.00678" lon="1.37964">
        <ele>602.2</ele>
        <time>2012-09-07T09:44:24Z</time>
      </trkpt>
      <trkpt lat="46.00691" lon="1.37974">
        <ele>602.4</ele>
        <time>2012-09-07T09:44:29Z</time>
      </trkpt>
      <trkpt lat="46.00706" lon="1.37985">
        <ele>602.8</ele>
        <time>2012-09-07T09:44:35Z</time>
      </trkpt>
      <trkpt lat="46.00717" lon="1.37989">
        <ele>602.8</ele>
        <time>2012-09-07T09:44:39Z</time>
      </trkpt>
      <trkpt lat="46.00722" lon="1.37987">
        <ele>603</ele>
        <time>2012-09-07T09:44:40Z</time>
      </trkpt>
      <trkpt lat="46.00731" lon="1.37986">
        <ele>603</ele>
        <time>2012-09-07T09:44:42Z</time>
      </trkpt>
      <trkpt lat="46.0074" lon="1.3799">
        <ele>603</ele>
        <time>2012-09-07T09:44:44Z</time>
      </trkpt>
      <trkpt lat="46.0076" lon="1.37996">
        <ele>603</ele>
        <time>2012-09-07T09:44:48Z</time>
      </trkpt>
      <trkpt lat="46.0077" lon="1.37997">
        <ele>603</ele>
        <time>2012-09-07T09:44:50Z</time>
      </trkpt>
      <trkpt lat="46.00781" lon="1.37999">
        <ele>603</ele>
        <time>2012-09-07T09:44:53Z</time>
      </trkpt>
      <trkpt lat="46.00795" lon="1.38007">
        <ele>602.8</ele>
        <time>2012-09-07T09:44:57Z</time>
      </trkpt>
      <trkpt lat="46.0081" lon="1.38014">
        <ele>602.8</ele>
        <time>2012-09-07T09:45:00Z</time>
      </trkpt>
      <trkpt lat="46.00815" lon="1.38019">
        <ele>602.8</ele>
        <time>2012-09-07T09:45:01Z</time>
      </trkpt>
      <trkpt lat="46.00828" lon="1.38033">
        <ele>602.6</ele>
        <time>2012-09-07T09:45:04Z</time>
      </trkpt>
      <trkpt lat="46.00833" lon="1.38038">
        <ele>602.6</ele>
        <time>2012-09-07T09:45:05Z</time>
      </trkpt>
      <trkpt lat="46.00848" lon="1.38052">
        <ele>602.4</ele>
        <time>2012-09-07T09:45:08Z</time>
      </trkpt>
      <trkpt lat="46.00854" lon="1.38064">
        <ele>602.4</ele>
        <time>2012-09-07T09:45:10Z</time>
      </trkpt>
      <trkpt lat="46.00861" lon="1.38073">
        <ele>602.2</ele>
        <time>2012-09-07T09:45:12Z</time>
      </trkpt>
      <trkpt lat="46.00873" lon="1.38087">
        <ele>602.2</ele>
        <time>2012-09-07T09:45:15Z</time>
      </trkpt>
      <trkpt lat="46.00876" lon="1.38092">
        <ele>602</ele>
        <time>2012-09-07T09:45:16Z</time>
      </trkpt>
      <trkpt lat="46.00886" lon="1.38111">
        <ele>602</ele>
        <time>2012-09-07T09:45:19Z</time>
      </trkpt>
      <trkpt lat="46.00889" lon="1.38118">
        <ele>602</ele>
        <time>2012-09-07T09:45:20Z</time>
      </trkpt>
      <trkpt lat="46.00894" lon="1.38139">
        <ele>601.8</ele>
        <time>2012-09-07T09:45:23Z</time>
      </trkpt>
      <trkpt lat="46.00892" lon="1.38151">
        <ele>601.8</ele>
        <time>2012-09-07T09:45:25Z</time>
      </trkpt>
      <trkpt lat="46.00896" lon="1.38168">
        <ele>601.4</ele>
        <time>2012-09-07T09:45:29Z</time>
      </trkpt>
      <trkpt lat="46.00896" lon="1.38171">
        <ele>601.4</ele>
        <time>2012-09-07T09:45:30Z</time>
      </trkpt>
      <trkpt lat="46.00896" lon="1.38175">
        <ele>601.4</ele>
        <time>2012-09-07T09:45:31Z</time>
      </trkpt>
      <trkpt lat="46.00897" lon="1.38195">
        <ele>600.8</ele>
        <time>2012-09-07T09:45:36Z</time>
      </trkpt>
      <trkpt lat="46.00897" lon="1.38221">
        <ele>600.4</ele>
        <time>2012-09-07T09:45:42Z</time>
      </trkpt>
      <trkpt lat="46.00902" lon="1.38244">
        <ele>599.8</ele>
        <time>2012-09-07T09:45:47Z</time>
      </trkpt>
      <trkpt lat="46.00912" lon="1.38257">
        <ele>599.2</ele>
        <time>2012-09-07T09:45:51Z</time>
      </trkpt>
      <trkpt lat="46.00927" lon="1.38263">
        <ele>598.6</ele>
        <time>2012-09-07T09:45:55Z</time>
      </trkpt>
      <trkpt lat="46.00946" lon="1.38276">
        <ele>597.8</ele>
        <time>2012-09-07T09:46:00Z</time>
      </trkpt>
      <trkpt lat="46.00966" lon="1.38288">
        <ele>596.8</ele>
        <time>2012-09-07T09:46:05Z</time>
      </trkpt>
      <trkpt lat="46.00972" lon="1.3829">
        <ele>596.6</ele>
        <time>2012-09-07T09:46:06Z</time>
      </trkpt>
      <trkpt lat="46.00989" lon="1.38302">
        <ele>595.8</ele>
        <time>2012-09-07T09:46:10Z</time>
      </trkpt>
      <trkpt lat="46.00997" lon="1.38302">
        <ele>595.2</ele>
        <time>2012-09-07T09:46:12Z</time>
      </trkpt>
      <trkpt lat="46.01001" lon="1.383">
        <ele>595.2</ele>
        <time>2012-09-07T09:46:13Z</time>
      </trkpt>
      <trkpt lat="46.01005" lon="1.38298">
        <ele>594.8</ele>
        <time>2012-09-07T09:46:14Z</time>
      </trkpt>
      <trkpt lat="46.01014" lon="1.38296">
        <ele>594.4</ele>
        <time>2012-09-07T09:46:16Z</time>
      </trkpt>
      <trkpt lat="46.01026" lon="1.38289">
        <ele>593.6</ele>
        <time>2012-09-07T09:46:19Z</time>
      </trkpt>
      <trkpt lat="46.01038" lon="1.38281">
        <ele>592.6</ele>
        <time>2012-09-07T09:46:23Z</time>
      </trkpt>
      <trkpt lat="46.01051" lon="1.38274">
        <ele>591.6</ele>
        <time>2012-09-07T09:46:27Z</time>
      </trkpt>
      <trkpt lat="46.01054" lon="1.38272">
        <ele>591.4</ele>
        <time>2012-09-07T09:46:28Z</time>
      </trkpt>
      <trkpt lat="46.01067" lon="1.38269">
        <ele>590.8</ele>
        <time>2012-09-07T09:46:31Z</time>
      </trkpt>
      <trkpt lat="46.01085" lon="1.38262">
        <ele>589.6</ele>
        <time>2012-09-07T09:46:36Z</time>
      </trkpt>
      <trkpt lat="46.01098" lon="1.38245">
        <ele>588.6</ele>
        <time>2012-09-07T09:46:40Z</time>
      </trkpt>
      <trkpt lat="46.01101" lon="1.38241">
        <ele>588.2</ele>
        <time>2012-09-07T09:46:41Z</time>
      </trkpt>
      <trkpt lat="46.01118" lon="1.38223">
        <ele>587</ele>
        <time>2012-09-07T09:46:45Z</time>
      </trkpt>
      <trkpt lat="46.01121" lon="1.38217">
        <ele>586.6</ele>
        <time>2012-09-07T09:46:46Z</time>
      </trkpt>
      <trkpt lat="46.01129" lon="1.382">
        <ele>585.8</ele>
        <time>2012-09-07T09:46:49Z</time>
      </trkpt>
      <trkpt lat="46.01136" lon="1.38189">
        <ele>585.4</ele>
        <time>2012-09-07T09:46:51Z</time>
      </trkpt>
      <trkpt lat="46.01139" lon="1.38183">
        <ele>585</ele>
        <time>2012-09-07T09:46:52Z</time>
      </trkpt>
      <trkpt lat="46.01143" lon="1.38179">
        <ele>584.8</ele>
        <time>2012-09-07T09:46:53Z</time>
      </trkpt>
      <trkpt lat="46.01153" lon="1.38166">
        <ele>584</ele>
        <time>2012-09-07T09:46:56Z</time>
      </trkpt>
      <trkpt lat="46.0116" lon="1.38155">
        <ele>583.4</ele>
        <time>2012-09-07T09:46:58Z</time>
      </trkpt>
      <trkpt lat="46.01163" lon="1.3815">
        <ele>583</ele>
        <time>2012-09-07T09:46:59Z</time>
      </trkpt>
      <trkpt lat="46.01168" lon="1.38138">
        <ele>582</ele>
        <time>2012-09-07T09:47:02Z</time>
      </trkpt>
      <trkpt lat="46.01177" lon="1.38127">
        <ele>581.2</ele>
        <time>2012-09-07T09:47:05Z</time>
      </trkpt>
      <trkpt lat="46.01182" lon="1.38118">
        <ele>580.4</ele>
        <time>2012-09-07T09:47:07Z</time>
      </trkpt>
      <trkpt lat="46.01193" lon="1.38104">
        <ele>579.4</ele>
        <time>2012-09-07T09:47:10Z</time>
      </trkpt>
      <trkpt lat="46.01201" lon="1.38093">
        <ele>578.2</ele>
        <time>2012-09-07T09:47:13Z</time>
      </trkpt>
      <trkpt lat="46.01213" lon="1.38078">
        <ele>576.6</ele>
        <time>2012-09-07T09:47:17Z</time>
      </trkpt>
      <trkpt lat="46.01217" lon="1.38075">
        <ele>576.2</ele>
        <time>2012-09-07T09:47:18Z</time>
      </trkpt>
      <trkpt lat="46.01223" lon="1.38068">
        <ele>575.4</ele>
        <time>2012-09-07T09:47:20Z</time>
      </trkpt>
      <trkpt lat="46.0123" lon="1.38061">
        <ele>574.2</ele>
        <time>2012-09-07T09:47:23Z</time>
      </trkpt>
      <trkpt lat="46.01247" lon="1.38056">
        <ele>572</ele>
        <time>2012-09-07T09:47:28Z</time>
      </trkpt>
      <trkpt lat="46.01267" lon="1.38057">
        <ele>570.8</ele>
        <time>2012-09-07T09:47:32Z</time>
      </trkpt>
      <trkpt lat="46.01281" lon="1.38065">
        <ele>569.8</ele>
        <time>2012-09-07T09:47:35Z</time>
      </trkpt>
      <trkpt lat="46.0129" lon="1.38071">
        <ele>569.2</ele>
        <time>2012-09-07T09:47:37Z</time>
      </trkpt>
      <trkpt lat="46.01298" lon="1.38074">
        <ele>568.8</ele>
        <time>2012-09-07T09:47:39Z</time>
      </trkpt>
      <trkpt lat="46.01303" lon="1.38076">
        <ele>568.2</ele>
        <time>2012-09-07T09:47:41Z</time>
      </trkpt>
      <trkpt lat="46.01305" lon="1.38077">
        <ele>568</ele>
        <time>2012-09-07T09:47:42Z</time>
      </trkpt>
      <trkpt lat="46.01314" lon="1.38082">
        <ele>566.8</ele>
        <time>2012-09-07T09:47:46Z</time>
      </trkpt>
      <trkpt lat="46.01318" lon="1.38083">
        <ele>566</ele>
        <time>2012-09-07T09:47:49Z</time>
      </trkpt>
      <trkpt lat="46.0132" lon="1.38083">
        <ele>565.8</ele>
        <time>2012-09-07T09:47:50Z</time>
      </trkpt>
      <trkpt lat="46.01321" lon="1.38085">
        <ele>565.6</ele>
        <time>2012-09-07T09:47:51Z</time>
      </trkpt>
      <trkpt lat="46.01325" lon="1.38092">
        <ele>565</ele>
        <time>2012-09-07T09:47:54Z</time>
      </trkpt>
      <trkpt lat="46.01329" lon="1.38114">
        <ele>563.8</ele>
        <time>2012-09-07T09:47:59Z</time>
      </trkpt>
      <trkpt lat="46.0133" lon="1.38141">
        <ele>562.6</ele>
        <time>2012-09-07T09:48:04Z</time>
      </trkpt>
      <trkpt lat="46.01331" lon="1.3816">
        <ele>561.4</ele>
        <time>2012-09-07T09:48:09Z</time>
      </trkpt>
      <trkpt lat="46.01326" lon="1.38184">
        <ele>560.4</ele>
        <time>2012-09-07T09:48:14Z</time>
      </trkpt>
      <trkpt lat="46.01326" lon="1.38203">
        <ele>559.2</ele>
        <time>2012-09-07T09:48:18Z</time>
      </trkpt>
      <trkpt lat="46.01329" lon="1.38215">
        <ele>558.4</ele>
        <time>2012-09-07T09:48:22Z</time>
      </trkpt>
      <trkpt lat="46.0133" lon="1.38217">
        <ele>558.2</ele>
        <time>2012-09-07T09:48:23Z</time>
      </trkpt>
      <trkpt lat="46.01335" lon="1.38227">
        <ele>557.2</ele>
        <time>2012-09-07T09:48:27Z</time>
      </trkpt>
      <trkpt lat="46.01333" lon="1.38238">
        <ele>556</ele>
        <time>2012-09-07T09:48:32Z</time>
      </trkpt>
      <trkpt lat="46.01332" lon="1.38239">
        <ele>555.6</ele>
        <time>2012-09-07T09:48:33Z</time>
      </trkpt>
      <trkpt lat="46.01333" lon="1.38241">
        <ele>554.4</ele>
        <time>2012-09-07T09:48:39Z</time>
      </trkpt>
      <trkpt lat="46.01328" lon="1.38249">
        <ele>551</ele>
        <time>2012-09-07T09:48:55Z</time>
      </trkpt>
      <trkpt lat="46.01318" lon="1.38263">
        <ele>550</ele>
        <time>2012-09-07T09:49:01Z</time>
      </trkpt>
      <trkpt lat="46.01309" lon="1.38279">
        <ele>548.8</ele>
        <time>2012-09-07T09:49:08Z</time>
      </trkpt>
      <trkpt lat="46.01299" lon="1.38296">
        <ele>547.8</ele>
        <time>2012-09-07T09:49:14Z</time>
      </trkpt>
      <trkpt lat="46.01287" lon="1.38313">
        <ele>547</ele>
        <time>2012-09-07T09:49:20Z</time>
      </trkpt>
      <trkpt lat="46.01281" lon="1.38321">
        <ele>546.8</ele>
        <time>2012-09-07T09:49:23Z</time>
      </trkpt>
      <trkpt lat="46.01275" lon="1.38329">
        <ele>546.6</ele>
        <time>2012-09-07T09:49:26Z</time>
      </trkpt>
      <trkpt lat="46.01265" lon="1.38343">
        <ele>546.4</ele>
        <time>2012-09-07T09:49:31Z</time>
      </trkpt>
      <trkpt lat="46.01254" lon="1.38349">
        <ele>545.8</ele>
        <time>2012-09-07T09:49:37Z</time>
      </trkpt>
      <trkpt lat="46.01246" lon="1.38353">
        <ele>545.4</ele>
        <time>2012-09-07T09:49:42Z</time>
      </trkpt>
      <trkpt lat="46.01244" lon="1.38354">
        <ele>545.4</ele>
        <time>2012-09-07T09:49:43Z</time>
      </trkpt>
      <trkpt lat="46.0124" lon="1.38356">
        <ele>545.2</ele>
        <time>2012-09-07T09:49:46Z</time>
      </trkpt>
      <trkpt lat="46.01235" lon="1.38357">
        <ele>544.8</ele>
        <time>2012-09-07T09:49:50Z</time>
      </trkpt>
      <trkpt lat="46.01234" lon="1.38358">
        <ele>544.8</ele>
        <time>2012-09-07T09:49:51Z</time>
      </trkpt>
      <trkpt lat="46.01232" lon="1.38357">
        <ele>544.6</ele>
        <time>2012-09-07T09:49:52Z</time>
      </trkpt>
      <trkpt lat="46.01231" lon="1.38358">
        <ele>544.4</ele>
        <time>2012-09-07T09:49:55Z</time>
      </trkpt>
      <trkpt lat="46.01227" lon="1.38359">
        <ele>544</ele>
        <time>2012-09-07T09:50:00Z</time>
      </trkpt>
      <trkpt lat="46.01226" lon="1.38358">
        <ele>544</ele>
        <time>2012-09-07T09:50:01Z</time>
      </trkpt>
      <trkpt lat="46.01218" lon="1.38366">
        <ele>543.8</ele>
        <time>2012-09-07T09:50:06Z</time>
      </trkpt>
      <trkpt lat="46.01216" lon="1.38369">
        <ele>544</ele>
        <time>2012-09-07T09:50:07Z</time>
      </trkpt>
      <trkpt lat="46.01208" lon="1.38378">
        <ele>544.8</ele>
        <time>2012-09-07T09:50:13Z</time>
      </trkpt>
      <trkpt lat="46.01206" lon="1.3838">
        <ele>545</ele>
        <time>2012-09-07T09:50:15Z</time>
      </trkpt>
      <trkpt lat="46.01203" lon="1.38384">
        <ele>545.4</ele>
        <time>2012-09-07T09:50:18Z</time>
      </trkpt>
      <trkpt lat="46.01196" lon="1.38394">
        <ele>546</ele>
        <time>2012-09-07T09:50:24Z</time>
      </trkpt>
      <trkpt lat="46.0119" lon="1.38405">
        <ele>546.8</ele>
        <time>2012-09-07T09:50:30Z</time>
      </trkpt>
      <trkpt lat="46.01181" lon="1.38417">
        <ele>547.6</ele>
        <time>2012-09-07T09:50:37Z</time>
      </trkpt>
      <trkpt lat="46.01172" lon="1.38428">
        <ele>548.2</ele>
        <time>2012-09-07T09:50:44Z</time>
      </trkpt>
      <trkpt lat="46.01164" lon="1.38441">
        <ele>548</ele>
        <time>2012-09-07T09:50:50Z</time>
      </trkpt>
      <trkpt lat="46.01153" lon="1.38453">
        <ele>548.6</ele>
        <time>2012-09-07T09:50:56Z</time>
      </trkpt>
      <trkpt lat="46.01144" lon="1.38464">
        <ele>549.4</ele>
        <time>2012-09-07T09:51:01Z</time>
      </trkpt>
      <trkpt lat="46.01133" lon="1.38477">
        <ele>550.4</ele>
        <time>2012-09-07T09:51:06Z</time>
      </trkpt>
      <trkpt lat="46.01124" lon="1.38487">
        <ele>551</ele>
        <time>2012-09-07T09:51:11Z</time>
      </trkpt>
      <trkpt lat="46.01115" lon="1.38497">
        <ele>550.8</ele>
        <time>2012-09-07T09:51:16Z</time>
      </trkpt>
      <trkpt lat="46.01106" lon="1.38506">
        <ele>550.8</ele>
        <time>2012-09-07T09:51:22Z</time>
      </trkpt>
      <trkpt lat="46.01096" lon="1.38517">
        <ele>550.8</ele>
        <time>2012-09-07T09:51:28Z</time>
      </trkpt>
      <trkpt lat="46.01086" lon="1.38517">
        <ele>550.6</ele>
        <time>2012-09-07T09:51:34Z</time>
      </trkpt>
      <trkpt lat="46.01085" lon="1.38517">
        <ele>550.6</ele>
        <time>2012-09-07T09:51:35Z</time>
      </trkpt>
      <trkpt lat="46.01077" lon="1.38518">
        <ele>550.4</ele>
        <time>2012-09-07T09:51:41Z</time>
      </trkpt>
      <trkpt lat="46.01075" lon="1.38517">
        <ele>550.4</ele>
        <time>2012-09-07T09:51:42Z</time>
      </trkpt>
      <trkpt lat="46.01071" lon="1.38515">
        <ele>550.2</ele>
        <time>2012-09-07T09:51:46Z</time>
      </trkpt>
      <trkpt lat="46.01068" lon="1.38514">
        <ele>550</ele>
        <time>2012-09-07T09:51:48Z</time>
      </trkpt>
      <trkpt lat="46.01062" lon="1.38515">
        <ele>549.8</ele>
        <time>2012-09-07T09:51:52Z</time>
      </trkpt>
      <trkpt lat="46.0105" lon="1.3852">
        <ele>549.6</ele>
        <time>2012-09-07T09:51:59Z</time>
      </trkpt>
      <trkpt lat="46.01041" lon="1.38522">
        <ele>549.6</ele>
        <time>2012-09-07T09:52:05Z</time>
      </trkpt>
      <trkpt lat="46.01031" lon="1.38523">
        <ele>550</ele>
        <time>2012-09-07T09:52:11Z</time>
      </trkpt>
      <trkpt lat="46.01019" lon="1.38521">
        <ele>550.2</ele>
        <time>2012-09-07T09:52:17Z</time>
      </trkpt>
      <trkpt lat="46.01014" lon="1.38518">
        <ele>550.2</ele>
        <time>2012-09-07T09:52:19Z</time>
      </trkpt>
      <trkpt lat="46.01003" lon="1.3851">
        <ele>550</ele>
        <time>2012-09-07T09:52:22Z</time>
      </trkpt>
      <trkpt lat="46.00999" lon="1.38507">
        <ele>550</ele>
        <time>2012-09-07T09:52:23Z</time>
      </trkpt>
      <trkpt lat="46.00983" lon="1.38498">
        <ele>550</ele>
        <time>2012-09-07T09:52:27Z</time>
      </trkpt>
      <trkpt lat="46.0098" lon="1.38499">
        <ele>550</ele>
        <time>2012-09-07T09:52:28Z</time>
      </trkpt>
      <trkpt lat="46.00976" lon="1.38503">
        <ele>550</ele>
        <time>2012-09-07T09:52:30Z</time>
      </trkpt>
      <trkpt lat="46.00967" lon="1.38513">
        <ele>550.6</ele>
        <time>2012-09-07T09:52:34Z</time>
      </trkpt>
      <trkpt lat="46.00964" lon="1.38516">
        <ele>550.6</ele>
        <time>2012-09-07T09:52:35Z</time>
      </trkpt>
      <trkpt lat="46.00961" lon="1.38519">
        <ele>551</ele>
        <time>2012-09-07T09:52:37Z</time>
      </trkpt>
      <trkpt lat="46.00956" lon="1.38524">
        <ele>551.6</ele>
        <time>2012-09-07T09:52:39Z</time>
      </trkpt>
      <trkpt lat="46.00945" lon="1.38533">
        <ele>553</ele>
        <time>2012-09-07T09:52:45Z</time>
      </trkpt>
      <trkpt lat="46.00942" lon="1.38534">
        <ele>553.2</ele>
        <time>2012-09-07T09:52:46Z</time>
      </trkpt>
      <trkpt lat="46.0093" lon="1.38538">
        <ele>553.4</ele>
        <time>2012-09-07T09:52:50Z</time>
      </trkpt>
      <trkpt lat="46.00919" lon="1.38557">
        <ele>554.4</ele>
        <time>2012-09-07T09:52:54Z</time>
      </trkpt>
      <trkpt lat="46.00917" lon="1.38561">
        <ele>555</ele>
        <time>2012-09-07T09:52:56Z</time>
      </trkpt>
      <trkpt lat="46.00918" lon="1.38559">
        <ele>555.4</ele>
        <time>2012-09-07T09:52:58Z</time>
      </trkpt>
      <trkpt lat="46.00914" lon="1.38563">
        <ele>556.4</ele>
        <time>2012-09-07T09:53:22Z</time>
      </trkpt>
      <trkpt lat="46.00915" lon="1.38571">
        <ele>556.4</ele>
        <time>2012-09-07T09:53:24Z</time>
      </trkpt>
      <trkpt lat="46.0091" lon="1.3859">
        <ele>556.2</ele>
        <time>2012-09-07T09:53:27Z</time>
      </trkpt>
      <trkpt lat="46.009" lon="1.38615">
        <ele>556</ele>
        <time>2012-09-07T09:53:31Z</time>
      </trkpt>
      <trkpt lat="46.00897" lon="1.38621">
        <ele>556</ele>
        <time>2012-09-07T09:53:32Z</time>
      </trkpt>
      <trkpt lat="46.00889" lon="1.38642">
        <ele>555.6</ele>
        <time>2012-09-07T09:53:36Z</time>
      </trkpt>
      <trkpt lat="46.00888" lon="1.38652">
        <ele>555.4</ele>
        <time>2012-09-07T09:53:38Z</time>
      </trkpt>
      <trkpt lat="46.0089" lon="1.38668">
        <ele>555</ele>
        <time>2012-09-07T09:53:41Z</time>
      </trkpt>
      <trkpt lat="46.00895" lon="1.38673">
        <ele>555</ele>
        <time>2012-09-07T09:53:42Z</time>
      </trkpt>
      <trkpt lat="46.00909" lon="1.3869">
        <ele>554.8</ele>
        <time>2012-09-07T09:53:46Z</time>
      </trkpt>
      <trkpt lat="46.00921" lon="1.38695">
        <ele>554.6</ele>
        <time>2012-09-07T09:53:48Z</time>
      </trkpt>
      <trkpt lat="46.00947" lon="1.38694">
        <ele>554.6</ele>
        <time>2012-09-07T09:53:50Z</time>
      </trkpt>
      <trkpt lat="46.00957" lon="1.38692">
        <ele>554.6</ele>
        <time>2012-09-07T09:53:51Z</time>
      </trkpt>
      <trkpt lat="46.00976" lon="1.38682">
        <ele>554.4</ele>
        <time>2012-09-07T09:53:53Z</time>
      </trkpt>
      <trkpt lat="46.00996" lon="1.38677">
        <ele>554.2</ele>
        <time>2012-09-07T09:53:55Z</time>
      </trkpt>
      <trkpt lat="46.01014" lon="1.38666">
        <ele>553.8</ele>
        <time>2012-09-07T09:53:57Z</time>
      </trkpt>
      <trkpt lat="46.01029" lon="1.38651">
        <ele>553.2</ele>
        <time>2012-09-07T09:53:59Z</time>
      </trkpt>
      <trkpt lat="46.01038" lon="1.38638">
        <ele>553</ele>
        <time>2012-09-07T09:54:01Z</time>
      </trkpt>
      <trkpt lat="46.01042" lon="1.38633">
        <ele>552.6</ele>
        <time>2012-09-07T09:54:02Z</time>
      </trkpt>
      <trkpt lat="46.0105" lon="1.38626">
        <ele>552.2</ele>
        <time>2012-09-07T09:54:04Z</time>
      </trkpt>
      <trkpt lat="46.01064" lon="1.38614">
        <ele>551.6</ele>
        <time>2012-09-07T09:54:07Z</time>
      </trkpt>
      <trkpt lat="46.01083" lon="1.38597">
        <ele>550.6</ele>
        <time>2012-09-07T09:54:11Z</time>
      </trkpt>
      <trkpt lat="46.01087" lon="1.38592">
        <ele>550.4</ele>
        <time>2012-09-07T09:54:12Z</time>
      </trkpt>
      <trkpt lat="46.0109" lon="1.38587">
        <ele>550.2</ele>
        <time>2012-09-07T09:54:13Z</time>
      </trkpt>
      <trkpt lat="46.01104" lon="1.38574">
        <ele>549.4</ele>
        <time>2012-09-07T09:54:16Z</time>
      </trkpt>
      <trkpt lat="46.01108" lon="1.38568">
        <ele>549.2</ele>
        <time>2012-09-07T09:54:17Z</time>
      </trkpt>
      <trkpt lat="46.01124" lon="1.38553">
        <ele>548.2</ele>
        <time>2012-09-07T09:54:20Z</time>
      </trkpt>
      <trkpt lat="46.01134" lon="1.38543">
        <ele>547.8</ele>
        <time>2012-09-07T09:54:22Z</time>
      </trkpt>
      <trkpt lat="46.01137" lon="1.38538">
        <ele>547.4</ele>
        <time>2012-09-07T09:54:23Z</time>
      </trkpt>
      <trkpt lat="46.01152" lon="1.3852">
        <ele>546.2</ele>
        <time>2012-09-07T09:54:27Z</time>
      </trkpt>
      <trkpt lat="46.01165" lon="1.38507">
        <ele>545.4</ele>
        <time>2012-09-07T09:54:30Z</time>
      </trkpt>
      <trkpt lat="46.01171" lon="1.38504">
        <ele>545</ele>
        <time>2012-09-07T09:54:31Z</time>
      </trkpt>
      <trkpt lat="46.0119" lon="1.38504">
        <ele>544.6</ele>
        <time>2012-09-07T09:54:33Z</time>
      </trkpt>
      <trkpt lat="46.01204" lon="1.38519">
        <ele>543.6</ele>
        <time>2012-09-07T09:54:36Z</time>
      </trkpt>
      <trkpt lat="46.01217" lon="1.38538">
        <ele>542.6</ele>
        <time>2012-09-07T09:54:40Z</time>
      </trkpt>
      <trkpt lat="46.0122" lon="1.38543">
        <ele>542.4</ele>
        <time>2012-09-07T09:54:41Z</time>
      </trkpt>
      <trkpt lat="46.01221" lon="1.38547">
        <ele>542.2</ele>
        <time>2012-09-07T09:54:42Z</time>
      </trkpt>
      <trkpt lat="46.01221" lon="1.38557">
        <ele>541.4</ele>
        <time>2012-09-07T09:54:45Z</time>
      </trkpt>
      <trkpt lat="46.01222" lon="1.3856">
        <ele>541.2</ele>
        <time>2012-09-07T09:54:46Z</time>
      </trkpt>
      <trkpt lat="46.01224" lon="1.38566">
        <ele>540.6</ele>
        <time>2012-09-07T09:54:49Z</time>
      </trkpt>
      <trkpt lat="46.01226" lon="1.38569">
        <ele>540.2</ele>
        <time>2012-09-07T09:54:51Z</time>
      </trkpt>
      <trkpt lat="46.01227" lon="1.3857">
        <ele>540</ele>
        <time>2012-09-07T09:54:53Z</time>
      </trkpt>
      <trkpt lat="46.01226" lon="1.38571">
        <ele>539.6</ele>
        <time>2012-09-07T09:54:55Z</time>
      </trkpt>
      <trkpt lat="46.01226" lon="1.38573">
        <ele>539.4</ele>
        <time>2012-09-07T09:54:57Z</time>
      </trkpt>
      <trkpt lat="46.01226" lon="1.38576">
        <ele>539</ele>
        <time>2012-09-07T09:55:01Z</time>
      </trkpt>
      <trkpt lat="46.01227" lon="1.38589">
        <ele>538.4</ele>
        <time>2012-09-07T09:55:10Z</time>
      </trkpt>
      <trkpt lat="46.01233" lon="1.386">
        <ele>538</ele>
        <time>2012-09-07T09:55:18Z</time>
      </trkpt>
      <trkpt lat="46.01239" lon="1.38607">
        <ele>537.8</ele>
        <time>2012-09-07T09:55:25Z</time>
      </trkpt>
      <trkpt lat="46.01246" lon="1.38617">
        <ele>537.6</ele>
        <time>2012-09-07T09:55:32Z</time>
      </trkpt>
      <trkpt lat="46.01246" lon="1.38619">
        <ele>537.6</ele>
        <time>2012-09-07T09:55:33Z</time>
      </trkpt>
      <trkpt lat="46.01251" lon="1.38623">
        <ele>537.6</ele>
        <time>2012-09-07T09:55:37Z</time>
      </trkpt>
      <trkpt lat="46.01253" lon="1.38627">
        <ele>537.4</ele>
        <time>2012-09-07T09:55:39Z</time>
      </trkpt>
      <trkpt lat="46.01253" lon="1.38629">
        <ele>537.4</ele>
        <time>2012-09-07T09:55:40Z</time>
      </trkpt>
      <trkpt lat="46.01255" lon="1.38635">
        <ele>537.4</ele>
        <time>2012-09-07T09:55:43Z</time>
      </trkpt>
      <trkpt lat="46.01259" lon="1.38645">
        <ele>537.2</ele>
        <time>2012-09-07T09:55:48Z</time>
      </trkpt>
      <trkpt lat="46.01261" lon="1.38646">
        <ele>537.2</ele>
        <time>2012-09-07T09:55:50Z</time>
      </trkpt>
      <trkpt lat="46.01265" lon="1.38647">
        <ele>537</ele>
        <time>2012-09-07T09:55:53Z</time>
      </trkpt>
      <trkpt lat="46.01271" lon="1.38657">
        <ele>537</ele>
        <time>2012-09-07T09:55:59Z</time>
      </trkpt>
      <trkpt lat="46.01273" lon="1.38662">
        <ele>537.4</ele>
        <time>2012-09-07T09:56:01Z</time>
      </trkpt>
      <trkpt lat="46.01275" lon="1.38666">
        <ele>537.4</ele>
        <time>2012-09-07T09:56:04Z</time>
      </trkpt>
      <trkpt lat="46.01276" lon="1.38669">
        <ele>537.8</ele>
        <time>2012-09-07T09:56:06Z</time>
      </trkpt>
      <trkpt lat="46.01277" lon="1.38672">
        <ele>537.8</ele>
        <time>2012-09-07T09:56:08Z</time>
      </trkpt>
      <trkpt lat="46.01279" lon="1.38678">
        <ele>538</ele>
        <time>2012-09-07T09:56:12Z</time>
      </trkpt>
      <trkpt lat="46.01285" lon="1.38698">
        <ele>539.4</ele>
        <time>2012-09-07T09:56:20Z</time>
      </trkpt>
      <trkpt lat="46.01294" lon="1.38721">
        <ele>540.8</ele>
        <time>2012-09-07T09:56:27Z</time>
      </trkpt>
      <trkpt lat="46.013" lon="1.38739">
        <ele>541.6</ele>
        <time>2012-09-07T09:56:32Z</time>
      </trkpt>
      <trkpt lat="46.01298" lon="1.38754">
        <ele>542.6</ele>
        <time>2012-09-07T09:56:36Z</time>
      </trkpt>
      <trkpt lat="46.01291" lon="1.3878">
        <ele>544.4</ele>
        <time>2012-09-07T09:56:43Z</time>
      </trkpt>
      <trkpt lat="46.01289" lon="1.38806">
        <ele>545.8</ele>
        <time>2012-09-07T09:56:49Z</time>
      </trkpt>
      <trkpt lat="46.0129" lon="1.38835">
        <ele>546.4</ele>
        <time>2012-09-07T09:56:55Z</time>
      </trkpt>
      <trkpt lat="46.0129" lon="1.3884">
        <ele>546.4</ele>
        <time>2012-09-07T09:56:56Z</time>
      </trkpt>
      <trkpt lat="46.01287" lon="1.38865">
        <ele>546.6</ele>
        <time>2012-09-07T09:57:02Z</time>
      </trkpt>
      <trkpt lat="46.01286" lon="1.38884">
        <ele>546.8</ele>
        <time>2012-09-07T09:57:07Z</time>
      </trkpt>
      <trkpt lat="46.01283" lon="1.38903">
        <ele>547.2</ele>
        <time>2012-09-07T09:57:12Z</time>
      </trkpt>
      <trkpt lat="46.01281" lon="1.38923">
        <ele>547.8</ele>
        <time>2012-09-07T09:57:17Z</time>
      </trkpt>
      <trkpt lat="46.01282" lon="1.38951">
        <ele>548.4</ele>
        <time>2012-09-07T09:57:23Z</time>
      </trkpt>
      <trkpt lat="46.01285" lon="1.3898">
        <ele>548.6</ele>
        <time>2012-09-07T09:57:29Z</time>
      </trkpt>
      <trkpt lat="46.01285" lon="1.38985">
        <ele>548.6</ele>
        <time>2012-09-07T09:57:30Z</time>
      </trkpt>
      <trkpt lat="46.01291" lon="1.39011">
        <ele>548.4</ele>
        <time>2012-09-07T09:57:35Z</time>
      </trkpt>
      <trkpt lat="46.01296" lon="1.3904">
        <ele>548.4</ele>
        <time>2012-09-07T09:57:40Z</time>
      </trkpt>
      <trkpt lat="46.01301" lon="1.39068">
        <ele>549</ele>
        <time>2012-09-07T09:57:45Z</time>
      </trkpt>
      <trkpt lat="46.01303" lon="1.39074">
        <ele>549.2</ele>
        <time>2012-09-07T09:57:46Z</time>
      </trkpt>
      <trkpt lat="46.0131" lon="1.39097">
        <ele>549.8</ele>
        <time>2012-09-07T09:57:51Z</time>
      </trkpt>
      <trkpt lat="46.01311" lon="1.39119">
        <ele>550.6</ele>
        <time>2012-09-07T09:57:56Z</time>
      </trkpt>
      <trkpt lat="46.0131" lon="1.39144">
        <ele>550.8</ele>
        <time>2012-09-07T09:58:01Z</time>
      </trkpt>
      <trkpt lat="46.01308" lon="1.39171">
        <ele>550.8</ele>
        <time>2012-09-07T09:58:06Z</time>
      </trkpt>
      <trkpt lat="46.0131" lon="1.39201">
        <ele>550.6</ele>
        <time>2012-09-07T09:58:11Z</time>
      </trkpt>
      <trkpt lat="46.0131" lon="1.39227">
        <ele>550.4</ele>
        <time>2012-09-07T09:58:16Z</time>
      </trkpt>
      <trkpt lat="46.01308" lon="1.3923">
        <ele>550.4</ele>
        <time>2012-09-07T09:58:17Z</time>
      </trkpt>
      <trkpt lat="46.01303" lon="1.39239">
        <ele>550.2</ele>
        <time>2012-09-07T09:58:20Z</time>
      </trkpt>
      <trkpt lat="46.01295" lon="1.3925">
        <ele>549.8</ele>
        <time>2012-09-07T09:58:24Z</time>
      </trkpt>
      <trkpt lat="46.0128" lon="1.39254">
        <ele>549.4</ele>
        <time>2012-09-07T09:58:30Z</time>
      </trkpt>
      <trkpt lat="46.01265" lon="1.39253">
        <ele>548.8</ele>
        <time>2012-09-07T09:58:36Z</time>
      </trkpt>
      <trkpt lat="46.01253" lon="1.39257">
        <ele>548.4</ele>
        <time>2012-09-07T09:58:42Z</time>
      </trkpt>
      <trkpt lat="46.01255" lon="1.39252">
        <ele>548</ele>
        <time>2012-09-07T09:58:48Z</time>
      </trkpt>
      <trkpt lat="46.01251" lon="1.39254">
        <ele>547.8</ele>
        <time>2012-09-07T09:59:00Z</time>
      </trkpt>
      <trkpt lat="46.01248" lon="1.39252">
        <ele>547.8</ele>
        <time>2012-09-07T09:59:15Z</time>
      </trkpt>
      <trkpt lat="46.01241" lon="1.39255">
        <ele>547.8</ele>
        <time>2012-09-07T09:59:24Z</time>
      </trkpt>
      <trkpt lat="46.01234" lon="1.39256">
        <ele>548.6</ele>
        <time>2012-09-07T09:59:31Z</time>
      </trkpt>
      <trkpt lat="46.0123" lon="1.39256">
        <ele>548.4</ele>
        <time>2012-09-07T09:59:37Z</time>
      </trkpt>
      <trkpt lat="46.01228" lon="1.39254">
        <ele>548.4</ele>
        <time>2012-09-07T09:59:46Z</time>
      </trkpt>
      <trkpt lat="46.0122" lon="1.39254">
        <ele>548</ele>
        <time>2012-09-07T09:59:54Z</time>
      </trkpt>
      <trkpt lat="46.0121" lon="1.39256">
        <ele>547.8</ele>
        <time>2012-09-07T10:00:02Z</time>
      </trkpt>
      <trkpt lat="46.012" lon="1.39256">
        <ele>547.4</ele>
        <time>2012-09-07T10:00:10Z</time>
      </trkpt>
      <trkpt lat="46.01198" lon="1.39257">
        <ele>547.4</ele>
        <time>2012-09-07T10:00:12Z</time>
      </trkpt>
      <trkpt lat="46.01195" lon="1.3926">
        <ele>547.2</ele>
        <time>2012-09-07T10:00:17Z</time>
      </trkpt>
      <trkpt lat="46.01187" lon="1.39265">
        <ele>547</ele>
        <time>2012-09-07T10:00:33Z</time>
      </trkpt>
      <trkpt lat="46.01187" lon="1.39266">
        <ele>547</ele>
        <time>2012-09-07T10:00:34Z</time>
      </trkpt>
      <trkpt lat="46.01184" lon="1.39268">
        <ele>547</ele>
        <time>2012-09-07T10:00:37Z</time>
      </trkpt>
      <trkpt lat="46.01177" lon="1.3927">
        <ele>548</ele>
        <time>2012-09-07T10:00:44Z</time>
      </trkpt>
      <trkpt lat="46.01171" lon="1.39274">
        <ele>548.6</ele>
        <time>2012-09-07T10:00:51Z</time>
      </trkpt>
      <trkpt lat="46.01168" lon="1.39274">
        <ele>549.2</ele>
        <time>2012-09-07T10:00:55Z</time>
      </trkpt>
      <trkpt lat="46.01165" lon="1.39278">
        <ele>550</ele>
        <time>2012-09-07T10:00:59Z</time>
      </trkpt>
      <trkpt lat="46.01162" lon="1.39279">
        <ele>550.2</ele>
        <time>2012-09-07T10:01:02Z</time>
      </trkpt>
      <trkpt lat="46.01159" lon="1.39281">
        <ele>550.6</ele>
        <time>2012-09-07T10:01:05Z</time>
      </trkpt>
      <trkpt lat="46.01157" lon="1.39282">
        <ele>550.8</ele>
        <time>2012-09-07T10:01:07Z</time>
      </trkpt>
      <trkpt lat="46.01153" lon="1.39284">
        <ele>551.4</ele>
        <time>2012-09-07T10:01:11Z</time>
      </trkpt>
      <trkpt lat="46.01147" lon="1.39287">
        <ele>552.2</ele>
        <time>2012-09-07T10:01:16Z</time>
      </trkpt>
      <trkpt lat="46.01144" lon="1.39288">
        <ele>552.8</ele>
        <time>2012-09-07T10:01:18Z</time>
      </trkpt>
      <trkpt lat="46.01141" lon="1.39287">
        <ele>553.6</ele>
        <time>2012-09-07T10:01:22Z</time>
      </trkpt>
      <trkpt lat="46.0114" lon="1.39287">
        <ele>553.8</ele>
        <time>2012-09-07T10:01:23Z</time>
      </trkpt>
      <trkpt lat="46.01134" lon="1.39291">
        <ele>555.2</ele>
        <time>2012-09-07T10:01:29Z</time>
      </trkpt>
      <trkpt lat="46.01128" lon="1.39296">
        <ele>556.4</ele>
        <time>2012-09-07T10:01:36Z</time>
      </trkpt>
      <trkpt lat="46.01122" lon="1.393">
        <ele>557.4</ele>
        <time>2012-09-07T10:01:45Z</time>
      </trkpt>
      <trkpt lat="46.01119" lon="1.39303">
        <ele>557.6</ele>
        <time>2012-09-07T10:01:50Z</time>
      </trkpt>
      <trkpt lat="46.01114" lon="1.39307">
        <ele>558.2</ele>
        <time>2012-09-07T10:01:54Z</time>
      </trkpt>
      <trkpt lat="46.01112" lon="1.39313">
        <ele>559.2</ele>
        <time>2012-09-07T10:02:00Z</time>
      </trkpt>
      <trkpt lat="46.01112" lon="1.39315">
        <ele>559.6</ele>
        <time>2012-09-07T10:02:02Z</time>
      </trkpt>
      <trkpt lat="46.01113" lon="1.39317">
        <ele>560</ele>
        <time>2012-09-07T10:02:04Z</time>
      </trkpt>
      <trkpt lat="46.01113" lon="1.39318">
        <ele>560.2</ele>
        <time>2012-09-07T10:02:05Z</time>
      </trkpt>
      <trkpt lat="46.01113" lon="1.39325">
        <ele>561.4</ele>
        <time>2012-09-07T10:02:09Z</time>
      </trkpt>
      <trkpt lat="46.01112" lon="1.39333">
        <ele>562.8</ele>
        <time>2012-09-07T10:02:15Z</time>
      </trkpt>
      <trkpt lat="46.01111" lon="1.39334">
        <ele>563</ele>
        <time>2012-09-07T10:02:16Z</time>
      </trkpt>
      <trkpt lat="46.0111" lon="1.39337">
        <ele>563.6</ele>
        <time>2012-09-07T10:02:18Z</time>
      </trkpt>
      <trkpt lat="46.0111" lon="1.39337">
        <ele>564</ele>
        <time>2012-09-07T10:02:20Z</time>
      </trkpt>
      <trkpt lat="46.01109" lon="1.39343">
        <ele>566.6</ele>
        <time>2012-09-07T10:02:29Z</time>
      </trkpt>
      <trkpt lat="46.01109" lon="1.39347">
        <ele>567</ele>
        <time>2012-09-07T10:02:31Z</time>
      </trkpt>
      <trkpt lat="46.01107" lon="1.39355">
        <ele>568.4</ele>
        <time>2012-09-07T10:02:38Z</time>
      </trkpt>
      <trkpt lat="46.01107" lon="1.39357">
        <ele>569.8</ele>
        <time>2012-09-07T10:02:45Z</time>
      </trkpt>
      <trkpt lat="46.01104" lon="1.3936">
        <ele>570.4</ele>
        <time>2012-09-07T10:02:48Z</time>
      </trkpt>
      <trkpt lat="46.01102" lon="1.39361">
        <ele>570.8</ele>
        <time>2012-09-07T10:02:50Z</time>
      </trkpt>
      <trkpt lat="46.01097" lon="1.39368">
        <ele>571.8</ele>
        <time>2012-09-07T10:02:54Z</time>
      </trkpt>
      <trkpt lat="46.01093" lon="1.39374">
        <ele>572.8</ele>
        <time>2012-09-07T10:02:57Z</time>
      </trkpt>
      <trkpt lat="46.01083" lon="1.39385">
        <ele>574.6</ele>
        <time>2012-09-07T10:03:04Z</time>
      </trkpt>
      <trkpt lat="46.0108" lon="1.39388">
        <ele>575.6</ele>
        <time>2012-09-07T10:03:08Z</time>
      </trkpt>
      <trkpt lat="46.01078" lon="1.39389">
        <ele>576.2</ele>
        <time>2012-09-07T10:03:10Z</time>
      </trkpt>
      <trkpt lat="46.01073" lon="1.39394">
        <ele>577.2</ele>
        <time>2012-09-07T10:03:16Z</time>
      </trkpt>
      <trkpt lat="46.01072" lon="1.39395">
        <ele>577.4</ele>
        <time>2012-09-07T10:03:17Z</time>
      </trkpt>
      <trkpt lat="46.01065" lon="1.39401">
        <ele>578.2</ele>
        <time>2012-09-07T10:03:23Z</time>
      </trkpt>
      <trkpt lat="46.0106" lon="1.39405">
        <ele>578.4</ele>
        <time>2012-09-07T10:03:27Z</time>
      </trkpt>
      <trkpt lat="46.01056" lon="1.39406">
        <ele>578.6</ele>
        <time>2012-09-07T10:03:30Z</time>
      </trkpt>
      <trkpt lat="46.01054" lon="1.39407">
        <ele>578.8</ele>
        <time>2012-09-07T10:03:31Z</time>
      </trkpt>
      <trkpt lat="46.01041" lon="1.39409">
        <ele>579.2</ele>
        <time>2012-09-07T10:03:38Z</time>
      </trkpt>
      <trkpt lat="46.01028" lon="1.39414">
        <ele>579.4</ele>
        <time>2012-09-07T10:03:46Z</time>
      </trkpt>
      <trkpt lat="46.01026" lon="1.39415">
        <ele>579.6</ele>
        <time>2012-09-07T10:03:48Z</time>
      </trkpt>
      <trkpt lat="46.01021" lon="1.39415">
        <ele>579.6</ele>
        <time>2012-09-07T10:03:51Z</time>
      </trkpt>
      <trkpt lat="46.01012" lon="1.39412">
        <ele>580</ele>
        <time>2012-09-07T10:03:58Z</time>
      </trkpt>
      <trkpt lat="46.01008" lon="1.39413">
        <ele>580</ele>
        <time>2012-09-07T10:04:01Z</time>
      </trkpt>
      <trkpt lat="46.01004" lon="1.39415">
        <ele>580.4</ele>
        <time>2012-09-07T10:04:04Z</time>
      </trkpt>
      <trkpt lat="46.00994" lon="1.39417">
        <ele>580.8</ele>
        <time>2012-09-07T10:04:10Z</time>
      </trkpt>
      <trkpt lat="46.00993" lon="1.39418">
        <ele>580.8</ele>
        <time>2012-09-07T10:04:11Z</time>
      </trkpt>
      <trkpt lat="46.00992" lon="1.39418">
        <ele>581.2</ele>
        <time>2012-09-07T10:04:14Z</time>
      </trkpt>
      <trkpt lat="46.00988" lon="1.39417">
        <ele>581.4</ele>
        <time>2012-09-07T10:04:18Z</time>
      </trkpt>
      <trkpt lat="46.00988" lon="1.39415">
        <ele>581.6</ele>
        <time>2012-09-07T10:04:19Z</time>
      </trkpt>
      <trkpt lat="46.00979" lon="1.3941">
        <ele>583</ele>
        <time>2012-09-07T10:04:28Z</time>
      </trkpt>
      <trkpt lat="46.00976" lon="1.39408">
        <ele>584</ele>
        <time>2012-09-07T10:04:35Z</time>
      </trkpt>
      <trkpt lat="46.0097" lon="1.39405">
        <ele>585</ele>
        <time>2012-09-07T10:04:42Z</time>
      </trkpt>
      <trkpt lat="46.00969" lon="1.39405">
        <ele>585.2</ele>
        <time>2012-09-07T10:04:43Z</time>
      </trkpt>
      <trkpt lat="46.00967" lon="1.39405">
        <ele>585.2</ele>
        <time>2012-09-07T10:04:44Z</time>
      </trkpt>
      <trkpt lat="46.00962" lon="1.394">
        <ele>585.6</ele>
        <time>2012-09-07T10:04:48Z</time>
      </trkpt>
      <trkpt lat="46.00957" lon="1.39398">
        <ele>586</ele>
        <time>2012-09-07T10:04:52Z</time>
      </trkpt>
      <trkpt lat="46.00954" lon="1.39398">
        <ele>586.2</ele>
        <time>2012-09-07T10:04:54Z</time>
      </trkpt>
      <trkpt lat="46.00949" lon="1.39396">
        <ele>587</ele>
        <time>2012-09-07T10:04:59Z</time>
      </trkpt>
      <trkpt lat="46.00945" lon="1.39396">
        <ele>587.4</ele>
        <time>2012-09-07T10:05:01Z</time>
      </trkpt>
      <trkpt lat="46.0094" lon="1.39396">
        <ele>588.6</ele>
        <time>2012-09-07T10:05:06Z</time>
      </trkpt>
      <trkpt lat="46.00938" lon="1.39398">
        <ele>588.8</ele>
        <time>2012-09-07T10:05:07Z</time>
      </trkpt>
      <trkpt lat="46.00934" lon="1.39399">
        <ele>589.8</ele>
        <time>2012-09-07T10:05:10Z</time>
      </trkpt>
      <trkpt lat="46.00932" lon="1.39397">
        <ele>590.8</ele>
        <time>2012-09-07T10:05:13Z</time>
      </trkpt>
      <trkpt lat="46.00926" lon="1.39397">
        <ele>592.6</ele>
        <time>2012-09-07T10:05:19Z</time>
      </trkpt>
      <trkpt lat="46.00923" lon="1.39398">
        <ele>593.6</ele>
        <time>2012-09-07T10:05:22Z</time>
      </trkpt>
      <trkpt lat="46.00919" lon="1.39401">
        <ele>594.8</ele>
        <time>2012-09-07T10:05:25Z</time>
      </trkpt>
      <trkpt lat="46.00913" lon="1.39404">
        <ele>596.6</ele>
        <time>2012-09-07T10:05:31Z</time>
      </trkpt>
      <trkpt lat="46.00912" lon="1.39406">
        <ele>597</ele>
        <time>2012-09-07T10:05:32Z</time>
      </trkpt>
      <trkpt lat="46.00903" lon="1.39409">
        <ele>599.2</ele>
        <time>2012-09-07T10:05:39Z</time>
      </trkpt>
      <trkpt lat="46.00893" lon="1.39411">
        <ele>601.8</ele>
        <time>2012-09-07T10:05:47Z</time>
      </trkpt>
      <trkpt lat="46.00888" lon="1.39411">
        <ele>602.8</ele>
        <time>2012-09-07T10:05:51Z</time>
      </trkpt>
      <trkpt lat="46.00884" lon="1.39413">
        <ele>603.6</ele>
        <time>2012-09-07T10:05:54Z</time>
      </trkpt>
      <trkpt lat="46.00876" lon="1.39417">
        <ele>604.2</ele>
        <time>2012-09-07T10:05:59Z</time>
      </trkpt>
      <trkpt lat="46.00869" lon="1.3942">
        <ele>605</ele>
        <time>2012-09-07T10:06:05Z</time>
      </trkpt>
      <trkpt lat="46.00861" lon="1.39426">
        <ele>605.4</ele>
        <time>2012-09-07T10:06:11Z</time>
      </trkpt>
      <trkpt lat="46.00859" lon="1.39429">
        <ele>605.6</ele>
        <time>2012-09-07T10:06:13Z</time>
      </trkpt>
      <trkpt lat="46.00856" lon="1.39432">
        <ele>605.8</ele>
        <time>2012-09-07T10:06:15Z</time>
      </trkpt>
      <trkpt lat="46.00855" lon="1.39432">
        <ele>605.8</ele>
        <time>2012-09-07T10:06:16Z</time>
      </trkpt>
      <trkpt lat="46.00853" lon="1.39434">
        <ele>606</ele>
        <time>2012-09-07T10:06:18Z</time>
      </trkpt>
      <trkpt lat="46.00851" lon="1.39437">
        <ele>606.4</ele>
        <time>2012-09-07T10:06:21Z</time>
      </trkpt>
      <trkpt lat="46.00848" lon="1.39442">
        <ele>606.8</ele>
        <time>2012-09-07T10:06:24Z</time>
      </trkpt>
      <trkpt lat="46.00847" lon="1.39442">
        <ele>607</ele>
        <time>2012-09-07T10:06:25Z</time>
      </trkpt>
      <trkpt lat="46.00841" lon="1.39449">
        <ele>607.8</ele>
        <time>2012-09-07T10:06:29Z</time>
      </trkpt>
      <trkpt lat="46.00832" lon="1.39461">
        <ele>609.4</ele>
        <time>2012-09-07T10:06:35Z</time>
      </trkpt>
      <trkpt lat="46.0082" lon="1.39473">
        <ele>611</ele>
        <time>2012-09-07T10:06:42Z</time>
      </trkpt>
      <trkpt lat="46.00807" lon="1.39484">
        <ele>611.8</ele>
        <time>2012-09-07T10:06:48Z</time>
      </trkpt>
      <trkpt lat="46.00796" lon="1.39491">
        <ele>612</ele>
        <time>2012-09-07T10:06:54Z</time>
      </trkpt>
      <trkpt lat="46.00788" lon="1.39497">
        <ele>611.8</ele>
        <time>2012-09-07T10:06:59Z</time>
      </trkpt>
      <trkpt lat="46.00778" lon="1.39505">
        <ele>612.2</ele>
        <time>2012-09-07T10:07:05Z</time>
      </trkpt>
      <trkpt lat="46.00767" lon="1.39512">
        <ele>612.6</ele>
        <time>2012-09-07T10:07:12Z</time>
      </trkpt>
      <trkpt lat="46.00756" lon="1.39517">
        <ele>613.2</ele>
        <time>2012-09-07T10:07:19Z</time>
      </trkpt>
      <trkpt lat="46.00746" lon="1.39517">
        <ele>613.8</ele>
        <time>2012-09-07T10:07:25Z</time>
      </trkpt>
      <trkpt lat="46.00745" lon="1.39518">
        <ele>614</ele>
        <time>2012-09-07T10:07:30Z</time>
      </trkpt>
      <trkpt lat="46.00739" lon="1.39525">
        <ele>614.4</ele>
        <time>2012-09-07T10:09:31Z</time>
      </trkpt>
      <trkpt lat="46.00738" lon="1.39525">
        <ele>614.4</ele>
        <time>2012-09-07T10:09:32Z</time>
      </trkpt>
      <trkpt lat="46.00737" lon="1.39526">
        <ele>614.6</ele>
        <time>2012-09-07T10:09:36Z</time>
      </trkpt>
      <trkpt lat="46.00733" lon="1.39537">
        <ele>615</ele>
        <time>2012-09-07T10:09:43Z</time>
      </trkpt>
      <trkpt lat="46.00733" lon="1.39538">
        <ele>615.2</ele>
        <time>2012-09-07T10:09:44Z</time>
      </trkpt>
      <trkpt lat="46.00734" lon="1.39539">
        <ele>615.6</ele>
        <time>2012-09-07T10:09:48Z</time>
      </trkpt>
      <trkpt lat="46.00736" lon="1.39552">
        <ele>616.2</ele>
        <time>2012-09-07T10:09:53Z</time>
      </trkpt>
      <trkpt lat="46.0074" lon="1.3956">
        <ele>616.4</ele>
        <time>2012-09-07T10:09:56Z</time>
      </trkpt>
      <trkpt lat="46.00744" lon="1.39568">
        <ele>616.6</ele>
        <time>2012-09-07T10:09:58Z</time>
      </trkpt>
      <trkpt lat="46.00754" lon="1.39587">
        <ele>616.8</ele>
        <time>2012-09-07T10:10:03Z</time>
      </trkpt>
      <trkpt lat="46.00766" lon="1.3961">
        <ele>616.8</ele>
        <time>2012-09-07T10:10:08Z</time>
      </trkpt>
      <trkpt lat="46.00771" lon="1.3962">
        <ele>617</ele>
        <time>2012-09-07T10:10:10Z</time>
      </trkpt>
      <trkpt lat="46.00783" lon="1.39643">
        <ele>617</ele>
        <time>2012-09-07T10:10:15Z</time>
      </trkpt>
      <trkpt lat="46.00791" lon="1.3966">
        <ele>617</ele>
        <time>2012-09-07T10:10:19Z</time>
      </trkpt>
      <trkpt lat="46.00803" lon="1.3968">
        <ele>617.2</ele>
        <time>2012-09-07T10:10:24Z</time>
      </trkpt>
      <trkpt lat="46.00812" lon="1.39707">
        <ele>617.2</ele>
        <time>2012-09-07T10:10:30Z</time>
      </trkpt>
      <trkpt lat="46.00814" lon="1.39711">
        <ele>617.2</ele>
        <time>2012-09-07T10:10:31Z</time>
      </trkpt>
      <trkpt lat="46.00822" lon="1.39734">
        <ele>617.2</ele>
        <time>2012-09-07T10:10:36Z</time>
      </trkpt>
      <trkpt lat="46.00824" lon="1.39739">
        <ele>617.2</ele>
        <time>2012-09-07T10:10:37Z</time>
      </trkpt>
      <trkpt lat="46.00835" lon="1.39763">
        <ele>617.2</ele>
        <time>2012-09-07T10:10:42Z</time>
      </trkpt>
      <trkpt lat="46.00836" lon="1.39768">
        <ele>617.4</ele>
        <time>2012-09-07T10:10:43Z</time>
      </trkpt>
      <trkpt lat="46.00845" lon="1.39792">
        <ele>617.4</ele>
        <time>2012-09-07T10:10:48Z</time>
      </trkpt>
      <trkpt lat="46.00851" lon="1.39808">
        <ele>617.4</ele>
        <time>2012-09-07T10:10:51Z</time>
      </trkpt>
      <trkpt lat="46.00862" lon="1.39833">
        <ele>617.6</ele>
        <time>2012-09-07T10:10:57Z</time>
      </trkpt>
      <trkpt lat="46.00868" lon="1.39846">
        <ele>617.6</ele>
        <time>2012-09-07T10:11:02Z</time>
      </trkpt>
      <trkpt lat="46.00877" lon="1.39858">
        <ele>617.8</ele>
        <time>2012-09-07T10:11:07Z</time>
      </trkpt>
      <trkpt lat="46.00889" lon="1.39878">
        <ele>618</ele>
        <time>2012-09-07T10:11:13Z</time>
      </trkpt>
      <trkpt lat="46.0089" lon="1.39882">
        <ele>618.2</ele>
        <time>2012-09-07T10:11:14Z</time>
      </trkpt>
      <trkpt lat="46.00901" lon="1.39897">
        <ele>618.2</ele>
        <time>2012-09-07T10:11:19Z</time>
      </trkpt>
      <trkpt lat="46.00916" lon="1.39906">
        <ele>619.6</ele>
        <time>2012-09-07T10:11:24Z</time>
      </trkpt>
      <trkpt lat="46.00925" lon="1.39919">
        <ele>620.2</ele>
        <time>2012-09-07T10:11:29Z</time>
      </trkpt>
      <trkpt lat="46.00935" lon="1.39934">
        <ele>620.8</ele>
        <time>2012-09-07T10:11:35Z</time>
      </trkpt>
      <trkpt lat="46.00943" lon="1.39951">
        <ele>621.2</ele>
        <time>2012-09-07T10:11:41Z</time>
      </trkpt>
      <trkpt lat="46.00953" lon="1.39976">
        <ele>621.6</ele>
        <time>2012-09-07T10:11:47Z</time>
      </trkpt>
      <trkpt lat="46.00959" lon="1.39999">
        <ele>621.8</ele>
        <time>2012-09-07T10:11:52Z</time>
      </trkpt>
      <trkpt lat="46.00956" lon="1.40015">
        <ele>622.4</ele>
        <time>2012-09-07T10:11:57Z</time>
      </trkpt>
      <trkpt lat="46.00954" lon="1.40031">
        <ele>623</ele>
        <time>2012-09-07T10:12:01Z</time>
      </trkpt>
      <trkpt lat="46.00955" lon="1.40035">
        <ele>623</ele>
        <time>2012-09-07T10:12:02Z</time>
      </trkpt>
      <trkpt lat="46.00962" lon="1.40056">
        <ele>623.4</ele>
        <time>2012-09-07T10:12:06Z</time>
      </trkpt>
      <trkpt lat="46.00968" lon="1.40081">
        <ele>623.6</ele>
        <time>2012-09-07T10:12:10Z</time>
      </trkpt>
      <trkpt lat="46.00969" lon="1.4009">
        <ele>623.6</ele>
        <time>2012-09-07T10:12:11Z</time>
      </trkpt>
      <trkpt lat="46.00976" lon="1.40112">
        <ele>623.8</ele>
        <time>2012-09-07T10:12:13Z</time>
      </trkpt>
      <trkpt lat="46.00981" lon="1.40125">
        <ele>623.6</ele>
        <time>2012-09-07T10:12:15Z</time>
      </trkpt>
      <trkpt lat="46.00986" lon="1.4014">
        <ele>623.6</ele>
        <time>2012-09-07T10:12:17Z</time>
      </trkpt>
      <trkpt lat="46.00988" lon="1.40155">
        <ele>623.6</ele>
        <time>2012-09-07T10:12:19Z</time>
      </trkpt>
      <trkpt lat="46.00988" lon="1.40178">
        <ele>623.4</ele>
        <time>2012-09-07T10:12:22Z</time>
      </trkpt>
      <trkpt lat="46.0099" lon="1.40201">
        <ele>623.4</ele>
        <time>2012-09-07T10:12:24Z</time>
      </trkpt>
      <trkpt lat="46.0101" lon="1.40215">
        <ele>623.2</ele>
        <time>2012-09-07T10:12:28Z</time>
      </trkpt>
      <trkpt lat="46.01024" lon="1.40221">
        <ele>623</ele>
        <time>2012-09-07T10:12:31Z</time>
      </trkpt>
      <trkpt lat="46.0103" lon="1.40225">
        <ele>623</ele>
        <time>2012-09-07T10:12:32Z</time>
      </trkpt>
      <trkpt lat="46.01035" lon="1.4023">
        <ele>622.8</ele>
        <time>2012-09-07T10:12:33Z</time>
      </trkpt>
      <trkpt lat="46.01055" lon="1.40244">
        <ele>622.4</ele>
        <time>2012-09-07T10:12:37Z</time>
      </trkpt>
      <trkpt lat="46.01069" lon="1.40253">
        <ele>622</ele>
        <time>2012-09-07T10:12:40Z</time>
      </trkpt>
      <trkpt lat="46.01078" lon="1.40257">
        <ele>621.8</ele>
        <time>2012-09-07T10:12:42Z</time>
      </trkpt>
      <trkpt lat="46.01085" lon="1.40259">
        <ele>621.6</ele>
        <time>2012-09-07T10:12:44Z</time>
      </trkpt>
      <trkpt lat="46.01095" lon="1.4026">
        <ele>621.4</ele>
        <time>2012-09-07T10:12:46Z</time>
      </trkpt>
      <trkpt lat="46.01112" lon="1.40261">
        <ele>620.8</ele>
        <time>2012-09-07T10:12:50Z</time>
      </trkpt>
      <trkpt lat="46.01117" lon="1.40261">
        <ele>620.4</ele>
        <time>2012-09-07T10:12:52Z</time>
      </trkpt>
      <trkpt lat="46.0112" lon="1.40263">
        <ele>620.2</ele>
        <time>2012-09-07T10:12:53Z</time>
      </trkpt>
      <trkpt lat="46.01125" lon="1.40264">
        <ele>619.8</ele>
        <time>2012-09-07T10:12:55Z</time>
      </trkpt>
      <trkpt lat="46.01136" lon="1.40262">
        <ele>619</ele>
        <time>2012-09-07T10:13:00Z</time>
      </trkpt>
      <trkpt lat="46.0114" lon="1.40261">
        <ele>618.6</ele>
        <time>2012-09-07T10:13:02Z</time>
      </trkpt>
      <trkpt lat="46.0115" lon="1.40264">
        <ele>618</ele>
        <time>2012-09-07T10:13:05Z</time>
      </trkpt>
      <trkpt lat="46.01167" lon="1.4027">
        <ele>616.8</ele>
        <time>2012-09-07T10:13:10Z</time>
      </trkpt>
      <trkpt lat="46.01183" lon="1.40274">
        <ele>615.8</ele>
        <time>2012-09-07T10:13:16Z</time>
      </trkpt>
      <trkpt lat="46.01185" lon="1.40277">
        <ele>615.4</ele>
        <time>2012-09-07T10:13:18Z</time>
      </trkpt>
      <trkpt lat="46.01193" lon="1.40289">
        <ele>614.6</ele>
        <time>2012-09-07T10:13:21Z</time>
      </trkpt>
      <trkpt lat="46.01203" lon="1.403">
        <ele>613.6</ele>
        <time>2012-09-07T10:13:25Z</time>
      </trkpt>
      <trkpt lat="46.01204" lon="1.40303">
        <ele>613.4</ele>
        <time>2012-09-07T10:13:26Z</time>
      </trkpt>
      <trkpt lat="46.01211" lon="1.40309">
        <ele>612.6</ele>
        <time>2012-09-07T10:13:29Z</time>
      </trkpt>
      <trkpt lat="46.01219" lon="1.40321">
        <ele>611.2</ele>
        <time>2012-09-07T10:13:34Z</time>
      </trkpt>
      <trkpt lat="46.01225" lon="1.40324">
        <ele>610.4</ele>
        <time>2012-09-07T10:13:37Z</time>
      </trkpt>
      <trkpt lat="46.01231" lon="1.40327">
        <ele>609.8</ele>
        <time>2012-09-07T10:13:40Z</time>
      </trkpt>
      <trkpt lat="46.01234" lon="1.40329">
        <ele>609.6</ele>
        <time>2012-09-07T10:13:41Z</time>
      </trkpt>
      <trkpt lat="46.0124" lon="1.40338">
        <ele>608.6</ele>
        <time>2012-09-07T10:13:44Z</time>
      </trkpt>
      <trkpt lat="46.01245" lon="1.40339">
        <ele>608</ele>
        <time>2012-09-07T10:13:46Z</time>
      </trkpt>
      <trkpt lat="46.01249" lon="1.40345">
        <ele>607.2</ele>
        <time>2012-09-07T10:13:48Z</time>
      </trkpt>
      <trkpt lat="46.01251" lon="1.40358">
        <ele>606.2</ele>
        <time>2012-09-07T10:13:51Z</time>
      </trkpt>
      <trkpt lat="46.01251" lon="1.40363">
        <ele>605.8</ele>
        <time>2012-09-07T10:13:52Z</time>
      </trkpt>
      <trkpt lat="46.0125" lon="1.4039">
        <ele>603.6</ele>
        <time>2012-09-07T10:13:58Z</time>
      </trkpt>
      <trkpt lat="46.01249" lon="1.40414">
        <ele>602</ele>
        <time>2012-09-07T10:14:02Z</time>
      </trkpt>
      <trkpt lat="46.01253" lon="1.40433">
        <ele>600.8</ele>
        <time>2012-09-07T10:14:05Z</time>
      </trkpt>
      <trkpt lat="46.01263" lon="1.40449">
        <ele>599.2</ele>
        <time>2012-09-07T10:14:09Z</time>
      </trkpt>
      <trkpt lat="46.01266" lon="1.40452">
        <ele>598.8</ele>
        <time>2012-09-07T10:14:10Z</time>
      </trkpt>
      <trkpt lat="46.01284" lon="1.40471">
        <ele>597</ele>
        <time>2012-09-07T10:14:16Z</time>
      </trkpt>
      <trkpt lat="46.01287" lon="1.40474">
        <ele>596.8</ele>
        <time>2012-09-07T10:14:17Z</time>
      </trkpt>
      <trkpt lat="46.01293" lon="1.40486">
        <ele>595.4</ele>
        <time>2012-09-07T10:14:22Z</time>
      </trkpt>
      <trkpt lat="46.01296" lon="1.40499">
        <ele>593.4</ele>
        <time>2012-09-07T10:14:29Z</time>
      </trkpt>
      <trkpt lat="46.01298" lon="1.40512">
        <ele>592</ele>
        <time>2012-09-07T10:14:34Z</time>
      </trkpt>
      <trkpt lat="46.013" lon="1.40518">
        <ele>591.2</ele>
        <time>2012-09-07T10:14:37Z</time>
      </trkpt>
      <trkpt lat="46.013" lon="1.40536">
        <ele>590.4</ele>
        <time>2012-09-07T10:14:42Z</time>
      </trkpt>
      <trkpt lat="46.01298" lon="1.40554">
        <ele>589.8</ele>
        <time>2012-09-07T10:14:47Z</time>
      </trkpt>
      <trkpt lat="46.01298" lon="1.40557">
        <ele>589.6</ele>
        <time>2012-09-07T10:14:48Z</time>
      </trkpt>
      <trkpt lat="46.01294" lon="1.40571">
        <ele>589.2</ele>
        <time>2012-09-07T10:14:53Z</time>
      </trkpt>
      <trkpt lat="46.01294" lon="1.40584">
        <ele>588.6</ele>
        <time>2012-09-07T10:14:59Z</time>
      </trkpt>
      <trkpt lat="46.01298" lon="1.40601">
        <ele>588</ele>
        <time>2012-09-07T10:15:06Z</time>
      </trkpt>
      <trkpt lat="46.01303" lon="1.40608">
        <ele>587.6</ele>
        <time>2012-09-07T10:15:11Z</time>
      </trkpt>
      <trkpt lat="46.01305" lon="1.40611">
        <ele>587.4</ele>
        <time>2012-09-07T10:15:13Z</time>
      </trkpt>
      <trkpt lat="46.01314" lon="1.40617">
        <ele>587</ele>
        <time>2012-09-07T10:15:19Z</time>
      </trkpt>
      <trkpt lat="46.01323" lon="1.40624">
        <ele>586.4</ele>
        <time>2012-09-07T10:15:25Z</time>
      </trkpt>
      <trkpt lat="46.01332" lon="1.4063">
        <ele>586</ele>
        <time>2012-09-07T10:15:31Z</time>
      </trkpt>
      <trkpt lat="46.01335" lon="1.40632">
        <ele>586</ele>
        <time>2012-09-07T10:15:33Z</time>
      </trkpt>
      <trkpt lat="46.01345" lon="1.40639">
        <ele>585.8</ele>
        <time>2012-09-07T10:15:39Z</time>
      </trkpt>
      <trkpt lat="46.01357" lon="1.40651">
        <ele>585.4</ele>
        <time>2012-09-07T10:15:48Z</time>
      </trkpt>
      <trkpt lat="46.01358" lon="1.40667">
        <ele>585.2</ele>
        <time>2012-09-07T10:15:54Z</time>
      </trkpt>
      <trkpt lat="46.01355" lon="1.40683">
        <ele>585.2</ele>
        <time>2012-09-07T10:16:00Z</time>
      </trkpt>
      <trkpt lat="46.01353" lon="1.40699">
        <ele>585</ele>
        <time>2012-09-07T10:16:06Z</time>
      </trkpt>
      <trkpt lat="46.0135" lon="1.4072">
        <ele>585</ele>
        <time>2012-09-07T10:16:14Z</time>
      </trkpt>
      <trkpt lat="46.0135" lon="1.40734">
        <ele>585</ele>
        <time>2012-09-07T10:16:19Z</time>
      </trkpt>
      <trkpt lat="46.01347" lon="1.40743">
        <ele>585.6</ele>
        <time>2012-09-07T10:16:23Z</time>
      </trkpt>
      <trkpt lat="46.01341" lon="1.40763">
        <ele>586.6</ele>
        <time>2012-09-07T10:16:30Z</time>
      </trkpt>
      <trkpt lat="46.01336" lon="1.4078">
        <ele>587.4</ele>
        <time>2012-09-07T10:16:37Z</time>
      </trkpt>
      <trkpt lat="46.01328" lon="1.408">
        <ele>588</ele>
        <time>2012-09-07T10:16:44Z</time>
      </trkpt>
      <trkpt lat="46.01318" lon="1.40814">
        <ele>588.6</ele>
        <time>2012-09-07T10:16:50Z</time>
      </trkpt>
      <trkpt lat="46.01307" lon="1.40825">
        <ele>588.4</ele>
        <time>2012-09-07T10:16:56Z</time>
      </trkpt>
      <trkpt lat="46.01293" lon="1.40838">
        <ele>588</ele>
        <time>2012-09-07T10:17:04Z</time>
      </trkpt>
      <trkpt lat="46.0128" lon="1.40858">
        <ele>588</ele>
        <time>2012-09-07T10:17:12Z</time>
      </trkpt>
      <trkpt lat="46.01281" lon="1.4086">
        <ele>588</ele>
        <time>2012-09-07T10:17:13Z</time>
      </trkpt>
      <trkpt lat="46.01279" lon="1.40867">
        <ele>588</ele>
        <time>2012-09-07T10:17:16Z</time>
      </trkpt>
      <trkpt lat="46.01274" lon="1.40884">
        <ele>588.2</ele>
        <time>2012-09-07T10:17:21Z</time>
      </trkpt>
      <trkpt lat="46.01267" lon="1.40904">
        <ele>588</ele>
        <time>2012-09-07T10:17:27Z</time>
      </trkpt>
      <trkpt lat="46.01257" lon="1.40919">
        <ele>588</ele>
        <time>2012-09-07T10:17:33Z</time>
      </trkpt>
      <trkpt lat="46.0124" lon="1.4092">
        <ele>587.8</ele>
        <time>2012-09-07T10:17:39Z</time>
      </trkpt>
      <trkpt lat="46.01221" lon="1.4092">
        <ele>587.6</ele>
        <time>2012-09-07T10:17:45Z</time>
      </trkpt>
      <trkpt lat="46.01218" lon="1.40921">
        <ele>587.6</ele>
        <time>2012-09-07T10:17:46Z</time>
      </trkpt>
      <trkpt lat="46.01201" lon="1.40928">
        <ele>587.4</ele>
        <time>2012-09-07T10:17:51Z</time>
      </trkpt>
      <trkpt lat="46.01197" lon="1.40929">
        <ele>587.4</ele>
        <time>2012-09-07T10:17:52Z</time>
      </trkpt>
      <trkpt lat="46.01178" lon="1.40935">
        <ele>587</ele>
        <time>2012-09-07T10:17:58Z</time>
      </trkpt>
      <trkpt lat="46.01176" lon="1.40935">
        <ele>587</ele>
        <time>2012-09-07T10:17:59Z</time>
      </trkpt>
      <trkpt lat="46.01161" lon="1.40933">
        <ele>586.8</ele>
        <time>2012-09-07T10:18:04Z</time>
      </trkpt>
      <trkpt lat="46.01142" lon="1.4094">
        <ele>586.4</ele>
        <time>2012-09-07T10:18:09Z</time>
      </trkpt>
      <trkpt lat="46.01127" lon="1.40954">
        <ele>586</ele>
        <time>2012-09-07T10:18:14Z</time>
      </trkpt>
      <trkpt lat="46.01123" lon="1.40959">
        <ele>585.8</ele>
        <time>2012-09-07T10:18:15Z</time>
      </trkpt>
      <trkpt lat="46.01108" lon="1.40982">
        <ele>585.4</ele>
        <time>2012-09-07T10:18:19Z</time>
      </trkpt>
      <trkpt lat="46.01105" lon="1.40988">
        <ele>585.2</ele>
        <time>2012-09-07T10:18:20Z</time>
      </trkpt>
      <trkpt lat="46.0109" lon="1.41012">
        <ele>584.8</ele>
        <time>2012-09-07T10:18:24Z</time>
      </trkpt>
      <trkpt lat="46.01082" lon="1.4102">
        <ele>584.6</ele>
        <time>2012-09-07T10:18:26Z</time>
      </trkpt>
      <trkpt lat="46.01077" lon="1.41023">
        <ele>584.4</ele>
        <time>2012-09-07T10:18:27Z</time>
      </trkpt>
      <trkpt lat="46.01058" lon="1.41029">
        <ele>584</ele>
        <time>2012-09-07T10:18:32Z</time>
      </trkpt>
      <trkpt lat="46.01049" lon="1.41029">
        <ele>583.6</ele>
        <time>2012-09-07T10:18:35Z</time>
      </trkpt>
      <trkpt lat="46.01037" lon="1.4103">
        <ele>583.2</ele>
        <time>2012-09-07T10:18:39Z</time>
      </trkpt>
      <trkpt lat="46.01026" lon="1.41036">
        <ele>582.8</ele>
        <time>2012-09-07T10:18:45Z</time>
      </trkpt>
      <trkpt lat="46.01025" lon="1.41042">
        <ele>582.8</ele>
        <time>2012-09-07T10:18:47Z</time>
      </trkpt>
      <trkpt lat="46.01024" lon="1.41047">
        <ele>582.6</ele>
        <time>2012-09-07T10:18:50Z</time>
      </trkpt>
      <trkpt lat="46.0102" lon="1.41051">
        <ele>582.4</ele>
        <time>2012-09-07T10:18:53Z</time>
      </trkpt>
      <trkpt lat="46.01018" lon="1.41053">
        <ele>582.4</ele>
        <time>2012-09-07T10:18:55Z</time>
      </trkpt>
      <trkpt lat="46.01012" lon="1.41061">
        <ele>582.6</ele>
        <time>2012-09-07T10:19:00Z</time>
      </trkpt>
      <trkpt lat="46.01008" lon="1.41065">
        <ele>582.8</ele>
        <time>2012-09-07T10:19:04Z</time>
      </trkpt>
      <trkpt lat="46.01008" lon="1.41066">
        <ele>582.8</ele>
        <time>2012-09-07T10:19:05Z</time>
      </trkpt>
      <trkpt lat="46.00997" lon="1.41071">
        <ele>584.6</ele>
        <time>2012-09-07T10:19:20Z</time>
      </trkpt>
      <trkpt lat="46.00997" lon="1.41071">
        <ele>585</ele>
        <time>2012-09-07T10:19:21Z</time>
      </trkpt>
      <trkpt lat="46.00996" lon="1.4107">
        <ele>586.4</ele>
        <time>2012-09-07T10:19:25Z</time>
      </trkpt>
      <trkpt lat="46.00994" lon="1.41071">
        <ele>589.2</ele>
        <time>2012-09-07T10:19:32Z</time>
      </trkpt>
      <trkpt lat="46.00991" lon="1.41067">
        <ele>590.4</ele>
        <time>2012-09-07T10:19:36Z</time>
      </trkpt>
      <trkpt lat="46.0099" lon="1.41067">
        <ele>591</ele>
        <time>2012-09-07T10:19:37Z</time>
      </trkpt>
      <trkpt lat="46.00987" lon="1.41069">
        <ele>592.2</ele>
        <time>2012-09-07T10:19:40Z</time>
      </trkpt>
      <trkpt lat="46.00985" lon="1.4107">
        <ele>593</ele>
        <time>2012-09-07T10:19:42Z</time>
      </trkpt>
      <trkpt lat="46.0098" lon="1.41074">
        <ele>594.2</ele>
        <time>2012-09-07T10:19:46Z</time>
      </trkpt>
      <trkpt lat="46.00977" lon="1.41074">
        <ele>595.8</ele>
        <time>2012-09-07T10:19:53Z</time>
      </trkpt>
      <trkpt lat="46.00977" lon="1.41069">
        <ele>601</ele>
        <time>2012-09-07T10:20:28Z</time>
      </trkpt>
      <trkpt lat="46.00975" lon="1.4107">
        <ele>601.6</ele>
        <time>2012-09-07T10:20:31Z</time>
      </trkpt>
      <trkpt lat="46.00976" lon="1.41079">
        <ele>613.4</ele>
        <time>2012-09-07T10:21:40Z</time>
      </trkpt>
      <trkpt lat="46.00978" lon="1.41079">
        <ele>614.6</ele>
        <time>2012-09-07T10:21:41Z</time>
      </trkpt>
      <trkpt lat="46.00981" lon="1.41081">
        <ele>619.8</ele>
        <time>2012-09-07T10:21:46Z</time>
      </trkpt>
      <trkpt lat="46.00983" lon="1.41077">
        <ele>632</ele>
        <time>2012-09-07T10:22:10Z</time>
      </trkpt>
      <trkpt lat="46.00976" lon="1.41082">
        <ele>631.6</ele>
        <time>2012-09-07T10:22:14Z</time>
      </trkpt>
      <trkpt lat="46.00967" lon="1.41087">
        <ele>630.6</ele>
        <time>2012-09-07T10:22:20Z</time>
      </trkpt>
      <trkpt lat="46.0096" lon="1.41096">
        <ele>629.2</ele>
        <time>2012-09-07T10:22:26Z</time>
      </trkpt>
      <trkpt lat="46.00954" lon="1.41103">
        <ele>628.2</ele>
        <time>2012-09-07T10:22:32Z</time>
      </trkpt>
      <trkpt lat="46.0095" lon="1.41105">
        <ele>627.4</ele>
        <time>2012-09-07T10:22:35Z</time>
      </trkpt>
      <trkpt lat="46.00949" lon="1.41107">
        <ele>627.4</ele>
        <time>2012-09-07T10:22:36Z</time>
      </trkpt>
      <trkpt lat="46.00945" lon="1.4111">
        <ele>626.8</ele>
        <time>2012-09-07T10:22:39Z</time>
      </trkpt>
      <trkpt lat="46.00944" lon="1.41111">
        <ele>626.6</ele>
        <time>2012-09-07T10:22:40Z</time>
      </trkpt>
      <trkpt lat="46.00943" lon="1.41112">
        <ele>626.4</ele>
        <time>2012-09-07T10:22:41Z</time>
      </trkpt>
      <trkpt lat="46.00942" lon="1.4111">
        <ele>625.6</ele>
        <time>2012-09-07T10:22:47Z</time>
      </trkpt>
      <trkpt lat="46.00937" lon="1.41103">
        <ele>625</ele>
        <time>2012-09-07T10:22:52Z</time>
      </trkpt>
      <trkpt lat="46.00934" lon="1.41096">
        <ele>624.4</ele>
        <time>2012-09-07T10:22:56Z</time>
      </trkpt>
      <trkpt lat="46.00934" lon="1.41095">
        <ele>624.4</ele>
        <time>2012-09-07T10:22:57Z</time>
      </trkpt>
      <trkpt lat="46.00926" lon="1.41092">
        <ele>623.4</ele>
        <time>2012-09-07T10:23:02Z</time>
      </trkpt>
      <trkpt lat="46.00915" lon="1.41094">
        <ele>622.4</ele>
        <time>2012-09-07T10:23:07Z</time>
      </trkpt>
      <trkpt lat="46.00906" lon="1.411">
        <ele>621.6</ele>
        <time>2012-09-07T10:23:11Z</time>
      </trkpt>
      <trkpt lat="46.00901" lon="1.41102">
        <ele>620.8</ele>
        <time>2012-09-07T10:23:14Z</time>
      </trkpt>
      <trkpt lat="46.00887" lon="1.41106">
        <ele>619.4</ele>
        <time>2012-09-07T10:23:20Z</time>
      </trkpt>
      <trkpt lat="46.00876" lon="1.4111">
        <ele>618.2</ele>
        <time>2012-09-07T10:23:25Z</time>
      </trkpt>
      <trkpt lat="46.00871" lon="1.41111">
        <ele>617.4</ele>
        <time>2012-09-07T10:23:31Z</time>
      </trkpt>
      <trkpt lat="46.00871" lon="1.41113">
        <ele>617.2</ele>
        <time>2012-09-07T10:23:33Z</time>
      </trkpt>
      <trkpt lat="46.00866" lon="1.41116">
        <ele>616.8</ele>
        <time>2012-09-07T10:23:37Z</time>
      </trkpt>
      <trkpt lat="46.0086" lon="1.41124">
        <ele>616.6</ele>
        <time>2012-09-07T10:23:44Z</time>
      </trkpt>
      <trkpt lat="46.00856" lon="1.4113">
        <ele>616.6</ele>
        <time>2012-09-07T10:23:50Z</time>
      </trkpt>
      <trkpt lat="46.00851" lon="1.4114">
        <ele>616.8</ele>
        <time>2012-09-07T10:23:57Z</time>
      </trkpt>
      <trkpt lat="46.00847" lon="1.41145">
        <ele>617</ele>
        <time>2012-09-07T10:24:02Z</time>
      </trkpt>
      <trkpt lat="46.00843" lon="1.41148">
        <ele>617.6</ele>
        <time>2012-09-07T10:24:07Z</time>
      </trkpt>
      <trkpt lat="46.00836" lon="1.41153">
        <ele>618.2</ele>
        <time>2012-09-07T10:24:13Z</time>
      </trkpt>
      <trkpt lat="46.00834" lon="1.41152">
        <ele>618.4</ele>
        <time>2012-09-07T10:24:14Z</time>
      </trkpt>
      <trkpt lat="46.00827" lon="1.41155">
        <ele>619.4</ele>
        <time>2012-09-07T10:24:19Z</time>
      </trkpt>
      <trkpt lat="46.00821" lon="1.4116">
        <ele>620</ele>
        <time>2012-09-07T10:24:24Z</time>
      </trkpt>
      <trkpt lat="46.00816" lon="1.41171">
        <ele>620.6</ele>
        <time>2012-09-07T10:24:30Z</time>
      </trkpt>
      <trkpt lat="46.0081" lon="1.41176">
        <ele>620.6</ele>
        <time>2012-09-07T10:24:33Z</time>
      </trkpt>
      <trkpt lat="46.00807" lon="1.41179">
        <ele>620.8</ele>
        <time>2012-09-07T10:24:35Z</time>
      </trkpt>
      <trkpt lat="46.00798" lon="1.41185">
        <ele>620.8</ele>
        <time>2012-09-07T10:24:40Z</time>
      </trkpt>
      <trkpt lat="46.00793" lon="1.4119">
        <ele>621</ele>
        <time>2012-09-07T10:24:44Z</time>
      </trkpt>
      <trkpt lat="46.0079" lon="1.41191">
        <ele>621.2</ele>
        <time>2012-09-07T10:24:46Z</time>
      </trkpt>
      <trkpt lat="46.00786" lon="1.41194">
        <ele>621.4</ele>
        <time>2012-09-07T10:24:49Z</time>
      </trkpt>
      <trkpt lat="46.00781" lon="1.41198">
        <ele>622</ele>
        <time>2012-09-07T10:24:52Z</time>
      </trkpt>
      <trkpt lat="46.00777" lon="1.41205">
        <ele>622.4</ele>
        <time>2012-09-07T10:24:54Z</time>
      </trkpt>
      <trkpt lat="46.00768" lon="1.41218">
        <ele>623</ele>
        <time>2012-09-07T10:25:00Z</time>
      </trkpt>
      <trkpt lat="46.00756" lon="1.41224">
        <ele>624.6</ele>
        <time>2012-09-07T10:25:07Z</time>
      </trkpt>
      <trkpt lat="46.00747" lon="1.41228">
        <ele>625</ele>
        <time>2012-09-07T10:25:12Z</time>
      </trkpt>
      <trkpt lat="46.00738" lon="1.41236">
        <ele>626.2</ele>
        <time>2012-09-07T10:25:18Z</time>
      </trkpt>
      <trkpt lat="46.00729" lon="1.41239">
        <ele>626.6</ele>
        <time>2012-09-07T10:25:23Z</time>
      </trkpt>
      <trkpt lat="46.00715" lon="1.41251">
        <ele>627.2</ele>
        <time>2012-09-07T10:25:29Z</time>
      </trkpt>
      <trkpt lat="46.00708" lon="1.41255">
        <ele>628</ele>
        <time>2012-09-07T10:25:34Z</time>
      </trkpt>
      <trkpt lat="46.007" lon="1.41258">
        <ele>628.8</ele>
        <time>2012-09-07T10:25:39Z</time>
      </trkpt>
      <trkpt lat="46.00695" lon="1.41263">
        <ele>629.2</ele>
        <time>2012-09-07T10:25:42Z</time>
      </trkpt>
      <trkpt lat="46.00692" lon="1.41264">
        <ele>629.2</ele>
        <time>2012-09-07T10:25:44Z</time>
      </trkpt>
      <trkpt lat="46.0068" lon="1.41272">
        <ele>629.8</ele>
        <time>2012-09-07T10:25:49Z</time>
      </trkpt>
      <trkpt lat="46.00675" lon="1.41276">
        <ele>630</ele>
        <time>2012-09-07T10:25:51Z</time>
      </trkpt>
      <trkpt lat="46.00667" lon="1.41278">
        <ele>629.8</ele>
        <time>2012-09-07T10:25:54Z</time>
      </trkpt>
      <trkpt lat="46.00657" lon="1.41281">
        <ele>629.8</ele>
        <time>2012-09-07T10:25:58Z</time>
      </trkpt>
      <trkpt lat="46.00653" lon="1.41284">
        <ele>629.8</ele>
        <time>2012-09-07T10:26:00Z</time>
      </trkpt>
      <trkpt lat="46.00646" lon="1.4129">
        <ele>629.8</ele>
        <time>2012-09-07T10:26:03Z</time>
      </trkpt>
      <trkpt lat="46.00642" lon="1.41294">
        <ele>629.8</ele>
        <time>2012-09-07T10:26:05Z</time>
      </trkpt>
      <trkpt lat="46.00631" lon="1.41302">
        <ele>630</ele>
        <time>2012-09-07T10:26:09Z</time>
      </trkpt>
      <trkpt lat="46.00621" lon="1.41311">
        <ele>630.2</ele>
        <time>2012-09-07T10:26:15Z</time>
      </trkpt>
      <trkpt lat="46.00607" lon="1.41321">
        <ele>630.4</ele>
        <time>2012-09-07T10:26:20Z</time>
      </trkpt>
      <trkpt lat="46.00595" lon="1.4133">
        <ele>631</ele>
        <time>2012-09-07T10:26:26Z</time>
      </trkpt>
      <trkpt lat="46.00585" lon="1.41334">
        <ele>631.6</ele>
        <time>2012-09-07T10:26:31Z</time>
      </trkpt>
      <trkpt lat="46.0058" lon="1.4134">
        <ele>632</ele>
        <time>2012-09-07T10:26:34Z</time>
      </trkpt>
      <trkpt lat="46.00577" lon="1.41342">
        <ele>632</ele>
        <time>2012-09-07T10:26:35Z</time>
      </trkpt>
      <trkpt lat="46.00563" lon="1.41355">
        <ele>632.2</ele>
        <time>2012-09-07T10:26:40Z</time>
      </trkpt>
      <trkpt lat="46.0055" lon="1.41364">
        <ele>632.2</ele>
        <time>2012-09-07T10:26:45Z</time>
      </trkpt>
      <trkpt lat="46.00536" lon="1.41375">
        <ele>632.2</ele>
        <time>2012-09-07T10:26:48Z</time>
      </trkpt>
      <trkpt lat="46.0052" lon="1.41385">
        <ele>632.2</ele>
        <time>2012-09-07T10:26:52Z</time>
      </trkpt>
      <trkpt lat="46.00513" lon="1.41389">
        <ele>632.2</ele>
        <time>2012-09-07T10:26:56Z</time>
      </trkpt>
      <trkpt lat="46.00512" lon="1.41388">
        <ele>632</ele>
        <time>2012-09-07T10:27:00Z</time>
      </trkpt>
      <trkpt lat="46.00512" lon="1.41393">
        <ele>634.2</ele>
        <time>2012-09-07T10:27:13Z</time>
      </trkpt>
      <trkpt lat="46.00511" lon="1.41398">
        <ele>634.6</ele>
        <time>2012-09-07T10:27:15Z</time>
      </trkpt>
      <trkpt lat="46.00505" lon="1.41411">
        <ele>634.8</ele>
        <time>2012-09-07T10:27:19Z</time>
      </trkpt>
      <trkpt lat="46.00502" lon="1.41416">
        <ele>635</ele>
        <time>2012-09-07T10:27:21Z</time>
      </trkpt>
      <trkpt lat="46.00492" lon="1.41432">
        <ele>635.2</ele>
        <time>2012-09-07T10:27:25Z</time>
      </trkpt>
      <trkpt lat="46.00491" lon="1.41438">
        <ele>635.4</ele>
        <time>2012-09-07T10:27:27Z</time>
      </trkpt>
      <trkpt lat="46.0049" lon="1.41447">
        <ele>635.6</ele>
        <time>2012-09-07T10:27:29Z</time>
      </trkpt>
      <trkpt lat="46.0049" lon="1.41466">
        <ele>636.2</ele>
        <time>2012-09-07T10:27:35Z</time>
      </trkpt>
      <trkpt lat="46.00489" lon="1.41469">
        <ele>636.2</ele>
        <time>2012-09-07T10:27:36Z</time>
      </trkpt>
      <trkpt lat="46.00487" lon="1.41485">
        <ele>636.4</ele>
        <time>2012-09-07T10:27:40Z</time>
      </trkpt>
      <trkpt lat="46.00484" lon="1.41489">
        <ele>636.4</ele>
        <time>2012-09-07T10:27:41Z</time>
      </trkpt>
      <trkpt lat="46.00482" lon="1.41499">
        <ele>636.6</ele>
        <time>2012-09-07T10:27:44Z</time>
      </trkpt>
      <trkpt lat="46.00483" lon="1.4152">
        <ele>637</ele>
        <time>2012-09-07T10:27:50Z</time>
      </trkpt>
      <trkpt lat="46.00483" lon="1.41522">
        <ele>637</ele>
        <time>2012-09-07T10:27:51Z</time>
      </trkpt>
      <trkpt lat="46.00483" lon="1.41531">
        <ele>637.4</ele>
        <time>2012-09-07T10:27:54Z</time>
      </trkpt>
      <trkpt lat="46.00482" lon="1.41539">
        <ele>637.6</ele>
        <time>2012-09-07T10:27:57Z</time>
      </trkpt>
      <trkpt lat="46.0048" lon="1.41545">
        <ele>638</ele>
        <time>2012-09-07T10:27:59Z</time>
      </trkpt>
      <trkpt lat="46.00475" lon="1.41556">
        <ele>638.6</ele>
        <time>2012-09-07T10:28:04Z</time>
      </trkpt>
      <trkpt lat="46.00472" lon="1.41562">
        <ele>638.8</ele>
        <time>2012-09-07T10:28:06Z</time>
      </trkpt>
      <trkpt lat="46.0047" lon="1.41565">
        <ele>638.8</ele>
        <time>2012-09-07T10:28:07Z</time>
      </trkpt>
      <trkpt lat="46.00462" lon="1.41579">
        <ele>639.2</ele>
        <time>2012-09-07T10:28:11Z</time>
      </trkpt>
      <trkpt lat="46.00457" lon="1.4159">
        <ele>639.4</ele>
        <time>2012-09-07T10:28:15Z</time>
      </trkpt>
      <trkpt lat="46.00453" lon="1.416">
        <ele>639.4</ele>
        <time>2012-09-07T10:28:19Z</time>
      </trkpt>
      <trkpt lat="46.00451" lon="1.41603">
        <ele>639.4</ele>
        <time>2012-09-07T10:28:20Z</time>
      </trkpt>
      <trkpt lat="46.00451" lon="1.41613">
        <ele>639.8</ele>
        <time>2012-09-07T10:28:25Z</time>
      </trkpt>
      <trkpt lat="46.00452" lon="1.41623">
        <ele>640</ele>
        <time>2012-09-07T10:28:29Z</time>
      </trkpt>
      <trkpt lat="46.00452" lon="1.41626">
        <ele>640</ele>
        <time>2012-09-07T10:28:30Z</time>
      </trkpt>
      <trkpt lat="46.00453" lon="1.41639">
        <ele>640.2</ele>
        <time>2012-09-07T10:28:35Z</time>
      </trkpt>
      <trkpt lat="46.0045" lon="1.41659">
        <ele>640</ele>
        <time>2012-09-07T10:28:40Z</time>
      </trkpt>
      <trkpt lat="46.00451" lon="1.41672">
        <ele>640</ele>
        <time>2012-09-07T10:28:44Z</time>
      </trkpt>
      <trkpt lat="46.00449" lon="1.41681">
        <ele>640</ele>
        <time>2012-09-07T10:28:46Z</time>
      </trkpt>
      <trkpt lat="46.00446" lon="1.41692">
        <ele>640</ele>
        <time>2012-09-07T10:28:48Z</time>
      </trkpt>
      <trkpt lat="46.00444" lon="1.41711">
        <ele>640</ele>
        <time>2012-09-07T10:28:53Z</time>
      </trkpt>
      <trkpt lat="46.00438" lon="1.41737">
        <ele>640</ele>
        <time>2012-09-07T10:28:58Z</time>
      </trkpt>
      <trkpt lat="46.00434" lon="1.41757">
        <ele>640.2</ele>
        <time>2012-09-07T10:29:03Z</time>
      </trkpt>
      <trkpt lat="46.00429" lon="1.41774">
        <ele>640.6</ele>
        <time>2012-09-07T10:29:08Z</time>
      </trkpt>
      <trkpt lat="46.0043" lon="1.41777">
        <ele>640.8</ele>
        <time>2012-09-07T10:29:09Z</time>
      </trkpt>
      <trkpt lat="46.0043" lon="1.41783">
        <ele>641.2</ele>
        <time>2012-09-07T10:29:12Z</time>
      </trkpt>
      <trkpt lat="46.00429" lon="1.41785">
        <ele>641.2</ele>
        <time>2012-09-07T10:29:14Z</time>
      </trkpt>
      <trkpt lat="46.00428" lon="1.41788">
        <ele>641.4</ele>
        <time>2012-09-07T10:29:17Z</time>
      </trkpt>
      <trkpt lat="46.00427" lon="1.41791">
        <ele>641.4</ele>
        <time>2012-09-07T10:29:18Z</time>
      </trkpt>
      <trkpt lat="46.00421" lon="1.418">
        <ele>641.4</ele>
        <time>2012-09-07T10:29:21Z</time>
      </trkpt>
      <trkpt lat="46.00418" lon="1.41804">
        <ele>641.4</ele>
        <time>2012-09-07T10:29:22Z</time>
      </trkpt>
      <trkpt lat="46.00409" lon="1.41815">
        <ele>642</ele>
        <time>2012-09-07T10:29:27Z</time>
      </trkpt>
      <trkpt lat="46.00402" lon="1.41828">
        <ele>641.8</ele>
        <time>2012-09-07T10:29:31Z</time>
      </trkpt>
      <trkpt lat="46.00401" lon="1.4183">
        <ele>642</ele>
        <time>2012-09-07T10:29:32Z</time>
      </trkpt>
      <trkpt lat="46.00398" lon="1.41838">
        <ele>641.8</ele>
        <time>2012-09-07T10:29:36Z</time>
      </trkpt>
      <trkpt lat="46.00396" lon="1.41841">
        <ele>641.8</ele>
        <time>2012-09-07T10:29:37Z</time>
      </trkpt>
      <trkpt lat="46.0039" lon="1.4185">
        <ele>641.6</ele>
        <time>2012-09-07T10:29:40Z</time>
      </trkpt>
      <trkpt lat="46.00388" lon="1.41853">
        <ele>641.6</ele>
        <time>2012-09-07T10:29:41Z</time>
      </trkpt>
      <trkpt lat="46.00378" lon="1.41868">
        <ele>641.4</ele>
        <time>2012-09-07T10:29:45Z</time>
      </trkpt>
      <trkpt lat="46.00371" lon="1.41879">
        <ele>641.2</ele>
        <time>2012-09-07T10:29:49Z</time>
      </trkpt>
      <trkpt lat="46.00371" lon="1.41882">
        <ele>641</ele>
        <time>2012-09-07T10:29:50Z</time>
      </trkpt>
      <trkpt lat="46.00374" lon="1.41894">
        <ele>640.8</ele>
        <time>2012-09-07T10:29:53Z</time>
      </trkpt>
      <trkpt lat="46.00373" lon="1.419">
        <ele>640.8</ele>
        <time>2012-09-07T10:29:54Z</time>
      </trkpt>
      <trkpt lat="46.0038" lon="1.41924">
        <ele>640.2</ele>
        <time>2012-09-07T10:29:59Z</time>
      </trkpt>
      <trkpt lat="46.00388" lon="1.41935">
        <ele>639.8</ele>
        <time>2012-09-07T10:30:03Z</time>
      </trkpt>
      <trkpt lat="46.00393" lon="1.41936">
        <ele>639.6</ele>
        <time>2012-09-07T10:30:05Z</time>
      </trkpt>
      <trkpt lat="46.00399" lon="1.41931">
        <ele>639.4</ele>
        <time>2012-09-07T10:30:07Z</time>
      </trkpt>
      <trkpt lat="46.0041" lon="1.41923">
        <ele>639</ele>
        <time>2012-09-07T10:30:11Z</time>
      </trkpt>
      <trkpt lat="46.00427" lon="1.41918">
        <ele>638.6</ele>
        <time>2012-09-07T10:30:16Z</time>
      </trkpt>
      <trkpt lat="46.00441" lon="1.41927">
        <ele>638.2</ele>
        <time>2012-09-07T10:30:20Z</time>
      </trkpt>
      <trkpt lat="46.00459" lon="1.41935">
        <ele>637.4</ele>
        <time>2012-09-07T10:30:25Z</time>
      </trkpt>
      <trkpt lat="46.00463" lon="1.41937">
        <ele>637.4</ele>
        <time>2012-09-07T10:30:26Z</time>
      </trkpt>
      <trkpt lat="46.0048" lon="1.4194">
        <ele>636.6</ele>
        <time>2012-09-07T10:30:31Z</time>
      </trkpt>
      <trkpt lat="46.00495" lon="1.41947">
        <ele>635.6</ele>
        <time>2012-09-07T10:30:36Z</time>
      </trkpt>
      <trkpt lat="46.00511" lon="1.41954">
        <ele>634.8</ele>
        <time>2012-09-07T10:30:40Z</time>
      </trkpt>
      <trkpt lat="46.00529" lon="1.41955">
        <ele>634</ele>
        <time>2012-09-07T10:30:45Z</time>
      </trkpt>
      <trkpt lat="46.00545" lon="1.41955">
        <ele>633.2</ele>
        <time>2012-09-07T10:30:50Z</time>
      </trkpt>
      <trkpt lat="46.00551" lon="1.41956">
        <ele>632.6</ele>
        <time>2012-09-07T10:30:52Z</time>
      </trkpt>
      <trkpt lat="46.00563" lon="1.41962">
        <ele>632</ele>
        <time>2012-09-07T10:30:56Z</time>
      </trkpt>
      <trkpt lat="46.0057" lon="1.4197">
        <ele>631.6</ele>
        <time>2012-09-07T10:30:59Z</time>
      </trkpt>
      <trkpt lat="46.00573" lon="1.41979">
        <ele>631.2</ele>
        <time>2012-09-07T10:31:01Z</time>
      </trkpt>
      <trkpt lat="46.00571" lon="1.41994">
        <ele>630.6</ele>
        <time>2012-09-07T10:31:04Z</time>
      </trkpt>
      <trkpt lat="46.00569" lon="1.41999">
        <ele>630.4</ele>
        <time>2012-09-07T10:31:05Z</time>
      </trkpt>
      <trkpt lat="46.00557" lon="1.42013">
        <ele>629.4</ele>
        <time>2012-09-07T10:31:09Z</time>
      </trkpt>
      <trkpt lat="46.00547" lon="1.4202">
        <ele>628.4</ele>
        <time>2012-09-07T10:31:13Z</time>
      </trkpt>
      <trkpt lat="46.00532" lon="1.42029">
        <ele>627.4</ele>
        <time>2012-09-07T10:31:17Z</time>
      </trkpt>
      <trkpt lat="46.00513" lon="1.42038">
        <ele>626.2</ele>
        <time>2012-09-07T10:31:21Z</time>
      </trkpt>
      <trkpt lat="46.00508" lon="1.42041">
        <ele>626</ele>
        <time>2012-09-07T10:31:22Z</time>
      </trkpt>
      <trkpt lat="46.005" lon="1.42048">
        <ele>625.4</ele>
        <time>2012-09-07T10:31:24Z</time>
      </trkpt>
      <trkpt lat="46.00489" lon="1.42059">
        <ele>624.6</ele>
        <time>2012-09-07T10:31:27Z</time>
      </trkpt>
      <trkpt lat="46.0048" lon="1.42075">
        <ele>623.8</ele>
        <time>2012-09-07T10:31:30Z</time>
      </trkpt>
      <trkpt lat="46.00478" lon="1.4208">
        <ele>623.6</ele>
        <time>2012-09-07T10:31:31Z</time>
      </trkpt>
      <trkpt lat="46.00476" lon="1.42088">
        <ele>623.4</ele>
        <time>2012-09-07T10:31:32Z</time>
      </trkpt>
      <trkpt lat="46.00468" lon="1.42114">
        <ele>623</ele>
        <time>2012-09-07T10:31:35Z</time>
      </trkpt>
      <trkpt lat="46.00466" lon="1.42123">
        <ele>622.8</ele>
        <time>2012-09-07T10:31:36Z</time>
      </trkpt>
      <trkpt lat="46.00467" lon="1.42133">
        <ele>622.6</ele>
        <time>2012-09-07T10:31:38Z</time>
      </trkpt>
      <trkpt lat="46.00469" lon="1.42135">
        <ele>622.4</ele>
        <time>2012-09-07T10:31:39Z</time>
      </trkpt>
      <trkpt lat="46.00468" lon="1.42149">
        <ele>622.2</ele>
        <time>2012-09-07T10:31:42Z</time>
      </trkpt>
      <trkpt lat="46.00465" lon="1.42158">
        <ele>621.8</ele>
        <time>2012-09-07T10:31:44Z</time>
      </trkpt>
      <trkpt lat="46.0047" lon="1.4217">
        <ele>621.4</ele>
        <time>2012-09-07T10:31:48Z</time>
      </trkpt>
      <trkpt lat="46.00479" lon="1.42186">
        <ele>621</ele>
        <time>2012-09-07T10:31:52Z</time>
      </trkpt>
      <trkpt lat="46.00482" lon="1.4219">
        <ele>621</ele>
        <time>2012-09-07T10:31:53Z</time>
      </trkpt>
      <trkpt lat="46.00482" lon="1.42211">
        <ele>620.8</ele>
        <time>2012-09-07T10:31:57Z</time>
      </trkpt>
      <trkpt lat="46.00474" lon="1.42236">
        <ele>620.2</ele>
        <time>2012-09-07T10:32:02Z</time>
      </trkpt>
      <trkpt lat="46.00473" lon="1.42245">
        <ele>619.6</ele>
        <time>2012-09-07T10:32:06Z</time>
      </trkpt>
      <trkpt lat="46.00473" lon="1.42247">
        <ele>619.6</ele>
        <time>2012-09-07T10:32:07Z</time>
      </trkpt>
      <trkpt lat="46.0047" lon="1.42257">
        <ele>619</ele>
        <time>2012-09-07T10:32:10Z</time>
      </trkpt>
      <trkpt lat="46.0047" lon="1.42262">
        <ele>618.6</ele>
        <time>2012-09-07T10:32:12Z</time>
      </trkpt>
      <trkpt lat="46.00469" lon="1.42274">
        <ele>617.6</ele>
        <time>2012-09-07T10:32:16Z</time>
      </trkpt>
      <trkpt lat="46.0047" lon="1.42279">
        <ele>617.2</ele>
        <time>2012-09-07T10:32:18Z</time>
      </trkpt>
      <trkpt lat="46.00474" lon="1.42289">
        <ele>616.4</ele>
        <time>2012-09-07T10:32:21Z</time>
      </trkpt>
      <trkpt lat="46.00484" lon="1.42306">
        <ele>615</ele>
        <time>2012-09-07T10:32:26Z</time>
      </trkpt>
      <trkpt lat="46.0049" lon="1.4232">
        <ele>614</ele>
        <time>2012-09-07T10:32:30Z</time>
      </trkpt>
      <trkpt lat="46.00501" lon="1.42327">
        <ele>613</ele>
        <time>2012-09-07T10:32:34Z</time>
      </trkpt>
      <trkpt lat="46.0051" lon="1.42336">
        <ele>611.8</ele>
        <time>2012-09-07T10:32:39Z</time>
      </trkpt>
      <trkpt lat="46.0051" lon="1.42339">
        <ele>610.8</ele>
        <time>2012-09-07T10:32:43Z</time>
      </trkpt>
      <trkpt lat="46.00517" lon="1.42339">
        <ele>605.8</ele>
        <time>2012-09-07T10:33:39Z</time>
      </trkpt>
      <trkpt lat="46.0053" lon="1.4235">
        <ele>605.2</ele>
        <time>2012-09-07T10:33:44Z</time>
      </trkpt>
      <trkpt lat="46.00545" lon="1.42357">
        <ele>604.4</ele>
        <time>2012-09-07T10:33:51Z</time>
      </trkpt>
      <trkpt lat="46.0056" lon="1.42356">
        <ele>603.6</ele>
        <time>2012-09-07T10:33:57Z</time>
      </trkpt>
      <trkpt lat="46.00576" lon="1.42353">
        <ele>602.8</ele>
        <time>2012-09-07T10:34:03Z</time>
      </trkpt>
      <trkpt lat="46.00596" lon="1.42349">
        <ele>602</ele>
        <time>2012-09-07T10:34:10Z</time>
      </trkpt>
      <trkpt lat="46.00601" lon="1.42348">
        <ele>601.6</ele>
        <time>2012-09-07T10:34:12Z</time>
      </trkpt>
      <trkpt lat="46.0062" lon="1.42345">
        <ele>600.8</ele>
        <time>2012-09-07T10:34:19Z</time>
      </trkpt>
      <trkpt lat="46.00622" lon="1.42344">
        <ele>600.8</ele>
        <time>2012-09-07T10:34:20Z</time>
      </trkpt>
      <trkpt lat="46.00636" lon="1.42342">
        <ele>600.2</ele>
        <time>2012-09-07T10:34:25Z</time>
      </trkpt>
      <trkpt lat="46.00654" lon="1.42341">
        <ele>599.6</ele>
        <time>2012-09-07T10:34:32Z</time>
      </trkpt>
      <trkpt lat="46.0067" lon="1.42341">
        <ele>599</ele>
        <time>2012-09-07T10:34:38Z</time>
      </trkpt>
      <trkpt lat="46.00687" lon="1.42346">
        <ele>598.8</ele>
        <time>2012-09-07T10:34:45Z</time>
      </trkpt>
      <trkpt lat="46.00702" lon="1.42354">
        <ele>598.8</ele>
        <time>2012-09-07T10:34:50Z</time>
      </trkpt>
      <trkpt lat="46.00717" lon="1.42362">
        <ele>599.6</ele>
        <time>2012-09-07T10:34:56Z</time>
      </trkpt>
      <trkpt lat="46.00734" lon="1.42365">
        <ele>599.6</ele>
        <time>2012-09-07T10:35:02Z</time>
      </trkpt>
      <trkpt lat="46.00748" lon="1.42367">
        <ele>599.4</ele>
        <time>2012-09-07T10:35:06Z</time>
      </trkpt>
      <trkpt lat="46.00767" lon="1.42375">
        <ele>599.2</ele>
        <time>2012-09-07T10:35:10Z</time>
      </trkpt>
      <trkpt lat="46.00779" lon="1.42378">
        <ele>599</ele>
        <time>2012-09-07T10:35:12Z</time>
      </trkpt>
      <trkpt lat="46.00795" lon="1.42384">
        <ele>598.6</ele>
        <time>2012-09-07T10:35:15Z</time>
      </trkpt>
      <trkpt lat="46.00801" lon="1.42384">
        <ele>598.6</ele>
        <time>2012-09-07T10:35:16Z</time>
      </trkpt>
      <trkpt lat="46.0082" lon="1.42384">
        <ele>598.2</ele>
        <time>2012-09-07T10:35:20Z</time>
      </trkpt>
      <trkpt lat="46.00839" lon="1.42387">
        <ele>597.8</ele>
        <time>2012-09-07T10:35:24Z</time>
      </trkpt>
      <trkpt lat="46.00843" lon="1.42389">
        <ele>597.8</ele>
        <time>2012-09-07T10:35:25Z</time>
      </trkpt>
      <trkpt lat="46.00858" lon="1.42392">
        <ele>597.4</ele>
        <time>2012-09-07T10:35:28Z</time>
      </trkpt>
      <trkpt lat="46.00869" lon="1.42395">
        <ele>597.2</ele>
        <time>2012-09-07T10:35:30Z</time>
      </trkpt>
      <trkpt lat="46.00881" lon="1.42396">
        <ele>597</ele>
        <time>2012-09-07T10:35:32Z</time>
      </trkpt>
      <trkpt lat="46.00891" lon="1.42399">
        <ele>597</ele>
        <time>2012-09-07T10:35:34Z</time>
      </trkpt>
      <trkpt lat="46.00905" lon="1.42404">
        <ele>596.8</ele>
        <time>2012-09-07T10:35:37Z</time>
      </trkpt>
      <trkpt lat="46.00914" lon="1.42406">
        <ele>596.6</ele>
        <time>2012-09-07T10:35:39Z</time>
      </trkpt>
      <trkpt lat="46.0093" lon="1.42411">
        <ele>596.4</ele>
        <time>2012-09-07T10:35:42Z</time>
      </trkpt>
      <trkpt lat="46.00936" lon="1.42413">
        <ele>596.4</ele>
        <time>2012-09-07T10:35:43Z</time>
      </trkpt>
      <trkpt lat="46.00941" lon="1.42414">
        <ele>596.2</ele>
        <time>2012-09-07T10:35:44Z</time>
      </trkpt>
      <trkpt lat="46.00958" lon="1.42432">
        <ele>596</ele>
        <time>2012-09-07T10:35:48Z</time>
      </trkpt>
      <trkpt lat="46.00961" lon="1.42438">
        <ele>595.8</ele>
        <time>2012-09-07T10:35:49Z</time>
      </trkpt>
      <trkpt lat="46.00969" lon="1.4246">
        <ele>595.6</ele>
        <time>2012-09-07T10:35:52Z</time>
      </trkpt>
      <trkpt lat="46.00971" lon="1.42475">
        <ele>595.4</ele>
        <time>2012-09-07T10:35:54Z</time>
      </trkpt>
      <trkpt lat="46.0097" lon="1.42481">
        <ele>595.4</ele>
        <time>2012-09-07T10:35:55Z</time>
      </trkpt>
      <trkpt lat="46.00968" lon="1.42488">
        <ele>595.2</ele>
        <time>2012-09-07T10:35:56Z</time>
      </trkpt>
      <trkpt lat="46.00963" lon="1.42503">
        <ele>595</ele>
        <time>2012-09-07T10:35:59Z</time>
      </trkpt>
      <trkpt lat="46.0096" lon="1.42509">
        <ele>594.8</ele>
        <time>2012-09-07T10:36:00Z</time>
      </trkpt>
      <trkpt lat="46.00951" lon="1.4252">
        <ele>594.6</ele>
        <time>2012-09-07T10:36:02Z</time>
      </trkpt>
      <trkpt lat="46.00938" lon="1.42541">
        <ele>594.2</ele>
        <time>2012-09-07T10:36:05Z</time>
      </trkpt>
      <trkpt lat="46.00935" lon="1.42548">
        <ele>594.2</ele>
        <time>2012-09-07T10:36:06Z</time>
      </trkpt>
      <trkpt lat="46.00926" lon="1.42572">
        <ele>593.8</ele>
        <time>2012-09-07T10:36:09Z</time>
      </trkpt>
      <trkpt lat="46.0092" lon="1.42585">
        <ele>593.6</ele>
        <time>2012-09-07T10:36:11Z</time>
      </trkpt>
      <trkpt lat="46.00913" lon="1.42612">
        <ele>593.4</ele>
        <time>2012-09-07T10:36:15Z</time>
      </trkpt>
      <trkpt lat="46.00911" lon="1.42619">
        <ele>593.4</ele>
        <time>2012-09-07T10:36:16Z</time>
      </trkpt>
      <trkpt lat="46.00904" lon="1.42644">
        <ele>593</ele>
        <time>2012-09-07T10:36:20Z</time>
      </trkpt>
      <trkpt lat="46.00903" lon="1.42652">
        <ele>593</ele>
        <time>2012-09-07T10:36:21Z</time>
      </trkpt>
      <trkpt lat="46.00903" lon="1.42666">
        <ele>593</ele>
        <time>2012-09-07T10:36:23Z</time>
      </trkpt>
      <trkpt lat="46.00901" lon="1.42694">
        <ele>592.8</ele>
        <time>2012-09-07T10:36:27Z</time>
      </trkpt>
      <trkpt lat="46.00901" lon="1.427">
        <ele>592.8</ele>
        <time>2012-09-07T10:36:28Z</time>
      </trkpt>
      <trkpt lat="46.009" lon="1.42706">
        <ele>592.6</ele>
        <time>2012-09-07T10:36:29Z</time>
      </trkpt>
      <trkpt lat="46.00899" lon="1.42734">
        <ele>592.4</ele>
        <time>2012-09-07T10:36:33Z</time>
      </trkpt>
      <trkpt lat="46.00899" lon="1.42741">
        <ele>592.4</ele>
        <time>2012-09-07T10:36:34Z</time>
      </trkpt>
      <trkpt lat="46.00895" lon="1.42769">
        <ele>592.2</ele>
        <time>2012-09-07T10:36:38Z</time>
      </trkpt>
      <trkpt lat="46.00895" lon="1.42779">
        <ele>592.2</ele>
        <time>2012-09-07T10:36:40Z</time>
      </trkpt>
      <trkpt lat="46.00893" lon="1.42809">
        <ele>592</ele>
        <time>2012-09-07T10:36:45Z</time>
      </trkpt>
      <trkpt lat="46.00895" lon="1.42814">
        <ele>592</ele>
        <time>2012-09-07T10:36:46Z</time>
      </trkpt>
      <trkpt lat="46.00896" lon="1.42819">
        <ele>592</ele>
        <time>2012-09-07T10:36:47Z</time>
      </trkpt>
      <trkpt lat="46.00908" lon="1.42835">
        <ele>591.8</ele>
        <time>2012-09-07T10:36:52Z</time>
      </trkpt>
      <trkpt lat="46.0092" lon="1.42856">
        <ele>591.8</ele>
        <time>2012-09-07T10:36:59Z</time>
      </trkpt>
      <trkpt lat="46.00932" lon="1.42874">
        <ele>592.2</ele>
        <time>2012-09-07T10:37:05Z</time>
      </trkpt>
      <trkpt lat="46.00947" lon="1.4289">
        <ele>593.6</ele>
        <time>2012-09-07T10:37:11Z</time>
      </trkpt>
      <trkpt lat="46.00959" lon="1.42903">
        <ele>594.8</ele>
        <time>2012-09-07T10:37:17Z</time>
      </trkpt>
      <trkpt lat="46.0097" lon="1.42917">
        <ele>595.8</ele>
        <time>2012-09-07T10:37:24Z</time>
      </trkpt>
      <trkpt lat="46.00974" lon="1.42928">
        <ele>596.4</ele>
        <time>2012-09-07T10:37:29Z</time>
      </trkpt>
      <trkpt lat="46.00976" lon="1.4293">
        <ele>596.6</ele>
        <time>2012-09-07T10:37:30Z</time>
      </trkpt>
      <trkpt lat="46.00979" lon="1.42934">
        <ele>597</ele>
        <time>2012-09-07T10:37:33Z</time>
      </trkpt>
      <trkpt lat="46.00981" lon="1.42936">
        <ele>597.2</ele>
        <time>2012-09-07T10:37:34Z</time>
      </trkpt>
      <trkpt lat="46.0099" lon="1.42945">
        <ele>598.4</ele>
        <time>2012-09-07T10:37:39Z</time>
      </trkpt>
      <trkpt lat="46.00995" lon="1.42957">
        <ele>599.4</ele>
        <time>2012-09-07T10:37:45Z</time>
      </trkpt>
      <trkpt lat="46.01007" lon="1.42966">
        <ele>600.2</ele>
        <time>2012-09-07T10:37:53Z</time>
      </trkpt>
      <trkpt lat="46.01019" lon="1.42974">
        <ele>601.2</ele>
        <time>2012-09-07T10:38:01Z</time>
      </trkpt>
      <trkpt lat="46.01035" lon="1.42977">
        <ele>601.8</ele>
        <time>2012-09-07T10:38:09Z</time>
      </trkpt>
      <trkpt lat="46.01047" lon="1.42985">
        <ele>601.6</ele>
        <time>2012-09-07T10:38:14Z</time>
      </trkpt>
      <trkpt lat="46.01047" lon="1.42988">
        <ele>601.8</ele>
        <time>2012-09-07T10:38:15Z</time>
      </trkpt>
      <trkpt lat="46.01044" lon="1.42994">
        <ele>601.6</ele>
        <time>2012-09-07T10:38:17Z</time>
      </trkpt>
      <trkpt lat="46.01038" lon="1.43001">
        <ele>601.6</ele>
        <time>2012-09-07T10:38:19Z</time>
      </trkpt>
      <trkpt lat="46.01027" lon="1.43016">
        <ele>601.4</ele>
        <time>2012-09-07T10:38:23Z</time>
      </trkpt>
      <trkpt lat="46.0102" lon="1.43035">
        <ele>601</ele>
        <time>2012-09-07T10:38:28Z</time>
      </trkpt>
      <trkpt lat="46.01017" lon="1.43041">
        <ele>601</ele>
        <time>2012-09-07T10:38:32Z</time>
      </trkpt>
      <trkpt lat="46.01015" lon="1.43043">
        <ele>600.6</ele>
        <time>2012-09-07T10:38:38Z</time>
      </trkpt>
      <trkpt lat="46.01015" lon="1.43038">
        <ele>608.8</ele>
        <time>2012-09-07T11:48:27Z</time>
      </trkpt>
      <trkpt lat="46.01012" lon="1.43046">
        <ele>608.8</ele>
        <time>2012-09-07T11:48:33Z</time>
      </trkpt>
      <trkpt lat="46.01007" lon="1.43059">
        <ele>608.8</ele>
        <time>2012-09-07T11:48:38Z</time>
      </trkpt>
      <trkpt lat="46.01003" lon="1.43072">
        <ele>609.2</ele>
        <time>2012-09-07T11:48:44Z</time>
      </trkpt>
      <trkpt lat="46.01002" lon="1.43092">
        <ele>609.6</ele>
        <time>2012-09-07T11:48:50Z</time>
      </trkpt>
      <trkpt lat="46.01002" lon="1.43119">
        <ele>610.2</ele>
        <time>2012-09-07T11:48:57Z</time>
      </trkpt>
      <trkpt lat="46.01001" lon="1.43126">
        <ele>610.4</ele>
        <time>2012-09-07T11:48:59Z</time>
      </trkpt>
      <trkpt lat="46.00999" lon="1.43151">
        <ele>610.8</ele>
        <time>2012-09-07T11:49:06Z</time>
      </trkpt>
      <trkpt lat="46.00995" lon="1.43172">
        <ele>611.2</ele>
        <time>2012-09-07T11:49:14Z</time>
      </trkpt>
      <trkpt lat="46.00989" lon="1.4319">
        <ele>611.8</ele>
        <time>2012-09-07T11:49:21Z</time>
      </trkpt>
      <trkpt lat="46.00982" lon="1.43206">
        <ele>612.6</ele>
        <time>2012-09-07T11:49:29Z</time>
      </trkpt>
      <trkpt lat="46.00974" lon="1.43221">
        <ele>614</ele>
        <time>2012-09-07T11:49:37Z</time>
      </trkpt>
      <trkpt lat="46.00968" lon="1.43234">
        <ele>615</ele>
        <time>2012-09-07T11:49:44Z</time>
      </trkpt>
      <trkpt lat="46.0096" lon="1.43249">
        <ele>615.6</ele>
        <time>2012-09-07T11:49:52Z</time>
      </trkpt>
      <trkpt lat="46.00951" lon="1.43265">
        <ele>615.8</ele>
        <time>2012-09-07T11:50:00Z</time>
      </trkpt>
      <trkpt lat="46.00946" lon="1.43275">
        <ele>615.8</ele>
        <time>2012-09-07T11:50:05Z</time>
      </trkpt>
      <trkpt lat="46.00939" lon="1.4329">
        <ele>615.8</ele>
        <time>2012-09-07T11:50:11Z</time>
      </trkpt>
      <trkpt lat="46.00937" lon="1.43305">
        <ele>616.2</ele>
        <time>2012-09-07T11:50:16Z</time>
      </trkpt>
      <trkpt lat="46.00939" lon="1.43323">
        <ele>616.8</ele>
        <time>2012-09-07T11:50:22Z</time>
      </trkpt>
      <trkpt lat="46.00941" lon="1.43331">
        <ele>617.6</ele>
        <time>2012-09-07T11:50:25Z</time>
      </trkpt>
      <trkpt lat="46.00944" lon="1.43338">
        <ele>618.2</ele>
        <time>2012-09-07T11:50:28Z</time>
      </trkpt>
      <trkpt lat="46.00948" lon="1.43349">
        <ele>619.4</ele>
        <time>2012-09-07T11:50:33Z</time>
      </trkpt>
      <trkpt lat="46.00957" lon="1.43361">
        <ele>621</ele>
        <time>2012-09-07T11:50:40Z</time>
      </trkpt>
      <trkpt lat="46.00966" lon="1.43368">
        <ele>622.2</ele>
        <time>2012-09-07T11:50:46Z</time>
      </trkpt>
      <trkpt lat="46.00972" lon="1.43381">
        <ele>623.6</ele>
        <time>2012-09-07T11:50:52Z</time>
      </trkpt>
      <trkpt lat="46.00976" lon="1.43397">
        <ele>624.4</ele>
        <time>2012-09-07T11:50:58Z</time>
      </trkpt>
      <trkpt lat="46.00976" lon="1.43416">
        <ele>624.8</ele>
        <time>2012-09-07T11:51:04Z</time>
      </trkpt>
      <trkpt lat="46.00972" lon="1.43444">
        <ele>625.2</ele>
        <time>2012-09-07T11:51:12Z</time>
      </trkpt>
      <trkpt lat="46.00971" lon="1.43447">
        <ele>625.2</ele>
        <time>2012-09-07T11:51:13Z</time>
      </trkpt>
      <trkpt lat="46.00963" lon="1.43471">
        <ele>625.2</ele>
        <time>2012-09-07T11:51:21Z</time>
      </trkpt>
      <trkpt lat="46.00961" lon="1.43477">
        <ele>625</ele>
        <time>2012-09-07T11:51:23Z</time>
      </trkpt>
      <trkpt lat="46.00957" lon="1.43488">
        <ele>625</ele>
        <time>2012-09-07T11:51:29Z</time>
      </trkpt>
      <trkpt lat="46.00951" lon="1.435">
        <ele>625</ele>
        <time>2012-09-07T11:51:36Z</time>
      </trkpt>
      <trkpt lat="46.00945" lon="1.43514">
        <ele>625.4</ele>
        <time>2012-09-07T11:51:44Z</time>
      </trkpt>
      <trkpt lat="46.00944" lon="1.43516">
        <ele>625.4</ele>
        <time>2012-09-07T11:51:46Z</time>
      </trkpt>
      <trkpt lat="46.00941" lon="1.43522">
        <ele>625.8</ele>
        <time>2012-09-07T11:51:50Z</time>
      </trkpt>
      <trkpt lat="46.00935" lon="1.43529">
        <ele>626.6</ele>
        <time>2012-09-07T11:51:55Z</time>
      </trkpt>
      <trkpt lat="46.00934" lon="1.43532">
        <ele>626.8</ele>
        <time>2012-09-07T11:51:57Z</time>
      </trkpt>
      <trkpt lat="46.0093" lon="1.4354">
        <ele>627.2</ele>
        <time>2012-09-07T11:52:02Z</time>
      </trkpt>
      <trkpt lat="46.00923" lon="1.43548">
        <ele>627.8</ele>
        <time>2012-09-07T11:52:08Z</time>
      </trkpt>
      <trkpt lat="46.00916" lon="1.43554">
        <ele>628.6</ele>
        <time>2012-09-07T11:52:14Z</time>
      </trkpt>
      <trkpt lat="46.00913" lon="1.43557">
        <ele>629.2</ele>
        <time>2012-09-07T11:52:17Z</time>
      </trkpt>
      <trkpt lat="46.0091" lon="1.43562">
        <ele>629.6</ele>
        <time>2012-09-07T11:52:20Z</time>
      </trkpt>
      <trkpt lat="46.00909" lon="1.43564">
        <ele>629.6</ele>
        <time>2012-09-07T11:52:21Z</time>
      </trkpt>
      <trkpt lat="46.00905" lon="1.4357">
        <ele>630.6</ele>
        <time>2012-09-07T11:52:27Z</time>
      </trkpt>
      <trkpt lat="46.00904" lon="1.4357">
        <ele>630.6</ele>
        <time>2012-09-07T11:52:28Z</time>
      </trkpt>
      <trkpt lat="46.00902" lon="1.43573">
        <ele>631</ele>
        <time>2012-09-07T11:52:31Z</time>
      </trkpt>
      <trkpt lat="46.00899" lon="1.43577">
        <ele>631.8</ele>
        <time>2012-09-07T11:52:36Z</time>
      </trkpt>
      <trkpt lat="46.00892" lon="1.43586">
        <ele>633.4</ele>
        <time>2012-09-07T11:52:44Z</time>
      </trkpt>
      <trkpt lat="46.0089" lon="1.43589">
        <ele>634</ele>
        <time>2012-09-07T11:52:47Z</time>
      </trkpt>
      <trkpt lat="46.00887" lon="1.4359">
        <ele>634.6</ele>
        <time>2012-09-07T11:52:50Z</time>
      </trkpt>
      <trkpt lat="46.00886" lon="1.43591">
        <ele>634.8</ele>
        <time>2012-09-07T11:52:51Z</time>
      </trkpt>
      <trkpt lat="46.00877" lon="1.43594">
        <ele>635.8</ele>
        <time>2012-09-07T11:52:58Z</time>
      </trkpt>
      <trkpt lat="46.00868" lon="1.43601">
        <ele>636.8</ele>
        <time>2012-09-07T11:53:06Z</time>
      </trkpt>
      <trkpt lat="46.00868" lon="1.43601">
        <ele>637</ele>
        <time>2012-09-07T11:53:07Z</time>
      </trkpt>
      <trkpt lat="46.00866" lon="1.43603">
        <ele>638</ele>
        <time>2012-09-07T11:53:13Z</time>
      </trkpt>
      <trkpt lat="46.00862" lon="1.4361">
        <ele>638.6</ele>
        <time>2012-09-07T11:53:17Z</time>
      </trkpt>
      <trkpt lat="46.00861" lon="1.43612">
        <ele>638.8</ele>
        <time>2012-09-07T11:53:18Z</time>
      </trkpt>
      <trkpt lat="46.00857" lon="1.43617">
        <ele>639.6</ele>
        <time>2012-09-07T11:53:23Z</time>
      </trkpt>
      <trkpt lat="46.00855" lon="1.43617">
        <ele>639.8</ele>
        <time>2012-09-07T11:53:24Z</time>
      </trkpt>
      <trkpt lat="46.00849" lon="1.43624">
        <ele>640.6</ele>
        <time>2012-09-07T11:53:29Z</time>
      </trkpt>
      <trkpt lat="46.00844" lon="1.43629">
        <ele>641</ele>
        <time>2012-09-07T11:53:33Z</time>
      </trkpt>
      <trkpt lat="46.00843" lon="1.4363">
        <ele>641.2</ele>
        <time>2012-09-07T11:53:34Z</time>
      </trkpt>
      <trkpt lat="46.0084" lon="1.43637">
        <ele>641.6</ele>
        <time>2012-09-07T11:53:38Z</time>
      </trkpt>
      <trkpt lat="46.0084" lon="1.43643">
        <ele>641.6</ele>
        <time>2012-09-07T11:53:41Z</time>
      </trkpt>
      <trkpt lat="46.00845" lon="1.43653">
        <ele>642.2</ele>
        <time>2012-09-07T11:53:46Z</time>
      </trkpt>
      <trkpt lat="46.00847" lon="1.43654">
        <ele>642.4</ele>
        <time>2012-09-07T11:53:47Z</time>
      </trkpt>
      <trkpt lat="46.00848" lon="1.43657">
        <ele>642.4</ele>
        <time>2012-09-07T11:53:49Z</time>
      </trkpt>
      <trkpt lat="46.00851" lon="1.43662">
        <ele>642.6</ele>
        <time>2012-09-07T11:53:52Z</time>
      </trkpt>
      <trkpt lat="46.00857" lon="1.4367">
        <ele>643.8</ele>
        <time>2012-09-07T11:53:59Z</time>
      </trkpt>
      <trkpt lat="46.00861" lon="1.43683">
        <ele>644.6</ele>
        <time>2012-09-07T11:54:06Z</time>
      </trkpt>
      <trkpt lat="46.00863" lon="1.43694">
        <ele>645.4</ele>
        <time>2012-09-07T11:54:12Z</time>
      </trkpt>
      <trkpt lat="46.00865" lon="1.4371">
        <ele>646.2</ele>
        <time>2012-09-07T11:54:19Z</time>
      </trkpt>
      <trkpt lat="46.00866" lon="1.43725">
        <ele>646.8</ele>
        <time>2012-09-07T11:54:26Z</time>
      </trkpt>
      <trkpt lat="46.00864" lon="1.43733">
        <ele>647</ele>
        <time>2012-09-07T11:54:30Z</time>
      </trkpt>
      <trkpt lat="46.00862" lon="1.43739">
        <ele>647</ele>
        <time>2012-09-07T11:54:33Z</time>
      </trkpt>
      <trkpt lat="46.00862" lon="1.43743">
        <ele>647.2</ele>
        <time>2012-09-07T11:54:35Z</time>
      </trkpt>
      <trkpt lat="46.00859" lon="1.43753">
        <ele>647.4</ele>
        <time>2012-09-07T11:54:40Z</time>
      </trkpt>
      <trkpt lat="46.00855" lon="1.43766">
        <ele>648.2</ele>
        <time>2012-09-07T11:54:47Z</time>
      </trkpt>
      <trkpt lat="46.00851" lon="1.43776">
        <ele>648.8</ele>
        <time>2012-09-07T11:54:52Z</time>
      </trkpt>
      <trkpt lat="46.0085" lon="1.43782">
        <ele>649.4</ele>
        <time>2012-09-07T11:54:55Z</time>
      </trkpt>
      <trkpt lat="46.00844" lon="1.438">
        <ele>650.8</ele>
        <time>2012-09-07T11:55:04Z</time>
      </trkpt>
      <trkpt lat="46.00844" lon="1.43803">
        <ele>651</ele>
        <time>2012-09-07T11:55:06Z</time>
      </trkpt>
      <trkpt lat="46.00843" lon="1.4381">
        <ele>651.4</ele>
        <time>2012-09-07T11:55:09Z</time>
      </trkpt>
      <trkpt lat="46.0084" lon="1.43821">
        <ele>652.4</ele>
        <time>2012-09-07T11:55:15Z</time>
      </trkpt>
      <trkpt lat="46.00839" lon="1.43823">
        <ele>652.6</ele>
        <time>2012-09-07T11:55:16Z</time>
      </trkpt>
      <trkpt lat="46.00837" lon="1.43833">
        <ele>653.8</ele>
        <time>2012-09-07T11:55:22Z</time>
      </trkpt>
      <trkpt lat="46.00835" lon="1.43836">
        <ele>654.2</ele>
        <time>2012-09-07T11:55:24Z</time>
      </trkpt>
      <trkpt lat="46.00834" lon="1.43845">
        <ele>654.6</ele>
        <time>2012-09-07T11:55:28Z</time>
      </trkpt>
      <trkpt lat="46.00833" lon="1.43849">
        <ele>654.8</ele>
        <time>2012-09-07T11:55:30Z</time>
      </trkpt>
      <trkpt lat="46.00828" lon="1.43864">
        <ele>656</ele>
        <time>2012-09-07T11:55:38Z</time>
      </trkpt>
      <trkpt lat="46.00824" lon="1.43874">
        <ele>656.6</ele>
        <time>2012-09-07T11:55:43Z</time>
      </trkpt>
      <trkpt lat="46.00824" lon="1.43877">
        <ele>656.6</ele>
        <time>2012-09-07T11:55:44Z</time>
      </trkpt>
      <trkpt lat="46.00822" lon="1.43888">
        <ele>657.4</ele>
        <time>2012-09-07T11:55:49Z</time>
      </trkpt>
      <trkpt lat="46.00822" lon="1.43892">
        <ele>657.6</ele>
        <time>2012-09-07T11:55:51Z</time>
      </trkpt>
      <trkpt lat="46.00819" lon="1.43912">
        <ele>659</ele>
        <time>2012-09-07T11:56:00Z</time>
      </trkpt>
      <trkpt lat="46.00816" lon="1.43926">
        <ele>659.6</ele>
        <time>2012-09-07T11:56:07Z</time>
      </trkpt>
      <trkpt lat="46.00816" lon="1.4393">
        <ele>659.8</ele>
        <time>2012-09-07T11:56:09Z</time>
      </trkpt>
      <trkpt lat="46.00818" lon="1.43941">
        <ele>660</ele>
        <time>2012-09-07T11:56:13Z</time>
      </trkpt>
      <trkpt lat="46.00821" lon="1.43952">
        <ele>660.6</ele>
        <time>2012-09-07T11:56:19Z</time>
      </trkpt>
      <trkpt lat="46.00822" lon="1.43967">
        <ele>661</ele>
        <time>2012-09-07T11:56:25Z</time>
      </trkpt>
      <trkpt lat="46.00823" lon="1.43974">
        <ele>661.4</ele>
        <time>2012-09-07T11:56:28Z</time>
      </trkpt>
      <trkpt lat="46.00824" lon="1.43978">
        <ele>661.6</ele>
        <time>2012-09-07T11:56:30Z</time>
      </trkpt>
      <trkpt lat="46.00828" lon="1.43997">
        <ele>662.6</ele>
        <time>2012-09-07T11:56:38Z</time>
      </trkpt>
      <trkpt lat="46.00833" lon="1.44018">
        <ele>663.8</ele>
        <time>2012-09-07T11:56:48Z</time>
      </trkpt>
      <trkpt lat="46.00838" lon="1.44031">
        <ele>664.2</ele>
        <time>2012-09-07T11:56:55Z</time>
      </trkpt>
      <trkpt lat="46.00842" lon="1.44046">
        <ele>665</ele>
        <time>2012-09-07T11:57:02Z</time>
      </trkpt>
      <trkpt lat="46.00846" lon="1.44063">
        <ele>665.8</ele>
        <time>2012-09-07T11:57:10Z</time>
      </trkpt>
      <trkpt lat="46.00851" lon="1.44081">
        <ele>666.2</ele>
        <time>2012-09-07T11:57:18Z</time>
      </trkpt>
      <trkpt lat="46.00858" lon="1.44097">
        <ele>666.8</ele>
        <time>2012-09-07T11:57:26Z</time>
      </trkpt>
      <trkpt lat="46.00865" lon="1.44111">
        <ele>667.8</ele>
        <time>2012-09-07T11:57:34Z</time>
      </trkpt>
      <trkpt lat="46.00869" lon="1.44122">
        <ele>668.6</ele>
        <time>2012-09-07T11:57:40Z</time>
      </trkpt>
      <trkpt lat="46.00875" lon="1.44133">
        <ele>669.8</ele>
        <time>2012-09-07T11:57:47Z</time>
      </trkpt>
      <trkpt lat="46.00879" lon="1.44144">
        <ele>670.8</ele>
        <time>2012-09-07T11:57:53Z</time>
      </trkpt>
      <trkpt lat="46.00882" lon="1.44148">
        <ele>671.4</ele>
        <time>2012-09-07T11:57:56Z</time>
      </trkpt>
      <trkpt lat="46.00883" lon="1.44155">
        <ele>672</ele>
        <time>2012-09-07T11:58:00Z</time>
      </trkpt>
      <trkpt lat="46.00883" lon="1.44157">
        <ele>672.4</ele>
        <time>2012-09-07T11:58:02Z</time>
      </trkpt>
      <trkpt lat="46.00884" lon="1.4416">
        <ele>673</ele>
        <time>2012-09-07T11:58:05Z</time>
      </trkpt>
      <trkpt lat="46.00885" lon="1.44169">
        <ele>673.8</ele>
        <time>2012-09-07T11:58:11Z</time>
      </trkpt>
      <trkpt lat="46.00885" lon="1.44172">
        <ele>674.2</ele>
        <time>2012-09-07T11:58:13Z</time>
      </trkpt>
      <trkpt lat="46.00885" lon="1.44174">
        <ele>674.6</ele>
        <time>2012-09-07T11:58:15Z</time>
      </trkpt>
      <trkpt lat="46.00885" lon="1.44174">
        <ele>675.2</ele>
        <time>2012-09-07T11:58:18Z</time>
      </trkpt>
      <trkpt lat="46.00888" lon="1.4418">
        <ele>676.4</ele>
        <time>2012-09-07T11:58:24Z</time>
      </trkpt>
      <trkpt lat="46.00891" lon="1.44191">
        <ele>678.4</ele>
        <time>2012-09-07T11:58:33Z</time>
      </trkpt>
      <trkpt lat="46.00893" lon="1.44198">
        <ele>680.2</ele>
        <time>2012-09-07T11:58:40Z</time>
      </trkpt>
      <trkpt lat="46.00896" lon="1.44208">
        <ele>683</ele>
        <time>2012-09-07T11:58:50Z</time>
      </trkpt>
      <trkpt lat="46.00897" lon="1.44212">
        <ele>683.8</ele>
        <time>2012-09-07T11:58:53Z</time>
      </trkpt>
      <trkpt lat="46.00899" lon="1.44217">
        <ele>685</ele>
        <time>2012-09-07T11:58:58Z</time>
      </trkpt>
      <trkpt lat="46.00903" lon="1.44225">
        <ele>686.8</ele>
        <time>2012-09-07T11:59:06Z</time>
      </trkpt>
      <trkpt lat="46.00906" lon="1.44238">
        <ele>688.2</ele>
        <time>2012-09-07T11:59:16Z</time>
      </trkpt>
      <trkpt lat="46.00911" lon="1.44246">
        <ele>690</ele>
        <time>2012-09-07T11:59:25Z</time>
      </trkpt>
      <trkpt lat="46.00915" lon="1.44256">
        <ele>691.6</ele>
        <time>2012-09-07T11:59:33Z</time>
      </trkpt>
      <trkpt lat="46.00917" lon="1.44263">
        <ele>692.8</ele>
        <time>2012-09-07T11:59:39Z</time>
      </trkpt>
      <trkpt lat="46.00918" lon="1.44266">
        <ele>693</ele>
        <time>2012-09-07T11:59:41Z</time>
      </trkpt>
      <trkpt lat="46.00919" lon="1.4427">
        <ele>694.2</ele>
        <time>2012-09-07T11:59:45Z</time>
      </trkpt>
      <trkpt lat="46.00919" lon="1.44275">
        <ele>695</ele>
        <time>2012-09-07T11:59:48Z</time>
      </trkpt>
      <trkpt lat="46.0092" lon="1.44277">
        <ele>695.6</ele>
        <time>2012-09-07T11:59:50Z</time>
      </trkpt>
      <trkpt lat="46.00921" lon="1.44284">
        <ele>696.8</ele>
        <time>2012-09-07T11:59:56Z</time>
      </trkpt>
      <trkpt lat="46.00924" lon="1.44296">
        <ele>698.8</ele>
        <time>2012-09-07T12:00:04Z</time>
      </trkpt>
      <trkpt lat="46.00924" lon="1.44297">
        <ele>699</ele>
        <time>2012-09-07T12:00:05Z</time>
      </trkpt>
      <trkpt lat="46.00924" lon="1.443">
        <ele>699.4</ele>
        <time>2012-09-07T12:00:07Z</time>
      </trkpt>
      <trkpt lat="46.00924" lon="1.44302">
        <ele>700.2</ele>
        <time>2012-09-07T12:00:10Z</time>
      </trkpt>
      <trkpt lat="46.00924" lon="1.4431">
        <ele>702.8</ele>
        <time>2012-09-07T12:00:18Z</time>
      </trkpt>
      <trkpt lat="46.00926" lon="1.44326">
        <ele>705.2</ele>
        <time>2012-09-07T12:00:26Z</time>
      </trkpt>
      <trkpt lat="46.00929" lon="1.44342">
        <ele>707.2</ele>
        <time>2012-09-07T12:00:34Z</time>
      </trkpt>
      <trkpt lat="46.00928" lon="1.44345">
        <ele>707.4</ele>
        <time>2012-09-07T12:00:35Z</time>
      </trkpt>
      <trkpt lat="46.0093" lon="1.44352">
        <ele>708</ele>
        <time>2012-09-07T12:00:39Z</time>
      </trkpt>
      <trkpt lat="46.0093" lon="1.44353">
        <ele>709</ele>
        <time>2012-09-07T12:00:46Z</time>
      </trkpt>
      <trkpt lat="46.00925" lon="1.44359">
        <ele>714.4</ele>
        <time>2012-09-07T12:01:14Z</time>
      </trkpt>
      <trkpt lat="46.00922" lon="1.44364">
        <ele>714.4</ele>
        <time>2012-09-07T12:01:20Z</time>
      </trkpt>
      <trkpt lat="46.00917" lon="1.44373">
        <ele>714.4</ele>
        <time>2012-09-07T12:01:26Z</time>
      </trkpt>
      <trkpt lat="46.00912" lon="1.44382">
        <ele>714.2</ele>
        <time>2012-09-07T12:01:33Z</time>
      </trkpt>
      <trkpt lat="46.00909" lon="1.44387">
        <ele>714</ele>
        <time>2012-09-07T12:01:37Z</time>
      </trkpt>
      <trkpt lat="46.00908" lon="1.44391">
        <ele>713.8</ele>
        <time>2012-09-07T12:01:39Z</time>
      </trkpt>
      <trkpt lat="46.00902" lon="1.444">
        <ele>713.4</ele>
        <time>2012-09-07T12:01:44Z</time>
      </trkpt>
      <trkpt lat="46.00901" lon="1.44404">
        <ele>713.4</ele>
        <time>2012-09-07T12:01:46Z</time>
      </trkpt>
      <trkpt lat="46.00897" lon="1.44412">
        <ele>713</ele>
        <time>2012-09-07T12:01:50Z</time>
      </trkpt>
      <trkpt lat="46.00893" lon="1.44419">
        <ele>712.2</ele>
        <time>2012-09-07T12:01:57Z</time>
      </trkpt>
      <trkpt lat="46.00892" lon="1.44419">
        <ele>711.4</ele>
        <time>2012-09-07T12:02:04Z</time>
      </trkpt>
      <trkpt lat="46.00891" lon="1.44421">
        <ele>710.8</ele>
        <time>2012-09-07T12:02:09Z</time>
      </trkpt>
      <trkpt lat="46.0089" lon="1.44425">
        <ele>709.4</ele>
        <time>2012-09-07T12:02:22Z</time>
      </trkpt>
      <trkpt lat="46.00888" lon="1.44425">
        <ele>709</ele>
        <time>2012-09-07T12:02:26Z</time>
      </trkpt>
      <trkpt lat="46.00888" lon="1.44423">
        <ele>708.6</ele>
        <time>2012-09-07T12:02:30Z</time>
      </trkpt>
      <trkpt lat="46.00887" lon="1.44425">
        <ele>707.8</ele>
        <time>2012-09-07T12:02:39Z</time>
      </trkpt>
      <trkpt lat="46.00888" lon="1.44428">
        <ele>707</ele>
        <time>2012-09-07T12:02:54Z</time>
      </trkpt>
      <trkpt lat="46.00889" lon="1.44428">
        <ele>706.8</ele>
        <time>2012-09-07T12:03:03Z</time>
      </trkpt>
      <trkpt lat="46.00887" lon="1.44431">
        <ele>707.2</ele>
        <time>2012-09-07T12:03:45Z</time>
      </trkpt>
      <trkpt lat="46.00885" lon="1.44432">
        <ele>707.2</ele>
        <time>2012-09-07T12:03:54Z</time>
      </trkpt>
      <trkpt lat="46.00881" lon="1.4444">
        <ele>706.4</ele>
        <time>2012-09-07T12:04:35Z</time>
      </trkpt>
      <trkpt lat="46.00878" lon="1.44445">
        <ele>706</ele>
        <time>2012-09-07T12:04:48Z</time>
      </trkpt>
      <trkpt lat="46.00875" lon="1.44452">
        <ele>705.8</ele>
        <time>2012-09-07T12:04:55Z</time>
      </trkpt>
      <trkpt lat="46.00874" lon="1.44456">
        <ele>705.6</ele>
        <time>2012-09-07T12:04:59Z</time>
      </trkpt>
      <trkpt lat="46.00872" lon="1.4446">
        <ele>705.4</ele>
        <time>2012-09-07T12:05:04Z</time>
      </trkpt>
      <trkpt lat="46.00871" lon="1.44462">
        <ele>705</ele>
        <time>2012-09-07T12:05:10Z</time>
      </trkpt>
      <trkpt lat="46.0087" lon="1.44463">
        <ele>704.8</ele>
        <time>2012-09-07T12:05:16Z</time>
      </trkpt>
      <trkpt lat="46.0087" lon="1.44465">
        <ele>704.6</ele>
        <time>2012-09-07T12:05:25Z</time>
      </trkpt>
      <trkpt lat="46.0087" lon="1.44469">
        <ele>704.4</ele>
        <time>2012-09-07T12:05:28Z</time>
      </trkpt>
      <trkpt lat="46.0087" lon="1.44471">
        <ele>704.2</ele>
        <time>2012-09-07T12:05:33Z</time>
      </trkpt>
      <trkpt lat="46.00869" lon="1.44475">
        <ele>703.8</ele>
        <time>2012-09-07T12:05:38Z</time>
      </trkpt>
      <trkpt lat="46.00866" lon="1.4448">
        <ele>703.4</ele>
        <time>2012-09-07T12:05:44Z</time>
      </trkpt>
      <trkpt lat="46.00866" lon="1.44482">
        <ele>703.4</ele>
        <time>2012-09-07T12:05:45Z</time>
      </trkpt>
      <trkpt lat="46.00865" lon="1.44486">
        <ele>703.2</ele>
        <time>2012-09-07T12:05:48Z</time>
      </trkpt>
      <trkpt lat="46.00864" lon="1.44491">
        <ele>702.8</ele>
        <time>2012-09-07T12:05:51Z</time>
      </trkpt>
      <trkpt lat="46.00859" lon="1.44492">
        <ele>702.4</ele>
        <time>2012-09-07T12:05:57Z</time>
      </trkpt>
      <trkpt lat="46.00853" lon="1.44489">
        <ele>702</ele>
        <time>2012-09-07T12:06:03Z</time>
      </trkpt>
      <trkpt lat="46.00852" lon="1.44488">
        <ele>702</ele>
        <time>2012-09-07T12:06:04Z</time>
      </trkpt>
      <trkpt lat="46.00844" lon="1.44482">
        <ele>700.2</ele>
        <time>2012-09-07T12:06:38Z</time>
      </trkpt>
      <trkpt lat="46.00842" lon="1.44486">
        <ele>700.2</ele>
        <time>2012-09-07T12:06:40Z</time>
      </trkpt>
      <trkpt lat="46.00838" lon="1.44498">
        <ele>700</ele>
        <time>2012-09-07T12:06:45Z</time>
      </trkpt>
      <trkpt lat="46.00837" lon="1.445">
        <ele>700</ele>
        <time>2012-09-07T12:06:46Z</time>
      </trkpt>
      <trkpt lat="46.00835" lon="1.44515">
        <ele>700</ele>
        <time>2012-09-07T12:06:52Z</time>
      </trkpt>
      <trkpt lat="46.00834" lon="1.44521">
        <ele>699.8</ele>
        <time>2012-09-07T12:06:55Z</time>
      </trkpt>
      <trkpt lat="46.00833" lon="1.44525">
        <ele>699.8</ele>
        <time>2012-09-07T12:06:58Z</time>
      </trkpt>
      <trkpt lat="46.00832" lon="1.44526">
        <ele>699.8</ele>
        <time>2012-09-07T12:06:59Z</time>
      </trkpt>
      <trkpt lat="46.00831" lon="1.44533">
        <ele>699.8</ele>
        <time>2012-09-07T12:07:02Z</time>
      </trkpt>
      <trkpt lat="46.00825" lon="1.44542">
        <ele>699.6</ele>
        <time>2012-09-07T12:07:06Z</time>
      </trkpt>
      <trkpt lat="46.00824" lon="1.44543">
        <ele>699.6</ele>
        <time>2012-09-07T12:07:07Z</time>
      </trkpt>
      <trkpt lat="46.00822" lon="1.44545">
        <ele>699.6</ele>
        <time>2012-09-07T12:07:09Z</time>
      </trkpt>
      <trkpt lat="46.00819" lon="1.44547">
        <ele>699.6</ele>
        <time>2012-09-07T12:07:11Z</time>
      </trkpt>
      <trkpt lat="46.00812" lon="1.44553">
        <ele>699.6</ele>
        <time>2012-09-07T12:07:14Z</time>
      </trkpt>
      <trkpt lat="46.00807" lon="1.44557">
        <ele>699.6</ele>
        <time>2012-09-07T12:07:16Z</time>
      </trkpt>
      <trkpt lat="46.00801" lon="1.4456">
        <ele>699.6</ele>
        <time>2012-09-07T12:07:19Z</time>
      </trkpt>
      <trkpt lat="46.00795" lon="1.44557">
        <ele>699.6</ele>
        <time>2012-09-07T12:07:21Z</time>
      </trkpt>
      <trkpt lat="46.00788" lon="1.44551">
        <ele>699.6</ele>
        <time>2012-09-07T12:07:24Z</time>
      </trkpt>
      <trkpt lat="46.00782" lon="1.44545">
        <ele>699.8</ele>
        <time>2012-09-07T12:07:26Z</time>
      </trkpt>
      <trkpt lat="46.0077" lon="1.44536">
        <ele>699.6</ele>
        <time>2012-09-07T12:07:31Z</time>
      </trkpt>
      <trkpt lat="46.00758" lon="1.44522">
        <ele>699.4</ele>
        <time>2012-09-07T12:07:36Z</time>
      </trkpt>
      <trkpt lat="46.00752" lon="1.44516">
        <ele>699.4</ele>
        <time>2012-09-07T12:07:39Z</time>
      </trkpt>
      <trkpt lat="46.00746" lon="1.44514">
        <ele>699.4</ele>
        <time>2012-09-07T12:07:41Z</time>
      </trkpt>
      <trkpt lat="46.00744" lon="1.44516">
        <ele>699.2</ele>
        <time>2012-09-07T12:07:42Z</time>
      </trkpt>
      <trkpt lat="46.00741" lon="1.44521">
        <ele>699</ele>
        <time>2012-09-07T12:07:45Z</time>
      </trkpt>
      <trkpt lat="46.00729" lon="1.4453">
        <ele>698.8</ele>
        <time>2012-09-07T12:07:51Z</time>
      </trkpt>
      <trkpt lat="46.00722" lon="1.44532">
        <ele>698.6</ele>
        <time>2012-09-07T12:07:55Z</time>
      </trkpt>
      <trkpt lat="46.00718" lon="1.44524">
        <ele>698.4</ele>
        <time>2012-09-07T12:07:58Z</time>
      </trkpt>
      <trkpt lat="46.00715" lon="1.44519">
        <ele>698.4</ele>
        <time>2012-09-07T12:08:00Z</time>
      </trkpt>
      <trkpt lat="46.00707" lon="1.44516">
        <ele>698.2</ele>
        <time>2012-09-07T12:08:04Z</time>
      </trkpt>
      <trkpt lat="46.00698" lon="1.44522">
        <ele>697.8</ele>
        <time>2012-09-07T12:08:08Z</time>
      </trkpt>
      <trkpt lat="46.00694" lon="1.44522">
        <ele>697.6</ele>
        <time>2012-09-07T12:08:10Z</time>
      </trkpt>
      <trkpt lat="46.00691" lon="1.44521">
        <ele>697.6</ele>
        <time>2012-09-07T12:08:12Z</time>
      </trkpt>
      <trkpt lat="46.00688" lon="1.44518">
        <ele>697.6</ele>
        <time>2012-09-07T12:08:13Z</time>
      </trkpt>
      <trkpt lat="46.0068" lon="1.44513">
        <ele>697.2</ele>
        <time>2012-09-07T12:08:17Z</time>
      </trkpt>
      <trkpt lat="46.00671" lon="1.44506">
        <ele>696.8</ele>
        <time>2012-09-07T12:08:22Z</time>
      </trkpt>
      <trkpt lat="46.00667" lon="1.44498">
        <ele>696.6</ele>
        <time>2012-09-07T12:08:26Z</time>
      </trkpt>
      <trkpt lat="46.00662" lon="1.44492">
        <ele>696.4</ele>
        <time>2012-09-07T12:08:30Z</time>
      </trkpt>
      <trkpt lat="46.0066" lon="1.44491">
        <ele>696.4</ele>
        <time>2012-09-07T12:08:31Z</time>
      </trkpt>
      <trkpt lat="46.00656" lon="1.44491">
        <ele>696.2</ele>
        <time>2012-09-07T12:08:33Z</time>
      </trkpt>
      <trkpt lat="46.00649" lon="1.44489">
        <ele>696</ele>
        <time>2012-09-07T12:08:36Z</time>
      </trkpt>
      <trkpt lat="46.00641" lon="1.44484">
        <ele>695.6</ele>
        <time>2012-09-07T12:08:39Z</time>
      </trkpt>
      <trkpt lat="46.00638" lon="1.44481">
        <ele>695.6</ele>
        <time>2012-09-07T12:08:41Z</time>
      </trkpt>
      <trkpt lat="46.00634" lon="1.44478">
        <ele>695</ele>
        <time>2012-09-07T12:08:45Z</time>
      </trkpt>
      <trkpt lat="46.00626" lon="1.44473">
        <ele>693</ele>
        <time>2012-09-07T12:08:55Z</time>
      </trkpt>
      <trkpt lat="46.00622" lon="1.44472">
        <ele>692.6</ele>
        <time>2012-09-07T12:08:57Z</time>
      </trkpt>
      <trkpt lat="46.00619" lon="1.44473">
        <ele>692.2</ele>
        <time>2012-09-07T12:08:59Z</time>
      </trkpt>
      <trkpt lat="46.00617" lon="1.44473">
        <ele>692</ele>
        <time>2012-09-07T12:09:01Z</time>
      </trkpt>
      <trkpt lat="46.00616" lon="1.44474">
        <ele>691.2</ele>
        <time>2012-09-07T12:09:06Z</time>
      </trkpt>
      <trkpt lat="46.00612" lon="1.44472">
        <ele>684</ele>
        <time>2012-09-07T12:10:08Z</time>
      </trkpt>
      <trkpt lat="46.0061" lon="1.44466">
        <ele>684</ele>
        <time>2012-09-07T12:10:10Z</time>
      </trkpt>
      <trkpt lat="46.00607" lon="1.44465">
        <ele>684</ele>
        <time>2012-09-07T12:10:12Z</time>
      </trkpt>
      <trkpt lat="46.00605" lon="1.44464">
        <ele>683.8</ele>
        <time>2012-09-07T12:10:14Z</time>
      </trkpt>
      <trkpt lat="46.00605" lon="1.44463">
        <ele>683.8</ele>
        <time>2012-09-07T12:10:15Z</time>
      </trkpt>
      <trkpt lat="46.00599" lon="1.44462">
        <ele>683.8</ele>
        <time>2012-09-07T12:10:18Z</time>
      </trkpt>
      <trkpt lat="46.00596" lon="1.44472">
        <ele>683.8</ele>
        <time>2012-09-07T12:10:21Z</time>
      </trkpt>
      <trkpt lat="46.00592" lon="1.44479">
        <ele>684.2</ele>
        <time>2012-09-07T12:10:26Z</time>
      </trkpt>
      <trkpt lat="46.0059" lon="1.44489">
        <ele>684.4</ele>
        <time>2012-09-07T12:10:31Z</time>
      </trkpt>
      <trkpt lat="46.0059" lon="1.44499">
        <ele>684.8</ele>
        <time>2012-09-07T12:10:37Z</time>
      </trkpt>
      <trkpt lat="46.00588" lon="1.44508">
        <ele>686</ele>
        <time>2012-09-07T12:10:57Z</time>
      </trkpt>
      <trkpt lat="46.00587" lon="1.44512">
        <ele>685.8</ele>
        <time>2012-09-07T12:11:01Z</time>
      </trkpt>
      <trkpt lat="46.00587" lon="1.44513">
        <ele>685.8</ele>
        <time>2012-09-07T12:11:02Z</time>
      </trkpt>
      <trkpt lat="46.00584" lon="1.4452">
        <ele>685.8</ele>
        <time>2012-09-07T12:11:07Z</time>
      </trkpt>
      <trkpt lat="46.00579" lon="1.44518">
        <ele>685.6</ele>
        <time>2012-09-07T12:11:12Z</time>
      </trkpt>
      <trkpt lat="46.00577" lon="1.44512">
        <ele>685.4</ele>
        <time>2012-09-07T12:11:14Z</time>
      </trkpt>
      <trkpt lat="46.00575" lon="1.44509">
        <ele>685.4</ele>
        <time>2012-09-07T12:11:16Z</time>
      </trkpt>
      <trkpt lat="46.0057" lon="1.44497">
        <ele>684.8</ele>
        <time>2012-09-07T12:11:22Z</time>
      </trkpt>
      <trkpt lat="46.0056" lon="1.44486">
        <ele>684.4</ele>
        <time>2012-09-07T12:11:28Z</time>
      </trkpt>
      <trkpt lat="46.00554" lon="1.44486">
        <ele>683.6</ele>
        <time>2012-09-07T12:11:33Z</time>
      </trkpt>
      <trkpt lat="46.00557" lon="1.44498">
        <ele>683</ele>
        <time>2012-09-07T12:11:37Z</time>
      </trkpt>
      <trkpt lat="46.00557" lon="1.44502">
        <ele>682.8</ele>
        <time>2012-09-07T12:11:39Z</time>
      </trkpt>
      <trkpt lat="46.00553" lon="1.44505">
        <ele>682.2</ele>
        <time>2012-09-07T12:11:42Z</time>
      </trkpt>
      <trkpt lat="46.00551" lon="1.44501">
        <ele>681.8</ele>
        <time>2012-09-07T12:11:45Z</time>
      </trkpt>
      <trkpt lat="46.0055" lon="1.44502">
        <ele>681.6</ele>
        <time>2012-09-07T12:11:46Z</time>
      </trkpt>
      <trkpt lat="46.00547" lon="1.44499">
        <ele>680.8</ele>
        <time>2012-09-07T12:11:52Z</time>
      </trkpt>
      <trkpt lat="46.00541" lon="1.44496">
        <ele>679.6</ele>
        <time>2012-09-07T12:11:59Z</time>
      </trkpt>
      <trkpt lat="46.00537" lon="1.44493">
        <ele>679</ele>
        <time>2012-09-07T12:12:02Z</time>
      </trkpt>
      <trkpt lat="46.00535" lon="1.44489">
        <ele>678.4</ele>
        <time>2012-09-07T12:12:05Z</time>
      </trkpt>
      <trkpt lat="46.00534" lon="1.44489">
        <ele>678.2</ele>
        <time>2012-09-07T12:12:06Z</time>
      </trkpt>
      <trkpt lat="46.00533" lon="1.44489">
        <ele>677.6</ele>
        <time>2012-09-07T12:12:09Z</time>
      </trkpt>
      <trkpt lat="46.00529" lon="1.44488">
        <ele>676</ele>
        <time>2012-09-07T12:12:17Z</time>
      </trkpt>
      <trkpt lat="46.00522" lon="1.44489">
        <ele>675</ele>
        <time>2012-09-07T12:12:23Z</time>
      </trkpt>
      <trkpt lat="46.00516" lon="1.44489">
        <ele>674</ele>
        <time>2012-09-07T12:12:29Z</time>
      </trkpt>
      <trkpt lat="46.00508" lon="1.44492">
        <ele>672.8</ele>
        <time>2012-09-07T12:12:36Z</time>
      </trkpt>
      <trkpt lat="46.00505" lon="1.44497">
        <ele>672</ele>
        <time>2012-09-07T12:12:40Z</time>
      </trkpt>
      <trkpt lat="46.00504" lon="1.44501">
        <ele>671.4</ele>
        <time>2012-09-07T12:12:43Z</time>
      </trkpt>
      <trkpt lat="46.00497" lon="1.44507">
        <ele>670</ele>
        <time>2012-09-07T12:12:49Z</time>
      </trkpt>
      <trkpt lat="46.00493" lon="1.44517">
        <ele>668.4</ele>
        <time>2012-09-07T12:12:56Z</time>
      </trkpt>
      <trkpt lat="46.00491" lon="1.4452">
        <ele>667.8</ele>
        <time>2012-09-07T12:12:59Z</time>
      </trkpt>
      <trkpt lat="46.00489" lon="1.44522">
        <ele>667.4</ele>
        <time>2012-09-07T12:13:01Z</time>
      </trkpt>
      <trkpt lat="46.00488" lon="1.44527">
        <ele>666.6</ele>
        <time>2012-09-07T12:13:04Z</time>
      </trkpt>
      <trkpt lat="46.00488" lon="1.44527">
        <ele>666</ele>
        <time>2012-09-07T12:13:07Z</time>
      </trkpt>
      <trkpt lat="46.00485" lon="1.44531">
        <ele>664.2</ele>
        <time>2012-09-07T12:13:17Z</time>
      </trkpt>
      <trkpt lat="46.00484" lon="1.44533">
        <ele>664</ele>
        <time>2012-09-07T12:13:19Z</time>
      </trkpt>
      <trkpt lat="46.00483" lon="1.44538">
        <ele>663.2</ele>
        <time>2012-09-07T12:13:23Z</time>
      </trkpt>
      <trkpt lat="46.00482" lon="1.44539">
        <ele>663</ele>
        <time>2012-09-07T12:13:24Z</time>
      </trkpt>
      <trkpt lat="46.00477" lon="1.44543">
        <ele>662.2</ele>
        <time>2012-09-07T12:13:29Z</time>
      </trkpt>
      <trkpt lat="46.00473" lon="1.44545">
        <ele>661.4</ele>
        <time>2012-09-07T12:13:33Z</time>
      </trkpt>
      <trkpt lat="46.00469" lon="1.44548">
        <ele>660.4</ele>
        <time>2012-09-07T12:13:38Z</time>
      </trkpt>
      <trkpt lat="46.00467" lon="1.44549">
        <ele>659.8</ele>
        <time>2012-09-07T12:13:41Z</time>
      </trkpt>
      <trkpt lat="46.00464" lon="1.44546">
        <ele>659.4</ele>
        <time>2012-09-07T12:13:43Z</time>
      </trkpt>
      <trkpt lat="46.00462" lon="1.44543">
        <ele>658.8</ele>
        <time>2012-09-07T12:13:45Z</time>
      </trkpt>
      <trkpt lat="46.00459" lon="1.44541">
        <ele>658.2</ele>
        <time>2012-09-07T12:13:47Z</time>
      </trkpt>
      <trkpt lat="46.00456" lon="1.44539">
        <ele>657.4</ele>
        <time>2012-09-07T12:13:50Z</time>
      </trkpt>
      <trkpt lat="46.00455" lon="1.44539">
        <ele>657</ele>
        <time>2012-09-07T12:13:51Z</time>
      </trkpt>
      <trkpt lat="46.00453" lon="1.44541">
        <ele>656.4</ele>
        <time>2012-09-07T12:13:54Z</time>
      </trkpt>
      <trkpt lat="46.00444" lon="1.44539">
        <ele>654</ele>
        <time>2012-09-07T12:14:01Z</time>
      </trkpt>
      <trkpt lat="46.00437" lon="1.44537">
        <ele>651.6</ele>
        <time>2012-09-07T12:14:08Z</time>
      </trkpt>
      <trkpt lat="46.00433" lon="1.44541">
        <ele>649.8</ele>
        <time>2012-09-07T12:14:13Z</time>
      </trkpt>
      <trkpt lat="46.00431" lon="1.44542">
        <ele>648.6</ele>
        <time>2012-09-07T12:14:16Z</time>
      </trkpt>
      <trkpt lat="46.00427" lon="1.44543">
        <ele>646.8</ele>
        <time>2012-09-07T12:14:21Z</time>
      </trkpt>
      <trkpt lat="46.00424" lon="1.44543">
        <ele>645.4</ele>
        <time>2012-09-07T12:14:25Z</time>
      </trkpt>
      <trkpt lat="46.00419" lon="1.44542">
        <ele>644</ele>
        <time>2012-09-07T12:14:29Z</time>
      </trkpt>
      <trkpt lat="46.00417" lon="1.4454">
        <ele>643.4</ele>
        <time>2012-09-07T12:14:31Z</time>
      </trkpt>
      <trkpt lat="46.00414" lon="1.44539">
        <ele>641.6</ele>
        <time>2012-09-07T12:14:36Z</time>
      </trkpt>
      <trkpt lat="46.00412" lon="1.44541">
        <ele>640.4</ele>
        <time>2012-09-07T12:14:39Z</time>
      </trkpt>
      <trkpt lat="46.0041" lon="1.44544">
        <ele>639.8</ele>
        <time>2012-09-07T12:14:41Z</time>
      </trkpt>
      <trkpt lat="46.0041" lon="1.44544">
        <ele>637.8</ele>
        <time>2012-09-07T12:14:47Z</time>
      </trkpt>
      <trkpt lat="46.00409" lon="1.44549">
        <ele>636</ele>
        <time>2012-09-07T12:14:54Z</time>
      </trkpt>
      <trkpt lat="46.0041" lon="1.44558">
        <ele>635</ele>
        <time>2012-09-07T12:14:58Z</time>
      </trkpt>
      <trkpt lat="46.0041" lon="1.44575">
        <ele>633.6</ele>
        <time>2012-09-07T12:15:04Z</time>
      </trkpt>
      <trkpt lat="46.00412" lon="1.44586">
        <ele>632.6</ele>
        <time>2012-09-07T12:15:08Z</time>
      </trkpt>
      <trkpt lat="46.0041" lon="1.44602">
        <ele>631.2</ele>
        <time>2012-09-07T12:15:14Z</time>
      </trkpt>
      <trkpt lat="46.00408" lon="1.44624">
        <ele>630.2</ele>
        <time>2012-09-07T12:15:18Z</time>
      </trkpt>
      <trkpt lat="46.00409" lon="1.44637">
        <ele>628.8</ele>
        <time>2012-09-07T12:15:22Z</time>
      </trkpt>
      <trkpt lat="46.0041" lon="1.44655">
        <ele>627.6</ele>
        <time>2012-09-07T12:15:26Z</time>
      </trkpt>
      <trkpt lat="46.0041" lon="1.44659">
        <ele>626.6</ele>
        <time>2012-09-07T12:15:29Z</time>
      </trkpt>
      <trkpt lat="46.0041" lon="1.44659">
        <ele>626.4</ele>
        <time>2012-09-07T12:15:30Z</time>
      </trkpt>
      <trkpt lat="46.00407" lon="1.44663">
        <ele>624.8</ele>
        <time>2012-09-07T12:15:35Z</time>
      </trkpt>
      <trkpt lat="46.00405" lon="1.44663">
        <ele>624.2</ele>
        <time>2012-09-07T12:15:37Z</time>
      </trkpt>
      <trkpt lat="46.00401" lon="1.44665">
        <ele>623.2</ele>
        <time>2012-09-07T12:15:41Z</time>
      </trkpt>
      <trkpt lat="46.00399" lon="1.4467">
        <ele>622</ele>
        <time>2012-09-07T12:15:46Z</time>
      </trkpt>
      <trkpt lat="46.00398" lon="1.4467">
        <ele>621.8</ele>
        <time>2012-09-07T12:15:47Z</time>
      </trkpt>
      <trkpt lat="46.00395" lon="1.44671">
        <ele>620.8</ele>
        <time>2012-09-07T12:15:51Z</time>
      </trkpt>
      <trkpt lat="46.00389" lon="1.4467">
        <ele>619</ele>
        <time>2012-09-07T12:15:58Z</time>
      </trkpt>
      <trkpt lat="46.00384" lon="1.44669">
        <ele>617.6</ele>
        <time>2012-09-07T12:16:04Z</time>
      </trkpt>
      <trkpt lat="46.00384" lon="1.44669">
        <ele>617.4</ele>
        <time>2012-09-07T12:16:05Z</time>
      </trkpt>
      <trkpt lat="46.00382" lon="1.44682">
        <ele>614.2</ele>
        <time>2012-09-07T12:16:43Z</time>
      </trkpt>
      <trkpt lat="46.00381" lon="1.44684">
        <ele>615.2</ele>
        <time>2012-09-07T12:16:48Z</time>
      </trkpt>
      <trkpt lat="46.00378" lon="1.44684">
        <ele>616.8</ele>
        <time>2012-09-07T12:16:55Z</time>
      </trkpt>
      <trkpt lat="46.00377" lon="1.44684">
        <ele>617.2</ele>
        <time>2012-09-07T12:16:57Z</time>
      </trkpt>
      <trkpt lat="46.00369" lon="1.44683">
        <ele>616.2</ele>
        <time>2012-09-07T12:17:08Z</time>
      </trkpt>
      <trkpt lat="46.00367" lon="1.44682">
        <ele>615.8</ele>
        <time>2012-09-07T12:17:10Z</time>
      </trkpt>
      <trkpt lat="46.00364" lon="1.4468">
        <ele>615.4</ele>
        <time>2012-09-07T12:17:12Z</time>
      </trkpt>
      <trkpt lat="46.0036" lon="1.44674">
        <ele>614.6</ele>
        <time>2012-09-07T12:17:16Z</time>
      </trkpt>
      <trkpt lat="46.00353" lon="1.44669">
        <ele>613.2</ele>
        <time>2012-09-07T12:17:21Z</time>
      </trkpt>
      <trkpt lat="46.00353" lon="1.44669">
        <ele>612.8</ele>
        <time>2012-09-07T12:17:22Z</time>
      </trkpt>
      <trkpt lat="46.00351" lon="1.44669">
        <ele>611.6</ele>
        <time>2012-09-07T12:17:27Z</time>
      </trkpt>
      <trkpt lat="46.00349" lon="1.44673">
        <ele>610.8</ele>
        <time>2012-09-07T12:17:30Z</time>
      </trkpt>
      <trkpt lat="46.00346" lon="1.4468">
        <ele>610</ele>
        <time>2012-09-07T12:17:33Z</time>
      </trkpt>
      <trkpt lat="46.00344" lon="1.44683">
        <ele>609.4</ele>
        <time>2012-09-07T12:17:35Z</time>
      </trkpt>
      <trkpt lat="46.00341" lon="1.44683">
        <ele>608.8</ele>
        <time>2012-09-07T12:17:38Z</time>
      </trkpt>
      <trkpt lat="46.00337" lon="1.44688">
        <ele>607.8</ele>
        <time>2012-09-07T12:17:42Z</time>
      </trkpt>
      <trkpt lat="46.00336" lon="1.4469">
        <ele>607.4</ele>
        <time>2012-09-07T12:17:44Z</time>
      </trkpt>
      <trkpt lat="46.00335" lon="1.44693">
        <ele>606.8</ele>
        <time>2012-09-07T12:17:46Z</time>
      </trkpt>
      <trkpt lat="46.00333" lon="1.44697">
        <ele>606.2</ele>
        <time>2012-09-07T12:17:50Z</time>
      </trkpt>
      <trkpt lat="46.00328" lon="1.44701">
        <ele>605.6</ele>
        <time>2012-09-07T12:17:52Z</time>
      </trkpt>
      <trkpt lat="46.00318" lon="1.44694">
        <ele>604.8</ele>
        <time>2012-09-07T12:17:56Z</time>
      </trkpt>
      <trkpt lat="46.00314" lon="1.44686">
        <ele>604.4</ele>
        <time>2012-09-07T12:17:58Z</time>
      </trkpt>
      <trkpt lat="46.00312" lon="1.44675">
        <ele>603.8</ele>
        <time>2012-09-07T12:18:00Z</time>
      </trkpt>
      <trkpt lat="46.00306" lon="1.44668">
        <ele>603.2</ele>
        <time>2012-09-07T12:18:03Z</time>
      </trkpt>
      <trkpt lat="46.00304" lon="1.44665">
        <ele>602.8</ele>
        <time>2012-09-07T12:18:04Z</time>
      </trkpt>
      <trkpt lat="46.00298" lon="1.44655">
        <ele>601.4</ele>
        <time>2012-09-07T12:18:08Z</time>
      </trkpt>
      <trkpt lat="46.00296" lon="1.44652">
        <ele>600</ele>
        <time>2012-09-07T12:18:12Z</time>
      </trkpt>
      <trkpt lat="46.00293" lon="1.44649">
        <ele>599.4</ele>
        <time>2012-09-07T12:18:14Z</time>
      </trkpt>
      <trkpt lat="46.00286" lon="1.44638">
        <ele>598.2</ele>
        <time>2012-09-07T12:18:17Z</time>
      </trkpt>
      <trkpt lat="46.00288" lon="1.44631">
        <ele>597</ele>
        <time>2012-09-07T12:18:21Z</time>
      </trkpt>
      <trkpt lat="46.00282" lon="1.4462">
        <ele>595.8</ele>
        <time>2012-09-07T12:18:25Z</time>
      </trkpt>
      <trkpt lat="46.0028" lon="1.44616">
        <ele>595.6</ele>
        <time>2012-09-07T12:18:26Z</time>
      </trkpt>
      <trkpt lat="46.00275" lon="1.4461">
        <ele>594.2</ele>
        <time>2012-09-07T12:18:30Z</time>
      </trkpt>
      <trkpt lat="46.00273" lon="1.44608">
        <ele>593.8</ele>
        <time>2012-09-07T12:18:31Z</time>
      </trkpt>
      <trkpt lat="46.00261" lon="1.44598">
        <ele>592</ele>
        <time>2012-09-07T12:18:36Z</time>
      </trkpt>
      <trkpt lat="46.00252" lon="1.44589">
        <ele>590.4</ele>
        <time>2012-09-07T12:18:41Z</time>
      </trkpt>
      <trkpt lat="46.00251" lon="1.44587">
        <ele>590</ele>
        <time>2012-09-07T12:18:42Z</time>
      </trkpt>
      <trkpt lat="46.00251" lon="1.44575">
        <ele>589.2</ele>
        <time>2012-09-07T12:18:46Z</time>
      </trkpt>
      <trkpt lat="46.00252" lon="1.44575">
        <ele>589</ele>
        <time>2012-09-07T12:18:47Z</time>
      </trkpt>
      <trkpt lat="46.00253" lon="1.44573">
        <ele>588.8</ele>
        <time>2012-09-07T12:18:48Z</time>
      </trkpt>
      <trkpt lat="46.00255" lon="1.44571">
        <ele>588.2</ele>
        <time>2012-09-07T12:18:51Z</time>
      </trkpt>
      <trkpt lat="46.0025" lon="1.44562">
        <ele>587.4</ele>
        <time>2012-09-07T12:19:06Z</time>
      </trkpt>
      <trkpt lat="46.00251" lon="1.44557">
        <ele>587.6</ele>
        <time>2012-09-07T12:19:11Z</time>
      </trkpt>
      <trkpt lat="46.00249" lon="1.44556">
        <ele>587.4</ele>
        <time>2012-09-07T12:19:12Z</time>
      </trkpt>
      <trkpt lat="46.00242" lon="1.44551">
        <ele>587</ele>
        <time>2012-09-07T12:19:15Z</time>
      </trkpt>
      <trkpt lat="46.00234" lon="1.4454">
        <ele>586.4</ele>
        <time>2012-09-07T12:19:19Z</time>
      </trkpt>
      <trkpt lat="46.00232" lon="1.44539">
        <ele>586.4</ele>
        <time>2012-09-07T12:19:20Z</time>
      </trkpt>
      <trkpt lat="46.00223" lon="1.44536">
        <ele>585.6</ele>
        <time>2012-09-07T12:19:24Z</time>
      </trkpt>
      <trkpt lat="46.00219" lon="1.44534">
        <ele>585</ele>
        <time>2012-09-07T12:19:27Z</time>
      </trkpt>
      <trkpt lat="46.00218" lon="1.44534">
        <ele>584.6</ele>
        <time>2012-09-07T12:19:28Z</time>
      </trkpt>
      <trkpt lat="46.00214" lon="1.44538">
        <ele>583</ele>
        <time>2012-09-07T12:19:35Z</time>
      </trkpt>
      <trkpt lat="46.00213" lon="1.44539">
        <ele>582.8</ele>
        <time>2012-09-07T12:19:36Z</time>
      </trkpt>
      <trkpt lat="46.00208" lon="1.44542">
        <ele>581.8</ele>
        <time>2012-09-07T12:19:39Z</time>
      </trkpt>
      <trkpt lat="46.00205" lon="1.44543">
        <ele>581.4</ele>
        <time>2012-09-07T12:19:40Z</time>
      </trkpt>
      <trkpt lat="46.00199" lon="1.44551">
        <ele>580.4</ele>
        <time>2012-09-07T12:19:43Z</time>
      </trkpt>
      <trkpt lat="46.00199" lon="1.44554">
        <ele>580.2</ele>
        <time>2012-09-07T12:19:44Z</time>
      </trkpt>
      <trkpt lat="46.00196" lon="1.4456">
        <ele>579.2</ele>
        <time>2012-09-07T12:19:47Z</time>
      </trkpt>
      <trkpt lat="46.00196" lon="1.44563">
        <ele>579</ele>
        <time>2012-09-07T12:19:49Z</time>
      </trkpt>
      <trkpt lat="46.00186" lon="1.44566">
        <ele>577.6</ele>
        <time>2012-09-07T12:19:53Z</time>
      </trkpt>
      <trkpt lat="46.00177" lon="1.44564">
        <ele>576.6</ele>
        <time>2012-09-07T12:19:56Z</time>
      </trkpt>
      <trkpt lat="46.00175" lon="1.44561">
        <ele>576.2</ele>
        <time>2012-09-07T12:19:57Z</time>
      </trkpt>
      <trkpt lat="46.00173" lon="1.4456">
        <ele>575.8</ele>
        <time>2012-09-07T12:19:58Z</time>
      </trkpt>
      <trkpt lat="46.0017" lon="1.44555">
        <ele>574</ele>
        <time>2012-09-07T12:20:03Z</time>
      </trkpt>
      <trkpt lat="46.00172" lon="1.44549">
        <ele>567.6</ele>
        <time>2012-09-07T12:20:22Z</time>
      </trkpt>
      <trkpt lat="46.0017" lon="1.44544">
        <ele>565.8</ele>
        <time>2012-09-07T12:20:27Z</time>
      </trkpt>
      <trkpt lat="46.00165" lon="1.44541">
        <ele>564.4</ele>
        <time>2012-09-07T12:20:30Z</time>
      </trkpt>
      <trkpt lat="46.00164" lon="1.4454">
        <ele>564</ele>
        <time>2012-09-07T12:20:31Z</time>
      </trkpt>
      <trkpt lat="46.00159" lon="1.44544">
        <ele>561.8</ele>
        <time>2012-09-07T12:20:37Z</time>
      </trkpt>
      <trkpt lat="46.00157" lon="1.44547">
        <ele>561</ele>
        <time>2012-09-07T12:20:39Z</time>
      </trkpt>
      <trkpt lat="46.00156" lon="1.44553">
        <ele>560.2</ele>
        <time>2012-09-07T12:20:41Z</time>
      </trkpt>
      <trkpt lat="46.00153" lon="1.44558">
        <ele>558</ele>
        <time>2012-09-07T12:20:47Z</time>
      </trkpt>
      <trkpt lat="46.00147" lon="1.44563">
        <ele>556.8</ele>
        <time>2012-09-07T12:20:52Z</time>
      </trkpt>
      <trkpt lat="46.00137" lon="1.44568">
        <ele>555.8</ele>
        <time>2012-09-07T12:20:56Z</time>
      </trkpt>
      <trkpt lat="46.00128" lon="1.44564">
        <ele>554.8</ele>
        <time>2012-09-07T12:21:00Z</time>
      </trkpt>
      <trkpt lat="46.00126" lon="1.44562">
        <ele>554.4</ele>
        <time>2012-09-07T12:21:02Z</time>
      </trkpt>
      <trkpt lat="46.00124" lon="1.44562">
        <ele>554</ele>
        <time>2012-09-07T12:21:03Z</time>
      </trkpt>
      <trkpt lat="46.00122" lon="1.4456">
        <ele>553.4</ele>
        <time>2012-09-07T12:21:05Z</time>
      </trkpt>
      <trkpt lat="46.0012" lon="1.44558">
        <ele>552.8</ele>
        <time>2012-09-07T12:21:07Z</time>
      </trkpt>
      <trkpt lat="46.00116" lon="1.44549">
        <ele>551.2</ele>
        <time>2012-09-07T12:21:13Z</time>
      </trkpt>
      <trkpt lat="46.00111" lon="1.44546">
        <ele>549.8</ele>
        <time>2012-09-07T12:21:18Z</time>
      </trkpt>
      <trkpt lat="46.00107" lon="1.44543">
        <ele>548.4</ele>
        <time>2012-09-07T12:21:21Z</time>
      </trkpt>
      <trkpt lat="46.00105" lon="1.44544">
        <ele>547.6</ele>
        <time>2012-09-07T12:21:23Z</time>
      </trkpt>
      <trkpt lat="46.00101" lon="1.44543">
        <ele>546.2</ele>
        <time>2012-09-07T12:21:27Z</time>
      </trkpt>
      <trkpt lat="46.001" lon="1.44542">
        <ele>545.8</ele>
        <time>2012-09-07T12:21:28Z</time>
      </trkpt>
      <trkpt lat="46.001" lon="1.44542">
        <ele>545.4</ele>
        <time>2012-09-07T12:21:29Z</time>
      </trkpt>
      <trkpt lat="46.00101" lon="1.44543">
        <ele>541.2</ele>
        <time>2012-09-07T12:21:42Z</time>
      </trkpt>
      <trkpt lat="46.00102" lon="1.44533">
        <ele>540.4</ele>
        <time>2012-09-07T12:21:45Z</time>
      </trkpt>
      <trkpt lat="46.00102" lon="1.44511">
        <ele>539.6</ele>
        <time>2012-09-07T12:21:49Z</time>
      </trkpt>
      <trkpt lat="46.00108" lon="1.44489">
        <ele>539.2</ele>
        <time>2012-09-07T12:21:53Z</time>
      </trkpt>
      <trkpt lat="46.00115" lon="1.44462">
        <ele>539.2</ele>
        <time>2012-09-07T12:21:57Z</time>
      </trkpt>
      <trkpt lat="46.00116" lon="1.44455">
        <ele>539.4</ele>
        <time>2012-09-07T12:21:58Z</time>
      </trkpt>
      <trkpt lat="46.00113" lon="1.44436">
        <ele>539.2</ele>
        <time>2012-09-07T12:22:01Z</time>
      </trkpt>
      <trkpt lat="46.00102" lon="1.44423">
        <ele>539.2</ele>
        <time>2012-09-07T12:22:04Z</time>
      </trkpt>
      <trkpt lat="46.00099" lon="1.44419">
        <ele>539.2</ele>
        <time>2012-09-07T12:22:05Z</time>
      </trkpt>
      <trkpt lat="46.00096" lon="1.44414">
        <ele>539.2</ele>
        <time>2012-09-07T12:22:06Z</time>
      </trkpt>
      <trkpt lat="46.00088" lon="1.444">
        <ele>539.2</ele>
        <time>2012-09-07T12:22:09Z</time>
      </trkpt>
      <trkpt lat="46.00083" lon="1.44379">
        <ele>539.6</ele>
        <time>2012-09-07T12:22:13Z</time>
      </trkpt>
      <trkpt lat="46.00077" lon="1.44364">
        <ele>539.8</ele>
        <time>2012-09-07T12:22:16Z</time>
      </trkpt>
      <trkpt lat="46.00071" lon="1.44351">
        <ele>539.6</ele>
        <time>2012-09-07T12:22:19Z</time>
      </trkpt>
      <trkpt lat="46.00057" lon="1.44327">
        <ele>539.2</ele>
        <time>2012-09-07T12:22:24Z</time>
      </trkpt>
      <trkpt lat="46.00054" lon="1.44322">
        <ele>539</ele>
        <time>2012-09-07T12:22:25Z</time>
      </trkpt>
      <trkpt lat="46.00036" lon="1.443">
        <ele>537.6</ele>
        <time>2012-09-07T12:22:29Z</time>
      </trkpt>
      <trkpt lat="46.00026" lon="1.44283">
        <ele>537</ele>
        <time>2012-09-07T12:22:31Z</time>
      </trkpt>
      <trkpt lat="46.00013" lon="1.44263">
        <ele>536.4</ele>
        <time>2012-09-07T12:22:33Z</time>
      </trkpt>
      <trkpt lat="45.99994" lon="1.44239">
        <ele>535.4</ele>
        <time>2012-09-07T12:22:36Z</time>
      </trkpt>
      <trkpt lat="45.99987" lon="1.44232">
        <ele>535.2</ele>
        <time>2012-09-07T12:22:37Z</time>
      </trkpt>
      <trkpt lat="45.99965" lon="1.44224">
        <ele>534.2</ele>
        <time>2012-09-07T12:22:40Z</time>
      </trkpt>
      <trkpt lat="45.99949" lon="1.44225">
        <ele>533.4</ele>
        <time>2012-09-07T12:22:43Z</time>
      </trkpt>
      <trkpt lat="45.99944" lon="1.44222">
        <ele>533</ele>
        <time>2012-09-07T12:22:44Z</time>
      </trkpt>
      <trkpt lat="45.99933" lon="1.44221">
        <ele>532</ele>
        <time>2012-09-07T12:22:47Z</time>
      </trkpt>
      <trkpt lat="45.9993" lon="1.44219">
        <ele>531.8</ele>
        <time>2012-09-07T12:22:48Z</time>
      </trkpt>
      <trkpt lat="45.99923" lon="1.44209">
        <ele>531.2</ele>
        <time>2012-09-07T12:22:51Z</time>
      </trkpt>
      <trkpt lat="45.9992" lon="1.44206">
        <ele>530.8</ele>
        <time>2012-09-07T12:22:52Z</time>
      </trkpt>
      <trkpt lat="45.99911" lon="1.44189">
        <ele>530.2</ele>
        <time>2012-09-07T12:22:55Z</time>
      </trkpt>
      <trkpt lat="45.99908" lon="1.44174">
        <ele>530</ele>
        <time>2012-09-07T12:22:57Z</time>
      </trkpt>
      <trkpt lat="45.99904" lon="1.44154">
        <ele>529.6</ele>
        <time>2012-09-07T12:22:59Z</time>
      </trkpt>
      <trkpt lat="45.99903" lon="1.44135">
        <ele>529</ele>
        <time>2012-09-07T12:23:01Z</time>
      </trkpt>
      <trkpt lat="45.99901" lon="1.44104">
        <ele>527.8</ele>
        <time>2012-09-07T12:23:04Z</time>
      </trkpt>
      <trkpt lat="45.99899" lon="1.44092">
        <ele>527.6</ele>
        <time>2012-09-07T12:23:05Z</time>
      </trkpt>
      <trkpt lat="45.99888" lon="1.44067">
        <ele>527</ele>
        <time>2012-09-07T12:23:07Z</time>
      </trkpt>
      <trkpt lat="45.99876" lon="1.4404">
        <ele>526.2</ele>
        <time>2012-09-07T12:23:10Z</time>
      </trkpt>
      <trkpt lat="45.99871" lon="1.44034">
        <ele>525.8</ele>
        <time>2012-09-07T12:23:11Z</time>
      </trkpt>
      <trkpt lat="45.99856" lon="1.4403">
        <ele>525</ele>
        <time>2012-09-07T12:23:14Z</time>
      </trkpt>
      <trkpt lat="45.99834" lon="1.4403">
        <ele>523.6</ele>
        <time>2012-09-07T12:23:18Z</time>
      </trkpt>
      <trkpt lat="45.99823" lon="1.44026">
        <ele>523</ele>
        <time>2012-09-07T12:23:20Z</time>
      </trkpt>
      <trkpt lat="45.99815" lon="1.44024">
        <ele>522.2</ele>
        <time>2012-09-07T12:23:22Z</time>
      </trkpt>
      <trkpt lat="45.9981" lon="1.4402">
        <ele>522</ele>
        <time>2012-09-07T12:23:23Z</time>
      </trkpt>
      <trkpt lat="45.99793" lon="1.4401">
        <ele>521</ele>
        <time>2012-09-07T12:23:26Z</time>
      </trkpt>
      <trkpt lat="45.99776" lon="1.44">
        <ele>519.8</ele>
        <time>2012-09-07T12:23:29Z</time>
      </trkpt>
      <trkpt lat="45.99759" lon="1.43988">
        <ele>518.6</ele>
        <time>2012-09-07T12:23:32Z</time>
      </trkpt>
      <trkpt lat="45.99741" lon="1.43978">
        <ele>517.2</ele>
        <time>2012-09-07T12:23:36Z</time>
      </trkpt>
      <trkpt lat="45.99729" lon="1.43978">
        <ele>515.6</ele>
        <time>2012-09-07T12:23:40Z</time>
      </trkpt>
      <trkpt lat="45.99727" lon="1.43978">
        <ele>515.2</ele>
        <time>2012-09-07T12:23:41Z</time>
      </trkpt>
      <trkpt lat="45.99718" lon="1.43986">
        <ele>513.6</ele>
        <time>2012-09-07T12:23:46Z</time>
      </trkpt>
      <trkpt lat="45.99703" lon="1.43996">
        <ele>511.6</ele>
        <time>2012-09-07T12:23:52Z</time>
      </trkpt>
      <trkpt lat="45.99684" lon="1.44007">
        <ele>510</ele>
        <time>2012-09-07T12:23:57Z</time>
      </trkpt>
      <trkpt lat="45.99679" lon="1.44008">
        <ele>509.8</ele>
        <time>2012-09-07T12:23:58Z</time>
      </trkpt>
      <trkpt lat="45.99659" lon="1.44015">
        <ele>508.8</ele>
        <time>2012-09-07T12:24:02Z</time>
      </trkpt>
      <trkpt lat="45.99653" lon="1.44019">
        <ele>508.6</ele>
        <time>2012-09-07T12:24:03Z</time>
      </trkpt>
      <trkpt lat="45.99648" lon="1.44022">
        <ele>508.2</ele>
        <time>2012-09-07T12:24:04Z</time>
      </trkpt>
      <trkpt lat="45.99631" lon="1.44029">
        <ele>507</ele>
        <time>2012-09-07T12:24:08Z</time>
      </trkpt>
      <trkpt lat="45.99628" lon="1.44027">
        <ele>506.6</ele>
        <time>2012-09-07T12:24:09Z</time>
      </trkpt>
      <trkpt lat="45.99625" lon="1.44017">
        <ele>505.6</ele>
        <time>2012-09-07T12:24:12Z</time>
      </trkpt>
      <trkpt lat="45.99622" lon="1.44">
        <ele>504.4</ele>
        <time>2012-09-07T12:24:16Z</time>
      </trkpt>
      <trkpt lat="45.99621" lon="1.43997">
        <ele>504</ele>
        <time>2012-09-07T12:24:17Z</time>
      </trkpt>
      <trkpt lat="45.99624" lon="1.4398">
        <ele>503.2</ele>
        <time>2012-09-07T12:24:21Z</time>
      </trkpt>
      <trkpt lat="45.99631" lon="1.43962">
        <ele>501.8</ele>
        <time>2012-09-07T12:24:25Z</time>
      </trkpt>
      <trkpt lat="45.99636" lon="1.43947">
        <ele>500.4</ele>
        <time>2012-09-07T12:24:29Z</time>
      </trkpt>
      <trkpt lat="45.99635" lon="1.43945">
        <ele>500</ele>
        <time>2012-09-07T12:24:30Z</time>
      </trkpt>
      <trkpt lat="45.99635" lon="1.43939">
        <ele>498.8</ele>
        <time>2012-09-07T12:24:33Z</time>
      </trkpt>
      <trkpt lat="45.99639" lon="1.43938">
        <ele>496.4</ele>
        <time>2012-09-07T12:24:39Z</time>
      </trkpt>
      <trkpt lat="45.99639" lon="1.43937">
        <ele>496</ele>
        <time>2012-09-07T12:24:40Z</time>
      </trkpt>
      <trkpt lat="45.99637" lon="1.43931">
        <ele>494.2</ele>
        <time>2012-09-07T12:24:45Z</time>
      </trkpt>
      <trkpt lat="45.99633" lon="1.43921">
        <ele>491</ele>
        <time>2012-09-07T12:24:53Z</time>
      </trkpt>
      <trkpt lat="45.99632" lon="1.43918">
        <ele>490.6</ele>
        <time>2012-09-07T12:24:54Z</time>
      </trkpt>
      <trkpt lat="45.99628" lon="1.43906">
        <ele>487.8</ele>
        <time>2012-09-07T12:25:02Z</time>
      </trkpt>
      <trkpt lat="45.99626" lon="1.43903">
        <ele>487</ele>
        <time>2012-09-07T12:25:04Z</time>
      </trkpt>
      <trkpt lat="45.99621" lon="1.43897">
        <ele>485.2</ele>
        <time>2012-09-07T12:25:09Z</time>
      </trkpt>
      <trkpt lat="45.99615" lon="1.43882">
        <ele>481.6</ele>
        <time>2012-09-07T12:25:18Z</time>
      </trkpt>
      <trkpt lat="45.99609" lon="1.43873">
        <ele>479.4</ele>
        <time>2012-09-07T12:25:25Z</time>
      </trkpt>
      <trkpt lat="45.99603" lon="1.43863">
        <ele>476.6</ele>
        <time>2012-09-07T12:25:34Z</time>
      </trkpt>
      <trkpt lat="45.99602" lon="1.4386">
        <ele>475</ele>
        <time>2012-09-07T12:25:40Z</time>
      </trkpt>
      <trkpt lat="45.99595" lon="1.43854">
        <ele>474</ele>
        <time>2012-09-07T12:25:44Z</time>
      </trkpt>
      <trkpt lat="45.99583" lon="1.43842">
        <ele>472.4</ele>
        <time>2012-09-07T12:25:51Z</time>
      </trkpt>
      <trkpt lat="45.99573" lon="1.43828">
        <ele>471.2</ele>
        <time>2012-09-07T12:25:57Z</time>
      </trkpt>
      <trkpt lat="45.99566" lon="1.43811">
        <ele>470.2</ele>
        <time>2012-09-07T12:26:03Z</time>
      </trkpt>
      <trkpt lat="45.99559" lon="1.43799">
        <ele>469.2</ele>
        <time>2012-09-07T12:26:08Z</time>
      </trkpt>
      <trkpt lat="45.99554" lon="1.43785">
        <ele>468.4</ele>
        <time>2012-09-07T12:26:13Z</time>
      </trkpt>
      <trkpt lat="45.99548" lon="1.43773">
        <ele>467.6</ele>
        <time>2012-09-07T12:26:18Z</time>
      </trkpt>
      <trkpt lat="45.99543" lon="1.43759">
        <ele>467</ele>
        <time>2012-09-07T12:26:24Z</time>
      </trkpt>
      <trkpt lat="45.9954" lon="1.43748">
        <ele>466.4</ele>
        <time>2012-09-07T12:26:30Z</time>
      </trkpt>
      <trkpt lat="45.99535" lon="1.43738">
        <ele>466.2</ele>
        <time>2012-09-07T12:26:35Z</time>
      </trkpt>
      <trkpt lat="45.99533" lon="1.43736">
        <ele>466</ele>
        <time>2012-09-07T12:26:38Z</time>
      </trkpt>
      <trkpt lat="45.99533" lon="1.43734">
        <ele>465.6</ele>
        <time>2012-09-07T12:26:40Z</time>
      </trkpt>
      <trkpt lat="45.9953" lon="1.43731">
        <ele>464.8</ele>
        <time>2012-09-07T12:26:50Z</time>
      </trkpt>
      <trkpt lat="45.99525" lon="1.43721">
        <ele>464</ele>
        <time>2012-09-07T12:26:59Z</time>
      </trkpt>
      <trkpt lat="45.99521" lon="1.43713">
        <ele>463.4</ele>
        <time>2012-09-07T12:27:07Z</time>
      </trkpt>
      <trkpt lat="45.99519" lon="1.43708">
        <ele>463.2</ele>
        <time>2012-09-07T12:27:12Z</time>
      </trkpt>
      <trkpt lat="45.99516" lon="1.43702">
        <ele>463</ele>
        <time>2012-09-07T12:27:17Z</time>
      </trkpt>
      <trkpt lat="45.99515" lon="1.43701">
        <ele>462.8</ele>
        <time>2012-09-07T12:27:18Z</time>
      </trkpt>
      <trkpt lat="45.99514" lon="1.43696">
        <ele>462.8</ele>
        <time>2012-09-07T12:27:22Z</time>
      </trkpt>
      <trkpt lat="45.99513" lon="1.43692">
        <ele>462.4</ele>
        <time>2012-09-07T12:27:25Z</time>
      </trkpt>
      <trkpt lat="45.99513" lon="1.43689">
        <ele>462</ele>
        <time>2012-09-07T12:27:26Z</time>
      </trkpt>
      <trkpt lat="45.99514" lon="1.43684">
        <ele>461.4</ele>
        <time>2012-09-07T12:27:30Z</time>
      </trkpt>
      <trkpt lat="45.99518" lon="1.43676">
        <ele>460.6</ele>
        <time>2012-09-07T12:27:37Z</time>
      </trkpt>
      <trkpt lat="45.99522" lon="1.43673">
        <ele>460.8</ele>
        <time>2012-09-07T12:27:40Z</time>
      </trkpt>
      <trkpt lat="45.99523" lon="1.43671">
        <ele>461.6</ele>
        <time>2012-09-07T12:27:42Z</time>
      </trkpt>
      <trkpt lat="45.99525" lon="1.4367">
        <ele>461.6</ele>
        <time>2012-09-07T12:27:43Z</time>
      </trkpt>
      <trkpt lat="45.99527" lon="1.43668">
        <ele>462</ele>
        <time>2012-09-07T12:27:47Z</time>
      </trkpt>
      <trkpt lat="45.99533" lon="1.43665">
        <ele>463</ele>
        <time>2012-09-07T12:27:57Z</time>
      </trkpt>
      <trkpt lat="45.99538" lon="1.4366">
        <ele>463</ele>
        <time>2012-09-07T12:28:03Z</time>
      </trkpt>
      <trkpt lat="45.99546" lon="1.4365">
        <ele>463</ele>
        <time>2012-09-07T12:28:10Z</time>
      </trkpt>
      <trkpt lat="45.99549" lon="1.43638">
        <ele>465</ele>
        <time>2012-09-07T12:28:16Z</time>
      </trkpt>
      <trkpt lat="45.99555" lon="1.43628">
        <ele>466.4</ele>
        <time>2012-09-07T12:28:23Z</time>
      </trkpt>
      <trkpt lat="45.99557" lon="1.43617">
        <ele>467</ele>
        <time>2012-09-07T12:28:28Z</time>
      </trkpt>
      <trkpt lat="45.9956" lon="1.43607">
        <ele>467.8</ele>
        <time>2012-09-07T12:28:35Z</time>
      </trkpt>
      <trkpt lat="45.99561" lon="1.43593">
        <ele>467.2</ele>
        <time>2012-09-07T12:28:41Z</time>
      </trkpt>
      <trkpt lat="45.99561" lon="1.43588">
        <ele>467</ele>
        <time>2012-09-07T12:28:43Z</time>
      </trkpt>
      <trkpt lat="45.99562" lon="1.43581">
        <ele>466.8</ele>
        <time>2012-09-07T12:28:46Z</time>
      </trkpt>
      <trkpt lat="45.99564" lon="1.4358">
        <ele>466.8</ele>
        <time>2012-09-07T12:28:47Z</time>
      </trkpt>
      <trkpt lat="45.99565" lon="1.43571">
        <ele>466.4</ele>
        <time>2012-09-07T12:28:51Z</time>
      </trkpt>
      <trkpt lat="45.99566" lon="1.43566">
        <ele>466.6</ele>
        <time>2012-09-07T12:28:53Z</time>
      </trkpt>
      <trkpt lat="45.99569" lon="1.43555">
        <ele>468.4</ele>
        <time>2012-09-07T12:28:58Z</time>
      </trkpt>
      <trkpt lat="45.99571" lon="1.43553">
        <ele>469.4</ele>
        <time>2012-09-07T12:28:59Z</time>
      </trkpt>
      <trkpt lat="45.99575" lon="1.43547">
        <ele>471.4</ele>
        <time>2012-09-07T12:29:03Z</time>
      </trkpt>
      <trkpt lat="45.99576" lon="1.43532">
        <ele>474.8</ele>
        <time>2012-09-07T12:29:09Z</time>
      </trkpt>
      <trkpt lat="45.99577" lon="1.43523">
        <ele>477.4</ele>
        <time>2012-09-07T12:29:13Z</time>
      </trkpt>
      <trkpt lat="45.99579" lon="1.43521">
        <ele>479</ele>
        <time>2012-09-07T12:29:15Z</time>
      </trkpt>
      <trkpt lat="45.9958" lon="1.43516">
        <ele>479.6</ele>
        <time>2012-09-07T12:29:17Z</time>
      </trkpt>
      <trkpt lat="45.99582" lon="1.43512">
        <ele>481</ele>
        <time>2012-09-07T12:29:20Z</time>
      </trkpt>
      <trkpt lat="45.99582" lon="1.43512">
        <ele>481.6</ele>
        <time>2012-09-07T12:29:21Z</time>
      </trkpt>
      <trkpt lat="45.99581" lon="1.4351">
        <ele>481.4</ele>
        <time>2012-09-07T12:29:29Z</time>
      </trkpt>
      <trkpt lat="45.99589" lon="1.4351">
        <ele>485.8</ele>
        <time>2012-09-07T12:30:18Z</time>
      </trkpt>
      <trkpt lat="45.99587" lon="1.435">
        <ele>485.6</ele>
        <time>2012-09-07T12:30:22Z</time>
      </trkpt>
      <trkpt lat="45.99586" lon="1.43496">
        <ele>485.4</ele>
        <time>2012-09-07T12:30:23Z</time>
      </trkpt>
      <trkpt lat="45.99585" lon="1.43475">
        <ele>484.6</ele>
        <time>2012-09-07T12:30:29Z</time>
      </trkpt>
      <trkpt lat="45.99583" lon="1.43454">
        <ele>483.6</ele>
        <time>2012-09-07T12:30:35Z</time>
      </trkpt>
      <trkpt lat="45.99585" lon="1.43437">
        <ele>482.8</ele>
        <time>2012-09-07T12:30:40Z</time>
      </trkpt>
      <trkpt lat="45.99588" lon="1.43422">
        <ele>481.8</ele>
        <time>2012-09-07T12:30:46Z</time>
      </trkpt>
      <trkpt lat="45.99587" lon="1.43409">
        <ele>481</ele>
        <time>2012-09-07T12:30:51Z</time>
      </trkpt>
      <trkpt lat="45.99586" lon="1.43408">
        <ele>480.8</ele>
        <time>2012-09-07T12:30:52Z</time>
      </trkpt>
      <trkpt lat="45.99579" lon="1.43405">
        <ele>480.2</ele>
        <time>2012-09-07T12:30:56Z</time>
      </trkpt>
      <trkpt lat="45.99578" lon="1.43405">
        <ele>480</ele>
        <time>2012-09-07T12:30:57Z</time>
      </trkpt>
      <trkpt lat="45.99573" lon="1.4341">
        <ele>479.6</ele>
        <time>2012-09-07T12:31:03Z</time>
      </trkpt>
      <trkpt lat="45.99563" lon="1.43416">
        <ele>479.4</ele>
        <time>2012-09-07T12:31:10Z</time>
      </trkpt>
      <trkpt lat="45.99554" lon="1.4342">
        <ele>479</ele>
        <time>2012-09-07T12:31:16Z</time>
      </trkpt>
      <trkpt lat="45.99541" lon="1.43426">
        <ele>478.2</ele>
        <time>2012-09-07T12:31:25Z</time>
      </trkpt>
      <trkpt lat="45.99535" lon="1.43431">
        <ele>477.6</ele>
        <time>2012-09-07T12:31:30Z</time>
      </trkpt>
      <trkpt lat="45.99532" lon="1.43432">
        <ele>477.4</ele>
        <time>2012-09-07T12:31:32Z</time>
      </trkpt>
      <trkpt lat="45.99523" lon="1.43435">
        <ele>476.8</ele>
        <time>2012-09-07T12:31:38Z</time>
      </trkpt>
      <trkpt lat="45.99521" lon="1.43438">
        <ele>476.4</ele>
        <time>2012-09-07T12:31:40Z</time>
      </trkpt>
      <trkpt lat="45.99516" lon="1.4344">
        <ele>476</ele>
        <time>2012-09-07T12:31:44Z</time>
      </trkpt>
      <trkpt lat="45.99509" lon="1.43447">
        <ele>477.2</ele>
        <time>2012-09-07T12:31:51Z</time>
      </trkpt>
      <trkpt lat="45.99498" lon="1.43445">
        <ele>478.6</ele>
        <time>2012-09-07T12:31:58Z</time>
      </trkpt>
      <trkpt lat="45.99492" lon="1.4344">
        <ele>480</ele>
        <time>2012-09-07T12:32:03Z</time>
      </trkpt>
      <trkpt lat="45.99486" lon="1.43432">
        <ele>482.6</ele>
        <time>2012-09-07T12:32:11Z</time>
      </trkpt>
      <trkpt lat="45.99485" lon="1.43431">
        <ele>483</ele>
        <time>2012-09-07T12:32:12Z</time>
      </trkpt>
      <trkpt lat="45.99482" lon="1.43424">
        <ele>484.2</ele>
        <time>2012-09-07T12:32:15Z</time>
      </trkpt>
      <trkpt lat="45.99479" lon="1.4342">
        <ele>484.8</ele>
        <time>2012-09-07T12:32:17Z</time>
      </trkpt>
      <trkpt lat="45.99473" lon="1.43408">
        <ele>486.8</ele>
        <time>2012-09-07T12:32:22Z</time>
      </trkpt>
      <trkpt lat="45.99467" lon="1.43398">
        <ele>489.6</ele>
        <time>2012-09-07T12:32:28Z</time>
      </trkpt>
      <trkpt lat="45.9946" lon="1.43385">
        <ele>492.2</ele>
        <time>2012-09-07T12:32:34Z</time>
      </trkpt>
      <trkpt lat="45.99456" lon="1.43377">
        <ele>494.6</ele>
        <time>2012-09-07T12:32:39Z</time>
      </trkpt>
      <trkpt lat="45.99453" lon="1.43371">
        <ele>496.6</ele>
        <time>2012-09-07T12:32:43Z</time>
      </trkpt>
      <trkpt lat="45.99452" lon="1.43368">
        <ele>497.6</ele>
        <time>2012-09-07T12:32:45Z</time>
      </trkpt>
      <trkpt lat="45.9945" lon="1.43363">
        <ele>499</ele>
        <time>2012-09-07T12:32:48Z</time>
      </trkpt>
      <trkpt lat="45.99447" lon="1.43359">
        <ele>500.2</ele>
        <time>2012-09-07T12:32:51Z</time>
      </trkpt>
      <trkpt lat="45.99444" lon="1.43349">
        <ele>502.4</ele>
        <time>2012-09-07T12:32:57Z</time>
      </trkpt>
      <trkpt lat="45.9944" lon="1.43336">
        <ele>504.8</ele>
        <time>2012-09-07T12:33:04Z</time>
      </trkpt>
      <trkpt lat="45.99435" lon="1.43325">
        <ele>506.6</ele>
        <time>2012-09-07T12:33:10Z</time>
      </trkpt>
      <trkpt lat="45.99433" lon="1.43322">
        <ele>506.8</ele>
        <time>2012-09-07T12:33:12Z</time>
      </trkpt>
      <trkpt lat="45.9943" lon="1.43315">
        <ele>507.6</ele>
        <time>2012-09-07T12:33:16Z</time>
      </trkpt>
      <trkpt lat="45.99425" lon="1.43303">
        <ele>508.4</ele>
        <time>2012-09-07T12:33:23Z</time>
      </trkpt>
      <trkpt lat="45.99422" lon="1.43296">
        <ele>508.8</ele>
        <time>2012-09-07T12:33:28Z</time>
      </trkpt>
      <trkpt lat="45.9942" lon="1.43291">
        <ele>509</ele>
        <time>2012-09-07T12:33:31Z</time>
      </trkpt>
      <trkpt lat="45.99417" lon="1.43288">
        <ele>509.2</ele>
        <time>2012-09-07T12:33:33Z</time>
      </trkpt>
      <trkpt lat="45.99413" lon="1.4328">
        <ele>509.2</ele>
        <time>2012-09-07T12:33:38Z</time>
      </trkpt>
      <trkpt lat="45.99412" lon="1.43278">
        <ele>509.8</ele>
        <time>2012-09-07T12:33:40Z</time>
      </trkpt>
      <trkpt lat="45.9941" lon="1.43274">
        <ele>510</ele>
        <time>2012-09-07T12:33:43Z</time>
      </trkpt>
      <trkpt lat="45.99405" lon="1.43266">
        <ele>510.8</ele>
        <time>2012-09-07T12:33:47Z</time>
      </trkpt>
      <trkpt lat="45.99403" lon="1.4326">
        <ele>511.6</ele>
        <time>2012-09-07T12:33:50Z</time>
      </trkpt>
      <trkpt lat="45.994" lon="1.43256">
        <ele>511.8</ele>
        <time>2012-09-07T12:33:52Z</time>
      </trkpt>
      <trkpt lat="45.99394" lon="1.43249">
        <ele>512.2</ele>
        <time>2012-09-07T12:33:56Z</time>
      </trkpt>
      <trkpt lat="45.99393" lon="1.43247">
        <ele>512.2</ele>
        <time>2012-09-07T12:33:57Z</time>
      </trkpt>
      <trkpt lat="45.9939" lon="1.43243">
        <ele>512.4</ele>
        <time>2012-09-07T12:33:59Z</time>
      </trkpt>
      <trkpt lat="45.99386" lon="1.43231">
        <ele>512</ele>
        <time>2012-09-07T12:34:02Z</time>
      </trkpt>
      <trkpt lat="45.9938" lon="1.43212">
        <ele>512</ele>
        <time>2012-09-07T12:34:06Z</time>
      </trkpt>
      <trkpt lat="45.99378" lon="1.43207">
        <ele>512</ele>
        <time>2012-09-07T12:34:07Z</time>
      </trkpt>
      <trkpt lat="45.99368" lon="1.43182">
        <ele>512</ele>
        <time>2012-09-07T12:34:13Z</time>
      </trkpt>
      <trkpt lat="45.99357" lon="1.43166">
        <ele>511.6</ele>
        <time>2012-09-07T12:34:18Z</time>
      </trkpt>
      <trkpt lat="45.99342" lon="1.43144">
        <ele>511.4</ele>
        <time>2012-09-07T12:34:23Z</time>
      </trkpt>
      <trkpt lat="45.99341" lon="1.43141">
        <ele>511.4</ele>
        <time>2012-09-07T12:34:24Z</time>
      </trkpt>
      <trkpt lat="45.99331" lon="1.43115">
        <ele>511.2</ele>
        <time>2012-09-07T12:34:29Z</time>
      </trkpt>
      <trkpt lat="45.99323" lon="1.43087">
        <ele>511</ele>
        <time>2012-09-07T12:34:33Z</time>
      </trkpt>
      <trkpt lat="45.99322" lon="1.43082">
        <ele>511</ele>
        <time>2012-09-07T12:34:34Z</time>
      </trkpt>
      <trkpt lat="45.9932" lon="1.43076">
        <ele>511</ele>
        <time>2012-09-07T12:34:35Z</time>
      </trkpt>
      <trkpt lat="45.99316" lon="1.43065">
        <ele>510.8</ele>
        <time>2012-09-07T12:34:37Z</time>
      </trkpt>
      <trkpt lat="45.99309" lon="1.43049">
        <ele>510.6</ele>
        <time>2012-09-07T12:34:40Z</time>
      </trkpt>
      <trkpt lat="45.99305" lon="1.43041">
        <ele>510.4</ele>
        <time>2012-09-07T12:34:42Z</time>
      </trkpt>
      <trkpt lat="45.99299" lon="1.43028">
        <ele>510.4</ele>
        <time>2012-09-07T12:34:45Z</time>
      </trkpt>
      <trkpt lat="45.99298" lon="1.43024">
        <ele>510.4</ele>
        <time>2012-09-07T12:34:46Z</time>
      </trkpt>
      <trkpt lat="45.99288" lon="1.43006">
        <ele>510.4</ele>
        <time>2012-09-07T12:34:50Z</time>
      </trkpt>
      <trkpt lat="45.99275" lon="1.42982">
        <ele>509.8</ele>
        <time>2012-09-07T12:34:55Z</time>
      </trkpt>
      <trkpt lat="45.99271" lon="1.42975">
        <ele>509.8</ele>
        <time>2012-09-07T12:34:57Z</time>
      </trkpt>
      <trkpt lat="45.99257" lon="1.42958">
        <ele>509.4</ele>
        <time>2012-09-07T12:35:02Z</time>
      </trkpt>
      <trkpt lat="45.99246" lon="1.42942">
        <ele>509</ele>
        <time>2012-09-07T12:35:07Z</time>
      </trkpt>
      <trkpt lat="45.99236" lon="1.42919">
        <ele>508.8</ele>
        <time>2012-09-07T12:35:14Z</time>
      </trkpt>
      <trkpt lat="45.99238" lon="1.42913">
        <ele>508.8</ele>
        <time>2012-09-07T12:35:16Z</time>
      </trkpt>
      <trkpt lat="45.99242" lon="1.42909">
        <ele>508.6</ele>
        <time>2012-09-07T12:35:18Z</time>
      </trkpt>
      <trkpt lat="45.99245" lon="1.42905">
        <ele>508.6</ele>
        <time>2012-09-07T12:35:20Z</time>
      </trkpt>
      <trkpt lat="45.99251" lon="1.42896">
        <ele>508.6</ele>
        <time>2012-09-07T12:35:24Z</time>
      </trkpt>
      <trkpt lat="45.99258" lon="1.42885">
        <ele>508.4</ele>
        <time>2012-09-07T12:35:29Z</time>
      </trkpt>
      <trkpt lat="45.99272" lon="1.42866">
        <ele>508.4</ele>
        <time>2012-09-07T12:35:38Z</time>
      </trkpt>
      <trkpt lat="45.99277" lon="1.42859">
        <ele>508.2</ele>
        <time>2012-09-07T12:35:42Z</time>
      </trkpt>
      <trkpt lat="45.9928" lon="1.42851">
        <ele>508.2</ele>
        <time>2012-09-07T12:35:45Z</time>
      </trkpt>
      <trkpt lat="45.99284" lon="1.42839">
        <ele>508</ele>
        <time>2012-09-07T12:35:50Z</time>
      </trkpt>
      <trkpt lat="45.99286" lon="1.42837">
        <ele>508.2</ele>
        <time>2012-09-07T12:35:51Z</time>
      </trkpt>
      <trkpt lat="45.9929" lon="1.42823">
        <ele>510.4</ele>
        <time>2012-09-07T12:35:56Z</time>
      </trkpt>
      <trkpt lat="45.99293" lon="1.42809">
        <ele>512.4</ele>
        <time>2012-09-07T12:36:01Z</time>
      </trkpt>
      <trkpt lat="45.99294" lon="1.42807">
        <ele>512.8</ele>
        <time>2012-09-07T12:36:02Z</time>
      </trkpt>
      <trkpt lat="45.99299" lon="1.42794">
        <ele>514.8</ele>
        <time>2012-09-07T12:36:07Z</time>
      </trkpt>
      <trkpt lat="45.99305" lon="1.42785">
        <ele>516.8</ele>
        <time>2012-09-07T12:36:12Z</time>
      </trkpt>
      <trkpt lat="45.99307" lon="1.42781">
        <ele>517.4</ele>
        <time>2012-09-07T12:36:14Z</time>
      </trkpt>
      <trkpt lat="45.99309" lon="1.42774">
        <ele>518</ele>
        <time>2012-09-07T12:36:17Z</time>
      </trkpt>
      <trkpt lat="45.99312" lon="1.42765">
        <ele>519.2</ele>
        <time>2012-09-07T12:36:23Z</time>
      </trkpt>
      <trkpt lat="45.99314" lon="1.42756">
        <ele>519.2</ele>
        <time>2012-09-07T12:36:28Z</time>
      </trkpt>
      <trkpt lat="45.99315" lon="1.42755">
        <ele>519.2</ele>
        <time>2012-09-07T12:36:29Z</time>
      </trkpt>
      <trkpt lat="45.9932" lon="1.42745">
        <ele>519</ele>
        <time>2012-09-07T12:36:35Z</time>
      </trkpt>
      <trkpt lat="45.99325" lon="1.42733">
        <ele>519</ele>
        <time>2012-09-07T12:36:42Z</time>
      </trkpt>
      <trkpt lat="45.99322" lon="1.42718">
        <ele>519</ele>
        <time>2012-09-07T12:36:48Z</time>
      </trkpt>
      <trkpt lat="45.99319" lon="1.4271">
        <ele>519.2</ele>
        <time>2012-09-07T12:36:50Z</time>
      </trkpt>
      <trkpt lat="45.99312" lon="1.42702">
        <ele>519.4</ele>
        <time>2012-09-07T12:36:53Z</time>
      </trkpt>
      <trkpt lat="45.993" lon="1.42701">
        <ele>520.2</ele>
        <time>2012-09-07T12:36:58Z</time>
      </trkpt>
      <trkpt lat="45.99285" lon="1.42697">
        <ele>520.6</ele>
        <time>2012-09-07T12:37:02Z</time>
      </trkpt>
      <trkpt lat="45.9927" lon="1.42695">
        <ele>520.6</ele>
        <time>2012-09-07T12:37:08Z</time>
      </trkpt>
      <trkpt lat="45.99259" lon="1.42694">
        <ele>520.4</ele>
        <time>2012-09-07T12:37:12Z</time>
      </trkpt>
      <trkpt lat="45.99252" lon="1.42702">
        <ele>520.4</ele>
        <time>2012-09-07T12:37:17Z</time>
      </trkpt>
      <trkpt lat="45.99244" lon="1.42706">
        <ele>520</ele>
        <time>2012-09-07T12:37:20Z</time>
      </trkpt>
      <trkpt lat="45.99237" lon="1.42709">
        <ele>519.6</ele>
        <time>2012-09-07T12:37:22Z</time>
      </trkpt>
      <trkpt lat="45.99219" lon="1.42723">
        <ele>518.8</ele>
        <time>2012-09-07T12:37:26Z</time>
      </trkpt>
      <trkpt lat="45.99208" lon="1.42731">
        <ele>518.2</ele>
        <time>2012-09-07T12:37:30Z</time>
      </trkpt>
      <trkpt lat="45.99199" lon="1.42736">
        <ele>517.6</ele>
        <time>2012-09-07T12:37:33Z</time>
      </trkpt>
      <trkpt lat="45.99194" lon="1.42736">
        <ele>517.2</ele>
        <time>2012-09-07T12:37:35Z</time>
      </trkpt>
      <trkpt lat="45.99192" lon="1.42728">
        <ele>516.6</ele>
        <time>2012-09-07T12:37:39Z</time>
      </trkpt>
      <trkpt lat="45.99192" lon="1.42721">
        <ele>515.4</ele>
        <time>2012-09-07T12:37:44Z</time>
      </trkpt>
      <trkpt lat="45.99194" lon="1.42716">
        <ele>515</ele>
        <time>2012-09-07T12:37:49Z</time>
      </trkpt>
      <trkpt lat="45.99192" lon="1.42714">
        <ele>513.2</ele>
        <time>2012-09-07T12:37:59Z</time>
      </trkpt>
      <trkpt lat="45.99193" lon="1.42712">
        <ele>512.8</ele>
        <time>2012-09-07T12:38:05Z</time>
      </trkpt>
      <trkpt lat="45.99194" lon="1.4271">
        <ele>512.6</ele>
        <time>2012-09-07T12:38:09Z</time>
      </trkpt>
      <trkpt lat="45.99195" lon="1.42703">
        <ele>512.2</ele>
        <time>2012-09-07T12:38:18Z</time>
      </trkpt>
      <trkpt lat="45.99194" lon="1.42691">
        <ele>512</ele>
        <time>2012-09-07T12:38:29Z</time>
      </trkpt>
      <trkpt lat="45.99196" lon="1.42689">
        <ele>512.2</ele>
        <time>2012-09-07T12:38:31Z</time>
      </trkpt>
      <trkpt lat="45.99199" lon="1.42688">
        <ele>512.6</ele>
        <time>2012-09-07T12:38:34Z</time>
      </trkpt>
      <trkpt lat="45.992" lon="1.42689">
        <ele>512.8</ele>
        <time>2012-09-07T12:38:35Z</time>
      </trkpt>
      <trkpt lat="45.9921" lon="1.42688">
        <ele>513.6</ele>
        <time>2012-09-07T12:38:42Z</time>
      </trkpt>
      <trkpt lat="45.99212" lon="1.42689">
        <ele>514</ele>
        <time>2012-09-07T12:38:43Z</time>
      </trkpt>
      <trkpt lat="45.99221" lon="1.42685">
        <ele>515.8</ele>
        <time>2012-09-07T12:38:50Z</time>
      </trkpt>
      <trkpt lat="45.99223" lon="1.42683">
        <ele>516.2</ele>
        <time>2012-09-07T12:38:52Z</time>
      </trkpt>
      <trkpt lat="45.99225" lon="1.42681">
        <ele>516.8</ele>
        <time>2012-09-07T12:38:54Z</time>
      </trkpt>
      <trkpt lat="45.99232" lon="1.42674">
        <ele>519.8</ele>
        <time>2012-09-07T12:39:00Z</time>
      </trkpt>
      <trkpt lat="45.99232" lon="1.42672">
        <ele>520.2</ele>
        <time>2012-09-07T12:39:01Z</time>
      </trkpt>
      <trkpt lat="45.99231" lon="1.42671">
        <ele>520.6</ele>
        <time>2012-09-07T12:39:02Z</time>
      </trkpt>
      <trkpt lat="45.9923" lon="1.42661">
        <ele>523</ele>
        <time>2012-09-07T12:39:07Z</time>
      </trkpt>
      <trkpt lat="45.99231" lon="1.42657">
        <ele>524.2</ele>
        <time>2012-09-07T12:39:09Z</time>
      </trkpt>
      <trkpt lat="45.99232" lon="1.42652">
        <ele>525</ele>
        <time>2012-09-07T12:39:12Z</time>
      </trkpt>
      <trkpt lat="45.99229" lon="1.42642">
        <ele>526</ele>
        <time>2012-09-07T12:39:17Z</time>
      </trkpt>
      <trkpt lat="45.99224" lon="1.42633">
        <ele>527.4</ele>
        <time>2012-09-07T12:39:22Z</time>
      </trkpt>
      <trkpt lat="45.99221" lon="1.4263">
        <ele>527.8</ele>
        <time>2012-09-07T12:39:25Z</time>
      </trkpt>
      <trkpt lat="45.99215" lon="1.4262">
        <ele>529</ele>
        <time>2012-09-07T12:39:37Z</time>
      </trkpt>
      <trkpt lat="45.99213" lon="1.4262">
        <ele>529</ele>
        <time>2012-09-07T12:39:39Z</time>
      </trkpt>
      <trkpt lat="45.99212" lon="1.42616">
        <ele>528.8</ele>
        <time>2012-09-07T12:39:43Z</time>
      </trkpt>
      <trkpt lat="45.99213" lon="1.42612">
        <ele>528.6</ele>
        <time>2012-09-07T12:39:46Z</time>
      </trkpt>
      <trkpt lat="45.99214" lon="1.42607">
        <ele>528.6</ele>
        <time>2012-09-07T12:39:50Z</time>
      </trkpt>
      <trkpt lat="45.99217" lon="1.42604">
        <ele>528.4</ele>
        <time>2012-09-07T12:39:55Z</time>
      </trkpt>
      <trkpt lat="45.9922" lon="1.42603">
        <ele>528.6</ele>
        <time>2012-09-07T12:39:58Z</time>
      </trkpt>
      <trkpt lat="45.99221" lon="1.426">
        <ele>529.2</ele>
        <time>2012-09-07T12:40:00Z</time>
      </trkpt>
      <trkpt lat="45.99222" lon="1.42597">
        <ele>529.6</ele>
        <time>2012-09-07T12:40:02Z</time>
      </trkpt>
      <trkpt lat="45.99223" lon="1.42596">
        <ele>530</ele>
        <time>2012-09-07T12:40:03Z</time>
      </trkpt>
      <trkpt lat="45.99225" lon="1.42588">
        <ele>530.4</ele>
        <time>2012-09-07T12:40:08Z</time>
      </trkpt>
      <trkpt lat="45.99226" lon="1.42581">
        <ele>531.2</ele>
        <time>2012-09-07T12:40:13Z</time>
      </trkpt>
      <trkpt lat="45.99228" lon="1.42578">
        <ele>531</ele>
        <time>2012-09-07T12:40:15Z</time>
      </trkpt>
      <trkpt lat="45.99231" lon="1.42575">
        <ele>531</ele>
        <time>2012-09-07T12:40:19Z</time>
      </trkpt>
      <trkpt lat="45.99238" lon="1.42571">
        <ele>531.4</ele>
        <time>2012-09-07T12:40:27Z</time>
      </trkpt>
      <trkpt lat="45.99243" lon="1.42563">
        <ele>531.2</ele>
        <time>2012-09-07T12:40:34Z</time>
      </trkpt>
      <trkpt lat="45.99246" lon="1.42558">
        <ele>531</ele>
        <time>2012-09-07T12:40:39Z</time>
      </trkpt>
      <trkpt lat="45.99247" lon="1.42557">
        <ele>531</ele>
        <time>2012-09-07T12:40:40Z</time>
      </trkpt>
      <trkpt lat="45.99249" lon="1.42553">
        <ele>531.4</ele>
        <time>2012-09-07T12:40:45Z</time>
      </trkpt>
      <trkpt lat="45.9925" lon="1.42551">
        <ele>532</ele>
        <time>2012-09-07T12:40:47Z</time>
      </trkpt>
      <trkpt lat="45.99254" lon="1.42549">
        <ele>533.4</ele>
        <time>2012-09-07T12:40:51Z</time>
      </trkpt>
      <trkpt lat="45.99256" lon="1.42547">
        <ele>535</ele>
        <time>2012-09-07T12:40:55Z</time>
      </trkpt>
      <trkpt lat="45.99259" lon="1.42545">
        <ele>536.4</ele>
        <time>2012-09-07T12:41:01Z</time>
      </trkpt>
      <trkpt lat="45.99262" lon="1.42545">
        <ele>536.8</ele>
        <time>2012-09-07T12:41:04Z</time>
      </trkpt>
      <trkpt lat="45.99266" lon="1.42544">
        <ele>538.4</ele>
        <time>2012-09-07T12:41:07Z</time>
      </trkpt>
      <trkpt lat="45.99269" lon="1.42541">
        <ele>539.4</ele>
        <time>2012-09-07T12:41:11Z</time>
      </trkpt>
      <trkpt lat="45.99269" lon="1.42539">
        <ele>540.4</ele>
        <time>2012-09-07T12:41:14Z</time>
      </trkpt>
      <trkpt lat="45.99272" lon="1.4253">
        <ele>542</ele>
        <time>2012-09-07T12:41:22Z</time>
      </trkpt>
      <trkpt lat="45.99273" lon="1.42523">
        <ele>541.8</ele>
        <time>2012-09-07T12:41:26Z</time>
      </trkpt>
      <trkpt lat="45.99273" lon="1.4252">
        <ele>541.6</ele>
        <time>2012-09-07T12:41:28Z</time>
      </trkpt>
      <trkpt lat="45.99274" lon="1.42512">
        <ele>541.6</ele>
        <time>2012-09-07T12:41:35Z</time>
      </trkpt>
      <trkpt lat="45.99275" lon="1.42512">
        <ele>541.4</ele>
        <time>2012-09-07T12:41:37Z</time>
      </trkpt>
      <trkpt lat="45.99277" lon="1.42509">
        <ele>541.4</ele>
        <time>2012-09-07T12:41:42Z</time>
      </trkpt>
      <trkpt lat="45.99279" lon="1.42501">
        <ele>541.2</ele>
        <time>2012-09-07T12:41:49Z</time>
      </trkpt>
      <trkpt lat="45.99283" lon="1.42497">
        <ele>541.8</ele>
        <time>2012-09-07T12:41:56Z</time>
      </trkpt>
      <trkpt lat="45.99286" lon="1.42497">
        <ele>542.6</ele>
        <time>2012-09-07T12:41:59Z</time>
      </trkpt>
      <trkpt lat="45.99288" lon="1.42496">
        <ele>543</ele>
        <time>2012-09-07T12:42:01Z</time>
      </trkpt>
      <trkpt lat="45.99289" lon="1.42494">
        <ele>543.6</ele>
        <time>2012-09-07T12:42:03Z</time>
      </trkpt>
      <trkpt lat="45.99289" lon="1.42488">
        <ele>545</ele>
        <time>2012-09-07T12:42:08Z</time>
      </trkpt>
      <trkpt lat="45.9929" lon="1.42487">
        <ele>545.2</ele>
        <time>2012-09-07T12:42:09Z</time>
      </trkpt>
      <trkpt lat="45.99289" lon="1.42486">
        <ele>545.4</ele>
        <time>2012-09-07T12:42:10Z</time>
      </trkpt>
      <trkpt lat="45.99292" lon="1.42477">
        <ele>546</ele>
        <time>2012-09-07T12:42:16Z</time>
      </trkpt>
      <trkpt lat="45.99296" lon="1.42468">
        <ele>546</ele>
        <time>2012-09-07T12:42:23Z</time>
      </trkpt>
      <trkpt lat="45.99296" lon="1.42467">
        <ele>546.4</ele>
        <time>2012-09-07T12:42:24Z</time>
      </trkpt>
      <trkpt lat="45.99299" lon="1.42461">
        <ele>547.4</ele>
        <time>2012-09-07T12:42:28Z</time>
      </trkpt>
      <trkpt lat="45.993" lon="1.42457">
        <ele>547.8</ele>
        <time>2012-09-07T12:42:31Z</time>
      </trkpt>
      <trkpt lat="45.993" lon="1.42455">
        <ele>548.2</ele>
        <time>2012-09-07T12:42:33Z</time>
      </trkpt>
      <trkpt lat="45.993" lon="1.42453">
        <ele>549</ele>
        <time>2012-09-07T12:42:36Z</time>
      </trkpt>
      <trkpt lat="45.99306" lon="1.42446">
        <ele>549.2</ele>
        <time>2012-09-07T12:42:42Z</time>
      </trkpt>
      <trkpt lat="45.99307" lon="1.42445">
        <ele>549</ele>
        <time>2012-09-07T12:42:43Z</time>
      </trkpt>
      <trkpt lat="45.99308" lon="1.42443">
        <ele>549.2</ele>
        <time>2012-09-07T12:42:45Z</time>
      </trkpt>
      <trkpt lat="45.9931" lon="1.42438">
        <ele>549.4</ele>
        <time>2012-09-07T12:42:48Z</time>
      </trkpt>
      <trkpt lat="45.99312" lon="1.42437">
        <ele>549.4</ele>
        <time>2012-09-07T12:42:50Z</time>
      </trkpt>
      <trkpt lat="45.99318" lon="1.42433">
        <ele>549.8</ele>
        <time>2012-09-07T12:42:56Z</time>
      </trkpt>
      <trkpt lat="45.99321" lon="1.42436">
        <ele>550.2</ele>
        <time>2012-09-07T12:43:03Z</time>
      </trkpt>
      <trkpt lat="45.99323" lon="1.42439">
        <ele>550</ele>
        <time>2012-09-07T12:43:10Z</time>
      </trkpt>
      <trkpt lat="45.99325" lon="1.42443">
        <ele>548.4</ele>
        <time>2012-09-07T12:43:55Z</time>
      </trkpt>
      <trkpt lat="45.99328" lon="1.42447">
        <ele>548.2</ele>
        <time>2012-09-07T12:43:59Z</time>
      </trkpt>
      <trkpt lat="45.99331" lon="1.42452">
        <ele>548.4</ele>
        <time>2012-09-07T12:44:02Z</time>
      </trkpt>
      <trkpt lat="45.99333" lon="1.42456">
        <ele>548.6</ele>
        <time>2012-09-07T12:44:05Z</time>
      </trkpt>
      <trkpt lat="45.99335" lon="1.42462">
        <ele>548.8</ele>
        <time>2012-09-07T12:44:09Z</time>
      </trkpt>
      <trkpt lat="45.99336" lon="1.42465">
        <ele>549.6</ele>
        <time>2012-09-07T12:44:15Z</time>
      </trkpt>
      <trkpt lat="45.9934" lon="1.42473">
        <ele>550</ele>
        <time>2012-09-07T12:44:20Z</time>
      </trkpt>
      <trkpt lat="45.99347" lon="1.4248">
        <ele>550.8</ele>
        <time>2012-09-07T12:44:26Z</time>
      </trkpt>
      <trkpt lat="45.99357" lon="1.42486">
        <ele>552.2</ele>
        <time>2012-09-07T12:44:32Z</time>
      </trkpt>
      <trkpt lat="45.99368" lon="1.4249">
        <ele>554</ele>
        <time>2012-09-07T12:44:39Z</time>
      </trkpt>
      <trkpt lat="45.99373" lon="1.42491">
        <ele>555</ele>
        <time>2012-09-07T12:44:42Z</time>
      </trkpt>
      <trkpt lat="45.99376" lon="1.42494">
        <ele>555.6</ele>
        <time>2012-09-07T12:44:44Z</time>
      </trkpt>
      <trkpt lat="45.99384" lon="1.42496">
        <ele>557.4</ele>
        <time>2012-09-07T12:44:49Z</time>
      </trkpt>
      <trkpt lat="45.99385" lon="1.42497">
        <ele>557.6</ele>
        <time>2012-09-07T12:44:50Z</time>
      </trkpt>
      <trkpt lat="45.99395" lon="1.425">
        <ele>560.4</ele>
        <time>2012-09-07T12:44:58Z</time>
      </trkpt>
      <trkpt lat="45.99401" lon="1.42503">
        <ele>562</ele>
        <time>2012-09-07T12:45:02Z</time>
      </trkpt>
      <trkpt lat="45.99404" lon="1.42504">
        <ele>563</ele>
        <time>2012-09-07T12:45:04Z</time>
      </trkpt>
      <trkpt lat="45.99406" lon="1.42503">
        <ele>564.2</ele>
        <time>2012-09-07T12:45:07Z</time>
      </trkpt>
      <trkpt lat="45.99408" lon="1.42501">
        <ele>564.6</ele>
        <time>2012-09-07T12:45:09Z</time>
      </trkpt>
      <trkpt lat="45.99409" lon="1.425">
        <ele>565</ele>
        <time>2012-09-07T12:45:10Z</time>
      </trkpt>
      <trkpt lat="45.99416" lon="1.42496">
        <ele>566.6</ele>
        <time>2012-09-07T12:45:15Z</time>
      </trkpt>
      <trkpt lat="45.99417" lon="1.42495">
        <ele>567</ele>
        <time>2012-09-07T12:45:16Z</time>
      </trkpt>
      <trkpt lat="45.9942" lon="1.42495">
        <ele>568</ele>
        <time>2012-09-07T12:45:18Z</time>
      </trkpt>
      <trkpt lat="45.99422" lon="1.42493">
        <ele>568.8</ele>
        <time>2012-09-07T12:45:21Z</time>
      </trkpt>
      <trkpt lat="45.99427" lon="1.42488">
        <ele>569.8</ele>
        <time>2012-09-07T12:45:26Z</time>
      </trkpt>
      <trkpt lat="45.99428" lon="1.42488">
        <ele>569.8</ele>
        <time>2012-09-07T12:45:27Z</time>
      </trkpt>
      <trkpt lat="45.99428" lon="1.42487">
        <ele>569.8</ele>
        <time>2012-09-07T12:45:28Z</time>
      </trkpt>
      <trkpt lat="45.99434" lon="1.42484">
        <ele>570</ele>
        <time>2012-09-07T12:45:34Z</time>
      </trkpt>
      <trkpt lat="45.99435" lon="1.42484">
        <ele>570.2</ele>
        <time>2012-09-07T12:45:35Z</time>
      </trkpt>
      <trkpt lat="45.99438" lon="1.42482">
        <ele>570.8</ele>
        <time>2012-09-07T12:45:39Z</time>
      </trkpt>
      <trkpt lat="45.99439" lon="1.42482">
        <ele>571</ele>
        <time>2012-09-07T12:45:40Z</time>
      </trkpt>
      <trkpt lat="45.99445" lon="1.42482">
        <ele>572.2</ele>
        <time>2012-09-07T12:45:47Z</time>
      </trkpt>
      <trkpt lat="45.99446" lon="1.42482">
        <ele>572.2</ele>
        <time>2012-09-07T12:45:48Z</time>
      </trkpt>
      <trkpt lat="45.99452" lon="1.42482">
        <ele>573.6</ele>
        <time>2012-09-07T12:45:55Z</time>
      </trkpt>
      <trkpt lat="45.99454" lon="1.42484">
        <ele>574.2</ele>
        <time>2012-09-07T12:45:58Z</time>
      </trkpt>
      <trkpt lat="45.99458" lon="1.42487">
        <ele>575.2</ele>
        <time>2012-09-07T12:46:03Z</time>
      </trkpt>
      <trkpt lat="45.99459" lon="1.42488">
        <ele>575.6</ele>
        <time>2012-09-07T12:46:05Z</time>
      </trkpt>
      <trkpt lat="45.99462" lon="1.4249">
        <ele>576.6</ele>
        <time>2012-09-07T12:46:09Z</time>
      </trkpt>
      <trkpt lat="45.99463" lon="1.4249">
        <ele>576.8</ele>
        <time>2012-09-07T12:46:10Z</time>
      </trkpt>
      <trkpt lat="45.99469" lon="1.42494">
        <ele>578</ele>
        <time>2012-09-07T12:46:16Z</time>
      </trkpt>
      <trkpt lat="45.99474" lon="1.42498">
        <ele>579.2</ele>
        <time>2012-09-07T12:46:22Z</time>
      </trkpt>
      <trkpt lat="45.99482" lon="1.42496">
        <ele>580.2</ele>
        <time>2012-09-07T12:46:29Z</time>
      </trkpt>
      <trkpt lat="45.99482" lon="1.42495">
        <ele>580.4</ele>
        <time>2012-09-07T12:46:30Z</time>
      </trkpt>
      <trkpt lat="45.99488" lon="1.42489">
        <ele>581.8</ele>
        <time>2012-09-07T12:46:34Z</time>
      </trkpt>
      <trkpt lat="45.9949" lon="1.42484">
        <ele>582.6</ele>
        <time>2012-09-07T12:46:37Z</time>
      </trkpt>
      <trkpt lat="45.99494" lon="1.42473">
        <ele>585.2</ele>
        <time>2012-09-07T12:46:44Z</time>
      </trkpt>
      <trkpt lat="45.99496" lon="1.42468">
        <ele>586</ele>
        <time>2012-09-07T12:46:47Z</time>
      </trkpt>
      <trkpt lat="45.99497" lon="1.42467">
        <ele>586.2</ele>
        <time>2012-09-07T12:46:48Z</time>
      </trkpt>
      <trkpt lat="45.99498" lon="1.42462">
        <ele>586.8</ele>
        <time>2012-09-07T12:46:51Z</time>
      </trkpt>
      <trkpt lat="45.99499" lon="1.42457">
        <ele>587.4</ele>
        <time>2012-09-07T12:46:54Z</time>
      </trkpt>
      <trkpt lat="45.99501" lon="1.42454">
        <ele>587.6</ele>
        <time>2012-09-07T12:46:56Z</time>
      </trkpt>
      <trkpt lat="45.99502" lon="1.42449">
        <ele>588</ele>
        <time>2012-09-07T12:47:00Z</time>
      </trkpt>
      <trkpt lat="45.99503" lon="1.42448">
        <ele>588.2</ele>
        <time>2012-09-07T12:47:02Z</time>
      </trkpt>
      <trkpt lat="45.99511" lon="1.42442">
        <ele>589.2</ele>
        <time>2012-09-07T12:47:10Z</time>
      </trkpt>
      <trkpt lat="45.99515" lon="1.42441">
        <ele>589.8</ele>
        <time>2012-09-07T12:47:15Z</time>
      </trkpt>
      <trkpt lat="45.99514" lon="1.42438">
        <ele>590.2</ele>
        <time>2012-09-07T12:47:22Z</time>
      </trkpt>
      <trkpt lat="45.99516" lon="1.42436">
        <ele>608.4</ele>
        <time>2012-09-07T12:48:42Z</time>
      </trkpt>
      <trkpt lat="45.99519" lon="1.42445">
        <ele>608</ele>
        <time>2012-09-07T12:48:47Z</time>
      </trkpt>
      <trkpt lat="45.99519" lon="1.42447">
        <ele>608</ele>
        <time>2012-09-07T12:48:49Z</time>
      </trkpt>
      <trkpt lat="45.9952" lon="1.4245">
        <ele>607.8</ele>
        <time>2012-09-07T12:48:51Z</time>
      </trkpt>
      <trkpt lat="45.99522" lon="1.42454">
        <ele>607.4</ele>
        <time>2012-09-07T12:48:54Z</time>
      </trkpt>
      <trkpt lat="45.99523" lon="1.42457">
        <ele>607.2</ele>
        <time>2012-09-07T12:48:56Z</time>
      </trkpt>
      <trkpt lat="45.99529" lon="1.42462">
        <ele>606.4</ele>
        <time>2012-09-07T12:49:03Z</time>
      </trkpt>
      <trkpt lat="45.99536" lon="1.42464">
        <ele>605.6</ele>
        <time>2012-09-07T12:49:12Z</time>
      </trkpt>
      <trkpt lat="45.99542" lon="1.42467">
        <ele>605</ele>
        <time>2012-09-07T12:49:20Z</time>
      </trkpt>
      <trkpt lat="45.99546" lon="1.42473">
        <ele>604.8</ele>
        <time>2012-09-07T12:49:27Z</time>
      </trkpt>
      <trkpt lat="45.99549" lon="1.42481">
        <ele>604.8</ele>
        <time>2012-09-07T12:49:33Z</time>
      </trkpt>
      <trkpt lat="45.9955" lon="1.42482">
        <ele>604.8</ele>
        <time>2012-09-07T12:49:34Z</time>
      </trkpt>
      <trkpt lat="45.99552" lon="1.42487">
        <ele>605</ele>
        <time>2012-09-07T12:49:38Z</time>
      </trkpt>
      <trkpt lat="45.99556" lon="1.42495">
        <ele>605.2</ele>
        <time>2012-09-07T12:49:45Z</time>
      </trkpt>
      <trkpt lat="45.99563" lon="1.42497">
        <ele>606</ele>
        <time>2012-09-07T12:49:50Z</time>
      </trkpt>
      <trkpt lat="45.99564" lon="1.42497">
        <ele>606</ele>
        <time>2012-09-07T12:49:51Z</time>
      </trkpt>
      <trkpt lat="45.99569" lon="1.42494">
        <ele>607</ele>
        <time>2012-09-07T12:49:57Z</time>
      </trkpt>
      <trkpt lat="45.99572" lon="1.42487">
        <ele>608</ele>
        <time>2012-09-07T12:50:03Z</time>
      </trkpt>
      <trkpt lat="45.99574" lon="1.4248">
        <ele>608.2</ele>
        <time>2012-09-07T12:50:09Z</time>
      </trkpt>
      <trkpt lat="45.99576" lon="1.42469">
        <ele>609.4</ele>
        <time>2012-09-07T12:50:18Z</time>
      </trkpt>
      <trkpt lat="45.99579" lon="1.42466">
        <ele>609.8</ele>
        <time>2012-09-07T12:50:21Z</time>
      </trkpt>
      <trkpt lat="45.9958" lon="1.42461">
        <ele>610</ele>
        <time>2012-09-07T12:50:23Z</time>
      </trkpt>
      <trkpt lat="45.99582" lon="1.42459">
        <ele>610</ele>
        <time>2012-09-07T12:50:25Z</time>
      </trkpt>
      <trkpt lat="45.99585" lon="1.42453">
        <ele>610.2</ele>
        <time>2012-09-07T12:50:29Z</time>
      </trkpt>
      <trkpt lat="45.99589" lon="1.4244">
        <ele>610.2</ele>
        <time>2012-09-07T12:50:36Z</time>
      </trkpt>
      <trkpt lat="45.9959" lon="1.42439">
        <ele>610.2</ele>
        <time>2012-09-07T12:50:37Z</time>
      </trkpt>
      <trkpt lat="45.99592" lon="1.4243">
        <ele>610</ele>
        <time>2012-09-07T12:50:41Z</time>
      </trkpt>
      <trkpt lat="45.99594" lon="1.42426">
        <ele>610</ele>
        <time>2012-09-07T12:50:43Z</time>
      </trkpt>
      <trkpt lat="45.99597" lon="1.42419">
        <ele>609.6</ele>
        <time>2012-09-07T12:50:47Z</time>
      </trkpt>
      <trkpt lat="45.99598" lon="1.42417">
        <ele>609.6</ele>
        <time>2012-09-07T12:50:48Z</time>
      </trkpt>
      <trkpt lat="45.99601" lon="1.42404">
        <ele>609.2</ele>
        <time>2012-09-07T12:50:54Z</time>
      </trkpt>
      <trkpt lat="45.99607" lon="1.42392">
        <ele>608.8</ele>
        <time>2012-09-07T12:51:01Z</time>
      </trkpt>
      <trkpt lat="45.99612" lon="1.42384">
        <ele>608.6</ele>
        <time>2012-09-07T12:51:07Z</time>
      </trkpt>
      <trkpt lat="45.99618" lon="1.42372">
        <ele>608.2</ele>
        <time>2012-09-07T12:51:15Z</time>
      </trkpt>
      <trkpt lat="45.99623" lon="1.42363">
        <ele>608.2</ele>
        <time>2012-09-07T12:51:19Z</time>
      </trkpt>
      <trkpt lat="45.99626" lon="1.42363">
        <ele>608.2</ele>
        <time>2012-09-07T12:51:21Z</time>
      </trkpt>
      <trkpt lat="45.99633" lon="1.4236">
        <ele>608.4</ele>
        <time>2012-09-07T12:51:27Z</time>
      </trkpt>
      <trkpt lat="45.99635" lon="1.42361">
        <ele>608.4</ele>
        <time>2012-09-07T12:51:28Z</time>
      </trkpt>
      <trkpt lat="45.99642" lon="1.42361">
        <ele>609</ele>
        <time>2012-09-07T12:51:34Z</time>
      </trkpt>
      <trkpt lat="45.99645" lon="1.4236">
        <ele>609.4</ele>
        <time>2012-09-07T12:51:37Z</time>
      </trkpt>
      <trkpt lat="45.99648" lon="1.4236">
        <ele>609.6</ele>
        <time>2012-09-07T12:51:39Z</time>
      </trkpt>
      <trkpt lat="45.99649" lon="1.42358">
        <ele>609.8</ele>
        <time>2012-09-07T12:51:41Z</time>
      </trkpt>
      <trkpt lat="45.99656" lon="1.42354">
        <ele>610.4</ele>
        <time>2012-09-07T12:51:47Z</time>
      </trkpt>
      <trkpt lat="45.99658" lon="1.42353">
        <ele>610.8</ele>
        <time>2012-09-07T12:51:48Z</time>
      </trkpt>
      <trkpt lat="45.99663" lon="1.42352">
        <ele>611.4</ele>
        <time>2012-09-07T12:51:52Z</time>
      </trkpt>
      <trkpt lat="45.99669" lon="1.42353">
        <ele>612.4</ele>
        <time>2012-09-07T12:51:56Z</time>
      </trkpt>
      <trkpt lat="45.99674" lon="1.42354">
        <ele>613.2</ele>
        <time>2012-09-07T12:52:00Z</time>
      </trkpt>
      <trkpt lat="45.99683" lon="1.42355">
        <ele>615.4</ele>
        <time>2012-09-07T12:52:06Z</time>
      </trkpt>
      <trkpt lat="45.99684" lon="1.42356">
        <ele>615.8</ele>
        <time>2012-09-07T12:52:07Z</time>
      </trkpt>
      <trkpt lat="45.99695" lon="1.42362">
        <ele>618.4</ele>
        <time>2012-09-07T12:52:14Z</time>
      </trkpt>
      <trkpt lat="45.99696" lon="1.42363">
        <ele>619</ele>
        <time>2012-09-07T12:52:15Z</time>
      </trkpt>
      <trkpt lat="45.99705" lon="1.42368">
        <ele>621.8</ele>
        <time>2012-09-07T12:52:22Z</time>
      </trkpt>
      <trkpt lat="45.9971" lon="1.42369">
        <ele>623</ele>
        <time>2012-09-07T12:52:25Z</time>
      </trkpt>
      <trkpt lat="45.99715" lon="1.42372">
        <ele>624</ele>
        <time>2012-09-07T12:52:28Z</time>
      </trkpt>
      <trkpt lat="45.99717" lon="1.42373">
        <ele>624.4</ele>
        <time>2012-09-07T12:52:29Z</time>
      </trkpt>
      <trkpt lat="45.99725" lon="1.42379">
        <ele>625.4</ele>
        <time>2012-09-07T12:52:33Z</time>
      </trkpt>
      <trkpt lat="45.99726" lon="1.4238">
        <ele>626.2</ele>
        <time>2012-09-07T12:52:37Z</time>
      </trkpt>
      <trkpt lat="45.99728" lon="1.42376">
        <ele>622.8</ele>
        <time>2012-09-07T12:53:39Z</time>
      </trkpt>
      <trkpt lat="45.99732" lon="1.42381">
        <ele>622.6</ele>
        <time>2012-09-07T12:53:41Z</time>
      </trkpt>
      <trkpt lat="45.99741" lon="1.4239">
        <ele>622.4</ele>
        <time>2012-09-07T12:53:45Z</time>
      </trkpt>
      <trkpt lat="45.99745" lon="1.42397">
        <ele>622.4</ele>
        <time>2012-09-07T12:53:47Z</time>
      </trkpt>
      <trkpt lat="45.99748" lon="1.42417">
        <ele>622.6</ele>
        <time>2012-09-07T12:53:53Z</time>
      </trkpt>
      <trkpt lat="45.9975" lon="1.42434">
        <ele>623</ele>
        <time>2012-09-07T12:53:58Z</time>
      </trkpt>
      <trkpt lat="45.99753" lon="1.42454">
        <ele>624</ele>
        <time>2012-09-07T12:54:04Z</time>
      </trkpt>
      <trkpt lat="45.9975" lon="1.42473">
        <ele>625</ele>
        <time>2012-09-07T12:54:09Z</time>
      </trkpt>
      <trkpt lat="45.99755" lon="1.42493">
        <ele>626.4</ele>
        <time>2012-09-07T12:54:15Z</time>
      </trkpt>
      <trkpt lat="45.99757" lon="1.42514">
        <ele>627.8</ele>
        <time>2012-09-07T12:54:21Z</time>
      </trkpt>
      <trkpt lat="45.99756" lon="1.42516">
        <ele>628</ele>
        <time>2012-09-07T12:54:22Z</time>
      </trkpt>
      <trkpt lat="45.9975" lon="1.42535">
        <ele>629.8</ele>
        <time>2012-09-07T12:54:28Z</time>
      </trkpt>
      <trkpt lat="45.99743" lon="1.42548">
        <ele>631.4</ele>
        <time>2012-09-07T12:54:34Z</time>
      </trkpt>
      <trkpt lat="45.99736" lon="1.42557">
        <ele>632.6</ele>
        <time>2012-09-07T12:54:39Z</time>
      </trkpt>
      <trkpt lat="45.99736" lon="1.42557">
        <ele>632.8</ele>
        <time>2012-09-07T12:54:40Z</time>
      </trkpt>
      <trkpt lat="45.99728" lon="1.4256">
        <ele>633.2</ele>
        <time>2012-09-07T12:54:44Z</time>
      </trkpt>
      <trkpt lat="45.99724" lon="1.42562">
        <ele>633.6</ele>
        <time>2012-09-07T12:54:46Z</time>
      </trkpt>
      <trkpt lat="45.99722" lon="1.42564">
        <ele>633.6</ele>
        <time>2012-09-07T12:54:47Z</time>
      </trkpt>
      <trkpt lat="45.99719" lon="1.42568">
        <ele>633.8</ele>
        <time>2012-09-07T12:54:49Z</time>
      </trkpt>
      <trkpt lat="45.9971" lon="1.42577">
        <ele>634.2</ele>
        <time>2012-09-07T12:54:54Z</time>
      </trkpt>
      <trkpt lat="45.99708" lon="1.42581">
        <ele>634</ele>
        <time>2012-09-07T12:54:55Z</time>
      </trkpt>
      <trkpt lat="45.997" lon="1.42595">
        <ele>634.4</ele>
        <time>2012-09-07T12:55:00Z</time>
      </trkpt>
      <trkpt lat="45.99695" lon="1.4261">
        <ele>634.4</ele>
        <time>2012-09-07T12:55:04Z</time>
      </trkpt>
      <trkpt lat="45.99696" lon="1.42615">
        <ele>634.4</ele>
        <time>2012-09-07T12:55:05Z</time>
      </trkpt>
      <trkpt lat="45.99694" lon="1.42633">
        <ele>634.4</ele>
        <time>2012-09-07T12:55:09Z</time>
      </trkpt>
      <trkpt lat="45.99694" lon="1.42637">
        <ele>634.4</ele>
        <time>2012-09-07T12:55:10Z</time>
      </trkpt>
      <trkpt lat="45.99693" lon="1.42645">
        <ele>634.2</ele>
        <time>2012-09-07T12:55:13Z</time>
      </trkpt>
      <trkpt lat="45.99692" lon="1.42647">
        <ele>634.2</ele>
        <time>2012-09-07T12:55:14Z</time>
      </trkpt>
      <trkpt lat="45.99694" lon="1.42655">
        <ele>634</ele>
        <time>2012-09-07T12:55:17Z</time>
      </trkpt>
      <trkpt lat="45.99695" lon="1.42657">
        <ele>634</ele>
        <time>2012-09-07T12:55:18Z</time>
      </trkpt>
      <trkpt lat="45.99696" lon="1.42659">
        <ele>633.8</ele>
        <time>2012-09-07T12:55:19Z</time>
      </trkpt>
      <trkpt lat="45.99704" lon="1.42669">
        <ele>633.6</ele>
        <time>2012-09-07T12:55:26Z</time>
      </trkpt>
      <trkpt lat="45.99716" lon="1.4268">
        <ele>633.4</ele>
        <time>2012-09-07T12:55:30Z</time>
      </trkpt>
      <trkpt lat="45.99724" lon="1.42689">
        <ele>633.2</ele>
        <time>2012-09-07T12:55:34Z</time>
      </trkpt>
      <trkpt lat="45.99731" lon="1.42701">
        <ele>632.8</ele>
        <time>2012-09-07T12:55:38Z</time>
      </trkpt>
      <trkpt lat="45.99737" lon="1.42711">
        <ele>632.2</ele>
        <time>2012-09-07T12:55:41Z</time>
      </trkpt>
      <trkpt lat="45.99739" lon="1.42713">
        <ele>632.2</ele>
        <time>2012-09-07T12:55:42Z</time>
      </trkpt>
      <trkpt lat="45.99748" lon="1.42721">
        <ele>631.8</ele>
        <time>2012-09-07T12:55:45Z</time>
      </trkpt>
      <trkpt lat="45.99752" lon="1.42726">
        <ele>631.6</ele>
        <time>2012-09-07T12:55:46Z</time>
      </trkpt>
      <trkpt lat="45.99765" lon="1.4274">
        <ele>631.2</ele>
        <time>2012-09-07T12:55:50Z</time>
      </trkpt>
      <trkpt lat="45.9978" lon="1.42754">
        <ele>630.4</ele>
        <time>2012-09-07T12:55:55Z</time>
      </trkpt>
      <trkpt lat="45.99799" lon="1.42767">
        <ele>629.4</ele>
        <time>2012-09-07T12:56:00Z</time>
      </trkpt>
      <trkpt lat="45.99809" lon="1.42769">
        <ele>628.6</ele>
        <time>2012-09-07T12:56:04Z</time>
      </trkpt>
      <trkpt lat="45.99816" lon="1.42769">
        <ele>627.6</ele>
        <time>2012-09-07T12:56:07Z</time>
      </trkpt>
      <trkpt lat="45.99821" lon="1.42769">
        <ele>627</ele>
        <time>2012-09-07T12:56:09Z</time>
      </trkpt>
      <trkpt lat="45.99829" lon="1.42771">
        <ele>626.4</ele>
        <time>2012-09-07T12:56:11Z</time>
      </trkpt>
      <trkpt lat="45.99837" lon="1.42777">
        <ele>626</ele>
        <time>2012-09-07T12:56:13Z</time>
      </trkpt>
      <trkpt lat="45.99844" lon="1.42785">
        <ele>624.8</ele>
        <time>2012-09-07T12:56:16Z</time>
      </trkpt>
      <trkpt lat="45.99844" lon="1.42787">
        <ele>624.6</ele>
        <time>2012-09-07T12:56:17Z</time>
      </trkpt>
      <trkpt lat="45.99854" lon="1.42801">
        <ele>623.2</ele>
        <time>2012-09-07T12:56:21Z</time>
      </trkpt>
      <trkpt lat="45.99856" lon="1.4281">
        <ele>622.4</ele>
        <time>2012-09-07T12:56:23Z</time>
      </trkpt>
      <trkpt lat="45.99857" lon="1.42817">
        <ele>621.8</ele>
        <time>2012-09-07T12:56:25Z</time>
      </trkpt>
      <trkpt lat="45.99863" lon="1.42832">
        <ele>620.4</ele>
        <time>2012-09-07T12:56:29Z</time>
      </trkpt>
      <trkpt lat="45.99862" lon="1.42836">
        <ele>620.2</ele>
        <time>2012-09-07T12:56:30Z</time>
      </trkpt>
      <trkpt lat="45.99863" lon="1.42851">
        <ele>619.2</ele>
        <time>2012-09-07T12:56:33Z</time>
      </trkpt>
      <trkpt lat="45.99857" lon="1.42868">
        <ele>617.8</ele>
        <time>2012-09-07T12:56:37Z</time>
      </trkpt>
      <trkpt lat="45.99857" lon="1.42875">
        <ele>616.8</ele>
        <time>2012-09-07T12:56:40Z</time>
      </trkpt>
      <trkpt lat="45.99855" lon="1.42887">
        <ele>615</ele>
        <time>2012-09-07T12:56:45Z</time>
      </trkpt>
      <trkpt lat="45.99855" lon="1.4289">
        <ele>614.6</ele>
        <time>2012-09-07T12:56:46Z</time>
      </trkpt>
      <trkpt lat="45.99855" lon="1.429">
        <ele>613</ele>
        <time>2012-09-07T12:56:50Z</time>
      </trkpt>
      <trkpt lat="45.99852" lon="1.4291">
        <ele>611</ele>
        <time>2012-09-07T12:56:55Z</time>
      </trkpt>
      <trkpt lat="45.99852" lon="1.42912">
        <ele>610.6</ele>
        <time>2012-09-07T12:56:56Z</time>
      </trkpt>
      <trkpt lat="45.99852" lon="1.42926">
        <ele>609</ele>
        <time>2012-09-07T12:57:00Z</time>
      </trkpt>
      <trkpt lat="45.99854" lon="1.42932">
        <ele>607.8</ele>
        <time>2012-09-07T12:57:03Z</time>
      </trkpt>
      <trkpt lat="45.99854" lon="1.42934">
        <ele>607.4</ele>
        <time>2012-09-07T12:57:04Z</time>
      </trkpt>
      <trkpt lat="45.99854" lon="1.42936">
        <ele>607.2</ele>
        <time>2012-09-07T12:57:05Z</time>
      </trkpt>
      <trkpt lat="45.99852" lon="1.4295">
        <ele>604.6</ele>
        <time>2012-09-07T12:57:13Z</time>
      </trkpt>
      <trkpt lat="45.99852" lon="1.42952">
        <ele>604.2</ele>
        <time>2012-09-07T12:57:14Z</time>
      </trkpt>
      <trkpt lat="45.99852" lon="1.4296">
        <ele>603.2</ele>
        <time>2012-09-07T12:57:18Z</time>
      </trkpt>
      <trkpt lat="45.99851" lon="1.42963">
        <ele>602.6</ele>
        <time>2012-09-07T12:57:20Z</time>
      </trkpt>
      <trkpt lat="45.99852" lon="1.42968">
        <ele>601.8</ele>
        <time>2012-09-07T12:57:23Z</time>
      </trkpt>
      <trkpt lat="45.99851" lon="1.42974">
        <ele>600.6</ele>
        <time>2012-09-07T12:57:27Z</time>
      </trkpt>
      <trkpt lat="45.99851" lon="1.42981">
        <ele>599.2</ele>
        <time>2012-09-07T12:57:32Z</time>
      </trkpt>
      <trkpt lat="45.99851" lon="1.42983">
        <ele>598.4</ele>
        <time>2012-09-07T12:57:34Z</time>
      </trkpt>
      <trkpt lat="45.99851" lon="1.42986">
        <ele>598</ele>
        <time>2012-09-07T12:57:36Z</time>
      </trkpt>
      <trkpt lat="45.99851" lon="1.42991">
        <ele>597</ele>
        <time>2012-09-07T12:57:39Z</time>
      </trkpt>
      <trkpt lat="45.99855" lon="1.43003">
        <ele>594.8</ele>
        <time>2012-09-07T12:57:46Z</time>
      </trkpt>
      <trkpt lat="45.99855" lon="1.43007">
        <ele>593.8</ele>
        <time>2012-09-07T12:57:49Z</time>
      </trkpt>
      <trkpt lat="45.99855" lon="1.4301">
        <ele>593.2</ele>
        <time>2012-09-07T12:57:51Z</time>
      </trkpt>
      <trkpt lat="45.99855" lon="1.43014">
        <ele>592.6</ele>
        <time>2012-09-07T12:57:53Z</time>
      </trkpt>
      <trkpt lat="45.99854" lon="1.43017">
        <ele>591.6</ele>
        <time>2012-09-07T12:57:56Z</time>
      </trkpt>
      <trkpt lat="45.9985" lon="1.43024">
        <ele>590</ele>
        <time>2012-09-07T12:58:01Z</time>
      </trkpt>
      <trkpt lat="45.99849" lon="1.43025">
        <ele>589.8</ele>
        <time>2012-09-07T12:58:02Z</time>
      </trkpt>
      <trkpt lat="45.99848" lon="1.43027">
        <ele>589.2</ele>
        <time>2012-09-07T12:58:04Z</time>
      </trkpt>
      <trkpt lat="45.99849" lon="1.43033">
        <ele>588</ele>
        <time>2012-09-07T12:58:08Z</time>
      </trkpt>
      <trkpt lat="45.99849" lon="1.43035">
        <ele>587.8</ele>
        <time>2012-09-07T12:58:09Z</time>
      </trkpt>
      <trkpt lat="45.99846" lon="1.43042">
        <ele>586.2</ele>
        <time>2012-09-07T12:58:15Z</time>
      </trkpt>
      <trkpt lat="45.99846" lon="1.43044">
        <ele>585.6</ele>
        <time>2012-09-07T12:58:17Z</time>
      </trkpt>
      <trkpt lat="45.99848" lon="1.43055">
        <ele>584.4</ele>
        <time>2012-09-07T12:58:21Z</time>
      </trkpt>
      <trkpt lat="45.99848" lon="1.43067">
        <ele>583</ele>
        <time>2012-09-07T12:58:25Z</time>
      </trkpt>
      <trkpt lat="45.99848" lon="1.43077">
        <ele>581.8</ele>
        <time>2012-09-07T12:58:28Z</time>
      </trkpt>
      <trkpt lat="45.99848" lon="1.43085">
        <ele>581</ele>
        <time>2012-09-07T12:58:30Z</time>
      </trkpt>
      <trkpt lat="45.99844" lon="1.43101">
        <ele>579</ele>
        <time>2012-09-07T12:58:35Z</time>
      </trkpt>
      <trkpt lat="45.99844" lon="1.4311">
        <ele>577.2</ele>
        <time>2012-09-07T12:58:39Z</time>
      </trkpt>
      <trkpt lat="45.99857" lon="1.43119">
        <ele>552.8</ele>
        <time>2012-09-07T12:59:47Z</time>
      </trkpt>
      <trkpt lat="45.99859" lon="1.4312">
        <ele>552.6</ele>
        <time>2012-09-07T12:59:48Z</time>
      </trkpt>
      <trkpt lat="45.99878" lon="1.43125">
        <ele>551.4</ele>
        <time>2012-09-07T12:59:53Z</time>
      </trkpt>
      <trkpt lat="45.99895" lon="1.43129">
        <ele>550.4</ele>
        <time>2012-09-07T12:59:58Z</time>
      </trkpt>
      <trkpt lat="45.99907" lon="1.43139">
        <ele>549.6</ele>
        <time>2012-09-07T13:00:02Z</time>
      </trkpt>
      <trkpt lat="45.99926" lon="1.43153">
        <ele>548.6</ele>
        <time>2012-09-07T13:00:07Z</time>
      </trkpt>
      <trkpt lat="45.99932" lon="1.43155">
        <ele>548.2</ele>
        <time>2012-09-07T13:00:09Z</time>
      </trkpt>
      <trkpt lat="45.99934" lon="1.43153">
        <ele>548</ele>
        <time>2012-09-07T13:00:10Z</time>
      </trkpt>
      <trkpt lat="45.99935" lon="1.43151">
        <ele>547.2</ele>
        <time>2012-09-07T13:00:13Z</time>
      </trkpt>
      <trkpt lat="45.99939" lon="1.43151">
        <ele>546.2</ele>
        <time>2012-09-07T13:00:18Z</time>
      </trkpt>
      <trkpt lat="45.9994" lon="1.43151">
        <ele>544.8</ele>
        <time>2012-09-07T13:00:23Z</time>
      </trkpt>
      <trkpt lat="45.99941" lon="1.4315">
        <ele>544.6</ele>
        <time>2012-09-07T13:00:24Z</time>
      </trkpt>
      <trkpt lat="45.99947" lon="1.43148">
        <ele>543.4</ele>
        <time>2012-09-07T13:00:29Z</time>
      </trkpt>
      <trkpt lat="45.99954" lon="1.43144">
        <ele>542</ele>
        <time>2012-09-07T13:00:35Z</time>
      </trkpt>
      <trkpt lat="45.99955" lon="1.43145">
        <ele>541.8</ele>
        <time>2012-09-07T13:00:36Z</time>
      </trkpt>
      <trkpt lat="45.99957" lon="1.43143">
        <ele>541.2</ele>
        <time>2012-09-07T13:00:39Z</time>
      </trkpt>
      <trkpt lat="45.99958" lon="1.43142">
        <ele>541</ele>
        <time>2012-09-07T13:00:41Z</time>
      </trkpt>
      <trkpt lat="45.99959" lon="1.4314">
        <ele>540.6</ele>
        <time>2012-09-07T13:00:43Z</time>
      </trkpt>
      <trkpt lat="45.9996" lon="1.43138">
        <ele>540.2</ele>
        <time>2012-09-07T13:00:45Z</time>
      </trkpt>
      <trkpt lat="45.99962" lon="1.43137">
        <ele>539.8</ele>
        <time>2012-09-07T13:00:47Z</time>
      </trkpt>
      <trkpt lat="45.99965" lon="1.43135">
        <ele>539</ele>
        <time>2012-09-07T13:00:52Z</time>
      </trkpt>
      <trkpt lat="45.99966" lon="1.43134">
        <ele>538.6</ele>
        <time>2012-09-07T13:00:55Z</time>
      </trkpt>
      <trkpt lat="45.99973" lon="1.43127">
        <ele>537.2</ele>
        <time>2012-09-07T13:01:06Z</time>
      </trkpt>
      <trkpt lat="45.99975" lon="1.43112">
        <ele>535.6</ele>
        <time>2012-09-07T13:01:24Z</time>
      </trkpt>
      <trkpt lat="45.99974" lon="1.43111">
        <ele>535.6</ele>
        <time>2012-09-07T13:01:25Z</time>
      </trkpt>
      <trkpt lat="45.99969" lon="1.43107">
        <ele>535.4</ele>
        <time>2012-09-07T13:01:30Z</time>
      </trkpt>
      <trkpt lat="45.99971" lon="1.43097">
        <ele>533.2</ele>
        <time>2012-09-07T13:01:53Z</time>
      </trkpt>
      <trkpt lat="45.99967" lon="1.43096">
        <ele>532.6</ele>
        <time>2012-09-07T13:02:01Z</time>
      </trkpt>
      <trkpt lat="45.99963" lon="1.43092">
        <ele>532.2</ele>
        <time>2012-09-07T13:02:09Z</time>
      </trkpt>
      <trkpt lat="45.99961" lon="1.43087">
        <ele>532.2</ele>
        <time>2012-09-07T13:02:14Z</time>
      </trkpt>
      <trkpt lat="45.9996" lon="1.43084">
        <ele>532.2</ele>
        <time>2012-09-07T13:02:17Z</time>
      </trkpt>
      <trkpt lat="45.99957" lon="1.4308">
        <ele>532.6</ele>
        <time>2012-09-07T13:02:26Z</time>
      </trkpt>
      <trkpt lat="45.99953" lon="1.43077">
        <ele>532.8</ele>
        <time>2012-09-07T13:02:33Z</time>
      </trkpt>
      <trkpt lat="45.99957" lon="1.43074">
        <ele>533.2</ele>
        <time>2012-09-07T13:02:46Z</time>
      </trkpt>
      <trkpt lat="45.99959" lon="1.43076">
        <ele>533.4</ele>
        <time>2012-09-07T13:02:50Z</time>
      </trkpt>
      <trkpt lat="45.99964" lon="1.43073">
        <ele>533.8</ele>
        <time>2012-09-07T13:02:56Z</time>
      </trkpt>
      <trkpt lat="45.99969" lon="1.43072">
        <ele>534.4</ele>
        <time>2012-09-07T13:02:59Z</time>
      </trkpt>
      <trkpt lat="45.99971" lon="1.43071">
        <ele>534.8</ele>
        <time>2012-09-07T13:03:02Z</time>
      </trkpt>
      <trkpt lat="45.99973" lon="1.43072">
        <ele>535.8</ele>
        <time>2012-09-07T13:03:08Z</time>
      </trkpt>
      <trkpt lat="45.99976" lon="1.43069">
        <ele>536.2</ele>
        <time>2012-09-07T13:03:16Z</time>
      </trkpt>
      <trkpt lat="45.99977" lon="1.43068">
        <ele>536.2</ele>
        <time>2012-09-07T13:03:17Z</time>
      </trkpt>
      <trkpt lat="45.99982" lon="1.43064">
        <ele>536.2</ele>
        <time>2012-09-07T13:03:22Z</time>
      </trkpt>
      <trkpt lat="45.9999" lon="1.43058">
        <ele>536</ele>
        <time>2012-09-07T13:03:26Z</time>
      </trkpt>
      <trkpt lat="45.99992" lon="1.43057">
        <ele>536</ele>
        <time>2012-09-07T13:03:27Z</time>
      </trkpt>
      <trkpt lat="45.99994" lon="1.43058">
        <ele>536</ele>
        <time>2012-09-07T13:03:28Z</time>
      </trkpt>
      <trkpt lat="45.99998" lon="1.4306">
        <ele>535.8</ele>
        <time>2012-09-07T13:03:30Z</time>
      </trkpt>
      <trkpt lat="46.00005" lon="1.43063">
        <ele>535.4</ele>
        <time>2012-09-07T13:03:34Z</time>
      </trkpt>
      <trkpt lat="46.00013" lon="1.43063">
        <ele>535.2</ele>
        <time>2012-09-07T13:03:38Z</time>
      </trkpt>
      <trkpt lat="46.00022" lon="1.43067">
        <ele>534.8</ele>
        <time>2012-09-07T13:03:41Z</time>
      </trkpt>
      <trkpt lat="46.00027" lon="1.43069">
        <ele>534.6</ele>
        <time>2012-09-07T13:03:43Z</time>
      </trkpt>
      <trkpt lat="46.00029" lon="1.43072">
        <ele>534.6</ele>
        <time>2012-09-07T13:03:44Z</time>
      </trkpt>
      <trkpt lat="46.00034" lon="1.43078">
        <ele>534.4</ele>
        <time>2012-09-07T13:03:47Z</time>
      </trkpt>
      <trkpt lat="46.00045" lon="1.43089">
        <ele>534</ele>
        <time>2012-09-07T13:03:52Z</time>
      </trkpt>
      <trkpt lat="46.00058" lon="1.43102">
        <ele>533.8</ele>
        <time>2012-09-07T13:03:57Z</time>
      </trkpt>
      <trkpt lat="46.00068" lon="1.43112">
        <ele>533.8</ele>
        <time>2012-09-07T13:04:02Z</time>
      </trkpt>
      <trkpt lat="46.00075" lon="1.43121">
        <ele>533.6</ele>
        <time>2012-09-07T13:04:06Z</time>
      </trkpt>
      <trkpt lat="46.00076" lon="1.43121">
        <ele>533.6</ele>
        <time>2012-09-07T13:04:07Z</time>
      </trkpt>
      <trkpt lat="46.00079" lon="1.43123">
        <ele>533.6</ele>
        <time>2012-09-07T13:04:10Z</time>
      </trkpt>
      <trkpt lat="46.0008" lon="1.43122">
        <ele>533.6</ele>
        <time>2012-09-07T13:04:11Z</time>
      </trkpt>
      <trkpt lat="46.00082" lon="1.43121">
        <ele>533.6</ele>
        <time>2012-09-07T13:04:12Z</time>
      </trkpt>
      <trkpt lat="46.00088" lon="1.4312">
        <ele>533.6</ele>
        <time>2012-09-07T13:04:16Z</time>
      </trkpt>
      <trkpt lat="46.00089" lon="1.43119">
        <ele>533.6</ele>
        <time>2012-09-07T13:04:17Z</time>
      </trkpt>
      <trkpt lat="46.00091" lon="1.43117">
        <ele>533.6</ele>
        <time>2012-09-07T13:04:18Z</time>
      </trkpt>
      <trkpt lat="46.00096" lon="1.4311">
        <ele>534</ele>
        <time>2012-09-07T13:04:23Z</time>
      </trkpt>
      <trkpt lat="46.00099" lon="1.43109">
        <ele>534.2</ele>
        <time>2012-09-07T13:04:25Z</time>
      </trkpt>
      <trkpt lat="46.00107" lon="1.43104">
        <ele>534.6</ele>
        <time>2012-09-07T13:04:29Z</time>
      </trkpt>
      <trkpt lat="46.00113" lon="1.43093">
        <ele>535.4</ele>
        <time>2012-09-07T13:04:34Z</time>
      </trkpt>
      <trkpt lat="46.00121" lon="1.43085">
        <ele>536</ele>
        <time>2012-09-07T13:04:39Z</time>
      </trkpt>
      <trkpt lat="46.00128" lon="1.43072">
        <ele>537</ele>
        <time>2012-09-07T13:04:47Z</time>
      </trkpt>
      <trkpt lat="46.00132" lon="1.43061">
        <ele>537.8</ele>
        <time>2012-09-07T13:04:53Z</time>
      </trkpt>
      <trkpt lat="46.00133" lon="1.4306">
        <ele>537.8</ele>
        <time>2012-09-07T13:04:54Z</time>
      </trkpt>
      <trkpt lat="46.00139" lon="1.43047">
        <ele>538.4</ele>
        <time>2012-09-07T13:05:03Z</time>
      </trkpt>
      <trkpt lat="46.00145" lon="1.43035">
        <ele>539</ele>
        <time>2012-09-07T13:05:11Z</time>
      </trkpt>
      <trkpt lat="46.00151" lon="1.43023">
        <ele>539</ele>
        <time>2012-09-07T13:05:19Z</time>
      </trkpt>
      <trkpt lat="46.00159" lon="1.43012">
        <ele>539.4</ele>
        <time>2012-09-07T13:05:27Z</time>
      </trkpt>
      <trkpt lat="46.00166" lon="1.43004">
        <ele>540.2</ele>
        <time>2012-09-07T13:05:34Z</time>
      </trkpt>
      <trkpt lat="46.00172" lon="1.42993">
        <ele>541.4</ele>
        <time>2012-09-07T13:05:42Z</time>
      </trkpt>
      <trkpt lat="46.00174" lon="1.42989">
        <ele>541.8</ele>
        <time>2012-09-07T13:05:45Z</time>
      </trkpt>
      <trkpt lat="46.00178" lon="1.42983">
        <ele>542.6</ele>
        <time>2012-09-07T13:05:49Z</time>
      </trkpt>
      <trkpt lat="46.00178" lon="1.42981">
        <ele>542.6</ele>
        <time>2012-09-07T13:05:50Z</time>
      </trkpt>
      <trkpt lat="46.0018" lon="1.42975">
        <ele>543</ele>
        <time>2012-09-07T13:05:54Z</time>
      </trkpt>
      <trkpt lat="46.00182" lon="1.42974">
        <ele>543.2</ele>
        <time>2012-09-07T13:05:55Z</time>
      </trkpt>
      <trkpt lat="46.00184" lon="1.42967">
        <ele>543.6</ele>
        <time>2012-09-07T13:05:59Z</time>
      </trkpt>
      <trkpt lat="46.00184" lon="1.42959">
        <ele>544.8</ele>
        <time>2012-09-07T13:06:05Z</time>
      </trkpt>
      <trkpt lat="46.00184" lon="1.42948">
        <ele>546.2</ele>
        <time>2012-09-07T13:06:11Z</time>
      </trkpt>
      <trkpt lat="46.0018" lon="1.42941">
        <ele>547.2</ele>
        <time>2012-09-07T13:06:15Z</time>
      </trkpt>
      <trkpt lat="46.00179" lon="1.4294">
        <ele>547.4</ele>
        <time>2012-09-07T13:06:16Z</time>
      </trkpt>
      <trkpt lat="46.00173" lon="1.42934">
        <ele>549</ele>
        <time>2012-09-07T13:06:20Z</time>
      </trkpt>
      <trkpt lat="46.00173" lon="1.42932">
        <ele>549.6</ele>
        <time>2012-09-07T13:06:22Z</time>
      </trkpt>
      <trkpt lat="46.00171" lon="1.42929">
        <ele>550.2</ele>
        <time>2012-09-07T13:06:24Z</time>
      </trkpt>
      <trkpt lat="46.00168" lon="1.42923">
        <ele>550.6</ele>
        <time>2012-09-07T13:06:28Z</time>
      </trkpt>
      <trkpt lat="46.00165" lon="1.42916">
        <ele>551.4</ele>
        <time>2012-09-07T13:06:33Z</time>
      </trkpt>
      <trkpt lat="46.00156" lon="1.42904">
        <ele>552.2</ele>
        <time>2012-09-07T13:06:40Z</time>
      </trkpt>
      <trkpt lat="46.00153" lon="1.429">
        <ele>552.4</ele>
        <time>2012-09-07T13:06:43Z</time>
      </trkpt>
      <trkpt lat="46.00151" lon="1.42896">
        <ele>552.6</ele>
        <time>2012-09-07T13:06:46Z</time>
      </trkpt>
      <trkpt lat="46.00143" lon="1.4289">
        <ele>553.2</ele>
        <time>2012-09-07T13:06:52Z</time>
      </trkpt>
      <trkpt lat="46.00137" lon="1.42886">
        <ele>553.8</ele>
        <time>2012-09-07T13:06:58Z</time>
      </trkpt>
      <trkpt lat="46.00136" lon="1.42885">
        <ele>554</ele>
        <time>2012-09-07T13:06:59Z</time>
      </trkpt>
      <trkpt lat="46.0013" lon="1.42881">
        <ele>554.6</ele>
        <time>2012-09-07T13:07:03Z</time>
      </trkpt>
      <trkpt lat="46.00126" lon="1.42878">
        <ele>554.8</ele>
        <time>2012-09-07T13:07:06Z</time>
      </trkpt>
      <trkpt lat="46.00122" lon="1.42875">
        <ele>555.2</ele>
        <time>2012-09-07T13:07:09Z</time>
      </trkpt>
      <trkpt lat="46.0012" lon="1.42873">
        <ele>555.4</ele>
        <time>2012-09-07T13:07:12Z</time>
      </trkpt>
      <trkpt lat="46.00119" lon="1.42868">
        <ele>555.6</ele>
        <time>2012-09-07T13:07:15Z</time>
      </trkpt>
      <trkpt lat="46.00114" lon="1.42859">
        <ele>556.2</ele>
        <time>2012-09-07T13:07:21Z</time>
      </trkpt>
      <trkpt lat="46.00113" lon="1.42857">
        <ele>556.2</ele>
        <time>2012-09-07T13:07:22Z</time>
      </trkpt>
      <trkpt lat="46.00104" lon="1.42852">
        <ele>557.4</ele>
        <time>2012-09-07T13:07:29Z</time>
      </trkpt>
      <trkpt lat="46.00092" lon="1.42847">
        <ele>558.6</ele>
        <time>2012-09-07T13:07:37Z</time>
      </trkpt>
      <trkpt lat="46.00083" lon="1.42846">
        <ele>560</ele>
        <time>2012-09-07T13:07:43Z</time>
      </trkpt>
      <trkpt lat="46.00074" lon="1.42842">
        <ele>561.2</ele>
        <time>2012-09-07T13:07:49Z</time>
      </trkpt>
      <trkpt lat="46.00064" lon="1.42842">
        <ele>562</ele>
        <time>2012-09-07T13:07:56Z</time>
      </trkpt>
      <trkpt lat="46.00056" lon="1.42839">
        <ele>563</ele>
        <time>2012-09-07T13:08:01Z</time>
      </trkpt>
      <trkpt lat="46.00054" lon="1.42837">
        <ele>563.4</ele>
        <time>2012-09-07T13:08:04Z</time>
      </trkpt>
      <trkpt lat="46.00051" lon="1.42835">
        <ele>564.2</ele>
        <time>2012-09-07T13:08:07Z</time>
      </trkpt>
      <trkpt lat="46.0005" lon="1.42834">
        <ele>564.2</ele>
        <time>2012-09-07T13:08:08Z</time>
      </trkpt>
      <trkpt lat="46.00046" lon="1.42833">
        <ele>565</ele>
        <time>2012-09-07T13:08:12Z</time>
      </trkpt>
      <trkpt lat="46.00036" lon="1.42834">
        <ele>566.6</ele>
        <time>2012-09-07T13:08:18Z</time>
      </trkpt>
      <trkpt lat="46.00033" lon="1.42834">
        <ele>567.2</ele>
        <time>2012-09-07T13:08:20Z</time>
      </trkpt>
      <trkpt lat="46.00029" lon="1.42831">
        <ele>568.4</ele>
        <time>2012-09-07T13:08:24Z</time>
      </trkpt>
      <trkpt lat="46.00027" lon="1.42831">
        <ele>568.8</ele>
        <time>2012-09-07T13:08:25Z</time>
      </trkpt>
      <trkpt lat="46.0002" lon="1.4283">
        <ele>569.8</ele>
        <time>2012-09-07T13:08:29Z</time>
      </trkpt>
      <trkpt lat="46.00016" lon="1.42831">
        <ele>570.2</ele>
        <time>2012-09-07T13:08:31Z</time>
      </trkpt>
      <trkpt lat="46.00008" lon="1.4283">
        <ele>572</ele>
        <time>2012-09-07T13:08:39Z</time>
      </trkpt>
      <trkpt lat="45.99997" lon="1.42827">
        <ele>573.8</ele>
        <time>2012-09-07T13:08:48Z</time>
      </trkpt>
      <trkpt lat="45.99987" lon="1.42829">
        <ele>575</ele>
        <time>2012-09-07T13:08:55Z</time>
      </trkpt>
      <trkpt lat="45.99977" lon="1.42833">
        <ele>576.2</ele>
        <time>2012-09-07T13:09:02Z</time>
      </trkpt>
      <trkpt lat="45.9997" lon="1.42841">
        <ele>577.6</ele>
        <time>2012-09-07T13:09:08Z</time>
      </trkpt>
      <trkpt lat="45.99969" lon="1.42841">
        <ele>579</ele>
        <time>2012-09-07T13:09:15Z</time>
      </trkpt>
      <trkpt lat="45.99965" lon="1.4284">
        <ele>584.8</ele>
        <time>2012-09-07T13:10:09Z</time>
      </trkpt>
      <trkpt lat="45.99959" lon="1.42841">
        <ele>586</ele>
        <time>2012-09-07T13:10:17Z</time>
      </trkpt>
      <trkpt lat="45.99956" lon="1.42842">
        <ele>586.8</ele>
        <time>2012-09-07T13:10:24Z</time>
      </trkpt>
      <trkpt lat="45.99949" lon="1.42843">
        <ele>587.2</ele>
        <time>2012-09-07T13:10:30Z</time>
      </trkpt>
      <trkpt lat="45.99948" lon="1.42843">
        <ele>587.4</ele>
        <time>2012-09-07T13:10:31Z</time>
      </trkpt>
      <trkpt lat="45.99944" lon="1.42844">
        <ele>587.4</ele>
        <time>2012-09-07T13:10:34Z</time>
      </trkpt>
      <trkpt lat="45.99938" lon="1.42844">
        <ele>587.6</ele>
        <time>2012-09-07T13:10:38Z</time>
      </trkpt>
      <trkpt lat="45.99934" lon="1.42843">
        <ele>587.4</ele>
        <time>2012-09-07T13:10:42Z</time>
      </trkpt>
      <trkpt lat="45.99931" lon="1.42842">
        <ele>587.4</ele>
        <time>2012-09-07T13:10:44Z</time>
      </trkpt>
      <trkpt lat="45.99927" lon="1.42841">
        <ele>587.4</ele>
        <time>2012-09-07T13:10:48Z</time>
      </trkpt>
      <trkpt lat="45.99923" lon="1.42837">
        <ele>587.4</ele>
        <time>2012-09-07T13:10:52Z</time>
      </trkpt>
      <trkpt lat="45.99922" lon="1.42831">
        <ele>587.6</ele>
        <time>2012-09-07T13:10:58Z</time>
      </trkpt>
      <trkpt lat="45.9992" lon="1.42826">
        <ele>588.6</ele>
        <time>2012-09-07T13:11:08Z</time>
      </trkpt>
      <trkpt lat="45.99916" lon="1.42818">
        <ele>589</ele>
        <time>2012-09-07T13:11:15Z</time>
      </trkpt>
      <trkpt lat="45.99915" lon="1.42815">
        <ele>589</ele>
        <time>2012-09-07T13:11:18Z</time>
      </trkpt>
      <trkpt lat="45.99914" lon="1.42813">
        <ele>589</ele>
        <time>2012-09-07T13:11:21Z</time>
      </trkpt>
      <trkpt lat="45.99914" lon="1.42805">
        <ele>590.2</ele>
        <time>2012-09-07T13:11:31Z</time>
      </trkpt>
      <trkpt lat="45.99913" lon="1.42799">
        <ele>590.8</ele>
        <time>2012-09-07T13:11:36Z</time>
      </trkpt>
      <trkpt lat="45.99913" lon="1.42797">
        <ele>591.2</ele>
        <time>2012-09-07T13:11:38Z</time>
      </trkpt>
      <trkpt lat="45.99913" lon="1.42795">
        <ele>591.6</ele>
        <time>2012-09-07T13:11:40Z</time>
      </trkpt>
      <trkpt lat="45.99914" lon="1.42793">
        <ele>591.8</ele>
        <time>2012-09-07T13:11:43Z</time>
      </trkpt>
      <trkpt lat="45.99914" lon="1.42792">
        <ele>592</ele>
        <time>2012-09-07T13:11:44Z</time>
      </trkpt>
      <trkpt lat="45.99913" lon="1.42788">
        <ele>592.4</ele>
        <time>2012-09-07T13:11:49Z</time>
      </trkpt>
      <trkpt lat="45.99912" lon="1.42781">
        <ele>595</ele>
        <time>2012-09-07T13:12:00Z</time>
      </trkpt>
      <trkpt lat="45.9991" lon="1.42772">
        <ele>595.8</ele>
        <time>2012-09-07T13:12:05Z</time>
      </trkpt>
      <trkpt lat="45.99908" lon="1.42768">
        <ele>596.4</ele>
        <time>2012-09-07T13:12:08Z</time>
      </trkpt>
      <trkpt lat="45.99908" lon="1.42767">
        <ele>596.6</ele>
        <time>2012-09-07T13:12:09Z</time>
      </trkpt>
      <trkpt lat="45.99905" lon="1.42761">
        <ele>597</ele>
        <time>2012-09-07T13:12:13Z</time>
      </trkpt>
      <trkpt lat="45.99905" lon="1.42756">
        <ele>597.4</ele>
        <time>2012-09-07T13:12:16Z</time>
      </trkpt>
      <trkpt lat="45.99904" lon="1.4275">
        <ele>598.2</ele>
        <time>2012-09-07T13:12:21Z</time>
      </trkpt>
      <trkpt lat="45.99904" lon="1.42748">
        <ele>598.4</ele>
        <time>2012-09-07T13:12:22Z</time>
      </trkpt>
      <trkpt lat="45.99905" lon="1.42738">
        <ele>599.2</ele>
        <time>2012-09-07T13:12:29Z</time>
      </trkpt>
      <trkpt lat="45.99907" lon="1.4273">
        <ele>600.2</ele>
        <time>2012-09-07T13:12:35Z</time>
      </trkpt>
      <trkpt lat="45.99907" lon="1.42723">
        <ele>601.4</ele>
        <time>2012-09-07T13:12:40Z</time>
      </trkpt>
      <trkpt lat="45.99905" lon="1.42712">
        <ele>603</ele>
        <time>2012-09-07T13:12:46Z</time>
      </trkpt>
      <trkpt lat="45.99905" lon="1.42699">
        <ele>604.2</ele>
        <time>2012-09-07T13:12:52Z</time>
      </trkpt>
      <trkpt lat="45.99905" lon="1.42687">
        <ele>604.8</ele>
        <time>2012-09-07T13:12:59Z</time>
      </trkpt>
      <trkpt lat="45.99905" lon="1.42684">
        <ele>605.2</ele>
        <time>2012-09-07T13:13:01Z</time>
      </trkpt>
      <trkpt lat="45.99905" lon="1.42674">
        <ele>605.4</ele>
        <time>2012-09-07T13:13:05Z</time>
      </trkpt>
      <trkpt lat="45.99906" lon="1.42672">
        <ele>605.4</ele>
        <time>2012-09-07T13:13:06Z</time>
      </trkpt>
      <trkpt lat="45.99909" lon="1.4266">
        <ele>606.2</ele>
        <time>2012-09-07T13:13:13Z</time>
      </trkpt>
      <trkpt lat="45.99913" lon="1.42649">
        <ele>607</ele>
        <time>2012-09-07T13:13:20Z</time>
      </trkpt>
      <trkpt lat="45.99914" lon="1.42645">
        <ele>607</ele>
        <time>2012-09-07T13:13:22Z</time>
      </trkpt>
      <trkpt lat="45.99918" lon="1.42639">
        <ele>607.4</ele>
        <time>2012-09-07T13:13:26Z</time>
      </trkpt>
      <trkpt lat="45.99917" lon="1.42631">
        <ele>607.8</ele>
        <time>2012-09-07T13:13:30Z</time>
      </trkpt>
      <trkpt lat="45.99916" lon="1.42628">
        <ele>608</ele>
        <time>2012-09-07T13:13:32Z</time>
      </trkpt>
      <trkpt lat="45.99914" lon="1.42616">
        <ele>608.6</ele>
        <time>2012-09-07T13:13:38Z</time>
      </trkpt>
      <trkpt lat="45.99911" lon="1.42606">
        <ele>609.4</ele>
        <time>2012-09-07T13:13:44Z</time>
      </trkpt>
      <trkpt lat="45.99911" lon="1.42592">
        <ele>609.8</ele>
        <time>2012-09-07T13:13:52Z</time>
      </trkpt>
      <trkpt lat="45.99911" lon="1.42583">
        <ele>610.2</ele>
        <time>2012-09-07T13:13:57Z</time>
      </trkpt>
      <trkpt lat="45.99911" lon="1.42579">
        <ele>610.6</ele>
        <time>2012-09-07T13:13:59Z</time>
      </trkpt>
      <trkpt lat="45.9991" lon="1.42573">
        <ele>611.4</ele>
        <time>2012-09-07T13:14:03Z</time>
      </trkpt>
      <trkpt lat="45.99912" lon="1.42559">
        <ele>612.8</ele>
        <time>2012-09-07T13:14:11Z</time>
      </trkpt>
      <trkpt lat="45.99914" lon="1.42554">
        <ele>613.2</ele>
        <time>2012-09-07T13:14:15Z</time>
      </trkpt>
      <trkpt lat="45.99915" lon="1.42549">
        <ele>613.6</ele>
        <time>2012-09-07T13:14:18Z</time>
      </trkpt>
      <trkpt lat="45.99916" lon="1.42546">
        <ele>614</ele>
        <time>2012-09-07T13:14:20Z</time>
      </trkpt>
      <trkpt lat="45.99917" lon="1.42544">
        <ele>615</ele>
        <time>2012-09-07T13:14:24Z</time>
      </trkpt>
      <trkpt lat="45.99921" lon="1.4254">
        <ele>616.4</ele>
        <time>2012-09-07T13:14:31Z</time>
      </trkpt>
      <trkpt lat="45.99924" lon="1.42535">
        <ele>618</ele>
        <time>2012-09-07T13:14:40Z</time>
      </trkpt>
      <trkpt lat="45.99925" lon="1.42533">
        <ele>624.6</ele>
        <time>2012-09-07T13:15:16Z</time>
      </trkpt>
      <trkpt lat="45.99933" lon="1.42533">
        <ele>624.4</ele>
        <time>2012-09-07T13:15:41Z</time>
      </trkpt>
      <trkpt lat="45.9993" lon="1.42532">
        <ele>618.8</ele>
        <time>2012-09-07T13:17:41Z</time>
      </trkpt>
      <trkpt lat="45.99931" lon="1.42533">
        <ele>618.8</ele>
        <time>2012-09-07T13:17:42Z</time>
      </trkpt>
      <trkpt lat="45.99932" lon="1.42535">
        <ele>618.8</ele>
        <time>2012-09-07T13:17:43Z</time>
      </trkpt>
      <trkpt lat="45.99944" lon="1.42542">
        <ele>618.8</ele>
        <time>2012-09-07T13:17:48Z</time>
      </trkpt>
      <trkpt lat="45.99964" lon="1.42552">
        <ele>619.6</ele>
        <time>2012-09-07T13:17:54Z</time>
      </trkpt>
      <trkpt lat="45.99981" lon="1.42555">
        <ele>620.2</ele>
        <time>2012-09-07T13:17:58Z</time>
      </trkpt>
      <trkpt lat="46.00002" lon="1.42554">
        <ele>620.6</ele>
        <time>2012-09-07T13:18:02Z</time>
      </trkpt>
      <trkpt lat="46.00009" lon="1.42554">
        <ele>620.6</ele>
        <time>2012-09-07T13:18:03Z</time>
      </trkpt>
      <trkpt lat="46.0003" lon="1.42556">
        <ele>620.6</ele>
        <time>2012-09-07T13:18:06Z</time>
      </trkpt>
      <trkpt lat="46.00037" lon="1.42555">
        <ele>620.6</ele>
        <time>2012-09-07T13:18:07Z</time>
      </trkpt>
      <trkpt lat="46.00062" lon="1.42556">
        <ele>620.4</ele>
        <time>2012-09-07T13:18:10Z</time>
      </trkpt>
      <trkpt lat="46.00076" lon="1.42555">
        <ele>620.4</ele>
        <time>2012-09-07T13:18:12Z</time>
      </trkpt>
      <trkpt lat="46.00083" lon="1.42552">
        <ele>620.2</ele>
        <time>2012-09-07T13:18:13Z</time>
      </trkpt>
      <trkpt lat="46.00104" lon="1.42546">
        <ele>620</ele>
        <time>2012-09-07T13:18:16Z</time>
      </trkpt>
      <trkpt lat="46.0011" lon="1.42544">
        <ele>620</ele>
        <time>2012-09-07T13:18:17Z</time>
      </trkpt>
      <trkpt lat="46.0013" lon="1.42536">
        <ele>619.6</ele>
        <time>2012-09-07T13:18:21Z</time>
      </trkpt>
      <trkpt lat="46.00139" lon="1.42532">
        <ele>619.4</ele>
        <time>2012-09-07T13:18:23Z</time>
      </trkpt>
      <trkpt lat="46.00145" lon="1.42527">
        <ele>619</ele>
        <time>2012-09-07T13:18:25Z</time>
      </trkpt>
      <trkpt lat="46.00152" lon="1.42517">
        <ele>618.6</ele>
        <time>2012-09-07T13:18:28Z</time>
      </trkpt>
      <trkpt lat="46.00154" lon="1.42513">
        <ele>618.6</ele>
        <time>2012-09-07T13:18:29Z</time>
      </trkpt>
      <trkpt lat="46.00155" lon="1.4251">
        <ele>618.4</ele>
        <time>2012-09-07T13:18:30Z</time>
      </trkpt>
      <trkpt lat="46.00167" lon="1.4249">
        <ele>617.8</ele>
        <time>2012-09-07T13:18:35Z</time>
      </trkpt>
      <trkpt lat="46.00175" lon="1.42464">
        <ele>617.2</ele>
        <time>2012-09-07T13:18:41Z</time>
      </trkpt>
      <trkpt lat="46.0018" lon="1.42446">
        <ele>616.4</ele>
        <time>2012-09-07T13:18:46Z</time>
      </trkpt>
      <trkpt lat="46.00182" lon="1.42442">
        <ele>616.2</ele>
        <time>2012-09-07T13:18:47Z</time>
      </trkpt>
      <trkpt lat="46.00186" lon="1.42423">
        <ele>615.6</ele>
        <time>2012-09-07T13:18:50Z</time>
      </trkpt>
      <trkpt lat="46.00193" lon="1.42398">
        <ele>614.8</ele>
        <time>2012-09-07T13:18:54Z</time>
      </trkpt>
      <trkpt lat="46.00195" lon="1.42391">
        <ele>614.6</ele>
        <time>2012-09-07T13:18:55Z</time>
      </trkpt>
      <trkpt lat="46.00201" lon="1.42366">
        <ele>613.6</ele>
        <time>2012-09-07T13:18:59Z</time>
      </trkpt>
      <trkpt lat="46.002" lon="1.42357">
        <ele>613</ele>
        <time>2012-09-07T13:19:01Z</time>
      </trkpt>
      <trkpt lat="46.00199" lon="1.42348">
        <ele>612.4</ele>
        <time>2012-09-07T13:19:03Z</time>
      </trkpt>
      <trkpt lat="46.00201" lon="1.42336">
        <ele>611.2</ele>
        <time>2012-09-07T13:19:06Z</time>
      </trkpt>
      <trkpt lat="46.00201" lon="1.42328">
        <ele>609.8</ele>
        <time>2012-09-07T13:19:10Z</time>
      </trkpt>
      <trkpt lat="46.002" lon="1.42327">
        <ele>609.4</ele>
        <time>2012-09-07T13:19:11Z</time>
      </trkpt>
      <trkpt lat="46.00196" lon="1.42316">
        <ele>607.6</ele>
        <time>2012-09-07T13:19:16Z</time>
      </trkpt>
      <trkpt lat="46.00193" lon="1.42311">
        <ele>606.2</ele>
        <time>2012-09-07T13:19:20Z</time>
      </trkpt>
      <trkpt lat="46.00192" lon="1.4231">
        <ele>605.8</ele>
        <time>2012-09-07T13:19:21Z</time>
      </trkpt>
      <trkpt lat="46.00187" lon="1.42304">
        <ele>604.4</ele>
        <time>2012-09-07T13:19:26Z</time>
      </trkpt>
      <trkpt lat="46.00186" lon="1.42303">
        <ele>604.2</ele>
        <time>2012-09-07T13:19:27Z</time>
      </trkpt>
      <trkpt lat="46.00181" lon="1.42297">
        <ele>603</ele>
        <time>2012-09-07T13:19:31Z</time>
      </trkpt>
      <trkpt lat="46.00178" lon="1.42292">
        <ele>602.2</ele>
        <time>2012-09-07T13:19:34Z</time>
      </trkpt>
      <trkpt lat="46.00173" lon="1.42286">
        <ele>601.4</ele>
        <time>2012-09-07T13:19:37Z</time>
      </trkpt>
      <trkpt lat="46.00172" lon="1.42285">
        <ele>601.2</ele>
        <time>2012-09-07T13:19:38Z</time>
      </trkpt>
      <trkpt lat="46.00168" lon="1.4228">
        <ele>600.4</ele>
        <time>2012-09-07T13:19:41Z</time>
      </trkpt>
      <trkpt lat="46.00166" lon="1.42278">
        <ele>600.2</ele>
        <time>2012-09-07T13:19:42Z</time>
      </trkpt>
      <trkpt lat="46.00163" lon="1.42274">
        <ele>599.6</ele>
        <time>2012-09-07T13:19:44Z</time>
      </trkpt>
      <trkpt lat="46.00155" lon="1.42267">
        <ele>599</ele>
        <time>2012-09-07T13:19:47Z</time>
      </trkpt>
      <trkpt lat="46.00148" lon="1.42259">
        <ele>598.4</ele>
        <time>2012-09-07T13:19:51Z</time>
      </trkpt>
      <trkpt lat="46.00139" lon="1.42251">
        <ele>598</ele>
        <time>2012-09-07T13:19:57Z</time>
      </trkpt>
      <trkpt lat="46.00132" lon="1.42244">
        <ele>597.8</ele>
        <time>2012-09-07T13:20:01Z</time>
      </trkpt>
      <trkpt lat="46.00128" lon="1.42241">
        <ele>598.2</ele>
        <time>2012-09-07T13:20:04Z</time>
      </trkpt>
      <trkpt lat="46.00119" lon="1.42241">
        <ele>598.8</ele>
        <time>2012-09-07T13:20:09Z</time>
      </trkpt>
      <trkpt lat="46.00107" lon="1.42243">
        <ele>600.4</ele>
        <time>2012-09-07T13:20:15Z</time>
      </trkpt>
      <trkpt lat="46.00097" lon="1.42242">
        <ele>602.2</ele>
        <time>2012-09-07T13:20:20Z</time>
      </trkpt>
      <trkpt lat="46.0009" lon="1.42239">
        <ele>603.4</ele>
        <time>2012-09-07T13:20:24Z</time>
      </trkpt>
      <trkpt lat="46.00089" lon="1.42238">
        <ele>603.6</ele>
        <time>2012-09-07T13:20:25Z</time>
      </trkpt>
      <trkpt lat="46.00081" lon="1.4223">
        <ele>605.6</ele>
        <time>2012-09-07T13:20:32Z</time>
      </trkpt>
      <trkpt lat="46.00079" lon="1.42228">
        <ele>606.2</ele>
        <time>2012-09-07T13:20:34Z</time>
      </trkpt>
      <trkpt lat="46.00075" lon="1.42227">
        <ele>607</ele>
        <time>2012-09-07T13:20:37Z</time>
      </trkpt>
      <trkpt lat="46.00068" lon="1.42224">
        <ele>608.4</ele>
        <time>2012-09-07T13:20:43Z</time>
      </trkpt>
      <trkpt lat="46.00058" lon="1.42219">
        <ele>609.4</ele>
        <time>2012-09-07T13:20:49Z</time>
      </trkpt>
      <trkpt lat="46.00056" lon="1.42218">
        <ele>609.6</ele>
        <time>2012-09-07T13:20:50Z</time>
      </trkpt>
      <trkpt lat="46.00049" lon="1.42213">
        <ele>610.6</ele>
        <time>2012-09-07T13:20:55Z</time>
      </trkpt>
      <trkpt lat="46.00038" lon="1.42207">
        <ele>611.4</ele>
        <time>2012-09-07T13:21:01Z</time>
      </trkpt>
      <trkpt lat="46.00035" lon="1.42203">
        <ele>611.8</ele>
        <time>2012-09-07T13:21:04Z</time>
      </trkpt>
      <trkpt lat="46.00031" lon="1.42198">
        <ele>612.4</ele>
        <time>2012-09-07T13:21:07Z</time>
      </trkpt>
      <trkpt lat="46.00029" lon="1.42197">
        <ele>612.4</ele>
        <time>2012-09-07T13:21:08Z</time>
      </trkpt>
      <trkpt lat="46.00017" lon="1.42187">
        <ele>613.4</ele>
        <time>2012-09-07T13:21:14Z</time>
      </trkpt>
      <trkpt lat="46.00005" lon="1.42179">
        <ele>614.2</ele>
        <time>2012-09-07T13:21:21Z</time>
      </trkpt>
      <trkpt lat="45.99996" lon="1.42172">
        <ele>615</ele>
        <time>2012-09-07T13:21:27Z</time>
      </trkpt>
      <trkpt lat="45.99987" lon="1.42164">
        <ele>615.6</ele>
        <time>2012-09-07T13:21:32Z</time>
      </trkpt>
      <trkpt lat="45.99979" lon="1.42153">
        <ele>615.6</ele>
        <time>2012-09-07T13:21:38Z</time>
      </trkpt>
      <trkpt lat="45.99968" lon="1.42146">
        <ele>616</ele>
        <time>2012-09-07T13:21:44Z</time>
      </trkpt>
      <trkpt lat="45.99961" lon="1.42145">
        <ele>616</ele>
        <time>2012-09-07T13:21:47Z</time>
      </trkpt>
      <trkpt lat="45.99957" lon="1.42144">
        <ele>616.2</ele>
        <time>2012-09-07T13:21:49Z</time>
      </trkpt>
      <trkpt lat="45.99954" lon="1.42142">
        <ele>616.4</ele>
        <time>2012-09-07T13:21:51Z</time>
      </trkpt>
      <trkpt lat="45.99945" lon="1.42139">
        <ele>616.8</ele>
        <time>2012-09-07T13:21:55Z</time>
      </trkpt>
      <trkpt lat="45.99932" lon="1.42136">
        <ele>617.8</ele>
        <time>2012-09-07T13:22:01Z</time>
      </trkpt>
      <trkpt lat="45.99916" lon="1.42133">
        <ele>618.4</ele>
        <time>2012-09-07T13:22:07Z</time>
      </trkpt>
      <trkpt lat="45.999" lon="1.42128">
        <ele>619.4</ele>
        <time>2012-09-07T13:22:13Z</time>
      </trkpt>
      <trkpt lat="45.99888" lon="1.42123">
        <ele>620.4</ele>
        <time>2012-09-07T13:22:19Z</time>
      </trkpt>
      <trkpt lat="45.9988" lon="1.42116">
        <ele>621.6</ele>
        <time>2012-09-07T13:22:24Z</time>
      </trkpt>
      <trkpt lat="45.99877" lon="1.42106">
        <ele>623.8</ele>
        <time>2012-09-07T13:22:30Z</time>
      </trkpt>
      <trkpt lat="45.99876" lon="1.42099">
        <ele>625.2</ele>
        <time>2012-09-07T13:22:33Z</time>
      </trkpt>
      <trkpt lat="45.99875" lon="1.42095">
        <ele>625.8</ele>
        <time>2012-09-07T13:22:35Z</time>
      </trkpt>
      <trkpt lat="45.99873" lon="1.42085">
        <ele>627.2</ele>
        <time>2012-09-07T13:22:39Z</time>
      </trkpt>
      <trkpt lat="45.99871" lon="1.42079">
        <ele>627.8</ele>
        <time>2012-09-07T13:22:41Z</time>
      </trkpt>
      <trkpt lat="45.99869" lon="1.42066">
        <ele>628.6</ele>
        <time>2012-09-07T13:22:47Z</time>
      </trkpt>
      <trkpt lat="45.99867" lon="1.42054">
        <ele>629.2</ele>
        <time>2012-09-07T13:22:54Z</time>
      </trkpt>
      <trkpt lat="45.99861" lon="1.42038">
        <ele>629</ele>
        <time>2012-09-07T13:22:59Z</time>
      </trkpt>
      <trkpt lat="45.99849" lon="1.42014">
        <ele>628.8</ele>
        <time>2012-09-07T13:23:05Z</time>
      </trkpt>
      <trkpt lat="45.99843" lon="1.41988">
        <ele>628.6</ele>
        <time>2012-09-07T13:23:11Z</time>
      </trkpt>
      <trkpt lat="45.99841" lon="1.41962">
        <ele>628.4</ele>
        <time>2012-09-07T13:23:16Z</time>
      </trkpt>
      <trkpt lat="45.99841" lon="1.41956">
        <ele>628.2</ele>
        <time>2012-09-07T13:23:17Z</time>
      </trkpt>
      <trkpt lat="45.99841" lon="1.41931">
        <ele>628</ele>
        <time>2012-09-07T13:23:22Z</time>
      </trkpt>
      <trkpt lat="45.99833" lon="1.41912">
        <ele>627.8</ele>
        <time>2012-09-07T13:23:26Z</time>
      </trkpt>
      <trkpt lat="45.99829" lon="1.41885">
        <ele>627.6</ele>
        <time>2012-09-07T13:23:30Z</time>
      </trkpt>
      <trkpt lat="45.9983" lon="1.41863">
        <ele>627.4</ele>
        <time>2012-09-07T13:23:33Z</time>
      </trkpt>
      <trkpt lat="45.99831" lon="1.41859">
        <ele>627.4</ele>
        <time>2012-09-07T13:23:34Z</time>
      </trkpt>
      <trkpt lat="45.99831" lon="1.41855">
        <ele>627.2</ele>
        <time>2012-09-07T13:23:35Z</time>
      </trkpt>
      <trkpt lat="45.99836" lon="1.4185">
        <ele>627.2</ele>
        <time>2012-09-07T13:23:38Z</time>
      </trkpt>
      <trkpt lat="45.99843" lon="1.41854">
        <ele>627</ele>
        <time>2012-09-07T13:23:42Z</time>
      </trkpt>
      <trkpt lat="45.99845" lon="1.41855">
        <ele>627</ele>
        <time>2012-09-07T13:23:43Z</time>
      </trkpt>
      <trkpt lat="45.99858" lon="1.41868">
        <ele>626.8</ele>
        <time>2012-09-07T13:23:49Z</time>
      </trkpt>
      <trkpt lat="45.99872" lon="1.41887">
        <ele>626.6</ele>
        <time>2012-09-07T13:23:55Z</time>
      </trkpt>
      <trkpt lat="45.99875" lon="1.41891">
        <ele>626.6</ele>
        <time>2012-09-07T13:23:56Z</time>
      </trkpt>
      <trkpt lat="45.99887" lon="1.41906">
        <ele>626.4</ele>
        <time>2012-09-07T13:24:03Z</time>
      </trkpt>
      <trkpt lat="45.99889" lon="1.41906">
        <ele>626.2</ele>
        <time>2012-09-07T13:24:04Z</time>
      </trkpt>
      <trkpt lat="45.99898" lon="1.41907">
        <ele>626.2</ele>
        <time>2012-09-07T13:24:07Z</time>
      </trkpt>
      <trkpt lat="45.99901" lon="1.41908">
        <ele>626</ele>
        <time>2012-09-07T13:24:11Z</time>
      </trkpt>
      <trkpt lat="45.99894" lon="1.41885">
        <ele>629.4</ele>
        <time>2012-09-07T13:24:53Z</time>
      </trkpt>
      <trkpt lat="45.99896" lon="1.4189">
        <ele>631.6</ele>
        <time>2012-09-07T13:24:58Z</time>
      </trkpt>
      <trkpt lat="45.99904" lon="1.41897">
        <ele>632.8</ele>
        <time>2012-09-07T13:25:03Z</time>
      </trkpt>
      <trkpt lat="45.99917" lon="1.41903">
        <ele>633</ele>
        <time>2012-09-07T13:25:07Z</time>
      </trkpt>
      <trkpt lat="45.99937" lon="1.41911">
        <ele>632.8</ele>
        <time>2012-09-07T13:25:13Z</time>
      </trkpt>
      <trkpt lat="45.99947" lon="1.41912">
        <ele>632.8</ele>
        <time>2012-09-07T13:25:18Z</time>
      </trkpt>
      <trkpt lat="45.99957" lon="1.41916">
        <ele>632.8</ele>
        <time>2012-09-07T13:25:23Z</time>
      </trkpt>
      <trkpt lat="45.99963" lon="1.41917">
        <ele>632.8</ele>
        <time>2012-09-07T13:25:27Z</time>
      </trkpt>
      <trkpt lat="45.99967" lon="1.41918">
        <ele>632.8</ele>
        <time>2012-09-07T13:25:29Z</time>
      </trkpt>
      <trkpt lat="45.99971" lon="1.41918">
        <ele>632.6</ele>
        <time>2012-09-07T13:25:32Z</time>
      </trkpt>
      <trkpt lat="45.99976" lon="1.41919">
        <ele>632.6</ele>
        <time>2012-09-07T13:25:35Z</time>
      </trkpt>
      <trkpt lat="45.99986" lon="1.41922">
        <ele>632.6</ele>
        <time>2012-09-07T13:25:42Z</time>
      </trkpt>
      <trkpt lat="45.99994" lon="1.41924">
        <ele>632.8</ele>
        <time>2012-09-07T13:25:48Z</time>
      </trkpt>
      <trkpt lat="45.99997" lon="1.41925">
        <ele>632.8</ele>
        <time>2012-09-07T13:25:50Z</time>
      </trkpt>
      <trkpt lat="46" lon="1.41928">
        <ele>633</ele>
        <time>2012-09-07T13:25:53Z</time>
      </trkpt>
      <trkpt lat="46.00011" lon="1.41933">
        <ele>633.6</ele>
        <time>2012-09-07T13:25:59Z</time>
      </trkpt>
      <trkpt lat="46.00022" lon="1.41938">
        <ele>634.8</ele>
        <time>2012-09-07T13:26:06Z</time>
      </trkpt>
      <trkpt lat="46.00033" lon="1.41943">
        <ele>635.6</ele>
        <time>2012-09-07T13:26:12Z</time>
      </trkpt>
      <trkpt lat="46.00046" lon="1.41945">
        <ele>636.2</ele>
        <time>2012-09-07T13:26:18Z</time>
      </trkpt>
      <trkpt lat="46.00057" lon="1.4194">
        <ele>637.4</ele>
        <time>2012-09-07T13:26:24Z</time>
      </trkpt>
      <trkpt lat="46.00067" lon="1.41937">
        <ele>638.6</ele>
        <time>2012-09-07T13:26:31Z</time>
      </trkpt>
      <trkpt lat="46.00069" lon="1.41936">
        <ele>639.2</ele>
        <time>2012-09-07T13:26:34Z</time>
      </trkpt>
      <trkpt lat="46.00073" lon="1.41932">
        <ele>640</ele>
        <time>2012-09-07T13:26:38Z</time>
      </trkpt>
      <trkpt lat="46.00076" lon="1.4193">
        <ele>640.4</ele>
        <time>2012-09-07T13:26:41Z</time>
      </trkpt>
      <trkpt lat="46.0008" lon="1.41927">
        <ele>640.6</ele>
        <time>2012-09-07T13:26:44Z</time>
      </trkpt>
      <trkpt lat="46.00089" lon="1.4192">
        <ele>640.8</ele>
        <time>2012-09-07T13:26:52Z</time>
      </trkpt>
      <trkpt lat="46.00097" lon="1.41911">
        <ele>641.2</ele>
        <time>2012-09-07T13:27:00Z</time>
      </trkpt>
      <trkpt lat="46.00103" lon="1.41904">
        <ele>641.6</ele>
        <time>2012-09-07T13:27:07Z</time>
      </trkpt>
      <trkpt lat="46.00111" lon="1.41896">
        <ele>641.8</ele>
        <time>2012-09-07T13:27:15Z</time>
      </trkpt>
      <trkpt lat="46.00112" lon="1.41896">
        <ele>642</ele>
        <time>2012-09-07T13:27:16Z</time>
      </trkpt>
      <trkpt lat="46.00115" lon="1.41894">
        <ele>642.2</ele>
        <time>2012-09-07T13:27:20Z</time>
      </trkpt>
      <trkpt lat="46.00124" lon="1.41886">
        <ele>642.8</ele>
        <time>2012-09-07T13:27:28Z</time>
      </trkpt>
      <trkpt lat="46.00131" lon="1.41877">
        <ele>643.4</ele>
        <time>2012-09-07T13:27:35Z</time>
      </trkpt>
      <trkpt lat="46.00132" lon="1.41875">
        <ele>643.4</ele>
        <time>2012-09-07T13:27:36Z</time>
      </trkpt>
      <trkpt lat="46.00134" lon="1.41873">
        <ele>643.8</ele>
        <time>2012-09-07T13:27:38Z</time>
      </trkpt>
      <trkpt lat="46.00139" lon="1.41866">
        <ele>644.2</ele>
        <time>2012-09-07T13:27:42Z</time>
      </trkpt>
      <trkpt lat="46.00145" lon="1.41858">
        <ele>645.2</ele>
        <time>2012-09-07T13:27:47Z</time>
      </trkpt>
      <trkpt lat="46.00149" lon="1.41852">
        <ele>646</ele>
        <time>2012-09-07T13:27:50Z</time>
      </trkpt>
      <trkpt lat="46.00156" lon="1.4184">
        <ele>647.6</ele>
        <time>2012-09-07T13:27:57Z</time>
      </trkpt>
      <trkpt lat="46.0016" lon="1.41833">
        <ele>648.6</ele>
        <time>2012-09-07T13:28:02Z</time>
      </trkpt>
      <trkpt lat="46.00161" lon="1.41832">
        <ele>648.6</ele>
        <time>2012-09-07T13:28:03Z</time>
      </trkpt>
      <trkpt lat="46.00169" lon="1.4182">
        <ele>649.8</ele>
        <time>2012-09-07T13:28:10Z</time>
      </trkpt>
      <trkpt lat="46.00174" lon="1.41809">
        <ele>650.6</ele>
        <time>2012-09-07T13:28:16Z</time>
      </trkpt>
      <trkpt lat="46.00175" lon="1.41805">
        <ele>650.6</ele>
        <time>2012-09-07T13:28:18Z</time>
      </trkpt>
      <trkpt lat="46.00184" lon="1.41788">
        <ele>650.8</ele>
        <time>2012-09-07T13:28:26Z</time>
      </trkpt>
      <trkpt lat="46.00189" lon="1.41775">
        <ele>651</ele>
        <time>2012-09-07T13:28:31Z</time>
      </trkpt>
      <trkpt lat="46.00192" lon="1.41764">
        <ele>650.8</ele>
        <time>2012-09-07T13:28:36Z</time>
      </trkpt>
      <trkpt lat="46.00192" lon="1.41752">
        <ele>650.8</ele>
        <time>2012-09-07T13:28:42Z</time>
      </trkpt>
      <trkpt lat="46.00192" lon="1.41751">
        <ele>651</ele>
        <time>2012-09-07T13:28:43Z</time>
      </trkpt>
      <trkpt lat="46.00186" lon="1.41747">
        <ele>651</ele>
        <time>2012-09-07T13:28:49Z</time>
      </trkpt>
      <trkpt lat="46.00185" lon="1.41747">
        <ele>651.2</ele>
        <time>2012-09-07T13:28:50Z</time>
      </trkpt>
      <trkpt lat="46.00179" lon="1.41745">
        <ele>651.2</ele>
        <time>2012-09-07T13:28:55Z</time>
      </trkpt>
      <trkpt lat="46.0017" lon="1.4174">
        <ele>651.2</ele>
        <time>2012-09-07T13:29:01Z</time>
      </trkpt>
      <trkpt lat="46.00166" lon="1.41737">
        <ele>651.4</ele>
        <time>2012-09-07T13:29:04Z</time>
      </trkpt>
      <trkpt lat="46.0016" lon="1.41739">
        <ele>651.6</ele>
        <time>2012-09-07T13:29:08Z</time>
      </trkpt>
      <trkpt lat="46.00156" lon="1.41738">
        <ele>651.8</ele>
        <time>2012-09-07T13:29:10Z</time>
      </trkpt>
      <trkpt lat="46.00149" lon="1.41735">
        <ele>652.4</ele>
        <time>2012-09-07T13:29:15Z</time>
      </trkpt>
      <trkpt lat="46.00146" lon="1.41733">
        <ele>653</ele>
        <time>2012-09-07T13:29:18Z</time>
      </trkpt>
      <trkpt lat="46.00144" lon="1.41732">
        <ele>653.6</ele>
        <time>2012-09-07T13:29:21Z</time>
      </trkpt>
      <trkpt lat="46.00139" lon="1.41731">
        <ele>654.6</ele>
        <time>2012-09-07T13:29:27Z</time>
      </trkpt>
      <trkpt lat="46.00132" lon="1.4173">
        <ele>655.6</ele>
        <time>2012-09-07T13:29:34Z</time>
      </trkpt>
      <trkpt lat="46.00126" lon="1.41731">
        <ele>656.6</ele>
        <time>2012-09-07T13:29:40Z</time>
      </trkpt>
      <trkpt lat="46.00119" lon="1.41735">
        <ele>658</ele>
        <time>2012-09-07T13:29:48Z</time>
      </trkpt>
      <trkpt lat="46.00111" lon="1.41734">
        <ele>659.8</ele>
        <time>2012-09-07T13:29:56Z</time>
      </trkpt>
      <trkpt lat="46.00112" lon="1.41734">
        <ele>661.4</ele>
        <time>2012-09-07T13:30:03Z</time>
      </trkpt>
      <trkpt lat="46.00108" lon="1.41734">
        <ele>663.2</ele>
        <time>2012-09-07T13:30:12Z</time>
      </trkpt>
      <trkpt lat="46.00107" lon="1.41734">
        <ele>663.2</ele>
        <time>2012-09-07T13:30:13Z</time>
      </trkpt>
      <trkpt lat="46.00103" lon="1.41727">
        <ele>664</ele>
        <time>2012-09-07T13:30:18Z</time>
      </trkpt>
      <trkpt lat="46.00103" lon="1.41726">
        <ele>664</ele>
        <time>2012-09-07T13:30:19Z</time>
      </trkpt>
      <trkpt lat="46.00102" lon="1.41721">
        <ele>664.8</ele>
        <time>2012-09-07T13:30:25Z</time>
      </trkpt>
      <trkpt lat="46.00101" lon="1.41719">
        <ele>665</ele>
        <time>2012-09-07T13:30:27Z</time>
      </trkpt>
      <trkpt lat="46.00095" lon="1.41717">
        <ele>665.4</ele>
        <time>2012-09-07T13:30:32Z</time>
      </trkpt>
      <trkpt lat="46.00087" lon="1.41717">
        <ele>665.8</ele>
        <time>2012-09-07T13:30:39Z</time>
      </trkpt>
      <trkpt lat="46.00084" lon="1.41716">
        <ele>665.8</ele>
        <time>2012-09-07T13:30:42Z</time>
      </trkpt>
      <trkpt lat="46.00081" lon="1.41713">
        <ele>666</ele>
        <time>2012-09-07T13:30:46Z</time>
      </trkpt>
      <trkpt lat="46.00073" lon="1.41713">
        <ele>665.8</ele>
        <time>2012-09-07T13:30:53Z</time>
      </trkpt>
      <trkpt lat="46.00066" lon="1.41715">
        <ele>665.8</ele>
        <time>2012-09-07T13:31:00Z</time>
      </trkpt>
      <trkpt lat="46.00065" lon="1.41716">
        <ele>665.8</ele>
        <time>2012-09-07T13:31:02Z</time>
      </trkpt>
      <trkpt lat="46.00062" lon="1.41717">
        <ele>665.8</ele>
        <time>2012-09-07T13:31:05Z</time>
      </trkpt>
      <trkpt lat="46.00058" lon="1.41725">
        <ele>665.8</ele>
        <time>2012-09-07T13:31:10Z</time>
      </trkpt>
      <trkpt lat="46.00051" lon="1.41731">
        <ele>665.6</ele>
        <time>2012-09-07T13:31:15Z</time>
      </trkpt>
      <trkpt lat="46.00046" lon="1.41736">
        <ele>665.6</ele>
        <time>2012-09-07T13:31:17Z</time>
      </trkpt>
      <trkpt lat="46.00042" lon="1.41742">
        <ele>665.4</ele>
        <time>2012-09-07T13:31:19Z</time>
      </trkpt>
      <trkpt lat="46.00038" lon="1.41744">
        <ele>665.4</ele>
        <time>2012-09-07T13:31:21Z</time>
      </trkpt>
      <trkpt lat="46.00034" lon="1.41744">
        <ele>665.2</ele>
        <time>2012-09-07T13:31:23Z</time>
      </trkpt>
      <trkpt lat="46.00023" lon="1.41744">
        <ele>664.8</ele>
        <time>2012-09-07T13:31:27Z</time>
      </trkpt>
      <trkpt lat="46.00011" lon="1.4174">
        <ele>664.4</ele>
        <time>2012-09-07T13:31:31Z</time>
      </trkpt>
      <trkpt lat="46.00004" lon="1.41736">
        <ele>663.8</ele>
        <time>2012-09-07T13:31:35Z</time>
      </trkpt>
      <trkpt lat="46.00005" lon="1.41733">
        <ele>663.8</ele>
        <time>2012-09-07T13:31:36Z</time>
      </trkpt>
      <trkpt lat="46.00006" lon="1.41718">
        <ele>663.2</ele>
        <time>2012-09-07T13:31:41Z</time>
      </trkpt>
      <trkpt lat="46.00005" lon="1.41694">
        <ele>662.6</ele>
        <time>2012-09-07T13:31:48Z</time>
      </trkpt>
      <trkpt lat="46.00009" lon="1.41668">
        <ele>662.2</ele>
        <time>2012-09-07T13:31:54Z</time>
      </trkpt>
      <trkpt lat="46.00015" lon="1.41645">
        <ele>661.6</ele>
        <time>2012-09-07T13:32:00Z</time>
      </trkpt>
      <trkpt lat="46.00021" lon="1.41623">
        <ele>661.2</ele>
        <time>2012-09-07T13:32:06Z</time>
      </trkpt>
      <trkpt lat="46.00028" lon="1.41598">
        <ele>660.6</ele>
        <time>2012-09-07T13:32:13Z</time>
      </trkpt>
      <trkpt lat="46.00034" lon="1.41583">
        <ele>660.2</ele>
        <time>2012-09-07T13:32:19Z</time>
      </trkpt>
      <trkpt lat="46.00042" lon="1.41568">
        <ele>659.6</ele>
        <time>2012-09-07T13:32:25Z</time>
      </trkpt>
      <trkpt lat="46.00051" lon="1.41552">
        <ele>659</ele>
        <time>2012-09-07T13:32:32Z</time>
      </trkpt>
      <trkpt lat="46.00059" lon="1.41532">
        <ele>658.4</ele>
        <time>2012-09-07T13:32:38Z</time>
      </trkpt>
      <trkpt lat="46.0006" lon="1.41504">
        <ele>658</ele>
        <time>2012-09-07T13:32:43Z</time>
      </trkpt>
      <trkpt lat="46.00057" lon="1.41499">
        <ele>658</ele>
        <time>2012-09-07T13:32:44Z</time>
      </trkpt>
      <trkpt lat="46.00051" lon="1.41487">
        <ele>658</ele>
        <time>2012-09-07T13:32:47Z</time>
      </trkpt>
      <trkpt lat="46.00042" lon="1.4147">
        <ele>657.8</ele>
        <time>2012-09-07T13:32:53Z</time>
      </trkpt>
      <trkpt lat="46.00028" lon="1.41449">
        <ele>657.6</ele>
        <time>2012-09-07T13:32:59Z</time>
      </trkpt>
      <trkpt lat="46.00025" lon="1.41445">
        <ele>657.6</ele>
        <time>2012-09-07T13:33:00Z</time>
      </trkpt>
      <trkpt lat="46.0001" lon="1.41426">
        <ele>657.4</ele>
        <time>2012-09-07T13:33:05Z</time>
      </trkpt>
      <trkpt lat="45.99994" lon="1.41412">
        <ele>657.2</ele>
        <time>2012-09-07T13:33:09Z</time>
      </trkpt>
      <trkpt lat="45.99978" lon="1.41398">
        <ele>656.8</ele>
        <time>2012-09-07T13:33:12Z</time>
      </trkpt>
      <trkpt lat="45.99972" lon="1.41393">
        <ele>656.8</ele>
        <time>2012-09-07T13:33:13Z</time>
      </trkpt>
      <trkpt lat="45.99956" lon="1.41377">
        <ele>656.4</ele>
        <time>2012-09-07T13:33:16Z</time>
      </trkpt>
      <trkpt lat="45.99946" lon="1.41367">
        <ele>656.2</ele>
        <time>2012-09-07T13:33:18Z</time>
      </trkpt>
      <trkpt lat="45.99942" lon="1.41362">
        <ele>656</ele>
        <time>2012-09-07T13:33:19Z</time>
      </trkpt>
      <trkpt lat="45.99923" lon="1.41343">
        <ele>655.4</ele>
        <time>2012-09-07T13:33:23Z</time>
      </trkpt>
      <trkpt lat="45.99919" lon="1.41338">
        <ele>655.4</ele>
        <time>2012-09-07T13:33:24Z</time>
      </trkpt>
      <trkpt lat="45.99916" lon="1.41332">
        <ele>655.2</ele>
        <time>2012-09-07T13:33:25Z</time>
      </trkpt>
      <trkpt lat="45.99909" lon="1.41317">
        <ele>655</ele>
        <time>2012-09-07T13:33:28Z</time>
      </trkpt>
      <trkpt lat="45.99904" lon="1.41303">
        <ele>654.8</ele>
        <time>2012-09-07T13:33:32Z</time>
      </trkpt>
      <trkpt lat="45.99906" lon="1.41291">
        <ele>654.6</ele>
        <time>2012-09-07T13:33:36Z</time>
      </trkpt>
      <trkpt lat="45.99911" lon="1.41263">
        <ele>654.2</ele>
        <time>2012-09-07T13:33:40Z</time>
      </trkpt>
      <trkpt lat="45.99919" lon="1.41236">
        <ele>654</ele>
        <time>2012-09-07T13:33:43Z</time>
      </trkpt>
      <trkpt lat="45.99925" lon="1.41216">
        <ele>653.8</ele>
        <time>2012-09-07T13:33:45Z</time>
      </trkpt>
      <trkpt lat="45.99931" lon="1.4118">
        <ele>653.4</ele>
        <time>2012-09-07T13:33:48Z</time>
      </trkpt>
      <trkpt lat="45.99935" lon="1.41169">
        <ele>653.2</ele>
        <time>2012-09-07T13:33:49Z</time>
      </trkpt>
      <trkpt lat="45.99941" lon="1.41145">
        <ele>653</ele>
        <time>2012-09-07T13:33:51Z</time>
      </trkpt>
      <trkpt lat="45.99947" lon="1.41119">
        <ele>652.4</ele>
        <time>2012-09-07T13:33:53Z</time>
      </trkpt>
      <trkpt lat="45.9995" lon="1.41107">
        <ele>652.2</ele>
        <time>2012-09-07T13:33:54Z</time>
      </trkpt>
      <trkpt lat="45.99957" lon="1.41083">
        <ele>651.8</ele>
        <time>2012-09-07T13:33:56Z</time>
      </trkpt>
      <trkpt lat="45.99965" lon="1.41049">
        <ele>651</ele>
        <time>2012-09-07T13:33:59Z</time>
      </trkpt>
      <trkpt lat="45.99975" lon="1.41027">
        <ele>650.4</ele>
        <time>2012-09-07T13:34:02Z</time>
      </trkpt>
      <trkpt lat="45.99977" lon="1.41017">
        <ele>650.2</ele>
        <time>2012-09-07T13:34:03Z</time>
      </trkpt>
      <trkpt lat="45.99983" lon="1.40995">
        <ele>649.2</ele>
        <time>2012-09-07T13:34:07Z</time>
      </trkpt>
      <trkpt lat="45.9998" lon="1.40994">
        <ele>648.6</ele>
        <time>2012-09-07T13:34:10Z</time>
      </trkpt>
      <trkpt lat="45.99973" lon="1.40996">
        <ele>645.8</ele>
        <time>2012-09-07T13:34:24Z</time>
      </trkpt>
      <trkpt lat="45.9997" lon="1.40992">
        <ele>645.2</ele>
        <time>2012-09-07T13:34:27Z</time>
      </trkpt>
      <trkpt lat="45.99964" lon="1.40989">
        <ele>644</ele>
        <time>2012-09-07T13:34:32Z</time>
      </trkpt>
      <trkpt lat="45.99958" lon="1.40983">
        <ele>642.8</ele>
        <time>2012-09-07T13:34:37Z</time>
      </trkpt>
      <trkpt lat="45.99949" lon="1.40979">
        <ele>642.2</ele>
        <time>2012-09-07T13:34:40Z</time>
      </trkpt>
      <trkpt lat="45.99946" lon="1.40977">
        <ele>641.8</ele>
        <time>2012-09-07T13:34:41Z</time>
      </trkpt>
      <trkpt lat="45.99938" lon="1.40973">
        <ele>640.6</ele>
        <time>2012-09-07T13:34:45Z</time>
      </trkpt>
      <trkpt lat="45.99935" lon="1.40974">
        <ele>640.4</ele>
        <time>2012-09-07T13:34:46Z</time>
      </trkpt>
      <trkpt lat="45.99926" lon="1.40971">
        <ele>639.4</ele>
        <time>2012-09-07T13:34:49Z</time>
      </trkpt>
      <trkpt lat="45.99924" lon="1.40968">
        <ele>639.2</ele>
        <time>2012-09-07T13:34:50Z</time>
      </trkpt>
      <trkpt lat="45.99921" lon="1.4096">
        <ele>638</ele>
        <time>2012-09-07T13:34:54Z</time>
      </trkpt>
      <trkpt lat="45.99914" lon="1.40954">
        <ele>636.6</ele>
        <time>2012-09-07T13:34:59Z</time>
      </trkpt>
      <trkpt lat="45.999" lon="1.40948">
        <ele>633.6</ele>
        <time>2012-09-07T13:35:16Z</time>
      </trkpt>
      <trkpt lat="45.99892" lon="1.40945">
        <ele>632.6</ele>
        <time>2012-09-07T13:35:24Z</time>
      </trkpt>
      <trkpt lat="45.99889" lon="1.40942">
        <ele>632</ele>
        <time>2012-09-07T13:35:28Z</time>
      </trkpt>
      <trkpt lat="45.99888" lon="1.40941">
        <ele>631.8</ele>
        <time>2012-09-07T13:35:30Z</time>
      </trkpt>
      <trkpt lat="45.99885" lon="1.4094">
        <ele>631.2</ele>
        <time>2012-09-07T13:35:34Z</time>
      </trkpt>
      <trkpt lat="45.9988" lon="1.40939">
        <ele>630</ele>
        <time>2012-09-07T13:35:42Z</time>
      </trkpt>
      <trkpt lat="45.99879" lon="1.4094">
        <ele>629.2</ele>
        <time>2012-09-07T13:35:47Z</time>
      </trkpt>
      <trkpt lat="45.99877" lon="1.40939">
        <ele>629</ele>
        <time>2012-09-07T13:35:49Z</time>
      </trkpt>
      <trkpt lat="45.99874" lon="1.40939">
        <ele>628.4</ele>
        <time>2012-09-07T13:35:53Z</time>
      </trkpt>
      <trkpt lat="45.99872" lon="1.4094">
        <ele>628</ele>
        <time>2012-09-07T13:35:55Z</time>
      </trkpt>
      <trkpt lat="45.9987" lon="1.4094">
        <ele>627.4</ele>
        <time>2012-09-07T13:35:59Z</time>
      </trkpt>
      <trkpt lat="45.99868" lon="1.4094">
        <ele>627.2</ele>
        <time>2012-09-07T13:36:00Z</time>
      </trkpt>
      <trkpt lat="45.99864" lon="1.4094">
        <ele>626.4</ele>
        <time>2012-09-07T13:36:05Z</time>
      </trkpt>
      <trkpt lat="45.99863" lon="1.4094">
        <ele>626.4</ele>
        <time>2012-09-07T13:36:06Z</time>
      </trkpt>
      <trkpt lat="45.99861" lon="1.40941">
        <ele>626</ele>
        <time>2012-09-07T13:36:08Z</time>
      </trkpt>
      <trkpt lat="45.99859" lon="1.40942">
        <ele>625.8</ele>
        <time>2012-09-07T13:36:10Z</time>
      </trkpt>
      <trkpt lat="45.99852" lon="1.40945">
        <ele>624.6</ele>
        <time>2012-09-07T13:36:18Z</time>
      </trkpt>
      <trkpt lat="45.99846" lon="1.40949">
        <ele>623.6</ele>
        <time>2012-09-07T13:36:24Z</time>
      </trkpt>
      <trkpt lat="45.99845" lon="1.40949">
        <ele>623.2</ele>
        <time>2012-09-07T13:36:26Z</time>
      </trkpt>
      <trkpt lat="45.99844" lon="1.40954">
        <ele>622.4</ele>
        <time>2012-09-07T13:36:32Z</time>
      </trkpt>
      <trkpt lat="45.99842" lon="1.40954">
        <ele>622.2</ele>
        <time>2012-09-07T13:36:33Z</time>
      </trkpt>
      <trkpt lat="45.99835" lon="1.40955">
        <ele>622</ele>
        <time>2012-09-07T13:36:36Z</time>
      </trkpt>
      <trkpt lat="45.99827" lon="1.40955">
        <ele>621.4</ele>
        <time>2012-09-07T13:36:39Z</time>
      </trkpt>
      <trkpt lat="45.99825" lon="1.4096">
        <ele>621</ele>
        <time>2012-09-07T13:36:41Z</time>
      </trkpt>
      <trkpt lat="45.99823" lon="1.40967">
        <ele>620.4</ele>
        <time>2012-09-07T13:36:45Z</time>
      </trkpt>
      <trkpt lat="45.99825" lon="1.40967">
        <ele>619.8</ele>
        <time>2012-09-07T13:36:47Z</time>
      </trkpt>
      <trkpt lat="45.9983" lon="1.40969">
        <ele>618.4</ele>
        <time>2012-09-07T13:36:54Z</time>
      </trkpt>
      <trkpt lat="45.99826" lon="1.40962">
        <ele>616.2</ele>
        <time>2012-09-07T13:37:05Z</time>
      </trkpt>
      <trkpt lat="45.99821" lon="1.4096">
        <ele>615.6</ele>
        <time>2012-09-07T13:37:09Z</time>
      </trkpt>
      <trkpt lat="45.99816" lon="1.40957">
        <ele>614.4</ele>
        <time>2012-09-07T13:37:15Z</time>
      </trkpt>
      <trkpt lat="45.99814" lon="1.40957">
        <ele>614.2</ele>
        <time>2012-09-07T13:37:16Z</time>
      </trkpt>
      <trkpt lat="45.99809" lon="1.40953">
        <ele>613.2</ele>
        <time>2012-09-07T13:37:21Z</time>
      </trkpt>
      <trkpt lat="45.99807" lon="1.40953">
        <ele>612.8</ele>
        <time>2012-09-07T13:37:23Z</time>
      </trkpt>
      <trkpt lat="45.99805" lon="1.40954">
        <ele>612.4</ele>
        <time>2012-09-07T13:37:25Z</time>
      </trkpt>
      <trkpt lat="45.99804" lon="1.40952">
        <ele>612.2</ele>
        <time>2012-09-07T13:37:26Z</time>
      </trkpt>
      <trkpt lat="45.99801" lon="1.40952">
        <ele>611.8</ele>
        <time>2012-09-07T13:37:29Z</time>
      </trkpt>
      <trkpt lat="45.99796" lon="1.40951">
        <ele>610.8</ele>
        <time>2012-09-07T13:37:33Z</time>
      </trkpt>
      <trkpt lat="45.99793" lon="1.4095">
        <ele>610.6</ele>
        <time>2012-09-07T13:37:35Z</time>
      </trkpt>
      <trkpt lat="45.99788" lon="1.40948">
        <ele>609.8</ele>
        <time>2012-09-07T13:37:40Z</time>
      </trkpt>
      <trkpt lat="45.99781" lon="1.40942">
        <ele>608.8</ele>
        <time>2012-09-07T13:37:47Z</time>
      </trkpt>
      <trkpt lat="45.99778" lon="1.40942">
        <ele>608.4</ele>
        <time>2012-09-07T13:37:50Z</time>
      </trkpt>
      <trkpt lat="45.99775" lon="1.40943">
        <ele>608</ele>
        <time>2012-09-07T13:37:52Z</time>
      </trkpt>
      <trkpt lat="45.9977" lon="1.40947">
        <ele>607</ele>
        <time>2012-09-07T13:37:58Z</time>
      </trkpt>
      <trkpt lat="45.99769" lon="1.4095">
        <ele>606.6</ele>
        <time>2012-09-07T13:38:00Z</time>
      </trkpt>
      <trkpt lat="45.99767" lon="1.4095">
        <ele>606</ele>
        <time>2012-09-07T13:38:03Z</time>
      </trkpt>
      <trkpt lat="45.99767" lon="1.4095">
        <ele>605.8</ele>
        <time>2012-09-07T13:38:04Z</time>
      </trkpt>
      <trkpt lat="45.99758" lon="1.4095">
        <ele>604.4</ele>
        <time>2012-09-07T13:38:11Z</time>
      </trkpt>
      <trkpt lat="45.99754" lon="1.4095">
        <ele>603.8</ele>
        <time>2012-09-07T13:38:14Z</time>
      </trkpt>
      <trkpt lat="45.99752" lon="1.4095">
        <ele>603.2</ele>
        <time>2012-09-07T13:38:17Z</time>
      </trkpt>
      <trkpt lat="45.99751" lon="1.40953">
        <ele>602.4</ele>
        <time>2012-09-07T13:38:20Z</time>
      </trkpt>
      <trkpt lat="45.9975" lon="1.40953">
        <ele>601.8</ele>
        <time>2012-09-07T13:38:23Z</time>
      </trkpt>
      <trkpt lat="45.99745" lon="1.40944">
        <ele>598.4</ele>
        <time>2012-09-07T13:38:41Z</time>
      </trkpt>
      <trkpt lat="45.99741" lon="1.4095">
        <ele>597.8</ele>
        <time>2012-09-07T13:38:44Z</time>
      </trkpt>
      <trkpt lat="45.99732" lon="1.40964">
        <ele>597</ele>
        <time>2012-09-07T13:38:49Z</time>
      </trkpt>
      <trkpt lat="45.99715" lon="1.40977">
        <ele>596.4</ele>
        <time>2012-09-07T13:38:53Z</time>
      </trkpt>
      <trkpt lat="45.99698" lon="1.40987">
        <ele>595.8</ele>
        <time>2012-09-07T13:38:56Z</time>
      </trkpt>
      <trkpt lat="45.99693" lon="1.40991">
        <ele>595.6</ele>
        <time>2012-09-07T13:38:57Z</time>
      </trkpt>
      <trkpt lat="45.9969" lon="1.40995">
        <ele>595.4</ele>
        <time>2012-09-07T13:38:58Z</time>
      </trkpt>
      <trkpt lat="45.99686" lon="1.40996">
        <ele>594.4</ele>
        <time>2012-09-07T13:39:01Z</time>
      </trkpt>
      <trkpt lat="45.99693" lon="1.40997">
        <ele>593.2</ele>
        <time>2012-09-07T13:39:05Z</time>
      </trkpt>
      <trkpt lat="45.99694" lon="1.41001">
        <ele>591.8</ele>
        <time>2012-09-07T13:39:08Z</time>
      </trkpt>
      <trkpt lat="45.99697" lon="1.41007">
        <ele>588.4</ele>
        <time>2012-09-07T13:39:17Z</time>
      </trkpt>
      <trkpt lat="45.99698" lon="1.41008">
        <ele>588</ele>
        <time>2012-09-07T13:39:18Z</time>
      </trkpt>
      <trkpt lat="45.99708" lon="1.41015">
        <ele>584</ele>
        <time>2012-09-07T13:39:25Z</time>
      </trkpt>
      <trkpt lat="45.99709" lon="1.41016">
        <ele>583.4</ele>
        <time>2012-09-07T13:39:26Z</time>
      </trkpt>
      <trkpt lat="45.99715" lon="1.41021">
        <ele>577.6</ele>
        <time>2012-09-07T13:39:35Z</time>
      </trkpt>
      <trkpt lat="45.99715" lon="1.41021">
        <ele>572.8</ele>
        <time>2012-09-07T13:39:43Z</time>
      </trkpt>
      <trkpt lat="45.99713" lon="1.41022">
        <ele>566</ele>
        <time>2012-09-07T13:39:56Z</time>
      </trkpt>
      <trkpt lat="45.99706" lon="1.41021">
        <ele>564.4</ele>
        <time>2012-09-07T13:40:00Z</time>
      </trkpt>
      <trkpt lat="45.99692" lon="1.4102">
        <ele>563.2</ele>
        <time>2012-09-07T13:40:04Z</time>
      </trkpt>
      <trkpt lat="45.99677" lon="1.41018">
        <ele>561.8</ele>
        <time>2012-09-07T13:40:09Z</time>
      </trkpt>
      <trkpt lat="45.99663" lon="1.41015">
        <ele>560.6</ele>
        <time>2012-09-07T13:40:15Z</time>
      </trkpt>
      <trkpt lat="45.99649" lon="1.4102">
        <ele>559.8</ele>
        <time>2012-09-07T13:40:20Z</time>
      </trkpt>
      <trkpt lat="45.99633" lon="1.41033">
        <ele>559</ele>
        <time>2012-09-07T13:40:26Z</time>
      </trkpt>
      <trkpt lat="45.99619" lon="1.41051">
        <ele>558.6</ele>
        <time>2012-09-07T13:40:31Z</time>
      </trkpt>
      <trkpt lat="45.99613" lon="1.41074">
        <ele>558.4</ele>
        <time>2012-09-07T13:40:34Z</time>
      </trkpt>
      <trkpt lat="45.99612" lon="1.41087">
        <ele>558.4</ele>
        <time>2012-09-07T13:40:35Z</time>
      </trkpt>
      <trkpt lat="45.99602" lon="1.41117">
        <ele>558.2</ele>
        <time>2012-09-07T13:40:38Z</time>
      </trkpt>
      <trkpt lat="45.99601" lon="1.41128">
        <ele>558.2</ele>
        <time>2012-09-07T13:40:39Z</time>
      </trkpt>
      <trkpt lat="45.99603" lon="1.41159">
        <ele>558.2</ele>
        <time>2012-09-07T13:40:42Z</time>
      </trkpt>
      <trkpt lat="45.99602" lon="1.4119">
        <ele>558</ele>
        <time>2012-09-07T13:40:45Z</time>
      </trkpt>
      <trkpt lat="45.99601" lon="1.41199">
        <ele>558</ele>
        <time>2012-09-07T13:40:46Z</time>
      </trkpt>
      <trkpt lat="45.99588" lon="1.41204">
        <ele>557.8</ele>
        <time>2012-09-07T13:40:49Z</time>
      </trkpt>
      <trkpt lat="45.99567" lon="1.41216">
        <ele>557.2</ele>
        <time>2012-09-07T13:40:53Z</time>
      </trkpt>
      <trkpt lat="45.99558" lon="1.41222">
        <ele>557</ele>
        <time>2012-09-07T13:40:55Z</time>
      </trkpt>
      <trkpt lat="45.9955" lon="1.41228">
        <ele>556.6</ele>
        <time>2012-09-07T13:40:57Z</time>
      </trkpt>
      <trkpt lat="45.99545" lon="1.41229">
        <ele>556.4</ele>
        <time>2012-09-07T13:40:58Z</time>
      </trkpt>
      <trkpt lat="45.9953" lon="1.41223">
        <ele>555.8</ele>
        <time>2012-09-07T13:41:01Z</time>
      </trkpt>
      <trkpt lat="45.99524" lon="1.41221">
        <ele>555.4</ele>
        <time>2012-09-07T13:41:02Z</time>
      </trkpt>
      <trkpt lat="45.99498" lon="1.41213">
        <ele>554.6</ele>
        <time>2012-09-07T13:41:05Z</time>
      </trkpt>
      <trkpt lat="45.99471" lon="1.41202">
        <ele>553.6</ele>
        <time>2012-09-07T13:41:08Z</time>
      </trkpt>
      <trkpt lat="45.99461" lon="1.41198">
        <ele>553.2</ele>
        <time>2012-09-07T13:41:09Z</time>
      </trkpt>
      <trkpt lat="45.99443" lon="1.4119">
        <ele>552.6</ele>
        <time>2012-09-07T13:41:11Z</time>
      </trkpt>
      <trkpt lat="45.99428" lon="1.41185">
        <ele>551.8</ele>
        <time>2012-09-07T13:41:13Z</time>
      </trkpt>
      <trkpt lat="45.99401" lon="1.41182">
        <ele>550.6</ele>
        <time>2012-09-07T13:41:16Z</time>
      </trkpt>
      <trkpt lat="45.99394" lon="1.41181">
        <ele>550.2</ele>
        <time>2012-09-07T13:41:17Z</time>
      </trkpt>
      <trkpt lat="45.99378" lon="1.41182">
        <ele>549.4</ele>
        <time>2012-09-07T13:41:19Z</time>
      </trkpt>
      <trkpt lat="45.99361" lon="1.41188">
        <ele>548.4</ele>
        <time>2012-09-07T13:41:21Z</time>
      </trkpt>
      <trkpt lat="45.99342" lon="1.41198">
        <ele>547.6</ele>
        <time>2012-09-07T13:41:23Z</time>
      </trkpt>
      <trkpt lat="45.99322" lon="1.41209">
        <ele>546.6</ele>
        <time>2012-09-07T13:41:25Z</time>
      </trkpt>
      <trkpt lat="45.99304" lon="1.41218">
        <ele>545.6</ele>
        <time>2012-09-07T13:41:27Z</time>
      </trkpt>
      <trkpt lat="45.9929" lon="1.41227">
        <ele>544.6</ele>
        <time>2012-09-07T13:41:29Z</time>
      </trkpt>
      <trkpt lat="45.99268" lon="1.41243">
        <ele>543.2</ele>
        <time>2012-09-07T13:41:32Z</time>
      </trkpt>
      <trkpt lat="45.99253" lon="1.41259">
        <ele>542.2</ele>
        <time>2012-09-07T13:41:34Z</time>
      </trkpt>
      <trkpt lat="45.99237" lon="1.41277">
        <ele>541</ele>
        <time>2012-09-07T13:41:36Z</time>
      </trkpt>
      <trkpt lat="45.99223" lon="1.4129">
        <ele>540</ele>
        <time>2012-09-07T13:41:38Z</time>
      </trkpt>
      <trkpt lat="45.99214" lon="1.41311">
        <ele>538.8</ele>
        <time>2012-09-07T13:41:41Z</time>
      </trkpt>
      <trkpt lat="45.99211" lon="1.41336">
        <ele>537.4</ele>
        <time>2012-09-07T13:41:44Z</time>
      </trkpt>
      <trkpt lat="45.9921" lon="1.41346">
        <ele>536.6</ele>
        <time>2012-09-07T13:41:46Z</time>
      </trkpt>
      <trkpt lat="45.99208" lon="1.4135">
        <ele>536.2</ele>
        <time>2012-09-07T13:41:47Z</time>
      </trkpt>
      <trkpt lat="45.99202" lon="1.4136">
        <ele>535.4</ele>
        <time>2012-09-07T13:41:49Z</time>
      </trkpt>
      <trkpt lat="45.99192" lon="1.41374">
        <ele>534.2</ele>
        <time>2012-09-07T13:41:52Z</time>
      </trkpt>
      <trkpt lat="45.9918" lon="1.414">
        <ele>532.8</ele>
        <time>2012-09-07T13:41:56Z</time>
      </trkpt>
      <trkpt lat="45.99178" lon="1.41407">
        <ele>532.4</ele>
        <time>2012-09-07T13:41:57Z</time>
      </trkpt>
      <trkpt lat="45.99165" lon="1.41437">
        <ele>531</ele>
        <time>2012-09-07T13:42:01Z</time>
      </trkpt>
      <trkpt lat="45.9916" lon="1.41443">
        <ele>530.6</ele>
        <time>2012-09-07T13:42:02Z</time>
      </trkpt>
      <trkpt lat="45.99146" lon="1.4146">
        <ele>529.6</ele>
        <time>2012-09-07T13:42:05Z</time>
      </trkpt>
      <trkpt lat="45.99141" lon="1.41463">
        <ele>529.4</ele>
        <time>2012-09-07T13:42:06Z</time>
      </trkpt>
      <trkpt lat="45.99136" lon="1.41465">
        <ele>529</ele>
        <time>2012-09-07T13:42:07Z</time>
      </trkpt>
      <trkpt lat="45.99129" lon="1.41468">
        <ele>528.2</ele>
        <time>2012-09-07T13:42:09Z</time>
      </trkpt>
      <trkpt lat="45.99109" lon="1.41472">
        <ele>527</ele>
        <time>2012-09-07T13:42:12Z</time>
      </trkpt>
      <trkpt lat="45.99104" lon="1.41474">
        <ele>526.4</ele>
        <time>2012-09-07T13:42:13Z</time>
      </trkpt>
      <trkpt lat="45.99097" lon="1.41479">
        <ele>525.6</ele>
        <time>2012-09-07T13:42:15Z</time>
      </trkpt>
      <trkpt lat="45.99093" lon="1.41485">
        <ele>524.8</ele>
        <time>2012-09-07T13:42:17Z</time>
      </trkpt>
      <trkpt lat="45.99093" lon="1.41503">
        <ele>523.4</ele>
        <time>2012-09-07T13:42:20Z</time>
      </trkpt>
      <trkpt lat="45.99094" lon="1.41508">
        <ele>523</ele>
        <time>2012-09-07T13:42:21Z</time>
      </trkpt>
      <trkpt lat="45.99094" lon="1.41512">
        <ele>522.6</ele>
        <time>2012-09-07T13:42:22Z</time>
      </trkpt>
      <trkpt lat="45.99089" lon="1.41516">
        <ele>521.6</ele>
        <time>2012-09-07T13:42:24Z</time>
      </trkpt>
      <trkpt lat="45.99084" lon="1.41515">
        <ele>520.4</ele>
        <time>2012-09-07T13:42:27Z</time>
      </trkpt>
      <trkpt lat="45.99084" lon="1.41515">
        <ele>520</ele>
        <time>2012-09-07T13:42:28Z</time>
      </trkpt>
      <trkpt lat="45.99086" lon="1.41513">
        <ele>516</ele>
        <time>2012-09-07T13:42:38Z</time>
      </trkpt>
      <trkpt lat="45.9909" lon="1.41513">
        <ele>514.6</ele>
        <time>2012-09-07T13:42:42Z</time>
      </trkpt>
      <trkpt lat="45.99091" lon="1.41513">
        <ele>513.8</ele>
        <time>2012-09-07T13:42:44Z</time>
      </trkpt>
      <trkpt lat="45.991" lon="1.41521">
        <ele>485.8</ele>
        <time>2012-09-07T13:44:51Z</time>
      </trkpt>
      <trkpt lat="45.99089" lon="1.4152">
        <ele>481.2</ele>
        <time>2012-09-07T13:45:24Z</time>
      </trkpt>
      <trkpt lat="45.9908" lon="1.4152">
        <ele>478.8</ele>
        <time>2012-09-07T13:45:43Z</time>
      </trkpt>
      <trkpt lat="45.99062" lon="1.41516">
        <ele>478.4</ele>
        <time>2012-09-07T13:45:47Z</time>
      </trkpt>
      <trkpt lat="45.99039" lon="1.41511">
        <ele>477.8</ele>
        <time>2012-09-07T13:45:51Z</time>
      </trkpt>
      <trkpt lat="45.99027" lon="1.41509">
        <ele>477.4</ele>
        <time>2012-09-07T13:45:53Z</time>
      </trkpt>
      <trkpt lat="45.99017" lon="1.41508">
        <ele>477.2</ele>
        <time>2012-09-07T13:45:55Z</time>
      </trkpt>
      <trkpt lat="45.99015" lon="1.41509">
        <ele>477</ele>
        <time>2012-09-07T13:45:56Z</time>
      </trkpt>
      <trkpt lat="45.99008" lon="1.41514">
        <ele>476.4</ele>
        <time>2012-09-07T13:46:00Z</time>
      </trkpt>
      <trkpt lat="45.99006" lon="1.41515">
        <ele>476.2</ele>
        <time>2012-09-07T13:46:01Z</time>
      </trkpt>
      <trkpt lat="45.98996" lon="1.41517">
        <ele>475.6</ele>
        <time>2012-09-07T13:46:06Z</time>
      </trkpt>
      <trkpt lat="45.98986" lon="1.4152">
        <ele>474.8</ele>
        <time>2012-09-07T13:46:11Z</time>
      </trkpt>
      <trkpt lat="45.98972" lon="1.41521">
        <ele>473.8</ele>
        <time>2012-09-07T13:46:17Z</time>
      </trkpt>
      <trkpt lat="45.98961" lon="1.4152">
        <ele>472.8</ele>
        <time>2012-09-07T13:46:22Z</time>
      </trkpt>
      <trkpt lat="45.98954" lon="1.41514">
        <ele>472</ele>
        <time>2012-09-07T13:46:27Z</time>
      </trkpt>
      <trkpt lat="45.98952" lon="1.41514">
        <ele>471</ele>
        <time>2012-09-07T13:46:32Z</time>
      </trkpt>
      <trkpt lat="45.98947" lon="1.41511">
        <ele>469.8</ele>
        <time>2012-09-07T13:46:38Z</time>
      </trkpt>
      <trkpt lat="45.98945" lon="1.4151">
        <ele>468.2</ele>
        <time>2012-09-07T13:46:47Z</time>
      </trkpt>
      <trkpt lat="45.98942" lon="1.41508">
        <ele>466.6</ele>
        <time>2012-09-07T13:46:56Z</time>
      </trkpt>
      <trkpt lat="45.9894" lon="1.41505">
        <ele>465.4</ele>
        <time>2012-09-07T13:47:03Z</time>
      </trkpt>
      <trkpt lat="45.98938" lon="1.41504">
        <ele>464.6</ele>
        <time>2012-09-07T13:47:09Z</time>
      </trkpt>
      <trkpt lat="45.98936" lon="1.41501">
        <ele>463.6</ele>
        <time>2012-09-07T13:47:15Z</time>
      </trkpt>
      <trkpt lat="45.98932" lon="1.41497">
        <ele>462.6</ele>
        <time>2012-09-07T13:47:23Z</time>
      </trkpt>
      <trkpt lat="45.98929" lon="1.41493">
        <ele>461.8</ele>
        <time>2012-09-07T13:47:29Z</time>
      </trkpt>
      <trkpt lat="45.98925" lon="1.41488">
        <ele>460.4</ele>
        <time>2012-09-07T13:47:39Z</time>
      </trkpt>
      <trkpt lat="45.98922" lon="1.41482">
        <ele>459</ele>
        <time>2012-09-07T13:47:49Z</time>
      </trkpt>
      <trkpt lat="45.9892" lon="1.41478">
        <ele>458.2</ele>
        <time>2012-09-07T13:47:55Z</time>
      </trkpt>
      <trkpt lat="45.98917" lon="1.41471">
        <ele>457.4</ele>
        <time>2012-09-07T13:48:01Z</time>
      </trkpt>
      <trkpt lat="45.98915" lon="1.41469">
        <ele>456.8</ele>
        <time>2012-09-07T13:48:05Z</time>
      </trkpt>
      <trkpt lat="45.98914" lon="1.41468">
        <ele>456.4</ele>
        <time>2012-09-07T13:48:08Z</time>
      </trkpt>
      <trkpt lat="45.98912" lon="1.41463">
        <ele>455</ele>
        <time>2012-09-07T13:48:18Z</time>
      </trkpt>
      <trkpt lat="45.9891" lon="1.41457">
        <ele>453.8</ele>
        <time>2012-09-07T13:48:28Z</time>
      </trkpt>
      <trkpt lat="45.9891" lon="1.41456">
        <ele>453.8</ele>
        <time>2012-09-07T13:48:29Z</time>
      </trkpt>
      <trkpt lat="45.98908" lon="1.41453">
        <ele>453.2</ele>
        <time>2012-09-07T13:48:34Z</time>
      </trkpt>
      <trkpt lat="45.98906" lon="1.41448">
        <ele>452.6</ele>
        <time>2012-09-07T13:48:41Z</time>
      </trkpt>
      <trkpt lat="45.98904" lon="1.41444">
        <ele>452</ele>
        <time>2012-09-07T13:48:46Z</time>
      </trkpt>
      <trkpt lat="45.98901" lon="1.41436">
        <ele>450.4</ele>
        <time>2012-09-07T13:49:02Z</time>
      </trkpt>
      <trkpt lat="45.98899" lon="1.41429">
        <ele>450</ele>
        <time>2012-09-07T13:49:07Z</time>
      </trkpt>
      <trkpt lat="45.98892" lon="1.41414">
        <ele>449.4</ele>
        <time>2012-09-07T13:49:13Z</time>
      </trkpt>
      <trkpt lat="45.98884" lon="1.41397">
        <ele>448.8</ele>
        <time>2012-09-07T13:49:19Z</time>
      </trkpt>
      <trkpt lat="45.98883" lon="1.41395">
        <ele>448.6</ele>
        <time>2012-09-07T13:49:23Z</time>
      </trkpt>
      <trkpt lat="45.98881" lon="1.41387">
        <ele>448</ele>
        <time>2012-09-07T13:49:29Z</time>
      </trkpt>
      <trkpt lat="45.98882" lon="1.41384">
        <ele>448</ele>
        <time>2012-09-07T13:49:31Z</time>
      </trkpt>
      <trkpt lat="45.98882" lon="1.41384">
        <ele>447.6</ele>
        <time>2012-09-07T13:49:35Z</time>
      </trkpt>
      <trkpt lat="45.98889" lon="1.41379">
        <ele>447.2</ele>
        <time>2012-09-07T13:49:40Z</time>
      </trkpt>
      <trkpt lat="45.98901" lon="1.4137">
        <ele>446.8</ele>
        <time>2012-09-07T13:49:46Z</time>
      </trkpt>
      <trkpt lat="45.98918" lon="1.41362">
        <ele>446.4</ele>
        <time>2012-09-07T13:49:53Z</time>
      </trkpt>
      <trkpt lat="45.98936" lon="1.41355">
        <ele>446</ele>
        <time>2012-09-07T13:50:00Z</time>
      </trkpt>
      <trkpt lat="45.98945" lon="1.41348">
        <ele>445.8</ele>
        <time>2012-09-07T13:50:04Z</time>
      </trkpt>
      <trkpt lat="45.98947" lon="1.41342">
        <ele>445.8</ele>
        <time>2012-09-07T13:50:06Z</time>
      </trkpt>
      <trkpt lat="45.98949" lon="1.41335">
        <ele>445.6</ele>
        <time>2012-09-07T13:50:08Z</time>
      </trkpt>
      <trkpt lat="45.98947" lon="1.41317">
        <ele>445.6</ele>
        <time>2012-09-07T13:50:14Z</time>
      </trkpt>
      <trkpt lat="45.98944" lon="1.41293">
        <ele>446</ele>
        <time>2012-09-07T13:50:22Z</time>
      </trkpt>
      <trkpt lat="45.9895" lon="1.41275">
        <ele>446.6</ele>
        <time>2012-09-07T13:50:29Z</time>
      </trkpt>
      <trkpt lat="45.98958" lon="1.41254">
        <ele>446.8</ele>
        <time>2012-09-07T13:50:36Z</time>
      </trkpt>
      <trkpt lat="45.98968" lon="1.41232">
        <ele>446.8</ele>
        <time>2012-09-07T13:50:42Z</time>
      </trkpt>
      <trkpt lat="45.9897" lon="1.41228">
        <ele>446.8</ele>
        <time>2012-09-07T13:50:43Z</time>
      </trkpt>
      <trkpt lat="45.98975" lon="1.41206">
        <ele>446.6</ele>
        <time>2012-09-07T13:50:47Z</time>
      </trkpt>
      <trkpt lat="45.98974" lon="1.41179">
        <ele>446.4</ele>
        <time>2012-09-07T13:50:52Z</time>
      </trkpt>
      <trkpt lat="45.98972" lon="1.41176">
        <ele>446.4</ele>
        <time>2012-09-07T13:50:53Z</time>
      </trkpt>
      <trkpt lat="45.98965" lon="1.41159">
        <ele>446</ele>
        <time>2012-09-07T13:50:58Z</time>
      </trkpt>
      <trkpt lat="45.98972" lon="1.41141">
        <ele>445.6</ele>
        <time>2012-09-07T13:51:02Z</time>
      </trkpt>
      <trkpt lat="45.98974" lon="1.41137">
        <ele>445.4</ele>
        <time>2012-09-07T13:51:03Z</time>
      </trkpt>
      <trkpt lat="45.98975" lon="1.41132">
        <ele>445.4</ele>
        <time>2012-09-07T13:51:04Z</time>
      </trkpt>
      <trkpt lat="45.98974" lon="1.41122">
        <ele>445.2</ele>
        <time>2012-09-07T13:51:06Z</time>
      </trkpt>
      <trkpt lat="45.98971" lon="1.411">
        <ele>444.6</ele>
        <time>2012-09-07T13:51:11Z</time>
      </trkpt>
      <trkpt lat="45.98968" lon="1.41075">
        <ele>444.2</ele>
        <time>2012-09-07T13:51:16Z</time>
      </trkpt>
      <trkpt lat="45.98967" lon="1.4105">
        <ele>443.8</ele>
        <time>2012-09-07T13:51:20Z</time>
      </trkpt>
      <trkpt lat="45.98957" lon="1.41033">
        <ele>443.4</ele>
        <time>2012-09-07T13:51:24Z</time>
      </trkpt>
      <trkpt lat="45.98942" lon="1.41026">
        <ele>442.6</ele>
        <time>2012-09-07T13:51:29Z</time>
      </trkpt>
      <trkpt lat="45.9894" lon="1.41022">
        <ele>442.4</ele>
        <time>2012-09-07T13:51:30Z</time>
      </trkpt>
      <trkpt lat="45.98937" lon="1.41013">
        <ele>442</ele>
        <time>2012-09-07T13:51:32Z</time>
      </trkpt>
      <trkpt lat="45.98937" lon="1.40991">
        <ele>441</ele>
        <time>2012-09-07T13:51:37Z</time>
      </trkpt>
      <trkpt lat="45.98934" lon="1.40966">
        <ele>440.2</ele>
        <time>2012-09-07T13:51:41Z</time>
      </trkpt>
      <trkpt lat="45.98929" lon="1.40954">
        <ele>439.6</ele>
        <time>2012-09-07T13:51:43Z</time>
      </trkpt>
      <trkpt lat="45.9892" lon="1.40939">
        <ele>439</ele>
        <time>2012-09-07T13:51:46Z</time>
      </trkpt>
      <trkpt lat="45.9891" lon="1.40934">
        <ele>438.2</ele>
        <time>2012-09-07T13:51:50Z</time>
      </trkpt>
      <trkpt lat="45.98894" lon="1.40922">
        <ele>436.8</ele>
        <time>2012-09-07T13:51:57Z</time>
      </trkpt>
      <trkpt lat="45.98894" lon="1.4092">
        <ele>436.6</ele>
        <time>2012-09-07T13:51:58Z</time>
      </trkpt>
      <trkpt lat="45.98892" lon="1.40913">
        <ele>436</ele>
        <time>2012-09-07T13:52:01Z</time>
      </trkpt>
      <trkpt lat="45.98893" lon="1.40899">
        <ele>435.2</ele>
        <time>2012-09-07T13:52:06Z</time>
      </trkpt>
      <trkpt lat="45.98894" lon="1.40897">
        <ele>435</ele>
        <time>2012-09-07T13:52:07Z</time>
      </trkpt>
      <trkpt lat="45.98893" lon="1.40889">
        <ele>434.4</ele>
        <time>2012-09-07T13:52:10Z</time>
      </trkpt>
      <trkpt lat="45.98886" lon="1.40871">
        <ele>433.4</ele>
        <time>2012-09-07T13:52:16Z</time>
      </trkpt>
      <trkpt lat="45.98885" lon="1.40868">
        <ele>433.2</ele>
        <time>2012-09-07T13:52:17Z</time>
      </trkpt>
      <trkpt lat="45.9888" lon="1.40849">
        <ele>432.4</ele>
        <time>2012-09-07T13:52:21Z</time>
      </trkpt>
      <trkpt lat="45.9887" lon="1.40829">
        <ele>432</ele>
        <time>2012-09-07T13:52:25Z</time>
      </trkpt>
      <trkpt lat="45.98857" lon="1.4081">
        <ele>431.2</ele>
        <time>2012-09-07T13:52:31Z</time>
      </trkpt>
      <trkpt lat="45.98847" lon="1.40795">
        <ele>430.6</ele>
        <time>2012-09-07T13:52:36Z</time>
      </trkpt>
      <trkpt lat="45.98826" lon="1.40791">
        <ele>430</ele>
        <time>2012-09-07T13:52:41Z</time>
      </trkpt>
      <trkpt lat="45.98807" lon="1.40789">
        <ele>429.2</ele>
        <time>2012-09-07T13:52:47Z</time>
      </trkpt>
      <trkpt lat="45.98797" lon="1.40789">
        <ele>428.6</ele>
        <time>2012-09-07T13:52:52Z</time>
      </trkpt>
      <trkpt lat="45.98786" lon="1.40788">
        <ele>428</ele>
        <time>2012-09-07T13:52:59Z</time>
      </trkpt>
      <trkpt lat="45.98781" lon="1.40783">
        <ele>427.8</ele>
        <time>2012-09-07T13:53:03Z</time>
      </trkpt>
      <trkpt lat="45.98781" lon="1.40781">
        <ele>427.6</ele>
        <time>2012-09-07T13:53:04Z</time>
      </trkpt>
      <trkpt lat="45.98776" lon="1.40774">
        <ele>427.4</ele>
        <time>2012-09-07T13:53:10Z</time>
      </trkpt>
      <trkpt lat="45.98775" lon="1.40774">
        <ele>427.2</ele>
        <time>2012-09-07T13:53:11Z</time>
      </trkpt>
      <trkpt lat="45.9877" lon="1.40769">
        <ele>427.2</ele>
        <time>2012-09-07T13:53:14Z</time>
      </trkpt>
      <trkpt lat="45.98764" lon="1.40765">
        <ele>427</ele>
        <time>2012-09-07T13:53:20Z</time>
      </trkpt>
      <trkpt lat="45.98759" lon="1.40763">
        <ele>427</ele>
        <time>2012-09-07T13:53:25Z</time>
      </trkpt>
      <trkpt lat="45.98755" lon="1.40761">
        <ele>427.4</ele>
        <time>2012-09-07T13:53:28Z</time>
      </trkpt>
      <trkpt lat="45.98752" lon="1.40759">
        <ele>428</ele>
        <time>2012-09-07T13:53:31Z</time>
      </trkpt>
      <trkpt lat="45.98748" lon="1.40751">
        <ele>429</ele>
        <time>2012-09-07T13:53:36Z</time>
      </trkpt>
      <trkpt lat="45.98747" lon="1.4074">
        <ele>430.2</ele>
        <time>2012-09-07T13:53:42Z</time>
      </trkpt>
      <trkpt lat="45.98744" lon="1.40728">
        <ele>431.2</ele>
        <time>2012-09-07T13:53:49Z</time>
      </trkpt>
      <trkpt lat="45.98742" lon="1.40715">
        <ele>431.8</ele>
        <time>2012-09-07T13:53:56Z</time>
      </trkpt>
      <trkpt lat="45.9874" lon="1.40711">
        <ele>432.2</ele>
        <time>2012-09-07T13:53:59Z</time>
      </trkpt>
      <trkpt lat="45.9874" lon="1.4071">
        <ele>432.2</ele>
        <time>2012-09-07T13:54:00Z</time>
      </trkpt>
      <trkpt lat="45.98739" lon="1.40708">
        <ele>432.2</ele>
        <time>2012-09-07T13:54:01Z</time>
      </trkpt>
      <trkpt lat="45.98736" lon="1.40702">
        <ele>432.2</ele>
        <time>2012-09-07T13:54:04Z</time>
      </trkpt>
      <trkpt lat="45.98731" lon="1.40689">
        <ele>432.4</ele>
        <time>2012-09-07T13:54:11Z</time>
      </trkpt>
      <trkpt lat="45.98723" lon="1.40675">
        <ele>432.6</ele>
        <time>2012-09-07T13:54:18Z</time>
      </trkpt>
      <trkpt lat="45.98714" lon="1.40665">
        <ele>433</ele>
        <time>2012-09-07T13:54:24Z</time>
      </trkpt>
      <trkpt lat="45.9871" lon="1.40665">
        <ele>433.4</ele>
        <time>2012-09-07T13:54:26Z</time>
      </trkpt>
      <trkpt lat="45.98704" lon="1.40661">
        <ele>434.2</ele>
        <time>2012-09-07T13:54:29Z</time>
      </trkpt>
      <trkpt lat="45.98693" lon="1.40656">
        <ele>434.8</ele>
        <time>2012-09-07T13:54:34Z</time>
      </trkpt>
      <trkpt lat="45.98682" lon="1.40649">
        <ele>435.4</ele>
        <time>2012-09-07T13:54:40Z</time>
      </trkpt>
      <trkpt lat="45.98675" lon="1.40645">
        <ele>436.2</ele>
        <time>2012-09-07T13:54:44Z</time>
      </trkpt>
      <trkpt lat="45.98672" lon="1.40643">
        <ele>436.4</ele>
        <time>2012-09-07T13:54:46Z</time>
      </trkpt>
      <trkpt lat="45.98662" lon="1.40638">
        <ele>437</ele>
        <time>2012-09-07T13:54:52Z</time>
      </trkpt>
      <trkpt lat="45.98647" lon="1.40636">
        <ele>437.2</ele>
        <time>2012-09-07T13:54:57Z</time>
      </trkpt>
      <trkpt lat="45.98635" lon="1.40637">
        <ele>437</ele>
        <time>2012-09-07T13:55:01Z</time>
      </trkpt>
      <trkpt lat="45.98619" lon="1.40629">
        <ele>436.8</ele>
        <time>2012-09-07T13:55:06Z</time>
      </trkpt>
      <trkpt lat="45.98601" lon="1.40618">
        <ele>436.6</ele>
        <time>2012-09-07T13:55:11Z</time>
      </trkpt>
      <trkpt lat="45.98598" lon="1.40616">
        <ele>436.6</ele>
        <time>2012-09-07T13:55:12Z</time>
      </trkpt>
      <trkpt lat="45.98584" lon="1.40606">
        <ele>436.4</ele>
        <time>2012-09-07T13:55:17Z</time>
      </trkpt>
      <trkpt lat="45.98569" lon="1.40586">
        <ele>436</ele>
        <time>2012-09-07T13:55:23Z</time>
      </trkpt>
      <trkpt lat="45.98562" lon="1.40573">
        <ele>435.4</ele>
        <time>2012-09-07T13:55:28Z</time>
      </trkpt>
      <trkpt lat="45.98557" lon="1.40567">
        <ele>435.2</ele>
        <time>2012-09-07T13:55:35Z</time>
      </trkpt>
      <trkpt lat="45.98561" lon="1.40556">
        <ele>439.8</ele>
        <time>2012-09-07T13:56:30Z</time>
      </trkpt>
      <trkpt lat="45.98561" lon="1.40554">
        <ele>439.8</ele>
        <time>2012-09-07T13:56:31Z</time>
      </trkpt>
      <trkpt lat="45.98562" lon="1.40549">
        <ele>440</ele>
        <time>2012-09-07T13:56:35Z</time>
      </trkpt>
      <trkpt lat="45.98564" lon="1.40544">
        <ele>440.2</ele>
        <time>2012-09-07T13:56:38Z</time>
      </trkpt>
      <trkpt lat="45.98565" lon="1.40538">
        <ele>440</ele>
        <time>2012-09-07T13:56:42Z</time>
      </trkpt>
      <trkpt lat="45.98567" lon="1.40525">
        <ele>440.2</ele>
        <time>2012-09-07T13:56:50Z</time>
      </trkpt>
      <trkpt lat="45.98567" lon="1.40522">
        <ele>440.4</ele>
        <time>2012-09-07T13:56:53Z</time>
      </trkpt>
      <trkpt lat="45.98567" lon="1.40517">
        <ele>440.6</ele>
        <time>2012-09-07T13:56:57Z</time>
      </trkpt>
      <trkpt lat="45.98567" lon="1.40509">
        <ele>441.4</ele>
        <time>2012-09-07T13:57:02Z</time>
      </trkpt>
      <trkpt lat="45.98568" lon="1.40499">
        <ele>441.8</ele>
        <time>2012-09-07T13:57:08Z</time>
      </trkpt>
      <trkpt lat="45.98569" lon="1.4049">
        <ele>442</ele>
        <time>2012-09-07T13:57:13Z</time>
      </trkpt>
      <trkpt lat="45.9857" lon="1.40478">
        <ele>442.2</ele>
        <time>2012-09-07T13:57:20Z</time>
      </trkpt>
      <trkpt lat="45.98574" lon="1.40466">
        <ele>442.2</ele>
        <time>2012-09-07T13:57:27Z</time>
      </trkpt>
      <trkpt lat="45.98576" lon="1.40457">
        <ele>442.2</ele>
        <time>2012-09-07T13:57:32Z</time>
      </trkpt>
      <trkpt lat="45.98576" lon="1.40452">
        <ele>442.4</ele>
        <time>2012-09-07T13:57:35Z</time>
      </trkpt>
      <trkpt lat="45.98578" lon="1.40444">
        <ele>443</ele>
        <time>2012-09-07T13:57:42Z</time>
      </trkpt>
      <trkpt lat="45.98582" lon="1.40449">
        <ele>443.6</ele>
        <time>2012-09-07T13:57:50Z</time>
      </trkpt>
      <trkpt lat="45.98585" lon="1.40456">
        <ele>444</ele>
        <time>2012-09-07T13:57:57Z</time>
      </trkpt>
      <trkpt lat="45.98588" lon="1.40464">
        <ele>444.6</ele>
        <time>2012-09-07T13:58:04Z</time>
      </trkpt>
      <trkpt lat="45.98591" lon="1.40472">
        <ele>445.2</ele>
        <time>2012-09-07T13:58:10Z</time>
      </trkpt>
      <trkpt lat="45.98597" lon="1.40481">
        <ele>446.2</ele>
        <time>2012-09-07T13:58:18Z</time>
      </trkpt>
      <trkpt lat="45.986" lon="1.40485">
        <ele>446.6</ele>
        <time>2012-09-07T13:58:22Z</time>
      </trkpt>
      <trkpt lat="45.98601" lon="1.40486">
        <ele>447</ele>
        <time>2012-09-07T13:58:25Z</time>
      </trkpt>
      <trkpt lat="45.98604" lon="1.40493">
        <ele>448</ele>
        <time>2012-09-07T13:58:30Z</time>
      </trkpt>
      <trkpt lat="45.98605" lon="1.40496">
        <ele>448.2</ele>
        <time>2012-09-07T13:58:32Z</time>
      </trkpt>
      <trkpt lat="45.98607" lon="1.40497">
        <ele>448.6</ele>
        <time>2012-09-07T13:58:34Z</time>
      </trkpt>
      <trkpt lat="45.98609" lon="1.405">
        <ele>449.2</ele>
        <time>2012-09-07T13:58:38Z</time>
      </trkpt>
      <trkpt lat="45.98615" lon="1.40506">
        <ele>450</ele>
        <time>2012-09-07T13:58:44Z</time>
      </trkpt>
      <trkpt lat="45.98618" lon="1.40508">
        <ele>450.2</ele>
        <time>2012-09-07T13:58:47Z</time>
      </trkpt>
      <trkpt lat="45.98619" lon="1.40509">
        <ele>450.2</ele>
        <time>2012-09-07T13:58:48Z</time>
      </trkpt>
      <trkpt lat="45.98621" lon="1.4051">
        <ele>450.4</ele>
        <time>2012-09-07T13:58:50Z</time>
      </trkpt>
      <trkpt lat="45.98626" lon="1.40514">
        <ele>450.2</ele>
        <time>2012-09-07T13:58:55Z</time>
      </trkpt>
      <trkpt lat="45.98628" lon="1.40516">
        <ele>450.4</ele>
        <time>2012-09-07T13:58:57Z</time>
      </trkpt>
      <trkpt lat="45.98633" lon="1.4052">
        <ele>450.2</ele>
        <time>2012-09-07T13:59:01Z</time>
      </trkpt>
      <trkpt lat="45.98634" lon="1.40521">
        <ele>450.2</ele>
        <time>2012-09-07T13:59:02Z</time>
      </trkpt>
      <trkpt lat="45.98642" lon="1.40527">
        <ele>450.2</ele>
        <time>2012-09-07T13:59:08Z</time>
      </trkpt>
      <trkpt lat="45.98645" lon="1.40531">
        <ele>450.4</ele>
        <time>2012-09-07T13:59:11Z</time>
      </trkpt>
      <trkpt lat="45.98649" lon="1.40532">
        <ele>450.4</ele>
        <time>2012-09-07T13:59:15Z</time>
      </trkpt>
      <trkpt lat="45.98658" lon="1.4054">
        <ele>451.4</ele>
        <time>2012-09-07T13:59:22Z</time>
      </trkpt>
      <trkpt lat="45.98666" lon="1.40544">
        <ele>452.4</ele>
        <time>2012-09-07T13:59:28Z</time>
      </trkpt>
      <trkpt lat="45.98674" lon="1.40547">
        <ele>454.2</ele>
        <time>2012-09-07T13:59:35Z</time>
      </trkpt>
      <trkpt lat="45.98684" lon="1.40547">
        <ele>455.8</ele>
        <time>2012-09-07T13:59:43Z</time>
      </trkpt>
      <trkpt lat="45.98685" lon="1.40548">
        <ele>456</ele>
        <time>2012-09-07T13:59:44Z</time>
      </trkpt>
      <trkpt lat="45.98694" lon="1.40546">
        <ele>456.8</ele>
        <time>2012-09-07T13:59:50Z</time>
      </trkpt>
      <trkpt lat="45.98696" lon="1.40546">
        <ele>456.8</ele>
        <time>2012-09-07T13:59:51Z</time>
      </trkpt>
      <trkpt lat="45.98703" lon="1.40545">
        <ele>457.2</ele>
        <time>2012-09-07T13:59:55Z</time>
      </trkpt>
      <trkpt lat="45.98715" lon="1.40544">
        <ele>457.8</ele>
        <time>2012-09-07T14:00:02Z</time>
      </trkpt>
      <trkpt lat="45.98725" lon="1.40542">
        <ele>457.6</ele>
        <time>2012-09-07T14:00:09Z</time>
      </trkpt>
      <trkpt lat="45.98735" lon="1.40542">
        <ele>457.8</ele>
        <time>2012-09-07T14:00:16Z</time>
      </trkpt>
      <trkpt lat="45.98746" lon="1.40542">
        <ele>458.2</ele>
        <time>2012-09-07T14:00:24Z</time>
      </trkpt>
      <trkpt lat="45.98747" lon="1.40541">
        <ele>458.2</ele>
        <time>2012-09-07T14:00:25Z</time>
      </trkpt>
      <trkpt lat="45.98753" lon="1.40543">
        <ele>458.6</ele>
        <time>2012-09-07T14:00:30Z</time>
      </trkpt>
      <trkpt lat="45.9876" lon="1.40542">
        <ele>459.6</ele>
        <time>2012-09-07T14:00:37Z</time>
      </trkpt>
      <trkpt lat="45.98773" lon="1.40538">
        <ele>460.6</ele>
        <time>2012-09-07T14:00:45Z</time>
      </trkpt>
      <trkpt lat="45.98777" lon="1.40534">
        <ele>461.2</ele>
        <time>2012-09-07T14:00:49Z</time>
      </trkpt>
      <trkpt lat="45.9878" lon="1.40531">
        <ele>461.6</ele>
        <time>2012-09-07T14:00:52Z</time>
      </trkpt>
      <trkpt lat="45.98787" lon="1.40522">
        <ele>462.8</ele>
        <time>2012-09-07T14:01:00Z</time>
      </trkpt>
      <trkpt lat="45.98793" lon="1.40513">
        <ele>464</ele>
        <time>2012-09-07T14:01:07Z</time>
      </trkpt>
      <trkpt lat="45.98794" lon="1.4051">
        <ele>464.6</ele>
        <time>2012-09-07T14:01:09Z</time>
      </trkpt>
      <trkpt lat="45.98791" lon="1.40504">
        <ele>465.6</ele>
        <time>2012-09-07T14:01:13Z</time>
      </trkpt>
      <trkpt lat="45.98789" lon="1.40501">
        <ele>466.8</ele>
        <time>2012-09-07T14:01:16Z</time>
      </trkpt>
      <trkpt lat="45.98786" lon="1.40497">
        <ele>467.8</ele>
        <time>2012-09-07T14:01:20Z</time>
      </trkpt>
      <trkpt lat="45.98779" lon="1.40492">
        <ele>469.8</ele>
        <time>2012-09-07T14:01:28Z</time>
      </trkpt>
      <trkpt lat="45.9878" lon="1.4049">
        <ele>471.6</ele>
        <time>2012-09-07T14:01:36Z</time>
      </trkpt>
      <trkpt lat="45.98783" lon="1.40488">
        <ele>476.4</ele>
        <time>2012-09-07T14:02:04Z</time>
      </trkpt>
      <trkpt lat="45.98781" lon="1.40484">
        <ele>490.6</ele>
        <time>2012-09-07T14:05:24Z</time>
      </trkpt>
      <trkpt lat="45.98779" lon="1.40477">
        <ele>490.4</ele>
        <time>2012-09-07T14:05:27Z</time>
      </trkpt>
      <trkpt lat="45.98772" lon="1.40458">
        <ele>490</ele>
        <time>2012-09-07T14:05:34Z</time>
      </trkpt>
      <trkpt lat="45.98763" lon="1.40448">
        <ele>489.8</ele>
        <time>2012-09-07T14:05:40Z</time>
      </trkpt>
      <trkpt lat="45.98761" lon="1.40448">
        <ele>489.8</ele>
        <time>2012-09-07T14:05:41Z</time>
      </trkpt>
      <trkpt lat="45.98755" lon="1.40449">
        <ele>489.6</ele>
        <time>2012-09-07T14:05:44Z</time>
      </trkpt>
      <trkpt lat="45.9875" lon="1.40448">
        <ele>489.6</ele>
        <time>2012-09-07T14:05:46Z</time>
      </trkpt>
      <trkpt lat="45.98741" lon="1.40449">
        <ele>489.6</ele>
        <time>2012-09-07T14:05:50Z</time>
      </trkpt>
      <trkpt lat="45.98727" lon="1.40446">
        <ele>489.6</ele>
        <time>2012-09-07T14:05:56Z</time>
      </trkpt>
      <trkpt lat="45.98714" lon="1.4043">
        <ele>489.6</ele>
        <time>2012-09-07T14:06:03Z</time>
      </trkpt>
      <trkpt lat="45.98708" lon="1.40405">
        <ele>489.6</ele>
        <time>2012-09-07T14:06:10Z</time>
      </trkpt>
      <trkpt lat="45.98705" lon="1.40387">
        <ele>489.6</ele>
        <time>2012-09-07T14:06:16Z</time>
      </trkpt>
      <trkpt lat="45.98701" lon="1.40364">
        <ele>489.6</ele>
        <time>2012-09-07T14:06:23Z</time>
      </trkpt>
      <trkpt lat="45.98697" lon="1.40342">
        <ele>489.4</ele>
        <time>2012-09-07T14:06:29Z</time>
      </trkpt>
      <trkpt lat="45.98696" lon="1.40318">
        <ele>489.4</ele>
        <time>2012-09-07T14:06:36Z</time>
      </trkpt>
      <trkpt lat="45.98702" lon="1.4031">
        <ele>489.2</ele>
        <time>2012-09-07T14:06:41Z</time>
      </trkpt>
      <trkpt lat="45.9871" lon="1.40302">
        <ele>489.2</ele>
        <time>2012-09-07T14:06:48Z</time>
      </trkpt>
      <trkpt lat="45.98718" lon="1.40289">
        <ele>489.6</ele>
        <time>2012-09-07T14:06:57Z</time>
      </trkpt>
      <trkpt lat="45.98721" lon="1.40285">
        <ele>489.8</ele>
        <time>2012-09-07T14:07:00Z</time>
      </trkpt>
      <trkpt lat="45.98724" lon="1.40281">
        <ele>490.2</ele>
        <time>2012-09-07T14:07:03Z</time>
      </trkpt>
      <trkpt lat="45.98729" lon="1.40274">
        <ele>490.8</ele>
        <time>2012-09-07T14:07:08Z</time>
      </trkpt>
      <trkpt lat="45.98731" lon="1.40271">
        <ele>491</ele>
        <time>2012-09-07T14:07:10Z</time>
      </trkpt>
      <trkpt lat="45.98738" lon="1.4026">
        <ele>491.4</ele>
        <time>2012-09-07T14:07:18Z</time>
      </trkpt>
      <trkpt lat="45.98745" lon="1.40249">
        <ele>491.8</ele>
        <time>2012-09-07T14:07:26Z</time>
      </trkpt>
      <trkpt lat="45.98752" lon="1.40236">
        <ele>492.4</ele>
        <time>2012-09-07T14:07:35Z</time>
      </trkpt>
      <trkpt lat="45.98752" lon="1.40235">
        <ele>492.8</ele>
        <time>2012-09-07T14:07:37Z</time>
      </trkpt>
      <trkpt lat="45.98753" lon="1.40235">
        <ele>492.8</ele>
        <time>2012-09-07T14:07:39Z</time>
      </trkpt>
      <trkpt lat="45.98756" lon="1.4023">
        <ele>493.4</ele>
        <time>2012-09-07T14:07:45Z</time>
      </trkpt>
      <trkpt lat="45.98761" lon="1.40221">
        <ele>494.2</ele>
        <time>2012-09-07T14:07:54Z</time>
      </trkpt>
      <trkpt lat="45.98766" lon="1.40214">
        <ele>495</ele>
        <time>2012-09-07T14:08:04Z</time>
      </trkpt>
      <trkpt lat="45.98771" lon="1.40214">
        <ele>496</ele>
        <time>2012-09-07T14:08:10Z</time>
      </trkpt>
      <trkpt lat="45.98771" lon="1.40213">
        <ele>497.2</ele>
        <time>2012-09-07T14:08:18Z</time>
      </trkpt>
      <trkpt lat="45.98776" lon="1.40214">
        <ele>500</ele>
        <time>2012-09-07T14:08:46Z</time>
      </trkpt>
      <trkpt lat="45.98777" lon="1.40216">
        <ele>500.2</ele>
        <time>2012-09-07T14:08:47Z</time>
      </trkpt>
      <trkpt lat="45.9878" lon="1.40219">
        <ele>500.6</ele>
        <time>2012-09-07T14:08:51Z</time>
      </trkpt>
      <trkpt lat="45.98781" lon="1.4022">
        <ele>500.8</ele>
        <time>2012-09-07T14:08:52Z</time>
      </trkpt>
      <trkpt lat="45.98789" lon="1.40223">
        <ele>501.4</ele>
        <time>2012-09-07T14:08:59Z</time>
      </trkpt>
      <trkpt lat="45.9879" lon="1.40222">
        <ele>501.4</ele>
        <time>2012-09-07T14:09:00Z</time>
      </trkpt>
      <trkpt lat="45.98791" lon="1.40218">
        <ele>502.2</ele>
        <time>2012-09-07T14:09:04Z</time>
      </trkpt>
      <trkpt lat="45.98793" lon="1.40214">
        <ele>502.6</ele>
        <time>2012-09-07T14:09:07Z</time>
      </trkpt>
      <trkpt lat="45.98796" lon="1.40211">
        <ele>502.8</ele>
        <time>2012-09-07T14:09:11Z</time>
      </trkpt>
      <trkpt lat="45.98801" lon="1.40203">
        <ele>503.6</ele>
        <time>2012-09-07T14:09:18Z</time>
      </trkpt>
      <trkpt lat="45.98804" lon="1.40194">
        <ele>504.4</ele>
        <time>2012-09-07T14:09:26Z</time>
      </trkpt>
      <trkpt lat="45.98805" lon="1.40193">
        <ele>504.6</ele>
        <time>2012-09-07T14:09:27Z</time>
      </trkpt>
      <trkpt lat="45.98809" lon="1.4019">
        <ele>505.4</ele>
        <time>2012-09-07T14:09:33Z</time>
      </trkpt>
      <trkpt lat="45.9881" lon="1.4019">
        <ele>505.6</ele>
        <time>2012-09-07T14:09:34Z</time>
      </trkpt>
      <trkpt lat="45.98815" lon="1.40187">
        <ele>506.2</ele>
        <time>2012-09-07T14:09:39Z</time>
      </trkpt>
      <trkpt lat="45.98816" lon="1.40187">
        <ele>506.4</ele>
        <time>2012-09-07T14:09:40Z</time>
      </trkpt>
      <trkpt lat="45.98818" lon="1.40186">
        <ele>506.8</ele>
        <time>2012-09-07T14:09:42Z</time>
      </trkpt>
      <trkpt lat="45.98821" lon="1.40186">
        <ele>507.6</ele>
        <time>2012-09-07T14:09:46Z</time>
      </trkpt>
      <trkpt lat="45.98824" lon="1.40183">
        <ele>508.2</ele>
        <time>2012-09-07T14:09:50Z</time>
      </trkpt>
      <trkpt lat="45.98824" lon="1.40181">
        <ele>508.4</ele>
        <time>2012-09-07T14:09:52Z</time>
      </trkpt>
      <trkpt lat="45.98827" lon="1.40179">
        <ele>509.2</ele>
        <time>2012-09-07T14:09:56Z</time>
      </trkpt>
      <trkpt lat="45.9883" lon="1.40176">
        <ele>509.6</ele>
        <time>2012-09-07T14:09:59Z</time>
      </trkpt>
      <trkpt lat="45.9883" lon="1.40175">
        <ele>509.6</ele>
        <time>2012-09-07T14:10:00Z</time>
      </trkpt>
      <trkpt lat="45.98831" lon="1.40173">
        <ele>510</ele>
        <time>2012-09-07T14:10:02Z</time>
      </trkpt>
      <trkpt lat="45.98832" lon="1.40169">
        <ele>510.6</ele>
        <time>2012-09-07T14:10:05Z</time>
      </trkpt>
      <trkpt lat="45.98833" lon="1.40168">
        <ele>510.8</ele>
        <time>2012-09-07T14:10:06Z</time>
      </trkpt>
      <trkpt lat="45.98834" lon="1.40166">
        <ele>511.2</ele>
        <time>2012-09-07T14:10:08Z</time>
      </trkpt>
      <trkpt lat="45.98836" lon="1.40165">
        <ele>511.6</ele>
        <time>2012-09-07T14:10:10Z</time>
      </trkpt>
      <trkpt lat="45.9884" lon="1.40161">
        <ele>513.4</ele>
        <time>2012-09-07T14:10:16Z</time>
      </trkpt>
      <trkpt lat="45.98843" lon="1.40158">
        <ele>514.6</ele>
        <time>2012-09-07T14:10:21Z</time>
      </trkpt>
      <trkpt lat="45.98845" lon="1.40158">
        <ele>515</ele>
        <time>2012-09-07T14:10:23Z</time>
      </trkpt>
      <trkpt lat="45.98853" lon="1.40158">
        <ele>516.4</ele>
        <time>2012-09-07T14:10:32Z</time>
      </trkpt>
      <trkpt lat="45.98856" lon="1.40158">
        <ele>517</ele>
        <time>2012-09-07T14:10:35Z</time>
      </trkpt>
      <trkpt lat="45.98859" lon="1.40162">
        <ele>517.8</ele>
        <time>2012-09-07T14:10:39Z</time>
      </trkpt>
      <trkpt lat="45.9886" lon="1.40163">
        <ele>518</ele>
        <time>2012-09-07T14:10:40Z</time>
      </trkpt>
      <trkpt lat="45.98862" lon="1.40168">
        <ele>519.2</ele>
        <time>2012-09-07T14:10:45Z</time>
      </trkpt>
      <trkpt lat="45.98864" lon="1.4017">
        <ele>519.6</ele>
        <time>2012-09-07T14:10:47Z</time>
      </trkpt>
      <trkpt lat="45.98865" lon="1.4017">
        <ele>519.8</ele>
        <time>2012-09-07T14:10:49Z</time>
      </trkpt>
      <trkpt lat="45.98869" lon="1.40174">
        <ele>520.8</ele>
        <time>2012-09-07T14:10:55Z</time>
      </trkpt>
      <trkpt lat="45.98869" lon="1.40175">
        <ele>520.8</ele>
        <time>2012-09-07T14:10:56Z</time>
      </trkpt>
      <trkpt lat="45.98872" lon="1.40182">
        <ele>522.6</ele>
        <time>2012-09-07T14:11:02Z</time>
      </trkpt>
      <trkpt lat="45.98873" lon="1.40181">
        <ele>522.8</ele>
        <time>2012-09-07T14:11:03Z</time>
      </trkpt>
      <trkpt lat="45.98874" lon="1.40182">
        <ele>523</ele>
        <time>2012-09-07T14:11:04Z</time>
      </trkpt>
      <trkpt lat="45.98879" lon="1.40183">
        <ele>523.8</ele>
        <time>2012-09-07T14:11:08Z</time>
      </trkpt>
      <trkpt lat="45.9888" lon="1.40184">
        <ele>524.4</ele>
        <time>2012-09-07T14:11:11Z</time>
      </trkpt>
      <trkpt lat="45.98884" lon="1.40187">
        <ele>525.2</ele>
        <time>2012-09-07T14:11:15Z</time>
      </trkpt>
      <trkpt lat="45.98884" lon="1.40187">
        <ele>525.4</ele>
        <time>2012-09-07T14:11:16Z</time>
      </trkpt>
      <trkpt lat="45.98885" lon="1.4019">
        <ele>526.2</ele>
        <time>2012-09-07T14:11:19Z</time>
      </trkpt>
      <trkpt lat="45.98887" lon="1.40192">
        <ele>526.4</ele>
        <time>2012-09-07T14:11:21Z</time>
      </trkpt>
      <trkpt lat="45.98892" lon="1.40195">
        <ele>527.2</ele>
        <time>2012-09-07T14:11:26Z</time>
      </trkpt>
      <trkpt lat="45.98894" lon="1.40196">
        <ele>527.6</ele>
        <time>2012-09-07T14:11:29Z</time>
      </trkpt>
      <trkpt lat="45.98899" lon="1.40201">
        <ele>528.4</ele>
        <time>2012-09-07T14:11:35Z</time>
      </trkpt>
      <trkpt lat="45.98899" lon="1.40202">
        <ele>528.6</ele>
        <time>2012-09-07T14:11:36Z</time>
      </trkpt>
      <trkpt lat="45.98904" lon="1.40208">
        <ele>529.4</ele>
        <time>2012-09-07T14:11:43Z</time>
      </trkpt>
      <trkpt lat="45.9891" lon="1.4021">
        <ele>530.2</ele>
        <time>2012-09-07T14:11:50Z</time>
      </trkpt>
      <trkpt lat="45.98911" lon="1.4021">
        <ele>530.4</ele>
        <time>2012-09-07T14:11:51Z</time>
      </trkpt>
      <trkpt lat="45.98915" lon="1.4021">
        <ele>530.6</ele>
        <time>2012-09-07T14:11:55Z</time>
      </trkpt>
      <trkpt lat="45.98917" lon="1.4021">
        <ele>531</ele>
        <time>2012-09-07T14:11:58Z</time>
      </trkpt>
      <trkpt lat="45.98921" lon="1.40212">
        <ele>531.6</ele>
        <time>2012-09-07T14:12:05Z</time>
      </trkpt>
      <trkpt lat="45.98924" lon="1.4021">
        <ele>532.4</ele>
        <time>2012-09-07T14:12:09Z</time>
      </trkpt>
      <trkpt lat="45.98929" lon="1.40207">
        <ele>533.4</ele>
        <time>2012-09-07T14:12:16Z</time>
      </trkpt>
      <trkpt lat="45.98933" lon="1.40203">
        <ele>534</ele>
        <time>2012-09-07T14:12:21Z</time>
      </trkpt>
      <trkpt lat="45.98934" lon="1.40202">
        <ele>534</ele>
        <time>2012-09-07T14:12:22Z</time>
      </trkpt>
      <trkpt lat="45.98936" lon="1.40196">
        <ele>534.6</ele>
        <time>2012-09-07T14:12:27Z</time>
      </trkpt>
      <trkpt lat="45.9894" lon="1.40192">
        <ele>535.8</ele>
        <time>2012-09-07T14:12:36Z</time>
      </trkpt>
      <trkpt lat="45.9894" lon="1.40186">
        <ele>537.2</ele>
        <time>2012-09-07T14:12:46Z</time>
      </trkpt>
      <trkpt lat="45.98947" lon="1.40184">
        <ele>539.4</ele>
        <time>2012-09-07T14:12:59Z</time>
      </trkpt>
      <trkpt lat="45.98951" lon="1.40183">
        <ele>541</ele>
        <time>2012-09-07T14:13:06Z</time>
      </trkpt>
      <trkpt lat="45.98957" lon="1.40183">
        <ele>541.8</ele>
        <time>2012-09-07T14:13:13Z</time>
      </trkpt>
      <trkpt lat="45.98963" lon="1.40185">
        <ele>543.4</ele>
        <time>2012-09-07T14:13:22Z</time>
      </trkpt>
      <trkpt lat="45.98967" lon="1.40186">
        <ele>544.4</ele>
        <time>2012-09-07T14:13:31Z</time>
      </trkpt>
      <trkpt lat="45.98972" lon="1.40186">
        <ele>545.2</ele>
        <time>2012-09-07T14:13:39Z</time>
      </trkpt>
      <trkpt lat="45.98979" lon="1.40187">
        <ele>546.2</ele>
        <time>2012-09-07T14:13:47Z</time>
      </trkpt>
      <trkpt lat="45.98983" lon="1.40183">
        <ele>546.8</ele>
        <time>2012-09-07T14:13:52Z</time>
      </trkpt>
      <trkpt lat="45.98984" lon="1.40182">
        <ele>547</ele>
        <time>2012-09-07T14:13:54Z</time>
      </trkpt>
      <trkpt lat="45.98988" lon="1.40176">
        <ele>548.4</ele>
        <time>2012-09-07T14:14:02Z</time>
      </trkpt>
      <trkpt lat="45.98991" lon="1.40174">
        <ele>549</ele>
        <time>2012-09-07T14:14:07Z</time>
      </trkpt>
      <trkpt lat="45.98994" lon="1.40171">
        <ele>549.4</ele>
        <time>2012-09-07T14:14:12Z</time>
      </trkpt>
      <trkpt lat="45.98995" lon="1.4017">
        <ele>549.6</ele>
        <time>2012-09-07T14:14:14Z</time>
      </trkpt>
      <trkpt lat="45.99" lon="1.40168">
        <ele>550</ele>
        <time>2012-09-07T14:14:20Z</time>
      </trkpt>
      <trkpt lat="45.99006" lon="1.40163">
        <ele>550.6</ele>
        <time>2012-09-07T14:14:28Z</time>
      </trkpt>
      <trkpt lat="45.99007" lon="1.40162">
        <ele>550.8</ele>
        <time>2012-09-07T14:14:30Z</time>
      </trkpt>
      <trkpt lat="45.99009" lon="1.40161">
        <ele>551</ele>
        <time>2012-09-07T14:14:33Z</time>
      </trkpt>
      <trkpt lat="45.9901" lon="1.4016">
        <ele>551</ele>
        <time>2012-09-07T14:14:34Z</time>
      </trkpt>
      <trkpt lat="45.99019" lon="1.40158">
        <ele>552</ele>
        <time>2012-09-07T14:14:43Z</time>
      </trkpt>
      <trkpt lat="45.99025" lon="1.40158">
        <ele>552.6</ele>
        <time>2012-09-07T14:14:52Z</time>
      </trkpt>
      <trkpt lat="45.99031" lon="1.4016">
        <ele>553</ele>
        <time>2012-09-07T14:14:59Z</time>
      </trkpt>
      <trkpt lat="45.99036" lon="1.40163">
        <ele>553.6</ele>
        <time>2012-09-07T14:15:07Z</time>
      </trkpt>
      <trkpt lat="45.99036" lon="1.40165">
        <ele>553.8</ele>
        <time>2012-09-07T14:15:09Z</time>
      </trkpt>
      <trkpt lat="45.99039" lon="1.40168">
        <ele>554.6</ele>
        <time>2012-09-07T14:15:13Z</time>
      </trkpt>
      <trkpt lat="45.99044" lon="1.40172">
        <ele>555.4</ele>
        <time>2012-09-07T14:15:20Z</time>
      </trkpt>
      <trkpt lat="45.99045" lon="1.40173">
        <ele>555.4</ele>
        <time>2012-09-07T14:15:21Z</time>
      </trkpt>
      <trkpt lat="45.99051" lon="1.40179">
        <ele>556</ele>
        <time>2012-09-07T14:15:28Z</time>
      </trkpt>
      <trkpt lat="45.99051" lon="1.40181">
        <ele>556.2</ele>
        <time>2012-09-07T14:15:29Z</time>
      </trkpt>
      <trkpt lat="45.99052" lon="1.40181">
        <ele>556.6</ele>
        <time>2012-09-07T14:15:34Z</time>
      </trkpt>
      <trkpt lat="45.99052" lon="1.40183">
        <ele>557.4</ele>
        <time>2012-09-07T14:15:41Z</time>
      </trkpt>
      <trkpt lat="45.99062" lon="1.40189">
        <ele>565.6</ele>
        <time>2012-09-07T14:17:11Z</time>
      </trkpt>
      <trkpt lat="45.99062" lon="1.40192">
        <ele>565.6</ele>
        <time>2012-09-07T14:17:17Z</time>
      </trkpt>
      <trkpt lat="45.99067" lon="1.40196">
        <ele>565.6</ele>
        <time>2012-09-07T14:17:24Z</time>
      </trkpt>
      <trkpt lat="45.99075" lon="1.40202">
        <ele>565.4</ele>
        <time>2012-09-07T14:17:31Z</time>
      </trkpt>
      <trkpt lat="45.99082" lon="1.40207">
        <ele>565.2</ele>
        <time>2012-09-07T14:17:37Z</time>
      </trkpt>
      <trkpt lat="45.9909" lon="1.4021">
        <ele>565</ele>
        <time>2012-09-07T14:17:43Z</time>
      </trkpt>
      <trkpt lat="45.99102" lon="1.40215">
        <ele>564.4</ele>
        <time>2012-09-07T14:17:51Z</time>
      </trkpt>
      <trkpt lat="45.99109" lon="1.4022">
        <ele>564</ele>
        <time>2012-09-07T14:17:56Z</time>
      </trkpt>
      <trkpt lat="45.99118" lon="1.40225">
        <ele>563.8</ele>
        <time>2012-09-07T14:18:03Z</time>
      </trkpt>
      <trkpt lat="45.99119" lon="1.40224">
        <ele>563.6</ele>
        <time>2012-09-07T14:18:04Z</time>
      </trkpt>
      <trkpt lat="45.99122" lon="1.40221">
        <ele>563.8</ele>
        <time>2012-09-07T14:18:08Z</time>
      </trkpt>
      <trkpt lat="45.99122" lon="1.40221">
        <ele>563.8</ele>
        <time>2012-09-07T14:18:09Z</time>
      </trkpt>
      <trkpt lat="45.99124" lon="1.40214">
        <ele>564.6</ele>
        <time>2012-09-07T14:18:14Z</time>
      </trkpt>
      <trkpt lat="45.99126" lon="1.40207">
        <ele>565.8</ele>
        <time>2012-09-07T14:18:20Z</time>
      </trkpt>
      <trkpt lat="45.99126" lon="1.40199">
        <ele>567</ele>
        <time>2012-09-07T14:18:25Z</time>
      </trkpt>
      <trkpt lat="45.99122" lon="1.40183">
        <ele>568.8</ele>
        <time>2012-09-07T14:18:32Z</time>
      </trkpt>
      <trkpt lat="45.99121" lon="1.40174">
        <ele>570</ele>
        <time>2012-09-07T14:18:36Z</time>
      </trkpt>
      <trkpt lat="45.99121" lon="1.40167">
        <ele>570.8</ele>
        <time>2012-09-07T14:18:39Z</time>
      </trkpt>
      <trkpt lat="45.99124" lon="1.4015">
        <ele>572.6</ele>
        <time>2012-09-07T14:18:47Z</time>
      </trkpt>
      <trkpt lat="45.99124" lon="1.40148">
        <ele>573</ele>
        <time>2012-09-07T14:18:48Z</time>
      </trkpt>
      <trkpt lat="45.99127" lon="1.40141">
        <ele>574</ele>
        <time>2012-09-07T14:18:52Z</time>
      </trkpt>
      <trkpt lat="45.99128" lon="1.40138">
        <ele>575</ele>
        <time>2012-09-07T14:18:55Z</time>
      </trkpt>
      <trkpt lat="45.99128" lon="1.40136">
        <ele>575.8</ele>
        <time>2012-09-07T14:18:58Z</time>
      </trkpt>
      <trkpt lat="45.99131" lon="1.40129">
        <ele>577.6</ele>
        <time>2012-09-07T14:19:03Z</time>
      </trkpt>
      <trkpt lat="45.99132" lon="1.40128">
        <ele>577.8</ele>
        <time>2012-09-07T14:19:04Z</time>
      </trkpt>
      <trkpt lat="45.99136" lon="1.40122">
        <ele>580.2</ele>
        <time>2012-09-07T14:19:11Z</time>
      </trkpt>
      <trkpt lat="45.99141" lon="1.40116">
        <ele>581.8</ele>
        <time>2012-09-07T14:19:16Z</time>
      </trkpt>
      <trkpt lat="45.99142" lon="1.40115">
        <ele>582.2</ele>
        <time>2012-09-07T14:19:17Z</time>
      </trkpt>
      <trkpt lat="45.99147" lon="1.40109">
        <ele>584.2</ele>
        <time>2012-09-07T14:19:24Z</time>
      </trkpt>
      <trkpt lat="45.99152" lon="1.40104">
        <ele>586</ele>
        <time>2012-09-07T14:19:31Z</time>
      </trkpt>
      <trkpt lat="45.99156" lon="1.401">
        <ele>586.6</ele>
        <time>2012-09-07T14:19:34Z</time>
      </trkpt>
      <trkpt lat="45.9916" lon="1.40094">
        <ele>587.4</ele>
        <time>2012-09-07T14:19:37Z</time>
      </trkpt>
      <trkpt lat="45.99162" lon="1.40092">
        <ele>587.4</ele>
        <time>2012-09-07T14:19:38Z</time>
      </trkpt>
      <trkpt lat="45.99173" lon="1.40082">
        <ele>589</ele>
        <time>2012-09-07T14:19:45Z</time>
      </trkpt>
      <trkpt lat="45.99184" lon="1.40077">
        <ele>590.6</ele>
        <time>2012-09-07T14:19:51Z</time>
      </trkpt>
      <trkpt lat="45.99199" lon="1.40066">
        <ele>592.2</ele>
        <time>2012-09-07T14:19:59Z</time>
      </trkpt>
      <trkpt lat="45.99211" lon="1.40055">
        <ele>592.8</ele>
        <time>2012-09-07T14:20:06Z</time>
      </trkpt>
      <trkpt lat="45.99219" lon="1.40045">
        <ele>593.6</ele>
        <time>2012-09-07T14:20:11Z</time>
      </trkpt>
      <trkpt lat="45.9923" lon="1.40037">
        <ele>595.2</ele>
        <time>2012-09-07T14:20:17Z</time>
      </trkpt>
      <trkpt lat="45.99239" lon="1.40041">
        <ele>596.4</ele>
        <time>2012-09-07T14:20:23Z</time>
      </trkpt>
      <trkpt lat="45.99248" lon="1.40042">
        <ele>597.6</ele>
        <time>2012-09-07T14:20:30Z</time>
      </trkpt>
      <trkpt lat="45.99255" lon="1.40042">
        <ele>598.6</ele>
        <time>2012-09-07T14:20:36Z</time>
      </trkpt>
      <trkpt lat="45.99269" lon="1.4004">
        <ele>600.4</ele>
        <time>2012-09-07T14:20:46Z</time>
      </trkpt>
      <trkpt lat="45.99278" lon="1.40044">
        <ele>600.6</ele>
        <time>2012-09-07T14:20:53Z</time>
      </trkpt>
      <trkpt lat="45.99289" lon="1.40053">
        <ele>600.8</ele>
        <time>2012-09-07T14:21:01Z</time>
      </trkpt>
      <trkpt lat="45.99301" lon="1.40061">
        <ele>601</ele>
        <time>2012-09-07T14:21:09Z</time>
      </trkpt>
      <trkpt lat="45.99315" lon="1.40068">
        <ele>601</ele>
        <time>2012-09-07T14:21:16Z</time>
      </trkpt>
      <trkpt lat="45.99331" lon="1.40068">
        <ele>600.8</ele>
        <time>2012-09-07T14:21:20Z</time>
      </trkpt>
      <trkpt lat="45.99353" lon="1.40068">
        <ele>600.6</ele>
        <time>2012-09-07T14:21:24Z</time>
      </trkpt>
      <trkpt lat="45.99363" lon="1.40066">
        <ele>600.6</ele>
        <time>2012-09-07T14:21:26Z</time>
      </trkpt>
      <trkpt lat="45.99375" lon="1.40066">
        <ele>600.6</ele>
        <time>2012-09-07T14:21:28Z</time>
      </trkpt>
      <trkpt lat="45.99387" lon="1.40063">
        <ele>600.6</ele>
        <time>2012-09-07T14:21:30Z</time>
      </trkpt>
      <trkpt lat="45.99397" lon="1.40057">
        <ele>600.4</ele>
        <time>2012-09-07T14:21:33Z</time>
      </trkpt>
      <trkpt lat="45.99398" lon="1.40054">
        <ele>600.4</ele>
        <time>2012-09-07T14:21:34Z</time>
      </trkpt>
      <trkpt lat="45.99396" lon="1.40048">
        <ele>600.2</ele>
        <time>2012-09-07T14:21:37Z</time>
      </trkpt>
      <trkpt lat="45.99396" lon="1.40046">
        <ele>600</ele>
        <time>2012-09-07T14:21:38Z</time>
      </trkpt>
      <trkpt lat="45.99398" lon="1.40032">
        <ele>599.8</ele>
        <time>2012-09-07T14:21:43Z</time>
      </trkpt>
      <trkpt lat="45.994" lon="1.40025">
        <ele>599.6</ele>
        <time>2012-09-07T14:21:47Z</time>
      </trkpt>
      <trkpt lat="45.99402" lon="1.40019">
        <ele>599.8</ele>
        <time>2012-09-07T14:21:49Z</time>
      </trkpt>
      <trkpt lat="45.99411" lon="1.40012">
        <ele>600</ele>
        <time>2012-09-07T14:21:52Z</time>
      </trkpt>
      <trkpt lat="45.99415" lon="1.40009">
        <ele>600.4</ele>
        <time>2012-09-07T14:21:53Z</time>
      </trkpt>
      <trkpt lat="45.9942" lon="1.4001">
        <ele>600.6</ele>
        <time>2012-09-07T14:21:54Z</time>
      </trkpt>
      <trkpt lat="45.99436" lon="1.40012">
        <ele>600.8</ele>
        <time>2012-09-07T14:21:56Z</time>
      </trkpt>
      <trkpt lat="45.99456" lon="1.40011">
        <ele>601.2</ele>
        <time>2012-09-07T14:21:59Z</time>
      </trkpt>
      <trkpt lat="45.99463" lon="1.40011">
        <ele>601.2</ele>
        <time>2012-09-07T14:22:00Z</time>
      </trkpt>
      <trkpt lat="45.99469" lon="1.40012">
        <ele>601.4</ele>
        <time>2012-09-07T14:22:01Z</time>
      </trkpt>
      <trkpt lat="45.99487" lon="1.40014">
        <ele>601.2</ele>
        <time>2012-09-07T14:22:04Z</time>
      </trkpt>
      <trkpt lat="45.99492" lon="1.40018">
        <ele>601</ele>
        <time>2012-09-07T14:22:05Z</time>
      </trkpt>
      <trkpt lat="45.99504" lon="1.40026">
        <ele>601</ele>
        <time>2012-09-07T14:22:08Z</time>
      </trkpt>
      <trkpt lat="45.99508" lon="1.40026">
        <ele>600.8</ele>
        <time>2012-09-07T14:22:09Z</time>
      </trkpt>
      <trkpt lat="45.99513" lon="1.40026">
        <ele>600.6</ele>
        <time>2012-09-07T14:22:10Z</time>
      </trkpt>
      <trkpt lat="45.99525" lon="1.40028">
        <ele>600.2</ele>
        <time>2012-09-07T14:22:13Z</time>
      </trkpt>
      <trkpt lat="45.99527" lon="1.40029">
        <ele>600.2</ele>
        <time>2012-09-07T14:22:14Z</time>
      </trkpt>
      <trkpt lat="45.9953" lon="1.40031">
        <ele>600</ele>
        <time>2012-09-07T14:22:15Z</time>
      </trkpt>
      <trkpt lat="45.99535" lon="1.40036">
        <ele>599.6</ele>
        <time>2012-09-07T14:22:17Z</time>
      </trkpt>
      <trkpt lat="45.99547" lon="1.40053">
        <ele>598.8</ele>
        <time>2012-09-07T14:22:21Z</time>
      </trkpt>
      <trkpt lat="45.99555" lon="1.40073">
        <ele>597.8</ele>
        <time>2012-09-07T14:22:26Z</time>
      </trkpt>
      <trkpt lat="45.99559" lon="1.40101">
        <ele>597</ele>
        <time>2012-09-07T14:22:31Z</time>
      </trkpt>
      <trkpt lat="45.99561" lon="1.40127">
        <ele>596.2</ele>
        <time>2012-09-07T14:22:35Z</time>
      </trkpt>
      <trkpt lat="45.99563" lon="1.4014">
        <ele>595.8</ele>
        <time>2012-09-07T14:22:37Z</time>
      </trkpt>
      <trkpt lat="45.99566" lon="1.40143">
        <ele>595.6</ele>
        <time>2012-09-07T14:22:38Z</time>
      </trkpt>
      <trkpt lat="45.99578" lon="1.40148">
        <ele>594.8</ele>
        <time>2012-09-07T14:22:42Z</time>
      </trkpt>
      <trkpt lat="45.99588" lon="1.40155">
        <ele>593.8</ele>
        <time>2012-09-07T14:22:46Z</time>
      </trkpt>
      <trkpt lat="45.99595" lon="1.40162">
        <ele>593.2</ele>
        <time>2012-09-07T14:22:50Z</time>
      </trkpt>
      <trkpt lat="45.99597" lon="1.40164">
        <ele>593</ele>
        <time>2012-09-07T14:22:51Z</time>
      </trkpt>
      <trkpt lat="45.99604" lon="1.40171">
        <ele>592</ele>
        <time>2012-09-07T14:22:56Z</time>
      </trkpt>
      <trkpt lat="45.99603" lon="1.40172">
        <ele>591</ele>
        <time>2012-09-07T14:23:04Z</time>
      </trkpt>
      <trkpt lat="45.99608" lon="1.40181">
        <ele>579.6</ele>
        <time>2012-09-07T14:25:45Z</time>
      </trkpt>
      <trkpt lat="45.99612" lon="1.40182">
        <ele>579.8</ele>
        <time>2012-09-07T14:25:47Z</time>
      </trkpt>
      <trkpt lat="45.99615" lon="1.40178">
        <ele>580</ele>
        <time>2012-09-07T14:25:49Z</time>
      </trkpt>
      <trkpt lat="45.9963" lon="1.4016">
        <ele>581.4</ele>
        <time>2012-09-07T14:25:58Z</time>
      </trkpt>
      <trkpt lat="45.99644" lon="1.40143">
        <ele>583.6</ele>
        <time>2012-09-07T14:26:07Z</time>
      </trkpt>
      <trkpt lat="45.99645" lon="1.40141">
        <ele>583.8</ele>
        <time>2012-09-07T14:26:08Z</time>
      </trkpt>
      <trkpt lat="45.99658" lon="1.40124">
        <ele>586.2</ele>
        <time>2012-09-07T14:26:17Z</time>
      </trkpt>
      <trkpt lat="45.99669" lon="1.40109">
        <ele>588.4</ele>
        <time>2012-09-07T14:26:25Z</time>
      </trkpt>
      <trkpt lat="45.99678" lon="1.40093">
        <ele>590.4</ele>
        <time>2012-09-07T14:26:32Z</time>
      </trkpt>
      <trkpt lat="45.99687" lon="1.40071">
        <ele>593.8</ele>
        <time>2012-09-07T14:26:41Z</time>
      </trkpt>
      <trkpt lat="45.99693" lon="1.40054">
        <ele>596.4</ele>
        <time>2012-09-07T14:26:48Z</time>
      </trkpt>
      <trkpt lat="45.99697" lon="1.40044">
        <ele>597.8</ele>
        <time>2012-09-07T14:26:52Z</time>
      </trkpt>
      <trkpt lat="45.99699" lon="1.40043">
        <ele>598.2</ele>
        <time>2012-09-07T14:26:53Z</time>
      </trkpt>
      <trkpt lat="45.99705" lon="1.40027">
        <ele>599.6</ele>
        <time>2012-09-07T14:26:59Z</time>
      </trkpt>
      <trkpt lat="45.99706" lon="1.40023">
        <ele>600</ele>
        <time>2012-09-07T14:27:00Z</time>
      </trkpt>
      <trkpt lat="45.99713" lon="1.4001">
        <ele>601.6</ele>
        <time>2012-09-07T14:27:05Z</time>
      </trkpt>
      <trkpt lat="45.99719" lon="1.39993">
        <ele>602.8</ele>
        <time>2012-09-07T14:27:11Z</time>
      </trkpt>
      <trkpt lat="45.99727" lon="1.39974">
        <ele>603.8</ele>
        <time>2012-09-07T14:27:17Z</time>
      </trkpt>
      <trkpt lat="45.99729" lon="1.39955">
        <ele>604.8</ele>
        <time>2012-09-07T14:27:22Z</time>
      </trkpt>
      <trkpt lat="45.99735" lon="1.3993">
        <ele>605.6</ele>
        <time>2012-09-07T14:27:28Z</time>
      </trkpt>
      <trkpt lat="45.99737" lon="1.39925">
        <ele>605.8</ele>
        <time>2012-09-07T14:27:29Z</time>
      </trkpt>
      <trkpt lat="45.99746" lon="1.39899">
        <ele>606.4</ele>
        <time>2012-09-07T14:27:34Z</time>
      </trkpt>
      <trkpt lat="45.99749" lon="1.39887">
        <ele>606</ele>
        <time>2012-09-07T14:27:36Z</time>
      </trkpt>
      <trkpt lat="45.99755" lon="1.39864">
        <ele>606</ele>
        <time>2012-09-07T14:27:40Z</time>
      </trkpt>
      <trkpt lat="45.99763" lon="1.3984">
        <ele>606</ele>
        <time>2012-09-07T14:27:45Z</time>
      </trkpt>
      <trkpt lat="45.99763" lon="1.39835">
        <ele>606</ele>
        <time>2012-09-07T14:27:46Z</time>
      </trkpt>
      <trkpt lat="45.99758" lon="1.39822">
        <ele>606.4</ele>
        <time>2012-09-07T14:27:50Z</time>
      </trkpt>
      <trkpt lat="45.99755" lon="1.39816">
        <ele>606.6</ele>
        <time>2012-09-07T14:27:52Z</time>
      </trkpt>
      <trkpt lat="45.99748" lon="1.39805">
        <ele>606.8</ele>
        <time>2012-09-07T14:27:56Z</time>
      </trkpt>
      <trkpt lat="45.99741" lon="1.39785">
        <ele>607.4</ele>
        <time>2012-09-07T14:28:02Z</time>
      </trkpt>
      <trkpt lat="45.99733" lon="1.39763">
        <ele>608.2</ele>
        <time>2012-09-07T14:28:08Z</time>
      </trkpt>
      <trkpt lat="45.99728" lon="1.39734">
        <ele>608.4</ele>
        <time>2012-09-07T14:28:13Z</time>
      </trkpt>
      <trkpt lat="45.99727" lon="1.39702">
        <ele>608.2</ele>
        <time>2012-09-07T14:28:17Z</time>
      </trkpt>
      <trkpt lat="45.99729" lon="1.39675">
        <ele>607.8</ele>
        <time>2012-09-07T14:28:21Z</time>
      </trkpt>
      <trkpt lat="45.99728" lon="1.39667">
        <ele>607.8</ele>
        <time>2012-09-07T14:28:22Z</time>
      </trkpt>
      <trkpt lat="45.99727" lon="1.3966">
        <ele>607.8</ele>
        <time>2012-09-07T14:28:23Z</time>
      </trkpt>
      <trkpt lat="45.99719" lon="1.39648">
        <ele>607.4</ele>
        <time>2012-09-07T14:28:26Z</time>
      </trkpt>
      <trkpt lat="45.99717" lon="1.39645">
        <ele>607.2</ele>
        <time>2012-09-07T14:28:27Z</time>
      </trkpt>
      <trkpt lat="45.99711" lon="1.39635">
        <ele>606.6</ele>
        <time>2012-09-07T14:28:31Z</time>
      </trkpt>
      <trkpt lat="45.99705" lon="1.39612">
        <ele>605.8</ele>
        <time>2012-09-07T14:28:36Z</time>
      </trkpt>
      <trkpt lat="45.99704" lon="1.3959">
        <ele>604.6</ele>
        <time>2012-09-07T14:28:41Z</time>
      </trkpt>
      <trkpt lat="45.99706" lon="1.39578">
        <ele>604</ele>
        <time>2012-09-07T14:28:44Z</time>
      </trkpt>
      <trkpt lat="45.99708" lon="1.3957">
        <ele>603.6</ele>
        <time>2012-09-07T14:28:46Z</time>
      </trkpt>
      <trkpt lat="45.99709" lon="1.39556">
        <ele>602.6</ele>
        <time>2012-09-07T14:28:50Z</time>
      </trkpt>
      <trkpt lat="45.99717" lon="1.3954">
        <ele>601.8</ele>
        <time>2012-09-07T14:28:55Z</time>
      </trkpt>
      <trkpt lat="45.99722" lon="1.39525">
        <ele>600.8</ele>
        <time>2012-09-07T14:29:00Z</time>
      </trkpt>
      <trkpt lat="45.99723" lon="1.39518">
        <ele>600.4</ele>
        <time>2012-09-07T14:29:02Z</time>
      </trkpt>
      <trkpt lat="45.99732" lon="1.3951">
        <ele>599.8</ele>
        <time>2012-09-07T14:29:05Z</time>
      </trkpt>
      <trkpt lat="45.99747" lon="1.39506">
        <ele>599</ele>
        <time>2012-09-07T14:29:09Z</time>
      </trkpt>
      <trkpt lat="45.99752" lon="1.39505">
        <ele>598.8</ele>
        <time>2012-09-07T14:29:10Z</time>
      </trkpt>
      <trkpt lat="45.99775" lon="1.39509">
        <ele>597.6</ele>
        <time>2012-09-07T14:29:14Z</time>
      </trkpt>
      <trkpt lat="45.99781" lon="1.3951">
        <ele>597.4</ele>
        <time>2012-09-07T14:29:15Z</time>
      </trkpt>
      <trkpt lat="45.99796" lon="1.39515">
        <ele>596.6</ele>
        <time>2012-09-07T14:29:18Z</time>
      </trkpt>
      <trkpt lat="45.99806" lon="1.39518">
        <ele>596.2</ele>
        <time>2012-09-07T14:29:20Z</time>
      </trkpt>
      <trkpt lat="45.99816" lon="1.39519">
        <ele>595.6</ele>
        <time>2012-09-07T14:29:22Z</time>
      </trkpt>
      <trkpt lat="45.99825" lon="1.39516">
        <ele>595</ele>
        <time>2012-09-07T14:29:24Z</time>
      </trkpt>
      <trkpt lat="45.99827" lon="1.39511">
        <ele>594</ele>
        <time>2012-09-07T14:29:27Z</time>
      </trkpt>
      <trkpt lat="45.99826" lon="1.39509">
        <ele>592.8</ele>
        <time>2012-09-07T14:29:32Z</time>
      </trkpt>
      <trkpt lat="45.99811" lon="1.39493">
        <ele>591</ele>
        <time>2012-09-07T14:29:39Z</time>
      </trkpt>
      <trkpt lat="45.99796" lon="1.39474">
        <ele>589.8</ele>
        <time>2012-09-07T14:29:45Z</time>
      </trkpt>
      <trkpt lat="45.99793" lon="1.39471">
        <ele>589.6</ele>
        <time>2012-09-07T14:29:46Z</time>
      </trkpt>
      <trkpt lat="45.99779" lon="1.39453">
        <ele>588.4</ele>
        <time>2012-09-07T14:29:53Z</time>
      </trkpt>
      <trkpt lat="45.99761" lon="1.39438">
        <ele>587</ele>
        <time>2012-09-07T14:30:00Z</time>
      </trkpt>
      <trkpt lat="45.99749" lon="1.39437">
        <ele>586.2</ele>
        <time>2012-09-07T14:30:05Z</time>
      </trkpt>
      <trkpt lat="45.99737" lon="1.39441">
        <ele>585.4</ele>
        <time>2012-09-07T14:30:11Z</time>
      </trkpt>
      <trkpt lat="45.99732" lon="1.39442">
        <ele>585</ele>
        <time>2012-09-07T14:30:14Z</time>
      </trkpt>
      <trkpt lat="45.99727" lon="1.39441">
        <ele>584.8</ele>
        <time>2012-09-07T14:30:16Z</time>
      </trkpt>
      <trkpt lat="45.99717" lon="1.39433">
        <ele>584.4</ele>
        <time>2012-09-07T14:30:20Z</time>
      </trkpt>
      <trkpt lat="45.99714" lon="1.39431">
        <ele>584.2</ele>
        <time>2012-09-07T14:30:21Z</time>
      </trkpt>
      <trkpt lat="45.99701" lon="1.39426">
        <ele>583.8</ele>
        <time>2012-09-07T14:30:24Z</time>
      </trkpt>
      <trkpt lat="45.99683" lon="1.39424">
        <ele>583.2</ele>
        <time>2012-09-07T14:30:28Z</time>
      </trkpt>
      <trkpt lat="45.99676" lon="1.39414">
        <ele>582.8</ele>
        <time>2012-09-07T14:30:30Z</time>
      </trkpt>
      <trkpt lat="45.99673" lon="1.39407">
        <ele>582.6</ele>
        <time>2012-09-07T14:30:31Z</time>
      </trkpt>
      <trkpt lat="45.9966" lon="1.39386">
        <ele>581.8</ele>
        <time>2012-09-07T14:30:35Z</time>
      </trkpt>
      <trkpt lat="45.99658" lon="1.39379">
        <ele>581.6</ele>
        <time>2012-09-07T14:30:36Z</time>
      </trkpt>
      <trkpt lat="45.99656" lon="1.39374">
        <ele>581.4</ele>
        <time>2012-09-07T14:30:37Z</time>
      </trkpt>
      <trkpt lat="45.99646" lon="1.39355">
        <ele>580.8</ele>
        <time>2012-09-07T14:30:39Z</time>
      </trkpt>
      <trkpt lat="45.99643" lon="1.39346">
        <ele>580.6</ele>
        <time>2012-09-07T14:30:40Z</time>
      </trkpt>
      <trkpt lat="45.9964" lon="1.39332">
        <ele>580.4</ele>
        <time>2012-09-07T14:30:42Z</time>
      </trkpt>
      <trkpt lat="45.99638" lon="1.39321">
        <ele>580</ele>
        <time>2012-09-07T14:30:44Z</time>
      </trkpt>
      <trkpt lat="45.99635" lon="1.39297">
        <ele>579</ele>
        <time>2012-09-07T14:30:49Z</time>
      </trkpt>
      <trkpt lat="45.99633" lon="1.39291">
        <ele>578.8</ele>
        <time>2012-09-07T14:30:50Z</time>
      </trkpt>
      <trkpt lat="45.99627" lon="1.39274">
        <ele>578.2</ele>
        <time>2012-09-07T14:30:53Z</time>
      </trkpt>
      <trkpt lat="45.99621" lon="1.39264">
        <ele>577.8</ele>
        <time>2012-09-07T14:30:55Z</time>
      </trkpt>
      <trkpt lat="45.99614" lon="1.39256">
        <ele>577.4</ele>
        <time>2012-09-07T14:30:57Z</time>
      </trkpt>
      <trkpt lat="45.99599" lon="1.39241">
        <ele>576.6</ele>
        <time>2012-09-07T14:31:01Z</time>
      </trkpt>
      <trkpt lat="45.99595" lon="1.39239">
        <ele>576.4</ele>
        <time>2012-09-07T14:31:02Z</time>
      </trkpt>
      <trkpt lat="45.99587" lon="1.39236">
        <ele>575.8</ele>
        <time>2012-09-07T14:31:04Z</time>
      </trkpt>
      <trkpt lat="45.99573" lon="1.39238">
        <ele>575.2</ele>
        <time>2012-09-07T14:31:07Z</time>
      </trkpt>
      <trkpt lat="45.99568" lon="1.39239">
        <ele>574.8</ele>
        <time>2012-09-07T14:31:08Z</time>
      </trkpt>
      <trkpt lat="45.99547" lon="1.39244">
        <ele>573.8</ele>
        <time>2012-09-07T14:31:12Z</time>
      </trkpt>
      <trkpt lat="45.99541" lon="1.39244">
        <ele>573.6</ele>
        <time>2012-09-07T14:31:13Z</time>
      </trkpt>
      <trkpt lat="45.9953" lon="1.39243">
        <ele>573</ele>
        <time>2012-09-07T14:31:15Z</time>
      </trkpt>
      <trkpt lat="45.9952" lon="1.39236">
        <ele>572.2</ele>
        <time>2012-09-07T14:31:18Z</time>
      </trkpt>
      <trkpt lat="45.99523" lon="1.39221">
        <ele>571.4</ele>
        <time>2012-09-07T14:31:21Z</time>
      </trkpt>
      <trkpt lat="45.9953" lon="1.39203">
        <ele>570.6</ele>
        <time>2012-09-07T14:31:25Z</time>
      </trkpt>
      <trkpt lat="45.99534" lon="1.39194">
        <ele>570.2</ele>
        <time>2012-09-07T14:31:27Z</time>
      </trkpt>
      <trkpt lat="45.9954" lon="1.39182">
        <ele>569.8</ele>
        <time>2012-09-07T14:31:30Z</time>
      </trkpt>
      <trkpt lat="45.99541" lon="1.39175">
        <ele>569.6</ele>
        <time>2012-09-07T14:31:32Z</time>
      </trkpt>
      <trkpt lat="45.99543" lon="1.39174">
        <ele>569.4</ele>
        <time>2012-09-07T14:31:34Z</time>
      </trkpt>
      <trkpt lat="45.99544" lon="1.39173">
        <ele>569.2</ele>
        <time>2012-09-07T14:31:35Z</time>
      </trkpt>
      <trkpt lat="45.99552" lon="1.39168">
        <ele>569.2</ele>
        <time>2012-09-07T14:31:38Z</time>
      </trkpt>
      <trkpt lat="45.99564" lon="1.39159">
        <ele>568.8</ele>
        <time>2012-09-07T14:31:42Z</time>
      </trkpt>
      <trkpt lat="45.99582" lon="1.39141">
        <ele>568.4</ele>
        <time>2012-09-07T14:31:46Z</time>
      </trkpt>
      <trkpt lat="45.99585" lon="1.39134">
        <ele>568.2</ele>
        <time>2012-09-07T14:31:47Z</time>
      </trkpt>
      <trkpt lat="45.99587" lon="1.3912">
        <ele>568</ele>
        <time>2012-09-07T14:31:49Z</time>
      </trkpt>
      <trkpt lat="45.99585" lon="1.39104">
        <ele>567.6</ele>
        <time>2012-09-07T14:31:51Z</time>
      </trkpt>
      <trkpt lat="45.99583" lon="1.39084">
        <ele>567.4</ele>
        <time>2012-09-07T14:31:54Z</time>
      </trkpt>
      <trkpt lat="45.99582" lon="1.39082">
        <ele>567.2</ele>
        <time>2012-09-07T14:31:55Z</time>
      </trkpt>
      <trkpt lat="45.99582" lon="1.39077">
        <ele>567</ele>
        <time>2012-09-07T14:31:59Z</time>
      </trkpt>
      <trkpt lat="45.99589" lon="1.39073">
        <ele>553.8</ele>
        <time>2012-09-07T14:34:31Z</time>
      </trkpt>
      <trkpt lat="45.99591" lon="1.39073">
        <ele>553.8</ele>
        <time>2012-09-07T14:34:32Z</time>
      </trkpt>
      <trkpt lat="45.99599" lon="1.39075">
        <ele>553.6</ele>
        <time>2012-09-07T14:34:38Z</time>
      </trkpt>
      <trkpt lat="45.99599" lon="1.39073">
        <ele>553.6</ele>
        <time>2012-09-07T14:34:39Z</time>
      </trkpt>
      <trkpt lat="45.99594" lon="1.39074">
        <ele>553.6</ele>
        <time>2012-09-07T14:34:42Z</time>
      </trkpt>
      <trkpt lat="45.99587" lon="1.39078">
        <ele>553.6</ele>
        <time>2012-09-07T14:34:45Z</time>
      </trkpt>
      <trkpt lat="45.99582" lon="1.3908">
        <ele>553.6</ele>
        <time>2012-09-07T14:34:47Z</time>
      </trkpt>
      <trkpt lat="45.99574" lon="1.39079">
        <ele>553.6</ele>
        <time>2012-09-07T14:34:52Z</time>
      </trkpt>
      <trkpt lat="45.99568" lon="1.39076">
        <ele>553.6</ele>
        <time>2012-09-07T14:34:59Z</time>
      </trkpt>
      <trkpt lat="45.99566" lon="1.39075">
        <ele>553.8</ele>
        <time>2012-09-07T14:35:02Z</time>
      </trkpt>
      <trkpt lat="45.99563" lon="1.39072">
        <ele>554.4</ele>
        <time>2012-09-07T14:35:04Z</time>
      </trkpt>
      <trkpt lat="45.99554" lon="1.39058">
        <ele>557.2</ele>
        <time>2012-09-07T14:35:13Z</time>
      </trkpt>
      <trkpt lat="45.99546" lon="1.39051">
        <ele>559.2</ele>
        <time>2012-09-07T14:35:18Z</time>
      </trkpt>
      <trkpt lat="45.99536" lon="1.3904">
        <ele>561.8</ele>
        <time>2012-09-07T14:35:25Z</time>
      </trkpt>
      <trkpt lat="45.99521" lon="1.39032">
        <ele>563.8</ele>
        <time>2012-09-07T14:35:32Z</time>
      </trkpt>
      <trkpt lat="45.99515" lon="1.39035">
        <ele>565</ele>
        <time>2012-09-07T14:35:37Z</time>
      </trkpt>
      <trkpt lat="45.99508" lon="1.39043">
        <ele>566</ele>
        <time>2012-09-07T14:35:43Z</time>
      </trkpt>
      <trkpt lat="45.99508" lon="1.39047">
        <ele>566.2</ele>
        <time>2012-09-07T14:35:45Z</time>
      </trkpt>
      <trkpt lat="45.99505" lon="1.39052">
        <ele>566.8</ele>
        <time>2012-09-07T14:35:49Z</time>
      </trkpt>
      <trkpt lat="45.99502" lon="1.39057">
        <ele>568</ele>
        <time>2012-09-07T14:35:56Z</time>
      </trkpt>
      <trkpt lat="45.99501" lon="1.39064">
        <ele>568.6</ele>
        <time>2012-09-07T14:36:00Z</time>
      </trkpt>
      <trkpt lat="45.99501" lon="1.39067">
        <ele>569.2</ele>
        <time>2012-09-07T14:36:02Z</time>
      </trkpt>
      <trkpt lat="45.99499" lon="1.39076">
        <ele>571.2</ele>
        <time>2012-09-07T14:36:09Z</time>
      </trkpt>
      <trkpt lat="45.99498" lon="1.39077">
        <ele>571.4</ele>
        <time>2012-09-07T14:36:10Z</time>
      </trkpt>
      <trkpt lat="45.99497" lon="1.3908">
        <ele>572.4</ele>
        <time>2012-09-07T14:36:14Z</time>
      </trkpt>
      <trkpt lat="45.99497" lon="1.39084">
        <ele>572.8</ele>
        <time>2012-09-07T14:36:16Z</time>
      </trkpt>
      <trkpt lat="45.99497" lon="1.39088">
        <ele>573.6</ele>
        <time>2012-09-07T14:36:19Z</time>
      </trkpt>
      <trkpt lat="45.99497" lon="1.39091">
        <ele>574</ele>
        <time>2012-09-07T14:36:21Z</time>
      </trkpt>
      <trkpt lat="45.99498" lon="1.39094">
        <ele>574.2</ele>
        <time>2012-09-07T14:36:23Z</time>
      </trkpt>
      <trkpt lat="45.995" lon="1.39103">
        <ele>576.4</ele>
        <time>2012-09-07T14:36:33Z</time>
      </trkpt>
      <trkpt lat="45.9949" lon="1.39105">
        <ele>595.4</ele>
        <time>2012-09-07T14:38:02Z</time>
      </trkpt>
      <trkpt lat="45.99495" lon="1.39113">
        <ele>596.8</ele>
        <time>2012-09-07T14:38:12Z</time>
      </trkpt>
      <trkpt lat="45.99495" lon="1.39115">
        <ele>596.8</ele>
        <time>2012-09-07T14:38:13Z</time>
      </trkpt>
      <trkpt lat="45.99494" lon="1.39121">
        <ele>596.4</ele>
        <time>2012-09-07T14:38:17Z</time>
      </trkpt>
      <trkpt lat="45.99492" lon="1.39123">
        <ele>596.4</ele>
        <time>2012-09-07T14:38:23Z</time>
      </trkpt>
      <trkpt lat="45.99489" lon="1.39121">
        <ele>596.2</ele>
        <time>2012-09-07T14:38:25Z</time>
      </trkpt>
      <trkpt lat="45.99485" lon="1.39119">
        <ele>596</ele>
        <time>2012-09-07T14:38:29Z</time>
      </trkpt>
      <trkpt lat="45.99478" lon="1.39115">
        <ele>595.6</ele>
        <time>2012-09-07T14:38:34Z</time>
      </trkpt>
      <trkpt lat="45.99477" lon="1.39117">
        <ele>595.2</ele>
        <time>2012-09-07T14:38:36Z</time>
      </trkpt>
      <trkpt lat="45.99474" lon="1.3912">
        <ele>595</ele>
        <time>2012-09-07T14:38:39Z</time>
      </trkpt>
      <trkpt lat="45.99468" lon="1.39127">
        <ele>594.4</ele>
        <time>2012-09-07T14:38:45Z</time>
      </trkpt>
      <trkpt lat="45.99466" lon="1.39129">
        <ele>594.4</ele>
        <time>2012-09-07T14:38:47Z</time>
      </trkpt>
      <trkpt lat="45.99464" lon="1.39129">
        <ele>594.2</ele>
        <time>2012-09-07T14:38:48Z</time>
      </trkpt>
      <trkpt lat="45.99463" lon="1.39129">
        <ele>594.2</ele>
        <time>2012-09-07T14:38:49Z</time>
      </trkpt>
      <trkpt lat="45.99453" lon="1.39127">
        <ele>593.8</ele>
        <time>2012-09-07T14:38:55Z</time>
      </trkpt>
      <trkpt lat="45.9945" lon="1.39125">
        <ele>593.6</ele>
        <time>2012-09-07T14:38:57Z</time>
      </trkpt>
      <trkpt lat="45.99446" lon="1.39126">
        <ele>593.4</ele>
        <time>2012-09-07T14:39:00Z</time>
      </trkpt>
      <trkpt lat="45.99444" lon="1.39127">
        <ele>593.4</ele>
        <time>2012-09-07T14:39:02Z</time>
      </trkpt>
      <trkpt lat="45.99443" lon="1.39128">
        <ele>593.4</ele>
        <time>2012-09-07T14:39:03Z</time>
      </trkpt>
      <trkpt lat="45.99438" lon="1.39136">
        <ele>593</ele>
        <time>2012-09-07T14:39:08Z</time>
      </trkpt>
      <trkpt lat="45.99438" lon="1.39145">
        <ele>592.8</ele>
        <time>2012-09-07T14:39:14Z</time>
      </trkpt>
      <trkpt lat="45.99433" lon="1.39152">
        <ele>592.8</ele>
        <time>2012-09-07T14:39:20Z</time>
      </trkpt>
      <trkpt lat="45.99427" lon="1.3916">
        <ele>592.8</ele>
        <time>2012-09-07T14:39:26Z</time>
      </trkpt>
      <trkpt lat="45.99424" lon="1.39162">
        <ele>593.2</ele>
        <time>2012-09-07T14:39:28Z</time>
      </trkpt>
      <trkpt lat="45.99423" lon="1.39163">
        <ele>593.2</ele>
        <time>2012-09-07T14:39:29Z</time>
      </trkpt>
      <trkpt lat="45.9942" lon="1.39167">
        <ele>593.4</ele>
        <time>2012-09-07T14:39:32Z</time>
      </trkpt>
      <trkpt lat="45.99414" lon="1.39173">
        <ele>594.2</ele>
        <time>2012-09-07T14:39:37Z</time>
      </trkpt>
      <trkpt lat="45.99407" lon="1.39186">
        <ele>595</ele>
        <time>2012-09-07T14:39:43Z</time>
      </trkpt>
      <trkpt lat="45.994" lon="1.39196">
        <ele>595.8</ele>
        <time>2012-09-07T14:39:49Z</time>
      </trkpt>
      <trkpt lat="45.99393" lon="1.39201">
        <ele>596.6</ele>
        <time>2012-09-07T14:39:53Z</time>
      </trkpt>
      <trkpt lat="45.99391" lon="1.39203">
        <ele>596.8</ele>
        <time>2012-09-07T14:39:55Z</time>
      </trkpt>
      <trkpt lat="45.99382" lon="1.39212">
        <ele>598.4</ele>
        <time>2012-09-07T14:40:01Z</time>
      </trkpt>
      <trkpt lat="45.99376" lon="1.39221">
        <ele>600</ele>
        <time>2012-09-07T14:40:06Z</time>
      </trkpt>
      <trkpt lat="45.99374" lon="1.39223">
        <ele>600.2</ele>
        <time>2012-09-07T14:40:07Z</time>
      </trkpt>
      <trkpt lat="45.99371" lon="1.39223">
        <ele>600.6</ele>
        <time>2012-09-07T14:40:08Z</time>
      </trkpt>
      <trkpt lat="45.99367" lon="1.39227">
        <ele>601</ele>
        <time>2012-09-07T14:40:10Z</time>
      </trkpt>
      <trkpt lat="45.99353" lon="1.39237">
        <ele>601.8</ele>
        <time>2012-09-07T14:40:16Z</time>
      </trkpt>
      <trkpt lat="45.99348" lon="1.39237">
        <ele>601.8</ele>
        <time>2012-09-07T14:40:18Z</time>
      </trkpt>
      <trkpt lat="45.99345" lon="1.39236">
        <ele>602</ele>
        <time>2012-09-07T14:40:20Z</time>
      </trkpt>
      <trkpt lat="45.99343" lon="1.39236">
        <ele>601.8</ele>
        <time>2012-09-07T14:40:22Z</time>
      </trkpt>
      <trkpt lat="45.99337" lon="1.3924">
        <ele>601.6</ele>
        <time>2012-09-07T14:40:24Z</time>
      </trkpt>
      <trkpt lat="45.99323" lon="1.39249">
        <ele>601</ele>
        <time>2012-09-07T14:40:28Z</time>
      </trkpt>
      <trkpt lat="45.9931" lon="1.39262">
        <ele>599.8</ele>
        <time>2012-09-07T14:40:33Z</time>
      </trkpt>
      <trkpt lat="45.99305" lon="1.3928">
        <ele>598.6</ele>
        <time>2012-09-07T14:40:37Z</time>
      </trkpt>
      <trkpt lat="45.99306" lon="1.39292">
        <ele>597.2</ele>
        <time>2012-09-07T14:40:41Z</time>
      </trkpt>
      <trkpt lat="45.99306" lon="1.39305">
        <ele>595.4</ele>
        <time>2012-09-07T14:40:45Z</time>
      </trkpt>
      <trkpt lat="45.99306" lon="1.39307">
        <ele>594.8</ele>
        <time>2012-09-07T14:40:46Z</time>
      </trkpt>
      <trkpt lat="45.99299" lon="1.39323">
        <ele>592.6</ele>
        <time>2012-09-07T14:40:51Z</time>
      </trkpt>
      <trkpt lat="45.99294" lon="1.39333">
        <ele>590.2</ele>
        <time>2012-09-07T14:40:56Z</time>
      </trkpt>
      <trkpt lat="45.99292" lon="1.39333">
        <ele>589.6</ele>
        <time>2012-09-07T14:40:57Z</time>
      </trkpt>
      <trkpt lat="45.99283" lon="1.39338">
        <ele>588.6</ele>
        <time>2012-09-07T14:41:00Z</time>
      </trkpt>
      <trkpt lat="45.9928" lon="1.3934">
        <ele>588.2</ele>
        <time>2012-09-07T14:41:01Z</time>
      </trkpt>
      <trkpt lat="45.99271" lon="1.39344">
        <ele>586.6</ele>
        <time>2012-09-07T14:41:05Z</time>
      </trkpt>
      <trkpt lat="45.99263" lon="1.39348">
        <ele>585.4</ele>
        <time>2012-09-07T14:41:08Z</time>
      </trkpt>
      <trkpt lat="45.99259" lon="1.3935">
        <ele>584.4</ele>
        <time>2012-09-07T14:41:10Z</time>
      </trkpt>
      <trkpt lat="45.9925" lon="1.39353">
        <ele>582.6</ele>
        <time>2012-09-07T14:41:15Z</time>
      </trkpt>
      <trkpt lat="45.99248" lon="1.39352">
        <ele>582.2</ele>
        <time>2012-09-07T14:41:16Z</time>
      </trkpt>
      <trkpt lat="45.99243" lon="1.39358">
        <ele>580.8</ele>
        <time>2012-09-07T14:41:20Z</time>
      </trkpt>
      <trkpt lat="45.99242" lon="1.39359">
        <ele>580.4</ele>
        <time>2012-09-07T14:41:21Z</time>
      </trkpt>
      <trkpt lat="45.99242" lon="1.39359">
        <ele>580</ele>
        <time>2012-09-07T14:41:22Z</time>
      </trkpt>
      <trkpt lat="45.9924" lon="1.39359">
        <ele>579.2</ele>
        <time>2012-09-07T14:41:24Z</time>
      </trkpt>
      <trkpt lat="45.99239" lon="1.39359">
        <ele>578.8</ele>
        <time>2012-09-07T14:41:25Z</time>
      </trkpt>
      <trkpt lat="45.99235" lon="1.39361">
        <ele>577</ele>
        <time>2012-09-07T14:41:30Z</time>
      </trkpt>
      <trkpt lat="45.99235" lon="1.39363">
        <ele>576.6</ele>
        <time>2012-09-07T14:41:31Z</time>
      </trkpt>
      <trkpt lat="45.99235" lon="1.39369">
        <ele>574.6</ele>
        <time>2012-09-07T14:41:36Z</time>
      </trkpt>
      <trkpt lat="45.99234" lon="1.3937">
        <ele>573.8</ele>
        <time>2012-09-07T14:41:38Z</time>
      </trkpt>
      <trkpt lat="45.99231" lon="1.39372">
        <ele>572.6</ele>
        <time>2012-09-07T14:41:41Z</time>
      </trkpt>
      <trkpt lat="45.99228" lon="1.39378">
        <ele>571</ele>
        <time>2012-09-07T14:41:45Z</time>
      </trkpt>
      <trkpt lat="45.99227" lon="1.39381">
        <ele>570.4</ele>
        <time>2012-09-07T14:41:47Z</time>
      </trkpt>
      <trkpt lat="45.99227" lon="1.39383">
        <ele>568.4</ele>
        <time>2012-09-07T14:41:52Z</time>
      </trkpt>
      <trkpt lat="45.99231" lon="1.39389">
        <ele>565.6</ele>
        <time>2012-09-07T14:41:59Z</time>
      </trkpt>
      <trkpt lat="45.9923" lon="1.39391">
        <ele>565.2</ele>
        <time>2012-09-07T14:42:00Z</time>
      </trkpt>
      <trkpt lat="45.99231" lon="1.39397">
        <ele>563.2</ele>
        <time>2012-09-07T14:42:05Z</time>
      </trkpt>
      <trkpt lat="45.99231" lon="1.39398">
        <ele>562.8</ele>
        <time>2012-09-07T14:42:06Z</time>
      </trkpt>
      <trkpt lat="45.99231" lon="1.39401">
        <ele>561.4</ele>
        <time>2012-09-07T14:42:09Z</time>
      </trkpt>
      <trkpt lat="45.99229" lon="1.39402">
        <ele>560.6</ele>
        <time>2012-09-07T14:42:11Z</time>
      </trkpt>
      <trkpt lat="45.99226" lon="1.39402">
        <ele>560</ele>
        <time>2012-09-07T14:42:13Z</time>
      </trkpt>
      <trkpt lat="45.99219" lon="1.39399">
        <ele>558</ele>
        <time>2012-09-07T14:42:19Z</time>
      </trkpt>
      <trkpt lat="45.99211" lon="1.39393">
        <ele>556.4</ele>
        <time>2012-09-07T14:42:24Z</time>
      </trkpt>
      <trkpt lat="45.99211" lon="1.39391">
        <ele>556.2</ele>
        <time>2012-09-07T14:42:25Z</time>
      </trkpt>
      <trkpt lat="45.99206" lon="1.3938">
        <ele>555.4</ele>
        <time>2012-09-07T14:42:28Z</time>
      </trkpt>
      <trkpt lat="45.99201" lon="1.39376">
        <ele>554.8</ele>
        <time>2012-09-07T14:42:30Z</time>
      </trkpt>
      <trkpt lat="45.99197" lon="1.39369">
        <ele>554.2</ele>
        <time>2012-09-07T14:42:32Z</time>
      </trkpt>
      <trkpt lat="45.99187" lon="1.39358">
        <ele>553.4</ele>
        <time>2012-09-07T14:42:35Z</time>
      </trkpt>
      <trkpt lat="45.99182" lon="1.39356">
        <ele>553</ele>
        <time>2012-09-07T14:42:36Z</time>
      </trkpt>
      <trkpt lat="45.99163" lon="1.39356">
        <ele>551.4</ele>
        <time>2012-09-07T14:42:41Z</time>
      </trkpt>
      <trkpt lat="45.99154" lon="1.39362">
        <ele>550</ele>
        <time>2012-09-07T14:42:45Z</time>
      </trkpt>
      <trkpt lat="45.99136" lon="1.39376">
        <ele>548.6</ele>
        <time>2012-09-07T14:42:49Z</time>
      </trkpt>
      <trkpt lat="45.99124" lon="1.39378">
        <ele>547.2</ele>
        <time>2012-09-07T14:42:53Z</time>
      </trkpt>
      <trkpt lat="45.99111" lon="1.39361">
        <ele>546.2</ele>
        <time>2012-09-07T14:42:56Z</time>
      </trkpt>
      <trkpt lat="45.99096" lon="1.39355">
        <ele>545.2</ele>
        <time>2012-09-07T14:42:59Z</time>
      </trkpt>
      <trkpt lat="45.99092" lon="1.39353">
        <ele>544.8</ele>
        <time>2012-09-07T14:43:00Z</time>
      </trkpt>
      <trkpt lat="45.99087" lon="1.39349">
        <ele>544.4</ele>
        <time>2012-09-07T14:43:01Z</time>
      </trkpt>
      <trkpt lat="45.99069" lon="1.3934">
        <ele>543</ele>
        <time>2012-09-07T14:43:04Z</time>
      </trkpt>
      <trkpt lat="45.9906" lon="1.39337">
        <ele>542.2</ele>
        <time>2012-09-07T14:43:06Z</time>
      </trkpt>
      <trkpt lat="45.99047" lon="1.3933">
        <ele>541</ele>
        <time>2012-09-07T14:43:09Z</time>
      </trkpt>
      <trkpt lat="45.99039" lon="1.39326">
        <ele>540</ele>
        <time>2012-09-07T14:43:11Z</time>
      </trkpt>
      <trkpt lat="45.99029" lon="1.39317">
        <ele>539.2</ele>
        <time>2012-09-07T14:43:13Z</time>
      </trkpt>
      <trkpt lat="45.99019" lon="1.39307">
        <ele>537.8</ele>
        <time>2012-09-07T14:43:16Z</time>
      </trkpt>
      <trkpt lat="45.99015" lon="1.39303">
        <ele>537.4</ele>
        <time>2012-09-07T14:43:17Z</time>
      </trkpt>
      <trkpt lat="45.99009" lon="1.39297">
        <ele>536.6</ele>
        <time>2012-09-07T14:43:19Z</time>
      </trkpt>
      <trkpt lat="45.99007" lon="1.3929">
        <ele>535.6</ele>
        <time>2012-09-07T14:43:21Z</time>
      </trkpt>
      <trkpt lat="45.9901" lon="1.3928">
        <ele>534</ele>
        <time>2012-09-07T14:43:24Z</time>
      </trkpt>
      <trkpt lat="45.99011" lon="1.39272">
        <ele>532.8</ele>
        <time>2012-09-07T14:43:27Z</time>
      </trkpt>
      <trkpt lat="45.99014" lon="1.39269">
        <ele>532</ele>
        <time>2012-09-07T14:43:29Z</time>
      </trkpt>
      <trkpt lat="45.99022" lon="1.39255">
        <ele>529.4</ele>
        <time>2012-09-07T14:43:35Z</time>
      </trkpt>
      <trkpt lat="45.9903" lon="1.39245">
        <ele>527</ele>
        <time>2012-09-07T14:43:41Z</time>
      </trkpt>
      <trkpt lat="45.99034" lon="1.3923">
        <ele>524.8</ele>
        <time>2012-09-07T14:43:47Z</time>
      </trkpt>
      <trkpt lat="45.99035" lon="1.39209">
        <ele>523</ele>
        <time>2012-09-07T14:43:53Z</time>
      </trkpt>
      <trkpt lat="45.99042" lon="1.39191">
        <ele>521</ele>
        <time>2012-09-07T14:44:01Z</time>
      </trkpt>
      <trkpt lat="45.99047" lon="1.39174">
        <ele>519.2</ele>
        <time>2012-09-07T14:44:09Z</time>
      </trkpt>
      <trkpt lat="45.99051" lon="1.39163">
        <ele>518.2</ele>
        <time>2012-09-07T14:44:15Z</time>
      </trkpt>
      <trkpt lat="45.99053" lon="1.39157">
        <ele>517.4</ele>
        <time>2012-09-07T14:44:20Z</time>
      </trkpt>
      <trkpt lat="45.99052" lon="1.39155">
        <ele>517.4</ele>
        <time>2012-09-07T14:44:21Z</time>
      </trkpt>
      <trkpt lat="45.99056" lon="1.3915">
        <ele>516.6</ele>
        <time>2012-09-07T14:44:26Z</time>
      </trkpt>
      <trkpt lat="45.99062" lon="1.39137">
        <ele>515.6</ele>
        <time>2012-09-07T14:44:35Z</time>
      </trkpt>
      <trkpt lat="45.99066" lon="1.39127">
        <ele>514.8</ele>
        <time>2012-09-07T14:44:42Z</time>
      </trkpt>
      <trkpt lat="45.99072" lon="1.39115">
        <ele>514</ele>
        <time>2012-09-07T14:44:50Z</time>
      </trkpt>
      <trkpt lat="45.99072" lon="1.39115">
        <ele>514</ele>
        <time>2012-09-07T14:44:51Z</time>
      </trkpt>
      <trkpt lat="45.99073" lon="1.39113">
        <ele>513.6</ele>
        <time>2012-09-07T14:44:56Z</time>
      </trkpt>
      <trkpt lat="45.99073" lon="1.39111">
        <ele>513.4</ele>
        <time>2012-09-07T14:44:57Z</time>
      </trkpt>
      <trkpt lat="45.99077" lon="1.39103">
        <ele>513.2</ele>
        <time>2012-09-07T14:45:01Z</time>
      </trkpt>
      <trkpt lat="45.99081" lon="1.39093">
        <ele>513</ele>
        <time>2012-09-07T14:45:06Z</time>
      </trkpt>
      <trkpt lat="45.99086" lon="1.39078">
        <ele>512.8</ele>
        <time>2012-09-07T14:45:12Z</time>
      </trkpt>
      <trkpt lat="45.9909" lon="1.39072">
        <ele>512.6</ele>
        <time>2012-09-07T14:45:15Z</time>
      </trkpt>
      <trkpt lat="45.99093" lon="1.39068">
        <ele>512.6</ele>
        <time>2012-09-07T14:45:17Z</time>
      </trkpt>
      <trkpt lat="45.99098" lon="1.39057">
        <ele>512.2</ele>
        <time>2012-09-07T14:45:22Z</time>
      </trkpt>
      <trkpt lat="45.99103" lon="1.39054">
        <ele>512.2</ele>
        <time>2012-09-07T14:45:26Z</time>
      </trkpt>
      <trkpt lat="45.99107" lon="1.39047">
        <ele>512</ele>
        <time>2012-09-07T14:45:30Z</time>
      </trkpt>
      <trkpt lat="45.9911" lon="1.39043">
        <ele>512</ele>
        <time>2012-09-07T14:45:32Z</time>
      </trkpt>
      <trkpt lat="45.99118" lon="1.39035">
        <ele>512.2</ele>
        <time>2012-09-07T14:45:38Z</time>
      </trkpt>
      <trkpt lat="45.99119" lon="1.39034">
        <ele>512.2</ele>
        <time>2012-09-07T14:45:39Z</time>
      </trkpt>
      <trkpt lat="45.99128" lon="1.39025">
        <ele>512</ele>
        <time>2012-09-07T14:45:45Z</time>
      </trkpt>
      <trkpt lat="45.99132" lon="1.39022">
        <ele>512</ele>
        <time>2012-09-07T14:45:48Z</time>
      </trkpt>
      <trkpt lat="45.99136" lon="1.39018">
        <ele>512</ele>
        <time>2012-09-07T14:45:51Z</time>
      </trkpt>
      <trkpt lat="45.99142" lon="1.39012">
        <ele>511.8</ele>
        <time>2012-09-07T14:45:56Z</time>
      </trkpt>
      <trkpt lat="45.99146" lon="1.39007">
        <ele>512</ele>
        <time>2012-09-07T14:45:59Z</time>
      </trkpt>
      <trkpt lat="45.99154" lon="1.39005">
        <ele>512.4</ele>
        <time>2012-09-07T14:46:02Z</time>
      </trkpt>
      <trkpt lat="45.99164" lon="1.38998">
        <ele>512.6</ele>
        <time>2012-09-07T14:46:08Z</time>
      </trkpt>
      <trkpt lat="45.99177" lon="1.38993">
        <ele>514.2</ele>
        <time>2012-09-07T14:46:15Z</time>
      </trkpt>
      <trkpt lat="45.99191" lon="1.38986">
        <ele>515.4</ele>
        <time>2012-09-07T14:46:21Z</time>
      </trkpt>
      <trkpt lat="45.99195" lon="1.38984">
        <ele>515.8</ele>
        <time>2012-09-07T14:46:23Z</time>
      </trkpt>
      <trkpt lat="45.992" lon="1.38982">
        <ele>516.4</ele>
        <time>2012-09-07T14:46:26Z</time>
      </trkpt>
      <trkpt lat="45.99212" lon="1.38974">
        <ele>517.8</ele>
        <time>2012-09-07T14:46:33Z</time>
      </trkpt>
      <trkpt lat="45.9922" lon="1.38971">
        <ele>518</ele>
        <time>2012-09-07T14:46:37Z</time>
      </trkpt>
      <trkpt lat="45.99221" lon="1.3897">
        <ele>518</ele>
        <time>2012-09-07T14:46:38Z</time>
      </trkpt>
      <trkpt lat="45.99225" lon="1.38969">
        <ele>518.6</ele>
        <time>2012-09-07T14:46:41Z</time>
      </trkpt>
      <trkpt lat="45.9923" lon="1.38966">
        <ele>519.2</ele>
        <time>2012-09-07T14:46:44Z</time>
      </trkpt>
      <trkpt lat="45.99239" lon="1.38961">
        <ele>520.6</ele>
        <time>2012-09-07T14:46:50Z</time>
      </trkpt>
      <trkpt lat="45.9925" lon="1.38956">
        <ele>522</ele>
        <time>2012-09-07T14:46:57Z</time>
      </trkpt>
      <trkpt lat="45.99264" lon="1.38946">
        <ele>523.2</ele>
        <time>2012-09-07T14:47:05Z</time>
      </trkpt>
      <trkpt lat="45.99278" lon="1.38939">
        <ele>523.8</ele>
        <time>2012-09-07T14:47:12Z</time>
      </trkpt>
      <trkpt lat="45.99289" lon="1.38934">
        <ele>524.6</ele>
        <time>2012-09-07T14:47:18Z</time>
      </trkpt>
      <trkpt lat="45.99299" lon="1.38926">
        <ele>526</ele>
        <time>2012-09-07T14:47:24Z</time>
      </trkpt>
      <trkpt lat="45.99313" lon="1.38918">
        <ele>527</ele>
        <time>2012-09-07T14:47:32Z</time>
      </trkpt>
      <trkpt lat="45.99323" lon="1.38913">
        <ele>527.2</ele>
        <time>2012-09-07T14:47:38Z</time>
      </trkpt>
      <trkpt lat="45.99325" lon="1.38911">
        <ele>527.2</ele>
        <time>2012-09-07T14:47:39Z</time>
      </trkpt>
      <trkpt lat="45.99333" lon="1.38907">
        <ele>527</ele>
        <time>2012-09-07T14:47:44Z</time>
      </trkpt>
      <trkpt lat="45.99342" lon="1.38896">
        <ele>526.8</ele>
        <time>2012-09-07T14:47:50Z</time>
      </trkpt>
      <trkpt lat="45.9935" lon="1.38888">
        <ele>526.4</ele>
        <time>2012-09-07T14:47:55Z</time>
      </trkpt>
      <trkpt lat="45.9935" lon="1.38888">
        <ele>526.4</ele>
        <time>2012-09-07T14:47:56Z</time>
      </trkpt>
      <trkpt lat="45.99352" lon="1.38885">
        <ele>526.4</ele>
        <time>2012-09-07T14:47:59Z</time>
      </trkpt>
      <trkpt lat="45.99355" lon="1.38882">
        <ele>526.2</ele>
        <time>2012-09-07T14:48:03Z</time>
      </trkpt>
      <trkpt lat="45.99356" lon="1.3888">
        <ele>526.2</ele>
        <time>2012-09-07T14:48:05Z</time>
      </trkpt>
      <trkpt lat="45.9936" lon="1.3888">
        <ele>526.4</ele>
        <time>2012-09-07T14:48:10Z</time>
      </trkpt>
      <trkpt lat="45.99364" lon="1.38873">
        <ele>527</ele>
        <time>2012-09-07T14:48:16Z</time>
      </trkpt>
      <trkpt lat="45.99365" lon="1.38873">
        <ele>527.2</ele>
        <time>2012-09-07T14:48:17Z</time>
      </trkpt>
      <trkpt lat="45.99366" lon="1.38864">
        <ele>528.4</ele>
        <time>2012-09-07T14:48:22Z</time>
      </trkpt>
      <trkpt lat="45.99365" lon="1.38861">
        <ele>528.8</ele>
        <time>2012-09-07T14:48:23Z</time>
      </trkpt>
      <trkpt lat="45.99371" lon="1.38857">
        <ele>529.6</ele>
        <time>2012-09-07T14:48:28Z</time>
      </trkpt>
      <trkpt lat="45.99372" lon="1.38855">
        <ele>529.6</ele>
        <time>2012-09-07T14:48:29Z</time>
      </trkpt>
      <trkpt lat="45.99377" lon="1.38849">
        <ele>529.8</ele>
        <time>2012-09-07T14:48:34Z</time>
      </trkpt>
      <trkpt lat="45.99383" lon="1.38843">
        <ele>529.6</ele>
        <time>2012-09-07T14:48:40Z</time>
      </trkpt>
      <trkpt lat="45.99384" lon="1.38841">
        <ele>529.6</ele>
        <time>2012-09-07T14:48:41Z</time>
      </trkpt>
      <trkpt lat="45.99386" lon="1.3884">
        <ele>529.6</ele>
        <time>2012-09-07T14:48:42Z</time>
      </trkpt>
      <trkpt lat="45.99387" lon="1.38833">
        <ele>530</ele>
        <time>2012-09-07T14:48:45Z</time>
      </trkpt>
      <trkpt lat="45.99396" lon="1.38826">
        <ele>529.8</ele>
        <time>2012-09-07T14:48:50Z</time>
      </trkpt>
      <trkpt lat="45.99397" lon="1.38824">
        <ele>529.8</ele>
        <time>2012-09-07T14:48:51Z</time>
      </trkpt>
      <trkpt lat="45.99404" lon="1.3882">
        <ele>530</ele>
        <time>2012-09-07T14:48:55Z</time>
      </trkpt>
      <trkpt lat="45.99408" lon="1.38809">
        <ele>530.6</ele>
        <time>2012-09-07T14:49:00Z</time>
      </trkpt>
      <trkpt lat="45.99408" lon="1.388">
        <ele>531.6</ele>
        <time>2012-09-07T14:49:03Z</time>
      </trkpt>
      <trkpt lat="45.9941" lon="1.38799">
        <ele>531.8</ele>
        <time>2012-09-07T14:49:04Z</time>
      </trkpt>
      <trkpt lat="45.99414" lon="1.38795">
        <ele>532.6</ele>
        <time>2012-09-07T14:49:06Z</time>
      </trkpt>
      <trkpt lat="45.99414" lon="1.38793">
        <ele>533</ele>
        <time>2012-09-07T14:49:07Z</time>
      </trkpt>
      <trkpt lat="45.99421" lon="1.38789">
        <ele>534</ele>
        <time>2012-09-07T14:49:10Z</time>
      </trkpt>
      <trkpt lat="45.9943" lon="1.38782">
        <ele>534.8</ele>
        <time>2012-09-07T14:49:15Z</time>
      </trkpt>
      <trkpt lat="45.99432" lon="1.3878">
        <ele>535</ele>
        <time>2012-09-07T14:49:16Z</time>
      </trkpt>
      <trkpt lat="45.9944" lon="1.38771">
        <ele>535.6</ele>
        <time>2012-09-07T14:49:21Z</time>
      </trkpt>
      <trkpt lat="45.99442" lon="1.38766">
        <ele>536.2</ele>
        <time>2012-09-07T14:49:23Z</time>
      </trkpt>
      <trkpt lat="45.99444" lon="1.38763">
        <ele>536.8</ele>
        <time>2012-09-07T14:49:25Z</time>
      </trkpt>
      <trkpt lat="45.99445" lon="1.38761">
        <ele>537.2</ele>
        <time>2012-09-07T14:49:26Z</time>
      </trkpt>
      <trkpt lat="45.99452" lon="1.38756">
        <ele>538</ele>
        <time>2012-09-07T14:49:30Z</time>
      </trkpt>
      <trkpt lat="45.99453" lon="1.38754">
        <ele>538.4</ele>
        <time>2012-09-07T14:49:31Z</time>
      </trkpt>
      <trkpt lat="45.99455" lon="1.38752">
        <ele>539.4</ele>
        <time>2012-09-07T14:49:33Z</time>
      </trkpt>
      <trkpt lat="45.99463" lon="1.38747">
        <ele>541.2</ele>
        <time>2012-09-07T14:49:37Z</time>
      </trkpt>
      <trkpt lat="45.99469" lon="1.38742">
        <ele>542.4</ele>
        <time>2012-09-07T14:49:40Z</time>
      </trkpt>
      <trkpt lat="45.99472" lon="1.3874">
        <ele>543.2</ele>
        <time>2012-09-07T14:49:42Z</time>
      </trkpt>
      <trkpt lat="45.99487" lon="1.38737">
        <ele>546.6</ele>
        <time>2012-09-07T14:49:48Z</time>
      </trkpt>
      <trkpt lat="45.99495" lon="1.38733">
        <ele>548.6</ele>
        <time>2012-09-07T14:49:52Z</time>
      </trkpt>
      <trkpt lat="45.99498" lon="1.38731">
        <ele>549.8</ele>
        <time>2012-09-07T14:49:54Z</time>
      </trkpt>
      <trkpt lat="45.99502" lon="1.38727">
        <ele>551.8</ele>
        <time>2012-09-07T14:49:59Z</time>
      </trkpt>
      <trkpt lat="45.99503" lon="1.38726">
        <ele>551.8</ele>
        <time>2012-09-07T14:50:00Z</time>
      </trkpt>
      <trkpt lat="45.99505" lon="1.3872">
        <ele>552.2</ele>
        <time>2012-09-07T14:50:04Z</time>
      </trkpt>
      <trkpt lat="45.99505" lon="1.38716">
        <ele>552.2</ele>
        <time>2012-09-07T14:50:07Z</time>
      </trkpt>
      <trkpt lat="45.99503" lon="1.387">
        <ele>552</ele>
        <time>2012-09-07T14:50:11Z</time>
      </trkpt>
      <trkpt lat="45.99499" lon="1.3869">
        <ele>551.8</ele>
        <time>2012-09-07T14:50:13Z</time>
      </trkpt>
      <trkpt lat="45.99498" lon="1.38684">
        <ele>551.8</ele>
        <time>2012-09-07T14:50:14Z</time>
      </trkpt>
      <trkpt lat="45.99499" lon="1.38662">
        <ele>551.2</ele>
        <time>2012-09-07T14:50:18Z</time>
      </trkpt>
      <trkpt lat="45.99503" lon="1.38653">
        <ele>550.8</ele>
        <time>2012-09-07T14:50:22Z</time>
      </trkpt>
      <trkpt lat="45.99504" lon="1.38641">
        <ele>550.4</ele>
        <time>2012-09-07T14:50:25Z</time>
      </trkpt>
      <trkpt lat="45.99506" lon="1.38638">
        <ele>550.4</ele>
        <time>2012-09-07T14:50:26Z</time>
      </trkpt>
      <trkpt lat="45.9951" lon="1.38634">
        <ele>550.2</ele>
        <time>2012-09-07T14:50:28Z</time>
      </trkpt>
      <trkpt lat="45.99516" lon="1.38631">
        <ele>549.8</ele>
        <time>2012-09-07T14:50:31Z</time>
      </trkpt>
      <trkpt lat="45.99519" lon="1.38628">
        <ele>549.8</ele>
        <time>2012-09-07T14:50:33Z</time>
      </trkpt>
      <trkpt lat="45.99523" lon="1.38621">
        <ele>549.6</ele>
        <time>2012-09-07T14:50:36Z</time>
      </trkpt>
      <trkpt lat="45.99526" lon="1.3862">
        <ele>549.4</ele>
        <time>2012-09-07T14:50:38Z</time>
      </trkpt>
      <trkpt lat="45.9953" lon="1.38619">
        <ele>549.4</ele>
        <time>2012-09-07T14:50:40Z</time>
      </trkpt>
      <trkpt lat="45.99533" lon="1.38608">
        <ele>549.2</ele>
        <time>2012-09-07T14:50:44Z</time>
      </trkpt>
      <trkpt lat="45.99535" lon="1.38604">
        <ele>549</ele>
        <time>2012-09-07T14:50:47Z</time>
      </trkpt>
      <trkpt lat="45.99536" lon="1.38603">
        <ele>549</ele>
        <time>2012-09-07T14:50:48Z</time>
      </trkpt>
      <trkpt lat="45.99538" lon="1.38602">
        <ele>549</ele>
        <time>2012-09-07T14:50:49Z</time>
      </trkpt>
      <trkpt lat="45.99543" lon="1.38592">
        <ele>548.8</ele>
        <time>2012-09-07T14:50:53Z</time>
      </trkpt>
      <trkpt lat="45.99543" lon="1.38588">
        <ele>548.8</ele>
        <time>2012-09-07T14:50:54Z</time>
      </trkpt>
      <trkpt lat="45.99539" lon="1.38572">
        <ele>548.6</ele>
        <time>2012-09-07T14:50:58Z</time>
      </trkpt>
      <trkpt lat="45.99536" lon="1.38556">
        <ele>548</ele>
        <time>2012-09-07T14:51:02Z</time>
      </trkpt>
      <trkpt lat="45.99534" lon="1.38555">
        <ele>548</ele>
        <time>2012-09-07T14:51:03Z</time>
      </trkpt>
      <trkpt lat="45.99521" lon="1.38553">
        <ele>547.6</ele>
        <time>2012-09-07T14:51:07Z</time>
      </trkpt>
      <trkpt lat="45.99518" lon="1.38553">
        <ele>547.2</ele>
        <time>2012-09-07T14:51:08Z</time>
      </trkpt>
      <trkpt lat="45.99509" lon="1.38555">
        <ele>546.4</ele>
        <time>2012-09-07T14:51:12Z</time>
      </trkpt>
      <trkpt lat="45.99508" lon="1.38553">
        <ele>546.2</ele>
        <time>2012-09-07T14:51:14Z</time>
      </trkpt>
      <trkpt lat="45.99508" lon="1.38549">
        <ele>545.8</ele>
        <time>2012-09-07T14:51:16Z</time>
      </trkpt>
      <trkpt lat="45.99505" lon="1.3854">
        <ele>544.6</ele>
        <time>2012-09-07T14:51:21Z</time>
      </trkpt>
      <trkpt lat="45.99498" lon="1.38543">
        <ele>544</ele>
        <time>2012-09-07T14:51:24Z</time>
      </trkpt>
      <trkpt lat="45.99494" lon="1.38545">
        <ele>543.4</ele>
        <time>2012-09-07T14:51:26Z</time>
      </trkpt>
      <trkpt lat="45.99483" lon="1.38555">
        <ele>541.8</ele>
        <time>2012-09-07T14:51:32Z</time>
      </trkpt>
      <trkpt lat="45.99474" lon="1.38565">
        <ele>540.6</ele>
        <time>2012-09-07T14:51:37Z</time>
      </trkpt>
      <trkpt lat="45.99472" lon="1.38565">
        <ele>539.8</ele>
        <time>2012-09-07T14:51:39Z</time>
      </trkpt>
      <trkpt lat="45.99471" lon="1.38566">
        <ele>539.4</ele>
        <time>2012-09-07T14:51:41Z</time>
      </trkpt>
      <trkpt lat="45.9947" lon="1.38564">
        <ele>538.8</ele>
        <time>2012-09-07T14:51:43Z</time>
      </trkpt>
      <trkpt lat="45.99471" lon="1.3856">
        <ele>538</ele>
        <time>2012-09-07T14:51:46Z</time>
      </trkpt>
      <trkpt lat="45.99472" lon="1.38558">
        <ele>537.8</ele>
        <time>2012-09-07T14:51:47Z</time>
      </trkpt>
      <trkpt lat="45.99474" lon="1.38554">
        <ele>537.2</ele>
        <time>2012-09-07T14:51:49Z</time>
      </trkpt>
      <trkpt lat="45.99474" lon="1.38549">
        <ele>536.6</ele>
        <time>2012-09-07T14:51:52Z</time>
      </trkpt>
      <trkpt lat="45.99475" lon="1.38543">
        <ele>535.6</ele>
        <time>2012-09-07T14:51:55Z</time>
      </trkpt>
      <trkpt lat="45.99478" lon="1.38537">
        <ele>535</ele>
        <time>2012-09-07T14:51:58Z</time>
      </trkpt>
      <trkpt lat="45.9948" lon="1.38536">
        <ele>534.2</ele>
        <time>2012-09-07T14:52:01Z</time>
      </trkpt>
      <trkpt lat="45.9948" lon="1.38536">
        <ele>533.8</ele>
        <time>2012-09-07T14:52:02Z</time>
      </trkpt>
      <trkpt lat="45.99482" lon="1.38528">
        <ele>532.4</ele>
        <time>2012-09-07T14:52:07Z</time>
      </trkpt>
      <trkpt lat="45.99485" lon="1.38522">
        <ele>531</ele>
        <time>2012-09-07T14:52:12Z</time>
      </trkpt>
      <trkpt lat="45.99491" lon="1.3852">
        <ele>530.2</ele>
        <time>2012-09-07T14:52:16Z</time>
      </trkpt>
      <trkpt lat="45.99493" lon="1.38518">
        <ele>529.8</ele>
        <time>2012-09-07T14:52:18Z</time>
      </trkpt>
      <trkpt lat="45.99499" lon="1.38515">
        <ele>528.8</ele>
        <time>2012-09-07T14:52:22Z</time>
      </trkpt>
      <trkpt lat="45.99502" lon="1.38514">
        <ele>528.4</ele>
        <time>2012-09-07T14:52:24Z</time>
      </trkpt>
      <trkpt lat="45.99504" lon="1.38512">
        <ele>527.8</ele>
        <time>2012-09-07T14:52:26Z</time>
      </trkpt>
      <trkpt lat="45.99508" lon="1.38507">
        <ele>527</ele>
        <time>2012-09-07T14:52:30Z</time>
      </trkpt>
      <trkpt lat="45.99512" lon="1.38501">
        <ele>526.2</ele>
        <time>2012-09-07T14:52:33Z</time>
      </trkpt>
      <trkpt lat="45.99512" lon="1.38499">
        <ele>526</ele>
        <time>2012-09-07T14:52:34Z</time>
      </trkpt>
      <trkpt lat="45.99513" lon="1.38498">
        <ele>525.8</ele>
        <time>2012-09-07T14:52:35Z</time>
      </trkpt>
      <trkpt lat="45.99512" lon="1.38493">
        <ele>525</ele>
        <time>2012-09-07T14:52:39Z</time>
      </trkpt>
      <trkpt lat="45.99508" lon="1.38486">
        <ele>524.6</ele>
        <time>2012-09-07T14:52:41Z</time>
      </trkpt>
      <trkpt lat="45.99506" lon="1.38485">
        <ele>524.4</ele>
        <time>2012-09-07T14:52:43Z</time>
      </trkpt>
      <trkpt lat="45.99504" lon="1.38487">
        <ele>523.4</ele>
        <time>2012-09-07T14:52:47Z</time>
      </trkpt>
      <trkpt lat="45.99495" lon="1.38488">
        <ele>522.6</ele>
        <time>2012-09-07T14:52:52Z</time>
      </trkpt>
      <trkpt lat="45.99486" lon="1.38492">
        <ele>521.6</ele>
        <time>2012-09-07T14:52:57Z</time>
      </trkpt>
      <trkpt lat="45.99479" lon="1.38492">
        <ele>520.2</ele>
        <time>2012-09-07T14:53:02Z</time>
      </trkpt>
      <trkpt lat="45.99477" lon="1.38491">
        <ele>518.4</ele>
        <time>2012-09-07T14:53:09Z</time>
      </trkpt>
      <trkpt lat="45.99473" lon="1.38493">
        <ele>517.8</ele>
        <time>2012-09-07T14:53:11Z</time>
      </trkpt>
      <trkpt lat="45.99467" lon="1.385">
        <ele>517</ele>
        <time>2012-09-07T14:53:14Z</time>
      </trkpt>
      <trkpt lat="45.99467" lon="1.38501">
        <ele>516.8</ele>
        <time>2012-09-07T14:53:15Z</time>
      </trkpt>
      <trkpt lat="45.99465" lon="1.38503">
        <ele>516.2</ele>
        <time>2012-09-07T14:53:18Z</time>
      </trkpt>
      <trkpt lat="45.99455" lon="1.38506">
        <ele>515.4</ele>
        <time>2012-09-07T14:53:22Z</time>
      </trkpt>
      <trkpt lat="45.99448" lon="1.38509">
        <ele>514.2</ele>
        <time>2012-09-07T14:53:26Z</time>
      </trkpt>
      <trkpt lat="45.99446" lon="1.3851">
        <ele>513.4</ele>
        <time>2012-09-07T14:53:30Z</time>
      </trkpt>
      <trkpt lat="45.9944" lon="1.38507">
        <ele>511.8</ele>
        <time>2012-09-07T14:53:37Z</time>
      </trkpt>
      <trkpt lat="45.99437" lon="1.38507">
        <ele>511.2</ele>
        <time>2012-09-07T14:53:39Z</time>
      </trkpt>
      <trkpt lat="45.99437" lon="1.38503">
        <ele>510.2</ele>
        <time>2012-09-07T14:53:43Z</time>
      </trkpt>
      <trkpt lat="45.99442" lon="1.38495">
        <ele>509</ele>
        <time>2012-09-07T14:53:49Z</time>
      </trkpt>
      <trkpt lat="45.99444" lon="1.3849">
        <ele>507.6</ele>
        <time>2012-09-07T14:53:54Z</time>
      </trkpt>
      <trkpt lat="45.99441" lon="1.3848">
        <ele>506</ele>
        <time>2012-09-07T14:54:00Z</time>
      </trkpt>
      <trkpt lat="45.9944" lon="1.38479">
        <ele>504.6</ele>
        <time>2012-09-07T14:54:05Z</time>
      </trkpt>
      <trkpt lat="45.99438" lon="1.38477">
        <ele>503</ele>
        <time>2012-09-07T14:54:10Z</time>
      </trkpt>
      <trkpt lat="45.99436" lon="1.38478">
        <ele>502.8</ele>
        <time>2012-09-07T14:54:11Z</time>
      </trkpt>
      <trkpt lat="45.99432" lon="1.38481">
        <ele>501.8</ele>
        <time>2012-09-07T14:54:14Z</time>
      </trkpt>
      <trkpt lat="45.99421" lon="1.38492">
        <ele>500.8</ele>
        <time>2012-09-07T14:54:18Z</time>
      </trkpt>
      <trkpt lat="45.99418" lon="1.38496">
        <ele>500.4</ele>
        <time>2012-09-07T14:54:19Z</time>
      </trkpt>
      <trkpt lat="45.99404" lon="1.38512">
        <ele>499.6</ele>
        <time>2012-09-07T14:54:23Z</time>
      </trkpt>
      <trkpt lat="45.99396" lon="1.38533">
        <ele>498.6</ele>
        <time>2012-09-07T14:54:27Z</time>
      </trkpt>
      <trkpt lat="45.99395" lon="1.38537">
        <ele>498.4</ele>
        <time>2012-09-07T14:54:28Z</time>
      </trkpt>
      <trkpt lat="45.99392" lon="1.38541">
        <ele>498</ele>
        <time>2012-09-07T14:54:30Z</time>
      </trkpt>
      <trkpt lat="45.9939" lon="1.38542">
        <ele>497.6</ele>
        <time>2012-09-07T14:54:31Z</time>
      </trkpt>
      <trkpt lat="45.99384" lon="1.38549">
        <ele>497</ele>
        <time>2012-09-07T14:54:34Z</time>
      </trkpt>
      <trkpt lat="45.99377" lon="1.38554">
        <ele>496.4</ele>
        <time>2012-09-07T14:54:36Z</time>
      </trkpt>
      <trkpt lat="45.99364" lon="1.38571">
        <ele>495.6</ele>
        <time>2012-09-07T14:54:40Z</time>
      </trkpt>
      <trkpt lat="45.99349" lon="1.3859">
        <ele>494.4</ele>
        <time>2012-09-07T14:54:45Z</time>
      </trkpt>
      <trkpt lat="45.99346" lon="1.38593">
        <ele>494.2</ele>
        <time>2012-09-07T14:54:46Z</time>
      </trkpt>
      <trkpt lat="45.99338" lon="1.38605">
        <ele>493.4</ele>
        <time>2012-09-07T14:54:49Z</time>
      </trkpt>
      <trkpt lat="45.99333" lon="1.38615">
        <ele>493</ele>
        <time>2012-09-07T14:54:51Z</time>
      </trkpt>
      <trkpt lat="45.99317" lon="1.38636">
        <ele>492.2</ele>
        <time>2012-09-07T14:54:55Z</time>
      </trkpt>
      <trkpt lat="45.99315" lon="1.38641">
        <ele>492</ele>
        <time>2012-09-07T14:54:56Z</time>
      </trkpt>
      <trkpt lat="45.99304" lon="1.38656">
        <ele>491</ele>
        <time>2012-09-07T14:55:01Z</time>
      </trkpt>
      <trkpt lat="45.99304" lon="1.38653">
        <ele>490.6</ele>
        <time>2012-09-07T14:55:03Z</time>
      </trkpt>
      <trkpt lat="45.99304" lon="1.38651">
        <ele>490.2</ele>
        <time>2012-09-07T14:55:04Z</time>
      </trkpt>
      <trkpt lat="45.993" lon="1.38654">
        <ele>489.4</ele>
        <time>2012-09-07T14:55:07Z</time>
      </trkpt>
      <trkpt lat="45.99298" lon="1.38655">
        <ele>488.8</ele>
        <time>2012-09-07T14:55:10Z</time>
      </trkpt>
      <trkpt lat="45.99297" lon="1.38656">
        <ele>488.4</ele>
        <time>2012-09-07T14:55:12Z</time>
      </trkpt>
      <trkpt lat="45.99291" lon="1.38657">
        <ele>487</ele>
        <time>2012-09-07T14:55:16Z</time>
      </trkpt>
      <trkpt lat="45.99284" lon="1.38666">
        <ele>486.2</ele>
        <time>2012-09-07T14:55:19Z</time>
      </trkpt>
      <trkpt lat="45.99282" lon="1.38668">
        <ele>485.8</ele>
        <time>2012-09-07T14:55:20Z</time>
      </trkpt>
      <trkpt lat="45.99277" lon="1.38666">
        <ele>484.8</ele>
        <time>2012-09-07T14:55:24Z</time>
      </trkpt>
      <trkpt lat="45.9927" lon="1.38661">
        <ele>483.6</ele>
        <time>2012-09-07T14:55:28Z</time>
      </trkpt>
      <trkpt lat="45.99267" lon="1.38663">
        <ele>483.2</ele>
        <time>2012-09-07T14:55:29Z</time>
      </trkpt>
      <trkpt lat="45.99258" lon="1.3867">
        <ele>481.8</ele>
        <time>2012-09-07T14:55:33Z</time>
      </trkpt>
      <trkpt lat="45.99253" lon="1.3867">
        <ele>480.6</ele>
        <time>2012-09-07T14:55:36Z</time>
      </trkpt>
      <trkpt lat="45.99252" lon="1.3867">
        <ele>479.8</ele>
        <time>2012-09-07T14:55:38Z</time>
      </trkpt>
      <trkpt lat="45.99252" lon="1.3867">
        <ele>479.6</ele>
        <time>2012-09-07T14:55:39Z</time>
      </trkpt>
      <trkpt lat="45.99246" lon="1.38671">
        <ele>477.8</ele>
        <time>2012-09-07T14:55:44Z</time>
      </trkpt>
      <trkpt lat="45.99243" lon="1.38671">
        <ele>477.4</ele>
        <time>2012-09-07T14:55:45Z</time>
      </trkpt>
      <trkpt lat="45.99237" lon="1.38672">
        <ele>475.6</ele>
        <time>2012-09-07T14:55:50Z</time>
      </trkpt>
      <trkpt lat="45.99236" lon="1.38671">
        <ele>475.2</ele>
        <time>2012-09-07T14:55:51Z</time>
      </trkpt>
      <trkpt lat="45.99231" lon="1.38667">
        <ele>473.4</ele>
        <time>2012-09-07T14:55:56Z</time>
      </trkpt>
      <trkpt lat="45.9923" lon="1.38654">
        <ele>472.2</ele>
        <time>2012-09-07T14:55:59Z</time>
      </trkpt>
      <trkpt lat="45.99238" lon="1.38637">
        <ele>470.8</ele>
        <time>2012-09-07T14:56:03Z</time>
      </trkpt>
      <trkpt lat="45.9924" lon="1.38626">
        <ele>470</ele>
        <time>2012-09-07T14:56:05Z</time>
      </trkpt>
      <trkpt lat="45.99243" lon="1.38613">
        <ele>468.8</ele>
        <time>2012-09-07T14:56:08Z</time>
      </trkpt>
      <trkpt lat="45.99241" lon="1.38604">
        <ele>467.8</ele>
        <time>2012-09-07T14:56:11Z</time>
      </trkpt>
      <trkpt lat="45.99237" lon="1.38602">
        <ele>467.4</ele>
        <time>2012-09-07T14:56:12Z</time>
      </trkpt>
      <trkpt lat="45.99228" lon="1.38599">
        <ele>466.4</ele>
        <time>2012-09-07T14:56:15Z</time>
      </trkpt>
      <trkpt lat="45.9922" lon="1.38597">
        <ele>465.8</ele>
        <time>2012-09-07T14:56:17Z</time>
      </trkpt>
      <trkpt lat="45.99204" lon="1.38596">
        <ele>464.4</ele>
        <time>2012-09-07T14:56:22Z</time>
      </trkpt>
      <trkpt lat="45.9919" lon="1.38596">
        <ele>462.8</ele>
        <time>2012-09-07T14:56:29Z</time>
      </trkpt>
      <trkpt lat="45.99182" lon="1.38596">
        <ele>461.8</ele>
        <time>2012-09-07T14:56:35Z</time>
      </trkpt>
      <trkpt lat="45.99174" lon="1.38599">
        <ele>461.2</ele>
        <time>2012-09-07T14:56:40Z</time>
      </trkpt>
      <trkpt lat="45.99171" lon="1.38598">
        <ele>461</ele>
        <time>2012-09-07T14:56:42Z</time>
      </trkpt>
      <trkpt lat="45.99165" lon="1.386">
        <ele>460.8</ele>
        <time>2012-09-07T14:56:45Z</time>
      </trkpt>
      <trkpt lat="45.99157" lon="1.38601">
        <ele>460.6</ele>
        <time>2012-09-07T14:56:49Z</time>
      </trkpt>
      <trkpt lat="45.99141" lon="1.38597">
        <ele>460</ele>
        <time>2012-09-07T14:56:55Z</time>
      </trkpt>
      <trkpt lat="45.99129" lon="1.38595">
        <ele>460</ele>
        <time>2012-09-07T14:57:01Z</time>
      </trkpt>
      <trkpt lat="45.99116" lon="1.38597">
        <ele>460</ele>
        <time>2012-09-07T14:57:07Z</time>
      </trkpt>
      <trkpt lat="45.991" lon="1.38607">
        <ele>459.8</ele>
        <time>2012-09-07T14:57:14Z</time>
      </trkpt>
      <trkpt lat="45.99088" lon="1.38609">
        <ele>459.2</ele>
        <time>2012-09-07T14:57:20Z</time>
      </trkpt>
      <trkpt lat="45.99079" lon="1.38611">
        <ele>459</ele>
        <time>2012-09-07T14:57:26Z</time>
      </trkpt>
      <trkpt lat="45.9907" lon="1.38617">
        <ele>458.6</ele>
        <time>2012-09-07T14:57:34Z</time>
      </trkpt>
      <trkpt lat="45.99068" lon="1.38616">
        <ele>458.6</ele>
        <time>2012-09-07T14:57:35Z</time>
      </trkpt>
      <trkpt lat="45.99063" lon="1.38622">
        <ele>458.4</ele>
        <time>2012-09-07T14:57:39Z</time>
      </trkpt>
      <trkpt lat="45.99061" lon="1.38623">
        <ele>458.4</ele>
        <time>2012-09-07T14:57:40Z</time>
      </trkpt>
      <trkpt lat="45.99059" lon="1.38623">
        <ele>458.4</ele>
        <time>2012-09-07T14:57:41Z</time>
      </trkpt>
      <trkpt lat="45.99053" lon="1.38627">
        <ele>458.2</ele>
        <time>2012-09-07T14:57:46Z</time>
      </trkpt>
      <trkpt lat="45.99042" lon="1.38634">
        <ele>458</ele>
        <time>2012-09-07T14:57:55Z</time>
      </trkpt>
      <trkpt lat="45.99033" lon="1.38642">
        <ele>458</ele>
        <time>2012-09-07T14:58:04Z</time>
      </trkpt>
      <trkpt lat="45.99021" lon="1.38648">
        <ele>457.8</ele>
        <time>2012-09-07T14:58:13Z</time>
      </trkpt>
      <trkpt lat="45.99012" lon="1.38655">
        <ele>457.8</ele>
        <time>2012-09-07T14:58:20Z</time>
      </trkpt>
      <trkpt lat="45.99001" lon="1.38664">
        <ele>458.2</ele>
        <time>2012-09-07T14:58:27Z</time>
      </trkpt>
      <trkpt lat="45.9899" lon="1.38673">
        <ele>458.8</ele>
        <time>2012-09-07T14:58:33Z</time>
      </trkpt>
      <trkpt lat="45.9899" lon="1.38674">
        <ele>459.8</ele>
        <time>2012-09-07T14:58:37Z</time>
      </trkpt>
      <trkpt lat="45.98993" lon="1.38674">
        <ele>460.6</ele>
        <time>2012-09-07T14:58:42Z</time>
      </trkpt>
      <trkpt lat="45.98994" lon="1.38673">
        <ele>461.6</ele>
        <time>2012-09-07T14:58:46Z</time>
      </trkpt>
      <trkpt lat="45.98991" lon="1.38675">
        <ele>481.8</ele>
        <time>2012-09-07T14:59:32Z</time>
      </trkpt>
      <trkpt lat="45.98982" lon="1.38681">
        <ele>481.8</ele>
        <time>2012-09-07T14:59:37Z</time>
      </trkpt>
      <trkpt lat="45.98966" lon="1.38688">
        <ele>481.6</ele>
        <time>2012-09-07T14:59:43Z</time>
      </trkpt>
      <trkpt lat="45.98947" lon="1.38698">
        <ele>481.2</ele>
        <time>2012-09-07T14:59:50Z</time>
      </trkpt>
      <trkpt lat="45.98944" lon="1.38699">
        <ele>481</ele>
        <time>2012-09-07T14:59:51Z</time>
      </trkpt>
      <trkpt lat="45.98926" lon="1.38702">
        <ele>480.6</ele>
        <time>2012-09-07T14:59:56Z</time>
      </trkpt>
      <trkpt lat="45.98919" lon="1.387">
        <ele>480.6</ele>
        <time>2012-09-07T14:59:58Z</time>
      </trkpt>
      <trkpt lat="45.98903" lon="1.38694">
        <ele>480</ele>
        <time>2012-09-07T15:00:04Z</time>
      </trkpt>
      <trkpt lat="45.98885" lon="1.38678">
        <ele>479.4</ele>
        <time>2012-09-07T15:00:10Z</time>
      </trkpt>
      <trkpt lat="45.98867" lon="1.38668">
        <ele>479</ele>
        <time>2012-09-07T15:00:16Z</time>
      </trkpt>
      <trkpt lat="45.98856" lon="1.38661">
        <ele>478.8</ele>
        <time>2012-09-07T15:00:22Z</time>
      </trkpt>
      <trkpt lat="45.98844" lon="1.38662">
        <ele>478.6</ele>
        <time>2012-09-07T15:00:28Z</time>
      </trkpt>
      <trkpt lat="45.9883" lon="1.38671">
        <ele>478</ele>
        <time>2012-09-07T15:00:34Z</time>
      </trkpt>
      <trkpt lat="45.98817" lon="1.38674">
        <ele>477.6</ele>
        <time>2012-09-07T15:00:38Z</time>
      </trkpt>
      <trkpt lat="45.98797" lon="1.38678">
        <ele>476.4</ele>
        <time>2012-09-07T15:00:44Z</time>
      </trkpt>
      <trkpt lat="45.98783" lon="1.38678">
        <ele>475.6</ele>
        <time>2012-09-07T15:00:48Z</time>
      </trkpt>
      <trkpt lat="45.98764" lon="1.38678">
        <ele>474.4</ele>
        <time>2012-09-07T15:00:53Z</time>
      </trkpt>
      <trkpt lat="45.98761" lon="1.38678">
        <ele>474.2</ele>
        <time>2012-09-07T15:00:54Z</time>
      </trkpt>
      <trkpt lat="45.98753" lon="1.38667">
        <ele>473.2</ele>
        <time>2012-09-07T15:00:58Z</time>
      </trkpt>
      <trkpt lat="45.98744" lon="1.3866">
        <ele>472.2</ele>
        <time>2012-09-07T15:01:03Z</time>
      </trkpt>
      <trkpt lat="45.9873" lon="1.38652">
        <ele>471</ele>
        <time>2012-09-07T15:01:11Z</time>
      </trkpt>
      <trkpt lat="45.9872" lon="1.38644">
        <ele>470.4</ele>
        <time>2012-09-07T15:01:18Z</time>
      </trkpt>
      <trkpt lat="45.9871" lon="1.38627">
        <ele>469.8</ele>
        <time>2012-09-07T15:01:26Z</time>
      </trkpt>
      <trkpt lat="45.9871" lon="1.38615">
        <ele>469.2</ele>
        <time>2012-09-07T15:01:31Z</time>
      </trkpt>
      <trkpt lat="45.9871" lon="1.38603">
        <ele>468.4</ele>
        <time>2012-09-07T15:01:37Z</time>
      </trkpt>
      <trkpt lat="45.98711" lon="1.38601">
        <ele>468.4</ele>
        <time>2012-09-07T15:01:38Z</time>
      </trkpt>
      <trkpt lat="45.98711" lon="1.38592">
        <ele>467.8</ele>
        <time>2012-09-07T15:01:43Z</time>
      </trkpt>
      <trkpt lat="45.98712" lon="1.38588">
        <ele>467.6</ele>
        <time>2012-09-07T15:01:45Z</time>
      </trkpt>
      <trkpt lat="45.98713" lon="1.38582">
        <ele>467.2</ele>
        <time>2012-09-07T15:01:48Z</time>
      </trkpt>
      <trkpt lat="45.98715" lon="1.38578">
        <ele>467</ele>
        <time>2012-09-07T15:01:51Z</time>
      </trkpt>
      <trkpt lat="45.98718" lon="1.38566">
        <ele>466.4</ele>
        <time>2012-09-07T15:01:58Z</time>
      </trkpt>
      <trkpt lat="45.9872" lon="1.3856">
        <ele>466</ele>
        <time>2012-09-07T15:02:02Z</time>
      </trkpt>
      <trkpt lat="45.98722" lon="1.38554">
        <ele>465.8</ele>
        <time>2012-09-07T15:02:05Z</time>
      </trkpt>
      <trkpt lat="45.98723" lon="1.38551">
        <ele>465.6</ele>
        <time>2012-09-07T15:02:07Z</time>
      </trkpt>
      <trkpt lat="45.98725" lon="1.38543">
        <ele>465.2</ele>
        <time>2012-09-07T15:02:12Z</time>
      </trkpt>
      <trkpt lat="45.98728" lon="1.38529">
        <ele>464.8</ele>
        <time>2012-09-07T15:02:20Z</time>
      </trkpt>
      <trkpt lat="45.98732" lon="1.38516">
        <ele>464.6</ele>
        <time>2012-09-07T15:02:28Z</time>
      </trkpt>
      <trkpt lat="45.98734" lon="1.38505">
        <ele>464.4</ele>
        <time>2012-09-07T15:02:34Z</time>
      </trkpt>
      <trkpt lat="45.98735" lon="1.38503">
        <ele>464.6</ele>
        <time>2012-09-07T15:02:35Z</time>
      </trkpt>
      <trkpt lat="45.98739" lon="1.38488">
        <ele>465.2</ele>
        <time>2012-09-07T15:02:44Z</time>
      </trkpt>
      <trkpt lat="45.98745" lon="1.38476">
        <ele>466.4</ele>
        <time>2012-09-07T15:02:52Z</time>
      </trkpt>
      <trkpt lat="45.98748" lon="1.38462">
        <ele>468.2</ele>
        <time>2012-09-07T15:03:00Z</time>
      </trkpt>
      <trkpt lat="45.98751" lon="1.3845">
        <ele>469.8</ele>
        <time>2012-09-07T15:03:07Z</time>
      </trkpt>
      <trkpt lat="45.98752" lon="1.38436">
        <ele>469.8</ele>
        <time>2012-09-07T15:03:13Z</time>
      </trkpt>
      <trkpt lat="45.98753" lon="1.38434">
        <ele>470</ele>
        <time>2012-09-07T15:03:14Z</time>
      </trkpt>
      <trkpt lat="45.98755" lon="1.38422">
        <ele>470.6</ele>
        <time>2012-09-07T15:03:22Z</time>
      </trkpt>
      <trkpt lat="45.98755" lon="1.38421">
        <ele>470.6</ele>
        <time>2012-09-07T15:03:23Z</time>
      </trkpt>
      <trkpt lat="45.98756" lon="1.38419">
        <ele>470.6</ele>
        <time>2012-09-07T15:03:24Z</time>
      </trkpt>
      <trkpt lat="45.98756" lon="1.38413">
        <ele>470.6</ele>
        <time>2012-09-07T15:03:27Z</time>
      </trkpt>
      <trkpt lat="45.98759" lon="1.38403">
        <ele>471</ele>
        <time>2012-09-07T15:03:33Z</time>
      </trkpt>
      <trkpt lat="45.98759" lon="1.38401">
        <ele>471</ele>
        <time>2012-09-07T15:03:34Z</time>
      </trkpt>
      <trkpt lat="45.9876" lon="1.38393">
        <ele>471.4</ele>
        <time>2012-09-07T15:03:39Z</time>
      </trkpt>
      <trkpt lat="45.98759" lon="1.38392">
        <ele>471.6</ele>
        <time>2012-09-07T15:03:40Z</time>
      </trkpt>
      <trkpt lat="45.9876" lon="1.38383">
        <ele>472</ele>
        <time>2012-09-07T15:03:45Z</time>
      </trkpt>
      <trkpt lat="45.98761" lon="1.38382">
        <ele>472</ele>
        <time>2012-09-07T15:03:46Z</time>
      </trkpt>
      <trkpt lat="45.98766" lon="1.38373">
        <ele>472.8</ele>
        <time>2012-09-07T15:03:54Z</time>
      </trkpt>
      <trkpt lat="45.98767" lon="1.38373">
        <ele>472.8</ele>
        <time>2012-09-07T15:03:55Z</time>
      </trkpt>
      <trkpt lat="45.98767" lon="1.38366">
        <ele>473.6</ele>
        <time>2012-09-07T15:04:00Z</time>
      </trkpt>
      <trkpt lat="45.98767" lon="1.38362">
        <ele>474.6</ele>
        <time>2012-09-07T15:04:04Z</time>
      </trkpt>
      <trkpt lat="45.98769" lon="1.38362">
        <ele>475</ele>
        <time>2012-09-07T15:04:07Z</time>
      </trkpt>
      <trkpt lat="45.98766" lon="1.38347">
        <ele>475.8</ele>
        <time>2012-09-07T15:04:13Z</time>
      </trkpt>
      <trkpt lat="45.98764" lon="1.38317">
        <ele>475.4</ele>
        <time>2012-09-07T15:04:17Z</time>
      </trkpt>
      <trkpt lat="45.98765" lon="1.38307">
        <ele>475.4</ele>
        <time>2012-09-07T15:04:20Z</time>
      </trkpt>
      <trkpt lat="45.98762" lon="1.38298">
        <ele>475.4</ele>
        <time>2012-09-07T15:04:22Z</time>
      </trkpt>
      <trkpt lat="45.98759" lon="1.38292">
        <ele>475.4</ele>
        <time>2012-09-07T15:04:24Z</time>
      </trkpt>
      <trkpt lat="45.98744" lon="1.38285">
        <ele>475.4</ele>
        <time>2012-09-07T15:04:28Z</time>
      </trkpt>
      <trkpt lat="45.98735" lon="1.38281">
        <ele>476</ele>
        <time>2012-09-07T15:04:32Z</time>
      </trkpt>
      <trkpt lat="45.98725" lon="1.38272">
        <ele>476.8</ele>
        <time>2012-09-07T15:04:36Z</time>
      </trkpt>
      <trkpt lat="45.98721" lon="1.38272">
        <ele>477</ele>
        <time>2012-09-07T15:04:37Z</time>
      </trkpt>
      <trkpt lat="45.98704" lon="1.3827">
        <ele>478.4</ele>
        <time>2012-09-07T15:04:43Z</time>
      </trkpt>
      <trkpt lat="45.98692" lon="1.38272">
        <ele>479.4</ele>
        <time>2012-09-07T15:04:48Z</time>
      </trkpt>
      <trkpt lat="45.9868" lon="1.38273">
        <ele>480.8</ele>
        <time>2012-09-07T15:04:54Z</time>
      </trkpt>
      <trkpt lat="45.98667" lon="1.38276">
        <ele>482.4</ele>
        <time>2012-09-07T15:05:01Z</time>
      </trkpt>
      <trkpt lat="45.98653" lon="1.38277">
        <ele>484.2</ele>
        <time>2012-09-07T15:05:09Z</time>
      </trkpt>
      <trkpt lat="45.98645" lon="1.3828">
        <ele>485.8</ele>
        <time>2012-09-07T15:05:15Z</time>
      </trkpt>
      <trkpt lat="45.98636" lon="1.38279">
        <ele>486.8</ele>
        <time>2012-09-07T15:05:21Z</time>
      </trkpt>
      <trkpt lat="45.98628" lon="1.38276">
        <ele>488</ele>
        <time>2012-09-07T15:05:27Z</time>
      </trkpt>
      <trkpt lat="45.98618" lon="1.38275">
        <ele>489</ele>
        <time>2012-09-07T15:05:33Z</time>
      </trkpt>
      <trkpt lat="45.98616" lon="1.38276">
        <ele>489</ele>
        <time>2012-09-07T15:05:34Z</time>
      </trkpt>
      <trkpt lat="45.98603" lon="1.38283">
        <ele>488.8</ele>
        <time>2012-09-07T15:05:38Z</time>
      </trkpt>
      <trkpt lat="45.98597" lon="1.38291">
        <ele>488.8</ele>
        <time>2012-09-07T15:05:40Z</time>
      </trkpt>
      <trkpt lat="45.98589" lon="1.38298">
        <ele>488.6</ele>
        <time>2012-09-07T15:05:43Z</time>
      </trkpt>
      <trkpt lat="45.98572" lon="1.3832">
        <ele>488.4</ele>
        <time>2012-09-07T15:05:48Z</time>
      </trkpt>
      <trkpt lat="45.9857" lon="1.38327">
        <ele>488.6</ele>
        <time>2012-09-07T15:05:49Z</time>
      </trkpt>
      <trkpt lat="45.98562" lon="1.38341">
        <ele>488.4</ele>
        <time>2012-09-07T15:05:52Z</time>
      </trkpt>
      <trkpt lat="45.98559" lon="1.3835">
        <ele>488.4</ele>
        <time>2012-09-07T15:05:54Z</time>
      </trkpt>
      <trkpt lat="45.98556" lon="1.3836">
        <ele>488.6</ele>
        <time>2012-09-07T15:05:56Z</time>
      </trkpt>
      <trkpt lat="45.98555" lon="1.38366">
        <ele>488.8</ele>
        <time>2012-09-07T15:05:57Z</time>
      </trkpt>
      <trkpt lat="45.98551" lon="1.3838">
        <ele>489.2</ele>
        <time>2012-09-07T15:06:00Z</time>
      </trkpt>
      <trkpt lat="45.9855" lon="1.38392">
        <ele>489.4</ele>
        <time>2012-09-07T15:06:02Z</time>
      </trkpt>
      <trkpt lat="45.98547" lon="1.38416">
        <ele>490.2</ele>
        <time>2012-09-07T15:06:07Z</time>
      </trkpt>
      <trkpt lat="45.98542" lon="1.3844">
        <ele>491</ele>
        <time>2012-09-07T15:06:13Z</time>
      </trkpt>
      <trkpt lat="45.9854" lon="1.38457">
        <ele>491</ele>
        <time>2012-09-07T15:06:18Z</time>
      </trkpt>
      <trkpt lat="45.98537" lon="1.38475">
        <ele>491.4</ele>
        <time>2012-09-07T15:06:23Z</time>
      </trkpt>
      <trkpt lat="45.98534" lon="1.38495">
        <ele>491.2</ele>
        <time>2012-09-07T15:06:27Z</time>
      </trkpt>
      <trkpt lat="45.98529" lon="1.38521">
        <ele>491.4</ele>
        <time>2012-09-07T15:06:32Z</time>
      </trkpt>
      <trkpt lat="45.98527" lon="1.38526">
        <ele>491.4</ele>
        <time>2012-09-07T15:06:33Z</time>
      </trkpt>
      <trkpt lat="45.98521" lon="1.38552">
        <ele>491.2</ele>
        <time>2012-09-07T15:06:39Z</time>
      </trkpt>
      <trkpt lat="45.9852" lon="1.38561">
        <ele>491.2</ele>
        <time>2012-09-07T15:06:41Z</time>
      </trkpt>
      <trkpt lat="45.98512" lon="1.38583">
        <ele>492</ele>
        <time>2012-09-07T15:06:46Z</time>
      </trkpt>
      <trkpt lat="45.98504" lon="1.38603">
        <ele>493</ele>
        <time>2012-09-07T15:06:51Z</time>
      </trkpt>
      <trkpt lat="45.98492" lon="1.38625">
        <ele>494.4</ele>
        <time>2012-09-07T15:06:58Z</time>
      </trkpt>
      <trkpt lat="45.98482" lon="1.38641">
        <ele>495.2</ele>
        <time>2012-09-07T15:07:03Z</time>
      </trkpt>
      <trkpt lat="45.98473" lon="1.38655">
        <ele>495.6</ele>
        <time>2012-09-07T15:07:08Z</time>
      </trkpt>
      <trkpt lat="45.98458" lon="1.38673">
        <ele>495.8</ele>
        <time>2012-09-07T15:07:13Z</time>
      </trkpt>
      <trkpt lat="45.98444" lon="1.38694">
        <ele>495.8</ele>
        <time>2012-09-07T15:07:17Z</time>
      </trkpt>
      <trkpt lat="45.98436" lon="1.38707">
        <ele>495.8</ele>
        <time>2012-09-07T15:07:19Z</time>
      </trkpt>
      <trkpt lat="45.98423" lon="1.38729">
        <ele>495.6</ele>
        <time>2012-09-07T15:07:22Z</time>
      </trkpt>
      <trkpt lat="45.98421" lon="1.38737">
        <ele>495.6</ele>
        <time>2012-09-07T15:07:23Z</time>
      </trkpt>
      <trkpt lat="45.98412" lon="1.38767">
        <ele>495.2</ele>
        <time>2012-09-07T15:07:26Z</time>
      </trkpt>
      <trkpt lat="45.984" lon="1.38796">
        <ele>494.6</ele>
        <time>2012-09-07T15:07:29Z</time>
      </trkpt>
      <trkpt lat="45.98395" lon="1.38805">
        <ele>494.6</ele>
        <time>2012-09-07T15:07:30Z</time>
      </trkpt>
      <trkpt lat="45.9839" lon="1.38811">
        <ele>494.2</ele>
        <time>2012-09-07T15:07:31Z</time>
      </trkpt>
      <trkpt lat="45.98381" lon="1.38829">
        <ele>493.8</ele>
        <time>2012-09-07T15:07:33Z</time>
      </trkpt>
      <trkpt lat="45.98379" lon="1.38836">
        <ele>493.6</ele>
        <time>2012-09-07T15:07:34Z</time>
      </trkpt>
      <trkpt lat="45.98371" lon="1.3885">
        <ele>493.2</ele>
        <time>2012-09-07T15:07:36Z</time>
      </trkpt>
      <trkpt lat="45.98362" lon="1.38862">
        <ele>492.6</ele>
        <time>2012-09-07T15:07:38Z</time>
      </trkpt>
      <trkpt lat="45.98358" lon="1.3887">
        <ele>492.4</ele>
        <time>2012-09-07T15:07:39Z</time>
      </trkpt>
      <trkpt lat="45.98347" lon="1.38888">
        <ele>491.4</ele>
        <time>2012-09-07T15:07:42Z</time>
      </trkpt>
      <trkpt lat="45.98337" lon="1.38913">
        <ele>490</ele>
        <time>2012-09-07T15:07:46Z</time>
      </trkpt>
      <trkpt lat="45.98334" lon="1.38919">
        <ele>489.6</ele>
        <time>2012-09-07T15:07:47Z</time>
      </trkpt>
      <trkpt lat="45.98333" lon="1.38927">
        <ele>489.2</ele>
        <time>2012-09-07T15:07:48Z</time>
      </trkpt>
      <trkpt lat="45.98327" lon="1.3895">
        <ele>488.2</ele>
        <time>2012-09-07T15:07:51Z</time>
      </trkpt>
      <trkpt lat="45.98317" lon="1.38967">
        <ele>487.4</ele>
        <time>2012-09-07T15:07:53Z</time>
      </trkpt>
      <trkpt lat="45.98308" lon="1.38981">
        <ele>486.6</ele>
        <time>2012-09-07T15:07:55Z</time>
      </trkpt>
      <trkpt lat="45.98294" lon="1.38997">
        <ele>485.6</ele>
        <time>2012-09-07T15:07:57Z</time>
      </trkpt>
      <trkpt lat="45.98279" lon="1.39005">
        <ele>484.8</ele>
        <time>2012-09-07T15:07:59Z</time>
      </trkpt>
      <trkpt lat="45.98259" lon="1.39016">
        <ele>483.6</ele>
        <time>2012-09-07T15:08:02Z</time>
      </trkpt>
      <trkpt lat="45.98248" lon="1.39024">
        <ele>482.8</ele>
        <time>2012-09-07T15:08:04Z</time>
      </trkpt>
      <trkpt lat="45.98238" lon="1.39035">
        <ele>482</ele>
        <time>2012-09-07T15:08:06Z</time>
      </trkpt>
      <trkpt lat="45.98224" lon="1.39046">
        <ele>480.8</ele>
        <time>2012-09-07T15:08:09Z</time>
      </trkpt>
      <trkpt lat="45.98217" lon="1.39048">
        <ele>480.4</ele>
        <time>2012-09-07T15:08:10Z</time>
      </trkpt>
      <trkpt lat="45.98196" lon="1.39052">
        <ele>478.8</ele>
        <time>2012-09-07T15:08:14Z</time>
      </trkpt>
      <trkpt lat="45.9819" lon="1.39052">
        <ele>478.6</ele>
        <time>2012-09-07T15:08:15Z</time>
      </trkpt>
      <trkpt lat="45.98168" lon="1.39054">
        <ele>477.6</ele>
        <time>2012-09-07T15:08:18Z</time>
      </trkpt>
      <trkpt lat="45.9816" lon="1.39054">
        <ele>477.2</ele>
        <time>2012-09-07T15:08:19Z</time>
      </trkpt>
      <trkpt lat="45.98147" lon="1.39054">
        <ele>476.8</ele>
        <time>2012-09-07T15:08:21Z</time>
      </trkpt>
      <trkpt lat="45.98128" lon="1.39054">
        <ele>475.8</ele>
        <time>2012-09-07T15:08:24Z</time>
      </trkpt>
      <trkpt lat="45.98117" lon="1.39056">
        <ele>475.2</ele>
        <time>2012-09-07T15:08:26Z</time>
      </trkpt>
      <trkpt lat="45.98109" lon="1.39061">
        <ele>474.6</ele>
        <time>2012-09-07T15:08:28Z</time>
      </trkpt>
      <trkpt lat="45.98102" lon="1.39069">
        <ele>474</ele>
        <time>2012-09-07T15:08:30Z</time>
      </trkpt>
      <trkpt lat="45.98083" lon="1.39091">
        <ele>473</ele>
        <time>2012-09-07T15:08:33Z</time>
      </trkpt>
      <trkpt lat="45.98066" lon="1.39114">
        <ele>471.8</ele>
        <time>2012-09-07T15:08:36Z</time>
      </trkpt>
      <trkpt lat="45.9806" lon="1.39119">
        <ele>471.4</ele>
        <time>2012-09-07T15:08:37Z</time>
      </trkpt>
      <trkpt lat="45.98055" lon="1.39125">
        <ele>471.2</ele>
        <time>2012-09-07T15:08:38Z</time>
      </trkpt>
      <trkpt lat="45.98044" lon="1.39134">
        <ele>470.6</ele>
        <time>2012-09-07T15:08:40Z</time>
      </trkpt>
      <trkpt lat="45.98031" lon="1.3914">
        <ele>469.4</ele>
        <time>2012-09-07T15:08:43Z</time>
      </trkpt>
      <trkpt lat="45.98016" lon="1.39136">
        <ele>468.6</ele>
        <time>2012-09-07T15:08:46Z</time>
      </trkpt>
      <trkpt lat="45.98006" lon="1.39133">
        <ele>467.8</ele>
        <time>2012-09-07T15:08:48Z</time>
      </trkpt>
      <trkpt lat="45.98002" lon="1.3913">
        <ele>467.6</ele>
        <time>2012-09-07T15:08:49Z</time>
      </trkpt>
      <trkpt lat="45.97991" lon="1.39128">
        <ele>467</ele>
        <time>2012-09-07T15:08:51Z</time>
      </trkpt>
      <trkpt lat="45.9798" lon="1.39122">
        <ele>466</ele>
        <time>2012-09-07T15:08:54Z</time>
      </trkpt>
      <trkpt lat="45.97972" lon="1.39118">
        <ele>465.4</ele>
        <time>2012-09-07T15:08:56Z</time>
      </trkpt>
      <trkpt lat="45.97968" lon="1.39116">
        <ele>465.2</ele>
        <time>2012-09-07T15:08:57Z</time>
      </trkpt>
      <trkpt lat="45.97953" lon="1.39111">
        <ele>464</ele>
        <time>2012-09-07T15:09:01Z</time>
      </trkpt>
      <trkpt lat="45.97949" lon="1.39111">
        <ele>464</ele>
        <time>2012-09-07T15:09:02Z</time>
      </trkpt>
      <trkpt lat="45.97936" lon="1.39108">
        <ele>463.2</ele>
        <time>2012-09-07T15:09:05Z</time>
      </trkpt>
      <trkpt lat="45.97931" lon="1.39108">
        <ele>463</ele>
        <time>2012-09-07T15:09:06Z</time>
      </trkpt>
      <trkpt lat="45.9791" lon="1.3911">
        <ele>461.8</ele>
        <time>2012-09-07T15:09:11Z</time>
      </trkpt>
      <trkpt lat="45.97906" lon="1.39111">
        <ele>461.8</ele>
        <time>2012-09-07T15:09:12Z</time>
      </trkpt>
      <trkpt lat="45.97893" lon="1.39116">
        <ele>461</ele>
        <time>2012-09-07T15:09:16Z</time>
      </trkpt>
      <trkpt lat="45.97881" lon="1.39115">
        <ele>460</ele>
        <time>2012-09-07T15:09:20Z</time>
      </trkpt>
      <trkpt lat="45.97863" lon="1.3912">
        <ele>458.8</ele>
        <time>2012-09-07T15:09:26Z</time>
      </trkpt>
      <trkpt lat="45.97845" lon="1.39129">
        <ele>457.2</ele>
        <time>2012-09-07T15:09:33Z</time>
      </trkpt>
      <trkpt lat="45.97825" lon="1.39132">
        <ele>455.6</ele>
        <time>2012-09-07T15:09:41Z</time>
      </trkpt>
      <trkpt lat="45.97823" lon="1.39129">
        <ele>455.4</ele>
        <time>2012-09-07T15:09:42Z</time>
      </trkpt>
      <trkpt lat="45.97825" lon="1.39119">
        <ele>454.8</ele>
        <time>2012-09-07T15:09:46Z</time>
      </trkpt>
      <trkpt lat="45.97828" lon="1.39115">
        <ele>454.4</ele>
        <time>2012-09-07T15:09:48Z</time>
      </trkpt>
      <trkpt lat="45.97837" lon="1.39098">
        <ele>453.4</ele>
        <time>2012-09-07T15:09:56Z</time>
      </trkpt>
      <trkpt lat="45.97846" lon="1.39077">
        <ele>452.8</ele>
        <time>2012-09-07T15:10:05Z</time>
      </trkpt>
      <trkpt lat="45.97853" lon="1.39061">
        <ele>452.2</ele>
        <time>2012-09-07T15:10:12Z</time>
      </trkpt>
      <trkpt lat="45.97866" lon="1.39047">
        <ele>451.8</ele>
        <time>2012-09-07T15:10:21Z</time>
      </trkpt>
      <trkpt lat="45.97874" lon="1.39045">
        <ele>451.8</ele>
        <time>2012-09-07T15:10:28Z</time>
      </trkpt>
      <trkpt lat="45.97871" lon="1.39038">
        <ele>459.4</ele>
        <time>2012-09-07T15:11:26Z</time>
      </trkpt>
      <trkpt lat="45.97866" lon="1.39026">
        <ele>458.6</ele>
        <time>2012-09-07T15:11:35Z</time>
      </trkpt>
      <trkpt lat="45.97858" lon="1.39017">
        <ele>458</ele>
        <time>2012-09-07T15:11:41Z</time>
      </trkpt>
      <trkpt lat="45.9785" lon="1.39002">
        <ele>457.4</ele>
        <time>2012-09-07T15:11:45Z</time>
      </trkpt>
      <trkpt lat="45.97844" lon="1.38978">
        <ele>456.8</ele>
        <time>2012-09-07T15:11:50Z</time>
      </trkpt>
      <trkpt lat="45.97852" lon="1.38952">
        <ele>456</ele>
        <time>2012-09-07T15:11:55Z</time>
      </trkpt>
      <trkpt lat="45.97857" lon="1.38936">
        <ele>455.4</ele>
        <time>2012-09-07T15:11:59Z</time>
      </trkpt>
      <trkpt lat="45.97862" lon="1.38916">
        <ele>454.8</ele>
        <time>2012-09-07T15:12:04Z</time>
      </trkpt>
      <trkpt lat="45.97867" lon="1.38898">
        <ele>454</ele>
        <time>2012-09-07T15:12:08Z</time>
      </trkpt>
      <trkpt lat="45.97877" lon="1.38874">
        <ele>453</ele>
        <time>2012-09-07T15:12:14Z</time>
      </trkpt>
      <trkpt lat="45.97882" lon="1.38843">
        <ele>452.2</ele>
        <time>2012-09-07T15:12:19Z</time>
      </trkpt>
      <trkpt lat="45.9789" lon="1.38826">
        <ele>451.8</ele>
        <time>2012-09-07T15:12:23Z</time>
      </trkpt>
      <trkpt lat="45.97895" lon="1.38816">
        <ele>451.2</ele>
        <time>2012-09-07T15:12:27Z</time>
      </trkpt>
      <trkpt lat="45.9791" lon="1.38798">
        <ele>450.6</ele>
        <time>2012-09-07T15:12:34Z</time>
      </trkpt>
      <trkpt lat="45.97926" lon="1.38779">
        <ele>450</ele>
        <time>2012-09-07T15:12:40Z</time>
      </trkpt>
      <trkpt lat="45.97939" lon="1.38761">
        <ele>449.6</ele>
        <time>2012-09-07T15:12:45Z</time>
      </trkpt>
      <trkpt lat="45.97942" lon="1.38752">
        <ele>449.6</ele>
        <time>2012-09-07T15:12:47Z</time>
      </trkpt>
      <trkpt lat="45.97952" lon="1.38723">
        <ele>449</ele>
        <time>2012-09-07T15:12:52Z</time>
      </trkpt>
      <trkpt lat="45.97964" lon="1.38696">
        <ele>448.6</ele>
        <time>2012-09-07T15:12:56Z</time>
      </trkpt>
      <trkpt lat="45.97966" lon="1.3869">
        <ele>448.6</ele>
        <time>2012-09-07T15:12:57Z</time>
      </trkpt>
      <trkpt lat="45.97968" lon="1.38683">
        <ele>448.6</ele>
        <time>2012-09-07T15:12:58Z</time>
      </trkpt>
      <trkpt lat="45.97967" lon="1.38664">
        <ele>448</ele>
        <time>2012-09-07T15:13:01Z</time>
      </trkpt>
      <trkpt lat="45.97955" lon="1.38643">
        <ele>447.4</ele>
        <time>2012-09-07T15:13:05Z</time>
      </trkpt>
      <trkpt lat="45.97944" lon="1.3864">
        <ele>447</ele>
        <time>2012-09-07T15:13:08Z</time>
      </trkpt>
      <trkpt lat="45.97939" lon="1.38635">
        <ele>446.8</ele>
        <time>2012-09-07T15:13:12Z</time>
      </trkpt>
      <trkpt lat="45.97932" lon="1.38627">
        <ele>446.4</ele>
        <time>2012-09-07T15:13:17Z</time>
      </trkpt>
      <trkpt lat="45.97931" lon="1.38627">
        <ele>446.4</ele>
        <time>2012-09-07T15:13:18Z</time>
      </trkpt>
      <trkpt lat="45.9793" lon="1.38628">
        <ele>446.4</ele>
        <time>2012-09-07T15:13:19Z</time>
      </trkpt>
      <trkpt lat="45.97926" lon="1.3863">
        <ele>446.4</ele>
        <time>2012-09-07T15:13:22Z</time>
      </trkpt>
      <trkpt lat="45.97924" lon="1.38631">
        <ele>446.4</ele>
        <time>2012-09-07T15:13:24Z</time>
      </trkpt>
      <trkpt lat="45.97922" lon="1.38631">
        <ele>446.4</ele>
        <time>2012-09-07T15:13:26Z</time>
      </trkpt>
      <trkpt lat="45.97921" lon="1.38632">
        <ele>446.4</ele>
        <time>2012-09-07T15:13:28Z</time>
      </trkpt>
      <trkpt lat="45.97916" lon="1.38633">
        <ele>447.4</ele>
        <time>2012-09-07T15:13:32Z</time>
      </trkpt>
      <trkpt lat="45.97913" lon="1.38634">
        <ele>448.4</ele>
        <time>2012-09-07T15:13:35Z</time>
      </trkpt>
      <trkpt lat="45.97911" lon="1.38633">
        <ele>449.2</ele>
        <time>2012-09-07T15:13:38Z</time>
      </trkpt>
      <trkpt lat="45.9791" lon="1.38631">
        <ele>449.8</ele>
        <time>2012-09-07T15:13:40Z</time>
      </trkpt>
      <trkpt lat="45.97912" lon="1.38629">
        <ele>450.6</ele>
        <time>2012-09-07T15:13:43Z</time>
      </trkpt>
      <trkpt lat="45.97913" lon="1.38628">
        <ele>451</ele>
        <time>2012-09-07T15:13:46Z</time>
      </trkpt>
      <trkpt lat="45.97915" lon="1.38623">
        <ele>451.2</ele>
        <time>2012-09-07T15:13:50Z</time>
      </trkpt>
      <trkpt lat="45.97915" lon="1.38622">
        <ele>451.2</ele>
        <time>2012-09-07T15:13:51Z</time>
      </trkpt>
      <trkpt lat="45.9792" lon="1.38607">
        <ele>451</ele>
        <time>2012-09-07T15:13:57Z</time>
      </trkpt>
      <trkpt lat="45.9793" lon="1.38599">
        <ele>451</ele>
        <time>2012-09-07T15:14:01Z</time>
      </trkpt>
      <trkpt lat="45.97932" lon="1.38595">
        <ele>450.8</ele>
        <time>2012-09-07T15:14:03Z</time>
      </trkpt>
      <trkpt lat="45.97933" lon="1.3859">
        <ele>450.6</ele>
        <time>2012-09-07T15:14:05Z</time>
      </trkpt>
      <trkpt lat="45.97939" lon="1.38574">
        <ele>450.2</ele>
        <time>2012-09-07T15:14:10Z</time>
      </trkpt>
      <trkpt lat="45.9794" lon="1.38567">
        <ele>450</ele>
        <time>2012-09-07T15:14:12Z</time>
      </trkpt>
      <trkpt lat="45.97942" lon="1.38562">
        <ele>449.8</ele>
        <time>2012-09-07T15:14:14Z</time>
      </trkpt>
      <trkpt lat="45.97947" lon="1.38544">
        <ele>449</ele>
        <time>2012-09-07T15:14:19Z</time>
      </trkpt>
      <trkpt lat="45.97956" lon="1.38525">
        <ele>448.2</ele>
        <time>2012-09-07T15:14:23Z</time>
      </trkpt>
      <trkpt lat="45.97971" lon="1.38502">
        <ele>447.4</ele>
        <time>2012-09-07T15:14:28Z</time>
      </trkpt>
      <trkpt lat="45.97987" lon="1.38479">
        <ele>446.6</ele>
        <time>2012-09-07T15:14:32Z</time>
      </trkpt>
      <trkpt lat="45.9799" lon="1.38475">
        <ele>446.4</ele>
        <time>2012-09-07T15:14:33Z</time>
      </trkpt>
      <trkpt lat="45.98" lon="1.38459">
        <ele>445.8</ele>
        <time>2012-09-07T15:14:36Z</time>
      </trkpt>
      <trkpt lat="45.98006" lon="1.38452">
        <ele>445.4</ele>
        <time>2012-09-07T15:14:38Z</time>
      </trkpt>
      <trkpt lat="45.98015" lon="1.38435">
        <ele>444.4</ele>
        <time>2012-09-07T15:14:43Z</time>
      </trkpt>
      <trkpt lat="45.98018" lon="1.38428">
        <ele>444.2</ele>
        <time>2012-09-07T15:14:45Z</time>
      </trkpt>
      <trkpt lat="45.98025" lon="1.38418">
        <ele>443.6</ele>
        <time>2012-09-07T15:14:48Z</time>
      </trkpt>
      <trkpt lat="45.9803" lon="1.384">
        <ele>442.8</ele>
        <time>2012-09-07T15:14:53Z</time>
      </trkpt>
      <trkpt lat="45.98038" lon="1.38383">
        <ele>442.4</ele>
        <time>2012-09-07T15:14:58Z</time>
      </trkpt>
      <trkpt lat="45.98049" lon="1.38364">
        <ele>442</ele>
        <time>2012-09-07T15:15:03Z</time>
      </trkpt>
      <trkpt lat="45.98056" lon="1.38349">
        <ele>441.6</ele>
        <time>2012-09-07T15:15:08Z</time>
      </trkpt>
      <trkpt lat="45.98059" lon="1.38344">
        <ele>441.6</ele>
        <time>2012-09-07T15:15:10Z</time>
      </trkpt>
      <trkpt lat="45.98062" lon="1.38339">
        <ele>441.4</ele>
        <time>2012-09-07T15:15:12Z</time>
      </trkpt>
      <trkpt lat="45.9807" lon="1.38323">
        <ele>441.2</ele>
        <time>2012-09-07T15:15:16Z</time>
      </trkpt>
      <trkpt lat="45.98078" lon="1.38306">
        <ele>441</ele>
        <time>2012-09-07T15:15:20Z</time>
      </trkpt>
      <trkpt lat="45.9809" lon="1.38292">
        <ele>441.4</ele>
        <time>2012-09-07T15:15:24Z</time>
      </trkpt>
      <trkpt lat="45.98098" lon="1.38271">
        <ele>442</ele>
        <time>2012-09-07T15:15:30Z</time>
      </trkpt>
      <trkpt lat="45.98113" lon="1.38251">
        <ele>443.8</ele>
        <time>2012-09-07T15:15:37Z</time>
      </trkpt>
      <trkpt lat="45.98114" lon="1.38249">
        <ele>444.2</ele>
        <time>2012-09-07T15:15:38Z</time>
      </trkpt>
      <trkpt lat="45.98119" lon="1.38244">
        <ele>445.4</ele>
        <time>2012-09-07T15:15:41Z</time>
      </trkpt>
      <trkpt lat="45.98123" lon="1.38239">
        <ele>446.6</ele>
        <time>2012-09-07T15:15:44Z</time>
      </trkpt>
      <trkpt lat="45.98127" lon="1.38233">
        <ele>447.6</ele>
        <time>2012-09-07T15:15:47Z</time>
      </trkpt>
      <trkpt lat="45.98136" lon="1.38219">
        <ele>448.4</ele>
        <time>2012-09-07T15:15:52Z</time>
      </trkpt>
      <trkpt lat="45.9814" lon="1.3821">
        <ele>448.8</ele>
        <time>2012-09-07T15:15:56Z</time>
      </trkpt>
      <trkpt lat="45.9814" lon="1.38208">
        <ele>448.6</ele>
        <time>2012-09-07T15:15:57Z</time>
      </trkpt>
      <trkpt lat="45.98143" lon="1.38205">
        <ele>448.6</ele>
        <time>2012-09-07T15:16:01Z</time>
      </trkpt>
      <trkpt lat="45.98145" lon="1.38195">
        <ele>448.6</ele>
        <time>2012-09-07T15:16:06Z</time>
      </trkpt>
      <trkpt lat="45.98146" lon="1.38189">
        <ele>448.4</ele>
        <time>2012-09-07T15:16:10Z</time>
      </trkpt>
      <trkpt lat="45.98147" lon="1.38187">
        <ele>448.4</ele>
        <time>2012-09-07T15:16:11Z</time>
      </trkpt>
      <trkpt lat="45.98148" lon="1.38186">
        <ele>448.2</ele>
        <time>2012-09-07T15:16:12Z</time>
      </trkpt>
      <trkpt lat="45.98149" lon="1.38179">
        <ele>448</ele>
        <time>2012-09-07T15:16:16Z</time>
      </trkpt>
      <trkpt lat="45.98149" lon="1.38167">
        <ele>448</ele>
        <time>2012-09-07T15:16:21Z</time>
      </trkpt>
      <trkpt lat="45.98149" lon="1.38164">
        <ele>447.8</ele>
        <time>2012-09-07T15:16:23Z</time>
      </trkpt>
      <trkpt lat="45.9815" lon="1.38156">
        <ele>447.8</ele>
        <time>2012-09-07T15:16:26Z</time>
      </trkpt>
      <trkpt lat="45.98149" lon="1.38153">
        <ele>447.8</ele>
        <time>2012-09-07T15:16:27Z</time>
      </trkpt>
      <trkpt lat="45.9815" lon="1.38143">
        <ele>448</ele>
        <time>2012-09-07T15:16:32Z</time>
      </trkpt>
      <trkpt lat="45.9815" lon="1.38128">
        <ele>448.4</ele>
        <time>2012-09-07T15:16:39Z</time>
      </trkpt>
      <trkpt lat="45.98151" lon="1.38127">
        <ele>448.4</ele>
        <time>2012-09-07T15:16:40Z</time>
      </trkpt>
      <trkpt lat="45.98154" lon="1.38117">
        <ele>448.8</ele>
        <time>2012-09-07T15:16:45Z</time>
      </trkpt>
      <trkpt lat="45.98155" lon="1.3811">
        <ele>449.2</ele>
        <time>2012-09-07T15:16:49Z</time>
      </trkpt>
      <trkpt lat="45.98156" lon="1.38106">
        <ele>449.2</ele>
        <time>2012-09-07T15:16:51Z</time>
      </trkpt>
      <trkpt lat="45.98158" lon="1.38094">
        <ele>450</ele>
        <time>2012-09-07T15:16:58Z</time>
      </trkpt>
      <trkpt lat="45.98159" lon="1.38088">
        <ele>450.6</ele>
        <time>2012-09-07T15:17:02Z</time>
      </trkpt>
      <trkpt lat="45.98159" lon="1.38082">
        <ele>451</ele>
        <time>2012-09-07T15:17:05Z</time>
      </trkpt>
      <trkpt lat="45.98159" lon="1.3808">
        <ele>451</ele>
        <time>2012-09-07T15:17:06Z</time>
      </trkpt>
      <trkpt lat="45.98162" lon="1.38069">
        <ele>452.2</ele>
        <time>2012-09-07T15:17:12Z</time>
      </trkpt>
      <trkpt lat="45.98162" lon="1.38068">
        <ele>452.4</ele>
        <time>2012-09-07T15:17:13Z</time>
      </trkpt>
      <trkpt lat="45.98163" lon="1.38058">
        <ele>453.8</ele>
        <time>2012-09-07T15:17:19Z</time>
      </trkpt>
      <trkpt lat="45.98164" lon="1.38046">
        <ele>454.2</ele>
        <time>2012-09-07T15:17:25Z</time>
      </trkpt>
      <trkpt lat="45.98165" lon="1.38042">
        <ele>454.4</ele>
        <time>2012-09-07T15:17:27Z</time>
      </trkpt>
      <trkpt lat="45.98167" lon="1.38029">
        <ele>454.4</ele>
        <time>2012-09-07T15:17:33Z</time>
      </trkpt>
      <trkpt lat="45.98166" lon="1.38016">
        <ele>454.6</ele>
        <time>2012-09-07T15:17:40Z</time>
      </trkpt>
      <trkpt lat="45.98167" lon="1.3801">
        <ele>455.2</ele>
        <time>2012-09-07T15:17:44Z</time>
      </trkpt>
      <trkpt lat="45.98167" lon="1.38009">
        <ele>455.4</ele>
        <time>2012-09-07T15:17:45Z</time>
      </trkpt>
      <trkpt lat="45.98167" lon="1.38003">
        <ele>457.6</ele>
        <time>2012-09-07T15:17:51Z</time>
      </trkpt>
      <trkpt lat="45.98164" lon="1.37996">
        <ele>460.4</ele>
        <time>2012-09-07T15:17:58Z</time>
      </trkpt>
      <trkpt lat="45.98162" lon="1.37992">
        <ele>461.6</ele>
        <time>2012-09-07T15:18:00Z</time>
      </trkpt>
      <trkpt lat="45.98162" lon="1.37987">
        <ele>462.4</ele>
        <time>2012-09-07T15:18:02Z</time>
      </trkpt>
      <trkpt lat="45.98161" lon="1.37981">
        <ele>463.4</ele>
        <time>2012-09-07T15:18:05Z</time>
      </trkpt>
      <trkpt lat="45.98164" lon="1.37976">
        <ele>466</ele>
        <time>2012-09-07T15:18:12Z</time>
      </trkpt>
      <trkpt lat="45.98166" lon="1.37974">
        <ele>467</ele>
        <time>2012-09-07T15:18:15Z</time>
      </trkpt>
      <trkpt lat="45.9817" lon="1.37973">
        <ele>468</ele>
        <time>2012-09-07T15:18:19Z</time>
      </trkpt>
      <trkpt lat="45.98174" lon="1.37971">
        <ele>470</ele>
        <time>2012-09-07T15:18:26Z</time>
      </trkpt>
      <trkpt lat="45.98175" lon="1.37966">
        <ele>470.4</ele>
        <time>2012-09-07T15:18:29Z</time>
      </trkpt>
      <trkpt lat="45.98177" lon="1.3796">
        <ele>471</ele>
        <time>2012-09-07T15:18:33Z</time>
      </trkpt>
      <trkpt lat="45.98181" lon="1.37947">
        <ele>471.6</ele>
        <time>2012-09-07T15:18:39Z</time>
      </trkpt>
      <trkpt lat="45.98182" lon="1.37941">
        <ele>471.8</ele>
        <time>2012-09-07T15:18:42Z</time>
      </trkpt>
      <trkpt lat="45.98184" lon="1.37936">
        <ele>472</ele>
        <time>2012-09-07T15:18:45Z</time>
      </trkpt>
      <trkpt lat="45.98186" lon="1.37925">
        <ele>472.2</ele>
        <time>2012-09-07T15:18:51Z</time>
      </trkpt>
      <trkpt lat="45.98186" lon="1.37923">
        <ele>472.4</ele>
        <time>2012-09-07T15:18:52Z</time>
      </trkpt>
      <trkpt lat="45.98186" lon="1.37911">
        <ele>473.4</ele>
        <time>2012-09-07T15:18:57Z</time>
      </trkpt>
      <trkpt lat="45.98185" lon="1.37909">
        <ele>473.6</ele>
        <time>2012-09-07T15:18:58Z</time>
      </trkpt>
      <trkpt lat="45.98183" lon="1.37901">
        <ele>474.6</ele>
        <time>2012-09-07T15:19:02Z</time>
      </trkpt>
      <trkpt lat="45.98181" lon="1.37898">
        <ele>474.8</ele>
        <time>2012-09-07T15:19:03Z</time>
      </trkpt>
      <trkpt lat="45.98175" lon="1.37883">
        <ele>477</ele>
        <time>2012-09-07T15:19:09Z</time>
      </trkpt>
      <trkpt lat="45.98169" lon="1.37874">
        <ele>478.4</ele>
        <time>2012-09-07T15:19:14Z</time>
      </trkpt>
      <trkpt lat="45.98163" lon="1.37863">
        <ele>480</ele>
        <time>2012-09-07T15:19:21Z</time>
      </trkpt>
      <trkpt lat="45.98157" lon="1.37853">
        <ele>481.2</ele>
        <time>2012-09-07T15:19:27Z</time>
      </trkpt>
      <trkpt lat="45.98156" lon="1.37845">
        <ele>482.4</ele>
        <time>2012-09-07T15:19:30Z</time>
      </trkpt>
      <trkpt lat="45.98158" lon="1.37843">
        <ele>483</ele>
        <time>2012-09-07T15:19:32Z</time>
      </trkpt>
      <trkpt lat="45.98173" lon="1.37844">
        <ele>484</ele>
        <time>2012-09-07T15:19:37Z</time>
      </trkpt>
      <trkpt lat="45.98187" lon="1.37855">
        <ele>484</ele>
        <time>2012-09-07T15:19:42Z</time>
      </trkpt>
      <trkpt lat="45.98193" lon="1.37859">
        <ele>483.8</ele>
        <time>2012-09-07T15:19:44Z</time>
      </trkpt>
      <trkpt lat="45.98207" lon="1.37871">
        <ele>483.8</ele>
        <time>2012-09-07T15:19:48Z</time>
      </trkpt>
      <trkpt lat="45.98221" lon="1.37875">
        <ele>483.6</ele>
        <time>2012-09-07T15:19:52Z</time>
      </trkpt>
      <trkpt lat="45.98241" lon="1.37869">
        <ele>483.2</ele>
        <time>2012-09-07T15:19:56Z</time>
      </trkpt>
      <trkpt lat="45.98249" lon="1.37866">
        <ele>482.8</ele>
        <time>2012-09-07T15:19:58Z</time>
      </trkpt>
      <trkpt lat="45.98254" lon="1.37864">
        <ele>482.4</ele>
        <time>2012-09-07T15:20:01Z</time>
      </trkpt>
      <trkpt lat="45.98256" lon="1.37862">
        <ele>482.2</ele>
        <time>2012-09-07T15:20:03Z</time>
      </trkpt>
      <trkpt lat="45.98258" lon="1.37861">
        <ele>481.8</ele>
        <time>2012-09-07T15:20:06Z</time>
      </trkpt>
      <trkpt lat="45.98261" lon="1.37862">
        <ele>481.4</ele>
        <time>2012-09-07T15:20:08Z</time>
      </trkpt>
      <trkpt lat="45.98266" lon="1.3786">
        <ele>481</ele>
        <time>2012-09-07T15:20:11Z</time>
      </trkpt>
      <trkpt lat="45.98279" lon="1.37854">
        <ele>480.2</ele>
        <time>2012-09-07T15:20:17Z</time>
      </trkpt>
      <trkpt lat="45.98284" lon="1.37847">
        <ele>479.2</ele>
        <time>2012-09-07T15:20:22Z</time>
      </trkpt>
      <trkpt lat="45.98291" lon="1.37836">
        <ele>478.4</ele>
        <time>2012-09-07T15:20:27Z</time>
      </trkpt>
      <trkpt lat="45.98301" lon="1.37823">
        <ele>477.2</ele>
        <time>2012-09-07T15:20:33Z</time>
      </trkpt>
      <trkpt lat="45.98304" lon="1.3782">
        <ele>477.2</ele>
        <time>2012-09-07T15:20:34Z</time>
      </trkpt>
      <trkpt lat="45.98312" lon="1.37813">
        <ele>476.8</ele>
        <time>2012-09-07T15:20:37Z</time>
      </trkpt>
      <trkpt lat="45.98316" lon="1.37809">
        <ele>476.4</ele>
        <time>2012-09-07T15:20:39Z</time>
      </trkpt>
      <trkpt lat="45.98323" lon="1.378">
        <ele>475.8</ele>
        <time>2012-09-07T15:20:43Z</time>
      </trkpt>
      <trkpt lat="45.98331" lon="1.37785">
        <ele>475.2</ele>
        <time>2012-09-07T15:20:49Z</time>
      </trkpt>
      <trkpt lat="45.98337" lon="1.37777">
        <ele>475</ele>
        <time>2012-09-07T15:20:52Z</time>
      </trkpt>
      <trkpt lat="45.98342" lon="1.37771">
        <ele>474.6</ele>
        <time>2012-09-07T15:20:55Z</time>
      </trkpt>
      <trkpt lat="45.98347" lon="1.37764">
        <ele>474.4</ele>
        <time>2012-09-07T15:20:58Z</time>
      </trkpt>
      <trkpt lat="45.98348" lon="1.37757">
        <ele>474.2</ele>
        <time>2012-09-07T15:21:01Z</time>
      </trkpt>
      <trkpt lat="45.98359" lon="1.37748">
        <ele>474</ele>
        <time>2012-09-07T15:21:07Z</time>
      </trkpt>
      <trkpt lat="45.98361" lon="1.37747">
        <ele>474</ele>
        <time>2012-09-07T15:21:08Z</time>
      </trkpt>
      <trkpt lat="45.98375" lon="1.37738">
        <ele>473.8</ele>
        <time>2012-09-07T15:21:12Z</time>
      </trkpt>
      <trkpt lat="45.98393" lon="1.37719">
        <ele>473.4</ele>
        <time>2012-09-07T15:21:17Z</time>
      </trkpt>
      <trkpt lat="45.98403" lon="1.37707">
        <ele>473.4</ele>
        <time>2012-09-07T15:21:20Z</time>
      </trkpt>
      <trkpt lat="45.98403" lon="1.37703">
        <ele>473.4</ele>
        <time>2012-09-07T15:21:21Z</time>
      </trkpt>
      <trkpt lat="45.98401" lon="1.37696">
        <ele>473.2</ele>
        <time>2012-09-07T15:21:24Z</time>
      </trkpt>
      <trkpt lat="45.98401" lon="1.37694">
        <ele>473.2</ele>
        <time>2012-09-07T15:21:25Z</time>
      </trkpt>
      <trkpt lat="45.984" lon="1.37684">
        <ele>473</ele>
        <time>2012-09-07T15:21:30Z</time>
      </trkpt>
      <trkpt lat="45.984" lon="1.37681">
        <ele>473</ele>
        <time>2012-09-07T15:21:32Z</time>
      </trkpt>
      <trkpt lat="45.98402" lon="1.37674">
        <ele>473</ele>
        <time>2012-09-07T15:21:36Z</time>
      </trkpt>
      <trkpt lat="45.98405" lon="1.37668">
        <ele>473.6</ele>
        <time>2012-09-07T15:21:40Z</time>
      </trkpt>
      <trkpt lat="45.98407" lon="1.37662">
        <ele>474.8</ele>
        <time>2012-09-07T15:21:45Z</time>
      </trkpt>
      <trkpt lat="45.98407" lon="1.3766">
        <ele>475</ele>
        <time>2012-09-07T15:21:46Z</time>
      </trkpt>
      <trkpt lat="45.98407" lon="1.37648">
        <ele>475.8</ele>
        <time>2012-09-07T15:21:53Z</time>
      </trkpt>
      <trkpt lat="45.98408" lon="1.37644">
        <ele>476</ele>
        <time>2012-09-07T15:21:55Z</time>
      </trkpt>
      <trkpt lat="45.98407" lon="1.37639">
        <ele>476.2</ele>
        <time>2012-09-07T15:21:57Z</time>
      </trkpt>
      <trkpt lat="45.98407" lon="1.37636">
        <ele>476.2</ele>
        <time>2012-09-07T15:21:59Z</time>
      </trkpt>
      <trkpt lat="45.98408" lon="1.37627">
        <ele>476.6</ele>
        <time>2012-09-07T15:22:04Z</time>
      </trkpt>
      <trkpt lat="45.98409" lon="1.37626">
        <ele>477</ele>
        <time>2012-09-07T15:22:06Z</time>
      </trkpt>
      <trkpt lat="45.9841" lon="1.37617">
        <ele>477.2</ele>
        <time>2012-09-07T15:22:11Z</time>
      </trkpt>
      <trkpt lat="45.9841" lon="1.37615">
        <ele>477.2</ele>
        <time>2012-09-07T15:22:12Z</time>
      </trkpt>
      <trkpt lat="45.98411" lon="1.37614">
        <ele>477.2</ele>
        <time>2012-09-07T15:22:13Z</time>
      </trkpt>
      <trkpt lat="45.98412" lon="1.37608">
        <ele>477.4</ele>
        <time>2012-09-07T15:22:18Z</time>
      </trkpt>
      <trkpt lat="45.98413" lon="1.37605">
        <ele>477.4</ele>
        <time>2012-09-07T15:22:20Z</time>
      </trkpt>
      <trkpt lat="45.98415" lon="1.37594">
        <ele>477.4</ele>
        <time>2012-09-07T15:22:29Z</time>
      </trkpt>
      <trkpt lat="45.98416" lon="1.37589">
        <ele>477.6</ele>
        <time>2012-09-07T15:22:32Z</time>
      </trkpt>
      <trkpt lat="45.98416" lon="1.37582">
        <ele>478.4</ele>
        <time>2012-09-07T15:22:36Z</time>
      </trkpt>
      <trkpt lat="45.98417" lon="1.3758">
        <ele>478.6</ele>
        <time>2012-09-07T15:22:38Z</time>
      </trkpt>
      <trkpt lat="45.98419" lon="1.37574">
        <ele>479.6</ele>
        <time>2012-09-07T15:22:43Z</time>
      </trkpt>
      <trkpt lat="45.9842" lon="1.3757">
        <ele>480</ele>
        <time>2012-09-07T15:22:46Z</time>
      </trkpt>
      <trkpt lat="45.9842" lon="1.37564">
        <ele>480.8</ele>
        <time>2012-09-07T15:22:50Z</time>
      </trkpt>
      <trkpt lat="45.9842" lon="1.37563">
        <ele>481</ele>
        <time>2012-09-07T15:22:51Z</time>
      </trkpt>
      <trkpt lat="45.98422" lon="1.37557">
        <ele>481.8</ele>
        <time>2012-09-07T15:22:56Z</time>
      </trkpt>
      <trkpt lat="45.98422" lon="1.37552">
        <ele>482.6</ele>
        <time>2012-09-07T15:22:59Z</time>
      </trkpt>
      <trkpt lat="45.98425" lon="1.37542">
        <ele>484.2</ele>
        <time>2012-09-07T15:23:06Z</time>
      </trkpt>
      <trkpt lat="45.98426" lon="1.37531">
        <ele>485.8</ele>
        <time>2012-09-07T15:23:13Z</time>
      </trkpt>
      <trkpt lat="45.9843" lon="1.37523">
        <ele>487</ele>
        <time>2012-09-07T15:23:20Z</time>
      </trkpt>
      <trkpt lat="45.98431" lon="1.37515">
        <ele>487.8</ele>
        <time>2012-09-07T15:23:26Z</time>
      </trkpt>
      <trkpt lat="45.98431" lon="1.37508">
        <ele>488.6</ele>
        <time>2012-09-07T15:23:32Z</time>
      </trkpt>
      <trkpt lat="45.98431" lon="1.37507">
        <ele>488.8</ele>
        <time>2012-09-07T15:23:33Z</time>
      </trkpt>
      <trkpt lat="45.98433" lon="1.37496">
        <ele>490.2</ele>
        <time>2012-09-07T15:23:40Z</time>
      </trkpt>
      <trkpt lat="45.98432" lon="1.37495">
        <ele>490.4</ele>
        <time>2012-09-07T15:23:41Z</time>
      </trkpt>
      <trkpt lat="45.98432" lon="1.37489">
        <ele>491.4</ele>
        <time>2012-09-07T15:23:46Z</time>
      </trkpt>
      <trkpt lat="45.98431" lon="1.37484">
        <ele>492.2</ele>
        <time>2012-09-07T15:23:50Z</time>
      </trkpt>
      <trkpt lat="45.98429" lon="1.37478">
        <ele>493.2</ele>
        <time>2012-09-07T15:23:54Z</time>
      </trkpt>
      <trkpt lat="45.98429" lon="1.37473">
        <ele>494.2</ele>
        <time>2012-09-07T15:23:58Z</time>
      </trkpt>
      <trkpt lat="45.98428" lon="1.37468">
        <ele>495</ele>
        <time>2012-09-07T15:24:01Z</time>
      </trkpt>
      <trkpt lat="45.98428" lon="1.37464">
        <ele>495.8</ele>
        <time>2012-09-07T15:24:04Z</time>
      </trkpt>
      <trkpt lat="45.98428" lon="1.37463">
        <ele>496.2</ele>
        <time>2012-09-07T15:24:05Z</time>
      </trkpt>
      <trkpt lat="45.98427" lon="1.3746">
        <ele>496.6</ele>
        <time>2012-09-07T15:24:07Z</time>
      </trkpt>
      <trkpt lat="45.98427" lon="1.37455">
        <ele>497.6</ele>
        <time>2012-09-07T15:24:11Z</time>
      </trkpt>
      <trkpt lat="45.98425" lon="1.37449">
        <ele>498.4</ele>
        <time>2012-09-07T15:24:15Z</time>
      </trkpt>
      <trkpt lat="45.98422" lon="1.37442">
        <ele>499</ele>
        <time>2012-09-07T15:24:21Z</time>
      </trkpt>
      <trkpt lat="45.98423" lon="1.3744">
        <ele>499.2</ele>
        <time>2012-09-07T15:24:23Z</time>
      </trkpt>
      <trkpt lat="45.98421" lon="1.37432">
        <ele>500</ele>
        <time>2012-09-07T15:24:29Z</time>
      </trkpt>
      <trkpt lat="45.98417" lon="1.3742">
        <ele>501.2</ele>
        <time>2012-09-07T15:24:37Z</time>
      </trkpt>
      <trkpt lat="45.98417" lon="1.3741">
        <ele>502</ele>
        <time>2012-09-07T15:24:45Z</time>
      </trkpt>
      <trkpt lat="45.98421" lon="1.37405">
        <ele>502.8</ele>
        <time>2012-09-07T15:24:50Z</time>
      </trkpt>
      <trkpt lat="45.98431" lon="1.37398">
        <ele>504.2</ele>
        <time>2012-09-07T15:24:56Z</time>
      </trkpt>
      <trkpt lat="45.98433" lon="1.37397">
        <ele>504.4</ele>
        <time>2012-09-07T15:24:57Z</time>
      </trkpt>
      <trkpt lat="45.98444" lon="1.37393">
        <ele>505.4</ele>
        <time>2012-09-07T15:25:02Z</time>
      </trkpt>
      <trkpt lat="45.98453" lon="1.37383">
        <ele>506.4</ele>
        <time>2012-09-07T15:25:07Z</time>
      </trkpt>
      <trkpt lat="45.98461" lon="1.37374">
        <ele>507.4</ele>
        <time>2012-09-07T15:25:13Z</time>
      </trkpt>
      <trkpt lat="45.98471" lon="1.37366">
        <ele>509.4</ele>
        <time>2012-09-07T15:25:19Z</time>
      </trkpt>
      <trkpt lat="45.98477" lon="1.3736">
        <ele>511.2</ele>
        <time>2012-09-07T15:25:26Z</time>
      </trkpt>
      <trkpt lat="45.98483" lon="1.37355">
        <ele>512.8</ele>
        <time>2012-09-07T15:25:33Z</time>
      </trkpt>
      <trkpt lat="45.98489" lon="1.37348">
        <ele>513.4</ele>
        <time>2012-09-07T15:25:39Z</time>
      </trkpt>
      <trkpt lat="45.98491" lon="1.37348">
        <ele>514</ele>
        <time>2012-09-07T15:25:47Z</time>
      </trkpt>
      <trkpt lat="45.98495" lon="1.37336">
        <ele>514.2</ele>
        <time>2012-09-07T15:26:02Z</time>
      </trkpt>
      <trkpt lat="45.98496" lon="1.37339">
        <ele>514</ele>
        <time>2012-09-07T15:26:10Z</time>
      </trkpt>
      <trkpt lat="45.98501" lon="1.3733">
        <ele>513.8</ele>
        <time>2012-09-07T15:26:17Z</time>
      </trkpt>
      <trkpt lat="45.98502" lon="1.37328">
        <ele>513.8</ele>
        <time>2012-09-07T15:26:18Z</time>
      </trkpt>
      <trkpt lat="45.98506" lon="1.37322">
        <ele>513.8</ele>
        <time>2012-09-07T15:26:23Z</time>
      </trkpt>
      <trkpt lat="45.98506" lon="1.37319">
        <ele>513.8</ele>
        <time>2012-09-07T15:26:25Z</time>
      </trkpt>
      <trkpt lat="45.98511" lon="1.37313">
        <ele>514.2</ele>
        <time>2012-09-07T15:26:32Z</time>
      </trkpt>
      <trkpt lat="45.98512" lon="1.37312">
        <ele>514.4</ele>
        <time>2012-09-07T15:26:33Z</time>
      </trkpt>
      <trkpt lat="45.98516" lon="1.37303">
        <ele>515</ele>
        <time>2012-09-07T15:26:39Z</time>
      </trkpt>
      <trkpt lat="45.98516" lon="1.37301">
        <ele>515.2</ele>
        <time>2012-09-07T15:26:40Z</time>
      </trkpt>
      <trkpt lat="45.98518" lon="1.37292">
        <ele>515.2</ele>
        <time>2012-09-07T15:26:47Z</time>
      </trkpt>
      <trkpt lat="45.98518" lon="1.37283">
        <ele>515.8</ele>
        <time>2012-09-07T15:26:53Z</time>
      </trkpt>
      <trkpt lat="45.98518" lon="1.3728">
        <ele>516</ele>
        <time>2012-09-07T15:26:56Z</time>
      </trkpt>
      <trkpt lat="45.98517" lon="1.37277">
        <ele>516.4</ele>
        <time>2012-09-07T15:26:58Z</time>
      </trkpt>
      <trkpt lat="45.98518" lon="1.37275">
        <ele>517.2</ele>
        <time>2012-09-07T15:27:03Z</time>
      </trkpt>
      <trkpt lat="45.98521" lon="1.37269">
        <ele>518.2</ele>
        <time>2012-09-07T15:27:12Z</time>
      </trkpt>
      <trkpt lat="45.98518" lon="1.3726">
        <ele>518.4</ele>
        <time>2012-09-07T15:27:17Z</time>
      </trkpt>
      <trkpt lat="45.98517" lon="1.37257">
        <ele>518.4</ele>
        <time>2012-09-07T15:27:19Z</time>
      </trkpt>
      <trkpt lat="45.98517" lon="1.37253">
        <ele>518.4</ele>
        <time>2012-09-07T15:27:22Z</time>
      </trkpt>
      <trkpt lat="45.98517" lon="1.37249">
        <ele>518.4</ele>
        <time>2012-09-07T15:27:24Z</time>
      </trkpt>
      <trkpt lat="45.98516" lon="1.37241">
        <ele>518.6</ele>
        <time>2012-09-07T15:27:28Z</time>
      </trkpt>
      <trkpt lat="45.98516" lon="1.37237">
        <ele>518.8</ele>
        <time>2012-09-07T15:27:31Z</time>
      </trkpt>
      <trkpt lat="45.98515" lon="1.3723">
        <ele>519</ele>
        <time>2012-09-07T15:27:36Z</time>
      </trkpt>
      <trkpt lat="45.98515" lon="1.37229">
        <ele>519</ele>
        <time>2012-09-07T15:27:37Z</time>
      </trkpt>
      <trkpt lat="45.98515" lon="1.37227">
        <ele>519</ele>
        <time>2012-09-07T15:27:38Z</time>
      </trkpt>
      <trkpt lat="45.98513" lon="1.37219">
        <ele>519.2</ele>
        <time>2012-09-07T15:27:44Z</time>
      </trkpt>
      <trkpt lat="45.98512" lon="1.37218">
        <ele>519.2</ele>
        <time>2012-09-07T15:27:45Z</time>
      </trkpt>
      <trkpt lat="45.98508" lon="1.37206">
        <ele>519.6</ele>
        <time>2012-09-07T15:27:50Z</time>
      </trkpt>
      <trkpt lat="45.98503" lon="1.37194">
        <ele>520.8</ele>
        <time>2012-09-07T15:27:57Z</time>
      </trkpt>
      <trkpt lat="45.98498" lon="1.37183">
        <ele>522.4</ele>
        <time>2012-09-07T15:28:05Z</time>
      </trkpt>
      <trkpt lat="45.98493" lon="1.37175">
        <ele>523.8</ele>
        <time>2012-09-07T15:28:12Z</time>
      </trkpt>
      <trkpt lat="45.98488" lon="1.37172">
        <ele>524.6</ele>
        <time>2012-09-07T15:28:18Z</time>
      </trkpt>
      <trkpt lat="45.98481" lon="1.37166">
        <ele>525.6</ele>
        <time>2012-09-07T15:28:25Z</time>
      </trkpt>
      <trkpt lat="45.98478" lon="1.37162">
        <ele>526.2</ele>
        <time>2012-09-07T15:28:32Z</time>
      </trkpt>
      <trkpt lat="45.98473" lon="1.3716">
        <ele>526.6</ele>
        <time>2012-09-07T15:28:37Z</time>
      </trkpt>
      <trkpt lat="45.98468" lon="1.37163">
        <ele>527.8</ele>
        <time>2012-09-07T15:28:45Z</time>
      </trkpt>
      <trkpt lat="45.98462" lon="1.37166">
        <ele>528.6</ele>
        <time>2012-09-07T15:28:52Z</time>
      </trkpt>
      <trkpt lat="45.98451" lon="1.37162">
        <ele>529.8</ele>
        <time>2012-09-07T15:28:59Z</time>
      </trkpt>
      <trkpt lat="45.98444" lon="1.37162">
        <ele>530.6</ele>
        <time>2012-09-07T15:29:05Z</time>
      </trkpt>
      <trkpt lat="45.98442" lon="1.37162">
        <ele>530.8</ele>
        <time>2012-09-07T15:29:07Z</time>
      </trkpt>
      <trkpt lat="45.98439" lon="1.37164">
        <ele>531.6</ele>
        <time>2012-09-07T15:29:15Z</time>
      </trkpt>
      <trkpt lat="45.98438" lon="1.37165">
        <ele>531.6</ele>
        <time>2012-09-07T15:29:16Z</time>
      </trkpt>
      <trkpt lat="45.98432" lon="1.37168">
        <ele>531.8</ele>
        <time>2012-09-07T15:29:20Z</time>
      </trkpt>
      <trkpt lat="45.98432" lon="1.37169">
        <ele>532</ele>
        <time>2012-09-07T15:29:21Z</time>
      </trkpt>
      <trkpt lat="45.98424" lon="1.37175">
        <ele>532</ele>
        <time>2012-09-07T15:29:28Z</time>
      </trkpt>
      <trkpt lat="45.98419" lon="1.37177">
        <ele>532</ele>
        <time>2012-09-07T15:29:31Z</time>
      </trkpt>
      <trkpt lat="45.98417" lon="1.3718">
        <ele>532</ele>
        <time>2012-09-07T15:29:33Z</time>
      </trkpt>
      <trkpt lat="45.98415" lon="1.37183">
        <ele>532.2</ele>
        <time>2012-09-07T15:29:35Z</time>
      </trkpt>
      <trkpt lat="45.98408" lon="1.37191">
        <ele>532.6</ele>
        <time>2012-09-07T15:29:40Z</time>
      </trkpt>
      <trkpt lat="45.984" lon="1.37207">
        <ele>533.8</ele>
        <time>2012-09-07T15:29:49Z</time>
      </trkpt>
      <trkpt lat="45.98391" lon="1.37218">
        <ele>535</ele>
        <time>2012-09-07T15:29:55Z</time>
      </trkpt>
      <trkpt lat="45.98377" lon="1.37233">
        <ele>536.8</ele>
        <time>2012-09-07T15:30:04Z</time>
      </trkpt>
      <trkpt lat="45.98364" lon="1.37243">
        <ele>537.8</ele>
        <time>2012-09-07T15:30:11Z</time>
      </trkpt>
      <trkpt lat="45.98352" lon="1.37247">
        <ele>538.8</ele>
        <time>2012-09-07T15:30:18Z</time>
      </trkpt>
      <trkpt lat="45.98337" lon="1.37256">
        <ele>539.4</ele>
        <time>2012-09-07T15:30:24Z</time>
      </trkpt>
      <trkpt lat="45.98333" lon="1.37272">
        <ele>539.6</ele>
        <time>2012-09-07T15:30:28Z</time>
      </trkpt>
      <trkpt lat="45.9832" lon="1.37289">
        <ele>540</ele>
        <time>2012-09-07T15:30:34Z</time>
      </trkpt>
      <trkpt lat="45.98303" lon="1.37298">
        <ele>540.4</ele>
        <time>2012-09-07T15:30:40Z</time>
      </trkpt>
      <trkpt lat="45.98298" lon="1.37306">
        <ele>540.6</ele>
        <time>2012-09-07T15:30:42Z</time>
      </trkpt>
      <trkpt lat="45.98298" lon="1.37311">
        <ele>540.6</ele>
        <time>2012-09-07T15:30:43Z</time>
      </trkpt>
      <trkpt lat="45.98296" lon="1.37333">
        <ele>541.2</ele>
        <time>2012-09-07T15:30:47Z</time>
      </trkpt>
      <trkpt lat="45.98292" lon="1.37345">
        <ele>541.4</ele>
        <time>2012-09-07T15:30:49Z</time>
      </trkpt>
      <trkpt lat="45.98289" lon="1.37365">
        <ele>542</ele>
        <time>2012-09-07T15:30:52Z</time>
      </trkpt>
      <trkpt lat="45.98283" lon="1.37384">
        <ele>542.6</ele>
        <time>2012-09-07T15:30:56Z</time>
      </trkpt>
      <trkpt lat="45.98278" lon="1.37393">
        <ele>543.4</ele>
        <time>2012-09-07T15:30:58Z</time>
      </trkpt>
      <trkpt lat="45.98273" lon="1.374">
        <ele>543.8</ele>
        <time>2012-09-07T15:31:00Z</time>
      </trkpt>
      <trkpt lat="45.9827" lon="1.37412">
        <ele>544.4</ele>
        <time>2012-09-07T15:31:03Z</time>
      </trkpt>
      <trkpt lat="45.98269" lon="1.3743">
        <ele>545.2</ele>
        <time>2012-09-07T15:31:08Z</time>
      </trkpt>
      <trkpt lat="45.98272" lon="1.37447">
        <ele>545.8</ele>
        <time>2012-09-07T15:31:14Z</time>
      </trkpt>
      <trkpt lat="45.98276" lon="1.3746">
        <ele>546.2</ele>
        <time>2012-09-07T15:31:19Z</time>
      </trkpt>
      <trkpt lat="45.98276" lon="1.37475">
        <ele>546.4</ele>
        <time>2012-09-07T15:31:25Z</time>
      </trkpt>
      <trkpt lat="45.98269" lon="1.37484">
        <ele>546.8</ele>
        <time>2012-09-07T15:31:31Z</time>
      </trkpt>
      <trkpt lat="45.98259" lon="1.37483">
        <ele>546.8</ele>
        <time>2012-09-07T15:31:37Z</time>
      </trkpt>
      <trkpt lat="45.98248" lon="1.37482">
        <ele>547.2</ele>
        <time>2012-09-07T15:31:44Z</time>
      </trkpt>
      <trkpt lat="45.98244" lon="1.37482">
        <ele>547.2</ele>
        <time>2012-09-07T15:31:46Z</time>
      </trkpt>
      <trkpt lat="45.98235" lon="1.37479">
        <ele>547.6</ele>
        <time>2012-09-07T15:31:51Z</time>
      </trkpt>
      <trkpt lat="45.98225" lon="1.37479">
        <ele>548.2</ele>
        <time>2012-09-07T15:31:56Z</time>
      </trkpt>
      <trkpt lat="45.98209" lon="1.37477">
        <ele>548.8</ele>
        <time>2012-09-07T15:32:02Z</time>
      </trkpt>
      <trkpt lat="45.98187" lon="1.37478">
        <ele>549.2</ele>
        <time>2012-09-07T15:32:08Z</time>
      </trkpt>
      <trkpt lat="45.98167" lon="1.37478">
        <ele>549</ele>
        <time>2012-09-07T15:32:13Z</time>
      </trkpt>
      <trkpt lat="45.98163" lon="1.37478">
        <ele>548.8</ele>
        <time>2012-09-07T15:32:14Z</time>
      </trkpt>
      <trkpt lat="45.98143" lon="1.37482">
        <ele>548.8</ele>
        <time>2012-09-07T15:32:18Z</time>
      </trkpt>
      <trkpt lat="45.98138" lon="1.37482">
        <ele>548.6</ele>
        <time>2012-09-07T15:32:19Z</time>
      </trkpt>
      <trkpt lat="45.9812" lon="1.37478">
        <ele>548.4</ele>
        <time>2012-09-07T15:32:22Z</time>
      </trkpt>
      <trkpt lat="45.98113" lon="1.37478">
        <ele>548.4</ele>
        <time>2012-09-07T15:32:23Z</time>
      </trkpt>
      <trkpt lat="45.98107" lon="1.37478">
        <ele>548.4</ele>
        <time>2012-09-07T15:32:24Z</time>
      </trkpt>
      <trkpt lat="45.98101" lon="1.37476">
        <ele>548.2</ele>
        <time>2012-09-07T15:32:25Z</time>
      </trkpt>
      <trkpt lat="45.98082" lon="1.37468">
        <ele>548</ele>
        <time>2012-09-07T15:32:28Z</time>
      </trkpt>
      <trkpt lat="45.98076" lon="1.37466">
        <ele>547.8</ele>
        <time>2012-09-07T15:32:29Z</time>
      </trkpt>
      <trkpt lat="45.98063" lon="1.37463">
        <ele>547.8</ele>
        <time>2012-09-07T15:32:31Z</time>
      </trkpt>
      <trkpt lat="45.98057" lon="1.37463">
        <ele>547.8</ele>
        <time>2012-09-07T15:32:32Z</time>
      </trkpt>
      <trkpt lat="45.98037" lon="1.37464">
        <ele>547.6</ele>
        <time>2012-09-07T15:32:36Z</time>
      </trkpt>
      <trkpt lat="45.98032" lon="1.37465">
        <ele>547.4</ele>
        <time>2012-09-07T15:32:37Z</time>
      </trkpt>
      <trkpt lat="45.98016" lon="1.37466">
        <ele>547.2</ele>
        <time>2012-09-07T15:32:42Z</time>
      </trkpt>
      <trkpt lat="45.98014" lon="1.37476">
        <ele>547</ele>
        <time>2012-09-07T15:32:46Z</time>
      </trkpt>
      <trkpt lat="45.98018" lon="1.37488">
        <ele>547</ele>
        <time>2012-09-07T15:32:49Z</time>
      </trkpt>
      <trkpt lat="45.98022" lon="1.37495">
        <ele>546.8</ele>
        <time>2012-09-07T15:32:51Z</time>
      </trkpt>
      <trkpt lat="45.98033" lon="1.37519">
        <ele>546.4</ele>
        <time>2012-09-07T15:32:58Z</time>
      </trkpt>
      <trkpt lat="45.98041" lon="1.37545">
        <ele>546</ele>
        <time>2012-09-07T15:33:03Z</time>
      </trkpt>
      <trkpt lat="45.98049" lon="1.37572">
        <ele>545.4</ele>
        <time>2012-09-07T15:33:08Z</time>
      </trkpt>
      <trkpt lat="45.98047" lon="1.37602">
        <ele>544.8</ele>
        <time>2012-09-07T15:33:13Z</time>
      </trkpt>
      <trkpt lat="45.98044" lon="1.37637">
        <ele>544.4</ele>
        <time>2012-09-07T15:33:17Z</time>
      </trkpt>
      <trkpt lat="45.98041" lon="1.37654">
        <ele>544.2</ele>
        <time>2012-09-07T15:33:19Z</time>
      </trkpt>
      <trkpt lat="45.98035" lon="1.37676">
        <ele>544</ele>
        <time>2012-09-07T15:33:22Z</time>
      </trkpt>
      <trkpt lat="45.98022" lon="1.37691">
        <ele>543.8</ele>
        <time>2012-09-07T15:33:26Z</time>
      </trkpt>
      <trkpt lat="45.98014" lon="1.37697">
        <ele>543.6</ele>
        <time>2012-09-07T15:33:29Z</time>
      </trkpt>
      <trkpt lat="45.98008" lon="1.37699">
        <ele>543.4</ele>
        <time>2012-09-07T15:33:31Z</time>
      </trkpt>
      <trkpt lat="45.98005" lon="1.377">
        <ele>543.4</ele>
        <time>2012-09-07T15:33:32Z</time>
      </trkpt>
      <trkpt lat="45.97986" lon="1.37704">
        <ele>543</ele>
        <time>2012-09-07T15:33:38Z</time>
      </trkpt>
      <trkpt lat="45.97984" lon="1.37705">
        <ele>543</ele>
        <time>2012-09-07T15:33:39Z</time>
      </trkpt>
      <trkpt lat="45.97972" lon="1.37715">
        <ele>542.4</ele>
        <time>2012-09-07T15:33:44Z</time>
      </trkpt>
      <trkpt lat="45.97962" lon="1.37738">
        <ele>541.8</ele>
        <time>2012-09-07T15:33:50Z</time>
      </trkpt>
      <trkpt lat="45.97961" lon="1.37743">
        <ele>541.6</ele>
        <time>2012-09-07T15:33:51Z</time>
      </trkpt>
      <trkpt lat="45.97954" lon="1.3777">
        <ele>541.2</ele>
        <time>2012-09-07T15:33:58Z</time>
      </trkpt>
      <trkpt lat="45.9795" lon="1.37796">
        <ele>541</ele>
        <time>2012-09-07T15:34:04Z</time>
      </trkpt>
      <trkpt lat="45.9795" lon="1.37801">
        <ele>540.8</ele>
        <time>2012-09-07T15:34:08Z</time>
      </trkpt>
      <trkpt lat="45.97952" lon="1.37815">
        <ele>540.8</ele>
        <time>2012-09-07T15:34:13Z</time>
      </trkpt>
      <trkpt lat="45.97951" lon="1.37832">
        <ele>541</ele>
        <time>2012-09-07T15:34:17Z</time>
      </trkpt>
      <trkpt lat="45.97949" lon="1.37858">
        <ele>541.6</ele>
        <time>2012-09-07T15:34:23Z</time>
      </trkpt>
      <trkpt lat="45.97949" lon="1.37861">
        <ele>541.6</ele>
        <time>2012-09-07T15:34:24Z</time>
      </trkpt>
      <trkpt lat="45.97946" lon="1.3788">
        <ele>542.4</ele>
        <time>2012-09-07T15:34:30Z</time>
      </trkpt>
      <trkpt lat="45.97943" lon="1.37905">
        <ele>543.4</ele>
        <time>2012-09-07T15:34:38Z</time>
      </trkpt>
      <trkpt lat="45.97943" lon="1.37928">
        <ele>544</ele>
        <time>2012-09-07T15:34:45Z</time>
      </trkpt>
      <trkpt lat="45.97944" lon="1.37945">
        <ele>544.4</ele>
        <time>2012-09-07T15:34:51Z</time>
      </trkpt>
      <trkpt lat="45.97944" lon="1.37959">
        <ele>544.4</ele>
        <time>2012-09-07T15:34:58Z</time>
      </trkpt>
      <trkpt lat="45.97944" lon="1.3798">
        <ele>544</ele>
        <time>2012-09-07T15:35:06Z</time>
      </trkpt>
      <trkpt lat="45.97949" lon="1.37997">
        <ele>543.6</ele>
        <time>2012-09-07T15:35:11Z</time>
      </trkpt>
      <trkpt lat="45.97962" lon="1.38014">
        <ele>542.8</ele>
        <time>2012-09-07T15:35:16Z</time>
      </trkpt>
      <trkpt lat="45.97964" lon="1.3803">
        <ele>542.2</ele>
        <time>2012-09-07T15:35:20Z</time>
      </trkpt>
      <trkpt lat="45.97962" lon="1.38034">
        <ele>542</ele>
        <time>2012-09-07T15:35:21Z</time>
      </trkpt>
      <trkpt lat="45.97956" lon="1.38039">
        <ele>541.6</ele>
        <time>2012-09-07T15:35:23Z</time>
      </trkpt>
      <trkpt lat="45.97949" lon="1.38044">
        <ele>541</ele>
        <time>2012-09-07T15:35:26Z</time>
      </trkpt>
      <trkpt lat="45.97947" lon="1.38048">
        <ele>540.8</ele>
        <time>2012-09-07T15:35:27Z</time>
      </trkpt>
      <trkpt lat="45.97947" lon="1.38074">
        <ele>539.6</ele>
        <time>2012-09-07T15:35:33Z</time>
      </trkpt>
      <trkpt lat="45.97955" lon="1.38094">
        <ele>538.6</ele>
        <time>2012-09-07T15:35:37Z</time>
      </trkpt>
      <trkpt lat="45.97952" lon="1.38114">
        <ele>537.8</ele>
        <time>2012-09-07T15:35:41Z</time>
      </trkpt>
      <trkpt lat="45.97947" lon="1.3814">
        <ele>536.8</ele>
        <time>2012-09-07T15:35:46Z</time>
      </trkpt>
      <trkpt lat="45.97943" lon="1.38161">
        <ele>536.2</ele>
        <time>2012-09-07T15:35:49Z</time>
      </trkpt>
      <trkpt lat="45.97941" lon="1.3817">
        <ele>536</ele>
        <time>2012-09-07T15:35:50Z</time>
      </trkpt>
      <trkpt lat="45.97932" lon="1.38198">
        <ele>535.4</ele>
        <time>2012-09-07T15:35:54Z</time>
      </trkpt>
      <trkpt lat="45.9793" lon="1.38204">
        <ele>535.2</ele>
        <time>2012-09-07T15:35:55Z</time>
      </trkpt>
      <trkpt lat="45.97926" lon="1.3822">
        <ele>534.4</ele>
        <time>2012-09-07T15:35:59Z</time>
      </trkpt>
      <trkpt lat="45.97924" lon="1.38225">
        <ele>534.4</ele>
        <time>2012-09-07T15:36:00Z</time>
      </trkpt>
      <trkpt lat="45.97921" lon="1.38241">
        <ele>534</ele>
        <time>2012-09-07T15:36:03Z</time>
      </trkpt>
      <trkpt lat="45.97916" lon="1.38267">
        <ele>533.6</ele>
        <time>2012-09-07T15:36:08Z</time>
      </trkpt>
      <trkpt lat="45.97915" lon="1.38274">
        <ele>533.6</ele>
        <time>2012-09-07T15:36:09Z</time>
      </trkpt>
      <trkpt lat="45.97909" lon="1.38299">
        <ele>533.2</ele>
        <time>2012-09-07T15:36:14Z</time>
      </trkpt>
      <trkpt lat="45.97905" lon="1.38308">
        <ele>533</ele>
        <time>2012-09-07T15:36:16Z</time>
      </trkpt>
      <trkpt lat="45.97898" lon="1.38335">
        <ele>532.8</ele>
        <time>2012-09-07T15:36:21Z</time>
      </trkpt>
      <trkpt lat="45.97888" lon="1.38361">
        <ele>532.6</ele>
        <time>2012-09-07T15:36:27Z</time>
      </trkpt>
      <trkpt lat="45.97887" lon="1.38365">
        <ele>532.6</ele>
        <time>2012-09-07T15:36:28Z</time>
      </trkpt>
      <trkpt lat="45.97879" lon="1.38382">
        <ele>532.4</ele>
        <time>2012-09-07T15:36:33Z</time>
      </trkpt>
      <trkpt lat="45.97868" lon="1.384">
        <ele>531.8</ele>
        <time>2012-09-07T15:36:40Z</time>
      </trkpt>
      <trkpt lat="45.97857" lon="1.38412">
        <ele>531.2</ele>
        <time>2012-09-07T15:36:45Z</time>
      </trkpt>
      <trkpt lat="45.97841" lon="1.38428">
        <ele>530.2</ele>
        <time>2012-09-07T15:36:51Z</time>
      </trkpt>
      <trkpt lat="45.97837" lon="1.38432">
        <ele>530</ele>
        <time>2012-09-07T15:36:53Z</time>
      </trkpt>
      <trkpt lat="45.97826" lon="1.38442">
        <ele>529</ele>
        <time>2012-09-07T15:36:58Z</time>
      </trkpt>
      <trkpt lat="45.97813" lon="1.38453">
        <ele>528</ele>
        <time>2012-09-07T15:37:04Z</time>
      </trkpt>
      <trkpt lat="45.97798" lon="1.38465">
        <ele>527.2</ele>
        <time>2012-09-07T15:37:10Z</time>
      </trkpt>
      <trkpt lat="45.97786" lon="1.38472">
        <ele>527</ele>
        <time>2012-09-07T15:37:15Z</time>
      </trkpt>
      <trkpt lat="45.97778" lon="1.3848">
        <ele>527</ele>
        <time>2012-09-07T15:37:19Z</time>
      </trkpt>
      <trkpt lat="45.97767" lon="1.38493">
        <ele>527.8</ele>
        <time>2012-09-07T15:37:25Z</time>
      </trkpt>
      <trkpt lat="45.97755" lon="1.38512">
        <ele>529.8</ele>
        <time>2012-09-07T15:37:32Z</time>
      </trkpt>
      <trkpt lat="45.97747" lon="1.38525">
        <ele>531.2</ele>
        <time>2012-09-07T15:37:37Z</time>
      </trkpt>
      <trkpt lat="45.97738" lon="1.38541">
        <ele>532</ele>
        <time>2012-09-07T15:37:42Z</time>
      </trkpt>
      <trkpt lat="45.97728" lon="1.38563">
        <ele>532.2</ele>
        <time>2012-09-07T15:37:48Z</time>
      </trkpt>
      <trkpt lat="45.97715" lon="1.38574">
        <ele>532</ele>
        <time>2012-09-07T15:37:52Z</time>
      </trkpt>
      <trkpt lat="45.97699" lon="1.38584">
        <ele>531.2</ele>
        <time>2012-09-07T15:37:57Z</time>
      </trkpt>
      <trkpt lat="45.9768" lon="1.38588">
        <ele>530.6</ele>
        <time>2012-09-07T15:38:01Z</time>
      </trkpt>
      <trkpt lat="45.97671" lon="1.3859">
        <ele>530.2</ele>
        <time>2012-09-07T15:38:03Z</time>
      </trkpt>
      <trkpt lat="45.97659" lon="1.38599">
        <ele>529.6</ele>
        <time>2012-09-07T15:38:06Z</time>
      </trkpt>
      <trkpt lat="45.97647" lon="1.38603">
        <ele>529</ele>
        <time>2012-09-07T15:38:09Z</time>
      </trkpt>
      <trkpt lat="45.97641" lon="1.38601">
        <ele>528.6</ele>
        <time>2012-09-07T15:38:10Z</time>
      </trkpt>
      <trkpt lat="45.97621" lon="1.38601">
        <ele>527.8</ele>
        <time>2012-09-07T15:38:14Z</time>
      </trkpt>
      <trkpt lat="45.97608" lon="1.38615">
        <ele>527</ele>
        <time>2012-09-07T15:38:18Z</time>
      </trkpt>
      <trkpt lat="45.97608" lon="1.38632">
        <ele>526.4</ele>
        <time>2012-09-07T15:38:21Z</time>
      </trkpt>
      <trkpt lat="45.97608" lon="1.38637">
        <ele>526.2</ele>
        <time>2012-09-07T15:38:22Z</time>
      </trkpt>
      <trkpt lat="45.97608" lon="1.38642">
        <ele>526</ele>
        <time>2012-09-07T15:38:23Z</time>
      </trkpt>
      <trkpt lat="45.97607" lon="1.38652">
        <ele>525.8</ele>
        <time>2012-09-07T15:38:25Z</time>
      </trkpt>
      <trkpt lat="45.97607" lon="1.38656">
        <ele>525.6</ele>
        <time>2012-09-07T15:38:26Z</time>
      </trkpt>
      <trkpt lat="45.97608" lon="1.38667">
        <ele>525</ele>
        <time>2012-09-07T15:38:29Z</time>
      </trkpt>
      <trkpt lat="45.97608" lon="1.38673">
        <ele>524.8</ele>
        <time>2012-09-07T15:38:30Z</time>
      </trkpt>
      <trkpt lat="45.97609" lon="1.38702">
        <ele>524.2</ele>
        <time>2012-09-07T15:38:36Z</time>
      </trkpt>
      <trkpt lat="45.97608" lon="1.38707">
        <ele>524.2</ele>
        <time>2012-09-07T15:38:37Z</time>
      </trkpt>
      <trkpt lat="45.97605" lon="1.38734">
        <ele>523.6</ele>
        <time>2012-09-07T15:38:43Z</time>
      </trkpt>
      <trkpt lat="45.97605" lon="1.38762">
        <ele>523</ele>
        <time>2012-09-07T15:38:49Z</time>
      </trkpt>
      <trkpt lat="45.97604" lon="1.38766">
        <ele>522.8</ele>
        <time>2012-09-07T15:38:50Z</time>
      </trkpt>
      <trkpt lat="45.97603" lon="1.38794">
        <ele>522.4</ele>
        <time>2012-09-07T15:38:55Z</time>
      </trkpt>
      <trkpt lat="45.97602" lon="1.38799">
        <ele>522.2</ele>
        <time>2012-09-07T15:38:56Z</time>
      </trkpt>
      <trkpt lat="45.97596" lon="1.38825">
        <ele>521.4</ele>
        <time>2012-09-07T15:39:02Z</time>
      </trkpt>
      <trkpt lat="45.97588" lon="1.38849">
        <ele>520.8</ele>
        <time>2012-09-07T15:39:08Z</time>
      </trkpt>
      <trkpt lat="45.97587" lon="1.38852">
        <ele>520.8</ele>
        <time>2012-09-07T15:39:09Z</time>
      </trkpt>
      <trkpt lat="45.97578" lon="1.38866">
        <ele>520.2</ele>
        <time>2012-09-07T15:39:15Z</time>
      </trkpt>
      <trkpt lat="45.97567" lon="1.38884">
        <ele>519.8</ele>
        <time>2012-09-07T15:39:20Z</time>
      </trkpt>
      <trkpt lat="45.97553" lon="1.38908">
        <ele>519.2</ele>
        <time>2012-09-07T15:39:25Z</time>
      </trkpt>
      <trkpt lat="45.97541" lon="1.38928">
        <ele>518.8</ele>
        <time>2012-09-07T15:39:29Z</time>
      </trkpt>
      <trkpt lat="45.97535" lon="1.38936">
        <ele>518.4</ele>
        <time>2012-09-07T15:39:31Z</time>
      </trkpt>
      <trkpt lat="45.97528" lon="1.38947">
        <ele>518</ele>
        <time>2012-09-07T15:39:34Z</time>
      </trkpt>
      <trkpt lat="45.97522" lon="1.38955">
        <ele>517.8</ele>
        <time>2012-09-07T15:39:36Z</time>
      </trkpt>
      <trkpt lat="45.97511" lon="1.38977">
        <ele>517.2</ele>
        <time>2012-09-07T15:39:40Z</time>
      </trkpt>
      <trkpt lat="45.97509" lon="1.38983">
        <ele>517.2</ele>
        <time>2012-09-07T15:39:41Z</time>
      </trkpt>
      <trkpt lat="45.97506" lon="1.38993">
        <ele>516.8</ele>
        <time>2012-09-07T15:39:43Z</time>
      </trkpt>
      <trkpt lat="45.97503" lon="1.39001">
        <ele>516.4</ele>
        <time>2012-09-07T15:39:46Z</time>
      </trkpt>
      <trkpt lat="45.97502" lon="1.39003">
        <ele>515.6</ele>
        <time>2012-09-07T15:39:51Z</time>
      </trkpt>
      <trkpt lat="45.975" lon="1.39007">
        <ele>514.4</ele>
        <time>2012-09-07T15:40:01Z</time>
      </trkpt>
      <trkpt lat="45.97498" lon="1.39013">
        <ele>514.2</ele>
        <time>2012-09-07T15:40:03Z</time>
      </trkpt>
      <trkpt lat="45.97494" lon="1.39022">
        <ele>514</ele>
        <time>2012-09-07T15:40:05Z</time>
      </trkpt>
      <trkpt lat="45.97488" lon="1.39034">
        <ele>513.6</ele>
        <time>2012-09-07T15:40:08Z</time>
      </trkpt>
      <trkpt lat="45.97479" lon="1.39046">
        <ele>512.8</ele>
        <time>2012-09-07T15:40:13Z</time>
      </trkpt>
      <trkpt lat="45.97464" lon="1.39047">
        <ele>512</ele>
        <time>2012-09-07T15:40:18Z</time>
      </trkpt>
      <trkpt lat="45.97443" lon="1.39041">
        <ele>511</ele>
        <time>2012-09-07T15:40:23Z</time>
      </trkpt>
      <trkpt lat="45.97429" lon="1.39047">
        <ele>510</ele>
        <time>2012-09-07T15:40:28Z</time>
      </trkpt>
      <trkpt lat="45.97415" lon="1.3905">
        <ele>509.2</ele>
        <time>2012-09-07T15:40:32Z</time>
      </trkpt>
      <trkpt lat="45.97403" lon="1.39039">
        <ele>508.4</ele>
        <time>2012-09-07T15:40:37Z</time>
      </trkpt>
      <trkpt lat="45.97388" lon="1.39022">
        <ele>507.2</ele>
        <time>2012-09-07T15:40:44Z</time>
      </trkpt>
      <trkpt lat="45.97375" lon="1.39003">
        <ele>506.2</ele>
        <time>2012-09-07T15:40:52Z</time>
      </trkpt>
      <trkpt lat="45.97367" lon="1.38985">
        <ele>505.4</ele>
        <time>2012-09-07T15:40:59Z</time>
      </trkpt>
      <trkpt lat="45.97362" lon="1.3896">
        <ele>504.4</ele>
        <time>2012-09-07T15:41:08Z</time>
      </trkpt>
      <trkpt lat="45.97362" lon="1.38957">
        <ele>504.4</ele>
        <time>2012-09-07T15:41:09Z</time>
      </trkpt>
      <trkpt lat="45.9736" lon="1.38939">
        <ele>504</ele>
        <time>2012-09-07T15:41:16Z</time>
      </trkpt>
      <trkpt lat="45.9736" lon="1.38919">
        <ele>503.6</ele>
        <time>2012-09-07T15:41:23Z</time>
      </trkpt>
      <trkpt lat="45.97357" lon="1.38899">
        <ele>503.6</ele>
        <time>2012-09-07T15:41:30Z</time>
      </trkpt>
      <trkpt lat="45.97356" lon="1.38878">
        <ele>503.4</ele>
        <time>2012-09-07T15:41:37Z</time>
      </trkpt>
      <trkpt lat="45.97356" lon="1.38866">
        <ele>503.2</ele>
        <time>2012-09-07T15:41:42Z</time>
      </trkpt>
      <trkpt lat="45.97356" lon="1.38849">
        <ele>503.2</ele>
        <time>2012-09-07T15:41:48Z</time>
      </trkpt>
      <trkpt lat="45.97355" lon="1.38838">
        <ele>503.4</ele>
        <time>2012-09-07T15:41:52Z</time>
      </trkpt>
      <trkpt lat="45.97355" lon="1.3883">
        <ele>503.4</ele>
        <time>2012-09-07T15:41:55Z</time>
      </trkpt>
      <trkpt lat="45.97355" lon="1.38827">
        <ele>503.4</ele>
        <time>2012-09-07T15:41:56Z</time>
      </trkpt>
      <trkpt lat="45.97357" lon="1.38811">
        <ele>503.6</ele>
        <time>2012-09-07T15:42:01Z</time>
      </trkpt>
      <trkpt lat="45.97361" lon="1.38795">
        <ele>503.4</ele>
        <time>2012-09-07T15:42:07Z</time>
      </trkpt>
      <trkpt lat="45.97361" lon="1.38792">
        <ele>503.4</ele>
        <time>2012-09-07T15:42:08Z</time>
      </trkpt>
      <trkpt lat="45.97363" lon="1.38783">
        <ele>503.4</ele>
        <time>2012-09-07T15:42:11Z</time>
      </trkpt>
      <trkpt lat="45.97367" lon="1.38761">
        <ele>503.2</ele>
        <time>2012-09-07T15:42:18Z</time>
      </trkpt>
      <trkpt lat="45.97374" lon="1.3874">
        <ele>504</ele>
        <time>2012-09-07T15:42:26Z</time>
      </trkpt>
      <trkpt lat="45.97379" lon="1.38724">
        <ele>505</ele>
        <time>2012-09-07T15:42:32Z</time>
      </trkpt>
      <trkpt lat="45.97384" lon="1.38703">
        <ele>506.4</ele>
        <time>2012-09-07T15:42:39Z</time>
      </trkpt>
      <trkpt lat="45.9739" lon="1.38685">
        <ele>508</ele>
        <time>2012-09-07T15:42:46Z</time>
      </trkpt>
      <trkpt lat="45.97397" lon="1.3867">
        <ele>509.2</ele>
        <time>2012-09-07T15:42:52Z</time>
      </trkpt>
      <trkpt lat="45.97401" lon="1.38652">
        <ele>510.4</ele>
        <time>2012-09-07T15:42:58Z</time>
      </trkpt>
      <trkpt lat="45.974" lon="1.38635">
        <ele>511</ele>
        <time>2012-09-07T15:43:03Z</time>
      </trkpt>
      <trkpt lat="45.97397" lon="1.38614">
        <ele>512.2</ele>
        <time>2012-09-07T15:43:08Z</time>
      </trkpt>
      <trkpt lat="45.97396" lon="1.386">
        <ele>513.4</ele>
        <time>2012-09-07T15:43:13Z</time>
      </trkpt>
      <trkpt lat="45.97392" lon="1.38588">
        <ele>514.8</ele>
        <time>2012-09-07T15:43:19Z</time>
      </trkpt>
      <trkpt lat="45.97391" lon="1.38589">
        <ele>520.2</ele>
        <time>2012-09-07T15:43:59Z</time>
      </trkpt>
      <trkpt lat="45.97393" lon="1.38591">
        <ele>520.2</ele>
        <time>2012-09-07T15:44:03Z</time>
      </trkpt>
      <trkpt lat="45.97396" lon="1.38593">
        <ele>520</ele>
        <time>2012-09-07T15:44:10Z</time>
      </trkpt>
      <trkpt lat="45.97397" lon="1.38593">
        <ele>520</ele>
        <time>2012-09-07T15:44:15Z</time>
      </trkpt>
      <trkpt lat="45.97393" lon="1.38582">
        <ele>520.2</ele>
        <time>2012-09-07T15:44:20Z</time>
      </trkpt>
      <trkpt lat="45.9739" lon="1.38567">
        <ele>520.2</ele>
        <time>2012-09-07T15:44:26Z</time>
      </trkpt>
      <trkpt lat="45.97386" lon="1.38555">
        <ele>520.4</ele>
        <time>2012-09-07T15:44:30Z</time>
      </trkpt>
      <trkpt lat="45.97386" lon="1.38544">
        <ele>520.4</ele>
        <time>2012-09-07T15:44:35Z</time>
      </trkpt>
      <trkpt lat="45.97387" lon="1.38535">
        <ele>520.4</ele>
        <time>2012-09-07T15:44:39Z</time>
      </trkpt>
      <trkpt lat="45.97386" lon="1.38531">
        <ele>520.6</ele>
        <time>2012-09-07T15:44:41Z</time>
      </trkpt>
      <trkpt lat="45.97386" lon="1.3852">
        <ele>520.6</ele>
        <time>2012-09-07T15:44:46Z</time>
      </trkpt>
      <trkpt lat="45.97386" lon="1.38507">
        <ele>520.6</ele>
        <time>2012-09-07T15:44:52Z</time>
      </trkpt>
      <trkpt lat="45.97385" lon="1.38496">
        <ele>520.4</ele>
        <time>2012-09-07T15:44:57Z</time>
      </trkpt>
      <trkpt lat="45.97385" lon="1.38493">
        <ele>520.6</ele>
        <time>2012-09-07T15:44:58Z</time>
      </trkpt>
      <trkpt lat="45.97385" lon="1.38482">
        <ele>520.8</ele>
        <time>2012-09-07T15:45:03Z</time>
      </trkpt>
      <trkpt lat="45.97385" lon="1.38477">
        <ele>520.6</ele>
        <time>2012-09-07T15:45:06Z</time>
      </trkpt>
      <trkpt lat="45.97385" lon="1.3847">
        <ele>520.6</ele>
        <time>2012-09-07T15:45:09Z</time>
      </trkpt>
      <trkpt lat="45.97385" lon="1.38458">
        <ele>520.4</ele>
        <time>2012-09-07T15:45:15Z</time>
      </trkpt>
      <trkpt lat="45.97385" lon="1.38456">
        <ele>520.4</ele>
        <time>2012-09-07T15:45:16Z</time>
      </trkpt>
      <trkpt lat="45.9738" lon="1.38437">
        <ele>521.2</ele>
        <time>2012-09-07T15:45:22Z</time>
      </trkpt>
      <trkpt lat="45.97379" lon="1.38432">
        <ele>521.2</ele>
        <time>2012-09-07T15:45:24Z</time>
      </trkpt>
      <trkpt lat="45.97378" lon="1.38426">
        <ele>521.6</ele>
        <time>2012-09-07T15:45:26Z</time>
      </trkpt>
      <trkpt lat="45.97377" lon="1.38421">
        <ele>521.8</ele>
        <time>2012-09-07T15:45:28Z</time>
      </trkpt>
      <trkpt lat="45.97371" lon="1.3841">
        <ele>522.8</ele>
        <time>2012-09-07T15:45:34Z</time>
      </trkpt>
      <trkpt lat="45.97364" lon="1.38408">
        <ele>523.4</ele>
        <time>2012-09-07T15:45:40Z</time>
      </trkpt>
      <trkpt lat="45.9736" lon="1.38407">
        <ele>523.6</ele>
        <time>2012-09-07T15:45:43Z</time>
      </trkpt>
      <trkpt lat="45.97356" lon="1.38406">
        <ele>523.6</ele>
        <time>2012-09-07T15:45:46Z</time>
      </trkpt>
      <trkpt lat="45.97348" lon="1.38408">
        <ele>523.8</ele>
        <time>2012-09-07T15:45:53Z</time>
      </trkpt>
      <trkpt lat="45.97344" lon="1.3841">
        <ele>524.2</ele>
        <time>2012-09-07T15:45:58Z</time>
      </trkpt>
      <trkpt lat="45.97336" lon="1.38415">
        <ele>525</ele>
        <time>2012-09-07T15:46:06Z</time>
      </trkpt>
      <trkpt lat="45.97329" lon="1.38417">
        <ele>525.8</ele>
        <time>2012-09-07T15:46:14Z</time>
      </trkpt>
      <trkpt lat="45.97329" lon="1.38417">
        <ele>525.8</ele>
        <time>2012-09-07T15:46:15Z</time>
      </trkpt>
      <trkpt lat="45.97327" lon="1.38416">
        <ele>526.2</ele>
        <time>2012-09-07T15:46:17Z</time>
      </trkpt>
      <trkpt lat="45.97326" lon="1.3841">
        <ele>526.6</ele>
        <time>2012-09-07T15:46:21Z</time>
      </trkpt>
      <trkpt lat="45.97328" lon="1.38402">
        <ele>527.4</ele>
        <time>2012-09-07T15:46:28Z</time>
      </trkpt>
      <trkpt lat="45.97331" lon="1.38401">
        <ele>527.8</ele>
        <time>2012-09-07T15:46:31Z</time>
      </trkpt>
      <trkpt lat="45.97334" lon="1.38398">
        <ele>528.2</ele>
        <time>2012-09-07T15:46:35Z</time>
      </trkpt>
      <trkpt lat="45.9734" lon="1.38389">
        <ele>529.4</ele>
        <time>2012-09-07T15:46:43Z</time>
      </trkpt>
      <trkpt lat="45.9734" lon="1.38385">
        <ele>529.8</ele>
        <time>2012-09-07T15:46:46Z</time>
      </trkpt>
      <trkpt lat="45.97339" lon="1.3838">
        <ele>530.2</ele>
        <time>2012-09-07T15:46:49Z</time>
      </trkpt>
      <trkpt lat="45.97336" lon="1.38371">
        <ele>531.2</ele>
        <time>2012-09-07T15:46:56Z</time>
      </trkpt>
      <trkpt lat="45.97334" lon="1.3836">
        <ele>533.2</ele>
        <time>2012-09-07T15:47:06Z</time>
      </trkpt>
      <trkpt lat="45.97334" lon="1.38353">
        <ele>533.8</ele>
        <time>2012-09-07T15:47:10Z</time>
      </trkpt>
      <trkpt lat="45.97332" lon="1.38349">
        <ele>534.2</ele>
        <time>2012-09-07T15:47:12Z</time>
      </trkpt>
      <trkpt lat="45.97329" lon="1.38341">
        <ele>535</ele>
        <time>2012-09-07T15:47:16Z</time>
      </trkpt>
      <trkpt lat="45.97328" lon="1.3834">
        <ele>535.2</ele>
        <time>2012-09-07T15:47:17Z</time>
      </trkpt>
      <trkpt lat="45.97323" lon="1.3833">
        <ele>536.6</ele>
        <time>2012-09-07T15:47:23Z</time>
      </trkpt>
      <trkpt lat="45.97317" lon="1.38317">
        <ele>539</ele>
        <time>2012-09-07T15:47:30Z</time>
      </trkpt>
      <trkpt lat="45.97308" lon="1.38305">
        <ele>541.2</ele>
        <time>2012-09-07T15:47:37Z</time>
      </trkpt>
      <trkpt lat="45.97301" lon="1.38296">
        <ele>543.2</ele>
        <time>2012-09-07T15:47:44Z</time>
      </trkpt>
      <trkpt lat="45.9729" lon="1.38282">
        <ele>544.6</ele>
        <time>2012-09-07T15:47:53Z</time>
      </trkpt>
      <trkpt lat="45.97284" lon="1.38274">
        <ele>544.6</ele>
        <time>2012-09-07T15:47:59Z</time>
      </trkpt>
      <trkpt lat="45.97283" lon="1.38274">
        <ele>544.6</ele>
        <time>2012-09-07T15:48:00Z</time>
      </trkpt>
      <trkpt lat="45.97277" lon="1.38267">
        <ele>544.6</ele>
        <time>2012-09-07T15:48:04Z</time>
      </trkpt>
      <trkpt lat="45.9727" lon="1.38257">
        <ele>544.6</ele>
        <time>2012-09-07T15:48:08Z</time>
      </trkpt>
      <trkpt lat="45.97264" lon="1.38249">
        <ele>544.4</ele>
        <time>2012-09-07T15:48:12Z</time>
      </trkpt>
      <trkpt lat="45.9726" lon="1.38246">
        <ele>544.2</ele>
        <time>2012-09-07T15:48:14Z</time>
      </trkpt>
      <trkpt lat="45.9725" lon="1.38236">
        <ele>543.8</ele>
        <time>2012-09-07T15:48:19Z</time>
      </trkpt>
      <trkpt lat="45.97246" lon="1.38233">
        <ele>543.6</ele>
        <time>2012-09-07T15:48:21Z</time>
      </trkpt>
      <trkpt lat="45.97236" lon="1.38225">
        <ele>543.4</ele>
        <time>2012-09-07T15:48:24Z</time>
      </trkpt>
      <trkpt lat="45.97219" lon="1.38207">
        <ele>542.8</ele>
        <time>2012-09-07T15:48:29Z</time>
      </trkpt>
      <trkpt lat="45.97215" lon="1.38202">
        <ele>542.8</ele>
        <time>2012-09-07T15:48:30Z</time>
      </trkpt>
      <trkpt lat="45.97208" lon="1.38194">
        <ele>542.4</ele>
        <time>2012-09-07T15:48:32Z</time>
      </trkpt>
      <trkpt lat="45.97193" lon="1.38184">
        <ele>542.2</ele>
        <time>2012-09-07T15:48:35Z</time>
      </trkpt>
      <trkpt lat="45.9717" lon="1.38186">
        <ele>541.8</ele>
        <time>2012-09-07T15:48:39Z</time>
      </trkpt>
      <trkpt lat="45.97156" lon="1.38195">
        <ele>541.6</ele>
        <time>2012-09-07T15:48:42Z</time>
      </trkpt>
      <trkpt lat="45.97149" lon="1.382">
        <ele>541.4</ele>
        <time>2012-09-07T15:48:44Z</time>
      </trkpt>
      <trkpt lat="45.97143" lon="1.38201">
        <ele>541.2</ele>
        <time>2012-09-07T15:48:46Z</time>
      </trkpt>
      <trkpt lat="45.9714" lon="1.38198">
        <ele>541</ele>
        <time>2012-09-07T15:48:48Z</time>
      </trkpt>
      <trkpt lat="45.97142" lon="1.38185">
        <ele>540.6</ele>
        <time>2012-09-07T15:48:52Z</time>
      </trkpt>
      <trkpt lat="45.97149" lon="1.38171">
        <ele>540.2</ele>
        <time>2012-09-07T15:48:56Z</time>
      </trkpt>
      <trkpt lat="45.9715" lon="1.38167">
        <ele>540</ele>
        <time>2012-09-07T15:48:57Z</time>
      </trkpt>
      <trkpt lat="45.97152" lon="1.38141">
        <ele>539.8</ele>
        <time>2012-09-07T15:49:01Z</time>
      </trkpt>
      <trkpt lat="45.97151" lon="1.38134">
        <ele>539.8</ele>
        <time>2012-09-07T15:49:02Z</time>
      </trkpt>
      <trkpt lat="45.97151" lon="1.38119">
        <ele>539.8</ele>
        <time>2012-09-07T15:49:04Z</time>
      </trkpt>
      <trkpt lat="45.97156" lon="1.38108">
        <ele>539.4</ele>
        <time>2012-09-07T15:49:06Z</time>
      </trkpt>
      <trkpt lat="45.97162" lon="1.38098">
        <ele>539.2</ele>
        <time>2012-09-07T15:49:08Z</time>
      </trkpt>
      <trkpt lat="45.97165" lon="1.38084">
        <ele>539.2</ele>
        <time>2012-09-07T15:49:10Z</time>
      </trkpt>
      <trkpt lat="45.9716" lon="1.38057">
        <ele>538.8</ele>
        <time>2012-09-07T15:49:13Z</time>
      </trkpt>
      <trkpt lat="45.97158" lon="1.38048">
        <ele>538.6</ele>
        <time>2012-09-07T15:49:14Z</time>
      </trkpt>
      <trkpt lat="45.97163" lon="1.38027">
        <ele>538.4</ele>
        <time>2012-09-07T15:49:17Z</time>
      </trkpt>
      <trkpt lat="45.97165" lon="1.38021">
        <ele>538.4</ele>
        <time>2012-09-07T15:49:18Z</time>
      </trkpt>
      <trkpt lat="45.9717" lon="1.38016">
        <ele>538.2</ele>
        <time>2012-09-07T15:49:20Z</time>
      </trkpt>
      <trkpt lat="45.97175" lon="1.38014">
        <ele>538</ele>
        <time>2012-09-07T15:49:21Z</time>
      </trkpt>
      <trkpt lat="45.97182" lon="1.38012">
        <ele>537.8</ele>
        <time>2012-09-07T15:49:24Z</time>
      </trkpt>
      <trkpt lat="45.97184" lon="1.3801">
        <ele>537.4</ele>
        <time>2012-09-07T15:49:29Z</time>
      </trkpt>
      <trkpt lat="45.97189" lon="1.38005">
        <ele>536.8</ele>
        <time>2012-09-07T15:49:34Z</time>
      </trkpt>
      <trkpt lat="45.97197" lon="1.37995">
        <ele>536.2</ele>
        <time>2012-09-07T15:49:39Z</time>
      </trkpt>
      <trkpt lat="45.97201" lon="1.37991">
        <ele>535.8</ele>
        <time>2012-09-07T15:49:42Z</time>
      </trkpt>
      <trkpt lat="45.97202" lon="1.3799">
        <ele>535.8</ele>
        <time>2012-09-07T15:49:43Z</time>
      </trkpt>
      <trkpt lat="45.97205" lon="1.37988">
        <ele>534.8</ele>
        <time>2012-09-07T15:49:53Z</time>
      </trkpt>
      <trkpt lat="45.97206" lon="1.3798">
        <ele>533.8</ele>
        <time>2012-09-07T15:50:07Z</time>
      </trkpt>
      <trkpt lat="45.97207" lon="1.37975">
        <ele>533.8</ele>
        <time>2012-09-07T15:50:09Z</time>
      </trkpt>
      <trkpt lat="45.97209" lon="1.37964">
        <ele>533.6</ele>
        <time>2012-09-07T15:50:14Z</time>
      </trkpt>
      <trkpt lat="45.97207" lon="1.3796">
        <ele>533.4</ele>
        <time>2012-09-07T15:50:20Z</time>
      </trkpt>
      <trkpt lat="45.97207" lon="1.37961">
        <ele>533.4</ele>
        <time>2012-09-07T15:50:21Z</time>
      </trkpt>
      <trkpt lat="45.97204" lon="1.37954">
        <ele>533.4</ele>
        <time>2012-09-07T15:50:32Z</time>
      </trkpt>
      <trkpt lat="45.97203" lon="1.37953">
        <ele>533.4</ele>
        <time>2012-09-07T15:50:33Z</time>
      </trkpt>
      <trkpt lat="45.97201" lon="1.37948">
        <ele>533.4</ele>
        <time>2012-09-07T15:50:36Z</time>
      </trkpt>
      <trkpt lat="45.97198" lon="1.37943">
        <ele>533.4</ele>
        <time>2012-09-07T15:50:38Z</time>
      </trkpt>
      <trkpt lat="45.97186" lon="1.37925">
        <ele>534</ele>
        <time>2012-09-07T15:50:45Z</time>
      </trkpt>
      <trkpt lat="45.97185" lon="1.37923">
        <ele>533.8</ele>
        <time>2012-09-07T15:50:47Z</time>
      </trkpt>
      <trkpt lat="45.97184" lon="1.3792">
        <ele>533.8</ele>
        <time>2012-09-07T15:50:50Z</time>
      </trkpt>
      <trkpt lat="45.97182" lon="1.37916">
        <ele>533.8</ele>
        <time>2012-09-07T15:50:53Z</time>
      </trkpt>
      <trkpt lat="45.97177" lon="1.37912">
        <ele>533.8</ele>
        <time>2012-09-07T15:50:56Z</time>
      </trkpt>
      <trkpt lat="45.97175" lon="1.3791">
        <ele>534</ele>
        <time>2012-09-07T15:50:57Z</time>
      </trkpt>
      <trkpt lat="45.97165" lon="1.37901">
        <ele>533.8</ele>
        <time>2012-09-07T15:51:02Z</time>
      </trkpt>
      <trkpt lat="45.97162" lon="1.37899">
        <ele>533.8</ele>
        <time>2012-09-07T15:51:04Z</time>
      </trkpt>
      <trkpt lat="45.97161" lon="1.37895">
        <ele>533.8</ele>
        <time>2012-09-07T15:51:06Z</time>
      </trkpt>
      <trkpt lat="45.9716" lon="1.37886">
        <ele>533.8</ele>
        <time>2012-09-07T15:51:11Z</time>
      </trkpt>
      <trkpt lat="45.9716" lon="1.37881">
        <ele>533.6</ele>
        <time>2012-09-07T15:51:15Z</time>
      </trkpt>
      <trkpt lat="45.97159" lon="1.37879">
        <ele>533.4</ele>
        <time>2012-09-07T15:51:18Z</time>
      </trkpt>
      <trkpt lat="45.97159" lon="1.37877">
        <ele>533.2</ele>
        <time>2012-09-07T15:51:23Z</time>
      </trkpt>
      <trkpt lat="45.97158" lon="1.37873">
        <ele>533</ele>
        <time>2012-09-07T15:51:28Z</time>
      </trkpt>
      <trkpt lat="45.97157" lon="1.37867">
        <ele>532.6</ele>
        <time>2012-09-07T15:51:34Z</time>
      </trkpt>
      <trkpt lat="45.97153" lon="1.37853">
        <ele>532.2</ele>
        <time>2012-09-07T15:51:47Z</time>
      </trkpt>
      <trkpt lat="45.97159" lon="1.37852">
        <ele>538.4</ele>
        <time>2012-09-07T15:52:16Z</time>
      </trkpt>
      <trkpt lat="45.97159" lon="1.37848">
        <ele>539.4</ele>
        <time>2012-09-07T15:52:21Z</time>
      </trkpt>
      <trkpt lat="45.97158" lon="1.37844">
        <ele>540.4</ele>
        <time>2012-09-07T15:52:27Z</time>
      </trkpt>
      <trkpt lat="45.97159" lon="1.37831">
        <ele>541.6</ele>
        <time>2012-09-07T15:52:41Z</time>
      </trkpt>
      <trkpt lat="45.97158" lon="1.37825">
        <ele>542.4</ele>
        <time>2012-09-07T15:52:49Z</time>
      </trkpt>
      <trkpt lat="45.97158" lon="1.37816">
        <ele>543.2</ele>
        <time>2012-09-07T15:52:57Z</time>
      </trkpt>
      <trkpt lat="45.97159" lon="1.37791">
        <ele>548.8</ele>
        <time>2012-09-07T15:53:41Z</time>
      </trkpt>
      <trkpt lat="45.9716" lon="1.37787">
        <ele>549.6</ele>
        <time>2012-09-07T15:53:54Z</time>
      </trkpt>
      <trkpt lat="45.9716" lon="1.37784">
        <ele>550.2</ele>
        <time>2012-09-07T15:54:01Z</time>
      </trkpt>
      <trkpt lat="45.97159" lon="1.37777">
        <ele>551</ele>
        <time>2012-09-07T15:54:11Z</time>
      </trkpt>
      <trkpt lat="45.97156" lon="1.37766">
        <ele>553</ele>
        <time>2012-09-07T15:54:25Z</time>
      </trkpt>
      <trkpt lat="45.97155" lon="1.3776">
        <ele>554.2</ele>
        <time>2012-09-07T15:54:32Z</time>
      </trkpt>
      <trkpt lat="45.97152" lon="1.37754">
        <ele>555.2</ele>
        <time>2012-09-07T15:54:37Z</time>
      </trkpt>
      <trkpt lat="45.97151" lon="1.37744">
        <ele>556.6</ele>
        <time>2012-09-07T15:54:44Z</time>
      </trkpt>
      <trkpt lat="45.97151" lon="1.37739">
        <ele>557.2</ele>
        <time>2012-09-07T15:54:48Z</time>
      </trkpt>
      <trkpt lat="45.97151" lon="1.37738">
        <ele>557.4</ele>
        <time>2012-09-07T15:54:49Z</time>
      </trkpt>
      <trkpt lat="45.97148" lon="1.37729">
        <ele>558</ele>
        <time>2012-09-07T15:54:57Z</time>
      </trkpt>
      <trkpt lat="45.97147" lon="1.37725">
        <ele>558.4</ele>
        <time>2012-09-07T15:55:01Z</time>
      </trkpt>
      <trkpt lat="45.97147" lon="1.37723">
        <ele>558.6</ele>
        <time>2012-09-07T15:55:03Z</time>
      </trkpt>
      <trkpt lat="45.97144" lon="1.37716">
        <ele>559.6</ele>
        <time>2012-09-07T15:55:08Z</time>
      </trkpt>
      <trkpt lat="45.97143" lon="1.37714">
        <ele>559.8</ele>
        <time>2012-09-07T15:55:10Z</time>
      </trkpt>
      <trkpt lat="45.97142" lon="1.37711">
        <ele>560.2</ele>
        <time>2012-09-07T15:55:12Z</time>
      </trkpt>
      <trkpt lat="45.9714" lon="1.37704">
        <ele>561</ele>
        <time>2012-09-07T15:55:16Z</time>
      </trkpt>
      <trkpt lat="45.9714" lon="1.37703">
        <ele>561.2</ele>
        <time>2012-09-07T15:55:17Z</time>
      </trkpt>
      <trkpt lat="45.97136" lon="1.37696">
        <ele>562</ele>
        <time>2012-09-07T15:55:22Z</time>
      </trkpt>
      <trkpt lat="45.97136" lon="1.37692">
        <ele>562.2</ele>
        <time>2012-09-07T15:55:25Z</time>
      </trkpt>
      <trkpt lat="45.97136" lon="1.37689">
        <ele>562.4</ele>
        <time>2012-09-07T15:55:28Z</time>
      </trkpt>
      <trkpt lat="45.97133" lon="1.37678">
        <ele>563.4</ele>
        <time>2012-09-07T15:55:34Z</time>
      </trkpt>
      <trkpt lat="45.97129" lon="1.37668">
        <ele>564.4</ele>
        <time>2012-09-07T15:55:38Z</time>
      </trkpt>
      <trkpt lat="45.97127" lon="1.37661">
        <ele>565</ele>
        <time>2012-09-07T15:55:41Z</time>
      </trkpt>
      <trkpt lat="45.97126" lon="1.37648">
        <ele>566</ele>
        <time>2012-09-07T15:55:48Z</time>
      </trkpt>
      <trkpt lat="45.97126" lon="1.37643">
        <ele>566.2</ele>
        <time>2012-09-07T15:55:51Z</time>
      </trkpt>
      <trkpt lat="45.97124" lon="1.37635">
        <ele>566</ele>
        <time>2012-09-07T15:55:55Z</time>
      </trkpt>
      <trkpt lat="45.9712" lon="1.37617">
        <ele>565.6</ele>
        <time>2012-09-07T15:56:02Z</time>
      </trkpt>
      <trkpt lat="45.97114" lon="1.37598">
        <ele>565.2</ele>
        <time>2012-09-07T15:56:08Z</time>
      </trkpt>
      <trkpt lat="45.97112" lon="1.37577">
        <ele>565</ele>
        <time>2012-09-07T15:56:13Z</time>
      </trkpt>
      <trkpt lat="45.97104" lon="1.37546">
        <ele>564.6</ele>
        <time>2012-09-07T15:56:18Z</time>
      </trkpt>
      <trkpt lat="45.97095" lon="1.37516">
        <ele>564.4</ele>
        <time>2012-09-07T15:56:22Z</time>
      </trkpt>
      <trkpt lat="45.97094" lon="1.37508">
        <ele>564.4</ele>
        <time>2012-09-07T15:56:23Z</time>
      </trkpt>
      <trkpt lat="45.97093" lon="1.37501">
        <ele>564.2</ele>
        <time>2012-09-07T15:56:24Z</time>
      </trkpt>
      <trkpt lat="45.97092" lon="1.37478">
        <ele>564.2</ele>
        <time>2012-09-07T15:56:27Z</time>
      </trkpt>
      <trkpt lat="45.97093" lon="1.3746">
        <ele>564</ele>
        <time>2012-09-07T15:56:30Z</time>
      </trkpt>
      <trkpt lat="45.97095" lon="1.37452">
        <ele>563.8</ele>
        <time>2012-09-07T15:56:32Z</time>
      </trkpt>
      <trkpt lat="45.97102" lon="1.37427">
        <ele>563.6</ele>
        <time>2012-09-07T15:56:39Z</time>
      </trkpt>
      <trkpt lat="45.97104" lon="1.37424">
        <ele>563.4</ele>
        <time>2012-09-07T15:56:40Z</time>
      </trkpt>
      <trkpt lat="45.97116" lon="1.37403">
        <ele>563.2</ele>
        <time>2012-09-07T15:56:48Z</time>
      </trkpt>
      <trkpt lat="45.97118" lon="1.37393">
        <ele>563</ele>
        <time>2012-09-07T15:56:51Z</time>
      </trkpt>
      <trkpt lat="45.97119" lon="1.37386">
        <ele>563</ele>
        <time>2012-09-07T15:56:53Z</time>
      </trkpt>
      <trkpt lat="45.97124" lon="1.37369">
        <ele>562.8</ele>
        <time>2012-09-07T15:56:59Z</time>
      </trkpt>
      <trkpt lat="45.97128" lon="1.37353">
        <ele>562.6</ele>
        <time>2012-09-07T15:57:05Z</time>
      </trkpt>
      <trkpt lat="45.97132" lon="1.3734">
        <ele>562.4</ele>
        <time>2012-09-07T15:57:10Z</time>
      </trkpt>
      <trkpt lat="45.97136" lon="1.37318">
        <ele>562</ele>
        <time>2012-09-07T15:57:17Z</time>
      </trkpt>
      <trkpt lat="45.97144" lon="1.37299">
        <ele>562</ele>
        <time>2012-09-07T15:57:23Z</time>
      </trkpt>
      <trkpt lat="45.97153" lon="1.37277">
        <ele>561.8</ele>
        <time>2012-09-07T15:57:28Z</time>
      </trkpt>
      <trkpt lat="45.97156" lon="1.37272">
        <ele>561.8</ele>
        <time>2012-09-07T15:57:29Z</time>
      </trkpt>
      <trkpt lat="45.97171" lon="1.37248">
        <ele>561.6</ele>
        <time>2012-09-07T15:57:33Z</time>
      </trkpt>
      <trkpt lat="45.97175" lon="1.37241">
        <ele>561.6</ele>
        <time>2012-09-07T15:57:34Z</time>
      </trkpt>
      <trkpt lat="45.97189" lon="1.3722">
        <ele>561.6</ele>
        <time>2012-09-07T15:57:37Z</time>
      </trkpt>
      <trkpt lat="45.97199" lon="1.37205">
        <ele>561.4</ele>
        <time>2012-09-07T15:57:39Z</time>
      </trkpt>
      <trkpt lat="45.97214" lon="1.3718">
        <ele>561.4</ele>
        <time>2012-09-07T15:57:42Z</time>
      </trkpt>
      <trkpt lat="45.97226" lon="1.37166">
        <ele>561.2</ele>
        <time>2012-09-07T15:57:44Z</time>
      </trkpt>
      <trkpt lat="45.97243" lon="1.37148">
        <ele>561.2</ele>
        <time>2012-09-07T15:57:47Z</time>
      </trkpt>
      <trkpt lat="45.9726" lon="1.37131">
        <ele>561</ele>
        <time>2012-09-07T15:57:50Z</time>
      </trkpt>
      <trkpt lat="45.97265" lon="1.37124">
        <ele>561</ele>
        <time>2012-09-07T15:57:51Z</time>
      </trkpt>
      <trkpt lat="45.97283" lon="1.37106">
        <ele>560.8</ele>
        <time>2012-09-07T15:57:55Z</time>
      </trkpt>
      <trkpt lat="45.97299" lon="1.37093">
        <ele>560.6</ele>
        <time>2012-09-07T15:58:00Z</time>
      </trkpt>
      <trkpt lat="45.97302" lon="1.3709">
        <ele>560.6</ele>
        <time>2012-09-07T15:58:01Z</time>
      </trkpt>
      <trkpt lat="45.97307" lon="1.37084">
        <ele>560.6</ele>
        <time>2012-09-07T15:58:03Z</time>
      </trkpt>
      <trkpt lat="45.97308" lon="1.37077">
        <ele>560.6</ele>
        <time>2012-09-07T15:58:05Z</time>
      </trkpt>
      <trkpt lat="45.97302" lon="1.37065">
        <ele>560.4</ele>
        <time>2012-09-07T15:58:08Z</time>
      </trkpt>
      <trkpt lat="45.97296" lon="1.37045">
        <ele>560.4</ele>
        <time>2012-09-07T15:58:13Z</time>
      </trkpt>
      <trkpt lat="45.97294" lon="1.37039">
        <ele>560.4</ele>
        <time>2012-09-07T15:58:14Z</time>
      </trkpt>
      <trkpt lat="45.97294" lon="1.37023">
        <ele>560.6</ele>
        <time>2012-09-07T15:58:17Z</time>
      </trkpt>
      <trkpt lat="45.97296" lon="1.3702">
        <ele>560.6</ele>
        <time>2012-09-07T15:58:18Z</time>
      </trkpt>
      <trkpt lat="45.97302" lon="1.37014">
        <ele>560.8</ele>
        <time>2012-09-07T15:58:21Z</time>
      </trkpt>
      <trkpt lat="45.9731" lon="1.37006">
        <ele>560.6</ele>
        <time>2012-09-07T15:58:26Z</time>
      </trkpt>
      <trkpt lat="45.97313" lon="1.37002">
        <ele>560.6</ele>
        <time>2012-09-07T15:58:28Z</time>
      </trkpt>
      <trkpt lat="45.97319" lon="1.36995">
        <ele>560.6</ele>
        <time>2012-09-07T15:58:33Z</time>
      </trkpt>
      <trkpt lat="45.97326" lon="1.36988">
        <ele>560.8</ele>
        <time>2012-09-07T15:58:38Z</time>
      </trkpt>
      <trkpt lat="45.97331" lon="1.36981">
        <ele>561</ele>
        <time>2012-09-07T15:58:42Z</time>
      </trkpt>
      <trkpt lat="45.97332" lon="1.36978">
        <ele>561</ele>
        <time>2012-09-07T15:58:43Z</time>
      </trkpt>
      <trkpt lat="45.97336" lon="1.36968">
        <ele>562.2</ele>
        <time>2012-09-07T15:58:47Z</time>
      </trkpt>
      <trkpt lat="45.97338" lon="1.36966">
        <ele>562.4</ele>
        <time>2012-09-07T15:58:48Z</time>
      </trkpt>
      <trkpt lat="45.97348" lon="1.36956">
        <ele>563.8</ele>
        <time>2012-09-07T15:58:53Z</time>
      </trkpt>
      <trkpt lat="45.97366" lon="1.36946">
        <ele>565.4</ele>
        <time>2012-09-07T15:59:00Z</time>
      </trkpt>
      <trkpt lat="45.97377" lon="1.36935">
        <ele>566.6</ele>
        <time>2012-09-07T15:59:06Z</time>
      </trkpt>
      <trkpt lat="45.97392" lon="1.36926">
        <ele>568</ele>
        <time>2012-09-07T15:59:11Z</time>
      </trkpt>
      <trkpt lat="45.97404" lon="1.36917">
        <ele>568.4</ele>
        <time>2012-09-07T15:59:16Z</time>
      </trkpt>
      <trkpt lat="45.97419" lon="1.3691">
        <ele>569.2</ele>
        <time>2012-09-07T15:59:21Z</time>
      </trkpt>
      <trkpt lat="45.9743" lon="1.36899">
        <ele>569</ele>
        <time>2012-09-07T15:59:26Z</time>
      </trkpt>
      <trkpt lat="45.97444" lon="1.36884">
        <ele>569</ele>
        <time>2012-09-07T15:59:32Z</time>
      </trkpt>
      <trkpt lat="45.97458" lon="1.36868">
        <ele>568.6</ele>
        <time>2012-09-07T15:59:39Z</time>
      </trkpt>
      <trkpt lat="45.97459" lon="1.36865">
        <ele>568.6</ele>
        <time>2012-09-07T15:59:40Z</time>
      </trkpt>
      <trkpt lat="45.97465" lon="1.36849">
        <ele>568.4</ele>
        <time>2012-09-07T15:59:45Z</time>
      </trkpt>
      <trkpt lat="45.97465" lon="1.36846">
        <ele>568.4</ele>
        <time>2012-09-07T15:59:46Z</time>
      </trkpt>
      <trkpt lat="45.97459" lon="1.3682">
        <ele>568.4</ele>
        <time>2012-09-07T15:59:52Z</time>
      </trkpt>
      <trkpt lat="45.97449" lon="1.36799">
        <ele>568.2</ele>
        <time>2012-09-07T15:59:56Z</time>
      </trkpt>
      <trkpt lat="45.97444" lon="1.36794">
        <ele>568.2</ele>
        <time>2012-09-07T15:59:57Z</time>
      </trkpt>
      <trkpt lat="45.97426" lon="1.36783">
        <ele>568</ele>
        <time>2012-09-07T16:00:00Z</time>
      </trkpt>
      <trkpt lat="45.9742" lon="1.36781">
        <ele>568</ele>
        <time>2012-09-07T16:00:01Z</time>
      </trkpt>
      <trkpt lat="45.97401" lon="1.36777">
        <ele>567.8</ele>
        <time>2012-09-07T16:00:04Z</time>
      </trkpt>
      <trkpt lat="45.97395" lon="1.36774">
        <ele>567.8</ele>
        <time>2012-09-07T16:00:05Z</time>
      </trkpt>
      <trkpt lat="45.97385" lon="1.36768">
        <ele>567.6</ele>
        <time>2012-09-07T16:00:07Z</time>
      </trkpt>
      <trkpt lat="45.97371" lon="1.36761">
        <ele>567.4</ele>
        <time>2012-09-07T16:00:10Z</time>
      </trkpt>
      <trkpt lat="45.97356" lon="1.36752">
        <ele>567.2</ele>
        <time>2012-09-07T16:00:14Z</time>
      </trkpt>
      <trkpt lat="45.97352" lon="1.3675">
        <ele>567.2</ele>
        <time>2012-09-07T16:00:15Z</time>
      </trkpt>
      <trkpt lat="45.97347" lon="1.36745">
        <ele>567</ele>
        <time>2012-09-07T16:00:17Z</time>
      </trkpt>
      <trkpt lat="45.97346" lon="1.36735">
        <ele>567</ele>
        <time>2012-09-07T16:00:19Z</time>
      </trkpt>
      <trkpt lat="45.9735" lon="1.36723">
        <ele>566.8</ele>
        <time>2012-09-07T16:00:22Z</time>
      </trkpt>
      <trkpt lat="45.97351" lon="1.36719">
        <ele>566.8</ele>
        <time>2012-09-07T16:00:23Z</time>
      </trkpt>
      <trkpt lat="45.97355" lon="1.36695">
        <ele>566.4</ele>
        <time>2012-09-07T16:00:28Z</time>
      </trkpt>
      <trkpt lat="45.9736" lon="1.36669">
        <ele>566</ele>
        <time>2012-09-07T16:00:33Z</time>
      </trkpt>
      <trkpt lat="45.97363" lon="1.36642">
        <ele>565.6</ele>
        <time>2012-09-07T16:00:38Z</time>
      </trkpt>
      <trkpt lat="45.97365" lon="1.36631">
        <ele>565.4</ele>
        <time>2012-09-07T16:00:40Z</time>
      </trkpt>
      <trkpt lat="45.97371" lon="1.36605">
        <ele>565.2</ele>
        <time>2012-09-07T16:00:45Z</time>
      </trkpt>
      <trkpt lat="45.97379" lon="1.36578">
        <ele>564.6</ele>
        <time>2012-09-07T16:00:51Z</time>
      </trkpt>
      <trkpt lat="45.9738" lon="1.36573">
        <ele>564.6</ele>
        <time>2012-09-07T16:00:52Z</time>
      </trkpt>
      <trkpt lat="45.97387" lon="1.36544">
        <ele>564.4</ele>
        <time>2012-09-07T16:00:57Z</time>
      </trkpt>
      <trkpt lat="45.9739" lon="1.36529">
        <ele>564.2</ele>
        <time>2012-09-07T16:00:59Z</time>
      </trkpt>
      <trkpt lat="45.97393" lon="1.36513">
        <ele>564.2</ele>
        <time>2012-09-07T16:01:01Z</time>
      </trkpt>
      <trkpt lat="45.9739" lon="1.36486">
        <ele>564.2</ele>
        <time>2012-09-07T16:01:04Z</time>
      </trkpt>
      <trkpt lat="45.97388" lon="1.36474">
        <ele>564.2</ele>
        <time>2012-09-07T16:01:05Z</time>
      </trkpt>
      <trkpt lat="45.97385" lon="1.36447">
        <ele>564.2</ele>
        <time>2012-09-07T16:01:08Z</time>
      </trkpt>
      <trkpt lat="45.97383" lon="1.3644">
        <ele>564.2</ele>
        <time>2012-09-07T16:01:09Z</time>
      </trkpt>
      <trkpt lat="45.97377" lon="1.36421">
        <ele>565</ele>
        <time>2012-09-07T16:01:12Z</time>
      </trkpt>
      <trkpt lat="45.97365" lon="1.36409">
        <ele>565.8</ele>
        <time>2012-09-07T16:01:16Z</time>
      </trkpt>
      <trkpt lat="45.97359" lon="1.36404">
        <ele>566.2</ele>
        <time>2012-09-07T16:01:18Z</time>
      </trkpt>
      <trkpt lat="45.97345" lon="1.36396">
        <ele>566.8</ele>
        <time>2012-09-07T16:01:22Z</time>
      </trkpt>
      <trkpt lat="45.97335" lon="1.36381">
        <ele>566.8</ele>
        <time>2012-09-07T16:01:27Z</time>
      </trkpt>
      <trkpt lat="45.97339" lon="1.36361">
        <ele>566.6</ele>
        <time>2012-09-07T16:01:30Z</time>
      </trkpt>
      <trkpt lat="45.97342" lon="1.36346">
        <ele>566.6</ele>
        <time>2012-09-07T16:01:32Z</time>
      </trkpt>
      <trkpt lat="45.97348" lon="1.36326">
        <ele>566.6</ele>
        <time>2012-09-07T16:01:35Z</time>
      </trkpt>
      <trkpt lat="45.97352" lon="1.36313">
        <ele>566.4</ele>
        <time>2012-09-07T16:01:37Z</time>
      </trkpt>
      <trkpt lat="45.97359" lon="1.36295">
        <ele>566</ele>
        <time>2012-09-07T16:01:40Z</time>
      </trkpt>
      <trkpt lat="45.97361" lon="1.36268">
        <ele>565.8</ele>
        <time>2012-09-07T16:01:44Z</time>
      </trkpt>
      <trkpt lat="45.97361" lon="1.36262">
        <ele>565.6</ele>
        <time>2012-09-07T16:01:45Z</time>
      </trkpt>
      <trkpt lat="45.97354" lon="1.36238">
        <ele>565.4</ele>
        <time>2012-09-07T16:01:48Z</time>
      </trkpt>
      <trkpt lat="45.97351" lon="1.3623">
        <ele>565.2</ele>
        <time>2012-09-07T16:01:49Z</time>
      </trkpt>
      <trkpt lat="45.97343" lon="1.36206">
        <ele>565</ele>
        <time>2012-09-07T16:01:52Z</time>
      </trkpt>
      <trkpt lat="45.9734" lon="1.36197">
        <ele>564.8</ele>
        <time>2012-09-07T16:01:53Z</time>
      </trkpt>
      <trkpt lat="45.9734" lon="1.36188">
        <ele>564.8</ele>
        <time>2012-09-07T16:01:54Z</time>
      </trkpt>
      <trkpt lat="45.97343" lon="1.3616">
        <ele>564.4</ele>
        <time>2012-09-07T16:01:57Z</time>
      </trkpt>
      <trkpt lat="45.97345" lon="1.36151">
        <ele>564.2</ele>
        <time>2012-09-07T16:01:58Z</time>
      </trkpt>
      <trkpt lat="45.97346" lon="1.36131">
        <ele>563.8</ele>
        <time>2012-09-07T16:02:01Z</time>
      </trkpt>
      <trkpt lat="45.9734" lon="1.36119">
        <ele>563.4</ele>
        <time>2012-09-07T16:02:03Z</time>
      </trkpt>
      <trkpt lat="45.97336" lon="1.36107">
        <ele>563</ele>
        <time>2012-09-07T16:02:05Z</time>
      </trkpt>
      <trkpt lat="45.97324" lon="1.36079">
        <ele>562.2</ele>
        <time>2012-09-07T16:02:09Z</time>
      </trkpt>
      <trkpt lat="45.97317" lon="1.36066">
        <ele>561.8</ele>
        <time>2012-09-07T16:02:11Z</time>
      </trkpt>
      <trkpt lat="45.97308" lon="1.36055">
        <ele>561.4</ele>
        <time>2012-09-07T16:02:13Z</time>
      </trkpt>
      <trkpt lat="45.97295" lon="1.36043">
        <ele>560.6</ele>
        <time>2012-09-07T16:02:16Z</time>
      </trkpt>
      <trkpt lat="45.97277" lon="1.36027">
        <ele>559.4</ele>
        <time>2012-09-07T16:02:20Z</time>
      </trkpt>
      <trkpt lat="45.97274" lon="1.36023">
        <ele>559.2</ele>
        <time>2012-09-07T16:02:21Z</time>
      </trkpt>
      <trkpt lat="45.97259" lon="1.36">
        <ele>557.8</ele>
        <time>2012-09-07T16:02:25Z</time>
      </trkpt>
      <trkpt lat="45.97252" lon="1.35989">
        <ele>557.2</ele>
        <time>2012-09-07T16:02:27Z</time>
      </trkpt>
      <trkpt lat="45.97237" lon="1.35966">
        <ele>555.8</ele>
        <time>2012-09-07T16:02:31Z</time>
      </trkpt>
      <trkpt lat="45.97231" lon="1.35953">
        <ele>555.4</ele>
        <time>2012-09-07T16:02:33Z</time>
      </trkpt>
      <trkpt lat="45.97222" lon="1.35933">
        <ele>554.8</ele>
        <time>2012-09-07T16:02:36Z</time>
      </trkpt>
      <trkpt lat="45.97216" lon="1.35925">
        <ele>554.4</ele>
        <time>2012-09-07T16:02:38Z</time>
      </trkpt>
      <trkpt lat="45.97213" lon="1.35922">
        <ele>554.2</ele>
        <time>2012-09-07T16:02:39Z</time>
      </trkpt>
      <trkpt lat="45.97206" lon="1.35916">
        <ele>553.4</ele>
        <time>2012-09-07T16:02:42Z</time>
      </trkpt>
      <trkpt lat="45.97197" lon="1.35914">
        <ele>552.6</ele>
        <time>2012-09-07T16:02:46Z</time>
      </trkpt>
      <trkpt lat="45.97188" lon="1.35924">
        <ele>551.6</ele>
        <time>2012-09-07T16:02:50Z</time>
      </trkpt>
      <trkpt lat="45.97177" lon="1.35923">
        <ele>550.8</ele>
        <time>2012-09-07T16:02:54Z</time>
      </trkpt>
      <trkpt lat="45.97171" lon="1.35913">
        <ele>549.8</ele>
        <time>2012-09-07T16:02:58Z</time>
      </trkpt>
      <trkpt lat="45.97169" lon="1.35911">
        <ele>549.6</ele>
        <time>2012-09-07T16:02:59Z</time>
      </trkpt>
      <trkpt lat="45.97162" lon="1.35899">
        <ele>548.4</ele>
        <time>2012-09-07T16:03:04Z</time>
      </trkpt>
      <trkpt lat="45.97156" lon="1.35889">
        <ele>547.2</ele>
        <time>2012-09-07T16:03:09Z</time>
      </trkpt>
      <trkpt lat="45.97147" lon="1.35884">
        <ele>545.4</ele>
        <time>2012-09-07T16:03:15Z</time>
      </trkpt>
      <trkpt lat="45.97139" lon="1.35877">
        <ele>544</ele>
        <time>2012-09-07T16:03:19Z</time>
      </trkpt>
      <trkpt lat="45.97129" lon="1.35872">
        <ele>542.4</ele>
        <time>2012-09-07T16:03:23Z</time>
      </trkpt>
      <trkpt lat="45.97116" lon="1.35865">
        <ele>540.8</ele>
        <time>2012-09-07T16:03:28Z</time>
      </trkpt>
      <trkpt lat="45.97098" lon="1.35859">
        <ele>539.4</ele>
        <time>2012-09-07T16:03:33Z</time>
      </trkpt>
      <trkpt lat="45.97094" lon="1.35856">
        <ele>539.2</ele>
        <time>2012-09-07T16:03:34Z</time>
      </trkpt>
      <trkpt lat="45.97077" lon="1.3585">
        <ele>538</ele>
        <time>2012-09-07T16:03:39Z</time>
      </trkpt>
      <trkpt lat="45.97073" lon="1.35851">
        <ele>537.6</ele>
        <time>2012-09-07T16:03:40Z</time>
      </trkpt>
      <trkpt lat="45.97054" lon="1.35846">
        <ele>536.4</ele>
        <time>2012-09-07T16:03:46Z</time>
      </trkpt>
      <trkpt lat="45.97048" lon="1.35836">
        <ele>535.4</ele>
        <time>2012-09-07T16:03:50Z</time>
      </trkpt>
      <trkpt lat="45.97046" lon="1.35832">
        <ele>535.2</ele>
        <time>2012-09-07T16:03:51Z</time>
      </trkpt>
      <trkpt lat="45.9704" lon="1.3581">
        <ele>533.6</ele>
        <time>2012-09-07T16:03:57Z</time>
      </trkpt>
      <trkpt lat="45.9704" lon="1.35803">
        <ele>532.6</ele>
        <time>2012-09-07T16:04:00Z</time>
      </trkpt>
      <trkpt lat="45.97038" lon="1.35798">
        <ele>532.4</ele>
        <time>2012-09-07T16:04:01Z</time>
      </trkpt>
      <trkpt lat="45.97034" lon="1.35784">
        <ele>531.6</ele>
        <time>2012-09-07T16:04:04Z</time>
      </trkpt>
      <trkpt lat="45.97028" lon="1.35774">
        <ele>531.2</ele>
        <time>2012-09-07T16:04:06Z</time>
      </trkpt>
      <trkpt lat="45.9701" lon="1.35769">
        <ele>530.4</ele>
        <time>2012-09-07T16:04:10Z</time>
      </trkpt>
      <trkpt lat="45.96993" lon="1.35768">
        <ele>529.6</ele>
        <time>2012-09-07T16:04:13Z</time>
      </trkpt>
      <trkpt lat="45.96981" lon="1.35763">
        <ele>529</ele>
        <time>2012-09-07T16:04:15Z</time>
      </trkpt>
      <trkpt lat="45.96964" lon="1.35748">
        <ele>527.6</ele>
        <time>2012-09-07T16:04:19Z</time>
      </trkpt>
      <trkpt lat="45.96953" lon="1.35732">
        <ele>526.2</ele>
        <time>2012-09-07T16:04:23Z</time>
      </trkpt>
      <trkpt lat="45.96951" lon="1.35725">
        <ele>525.6</ele>
        <time>2012-09-07T16:04:25Z</time>
      </trkpt>
      <trkpt lat="45.96951" lon="1.35722">
        <ele>524.2</ele>
        <time>2012-09-07T16:04:29Z</time>
      </trkpt>
      <trkpt lat="45.96952" lon="1.3572">
        <ele>523.8</ele>
        <time>2012-09-07T16:04:30Z</time>
      </trkpt>
      <trkpt lat="45.96961" lon="1.35711">
        <ele>522.2</ele>
        <time>2012-09-07T16:04:34Z</time>
      </trkpt>
      <trkpt lat="45.96969" lon="1.35695">
        <ele>520.2</ele>
        <time>2012-09-07T16:04:39Z</time>
      </trkpt>
      <trkpt lat="45.96968" lon="1.35692">
        <ele>519.8</ele>
        <time>2012-09-07T16:04:40Z</time>
      </trkpt>
      <trkpt lat="45.96966" lon="1.3569">
        <ele>519</ele>
        <time>2012-09-07T16:04:42Z</time>
      </trkpt>
      <trkpt lat="45.96965" lon="1.3569">
        <ele>517.4</ele>
        <time>2012-09-07T16:04:46Z</time>
      </trkpt>
      <trkpt lat="45.96969" lon="1.35677">
        <ele>507.4</ele>
        <time>2012-09-07T16:05:31Z</time>
      </trkpt>
      <trkpt lat="45.96969" lon="1.35678">
        <ele>506.4</ele>
        <time>2012-09-07T16:05:37Z</time>
      </trkpt>
      <trkpt lat="45.96967" lon="1.35677">
        <ele>505</ele>
        <time>2012-09-07T16:05:45Z</time>
      </trkpt>
      <trkpt lat="45.96964" lon="1.35674">
        <ele>504.8</ele>
        <time>2012-09-07T16:05:47Z</time>
      </trkpt>
      <trkpt lat="45.96952" lon="1.35671">
        <ele>504</ele>
        <time>2012-09-07T16:05:52Z</time>
      </trkpt>
      <trkpt lat="45.96941" lon="1.35665">
        <ele>503.2</ele>
        <time>2012-09-07T16:05:57Z</time>
      </trkpt>
      <trkpt lat="45.96928" lon="1.3564">
        <ele>502.2</ele>
        <time>2012-09-07T16:06:03Z</time>
      </trkpt>
      <trkpt lat="45.96919" lon="1.3561">
        <ele>501.4</ele>
        <time>2012-09-07T16:06:09Z</time>
      </trkpt>
      <trkpt lat="45.96919" lon="1.35593">
        <ele>500.6</ele>
        <time>2012-09-07T16:06:14Z</time>
      </trkpt>
      <trkpt lat="45.96913" lon="1.35574">
        <ele>500.2</ele>
        <time>2012-09-07T16:06:19Z</time>
      </trkpt>
      <trkpt lat="45.96912" lon="1.35555">
        <ele>499.6</ele>
        <time>2012-09-07T16:06:24Z</time>
      </trkpt>
      <trkpt lat="45.96906" lon="1.3553">
        <ele>499</ele>
        <time>2012-09-07T16:06:29Z</time>
      </trkpt>
      <trkpt lat="45.96901" lon="1.35505">
        <ele>498.2</ele>
        <time>2012-09-07T16:06:35Z</time>
      </trkpt>
      <trkpt lat="45.96896" lon="1.35482">
        <ele>497.6</ele>
        <time>2012-09-07T16:06:41Z</time>
      </trkpt>
      <trkpt lat="45.96893" lon="1.3546">
        <ele>497</ele>
        <time>2012-09-07T16:06:47Z</time>
      </trkpt>
      <trkpt lat="45.96889" lon="1.35441">
        <ele>496.4</ele>
        <time>2012-09-07T16:06:52Z</time>
      </trkpt>
      <trkpt lat="45.96883" lon="1.35416">
        <ele>496</ele>
        <time>2012-09-07T16:06:58Z</time>
      </trkpt>
      <trkpt lat="45.96881" lon="1.35412">
        <ele>496</ele>
        <time>2012-09-07T16:06:59Z</time>
      </trkpt>
      <trkpt lat="45.96878" lon="1.35396">
        <ele>495.6</ele>
        <time>2012-09-07T16:07:03Z</time>
      </trkpt>
      <trkpt lat="45.96873" lon="1.3539">
        <ele>495.6</ele>
        <time>2012-09-07T16:07:05Z</time>
      </trkpt>
      <trkpt lat="45.96867" lon="1.35386">
        <ele>495.4</ele>
        <time>2012-09-07T16:07:07Z</time>
      </trkpt>
      <trkpt lat="45.96858" lon="1.35385">
        <ele>494.8</ele>
        <time>2012-09-07T16:07:11Z</time>
      </trkpt>
      <trkpt lat="45.96856" lon="1.35385">
        <ele>494.8</ele>
        <time>2012-09-07T16:07:12Z</time>
      </trkpt>
      <trkpt lat="45.96846" lon="1.35387">
        <ele>494.2</ele>
        <time>2012-09-07T16:07:18Z</time>
      </trkpt>
      <trkpt lat="45.96835" lon="1.35392">
        <ele>493.6</ele>
        <time>2012-09-07T16:07:24Z</time>
      </trkpt>
      <trkpt lat="45.96815" lon="1.354">
        <ele>492.8</ele>
        <time>2012-09-07T16:07:32Z</time>
      </trkpt>
      <trkpt lat="45.968" lon="1.35407">
        <ele>492.2</ele>
        <time>2012-09-07T16:07:39Z</time>
      </trkpt>
      <trkpt lat="45.96783" lon="1.35414">
        <ele>491.8</ele>
        <time>2012-09-07T16:07:46Z</time>
      </trkpt>
      <trkpt lat="45.96767" lon="1.35422">
        <ele>491.6</ele>
        <time>2012-09-07T16:07:51Z</time>
      </trkpt>
      <trkpt lat="45.96749" lon="1.35433">
        <ele>491.6</ele>
        <time>2012-09-07T16:07:55Z</time>
      </trkpt>
      <trkpt lat="45.96739" lon="1.35438">
        <ele>491.6</ele>
        <time>2012-09-07T16:07:57Z</time>
      </trkpt>
      <trkpt lat="45.9672" lon="1.35446">
        <ele>491.6</ele>
        <time>2012-09-07T16:08:01Z</time>
      </trkpt>
      <trkpt lat="45.96716" lon="1.3545">
        <ele>491.6</ele>
        <time>2012-09-07T16:08:02Z</time>
      </trkpt>
      <trkpt lat="45.96701" lon="1.3547">
        <ele>491.8</ele>
        <time>2012-09-07T16:08:06Z</time>
      </trkpt>
      <trkpt lat="45.96699" lon="1.35476">
        <ele>491.8</ele>
        <time>2012-09-07T16:08:07Z</time>
      </trkpt>
      <trkpt lat="45.96688" lon="1.35501">
        <ele>492</ele>
        <time>2012-09-07T16:08:11Z</time>
      </trkpt>
      <trkpt lat="45.96684" lon="1.35507">
        <ele>492</ele>
        <time>2012-09-07T16:08:12Z</time>
      </trkpt>
      <trkpt lat="45.9668" lon="1.35514">
        <ele>492</ele>
        <time>2012-09-07T16:08:13Z</time>
      </trkpt>
      <trkpt lat="45.96664" lon="1.35535">
        <ele>491.8</ele>
        <time>2012-09-07T16:08:16Z</time>
      </trkpt>
      <trkpt lat="45.96644" lon="1.35552">
        <ele>491.6</ele>
        <time>2012-09-07T16:08:19Z</time>
      </trkpt>
      <trkpt lat="45.96637" lon="1.35556">
        <ele>491.6</ele>
        <time>2012-09-07T16:08:20Z</time>
      </trkpt>
      <trkpt lat="45.96631" lon="1.35564">
        <ele>491.6</ele>
        <time>2012-09-07T16:08:21Z</time>
      </trkpt>
      <trkpt lat="45.96618" lon="1.35576">
        <ele>491.4</ele>
        <time>2012-09-07T16:08:23Z</time>
      </trkpt>
      <trkpt lat="45.96613" lon="1.35582">
        <ele>491.2</ele>
        <time>2012-09-07T16:08:24Z</time>
      </trkpt>
      <trkpt lat="45.96592" lon="1.35598">
        <ele>491</ele>
        <time>2012-09-07T16:08:27Z</time>
      </trkpt>
      <trkpt lat="45.96579" lon="1.35612">
        <ele>490.8</ele>
        <time>2012-09-07T16:08:29Z</time>
      </trkpt>
      <trkpt lat="45.96567" lon="1.3562">
        <ele>490.6</ele>
        <time>2012-09-07T16:08:31Z</time>
      </trkpt>
      <trkpt lat="45.96558" lon="1.35621">
        <ele>490.2</ele>
        <time>2012-09-07T16:08:33Z</time>
      </trkpt>
      <trkpt lat="45.9654" lon="1.35609">
        <ele>489.6</ele>
        <time>2012-09-07T16:08:37Z</time>
      </trkpt>
      <trkpt lat="45.96535" lon="1.35605">
        <ele>489.4</ele>
        <time>2012-09-07T16:08:38Z</time>
      </trkpt>
      <trkpt lat="45.96531" lon="1.356">
        <ele>489.2</ele>
        <time>2012-09-07T16:08:39Z</time>
      </trkpt>
      <trkpt lat="45.96525" lon="1.35589">
        <ele>488.8</ele>
        <time>2012-09-07T16:08:41Z</time>
      </trkpt>
      <trkpt lat="45.96516" lon="1.35579">
        <ele>488.2</ele>
        <time>2012-09-07T16:08:43Z</time>
      </trkpt>
      <trkpt lat="45.96497" lon="1.35569">
        <ele>487.6</ele>
        <time>2012-09-07T16:08:46Z</time>
      </trkpt>
      <trkpt lat="45.96485" lon="1.35564">
        <ele>487.2</ele>
        <time>2012-09-07T16:08:48Z</time>
      </trkpt>
      <trkpt lat="45.96468" lon="1.35559">
        <ele>486.6</ele>
        <time>2012-09-07T16:08:51Z</time>
      </trkpt>
      <trkpt lat="45.9645" lon="1.35556">
        <ele>485.8</ele>
        <time>2012-09-07T16:08:54Z</time>
      </trkpt>
      <trkpt lat="45.96431" lon="1.35548">
        <ele>485.2</ele>
        <time>2012-09-07T16:08:57Z</time>
      </trkpt>
      <trkpt lat="45.96415" lon="1.35542">
        <ele>484.4</ele>
        <time>2012-09-07T16:09:00Z</time>
      </trkpt>
      <trkpt lat="45.96409" lon="1.3554">
        <ele>484.2</ele>
        <time>2012-09-07T16:09:01Z</time>
      </trkpt>
      <trkpt lat="45.96397" lon="1.35538">
        <ele>483.6</ele>
        <time>2012-09-07T16:09:03Z</time>
      </trkpt>
      <trkpt lat="45.96387" lon="1.35541">
        <ele>483.2</ele>
        <time>2012-09-07T16:09:05Z</time>
      </trkpt>
      <trkpt lat="45.96377" lon="1.35545">
        <ele>482.6</ele>
        <time>2012-09-07T16:09:07Z</time>
      </trkpt>
      <trkpt lat="45.96367" lon="1.35551">
        <ele>482</ele>
        <time>2012-09-07T16:09:09Z</time>
      </trkpt>
      <trkpt lat="45.96364" lon="1.35558">
        <ele>481.8</ele>
        <time>2012-09-07T16:09:10Z</time>
      </trkpt>
      <trkpt lat="45.9635" lon="1.35576">
        <ele>480.8</ele>
        <time>2012-09-07T16:09:13Z</time>
      </trkpt>
      <trkpt lat="45.96334" lon="1.35598">
        <ele>480</ele>
        <time>2012-09-07T16:09:16Z</time>
      </trkpt>
      <trkpt lat="45.96315" lon="1.35621">
        <ele>479.2</ele>
        <time>2012-09-07T16:09:19Z</time>
      </trkpt>
      <trkpt lat="45.963" lon="1.35631">
        <ele>478.6</ele>
        <time>2012-09-07T16:09:21Z</time>
      </trkpt>
      <trkpt lat="45.96283" lon="1.35643">
        <ele>477.8</ele>
        <time>2012-09-07T16:09:24Z</time>
      </trkpt>
      <trkpt lat="45.96277" lon="1.35643">
        <ele>477.6</ele>
        <time>2012-09-07T16:09:25Z</time>
      </trkpt>
      <trkpt lat="45.96271" lon="1.35643">
        <ele>477.4</ele>
        <time>2012-09-07T16:09:26Z</time>
      </trkpt>
      <trkpt lat="45.96259" lon="1.35645">
        <ele>476.8</ele>
        <time>2012-09-07T16:09:28Z</time>
      </trkpt>
      <trkpt lat="45.96247" lon="1.35651">
        <ele>476.2</ele>
        <time>2012-09-07T16:09:30Z</time>
      </trkpt>
      <trkpt lat="45.9624" lon="1.35653">
        <ele>476</ele>
        <time>2012-09-07T16:09:31Z</time>
      </trkpt>
      <trkpt lat="45.96219" lon="1.35664">
        <ele>475.4</ele>
        <time>2012-09-07T16:09:34Z</time>
      </trkpt>
      <trkpt lat="45.96215" lon="1.35668">
        <ele>475.2</ele>
        <time>2012-09-07T16:09:35Z</time>
      </trkpt>
      <trkpt lat="45.96209" lon="1.35678">
        <ele>475</ele>
        <time>2012-09-07T16:09:37Z</time>
      </trkpt>
      <trkpt lat="45.96204" lon="1.35687">
        <ele>474.6</ele>
        <time>2012-09-07T16:09:39Z</time>
      </trkpt>
      <trkpt lat="45.96196" lon="1.35701">
        <ele>473.8</ele>
        <time>2012-09-07T16:09:43Z</time>
      </trkpt>
      <trkpt lat="45.96193" lon="1.35706">
        <ele>473.6</ele>
        <time>2012-09-07T16:09:44Z</time>
      </trkpt>
      <trkpt lat="45.96176" lon="1.35728">
        <ele>472.8</ele>
        <time>2012-09-07T16:09:48Z</time>
      </trkpt>
      <trkpt lat="45.9617" lon="1.35736">
        <ele>472.6</ele>
        <time>2012-09-07T16:09:49Z</time>
      </trkpt>
      <trkpt lat="45.96163" lon="1.35743">
        <ele>472.4</ele>
        <time>2012-09-07T16:09:50Z</time>
      </trkpt>
      <trkpt lat="45.96148" lon="1.35761">
        <ele>472</ele>
        <time>2012-09-07T16:09:52Z</time>
      </trkpt>
      <trkpt lat="45.96135" lon="1.3578">
        <ele>471.2</ele>
        <time>2012-09-07T16:09:54Z</time>
      </trkpt>
      <trkpt lat="45.96129" lon="1.35789">
        <ele>471</ele>
        <time>2012-09-07T16:09:55Z</time>
      </trkpt>
      <trkpt lat="45.96123" lon="1.35802">
        <ele>470.4</ele>
        <time>2012-09-07T16:09:57Z</time>
      </trkpt>
      <trkpt lat="45.96121" lon="1.35806">
        <ele>470.2</ele>
        <time>2012-09-07T16:09:58Z</time>
      </trkpt>
      <trkpt lat="45.96116" lon="1.35802">
        <ele>469.4</ele>
        <time>2012-09-07T16:10:01Z</time>
      </trkpt>
      <trkpt lat="45.96117" lon="1.3578">
        <ele>468.4</ele>
        <time>2012-09-07T16:10:05Z</time>
      </trkpt>
      <trkpt lat="45.96115" lon="1.35754">
        <ele>467.6</ele>
        <time>2012-09-07T16:10:09Z</time>
      </trkpt>
      <trkpt lat="45.96115" lon="1.35748">
        <ele>467.2</ele>
        <time>2012-09-07T16:10:10Z</time>
      </trkpt>
      <trkpt lat="45.96118" lon="1.35735">
        <ele>466.8</ele>
        <time>2012-09-07T16:10:12Z</time>
      </trkpt>
      <trkpt lat="45.9612" lon="1.35724">
        <ele>466.4</ele>
        <time>2012-09-07T16:10:14Z</time>
      </trkpt>
      <trkpt lat="45.96123" lon="1.35698">
        <ele>465.6</ele>
        <time>2012-09-07T16:10:18Z</time>
      </trkpt>
      <trkpt lat="45.96123" lon="1.3568">
        <ele>465.2</ele>
        <time>2012-09-07T16:10:20Z</time>
      </trkpt>
      <trkpt lat="45.96125" lon="1.35661">
        <ele>465</ele>
        <time>2012-09-07T16:10:22Z</time>
      </trkpt>
      <trkpt lat="45.96129" lon="1.35645">
        <ele>464.4</ele>
        <time>2012-09-07T16:10:24Z</time>
      </trkpt>
      <trkpt lat="45.96137" lon="1.35632">
        <ele>463.8</ele>
        <time>2012-09-07T16:10:26Z</time>
      </trkpt>
      <trkpt lat="45.96145" lon="1.3562">
        <ele>463.2</ele>
        <time>2012-09-07T16:10:28Z</time>
      </trkpt>
      <trkpt lat="45.96153" lon="1.35609">
        <ele>462.6</ele>
        <time>2012-09-07T16:10:30Z</time>
      </trkpt>
      <trkpt lat="45.96153" lon="1.3559">
        <ele>461.6</ele>
        <time>2012-09-07T16:10:33Z</time>
      </trkpt>
      <trkpt lat="45.96149" lon="1.35573">
        <ele>461</ele>
        <time>2012-09-07T16:10:35Z</time>
      </trkpt>
      <trkpt lat="45.96147" lon="1.35565">
        <ele>460.6</ele>
        <time>2012-09-07T16:10:36Z</time>
      </trkpt>
      <trkpt lat="45.96139" lon="1.35539">
        <ele>459.6</ele>
        <time>2012-09-07T16:10:39Z</time>
      </trkpt>
      <trkpt lat="45.96137" lon="1.35531">
        <ele>459.2</ele>
        <time>2012-09-07T16:10:40Z</time>
      </trkpt>
      <trkpt lat="45.96129" lon="1.35515">
        <ele>458.4</ele>
        <time>2012-09-07T16:10:42Z</time>
      </trkpt>
      <trkpt lat="45.96119" lon="1.35499">
        <ele>457.8</ele>
        <time>2012-09-07T16:10:44Z</time>
      </trkpt>
      <trkpt lat="45.96111" lon="1.3548">
        <ele>457.2</ele>
        <time>2012-09-07T16:10:46Z</time>
      </trkpt>
      <trkpt lat="45.96099" lon="1.35448">
        <ele>456</ele>
        <time>2012-09-07T16:10:49Z</time>
      </trkpt>
      <trkpt lat="45.96089" lon="1.35417">
        <ele>454.8</ele>
        <time>2012-09-07T16:10:52Z</time>
      </trkpt>
      <trkpt lat="45.96084" lon="1.35403">
        <ele>454</ele>
        <time>2012-09-07T16:10:54Z</time>
      </trkpt>
      <trkpt lat="45.96081" lon="1.35393">
        <ele>453.4</ele>
        <time>2012-09-07T16:10:56Z</time>
      </trkpt>
      <trkpt lat="45.96076" lon="1.35383">
        <ele>452.6</ele>
        <time>2012-09-07T16:10:58Z</time>
      </trkpt>
      <trkpt lat="45.96058" lon="1.35372">
        <ele>451.2</ele>
        <time>2012-09-07T16:11:01Z</time>
      </trkpt>
      <trkpt lat="45.96039" lon="1.35352">
        <ele>450</ele>
        <time>2012-09-07T16:11:04Z</time>
      </trkpt>
      <trkpt lat="45.96034" lon="1.35344">
        <ele>449.6</ele>
        <time>2012-09-07T16:11:05Z</time>
      </trkpt>
      <trkpt lat="45.9602" lon="1.35316">
        <ele>448.2</ele>
        <time>2012-09-07T16:11:08Z</time>
      </trkpt>
      <trkpt lat="45.96015" lon="1.35305">
        <ele>447.8</ele>
        <time>2012-09-07T16:11:09Z</time>
      </trkpt>
      <trkpt lat="45.96005" lon="1.35283">
        <ele>446.8</ele>
        <time>2012-09-07T16:11:11Z</time>
      </trkpt>
      <trkpt lat="45.95993" lon="1.3525">
        <ele>445.6</ele>
        <time>2012-09-07T16:11:14Z</time>
      </trkpt>
      <trkpt lat="45.95988" lon="1.35239">
        <ele>445.2</ele>
        <time>2012-09-07T16:11:15Z</time>
      </trkpt>
      <trkpt lat="45.95974" lon="1.35209">
        <ele>443.8</ele>
        <time>2012-09-07T16:11:18Z</time>
      </trkpt>
      <trkpt lat="45.95963" lon="1.35177">
        <ele>442.4</ele>
        <time>2012-09-07T16:11:21Z</time>
      </trkpt>
      <trkpt lat="45.95955" lon="1.35158">
        <ele>441.6</ele>
        <time>2012-09-07T16:11:23Z</time>
      </trkpt>
      <trkpt lat="45.95945" lon="1.35141">
        <ele>440.8</ele>
        <time>2012-09-07T16:11:25Z</time>
      </trkpt>
      <trkpt lat="45.95924" lon="1.35128">
        <ele>439.4</ele>
        <time>2012-09-07T16:11:28Z</time>
      </trkpt>
      <trkpt lat="45.95902" lon="1.35113">
        <ele>437.8</ele>
        <time>2012-09-07T16:11:31Z</time>
      </trkpt>
      <trkpt lat="45.95881" lon="1.35099">
        <ele>436.4</ele>
        <time>2012-09-07T16:11:34Z</time>
      </trkpt>
      <trkpt lat="45.95858" lon="1.35088">
        <ele>434.8</ele>
        <time>2012-09-07T16:11:37Z</time>
      </trkpt>
      <trkpt lat="45.95844" lon="1.35079">
        <ele>433.8</ele>
        <time>2012-09-07T16:11:39Z</time>
      </trkpt>
      <trkpt lat="45.95823" lon="1.35066">
        <ele>432.2</ele>
        <time>2012-09-07T16:11:42Z</time>
      </trkpt>
      <trkpt lat="45.95801" lon="1.35057">
        <ele>430.6</ele>
        <time>2012-09-07T16:11:45Z</time>
      </trkpt>
      <trkpt lat="45.95776" lon="1.35054">
        <ele>429</ele>
        <time>2012-09-07T16:11:48Z</time>
      </trkpt>
      <trkpt lat="45.95758" lon="1.35049">
        <ele>428</ele>
        <time>2012-09-07T16:11:50Z</time>
      </trkpt>
      <trkpt lat="45.9574" lon="1.35044">
        <ele>427.2</ele>
        <time>2012-09-07T16:11:52Z</time>
      </trkpt>
      <trkpt lat="45.95717" lon="1.35037">
        <ele>425.8</ele>
        <time>2012-09-07T16:11:55Z</time>
      </trkpt>
      <trkpt lat="45.9571" lon="1.35035">
        <ele>425.2</ele>
        <time>2012-09-07T16:11:56Z</time>
      </trkpt>
      <trkpt lat="45.95688" lon="1.35029">
        <ele>423.6</ele>
        <time>2012-09-07T16:11:59Z</time>
      </trkpt>
      <trkpt lat="45.95681" lon="1.35027">
        <ele>423.2</ele>
        <time>2012-09-07T16:12:00Z</time>
      </trkpt>
      <trkpt lat="45.9566" lon="1.35015">
        <ele>421.8</ele>
        <time>2012-09-07T16:12:03Z</time>
      </trkpt>
      <trkpt lat="45.95649" lon="1.35004">
        <ele>421</ele>
        <time>2012-09-07T16:12:05Z</time>
      </trkpt>
      <trkpt lat="45.95636" lon="1.34985">
        <ele>419.8</ele>
        <time>2012-09-07T16:12:08Z</time>
      </trkpt>
      <trkpt lat="45.95633" lon="1.34979">
        <ele>419.4</ele>
        <time>2012-09-07T16:12:09Z</time>
      </trkpt>
      <trkpt lat="45.95628" lon="1.34973">
        <ele>419</ele>
        <time>2012-09-07T16:12:10Z</time>
      </trkpt>
      <trkpt lat="45.95618" lon="1.34968">
        <ele>418</ele>
        <time>2012-09-07T16:12:13Z</time>
      </trkpt>
      <trkpt lat="45.95611" lon="1.34977">
        <ele>416.8</ele>
        <time>2012-09-07T16:12:17Z</time>
      </trkpt>
      <trkpt lat="45.95609" lon="1.34979">
        <ele>416.4</ele>
        <time>2012-09-07T16:12:18Z</time>
      </trkpt>
      <trkpt lat="45.95598" lon="1.34992">
        <ele>414.8</ele>
        <time>2012-09-07T16:12:23Z</time>
      </trkpt>
      <trkpt lat="45.95583" lon="1.35008">
        <ele>413.2</ele>
        <time>2012-09-07T16:12:28Z</time>
      </trkpt>
      <trkpt lat="45.95565" lon="1.35023">
        <ele>411.4</ele>
        <time>2012-09-07T16:12:34Z</time>
      </trkpt>
      <trkpt lat="45.95546" lon="1.35037">
        <ele>409.6</ele>
        <time>2012-09-07T16:12:40Z</time>
      </trkpt>
      <trkpt lat="45.9553" lon="1.35049">
        <ele>408</ele>
        <time>2012-09-07T16:12:45Z</time>
      </trkpt>
      <trkpt lat="45.95526" lon="1.35051">
        <ele>407.8</ele>
        <time>2012-09-07T16:12:46Z</time>
      </trkpt>
      <trkpt lat="45.95512" lon="1.35053">
        <ele>406.4</ele>
        <time>2012-09-07T16:12:51Z</time>
      </trkpt>
      <trkpt lat="45.95494" lon="1.35055">
        <ele>405.2</ele>
        <time>2012-09-07T16:12:58Z</time>
      </trkpt>
      <trkpt lat="45.95481" lon="1.35051">
        <ele>404.4</ele>
        <time>2012-09-07T16:13:03Z</time>
      </trkpt>
      <trkpt lat="45.95462" lon="1.35046">
        <ele>403.4</ele>
        <time>2012-09-07T16:13:08Z</time>
      </trkpt>
      <trkpt lat="45.95443" lon="1.35038">
        <ele>402.6</ele>
        <time>2012-09-07T16:13:13Z</time>
      </trkpt>
      <trkpt lat="45.95435" lon="1.35034">
        <ele>402.2</ele>
        <time>2012-09-07T16:13:15Z</time>
      </trkpt>
      <trkpt lat="45.95432" lon="1.35035">
        <ele>402</ele>
        <time>2012-09-07T16:13:16Z</time>
      </trkpt>
      <trkpt lat="45.9543" lon="1.35041">
        <ele>401.8</ele>
        <time>2012-09-07T16:13:18Z</time>
      </trkpt>
      <trkpt lat="45.95429" lon="1.35049">
        <ele>401.4</ele>
        <time>2012-09-07T16:13:20Z</time>
      </trkpt>
      <trkpt lat="45.9543" lon="1.35067">
        <ele>400.8</ele>
        <time>2012-09-07T16:13:24Z</time>
      </trkpt>
      <trkpt lat="45.9543" lon="1.35087">
        <ele>400.2</ele>
        <time>2012-09-07T16:13:29Z</time>
      </trkpt>
      <trkpt lat="45.95428" lon="1.35106">
        <ele>399.8</ele>
        <time>2012-09-07T16:13:34Z</time>
      </trkpt>
      <trkpt lat="45.95425" lon="1.35126">
        <ele>399.2</ele>
        <time>2012-09-07T16:13:39Z</time>
      </trkpt>
      <trkpt lat="45.95425" lon="1.35137">
        <ele>399</ele>
        <time>2012-09-07T16:13:42Z</time>
      </trkpt>
      <trkpt lat="45.95426" lon="1.35144">
        <ele>398.8</ele>
        <time>2012-09-07T16:13:44Z</time>
      </trkpt>
      <trkpt lat="45.95425" lon="1.35167">
        <ele>398.4</ele>
        <time>2012-09-07T16:13:49Z</time>
      </trkpt>
      <trkpt lat="45.95423" lon="1.35192">
        <ele>398</ele>
        <time>2012-09-07T16:13:55Z</time>
      </trkpt>
      <trkpt lat="45.95422" lon="1.35196">
        <ele>398</ele>
        <time>2012-09-07T16:13:56Z</time>
      </trkpt>
      <trkpt lat="45.9542" lon="1.3521">
        <ele>397.8</ele>
        <time>2012-09-07T16:13:59Z</time>
      </trkpt>
      <trkpt lat="45.9542" lon="1.35224">
        <ele>397.6</ele>
        <time>2012-09-07T16:14:02Z</time>
      </trkpt>
      <trkpt lat="45.95421" lon="1.35247">
        <ele>397.2</ele>
        <time>2012-09-07T16:14:07Z</time>
      </trkpt>
      <trkpt lat="45.9542" lon="1.35268">
        <ele>397</ele>
        <time>2012-09-07T16:14:12Z</time>
      </trkpt>
      <trkpt lat="45.9542" lon="1.35298">
        <ele>396.6</ele>
        <time>2012-09-07T16:14:19Z</time>
      </trkpt>
      <trkpt lat="45.9542" lon="1.35307">
        <ele>396.6</ele>
        <time>2012-09-07T16:14:21Z</time>
      </trkpt>
      <trkpt lat="45.9542" lon="1.35336">
        <ele>396.2</ele>
        <time>2012-09-07T16:14:28Z</time>
      </trkpt>
      <trkpt lat="45.9542" lon="1.35349">
        <ele>396.2</ele>
        <time>2012-09-07T16:14:31Z</time>
      </trkpt>
      <trkpt lat="45.95419" lon="1.3537">
        <ele>395.8</ele>
        <time>2012-09-07T16:14:38Z</time>
      </trkpt>
      <trkpt lat="45.95416" lon="1.35378">
        <ele>397</ele>
        <time>2012-09-07T16:16:49Z</time>
      </trkpt>
      <trkpt lat="45.95421" lon="1.35394">
        <ele>397</ele>
        <time>2012-09-07T16:16:54Z</time>
      </trkpt>
      <trkpt lat="45.95431" lon="1.35415">
        <ele>397</ele>
        <time>2012-09-07T16:16:59Z</time>
      </trkpt>
      <trkpt lat="45.95433" lon="1.3542">
        <ele>397</ele>
        <time>2012-09-07T16:17:00Z</time>
      </trkpt>
      <trkpt lat="45.95443" lon="1.35443">
        <ele>396.8</ele>
        <time>2012-09-07T16:17:05Z</time>
      </trkpt>
      <trkpt lat="45.95451" lon="1.35461">
        <ele>396.8</ele>
        <time>2012-09-07T16:17:09Z</time>
      </trkpt>
      <trkpt lat="45.95461" lon="1.35484">
        <ele>396.8</ele>
        <time>2012-09-07T16:17:14Z</time>
      </trkpt>
      <trkpt lat="45.95471" lon="1.35506">
        <ele>396.8</ele>
        <time>2012-09-07T16:17:19Z</time>
      </trkpt>
      <trkpt lat="45.95484" lon="1.35527">
        <ele>396.8</ele>
        <time>2012-09-07T16:17:25Z</time>
      </trkpt>
      <trkpt lat="45.95486" lon="1.35531">
        <ele>396.8</ele>
        <time>2012-09-07T16:17:26Z</time>
      </trkpt>
      <trkpt lat="45.95486" lon="1.35536">
        <ele>396.8</ele>
        <time>2012-09-07T16:17:28Z</time>
      </trkpt>
      <trkpt lat="45.95482" lon="1.35542">
        <ele>396.6</ele>
        <time>2012-09-07T16:17:30Z</time>
      </trkpt>
      <trkpt lat="45.95472" lon="1.35544">
        <ele>396.6</ele>
        <time>2012-09-07T16:17:33Z</time>
      </trkpt>
      <trkpt lat="45.95468" lon="1.35545">
        <ele>396.6</ele>
        <time>2012-09-07T16:17:34Z</time>
      </trkpt>
      <trkpt lat="45.95448" lon="1.35554">
        <ele>396.4</ele>
        <time>2012-09-07T16:17:39Z</time>
      </trkpt>
      <trkpt lat="45.95439" lon="1.35558">
        <ele>396.4</ele>
        <time>2012-09-07T16:17:41Z</time>
      </trkpt>
      <trkpt lat="45.95419" lon="1.35568">
        <ele>396.2</ele>
        <time>2012-09-07T16:17:46Z</time>
      </trkpt>
      <trkpt lat="45.95411" lon="1.35572">
        <ele>396</ele>
        <time>2012-09-07T16:17:48Z</time>
      </trkpt>
      <trkpt lat="45.95403" lon="1.35577">
        <ele>395.8</ele>
        <time>2012-09-07T16:17:50Z</time>
      </trkpt>
      <trkpt lat="45.95384" lon="1.3559">
        <ele>395.6</ele>
        <time>2012-09-07T16:17:55Z</time>
      </trkpt>
      <trkpt lat="45.95379" lon="1.35592">
        <ele>395.4</ele>
        <time>2012-09-07T16:17:56Z</time>
      </trkpt>
      <trkpt lat="45.95371" lon="1.35592">
        <ele>395.4</ele>
        <time>2012-09-07T16:17:58Z</time>
      </trkpt>
      <trkpt lat="45.95362" lon="1.35591">
        <ele>395.2</ele>
        <time>2012-09-07T16:18:00Z</time>
      </trkpt>
      <trkpt lat="45.95343" lon="1.35589">
        <ele>394.8</ele>
        <time>2012-09-07T16:18:04Z</time>
      </trkpt>
      <trkpt lat="45.95329" lon="1.35589">
        <ele>394.6</ele>
        <time>2012-09-07T16:18:07Z</time>
      </trkpt>
      <trkpt lat="45.95314" lon="1.35592">
        <ele>394.4</ele>
        <time>2012-09-07T16:18:10Z</time>
      </trkpt>
      <trkpt lat="45.95297" lon="1.35596">
        <ele>394.2</ele>
        <time>2012-09-07T16:18:14Z</time>
      </trkpt>
      <trkpt lat="45.95284" lon="1.35597">
        <ele>394</ele>
        <time>2012-09-07T16:18:17Z</time>
      </trkpt>
      <trkpt lat="45.95265" lon="1.35594">
        <ele>393.8</ele>
        <time>2012-09-07T16:18:21Z</time>
      </trkpt>
      <trkpt lat="45.95259" lon="1.35594">
        <ele>393.8</ele>
        <time>2012-09-07T16:18:22Z</time>
      </trkpt>
      <trkpt lat="45.95241" lon="1.35597">
        <ele>393.4</ele>
        <time>2012-09-07T16:18:25Z</time>
      </trkpt>
      <trkpt lat="45.95234" lon="1.35598">
        <ele>393.4</ele>
        <time>2012-09-07T16:18:26Z</time>
      </trkpt>
      <trkpt lat="45.95215" lon="1.35602">
        <ele>393</ele>
        <time>2012-09-07T16:18:29Z</time>
      </trkpt>
      <trkpt lat="45.95203" lon="1.35605">
        <ele>392.8</ele>
        <time>2012-09-07T16:18:31Z</time>
      </trkpt>
      <trkpt lat="45.95182" lon="1.35614">
        <ele>392.4</ele>
        <time>2012-09-07T16:18:35Z</time>
      </trkpt>
      <trkpt lat="45.95177" lon="1.35616">
        <ele>392.2</ele>
        <time>2012-09-07T16:18:36Z</time>
      </trkpt>
      <trkpt lat="45.9516" lon="1.35626">
        <ele>392</ele>
        <time>2012-09-07T16:18:40Z</time>
      </trkpt>
      <trkpt lat="45.95153" lon="1.3563">
        <ele>391.8</ele>
        <time>2012-09-07T16:18:42Z</time>
      </trkpt>
      <trkpt lat="45.9515" lon="1.35631">
        <ele>391.6</ele>
        <time>2012-09-07T16:18:43Z</time>
      </trkpt>
      <trkpt lat="45.95136" lon="1.35634">
        <ele>391.4</ele>
        <time>2012-09-07T16:18:47Z</time>
      </trkpt>
      <trkpt lat="45.95117" lon="1.35636">
        <ele>391.2</ele>
        <time>2012-09-07T16:18:52Z</time>
      </trkpt>
      <trkpt lat="45.95113" lon="1.35638">
        <ele>391.2</ele>
        <time>2012-09-07T16:18:53Z</time>
      </trkpt>
      <trkpt lat="45.95096" lon="1.35648">
        <ele>391</ele>
        <time>2012-09-07T16:18:57Z</time>
      </trkpt>
      <trkpt lat="45.95091" lon="1.35654">
        <ele>390.8</ele>
        <time>2012-09-07T16:18:58Z</time>
      </trkpt>
      <trkpt lat="45.95079" lon="1.35673">
        <ele>390.6</ele>
        <time>2012-09-07T16:19:01Z</time>
      </trkpt>
      <trkpt lat="45.95066" lon="1.35693">
        <ele>390.4</ele>
        <time>2012-09-07T16:19:04Z</time>
      </trkpt>
      <trkpt lat="45.95057" lon="1.35706">
        <ele>390.2</ele>
        <time>2012-09-07T16:19:06Z</time>
      </trkpt>
      <trkpt lat="45.95041" lon="1.35731">
        <ele>390</ele>
        <time>2012-09-07T16:19:10Z</time>
      </trkpt>
      <trkpt lat="45.95026" lon="1.35754">
        <ele>389.6</ele>
        <time>2012-09-07T16:19:14Z</time>
      </trkpt>
      <trkpt lat="45.9502" lon="1.35764">
        <ele>389.4</ele>
        <time>2012-09-07T16:19:16Z</time>
      </trkpt>
      <trkpt lat="45.95009" lon="1.35784">
        <ele>389</ele>
        <time>2012-09-07T16:19:21Z</time>
      </trkpt>
      <trkpt lat="45.95011" lon="1.35801">
        <ele>388.6</ele>
        <time>2012-09-07T16:19:25Z</time>
      </trkpt>
      <trkpt lat="45.95016" lon="1.35821">
        <ele>388.4</ele>
        <time>2012-09-07T16:19:28Z</time>
      </trkpt>
      <trkpt lat="45.95015" lon="1.35846">
        <ele>388</ele>
        <time>2012-09-07T16:19:31Z</time>
      </trkpt>
      <trkpt lat="45.95013" lon="1.35862">
        <ele>387.8</ele>
        <time>2012-09-07T16:19:33Z</time>
      </trkpt>
      <trkpt lat="45.95012" lon="1.35895">
        <ele>387.4</ele>
        <time>2012-09-07T16:19:37Z</time>
      </trkpt>
      <trkpt lat="45.95009" lon="1.35921">
        <ele>387</ele>
        <time>2012-09-07T16:19:40Z</time>
      </trkpt>
      <trkpt lat="45.95008" lon="1.35947">
        <ele>386.6</ele>
        <time>2012-09-07T16:19:43Z</time>
      </trkpt>
      <trkpt lat="45.95007" lon="1.35963">
        <ele>386.2</ele>
        <time>2012-09-07T16:19:45Z</time>
      </trkpt>
      <trkpt lat="45.95006" lon="1.35979">
        <ele>386</ele>
        <time>2012-09-07T16:19:47Z</time>
      </trkpt>
      <trkpt lat="45.95006" lon="1.36011">
        <ele>385.4</ele>
        <time>2012-09-07T16:19:51Z</time>
      </trkpt>
      <trkpt lat="45.95006" lon="1.3602">
        <ele>385.4</ele>
        <time>2012-09-07T16:19:52Z</time>
      </trkpt>
      <trkpt lat="45.95012" lon="1.36045">
        <ele>385</ele>
        <time>2012-09-07T16:19:55Z</time>
      </trkpt>
      <trkpt lat="45.95015" lon="1.36052">
        <ele>384.8</ele>
        <time>2012-09-07T16:19:56Z</time>
      </trkpt>
      <trkpt lat="45.95019" lon="1.36066">
        <ele>384.6</ele>
        <time>2012-09-07T16:19:58Z</time>
      </trkpt>
      <trkpt lat="45.95026" lon="1.36085">
        <ele>384.2</ele>
        <time>2012-09-07T16:20:01Z</time>
      </trkpt>
      <trkpt lat="45.95033" lon="1.36107">
        <ele>383.6</ele>
        <time>2012-09-07T16:20:05Z</time>
      </trkpt>
      <trkpt lat="45.95039" lon="1.36115">
        <ele>383.2</ele>
        <time>2012-09-07T16:20:07Z</time>
      </trkpt>
      <trkpt lat="45.9505" lon="1.36124">
        <ele>382.8</ele>
        <time>2012-09-07T16:20:10Z</time>
      </trkpt>
      <trkpt lat="45.95056" lon="1.36128">
        <ele>382.6</ele>
        <time>2012-09-07T16:20:12Z</time>
      </trkpt>
      <trkpt lat="45.95073" lon="1.36142">
        <ele>382</ele>
        <time>2012-09-07T16:20:18Z</time>
      </trkpt>
      <trkpt lat="45.95085" lon="1.36152">
        <ele>381.6</ele>
        <time>2012-09-07T16:20:24Z</time>
      </trkpt>
      <trkpt lat="45.95093" lon="1.36155">
        <ele>381.4</ele>
        <time>2012-09-07T16:20:27Z</time>
      </trkpt>
      <trkpt lat="45.95098" lon="1.36158">
        <ele>381.6</ele>
        <time>2012-09-07T16:20:30Z</time>
      </trkpt>
      <trkpt lat="45.95105" lon="1.36163">
        <ele>381.6</ele>
        <time>2012-09-07T16:20:34Z</time>
      </trkpt>
      <trkpt lat="45.95119" lon="1.36171">
        <ele>382.2</ele>
        <time>2012-09-07T16:20:40Z</time>
      </trkpt>
      <trkpt lat="45.95131" lon="1.36181">
        <ele>383</ele>
        <time>2012-09-07T16:20:47Z</time>
      </trkpt>
      <trkpt lat="45.95139" lon="1.3619">
        <ele>383.4</ele>
        <time>2012-09-07T16:20:52Z</time>
      </trkpt>
      <trkpt lat="45.9515" lon="1.36201">
        <ele>383.6</ele>
        <time>2012-09-07T16:20:58Z</time>
      </trkpt>
      <trkpt lat="45.95166" lon="1.36213">
        <ele>383.6</ele>
        <time>2012-09-07T16:21:06Z</time>
      </trkpt>
      <trkpt lat="45.95184" lon="1.36227">
        <ele>383.6</ele>
        <time>2012-09-07T16:21:14Z</time>
      </trkpt>
      <trkpt lat="45.95201" lon="1.36234">
        <ele>383.6</ele>
        <time>2012-09-07T16:21:21Z</time>
      </trkpt>
      <trkpt lat="45.9522" lon="1.36235">
        <ele>383.4</ele>
        <time>2012-09-07T16:21:27Z</time>
      </trkpt>
      <trkpt lat="45.95241" lon="1.36226">
        <ele>383.2</ele>
        <time>2012-09-07T16:21:32Z</time>
      </trkpt>
      <trkpt lat="45.95258" lon="1.36217">
        <ele>383</ele>
        <time>2012-09-07T16:21:37Z</time>
      </trkpt>
      <trkpt lat="45.95262" lon="1.36215">
        <ele>383</ele>
        <time>2012-09-07T16:21:38Z</time>
      </trkpt>
      <trkpt lat="45.95275" lon="1.36209">
        <ele>382.8</ele>
        <time>2012-09-07T16:21:42Z</time>
      </trkpt>
      <trkpt lat="45.95279" lon="1.36207">
        <ele>382.8</ele>
        <time>2012-09-07T16:21:43Z</time>
      </trkpt>
      <trkpt lat="45.95297" lon="1.362">
        <ele>382.4</ele>
        <time>2012-09-07T16:21:49Z</time>
      </trkpt>
      <trkpt lat="45.953" lon="1.36199">
        <ele>382.4</ele>
        <time>2012-09-07T16:21:50Z</time>
      </trkpt>
      <trkpt lat="45.95321" lon="1.36198">
        <ele>382.2</ele>
        <time>2012-09-07T16:21:56Z</time>
      </trkpt>
      <trkpt lat="45.95325" lon="1.36199">
        <ele>382.2</ele>
        <time>2012-09-07T16:21:57Z</time>
      </trkpt>
      <trkpt lat="45.95342" lon="1.36206">
        <ele>382</ele>
        <time>2012-09-07T16:22:01Z</time>
      </trkpt>
      <trkpt lat="45.95351" lon="1.36211">
        <ele>382</ele>
        <time>2012-09-07T16:22:03Z</time>
      </trkpt>
      <trkpt lat="45.95369" lon="1.3622">
        <ele>382</ele>
        <time>2012-09-07T16:22:07Z</time>
      </trkpt>
      <trkpt lat="45.95377" lon="1.36225">
        <ele>381.8</ele>
        <time>2012-09-07T16:22:09Z</time>
      </trkpt>
      <trkpt lat="45.95381" lon="1.36229">
        <ele>381.8</ele>
        <time>2012-09-07T16:22:10Z</time>
      </trkpt>
      <trkpt lat="45.95397" lon="1.36244">
        <ele>381.8</ele>
        <time>2012-09-07T16:22:14Z</time>
      </trkpt>
      <trkpt lat="45.95407" lon="1.36255">
        <ele>381.6</ele>
        <time>2012-09-07T16:22:17Z</time>
      </trkpt>
      <trkpt lat="45.95415" lon="1.36264">
        <ele>381.4</ele>
        <time>2012-09-07T16:22:20Z</time>
      </trkpt>
      <trkpt lat="45.95416" lon="1.36273">
        <ele>381.4</ele>
        <time>2012-09-07T16:22:22Z</time>
      </trkpt>
      <trkpt lat="45.95406" lon="1.36285">
        <ele>381.2</ele>
        <time>2012-09-07T16:22:26Z</time>
      </trkpt>
      <trkpt lat="45.9539" lon="1.36305">
        <ele>381</ele>
        <time>2012-09-07T16:22:31Z</time>
      </trkpt>
      <trkpt lat="45.95387" lon="1.3631">
        <ele>381</ele>
        <time>2012-09-07T16:22:32Z</time>
      </trkpt>
      <trkpt lat="45.95377" lon="1.36323">
        <ele>380.8</ele>
        <time>2012-09-07T16:22:35Z</time>
      </trkpt>
      <trkpt lat="45.95374" lon="1.36327">
        <ele>380.8</ele>
        <time>2012-09-07T16:22:36Z</time>
      </trkpt>
      <trkpt lat="45.9536" lon="1.36346">
        <ele>380.6</ele>
        <time>2012-09-07T16:22:40Z</time>
      </trkpt>
      <trkpt lat="45.95353" lon="1.36355">
        <ele>380.4</ele>
        <time>2012-09-07T16:22:42Z</time>
      </trkpt>
      <trkpt lat="45.9534" lon="1.36375">
        <ele>380.2</ele>
        <time>2012-09-07T16:22:46Z</time>
      </trkpt>
      <trkpt lat="45.95336" lon="1.36379">
        <ele>380</ele>
        <time>2012-09-07T16:22:47Z</time>
      </trkpt>
      <trkpt lat="45.9533" lon="1.36389">
        <ele>379.8</ele>
        <time>2012-09-07T16:22:49Z</time>
      </trkpt>
      <trkpt lat="45.9532" lon="1.3641">
        <ele>379.6</ele>
        <time>2012-09-07T16:22:53Z</time>
      </trkpt>
      <trkpt lat="45.95316" lon="1.36421">
        <ele>379.4</ele>
        <time>2012-09-07T16:22:55Z</time>
      </trkpt>
      <trkpt lat="45.95314" lon="1.36432">
        <ele>379.4</ele>
        <time>2012-09-07T16:22:57Z</time>
      </trkpt>
      <trkpt lat="45.95309" lon="1.36458">
        <ele>379.2</ele>
        <time>2012-09-07T16:23:01Z</time>
      </trkpt>
      <trkpt lat="45.95305" lon="1.36485">
        <ele>379</ele>
        <time>2012-09-07T16:23:05Z</time>
      </trkpt>
      <trkpt lat="45.95299" lon="1.36515">
        <ele>379</ele>
        <time>2012-09-07T16:23:10Z</time>
      </trkpt>
      <trkpt lat="45.95298" lon="1.3652">
        <ele>379</ele>
        <time>2012-09-07T16:23:11Z</time>
      </trkpt>
      <trkpt lat="45.95294" lon="1.36535">
        <ele>379</ele>
        <time>2012-09-07T16:23:14Z</time>
      </trkpt>
      <trkpt lat="45.9529" lon="1.36549">
        <ele>379</ele>
        <time>2012-09-07T16:23:17Z</time>
      </trkpt>
      <trkpt lat="45.95281" lon="1.36571">
        <ele>379</ele>
        <time>2012-09-07T16:23:23Z</time>
      </trkpt>
      <trkpt lat="45.95276" lon="1.36589">
        <ele>379</ele>
        <time>2012-09-07T16:23:29Z</time>
      </trkpt>
      <trkpt lat="45.95273" lon="1.36605">
        <ele>379.6</ele>
        <time>2012-09-07T16:23:36Z</time>
      </trkpt>
      <trkpt lat="45.95276" lon="1.3662">
        <ele>380</ele>
        <time>2012-09-07T16:23:42Z</time>
      </trkpt>
      <trkpt lat="45.95278" lon="1.36628">
        <ele>380.8</ele>
        <time>2012-09-07T16:23:45Z</time>
      </trkpt>
      <trkpt lat="45.95281" lon="1.36631">
        <ele>381</ele>
        <time>2012-09-07T16:23:47Z</time>
      </trkpt>
      <trkpt lat="45.95288" lon="1.36638">
        <ele>381.2</ele>
        <time>2012-09-07T16:23:52Z</time>
      </trkpt>
      <trkpt lat="45.95296" lon="1.36649">
        <ele>381.4</ele>
        <time>2012-09-07T16:23:58Z</time>
      </trkpt>
      <trkpt lat="45.95301" lon="1.36656">
        <ele>381.4</ele>
        <time>2012-09-07T16:24:02Z</time>
      </trkpt>
      <trkpt lat="45.95304" lon="1.36663">
        <ele>381.4</ele>
        <time>2012-09-07T16:24:05Z</time>
      </trkpt>
      <trkpt lat="45.95315" lon="1.36679">
        <ele>381.2</ele>
        <time>2012-09-07T16:24:12Z</time>
      </trkpt>
      <trkpt lat="45.95326" lon="1.36696">
        <ele>381.2</ele>
        <time>2012-09-07T16:24:19Z</time>
      </trkpt>
      <trkpt lat="45.95335" lon="1.36719">
        <ele>380.8</ele>
        <time>2012-09-07T16:24:24Z</time>
      </trkpt>
      <trkpt lat="45.95342" lon="1.36749">
        <ele>380.6</ele>
        <time>2012-09-07T16:24:29Z</time>
      </trkpt>
      <trkpt lat="45.95343" lon="1.36755">
        <ele>380.6</ele>
        <time>2012-09-07T16:24:30Z</time>
      </trkpt>
      <trkpt lat="45.95344" lon="1.36773">
        <ele>380.4</ele>
        <time>2012-09-07T16:24:34Z</time>
      </trkpt>
      <trkpt lat="45.95341" lon="1.36797">
        <ele>380.4</ele>
        <time>2012-09-07T16:24:39Z</time>
      </trkpt>
      <trkpt lat="45.95333" lon="1.36817">
        <ele>380.6</ele>
        <time>2012-09-07T16:24:44Z</time>
      </trkpt>
      <trkpt lat="45.95323" lon="1.36838">
        <ele>381</ele>
        <time>2012-09-07T16:24:50Z</time>
      </trkpt>
      <trkpt lat="45.95311" lon="1.36858">
        <ele>381.4</ele>
        <time>2012-09-07T16:24:56Z</time>
      </trkpt>
      <trkpt lat="45.95304" lon="1.36866">
        <ele>381.4</ele>
        <time>2012-09-07T16:25:00Z</time>
      </trkpt>
      <trkpt lat="45.95292" lon="1.36865">
        <ele>381.6</ele>
        <time>2012-09-07T16:25:06Z</time>
      </trkpt>
      <trkpt lat="45.95284" lon="1.36867">
        <ele>381.4</ele>
        <time>2012-09-07T16:25:11Z</time>
      </trkpt>
      <trkpt lat="45.95265" lon="1.36859">
        <ele>381.8</ele>
        <time>2012-09-07T16:25:17Z</time>
      </trkpt>
      <trkpt lat="45.95249" lon="1.36854">
        <ele>382.6</ele>
        <time>2012-09-07T16:25:22Z</time>
      </trkpt>
      <trkpt lat="45.95237" lon="1.36849">
        <ele>383.4</ele>
        <time>2012-09-07T16:25:26Z</time>
      </trkpt>
      <trkpt lat="45.95222" lon="1.36844">
        <ele>383.6</ele>
        <time>2012-09-07T16:25:31Z</time>
      </trkpt>
      <trkpt lat="45.95206" lon="1.3684">
        <ele>384.8</ele>
        <time>2012-09-07T16:25:36Z</time>
      </trkpt>
      <trkpt lat="45.95191" lon="1.36848">
        <ele>385.8</ele>
        <time>2012-09-07T16:25:41Z</time>
      </trkpt>
      <trkpt lat="45.95179" lon="1.36864">
        <ele>386.4</ele>
        <time>2012-09-07T16:25:46Z</time>
      </trkpt>
      <trkpt lat="45.95169" lon="1.36885">
        <ele>387.2</ele>
        <time>2012-09-07T16:25:52Z</time>
      </trkpt>
      <trkpt lat="45.95161" lon="1.36898">
        <ele>388.4</ele>
        <time>2012-09-07T16:25:57Z</time>
      </trkpt>
      <trkpt lat="45.95155" lon="1.36915">
        <ele>390</ele>
        <time>2012-09-07T16:26:02Z</time>
      </trkpt>
      <trkpt lat="45.95156" lon="1.36932">
        <ele>391</ele>
        <time>2012-09-07T16:26:06Z</time>
      </trkpt>
      <trkpt lat="45.95154" lon="1.3696">
        <ele>391.8</ele>
        <time>2012-09-07T16:26:11Z</time>
      </trkpt>
      <trkpt lat="45.95153" lon="1.36984">
        <ele>392.2</ele>
        <time>2012-09-07T16:26:15Z</time>
      </trkpt>
      <trkpt lat="45.95154" lon="1.3701">
        <ele>392.8</ele>
        <time>2012-09-07T16:26:20Z</time>
      </trkpt>
      <trkpt lat="45.95155" lon="1.37015">
        <ele>392.8</ele>
        <time>2012-09-07T16:26:21Z</time>
      </trkpt>
      <trkpt lat="45.95151" lon="1.37031">
        <ele>392.6</ele>
        <time>2012-09-07T16:26:25Z</time>
      </trkpt>
      <trkpt lat="45.95141" lon="1.37051">
        <ele>392.8</ele>
        <time>2012-09-07T16:26:30Z</time>
      </trkpt>
      <trkpt lat="45.95133" lon="1.37077">
        <ele>393.6</ele>
        <time>2012-09-07T16:26:36Z</time>
      </trkpt>
      <trkpt lat="45.95125" lon="1.37101">
        <ele>395.4</ele>
        <time>2012-09-07T16:26:43Z</time>
      </trkpt>
      <trkpt lat="45.9512" lon="1.37117">
        <ele>397.4</ele>
        <time>2012-09-07T16:26:49Z</time>
      </trkpt>
      <trkpt lat="45.95119" lon="1.37121">
        <ele>397.6</ele>
        <time>2012-09-07T16:26:50Z</time>
      </trkpt>
      <trkpt lat="45.95118" lon="1.37135">
        <ele>399</ele>
        <time>2012-09-07T16:26:54Z</time>
      </trkpt>
      <trkpt lat="45.9512" lon="1.37153">
        <ele>400.8</ele>
        <time>2012-09-07T16:27:01Z</time>
      </trkpt>
      <trkpt lat="45.95122" lon="1.37168">
        <ele>401.8</ele>
        <time>2012-09-07T16:27:07Z</time>
      </trkpt>
      <trkpt lat="45.95123" lon="1.37171">
        <ele>401.8</ele>
        <time>2012-09-07T16:27:08Z</time>
      </trkpt>
      <trkpt lat="45.95127" lon="1.37181">
        <ele>402.4</ele>
        <time>2012-09-07T16:27:12Z</time>
      </trkpt>
      <trkpt lat="45.95129" lon="1.37185">
        <ele>402.4</ele>
        <time>2012-09-07T16:27:14Z</time>
      </trkpt>
      <trkpt lat="45.95131" lon="1.37196">
        <ele>402.2</ele>
        <time>2012-09-07T16:27:18Z</time>
      </trkpt>
      <trkpt lat="45.95131" lon="1.37198">
        <ele>402.2</ele>
        <time>2012-09-07T16:27:19Z</time>
      </trkpt>
      <trkpt lat="45.9513" lon="1.37213">
        <ele>402.2</ele>
        <time>2012-09-07T16:27:24Z</time>
      </trkpt>
      <trkpt lat="45.9513" lon="1.37217">
        <ele>402.2</ele>
        <time>2012-09-07T16:27:26Z</time>
      </trkpt>
      <trkpt lat="45.95129" lon="1.37224">
        <ele>402.2</ele>
        <time>2012-09-07T16:27:29Z</time>
      </trkpt>
      <trkpt lat="45.95126" lon="1.37237">
        <ele>402.2</ele>
        <time>2012-09-07T16:27:35Z</time>
      </trkpt>
      <trkpt lat="45.95125" lon="1.37238">
        <ele>402.2</ele>
        <time>2012-09-07T16:27:36Z</time>
      </trkpt>
      <trkpt lat="45.95119" lon="1.37249">
        <ele>402.2</ele>
        <time>2012-09-07T16:27:41Z</time>
      </trkpt>
      <trkpt lat="45.95119" lon="1.37252">
        <ele>402.2</ele>
        <time>2012-09-07T16:27:42Z</time>
      </trkpt>
      <trkpt lat="45.95115" lon="1.37255">
        <ele>402.6</ele>
        <time>2012-09-07T16:27:45Z</time>
      </trkpt>
      <trkpt lat="45.95113" lon="1.37258">
        <ele>402.8</ele>
        <time>2012-09-07T16:27:47Z</time>
      </trkpt>
      <trkpt lat="45.95109" lon="1.37267">
        <ele>403.2</ele>
        <time>2012-09-07T16:27:52Z</time>
      </trkpt>
      <trkpt lat="45.95106" lon="1.37272">
        <ele>403.4</ele>
        <time>2012-09-07T16:27:55Z</time>
      </trkpt>
      <trkpt lat="45.95106" lon="1.37277">
        <ele>403.8</ele>
        <time>2012-09-07T16:27:58Z</time>
      </trkpt>
      <trkpt lat="45.95106" lon="1.37291">
        <ele>404.6</ele>
        <time>2012-09-07T16:28:04Z</time>
      </trkpt>
      <trkpt lat="45.95108" lon="1.37307">
        <ele>405.4</ele>
        <time>2012-09-07T16:28:09Z</time>
      </trkpt>
      <trkpt lat="45.9511" lon="1.37326">
        <ele>406</ele>
        <time>2012-09-07T16:28:14Z</time>
      </trkpt>
      <trkpt lat="45.95109" lon="1.37349">
        <ele>407</ele>
        <time>2012-09-07T16:28:20Z</time>
      </trkpt>
      <trkpt lat="45.95104" lon="1.3737">
        <ele>408</ele>
        <time>2012-09-07T16:28:26Z</time>
      </trkpt>
      <trkpt lat="45.951" lon="1.37391">
        <ele>409</ele>
        <time>2012-09-07T16:28:31Z</time>
      </trkpt>
      <trkpt lat="45.95099" lon="1.37411">
        <ele>409.6</ele>
        <time>2012-09-07T16:28:35Z</time>
      </trkpt>
      <trkpt lat="45.95094" lon="1.37442">
        <ele>410.6</ele>
        <time>2012-09-07T16:28:40Z</time>
      </trkpt>
      <trkpt lat="45.95092" lon="1.37467">
        <ele>411.2</ele>
        <time>2012-09-07T16:28:45Z</time>
      </trkpt>
      <trkpt lat="45.951" lon="1.3749">
        <ele>411.6</ele>
        <time>2012-09-07T16:28:50Z</time>
      </trkpt>
      <trkpt lat="45.9511" lon="1.3751">
        <ele>411.8</ele>
        <time>2012-09-07T16:28:54Z</time>
      </trkpt>
      <trkpt lat="45.95127" lon="1.37527">
        <ele>411.8</ele>
        <time>2012-09-07T16:28:59Z</time>
      </trkpt>
      <trkpt lat="45.9514" lon="1.37534">
        <ele>412</ele>
        <time>2012-09-07T16:29:02Z</time>
      </trkpt>
      <trkpt lat="45.95148" lon="1.37539">
        <ele>412</ele>
        <time>2012-09-07T16:29:04Z</time>
      </trkpt>
      <trkpt lat="45.95163" lon="1.3755">
        <ele>411.8</ele>
        <time>2012-09-07T16:29:08Z</time>
      </trkpt>
      <trkpt lat="45.95166" lon="1.37553">
        <ele>411.8</ele>
        <time>2012-09-07T16:29:09Z</time>
      </trkpt>
      <trkpt lat="45.95179" lon="1.37563">
        <ele>411.8</ele>
        <time>2012-09-07T16:29:13Z</time>
      </trkpt>
      <trkpt lat="45.95182" lon="1.37565">
        <ele>411.8</ele>
        <time>2012-09-07T16:29:14Z</time>
      </trkpt>
      <trkpt lat="45.952" lon="1.37573">
        <ele>411.6</ele>
        <time>2012-09-07T16:29:20Z</time>
      </trkpt>
      <trkpt lat="45.95204" lon="1.37574">
        <ele>411.6</ele>
        <time>2012-09-07T16:29:21Z</time>
      </trkpt>
      <trkpt lat="45.95223" lon="1.37583">
        <ele>411.4</ele>
        <time>2012-09-07T16:29:27Z</time>
      </trkpt>
      <trkpt lat="45.95226" lon="1.37586">
        <ele>411.4</ele>
        <time>2012-09-07T16:29:28Z</time>
      </trkpt>
      <trkpt lat="45.95243" lon="1.37608">
        <ele>411.4</ele>
        <time>2012-09-07T16:29:33Z</time>
      </trkpt>
      <trkpt lat="45.95247" lon="1.37613">
        <ele>411.4</ele>
        <time>2012-09-07T16:29:34Z</time>
      </trkpt>
      <trkpt lat="45.95259" lon="1.37633">
        <ele>411.4</ele>
        <time>2012-09-07T16:29:38Z</time>
      </trkpt>
      <trkpt lat="45.9527" lon="1.37654">
        <ele>411.4</ele>
        <time>2012-09-07T16:29:42Z</time>
      </trkpt>
      <trkpt lat="45.95281" lon="1.37678">
        <ele>411.4</ele>
        <time>2012-09-07T16:29:47Z</time>
      </trkpt>
      <trkpt lat="45.95285" lon="1.37688">
        <ele>411.4</ele>
        <time>2012-09-07T16:29:49Z</time>
      </trkpt>
      <trkpt lat="45.95286" lon="1.37693">
        <ele>411.4</ele>
        <time>2012-09-07T16:29:50Z</time>
      </trkpt>
      <trkpt lat="45.95287" lon="1.37715">
        <ele>411.4</ele>
        <time>2012-09-07T16:29:54Z</time>
      </trkpt>
      <trkpt lat="45.95286" lon="1.3772">
        <ele>411.2</ele>
        <time>2012-09-07T16:29:55Z</time>
      </trkpt>
      <trkpt lat="45.95285" lon="1.37748">
        <ele>411.2</ele>
        <time>2012-09-07T16:29:59Z</time>
      </trkpt>
      <trkpt lat="45.95285" lon="1.37755">
        <ele>411.2</ele>
        <time>2012-09-07T16:30:00Z</time>
      </trkpt>
      <trkpt lat="45.95284" lon="1.37785">
        <ele>411.2</ele>
        <time>2012-09-07T16:30:04Z</time>
      </trkpt>
      <trkpt lat="45.95285" lon="1.37807">
        <ele>411.2</ele>
        <time>2012-09-07T16:30:07Z</time>
      </trkpt>
      <trkpt lat="45.95288" lon="1.37836">
        <ele>411.2</ele>
        <time>2012-09-07T16:30:11Z</time>
      </trkpt>
      <trkpt lat="45.95292" lon="1.37865">
        <ele>411.2</ele>
        <time>2012-09-07T16:30:15Z</time>
      </trkpt>
      <trkpt lat="45.95293" lon="1.37872">
        <ele>411.2</ele>
        <time>2012-09-07T16:30:16Z</time>
      </trkpt>
      <trkpt lat="45.95298" lon="1.379">
        <ele>411.2</ele>
        <time>2012-09-07T16:30:20Z</time>
      </trkpt>
      <trkpt lat="45.95301" lon="1.37912">
        <ele>411.2</ele>
        <time>2012-09-07T16:30:22Z</time>
      </trkpt>
      <trkpt lat="45.95303" lon="1.37924">
        <ele>411.2</ele>
        <time>2012-09-07T16:30:24Z</time>
      </trkpt>
      <trkpt lat="45.95309" lon="1.37949">
        <ele>411.2</ele>
        <time>2012-09-07T16:30:28Z</time>
      </trkpt>
      <trkpt lat="45.95311" lon="1.37955">
        <ele>411.2</ele>
        <time>2012-09-07T16:30:29Z</time>
      </trkpt>
      <trkpt lat="45.95313" lon="1.37967">
        <ele>411</ele>
        <time>2012-09-07T16:30:31Z</time>
      </trkpt>
      <trkpt lat="45.95314" lon="1.37979">
        <ele>411</ele>
        <time>2012-09-07T16:30:33Z</time>
      </trkpt>
      <trkpt lat="45.95315" lon="1.38006">
        <ele>411</ele>
        <time>2012-09-07T16:30:38Z</time>
      </trkpt>
      <trkpt lat="45.95315" lon="1.38011">
        <ele>411</ele>
        <time>2012-09-07T16:30:39Z</time>
      </trkpt>
      <trkpt lat="45.95317" lon="1.38038">
        <ele>411</ele>
        <time>2012-09-07T16:30:44Z</time>
      </trkpt>
      <trkpt lat="45.95319" lon="1.38068">
        <ele>410.8</ele>
        <time>2012-09-07T16:30:50Z</time>
      </trkpt>
      <trkpt lat="45.95322" lon="1.38094">
        <ele>410.8</ele>
        <time>2012-09-07T16:30:56Z</time>
      </trkpt>
      <trkpt lat="45.95323" lon="1.38103">
        <ele>410.8</ele>
        <time>2012-09-07T16:30:58Z</time>
      </trkpt>
      <trkpt lat="45.95325" lon="1.38131">
        <ele>410.6</ele>
        <time>2012-09-07T16:31:04Z</time>
      </trkpt>
      <trkpt lat="45.95322" lon="1.38153">
        <ele>410.6</ele>
        <time>2012-09-07T16:31:09Z</time>
      </trkpt>
      <trkpt lat="45.95318" lon="1.38178">
        <ele>410.4</ele>
        <time>2012-09-07T16:31:14Z</time>
      </trkpt>
      <trkpt lat="45.95319" lon="1.38208">
        <ele>410.2</ele>
        <time>2012-09-07T16:31:20Z</time>
      </trkpt>
      <trkpt lat="45.9532" lon="1.38218">
        <ele>410.2</ele>
        <time>2012-09-07T16:31:22Z</time>
      </trkpt>
      <trkpt lat="45.95321" lon="1.38246">
        <ele>410.2</ele>
        <time>2012-09-07T16:31:28Z</time>
      </trkpt>
      <trkpt lat="45.95322" lon="1.38255">
        <ele>410.2</ele>
        <time>2012-09-07T16:31:30Z</time>
      </trkpt>
      <trkpt lat="45.95327" lon="1.38281">
        <ele>410.2</ele>
        <time>2012-09-07T16:31:36Z</time>
      </trkpt>
      <trkpt lat="45.95339" lon="1.38307">
        <ele>410</ele>
        <time>2012-09-07T16:31:40Z</time>
      </trkpt>
      <trkpt lat="45.95342" lon="1.38314">
        <ele>410</ele>
        <time>2012-09-07T16:31:41Z</time>
      </trkpt>
      <trkpt lat="45.95351" lon="1.38336">
        <ele>409.8</ele>
        <time>2012-09-07T16:31:44Z</time>
      </trkpt>
      <trkpt lat="45.95355" lon="1.38354">
        <ele>409.6</ele>
        <time>2012-09-07T16:31:46Z</time>
      </trkpt>
      <trkpt lat="45.9536" lon="1.38379">
        <ele>409.2</ele>
        <time>2012-09-07T16:31:49Z</time>
      </trkpt>
      <trkpt lat="45.95363" lon="1.38413">
        <ele>408.8</ele>
        <time>2012-09-07T16:31:53Z</time>
      </trkpt>
      <trkpt lat="45.95363" lon="1.38419">
        <ele>408.8</ele>
        <time>2012-09-07T16:31:54Z</time>
      </trkpt>
      <trkpt lat="45.95366" lon="1.38432">
        <ele>408.4</ele>
        <time>2012-09-07T16:31:57Z</time>
      </trkpt>
      <trkpt lat="45.95366" lon="1.38432">
        <ele>408.4</ele>
        <time>2012-09-07T16:31:58Z</time>
      </trkpt>
      <trkpt lat="45.95365" lon="1.38432">
        <ele>408.2</ele>
        <time>2012-09-07T16:32:01Z</time>
      </trkpt>
      <trkpt lat="45.95366" lon="1.38436">
        <ele>407.6</ele>
        <time>2012-09-07T16:32:07Z</time>
      </trkpt>
      <trkpt lat="45.95369" lon="1.38439">
        <ele>407.2</ele>
        <time>2012-09-07T16:32:12Z</time>
      </trkpt>
      <trkpt lat="45.9537" lon="1.38439">
        <ele>407</ele>
        <time>2012-09-07T16:32:14Z</time>
      </trkpt>
      <trkpt lat="45.95374" lon="1.38441">
        <ele>406.6</ele>
        <time>2012-09-07T16:32:18Z</time>
      </trkpt>
      <trkpt lat="45.95378" lon="1.38442">
        <ele>406.2</ele>
        <time>2012-09-07T16:32:23Z</time>
      </trkpt>
      <trkpt lat="45.95378" lon="1.38442">
        <ele>406.2</ele>
        <time>2012-09-07T16:32:24Z</time>
      </trkpt>
      <trkpt lat="45.95381" lon="1.38442">
        <ele>406</ele>
        <time>2012-09-07T16:32:27Z</time>
      </trkpt>
      <trkpt lat="45.95384" lon="1.38441">
        <ele>405.6</ele>
        <time>2012-09-07T16:32:30Z</time>
      </trkpt>
      <trkpt lat="45.95386" lon="1.38441">
        <ele>405.6</ele>
        <time>2012-09-07T16:32:32Z</time>
      </trkpt>
      <trkpt lat="45.95388" lon="1.38442">
        <ele>405.4</ele>
        <time>2012-09-07T16:32:34Z</time>
      </trkpt>
      <trkpt lat="45.95389" lon="1.38443">
        <ele>405.2</ele>
        <time>2012-09-07T16:32:35Z</time>
      </trkpt>
      <trkpt lat="45.95391" lon="1.38444">
        <ele>405</ele>
        <time>2012-09-07T16:32:37Z</time>
      </trkpt>
      <trkpt lat="45.95397" lon="1.38443">
        <ele>404.6</ele>
        <time>2012-09-07T16:32:41Z</time>
      </trkpt>
      <trkpt lat="45.95398" lon="1.38443">
        <ele>404.6</ele>
        <time>2012-09-07T16:32:42Z</time>
      </trkpt>
      <trkpt lat="45.95404" lon="1.38444">
        <ele>404</ele>
        <time>2012-09-07T16:32:48Z</time>
      </trkpt>
      <trkpt lat="45.95411" lon="1.38444">
        <ele>403.6</ele>
        <time>2012-09-07T16:32:53Z</time>
      </trkpt>
      <trkpt lat="45.95414" lon="1.38445">
        <ele>403.4</ele>
        <time>2012-09-07T16:32:55Z</time>
      </trkpt>
      <trkpt lat="45.95417" lon="1.38445">
        <ele>403.4</ele>
        <time>2012-09-07T16:32:57Z</time>
      </trkpt>
      <trkpt lat="45.95421" lon="1.38447">
        <ele>403.4</ele>
        <time>2012-09-07T16:33:01Z</time>
      </trkpt>
      <trkpt lat="45.95422" lon="1.38447">
        <ele>403.4</ele>
        <time>2012-09-07T16:33:02Z</time>
      </trkpt>
      <trkpt lat="45.95424" lon="1.38449">
        <ele>403.4</ele>
        <time>2012-09-07T16:33:05Z</time>
      </trkpt>
      <trkpt lat="45.95426" lon="1.38449">
        <ele>403.4</ele>
        <time>2012-09-07T16:33:07Z</time>
      </trkpt>
      <trkpt lat="45.95431" lon="1.38452">
        <ele>403.4</ele>
        <time>2012-09-07T16:33:12Z</time>
      </trkpt>
      <trkpt lat="45.95434" lon="1.3846">
        <ele>403.4</ele>
        <time>2012-09-07T16:33:19Z</time>
      </trkpt>
      <trkpt lat="45.95435" lon="1.38462">
        <ele>403.4</ele>
        <time>2012-09-07T16:33:20Z</time>
      </trkpt>
      <trkpt lat="45.95441" lon="1.38468">
        <ele>403.2</ele>
        <time>2012-09-07T16:33:24Z</time>
      </trkpt>
      <trkpt lat="45.95442" lon="1.3847">
        <ele>403</ele>
        <time>2012-09-07T16:33:25Z</time>
      </trkpt>
      <trkpt lat="45.95443" lon="1.38479">
        <ele>403</ele>
        <time>2012-09-07T16:33:29Z</time>
      </trkpt>
      <trkpt lat="45.95446" lon="1.38487">
        <ele>402.6</ele>
        <time>2012-09-07T16:33:33Z</time>
      </trkpt>
      <trkpt lat="45.95447" lon="1.38489">
        <ele>402.4</ele>
        <time>2012-09-07T16:33:34Z</time>
      </trkpt>
      <trkpt lat="45.9545" lon="1.385">
        <ele>402</ele>
        <time>2012-09-07T16:33:40Z</time>
      </trkpt>
      <trkpt lat="45.95451" lon="1.38503">
        <ele>401.8</ele>
        <time>2012-09-07T16:33:43Z</time>
      </trkpt>
      <trkpt lat="45.95452" lon="1.38503">
        <ele>401.6</ele>
        <time>2012-09-07T16:33:46Z</time>
      </trkpt>
      <trkpt lat="45.95459" lon="1.38505">
        <ele>401.4</ele>
        <time>2012-09-07T16:33:52Z</time>
      </trkpt>
      <trkpt lat="45.95462" lon="1.38506">
        <ele>401.2</ele>
        <time>2012-09-07T16:33:57Z</time>
      </trkpt>
      <trkpt lat="45.95469" lon="1.38509">
        <ele>401</ele>
        <time>2012-09-07T16:34:04Z</time>
      </trkpt>
      <trkpt lat="45.9547" lon="1.38509">
        <ele>401</ele>
        <time>2012-09-07T16:34:05Z</time>
      </trkpt>
      <trkpt lat="45.95478" lon="1.38512">
        <ele>400.8</ele>
        <time>2012-09-07T16:34:11Z</time>
      </trkpt>
      <trkpt lat="45.95479" lon="1.38519">
        <ele>400.8</ele>
        <time>2012-09-07T16:34:16Z</time>
      </trkpt>
      <trkpt lat="45.95479" lon="1.38523">
        <ele>400.8</ele>
        <time>2012-09-07T16:34:18Z</time>
      </trkpt>
      <trkpt lat="45.95479" lon="1.38524">
        <ele>400.8</ele>
        <time>2012-09-07T16:34:22Z</time>
      </trkpt>
      <trkpt lat="45.95479" lon="1.38531">
        <ele>400.6</ele>
        <time>2012-09-07T16:34:26Z</time>
      </trkpt>
      <trkpt lat="45.9548" lon="1.38549">
        <ele>400.4</ele>
        <time>2012-09-07T16:34:34Z</time>
      </trkpt>
      <trkpt lat="45.9548" lon="1.38565">
        <ele>400.2</ele>
        <time>2012-09-07T16:34:41Z</time>
      </trkpt>
      <trkpt lat="45.95476" lon="1.3858">
        <ele>400.2</ele>
        <time>2012-09-07T16:34:47Z</time>
      </trkpt>
      <trkpt lat="45.95467" lon="1.38596">
        <ele>400</ele>
        <time>2012-09-07T16:34:52Z</time>
      </trkpt>
      <trkpt lat="45.95464" lon="1.38606">
        <ele>399.8</ele>
        <time>2012-09-07T16:34:56Z</time>
      </trkpt>
      <trkpt lat="45.95462" lon="1.38613">
        <ele>399.2</ele>
        <time>2012-09-07T16:35:02Z</time>
      </trkpt>
      <trkpt lat="45.95462" lon="1.38626">
        <ele>398.8</ele>
        <time>2012-09-07T16:35:09Z</time>
      </trkpt>
      <trkpt lat="45.95465" lon="1.38638">
        <ele>398.4</ele>
        <time>2012-09-07T16:35:17Z</time>
      </trkpt>
      <trkpt lat="45.95466" lon="1.38649">
        <ele>398</ele>
        <time>2012-09-07T16:35:23Z</time>
      </trkpt>
      <trkpt lat="45.95466" lon="1.38651">
        <ele>398</ele>
        <time>2012-09-07T16:35:25Z</time>
      </trkpt>
      <trkpt lat="45.95465" lon="1.38659">
        <ele>398</ele>
        <time>2012-09-07T16:35:31Z</time>
      </trkpt>
      <trkpt lat="45.95464" lon="1.3866">
        <ele>397.8</ele>
        <time>2012-09-07T16:35:32Z</time>
      </trkpt>
      <trkpt lat="45.95463" lon="1.38663">
        <ele>397.8</ele>
        <time>2012-09-07T16:35:38Z</time>
      </trkpt>
      <trkpt lat="45.95462" lon="1.38667">
        <ele>398.2</ele>
        <time>2012-09-07T16:35:45Z</time>
      </trkpt>
      <trkpt lat="45.95461" lon="1.38672">
        <ele>398.8</ele>
        <time>2012-09-07T16:35:52Z</time>
      </trkpt>
      <trkpt lat="45.95458" lon="1.38679">
        <ele>399.8</ele>
        <time>2012-09-07T16:36:00Z</time>
      </trkpt>
      <trkpt lat="45.95459" lon="1.38687">
        <ele>400.2</ele>
        <time>2012-09-07T16:36:06Z</time>
      </trkpt>
      <trkpt lat="45.9546" lon="1.38689">
        <ele>400.8</ele>
        <time>2012-09-07T16:36:13Z</time>
      </trkpt>
      <trkpt lat="45.95462" lon="1.38694">
        <ele>402</ele>
        <time>2012-09-07T16:36:24Z</time>
      </trkpt>
      <trkpt lat="45.95464" lon="1.38697">
        <ele>402</ele>
        <time>2012-09-07T16:36:26Z</time>
      </trkpt>
      <trkpt lat="45.95479" lon="1.3871">
        <ele>402</ele>
        <time>2012-09-07T16:36:33Z</time>
      </trkpt>
      <trkpt lat="45.9549" lon="1.38718">
        <ele>402</ele>
        <time>2012-09-07T16:36:37Z</time>
      </trkpt>
      <trkpt lat="45.95494" lon="1.38722">
        <ele>402</ele>
        <time>2012-09-07T16:36:40Z</time>
      </trkpt>
      <trkpt lat="45.95496" lon="1.38721">
        <ele>402</ele>
        <time>2012-09-07T16:36:41Z</time>
      </trkpt>
      <trkpt lat="45.95505" lon="1.38712">
        <ele>402</ele>
        <time>2012-09-07T16:36:46Z</time>
      </trkpt>
      <trkpt lat="45.95512" lon="1.38716">
        <ele>401.8</ele>
        <time>2012-09-07T16:36:50Z</time>
      </trkpt>
      <trkpt lat="45.95514" lon="1.38717">
        <ele>401.8</ele>
        <time>2012-09-07T16:36:51Z</time>
      </trkpt>
      <trkpt lat="45.95526" lon="1.38719">
        <ele>401.8</ele>
        <time>2012-09-07T16:36:56Z</time>
      </trkpt>
      <trkpt lat="45.95545" lon="1.38717">
        <ele>402.2</ele>
        <time>2012-09-07T16:37:02Z</time>
      </trkpt>
      <trkpt lat="45.95551" lon="1.38715">
        <ele>402.6</ele>
        <time>2012-09-07T16:37:07Z</time>
      </trkpt>
      <trkpt lat="45.95562" lon="1.38711">
        <ele>403.2</ele>
        <time>2012-09-07T16:37:12Z</time>
      </trkpt>
      <trkpt lat="45.95569" lon="1.38706">
        <ele>403.4</ele>
        <time>2012-09-07T16:37:16Z</time>
      </trkpt>
      <trkpt lat="45.95573" lon="1.38706">
        <ele>403.6</ele>
        <time>2012-09-07T16:37:18Z</time>
      </trkpt>
      <trkpt lat="45.95574" lon="1.38707">
        <ele>403.8</ele>
        <time>2012-09-07T16:37:20Z</time>
      </trkpt>
      <trkpt lat="45.95575" lon="1.38709">
        <ele>403.6</ele>
        <time>2012-09-07T16:37:24Z</time>
      </trkpt>
      <trkpt lat="45.95576" lon="1.38709">
        <ele>403.8</ele>
        <time>2012-09-07T16:37:26Z</time>
      </trkpt>
      <trkpt lat="45.95576" lon="1.38709">
        <ele>403.8</ele>
        <time>2012-09-07T16:37:29Z</time>
      </trkpt>
      <trkpt lat="45.95578" lon="1.38704">
        <ele>407.6</ele>
        <time>2012-09-07T16:38:39Z</time>
      </trkpt>
      <trkpt lat="45.9558" lon="1.38702">
        <ele>407.6</ele>
        <time>2012-09-07T16:38:40Z</time>
      </trkpt>
      <trkpt lat="45.95588" lon="1.387">
        <ele>408.2</ele>
        <time>2012-09-07T16:38:44Z</time>
      </trkpt>
      <trkpt lat="45.95589" lon="1.38701">
        <ele>408</ele>
        <time>2012-09-07T16:38:45Z</time>
      </trkpt>
      <trkpt lat="45.95595" lon="1.38701">
        <ele>408</ele>
        <time>2012-09-07T16:38:50Z</time>
      </trkpt>
      <trkpt lat="45.956" lon="1.38697">
        <ele>408</ele>
        <time>2012-09-07T16:38:54Z</time>
      </trkpt>
      <trkpt lat="45.95601" lon="1.38697">
        <ele>408</ele>
        <time>2012-09-07T16:38:55Z</time>
      </trkpt>
      <trkpt lat="45.95606" lon="1.38691">
        <ele>407.8</ele>
        <time>2012-09-07T16:39:01Z</time>
      </trkpt>
      <trkpt lat="45.95606" lon="1.3869">
        <ele>407.8</ele>
        <time>2012-09-07T16:39:02Z</time>
      </trkpt>
      <trkpt lat="45.95605" lon="1.38694">
        <ele>407.6</ele>
        <time>2012-09-07T16:39:07Z</time>
      </trkpt>
      <trkpt lat="45.95605" lon="1.38698">
        <ele>407.2</ele>
        <time>2012-09-07T16:39:13Z</time>
      </trkpt>
      <trkpt lat="45.95609" lon="1.38705">
        <ele>406.6</ele>
        <time>2012-09-07T16:39:21Z</time>
      </trkpt>
      <trkpt lat="45.95607" lon="1.38704">
        <ele>406.6</ele>
        <time>2012-09-07T16:39:22Z</time>
      </trkpt>
      <trkpt lat="45.95606" lon="1.38707">
        <ele>406.6</ele>
        <time>2012-09-07T16:39:27Z</time>
      </trkpt>
      <trkpt lat="45.95606" lon="1.38712">
        <ele>406.6</ele>
        <time>2012-09-07T16:39:32Z</time>
      </trkpt>
      <trkpt lat="45.95608" lon="1.38716">
        <ele>406.6</ele>
        <time>2012-09-07T16:39:37Z</time>
      </trkpt>
      <trkpt lat="45.95612" lon="1.38719">
        <ele>406.6</ele>
        <time>2012-09-07T16:39:44Z</time>
      </trkpt>
      <trkpt lat="45.95617" lon="1.38724">
        <ele>406.8</ele>
        <time>2012-09-07T16:39:51Z</time>
      </trkpt>
      <trkpt lat="45.95618" lon="1.38729">
        <ele>407</ele>
        <time>2012-09-07T16:39:55Z</time>
      </trkpt>
      <trkpt lat="45.95619" lon="1.38731">
        <ele>407</ele>
        <time>2012-09-07T16:39:57Z</time>
      </trkpt>
      <trkpt lat="45.9562" lon="1.38733">
        <ele>406.8</ele>
        <time>2012-09-07T16:40:00Z</time>
      </trkpt>
      <trkpt lat="45.95622" lon="1.38735">
        <ele>407</ele>
        <time>2012-09-07T16:40:02Z</time>
      </trkpt>
      <trkpt lat="45.95621" lon="1.38738">
        <ele>407.2</ele>
        <time>2012-09-07T16:40:04Z</time>
      </trkpt>
      <trkpt lat="45.95622" lon="1.38741">
        <ele>407.4</ele>
        <time>2012-09-07T16:40:07Z</time>
      </trkpt>
      <trkpt lat="45.95622" lon="1.38742">
        <ele>407.6</ele>
        <time>2012-09-07T16:40:08Z</time>
      </trkpt>
      <trkpt lat="45.95623" lon="1.3875">
        <ele>408</ele>
        <time>2012-09-07T16:40:15Z</time>
      </trkpt>
      <trkpt lat="45.95622" lon="1.3875">
        <ele>408</ele>
        <time>2012-09-07T16:40:16Z</time>
      </trkpt>
      <trkpt lat="45.95625" lon="1.38753">
        <ele>408.8</ele>
        <time>2012-09-07T16:40:21Z</time>
      </trkpt>
      <trkpt lat="45.95629" lon="1.38758">
        <ele>409.8</ele>
        <time>2012-09-07T16:40:28Z</time>
      </trkpt>
      <trkpt lat="45.9563" lon="1.38766">
        <ele>410.8</ele>
        <time>2012-09-07T16:40:35Z</time>
      </trkpt>
      <trkpt lat="45.9563" lon="1.38767">
        <ele>410.8</ele>
        <time>2012-09-07T16:40:36Z</time>
      </trkpt>
      <trkpt lat="45.9563" lon="1.38772">
        <ele>411.8</ele>
        <time>2012-09-07T16:40:41Z</time>
      </trkpt>
      <trkpt lat="45.95629" lon="1.38773">
        <ele>411.8</ele>
        <time>2012-09-07T16:40:42Z</time>
      </trkpt>
      <trkpt lat="45.95629" lon="1.38779">
        <ele>412.8</ele>
        <time>2012-09-07T16:40:48Z</time>
      </trkpt>
      <trkpt lat="45.95627" lon="1.38782">
        <ele>413.4</ele>
        <time>2012-09-07T16:40:53Z</time>
      </trkpt>
      <trkpt lat="45.95628" lon="1.38788">
        <ele>414.4</ele>
        <time>2012-09-07T16:41:00Z</time>
      </trkpt>
      <trkpt lat="45.95626" lon="1.38796">
        <ele>415.4</ele>
        <time>2012-09-07T16:41:07Z</time>
      </trkpt>
      <trkpt lat="45.95626" lon="1.38799">
        <ele>415.6</ele>
        <time>2012-09-07T16:41:09Z</time>
      </trkpt>
      <trkpt lat="45.95626" lon="1.38802">
        <ele>416.2</ele>
        <time>2012-09-07T16:41:13Z</time>
      </trkpt>
      <trkpt lat="45.95626" lon="1.38806">
        <ele>417</ele>
        <time>2012-09-07T16:41:20Z</time>
      </trkpt>
      <trkpt lat="45.95627" lon="1.38809">
        <ele>417.2</ele>
        <time>2012-09-07T16:41:26Z</time>
      </trkpt>
      <trkpt lat="45.95628" lon="1.38816">
        <ele>417.2</ele>
        <time>2012-09-07T16:41:32Z</time>
      </trkpt>
      <trkpt lat="45.95627" lon="1.38823">
        <ele>417.6</ele>
        <time>2012-09-07T16:41:37Z</time>
      </trkpt>
      <trkpt lat="45.95627" lon="1.38828">
        <ele>418</ele>
        <time>2012-09-07T16:41:40Z</time>
      </trkpt>
      <trkpt lat="45.95626" lon="1.38831">
        <ele>418.4</ele>
        <time>2012-09-07T16:41:42Z</time>
      </trkpt>
      <trkpt lat="45.95626" lon="1.38838">
        <ele>419.2</ele>
        <time>2012-09-07T16:41:47Z</time>
      </trkpt>
      <trkpt lat="45.95628" lon="1.38847">
        <ele>419.6</ele>
        <time>2012-09-07T16:41:55Z</time>
      </trkpt>
      <trkpt lat="45.9563" lon="1.38852">
        <ele>420</ele>
        <time>2012-09-07T16:42:02Z</time>
      </trkpt>
      <trkpt lat="45.95633" lon="1.38866">
        <ele>420.6</ele>
        <time>2012-09-07T16:42:11Z</time>
      </trkpt>
      <trkpt lat="45.95637" lon="1.38876">
        <ele>421.4</ele>
        <time>2012-09-07T16:42:20Z</time>
      </trkpt>
      <trkpt lat="45.95641" lon="1.38888">
        <ele>422</ele>
        <time>2012-09-07T16:42:28Z</time>
      </trkpt>
      <trkpt lat="45.95645" lon="1.389">
        <ele>422.6</ele>
        <time>2012-09-07T16:42:36Z</time>
      </trkpt>
      <trkpt lat="45.95652" lon="1.38916">
        <ele>423.2</ele>
        <time>2012-09-07T16:42:47Z</time>
      </trkpt>
      <trkpt lat="45.95658" lon="1.38926">
        <ele>423.8</ele>
        <time>2012-09-07T16:42:55Z</time>
      </trkpt>
      <trkpt lat="45.95664" lon="1.38933">
        <ele>424.2</ele>
        <time>2012-09-07T16:43:02Z</time>
      </trkpt>
      <trkpt lat="45.9567" lon="1.38935">
        <ele>424.4</ele>
        <time>2012-09-07T16:43:09Z</time>
      </trkpt>
      <trkpt lat="45.95671" lon="1.38937">
        <ele>424.6</ele>
        <time>2012-09-07T16:43:14Z</time>
      </trkpt>
      <trkpt lat="45.95676" lon="1.38942">
        <ele>424.8</ele>
        <time>2012-09-07T16:43:20Z</time>
      </trkpt>
      <trkpt lat="45.95678" lon="1.38945">
        <ele>425</ele>
        <time>2012-09-07T16:43:26Z</time>
      </trkpt>
      <trkpt lat="45.95681" lon="1.38949">
        <ele>425.4</ele>
        <time>2012-09-07T16:43:35Z</time>
      </trkpt>
      <trkpt lat="45.95682" lon="1.3895">
        <ele>425.4</ele>
        <time>2012-09-07T16:43:36Z</time>
      </trkpt>
      <trkpt lat="45.95687" lon="1.38957">
        <ele>425.2</ele>
        <time>2012-09-07T16:43:39Z</time>
      </trkpt>
      <trkpt lat="45.95699" lon="1.38975">
        <ele>425</ele>
        <time>2012-09-07T16:43:45Z</time>
      </trkpt>
      <trkpt lat="45.95708" lon="1.38994">
        <ele>425</ele>
        <time>2012-09-07T16:43:49Z</time>
      </trkpt>
      <trkpt lat="45.95715" lon="1.39016">
        <ele>424.6</ele>
        <time>2012-09-07T16:43:54Z</time>
      </trkpt>
      <trkpt lat="45.95718" lon="1.39042">
        <ele>424.6</ele>
        <time>2012-09-07T16:43:59Z</time>
      </trkpt>
      <trkpt lat="45.95718" lon="1.39071">
        <ele>424.6</ele>
        <time>2012-09-07T16:44:03Z</time>
      </trkpt>
      <trkpt lat="45.95716" lon="1.39091">
        <ele>424.4</ele>
        <time>2012-09-07T16:44:06Z</time>
      </trkpt>
      <trkpt lat="45.95716" lon="1.39102">
        <ele>424.4</ele>
        <time>2012-09-07T16:44:08Z</time>
      </trkpt>
      <trkpt lat="45.95718" lon="1.39112">
        <ele>424.4</ele>
        <time>2012-09-07T16:44:10Z</time>
      </trkpt>
      <trkpt lat="45.95722" lon="1.39115">
        <ele>424.4</ele>
        <time>2012-09-07T16:44:12Z</time>
      </trkpt>
      <trkpt lat="45.95727" lon="1.39109">
        <ele>424.4</ele>
        <time>2012-09-07T16:44:14Z</time>
      </trkpt>
      <trkpt lat="45.95731" lon="1.39106">
        <ele>424.4</ele>
        <time>2012-09-07T16:44:15Z</time>
      </trkpt>
      <trkpt lat="45.95749" lon="1.39089">
        <ele>424.2</ele>
        <time>2012-09-07T16:44:20Z</time>
      </trkpt>
      <trkpt lat="45.95765" lon="1.39077">
        <ele>423.8</ele>
        <time>2012-09-07T16:44:24Z</time>
      </trkpt>
      <trkpt lat="45.9577" lon="1.39073">
        <ele>423.8</ele>
        <time>2012-09-07T16:44:25Z</time>
      </trkpt>
      <trkpt lat="45.95783" lon="1.39068">
        <ele>423.4</ele>
        <time>2012-09-07T16:44:29Z</time>
      </trkpt>
      <trkpt lat="45.95788" lon="1.39078">
        <ele>422.6</ele>
        <time>2012-09-07T16:44:33Z</time>
      </trkpt>
      <trkpt lat="45.95793" lon="1.39094">
        <ele>421.4</ele>
        <time>2012-09-07T16:44:38Z</time>
      </trkpt>
      <trkpt lat="45.95787" lon="1.39104">
        <ele>420.6</ele>
        <time>2012-09-07T16:44:41Z</time>
      </trkpt>
      <trkpt lat="45.95775" lon="1.39122">
        <ele>419.2</ele>
        <time>2012-09-07T16:44:46Z</time>
      </trkpt>
      <trkpt lat="45.95769" lon="1.3914">
        <ele>418.4</ele>
        <time>2012-09-07T16:44:50Z</time>
      </trkpt>
      <trkpt lat="45.95764" lon="1.39165">
        <ele>417.6</ele>
        <time>2012-09-07T16:44:55Z</time>
      </trkpt>
      <trkpt lat="45.95758" lon="1.39188">
        <ele>417</ele>
        <time>2012-09-07T16:45:00Z</time>
      </trkpt>
      <trkpt lat="45.95747" lon="1.39203">
        <ele>416.6</ele>
        <time>2012-09-07T16:45:05Z</time>
      </trkpt>
      <trkpt lat="45.95733" lon="1.39217">
        <ele>416.2</ele>
        <time>2012-09-07T16:45:10Z</time>
      </trkpt>
      <trkpt lat="45.95716" lon="1.39233">
        <ele>415.4</ele>
        <time>2012-09-07T16:45:15Z</time>
      </trkpt>
      <trkpt lat="45.95701" lon="1.39256">
        <ele>414.6</ele>
        <time>2012-09-07T16:45:20Z</time>
      </trkpt>
      <trkpt lat="45.95698" lon="1.3926">
        <ele>414.4</ele>
        <time>2012-09-07T16:45:21Z</time>
      </trkpt>
      <trkpt lat="45.95681" lon="1.39278">
        <ele>413.6</ele>
        <time>2012-09-07T16:45:26Z</time>
      </trkpt>
      <trkpt lat="45.95671" lon="1.39291">
        <ele>413</ele>
        <time>2012-09-07T16:45:29Z</time>
      </trkpt>
      <trkpt lat="45.95664" lon="1.39312">
        <ele>412.6</ele>
        <time>2012-09-07T16:45:32Z</time>
      </trkpt>
      <trkpt lat="45.95653" lon="1.39333">
        <ele>411.8</ele>
        <time>2012-09-07T16:45:35Z</time>
      </trkpt>
      <trkpt lat="45.95648" lon="1.39338">
        <ele>411.6</ele>
        <time>2012-09-07T16:45:36Z</time>
      </trkpt>
      <trkpt lat="45.95633" lon="1.39347">
        <ele>411</ele>
        <time>2012-09-07T16:45:39Z</time>
      </trkpt>
      <trkpt lat="45.95627" lon="1.39349">
        <ele>410.6</ele>
        <time>2012-09-07T16:45:40Z</time>
      </trkpt>
      <trkpt lat="45.95606" lon="1.39358">
        <ele>409.8</ele>
        <time>2012-09-07T16:45:44Z</time>
      </trkpt>
      <trkpt lat="45.956" lon="1.39358">
        <ele>409.6</ele>
        <time>2012-09-07T16:45:45Z</time>
      </trkpt>
      <trkpt lat="45.95583" lon="1.39354">
        <ele>408.6</ele>
        <time>2012-09-07T16:45:49Z</time>
      </trkpt>
      <trkpt lat="45.9558" lon="1.39353">
        <ele>408.4</ele>
        <time>2012-09-07T16:45:50Z</time>
      </trkpt>
      <trkpt lat="45.95568" lon="1.39349">
        <ele>407.6</ele>
        <time>2012-09-07T16:45:54Z</time>
      </trkpt>
      <trkpt lat="45.95554" lon="1.39344">
        <ele>406.6</ele>
        <time>2012-09-07T16:46:00Z</time>
      </trkpt>
      <trkpt lat="45.95543" lon="1.39338">
        <ele>406</ele>
        <time>2012-09-07T16:46:06Z</time>
      </trkpt>
      <trkpt lat="45.95534" lon="1.39332">
        <ele>405.6</ele>
        <time>2012-09-07T16:46:13Z</time>
      </trkpt>
      <trkpt lat="45.95528" lon="1.39325">
        <ele>405.4</ele>
        <time>2012-09-07T16:46:20Z</time>
      </trkpt>
      <trkpt lat="45.95522" lon="1.39319">
        <ele>406</ele>
        <time>2012-09-07T16:46:26Z</time>
      </trkpt>
      <trkpt lat="45.95515" lon="1.39316">
        <ele>407</ele>
        <time>2012-09-07T16:46:31Z</time>
      </trkpt>
      <trkpt lat="45.95507" lon="1.39311">
        <ele>408.4</ele>
        <time>2012-09-07T16:46:38Z</time>
      </trkpt>
      <trkpt lat="45.95498" lon="1.39303">
        <ele>409</ele>
        <time>2012-09-07T16:46:44Z</time>
      </trkpt>
      <trkpt lat="45.95497" lon="1.39303">
        <ele>408.8</ele>
        <time>2012-09-07T16:46:45Z</time>
      </trkpt>
      <trkpt lat="45.9549" lon="1.39305">
        <ele>408.8</ele>
        <time>2012-09-07T16:46:50Z</time>
      </trkpt>
      <trkpt lat="45.95488" lon="1.39305">
        <ele>408.8</ele>
        <time>2012-09-07T16:46:55Z</time>
      </trkpt>
      <trkpt lat="45.95486" lon="1.39306">
        <ele>409</ele>
        <time>2012-09-07T16:46:56Z</time>
      </trkpt>
      <trkpt lat="45.95483" lon="1.39306">
        <ele>408.6</ele>
        <time>2012-09-07T16:47:01Z</time>
      </trkpt>
      <trkpt lat="45.95479" lon="1.39305">
        <ele>408.2</ele>
        <time>2012-09-07T16:47:07Z</time>
      </trkpt>
      <trkpt lat="45.95475" lon="1.39306">
        <ele>407.6</ele>
        <time>2012-09-07T16:47:14Z</time>
      </trkpt>
      <trkpt lat="45.95469" lon="1.39304">
        <ele>407.4</ele>
        <time>2012-09-07T16:47:19Z</time>
      </trkpt>
      <trkpt lat="45.95468" lon="1.39304">
        <ele>407.4</ele>
        <time>2012-09-07T16:47:20Z</time>
      </trkpt>
      <trkpt lat="45.95464" lon="1.39301">
        <ele>408.4</ele>
        <time>2012-09-07T16:47:26Z</time>
      </trkpt>
      <trkpt lat="45.95463" lon="1.393">
        <ele>408.6</ele>
        <time>2012-09-07T16:47:27Z</time>
      </trkpt>
      <trkpt lat="45.9546" lon="1.393">
        <ele>410.4</ele>
        <time>2012-09-07T16:47:33Z</time>
      </trkpt>
      <trkpt lat="45.95456" lon="1.39301">
        <ele>411.6</ele>
        <time>2012-09-07T16:47:37Z</time>
      </trkpt>
      <trkpt lat="45.95454" lon="1.39301">
        <ele>413</ele>
        <time>2012-09-07T16:47:40Z</time>
      </trkpt>
      <trkpt lat="45.95451" lon="1.39308">
        <ele>416</ele>
        <time>2012-09-07T16:47:48Z</time>
      </trkpt>
      <trkpt lat="45.95446" lon="1.39313">
        <ele>417.8</ele>
        <time>2012-09-07T16:47:55Z</time>
      </trkpt>
      <trkpt lat="45.95442" lon="1.39314">
        <ele>419</ele>
        <time>2012-09-07T16:48:01Z</time>
      </trkpt>
      <trkpt lat="45.95439" lon="1.39315">
        <ele>419.8</ele>
        <time>2012-09-07T16:48:08Z</time>
      </trkpt>
      <trkpt lat="45.95434" lon="1.39317">
        <ele>420.8</ele>
        <time>2012-09-07T16:48:15Z</time>
      </trkpt>
      <trkpt lat="45.9543" lon="1.39315">
        <ele>422</ele>
        <time>2012-09-07T16:48:22Z</time>
      </trkpt>
      <trkpt lat="45.95424" lon="1.39313">
        <ele>422.8</ele>
        <time>2012-09-07T16:48:30Z</time>
      </trkpt>
      <trkpt lat="45.95423" lon="1.39311">
        <ele>422.6</ele>
        <time>2012-09-07T16:48:36Z</time>
      </trkpt>
      <trkpt lat="45.95419" lon="1.3931">
        <ele>422.2</ele>
        <time>2012-09-07T16:48:46Z</time>
      </trkpt>
      <trkpt lat="45.95416" lon="1.39305">
        <ele>422</ele>
        <time>2012-09-07T16:48:52Z</time>
      </trkpt>
      <trkpt lat="45.95414" lon="1.39301">
        <ele>422</ele>
        <time>2012-09-07T16:48:55Z</time>
      </trkpt>
      <trkpt lat="45.95412" lon="1.39296">
        <ele>422</ele>
        <time>2012-09-07T16:48:59Z</time>
      </trkpt>
      <trkpt lat="45.95412" lon="1.39286">
        <ele>422.2</ele>
        <time>2012-09-07T16:49:05Z</time>
      </trkpt>
      <trkpt lat="45.95412" lon="1.39284">
        <ele>422.4</ele>
        <time>2012-09-07T16:49:07Z</time>
      </trkpt>
      <trkpt lat="45.95412" lon="1.39282">
        <ele>422.8</ele>
        <time>2012-09-07T16:49:10Z</time>
      </trkpt>
      <trkpt lat="45.95416" lon="1.39264">
        <ele>423.6</ele>
        <time>2012-09-07T16:49:17Z</time>
      </trkpt>
      <trkpt lat="45.95419" lon="1.39239">
        <ele>423.6</ele>
        <time>2012-09-07T16:49:25Z</time>
      </trkpt>
      <trkpt lat="45.95419" lon="1.39216">
        <ele>423.6</ele>
        <time>2012-09-07T16:49:31Z</time>
      </trkpt>
      <trkpt lat="45.95417" lon="1.39188">
        <ele>423.2</ele>
        <time>2012-09-07T16:49:37Z</time>
      </trkpt>
      <trkpt lat="45.95403" lon="1.39171">
        <ele>423</ele>
        <time>2012-09-07T16:49:42Z</time>
      </trkpt>
      <trkpt lat="45.95388" lon="1.39153">
        <ele>422.6</ele>
        <time>2012-09-07T16:49:47Z</time>
      </trkpt>
      <trkpt lat="45.95383" lon="1.39145">
        <ele>422.6</ele>
        <time>2012-09-07T16:49:49Z</time>
      </trkpt>
      <trkpt lat="45.95369" lon="1.39124">
        <ele>422</ele>
        <time>2012-09-07T16:49:54Z</time>
      </trkpt>
      <trkpt lat="45.95362" lon="1.39115">
        <ele>421.8</ele>
        <time>2012-09-07T16:49:56Z</time>
      </trkpt>
      <trkpt lat="45.95345" lon="1.39094">
        <ele>421.2</ele>
        <time>2012-09-07T16:49:59Z</time>
      </trkpt>
      <trkpt lat="45.9534" lon="1.39086">
        <ele>421</ele>
        <time>2012-09-07T16:50:00Z</time>
      </trkpt>
      <trkpt lat="45.95326" lon="1.39067">
        <ele>420.6</ele>
        <time>2012-09-07T16:50:03Z</time>
      </trkpt>
      <trkpt lat="45.95321" lon="1.39063">
        <ele>420.4</ele>
        <time>2012-09-07T16:50:04Z</time>
      </trkpt>
      <trkpt lat="45.95304" lon="1.39064">
        <ele>420</ele>
        <time>2012-09-07T16:50:07Z</time>
      </trkpt>
      <trkpt lat="45.95293" lon="1.39072">
        <ele>419.6</ele>
        <time>2012-09-07T16:50:09Z</time>
      </trkpt>
      <trkpt lat="45.95288" lon="1.39075">
        <ele>419.6</ele>
        <time>2012-09-07T16:50:10Z</time>
      </trkpt>
      <trkpt lat="45.95282" lon="1.39075">
        <ele>419.4</ele>
        <time>2012-09-07T16:50:11Z</time>
      </trkpt>
      <trkpt lat="45.95266" lon="1.39073">
        <ele>419</ele>
        <time>2012-09-07T16:50:14Z</time>
      </trkpt>
      <trkpt lat="45.95262" lon="1.39075">
        <ele>418.8</ele>
        <time>2012-09-07T16:50:15Z</time>
      </trkpt>
      <trkpt lat="45.95249" lon="1.39088">
        <ele>418.4</ele>
        <time>2012-09-07T16:50:19Z</time>
      </trkpt>
      <trkpt lat="45.95244" lon="1.39079">
        <ele>418</ele>
        <time>2012-09-07T16:50:21Z</time>
      </trkpt>
      <trkpt lat="45.95245" lon="1.39058">
        <ele>417.6</ele>
        <time>2012-09-07T16:50:24Z</time>
      </trkpt>
      <trkpt lat="45.95247" lon="1.3903">
        <ele>417.2</ele>
        <time>2012-09-07T16:50:27Z</time>
      </trkpt>
      <trkpt lat="45.95247" lon="1.39009">
        <ele>416.8</ele>
        <time>2012-09-07T16:50:29Z</time>
      </trkpt>
      <trkpt lat="45.95246" lon="1.38988">
        <ele>416.6</ele>
        <time>2012-09-07T16:50:31Z</time>
      </trkpt>
      <trkpt lat="45.95241" lon="1.38959">
        <ele>416</ele>
        <time>2012-09-07T16:50:34Z</time>
      </trkpt>
      <trkpt lat="45.95225" lon="1.38934">
        <ele>415.4</ele>
        <time>2012-09-07T16:50:38Z</time>
      </trkpt>
      <trkpt lat="45.95222" lon="1.3893">
        <ele>415.2</ele>
        <time>2012-09-07T16:50:39Z</time>
      </trkpt>
      <trkpt lat="45.95219" lon="1.38928">
        <ele>415.2</ele>
        <time>2012-09-07T16:50:40Z</time>
      </trkpt>
      <trkpt lat="45.95215" lon="1.38922">
        <ele>414.8</ele>
        <time>2012-09-07T16:50:42Z</time>
      </trkpt>
      <trkpt lat="45.95211" lon="1.3892">
        <ele>414.6</ele>
        <time>2012-09-07T16:50:44Z</time>
      </trkpt>
      <trkpt lat="45.95211" lon="1.3892">
        <ele>414.2</ele>
        <time>2012-09-07T16:50:46Z</time>
      </trkpt>
      <trkpt lat="45.95211" lon="1.3892">
        <ele>413.8</ele>
        <time>2012-09-07T16:50:50Z</time>
      </trkpt>
    </trkseg>
  </trk>
</gpx>